<?xml version="1.0" encoding="UTF-8" standalone="no" ?>
<gpx xmlns="http://www.topografix.com/GPX/1/1" xmlns:xsi="http://www.w3.org/2001/XMLSchema-instance" xsi:schemaLocation="http://www.topografix.com/GPX/1/1 http://www.topografix.com/GPX/1/1/gpx.xsd" version="1.1" creator="VisuGPX - https://www.visugpx.com">
  <metadata>
    <name>Edirne-Mostar</name>
  </metadata>
  <trk>
    <name><![CDATA[Tour d'Europe: étape 674]]></name>
    <extensions>
      <line xmlns="http://www.topografix.com/GPX/gpx_style/0/2">
        <color>880088</color>
        <width>4</width>
      </line>
    </extensions>
    <trkseg>
      <trkpt lat="41.11687" lon="20.08468">
        <ele>100.256413</ele>
        <time>2022-05-03T07:16:55.798Z</time>
      </trkpt>
      <trkpt lat="41.11685" lon="20.08448">
        <ele>100.256413</ele>
        <time>2022-05-03T07:16:56.602Z</time>
      </trkpt>
      <trkpt lat="41.1169" lon="20.08471">
        <ele>100.256413</ele>
        <time>2022-05-03T07:16:57.643Z</time>
      </trkpt>
      <trkpt lat="41.11691" lon="20.08504">
        <ele>100.256413</ele>
        <time>2022-05-03T07:17:04.651Z</time>
      </trkpt>
      <trkpt lat="41.117" lon="20.08526">
        <ele>100.256413</ele>
        <time>2022-05-03T07:17:08.652Z</time>
      </trkpt>
      <trkpt lat="41.11718" lon="20.08573">
        <ele>112.908335</ele>
        <time>2022-05-03T07:19:14.613Z</time>
      </trkpt>
      <trkpt lat="41.11734" lon="20.08586">
        <ele>121.504655</ele>
        <time>2022-05-03T07:35:09.594Z</time>
      </trkpt>
      <trkpt lat="41.11749" lon="20.08583">
        <ele>128.561012</ele>
        <time>2022-05-03T07:35:11.603Z</time>
      </trkpt>
      <trkpt lat="41.11766" lon="20.08585">
        <ele>136.433745</ele>
        <time>2022-05-03T07:35:23.648Z</time>
      </trkpt>
      <trkpt lat="41.11773" lon="20.08595">
        <ele>140.924427</ele>
        <time>2022-05-03T07:35:28.583Z</time>
      </trkpt>
      <trkpt lat="41.11779" lon="20.08605">
        <ele>145.41062</ele>
        <time>2022-05-03T07:35:32.603Z</time>
      </trkpt>
      <trkpt lat="41.11782" lon="20.08618">
        <ele>150.1993</ele>
        <time>2022-05-03T07:35:36.591Z</time>
      </trkpt>
      <trkpt lat="41.1178" lon="20.08632">
        <ele>155.109509</ele>
        <time>2022-05-03T07:35:41.580Z</time>
      </trkpt>
      <trkpt lat="41.11776" lon="20.08642">
        <ele>159.220159</ele>
        <time>2022-05-03T07:35:44.586Z</time>
      </trkpt>
      <trkpt lat="41.11768" lon="20.08653">
        <ele>164.465733</ele>
        <time>2022-05-03T07:35:48.627Z</time>
      </trkpt>
      <trkpt lat="41.11763" lon="20.08665">
        <ele>169.026245</ele>
        <time>2022-05-03T07:35:52.595Z</time>
      </trkpt>
      <trkpt lat="41.11758" lon="20.08676">
        <ele>173.613082</ele>
        <time>2022-05-03T07:35:56.591Z</time>
      </trkpt>
      <trkpt lat="41.11754" lon="20.08688">
        <ele>177.884206</ele>
        <time>2022-05-03T07:36:00.615Z</time>
      </trkpt>
      <trkpt lat="41.1175" lon="20.08699">
        <ele>182.215887</ele>
        <time>2022-05-03T07:36:05.588Z</time>
      </trkpt>
      <trkpt lat="41.1175" lon="20.08711">
        <ele>182.664981</ele>
        <time>2022-05-03T07:36:11.590Z</time>
      </trkpt>
      <trkpt lat="41.11741" lon="20.08706">
        <ele>182.824844</ele>
        <time>2022-05-03T07:36:15.586Z</time>
      </trkpt>
      <trkpt lat="41.11731" lon="20.08698">
        <ele>183.009864</ele>
        <time>2022-05-03T07:36:18.609Z</time>
      </trkpt>
      <trkpt lat="41.11722" lon="20.0869">
        <ele>183.199488</ele>
        <time>2022-05-03T07:36:22.589Z</time>
      </trkpt>
      <trkpt lat="41.11716" lon="20.08679">
        <ele>183.371094</ele>
        <time>2022-05-03T07:36:26.583Z</time>
      </trkpt>
      <trkpt lat="41.11707" lon="20.08668">
        <ele>183.567057</ele>
        <time>2022-05-03T07:36:29.584Z</time>
      </trkpt>
      <trkpt lat="41.11699" lon="20.08656">
        <ele>183.762917</ele>
        <time>2022-05-03T07:36:32.585Z</time>
      </trkpt>
      <trkpt lat="41.11691" lon="20.08652">
        <ele>183.914384</ele>
        <time>2022-05-03T07:36:35.582Z</time>
      </trkpt>
      <trkpt lat="41.11679" lon="20.08657">
        <ele>184.119704</ele>
        <time>2022-05-03T07:36:38.583Z</time>
      </trkpt>
      <trkpt lat="41.11668" lon="20.08661">
        <ele>184.301679</ele>
        <time>2022-05-03T07:36:41.597Z</time>
      </trkpt>
      <trkpt lat="41.11658" lon="20.08667">
        <ele>184.484057</ele>
        <time>2022-05-03T07:36:44.590Z</time>
      </trkpt>
      <trkpt lat="41.11648" lon="20.08674">
        <ele>184.675137</ele>
        <time>2022-05-03T07:36:47.588Z</time>
      </trkpt>
      <trkpt lat="41.11637" lon="20.08681">
        <ele>184.874712</ele>
        <time>2022-05-03T07:36:50.586Z</time>
      </trkpt>
      <trkpt lat="41.11628" lon="20.08688">
        <ele>185.047076</ele>
        <time>2022-05-03T07:36:52.586Z</time>
      </trkpt>
      <trkpt lat="41.11617" lon="20.08693">
        <ele>185.233487</ele>
        <time>2022-05-03T07:36:54.611Z</time>
      </trkpt>
      <trkpt lat="41.11608" lon="20.08697">
        <ele>185.402671</ele>
        <time>2022-05-03T07:36:56.591Z</time>
      </trkpt>
      <trkpt lat="41.11596" lon="20.08702">
        <ele>185.27205</ele>
        <time>2022-05-03T07:36:58.592Z</time>
      </trkpt>
      <trkpt lat="41.11587" lon="20.08708">
        <ele>184.943838</ele>
        <time>2022-05-03T07:37:00.619Z</time>
      </trkpt>
      <trkpt lat="41.11575" lon="20.08714">
        <ele>184.522793</ele>
        <time>2022-05-03T07:37:03.597Z</time>
      </trkpt>
      <trkpt lat="41.11566" lon="20.08717">
        <ele>184.211304</ele>
        <time>2022-05-03T07:37:05.596Z</time>
      </trkpt>
      <trkpt lat="41.11557" lon="20.0872">
        <ele>183.884847</ele>
        <time>2022-05-03T07:37:07.581Z</time>
      </trkpt>
      <trkpt lat="41.11547" lon="20.08724">
        <ele>183.536847</ele>
        <time>2022-05-03T07:37:09.590Z</time>
      </trkpt>
      <trkpt lat="41.11536" lon="20.08728">
        <ele>183.179233</ele>
        <time>2022-05-03T07:37:11.585Z</time>
      </trkpt>
      <trkpt lat="41.11527" lon="20.08734">
        <ele>182.8354</ele>
        <time>2022-05-03T07:37:14.588Z</time>
      </trkpt>
      <trkpt lat="41.11517" lon="20.08731">
        <ele>182.499595</ele>
        <time>2022-05-03T07:37:17.590Z</time>
      </trkpt>
      <trkpt lat="41.11508" lon="20.08721">
        <ele>182.107798</ele>
        <time>2022-05-03T07:37:20.582Z</time>
      </trkpt>
      <trkpt lat="41.11498" lon="20.08715">
        <ele>181.731016</ele>
        <time>2022-05-03T07:37:23.629Z</time>
      </trkpt>
      <trkpt lat="41.11487" lon="20.08707">
        <ele>181.322647</ele>
        <time>2022-05-03T07:37:26.586Z</time>
      </trkpt>
      <trkpt lat="41.11476" lon="20.08698">
        <ele>180.900622</ele>
        <time>2022-05-03T07:37:29.591Z</time>
      </trkpt>
      <trkpt lat="41.11469" lon="20.0869">
        <ele>180.578456</ele>
        <time>2022-05-03T07:37:31.585Z</time>
      </trkpt>
      <trkpt lat="41.11461" lon="20.08682">
        <ele>180.257081</ele>
        <time>2022-05-03T07:37:33.612Z</time>
      </trkpt>
      <trkpt lat="41.11452" lon="20.08676">
        <ele>179.917246</ele>
        <time>2022-05-03T07:37:35.584Z</time>
      </trkpt>
      <trkpt lat="41.11443" lon="20.0867">
        <ele>179.579765</ele>
        <time>2022-05-03T07:37:37.585Z</time>
      </trkpt>
      <trkpt lat="41.11435" lon="20.08662">
        <ele>179.635212</ele>
        <time>2022-05-03T07:37:39.582Z</time>
      </trkpt>
      <trkpt lat="41.11428" lon="20.08652">
        <ele>179.78503</ele>
        <time>2022-05-03T07:37:41.588Z</time>
      </trkpt>
      <trkpt lat="41.11423" lon="20.08641">
        <ele>179.922685</ele>
        <time>2022-05-03T07:37:43.587Z</time>
      </trkpt>
      <trkpt lat="41.1142" lon="20.08629">
        <ele>180.058897</ele>
        <time>2022-05-03T07:37:45.596Z</time>
      </trkpt>
      <trkpt lat="41.11416" lon="20.08617">
        <ele>180.196811</ele>
        <time>2022-05-03T07:37:47.592Z</time>
      </trkpt>
      <trkpt lat="41.11413" lon="20.08606">
        <ele>180.330658</ele>
        <time>2022-05-03T07:37:49.622Z</time>
      </trkpt>
      <trkpt lat="41.11408" lon="20.0859">
        <ele>180.51507</ele>
        <time>2022-05-03T07:37:52.590Z</time>
      </trkpt>
      <trkpt lat="41.11403" lon="20.08579">
        <ele>180.661506</ele>
        <time>2022-05-03T07:37:55.581Z</time>
      </trkpt>
      <trkpt lat="41.11397" lon="20.08566">
        <ele>180.822168</ele>
        <time>2022-05-03T07:37:58.587Z</time>
      </trkpt>
      <trkpt lat="41.11392" lon="20.08552">
        <ele>180.987857</ele>
        <time>2022-05-03T07:38:01.581Z</time>
      </trkpt>
      <trkpt lat="41.11388" lon="20.08539">
        <ele>181.144537</ele>
        <time>2022-05-03T07:38:06.586Z</time>
      </trkpt>
      <trkpt lat="41.11383" lon="20.08526">
        <ele>181.308554</ele>
        <time>2022-05-03T07:38:10.584Z</time>
      </trkpt>
      <trkpt lat="41.11378" lon="20.08512">
        <ele>181.475666</ele>
        <time>2022-05-03T07:38:13.590Z</time>
      </trkpt>
      <trkpt lat="41.11373" lon="20.08496">
        <ele>181.664083</ele>
        <time>2022-05-03T07:38:16.583Z</time>
      </trkpt>
      <trkpt lat="41.11367" lon="20.08481">
        <ele>181.842711</ele>
        <time>2022-05-03T07:38:19.591Z</time>
      </trkpt>
      <trkpt lat="41.11361" lon="20.08468">
        <ele>182.014778</ele>
        <time>2022-05-03T07:38:22.592Z</time>
      </trkpt>
      <trkpt lat="41.11354" lon="20.08456">
        <ele>181.91321</ele>
        <time>2022-05-03T07:38:25.598Z</time>
      </trkpt>
      <trkpt lat="41.1135" lon="20.08444">
        <ele>181.373677</ele>
        <time>2022-05-03T07:38:28.592Z</time>
      </trkpt>
      <trkpt lat="41.11346" lon="20.08433">
        <ele>180.87337</ele>
        <time>2022-05-03T07:38:31.591Z</time>
      </trkpt>
      <trkpt lat="41.11343" lon="20.0842">
        <ele>180.359984</ele>
        <time>2022-05-03T07:38:34.591Z</time>
      </trkpt>
      <trkpt lat="41.1134" lon="20.08407">
        <ele>179.798269</ele>
        <time>2022-05-03T07:38:37.589Z</time>
      </trkpt>
      <trkpt lat="41.11338" lon="20.08395">
        <ele>179.313873</ele>
        <time>2022-05-03T07:38:39.584Z</time>
      </trkpt>
      <trkpt lat="41.11335" lon="20.0838">
        <ele>178.672582</ele>
        <time>2022-05-03T07:38:42.595Z</time>
      </trkpt>
      <trkpt lat="41.11332" lon="20.08368">
        <ele>178.169731</ele>
        <time>2022-05-03T07:38:45.609Z</time>
      </trkpt>
      <trkpt lat="41.1133" lon="20.08354">
        <ele>177.590628</ele>
        <time>2022-05-03T07:38:48.586Z</time>
      </trkpt>
      <trkpt lat="41.11327" lon="20.08338">
        <ele>176.938964</ele>
        <time>2022-05-03T07:38:51.586Z</time>
      </trkpt>
      <trkpt lat="41.11323" lon="20.08321">
        <ele>176.253483</ele>
        <time>2022-05-03T07:38:54.584Z</time>
      </trkpt>
      <trkpt lat="41.11321" lon="20.0831">
        <ele>175.759301</ele>
        <time>2022-05-03T07:38:56.579Z</time>
      </trkpt>
      <trkpt lat="41.11317" lon="20.08295">
        <ele>175.138231</ele>
        <time>2022-05-03T07:38:59.594Z</time>
      </trkpt>
      <trkpt lat="41.11314" lon="20.08281">
        <ele>174.555798</ele>
        <time>2022-05-03T07:39:02.592Z</time>
      </trkpt>
      <trkpt lat="41.1131" lon="20.08268">
        <ele>174.010132</ele>
        <time>2022-05-03T07:39:05.594Z</time>
      </trkpt>
      <trkpt lat="41.11307" lon="20.08256">
        <ele>173.479505</ele>
        <time>2022-05-03T07:39:08.591Z</time>
      </trkpt>
      <trkpt lat="41.11304" lon="20.08243">
        <ele>172.959764</ele>
        <time>2022-05-03T07:39:11.605Z</time>
      </trkpt>
      <trkpt lat="41.113" lon="20.0823">
        <ele>172.617733</ele>
        <time>2022-05-03T07:39:14.591Z</time>
      </trkpt>
      <trkpt lat="41.11297" lon="20.08218">
        <ele>172.841359</ele>
        <time>2022-05-03T07:39:17.626Z</time>
      </trkpt>
      <trkpt lat="41.11293" lon="20.08205">
        <ele>173.062824</ele>
        <time>2022-05-03T07:39:20.592Z</time>
      </trkpt>
      <trkpt lat="41.11289" lon="20.08193">
        <ele>173.293714</ele>
        <time>2022-05-03T07:39:23.589Z</time>
      </trkpt>
      <trkpt lat="41.11285" lon="20.0818">
        <ele>173.522893</ele>
        <time>2022-05-03T07:39:26.588Z</time>
      </trkpt>
      <trkpt lat="41.11281" lon="20.08167">
        <ele>173.75903</ele>
        <time>2022-05-03T07:39:29.586Z</time>
      </trkpt>
      <trkpt lat="41.11277" lon="20.08154">
        <ele>173.997525</ele>
        <time>2022-05-03T07:39:32.590Z</time>
      </trkpt>
      <trkpt lat="41.11273" lon="20.08141">
        <ele>174.228253</ele>
        <time>2022-05-03T07:39:35.592Z</time>
      </trkpt>
      <trkpt lat="41.11269" lon="20.08128">
        <ele>174.456738</ele>
        <time>2022-05-03T07:39:38.590Z</time>
      </trkpt>
      <trkpt lat="41.11266" lon="20.08117">
        <ele>174.659572</ele>
        <time>2022-05-03T07:39:41.594Z</time>
      </trkpt>
      <trkpt lat="41.11263" lon="20.08106">
        <ele>174.85906</ele>
        <time>2022-05-03T07:39:44.622Z</time>
      </trkpt>
      <trkpt lat="41.11259" lon="20.08094">
        <ele>175.066763</ele>
        <time>2022-05-03T07:39:47.589Z</time>
      </trkpt>
      <trkpt lat="41.11254" lon="20.08083">
        <ele>175.276361</ele>
        <time>2022-05-03T07:39:50.586Z</time>
      </trkpt>
      <trkpt lat="41.1125" lon="20.08072">
        <ele>175.489546</ele>
        <time>2022-05-03T07:39:53.591Z</time>
      </trkpt>
      <trkpt lat="41.11247" lon="20.0806">
        <ele>175.70622</ele>
        <time>2022-05-03T07:39:56.594Z</time>
      </trkpt>
      <trkpt lat="41.11243" lon="20.08048">
        <ele>175.918826</ele>
        <time>2022-05-03T07:39:59.586Z</time>
      </trkpt>
      <trkpt lat="41.11239" lon="20.08037">
        <ele>176.130869</ele>
        <time>2022-05-03T07:40:02.585Z</time>
      </trkpt>
      <trkpt lat="41.11235" lon="20.08025">
        <ele>176.338573</ele>
        <time>2022-05-03T07:40:05.599Z</time>
      </trkpt>
      <trkpt lat="41.11231" lon="20.08011">
        <ele>176.734484</ele>
        <time>2022-05-03T07:40:09.599Z</time>
      </trkpt>
      <trkpt lat="41.11229" lon="20.07995">
        <ele>177.664515</ele>
        <time>2022-05-03T07:40:13.591Z</time>
      </trkpt>
      <trkpt lat="41.11225" lon="20.0798">
        <ele>178.619113</ele>
        <time>2022-05-03T07:40:16.588Z</time>
      </trkpt>
      <trkpt lat="41.11221" lon="20.07966">
        <ele>179.506358</ele>
        <time>2022-05-03T07:40:19.591Z</time>
      </trkpt>
      <trkpt lat="41.1122" lon="20.07953">
        <ele>180.317709</ele>
        <time>2022-05-03T07:40:22.588Z</time>
      </trkpt>
      <trkpt lat="41.11217" lon="20.07938">
        <ele>181.240597</ele>
        <time>2022-05-03T07:40:25.593Z</time>
      </trkpt>
      <trkpt lat="41.11215" lon="20.07922">
        <ele>182.199619</ele>
        <time>2022-05-03T07:40:28.591Z</time>
      </trkpt>
      <trkpt lat="41.11211" lon="20.07907">
        <ele>183.1456</ele>
        <time>2022-05-03T07:40:31.590Z</time>
      </trkpt>
      <trkpt lat="41.11208" lon="20.07892">
        <ele>184.05848</ele>
        <time>2022-05-03T07:40:34.603Z</time>
      </trkpt>
      <trkpt lat="41.11203" lon="20.07881">
        <ele>184.835623</ele>
        <time>2022-05-03T07:40:37.587Z</time>
      </trkpt>
      <trkpt lat="41.11199" lon="20.0787">
        <ele>185.585668</ele>
        <time>2022-05-03T07:40:40.587Z</time>
      </trkpt>
      <trkpt lat="41.11199" lon="20.07855">
        <ele>186.454109</ele>
        <time>2022-05-03T07:40:43.589Z</time>
      </trkpt>
      <trkpt lat="41.11197" lon="20.07841">
        <ele>187.289096</ele>
        <time>2022-05-03T07:40:47.590Z</time>
      </trkpt>
      <trkpt lat="41.11197" lon="20.07829">
        <ele>188.013793</ele>
        <time>2022-05-03T07:40:50.584Z</time>
      </trkpt>
      <trkpt lat="41.11197" lon="20.07817">
        <ele>188.744073</ele>
        <time>2022-05-03T07:40:53.585Z</time>
      </trkpt>
      <trkpt lat="41.11199" lon="20.07805">
        <ele>189.457525</ele>
        <time>2022-05-03T07:40:57.593Z</time>
      </trkpt>
      <trkpt lat="41.11202" lon="20.07793">
        <ele>190.244554</ele>
        <time>2022-05-03T07:41:01.590Z</time>
      </trkpt>
      <trkpt lat="41.11205" lon="20.07777">
        <ele>190.951659</ele>
        <time>2022-05-03T07:41:05.592Z</time>
      </trkpt>
      <trkpt lat="41.11206" lon="20.07766">
        <ele>191.206942</ele>
        <time>2022-05-03T07:41:08.590Z</time>
      </trkpt>
      <trkpt lat="41.11206" lon="20.07752">
        <ele>191.490975</ele>
        <time>2022-05-03T07:41:11.588Z</time>
      </trkpt>
      <trkpt lat="41.11208" lon="20.07737">
        <ele>191.80873</ele>
        <time>2022-05-03T07:41:14.592Z</time>
      </trkpt>
      <trkpt lat="41.1121" lon="20.07721">
        <ele>192.164913</ele>
        <time>2022-05-03T07:41:17.592Z</time>
      </trkpt>
      <trkpt lat="41.1121" lon="20.07705">
        <ele>192.504146</ele>
        <time>2022-05-03T07:41:19.596Z</time>
      </trkpt>
      <trkpt lat="41.1121" lon="20.0769">
        <ele>192.820272</ele>
        <time>2022-05-03T07:41:21.634Z</time>
      </trkpt>
      <trkpt lat="41.11211" lon="20.07677">
        <ele>193.102082</ele>
        <time>2022-05-03T07:41:23.596Z</time>
      </trkpt>
      <trkpt lat="41.11213" lon="20.07665">
        <ele>193.359071</ele>
        <time>2022-05-03T07:41:25.584Z</time>
      </trkpt>
      <trkpt lat="41.11215" lon="20.07647">
        <ele>193.739302</ele>
        <time>2022-05-03T07:41:28.593Z</time>
      </trkpt>
      <trkpt lat="41.11216" lon="20.07635">
        <ele>194.006898</ele>
        <time>2022-05-03T07:41:30.592Z</time>
      </trkpt>
      <trkpt lat="41.11216" lon="20.07622">
        <ele>194.274908</ele>
        <time>2022-05-03T07:41:32.591Z</time>
      </trkpt>
      <trkpt lat="41.11219" lon="20.0761">
        <ele>194.531897</ele>
        <time>2022-05-03T07:41:34.585Z</time>
      </trkpt>
      <trkpt lat="41.11221" lon="20.07598">
        <ele>194.804627</ele>
        <time>2022-05-03T07:41:36.586Z</time>
      </trkpt>
      <trkpt lat="41.11223" lon="20.07586">
        <ele>195.065733</ele>
        <time>2022-05-03T07:41:38.591Z</time>
      </trkpt>
      <trkpt lat="41.11227" lon="20.07568">
        <ele>195.446039</ele>
        <time>2022-05-03T07:41:41.593Z</time>
      </trkpt>
      <trkpt lat="41.11229" lon="20.07557">
        <ele>195.704464</ele>
        <time>2022-05-03T07:41:43.588Z</time>
      </trkpt>
      <trkpt lat="41.11231" lon="20.07543">
        <ele>195.658488</ele>
        <time>2022-05-03T07:41:45.593Z</time>
      </trkpt>
      <trkpt lat="41.11234" lon="20.07531">
        <ele>195.102294</ele>
        <time>2022-05-03T07:41:47.595Z</time>
      </trkpt>
      <trkpt lat="41.11237" lon="20.07518">
        <ele>194.555626</ele>
        <time>2022-05-03T07:41:49.592Z</time>
      </trkpt>
      <trkpt lat="41.11239" lon="20.07506">
        <ele>194.033496</ele>
        <time>2022-05-03T07:41:51.589Z</time>
      </trkpt>
      <trkpt lat="41.11239" lon="20.07494">
        <ele>193.518793</ele>
        <time>2022-05-03T07:41:53.597Z</time>
      </trkpt>
      <trkpt lat="41.1124" lon="20.07482">
        <ele>193.004393</ele>
        <time>2022-05-03T07:41:55.663Z</time>
      </trkpt>
      <trkpt lat="41.11244" lon="20.07465">
        <ele>192.27314</ele>
        <time>2022-05-03T07:41:58.614Z</time>
      </trkpt>
      <trkpt lat="41.1125" lon="20.0745">
        <ele>191.568637</ele>
        <time>2022-05-03T07:42:01.592Z</time>
      </trkpt>
      <trkpt lat="41.11258" lon="20.0744">
        <ele>190.921902</ele>
        <time>2022-05-03T07:42:04.583Z</time>
      </trkpt>
      <trkpt lat="41.11268" lon="20.07432">
        <ele>190.261741</ele>
        <time>2022-05-03T07:42:07.589Z</time>
      </trkpt>
      <trkpt lat="41.11275" lon="20.07422">
        <ele>189.680818</ele>
        <time>2022-05-03T07:42:10.592Z</time>
      </trkpt>
      <trkpt lat="41.11278" lon="20.07409">
        <ele>189.134152</ele>
        <time>2022-05-03T07:42:13.600Z</time>
      </trkpt>
      <trkpt lat="41.11279" lon="20.07396">
        <ele>188.5638</ele>
        <time>2022-05-03T07:42:16.584Z</time>
      </trkpt>
      <trkpt lat="41.11279" lon="20.07383">
        <ele>188.036468</ele>
        <time>2022-05-03T07:42:19.588Z</time>
      </trkpt>
      <trkpt lat="41.1128" lon="20.0737">
        <ele>187.484439</ele>
        <time>2022-05-03T07:42:24.588Z</time>
      </trkpt>
      <trkpt lat="41.11282" lon="20.07358">
        <ele>186.940408</ele>
        <time>2022-05-03T07:42:28.589Z</time>
      </trkpt>
      <trkpt lat="41.11286" lon="20.07345">
        <ele>186.364542</ele>
        <time>2022-05-03T07:42:32.640Z</time>
      </trkpt>
      <trkpt lat="41.1129" lon="20.07333">
        <ele>185.815916</ele>
        <time>2022-05-03T07:42:35.592Z</time>
      </trkpt>
      <trkpt lat="41.11294" lon="20.07318">
        <ele>185.700232</ele>
        <time>2022-05-03T07:42:38.587Z</time>
      </trkpt>
      <trkpt lat="41.11301" lon="20.07306">
        <ele>185.594292</ele>
        <time>2022-05-03T07:42:41.595Z</time>
      </trkpt>
      <trkpt lat="41.11308" lon="20.07294">
        <ele>185.483838</ele>
        <time>2022-05-03T07:42:44.587Z</time>
      </trkpt>
      <trkpt lat="41.11314" lon="20.07282">
        <ele>185.381422</ele>
        <time>2022-05-03T07:42:47.586Z</time>
      </trkpt>
      <trkpt lat="41.1132" lon="20.07271">
        <ele>185.281317</ele>
        <time>2022-05-03T07:42:50.591Z</time>
      </trkpt>
      <trkpt lat="41.11326" lon="20.07259">
        <ele>185.180761</ele>
        <time>2022-05-03T07:42:53.591Z</time>
      </trkpt>
      <trkpt lat="41.11329" lon="20.07243">
        <ele>185.063163</ele>
        <time>2022-05-03T07:42:56.594Z</time>
      </trkpt>
      <trkpt lat="41.1133" lon="20.07226">
        <ele>184.939879</ele>
        <time>2022-05-03T07:42:59.592Z</time>
      </trkpt>
      <trkpt lat="41.11333" lon="20.0721">
        <ele>184.815245</ele>
        <time>2022-05-03T07:43:02.588Z</time>
      </trkpt>
      <trkpt lat="41.11337" lon="20.07193">
        <ele>184.69298</ele>
        <time>2022-05-03T07:43:05.592Z</time>
      </trkpt>
      <trkpt lat="41.11339" lon="20.07181">
        <ele>184.604265</ele>
        <time>2022-05-03T07:43:07.588Z</time>
      </trkpt>
      <trkpt lat="41.11342" lon="20.0717">
        <ele>184.51653</ele>
        <time>2022-05-03T07:43:09.590Z</time>
      </trkpt>
      <trkpt lat="41.11345" lon="20.07158">
        <ele>184.426735</ele>
        <time>2022-05-03T07:43:11.627Z</time>
      </trkpt>
      <trkpt lat="41.11348" lon="20.07145">
        <ele>184.326048</ele>
        <time>2022-05-03T07:43:13.592Z</time>
      </trkpt>
      <trkpt lat="41.11352" lon="20.07131">
        <ele>184.22117</ele>
        <time>2022-05-03T07:43:15.591Z</time>
      </trkpt>
      <trkpt lat="41.11355" lon="20.07117">
        <ele>184.116663</ele>
        <time>2022-05-03T07:43:17.590Z</time>
      </trkpt>
      <trkpt lat="41.11358" lon="20.07104">
        <ele>183.930628</ele>
        <time>2022-05-03T07:43:19.584Z</time>
      </trkpt>
      <trkpt lat="41.11362" lon="20.07092">
        <ele>183.716399</ele>
        <time>2022-05-03T07:43:21.583Z</time>
      </trkpt>
      <trkpt lat="41.11366" lon="20.0708">
        <ele>183.521969</ele>
        <time>2022-05-03T07:43:23.589Z</time>
      </trkpt>
      <trkpt lat="41.1137" lon="20.07064">
        <ele>183.255426</ele>
        <time>2022-05-03T07:43:26.594Z</time>
      </trkpt>
      <trkpt lat="41.11376" lon="20.07048">
        <ele>182.983768</ele>
        <time>2022-05-03T07:43:29.588Z</time>
      </trkpt>
      <trkpt lat="41.11381" lon="20.07038">
        <ele>182.79045</ele>
        <time>2022-05-03T07:43:31.588Z</time>
      </trkpt>
      <trkpt lat="41.11385" lon="20.07027">
        <ele>182.594816</ele>
        <time>2022-05-03T07:43:33.594Z</time>
      </trkpt>
      <trkpt lat="41.11389" lon="20.07014">
        <ele>182.375484</ele>
        <time>2022-05-03T07:43:35.588Z</time>
      </trkpt>
      <trkpt lat="41.11394" lon="20.07">
        <ele>182.150241</ele>
        <time>2022-05-03T07:43:37.591Z</time>
      </trkpt>
      <trkpt lat="41.11397" lon="20.06986">
        <ele>181.923142</ele>
        <time>2022-05-03T07:43:39.589Z</time>
      </trkpt>
      <trkpt lat="41.11398" lon="20.06971">
        <ele>181.691248</ele>
        <time>2022-05-03T07:43:41.591Z</time>
      </trkpt>
      <trkpt lat="41.11399" lon="20.06955">
        <ele>181.432233</ele>
        <time>2022-05-03T07:43:43.591Z</time>
      </trkpt>
      <trkpt lat="41.11399" lon="20.06938">
        <ele>181.175434</ele>
        <time>2022-05-03T07:43:45.591Z</time>
      </trkpt>
      <trkpt lat="41.11398" lon="20.06923">
        <ele>180.934688</ele>
        <time>2022-05-03T07:43:47.589Z</time>
      </trkpt>
      <trkpt lat="41.11395" lon="20.06906">
        <ele>180.661668</ele>
        <time>2022-05-03T07:43:49.590Z</time>
      </trkpt>
      <trkpt lat="41.11393" lon="20.06889">
        <ele>180.389047</ele>
        <time>2022-05-03T07:43:51.586Z</time>
      </trkpt>
      <trkpt lat="41.1139" lon="20.06872">
        <ele>180.293244</ele>
        <time>2022-05-03T07:43:53.591Z</time>
      </trkpt>
      <trkpt lat="41.11387" lon="20.06856">
        <ele>180.207756</ele>
        <time>2022-05-03T07:43:55.590Z</time>
      </trkpt>
      <trkpt lat="41.11383" lon="20.0684">
        <ele>180.117904</ele>
        <time>2022-05-03T07:43:57.592Z</time>
      </trkpt>
      <trkpt lat="41.1138" lon="20.06824">
        <ele>180.031364</ele>
        <time>2022-05-03T07:43:59.581Z</time>
      </trkpt>
      <trkpt lat="41.1138" lon="20.06807">
        <ele>179.941099</ele>
        <time>2022-05-03T07:44:01.582Z</time>
      </trkpt>
      <trkpt lat="41.11382" lon="20.06789">
        <ele>179.846485</ele>
        <time>2022-05-03T07:44:03.587Z</time>
      </trkpt>
      <trkpt lat="41.11385" lon="20.06773">
        <ele>179.757224</ele>
        <time>2022-05-03T07:44:05.588Z</time>
      </trkpt>
      <trkpt lat="41.11393" lon="20.06758">
        <ele>179.663279</ele>
        <time>2022-05-03T07:44:07.588Z</time>
      </trkpt>
      <trkpt lat="41.11401" lon="20.06743">
        <ele>179.564215</ele>
        <time>2022-05-03T07:44:09.587Z</time>
      </trkpt>
      <trkpt lat="41.11408" lon="20.0673">
        <ele>179.477797</ele>
        <time>2022-05-03T07:44:11.586Z</time>
      </trkpt>
      <trkpt lat="41.11415" lon="20.06716">
        <ele>179.392181</ele>
        <time>2022-05-03T07:44:14.592Z</time>
      </trkpt>
      <trkpt lat="41.11422" lon="20.06704">
        <ele>179.314588</ele>
        <time>2022-05-03T07:44:17.580Z</time>
      </trkpt>
      <trkpt lat="41.11428" lon="20.06692">
        <ele>179.236479</ele>
        <time>2022-05-03T07:44:20.591Z</time>
      </trkpt>
      <trkpt lat="41.11431" lon="20.06677">
        <ele>179.156116</ele>
        <time>2022-05-03T07:44:23.592Z</time>
      </trkpt>
      <trkpt lat="41.11434" lon="20.0666">
        <ele>178.76289</ele>
        <time>2022-05-03T07:44:26.583Z</time>
      </trkpt>
      <trkpt lat="41.11435" lon="20.06647">
        <ele>178.346956</ele>
        <time>2022-05-03T07:44:28.588Z</time>
      </trkpt>
      <trkpt lat="41.11436" lon="20.06634">
        <ele>177.943135</ele>
        <time>2022-05-03T07:44:30.589Z</time>
      </trkpt>
      <trkpt lat="41.11436" lon="20.06621">
        <ele>177.535099</ele>
        <time>2022-05-03T07:44:32.590Z</time>
      </trkpt>
      <trkpt lat="41.11437" lon="20.06608">
        <ele>177.107332</ele>
        <time>2022-05-03T07:44:34.582Z</time>
      </trkpt>
      <trkpt lat="41.11438" lon="20.06594">
        <ele>176.685863</ele>
        <time>2022-05-03T07:44:36.580Z</time>
      </trkpt>
      <trkpt lat="41.11438" lon="20.06582">
        <ele>176.297229</ele>
        <time>2022-05-03T07:44:38.582Z</time>
      </trkpt>
      <trkpt lat="41.11438" lon="20.06569">
        <ele>175.892349</ele>
        <time>2022-05-03T07:44:40.587Z</time>
      </trkpt>
      <trkpt lat="41.11437" lon="20.06555">
        <ele>175.449607</ele>
        <time>2022-05-03T07:44:42.582Z</time>
      </trkpt>
      <trkpt lat="41.11437" lon="20.06542">
        <ele>175.029454</ele>
        <time>2022-05-03T07:44:44.579Z</time>
      </trkpt>
      <trkpt lat="41.11437" lon="20.06529">
        <ele>174.628254</ele>
        <time>2022-05-03T07:44:46.581Z</time>
      </trkpt>
      <trkpt lat="41.11436" lon="20.06517">
        <ele>174.245288</ele>
        <time>2022-05-03T07:44:48.584Z</time>
      </trkpt>
      <trkpt lat="41.11433" lon="20.06504">
        <ele>173.826536</ele>
        <time>2022-05-03T07:44:50.588Z</time>
      </trkpt>
      <trkpt lat="41.1143" lon="20.06492">
        <ele>173.407335</ele>
        <time>2022-05-03T07:44:52.596Z</time>
      </trkpt>
      <trkpt lat="41.11427" lon="20.06479">
        <ele>172.974219</ele>
        <time>2022-05-03T07:44:54.586Z</time>
      </trkpt>
      <trkpt lat="41.11423" lon="20.06466">
        <ele>172.545486</ele>
        <time>2022-05-03T07:44:56.610Z</time>
      </trkpt>
      <trkpt lat="41.1142" lon="20.06452">
        <ele>172.100871</ele>
        <time>2022-05-03T07:44:58.586Z</time>
      </trkpt>
      <trkpt lat="41.11417" lon="20.06438">
        <ele>171.633575</ele>
        <time>2022-05-03T07:45:00.595Z</time>
      </trkpt>
      <trkpt lat="41.11412" lon="20.06425">
        <ele>171.173824</ele>
        <time>2022-05-03T07:45:02.604Z</time>
      </trkpt>
      <trkpt lat="41.11408" lon="20.06411">
        <ele>170.717563</ele>
        <time>2022-05-03T07:45:04.597Z</time>
      </trkpt>
      <trkpt lat="41.11403" lon="20.06397">
        <ele>170.246927</ele>
        <time>2022-05-03T07:45:06.582Z</time>
      </trkpt>
      <trkpt lat="41.11399" lon="20.06382">
        <ele>169.77468</ele>
        <time>2022-05-03T07:45:08.619Z</time>
      </trkpt>
      <trkpt lat="41.11394" lon="20.06369">
        <ele>169.318416</ele>
        <time>2022-05-03T07:45:10.584Z</time>
      </trkpt>
      <trkpt lat="41.11389" lon="20.06356">
        <ele>168.875817</ele>
        <time>2022-05-03T07:45:12.598Z</time>
      </trkpt>
      <trkpt lat="41.11385" lon="20.06342">
        <ele>168.418299</ele>
        <time>2022-05-03T07:45:14.614Z</time>
      </trkpt>
      <trkpt lat="41.1138" lon="20.06328">
        <ele>167.94081</ele>
        <time>2022-05-03T07:45:16.581Z</time>
      </trkpt>
      <trkpt lat="41.11375" lon="20.06313">
        <ele>167.446164</ele>
        <time>2022-05-03T07:45:18.584Z</time>
      </trkpt>
      <trkpt lat="41.11371" lon="20.06298">
        <ele>166.965538</ele>
        <time>2022-05-03T07:45:20.578Z</time>
      </trkpt>
      <trkpt lat="41.11366" lon="20.06284">
        <ele>166.506064</ele>
        <time>2022-05-03T07:45:22.584Z</time>
      </trkpt>
      <trkpt lat="41.11362" lon="20.0627">
        <ele>166.051359</ele>
        <time>2022-05-03T07:45:24.582Z</time>
      </trkpt>
      <trkpt lat="41.11358" lon="20.06257">
        <ele>165.609453</ele>
        <time>2022-05-03T07:45:26.613Z</time>
      </trkpt>
      <trkpt lat="41.11353" lon="20.06245">
        <ele>165.199344</ele>
        <time>2022-05-03T07:45:28.586Z</time>
      </trkpt>
      <trkpt lat="41.11349" lon="20.06229">
        <ele>164.684971</ele>
        <time>2022-05-03T07:45:31.587Z</time>
      </trkpt>
      <trkpt lat="41.11344" lon="20.06215">
        <ele>164.305278</ele>
        <time>2022-05-03T07:45:34.588Z</time>
      </trkpt>
      <trkpt lat="41.11339" lon="20.062">
        <ele>164.271806</ele>
        <time>2022-05-03T07:45:37.584Z</time>
      </trkpt>
      <trkpt lat="41.11334" lon="20.06187">
        <ele>164.240998</ele>
        <time>2022-05-03T07:45:40.587Z</time>
      </trkpt>
      <trkpt lat="41.11328" lon="20.06174">
        <ele>164.21021</ele>
        <time>2022-05-03T07:45:43.596Z</time>
      </trkpt>
      <trkpt lat="41.11322" lon="20.06162">
        <ele>164.180065</ele>
        <time>2022-05-03T07:45:46.584Z</time>
      </trkpt>
      <trkpt lat="41.11316" lon="20.06149">
        <ele>164.147561</ele>
        <time>2022-05-03T07:45:49.598Z</time>
      </trkpt>
      <trkpt lat="41.11309" lon="20.06138">
        <ele>164.116726</ele>
        <time>2022-05-03T07:45:52.582Z</time>
      </trkpt>
      <trkpt lat="41.11301" lon="20.06127">
        <ele>164.085677</ele>
        <time>2022-05-03T07:45:55.580Z</time>
      </trkpt>
      <trkpt lat="41.11293" lon="20.06114">
        <ele>164.050808</ele>
        <time>2022-05-03T07:45:58.591Z</time>
      </trkpt>
      <trkpt lat="41.11284" lon="20.061">
        <ele>164.01351</ele>
        <time>2022-05-03T07:46:01.587Z</time>
      </trkpt>
      <trkpt lat="41.11278" lon="20.06091">
        <ele>163.988752</ele>
        <time>2022-05-03T07:46:03.586Z</time>
      </trkpt>
      <trkpt lat="41.11272" lon="20.06081">
        <ele>163.961897</ele>
        <time>2022-05-03T07:46:05.587Z</time>
      </trkpt>
      <trkpt lat="41.11266" lon="20.06071">
        <ele>163.934211</ele>
        <time>2022-05-03T07:46:07.585Z</time>
      </trkpt>
      <trkpt lat="41.11259" lon="20.06059">
        <ele>163.904695</ele>
        <time>2022-05-03T07:46:09.593Z</time>
      </trkpt>
      <trkpt lat="41.11253" lon="20.06047">
        <ele>163.874191</ele>
        <time>2022-05-03T07:46:11.589Z</time>
      </trkpt>
      <trkpt lat="41.11246" lon="20.06037">
        <ele>163.8446</ele>
        <time>2022-05-03T07:46:13.586Z</time>
      </trkpt>
      <trkpt lat="41.11239" lon="20.06024">
        <ele>163.805054</ele>
        <time>2022-05-03T07:46:15.583Z</time>
      </trkpt>
      <trkpt lat="41.11232" lon="20.06013">
        <ele>163.696506</ele>
        <time>2022-05-03T07:46:17.605Z</time>
      </trkpt>
      <trkpt lat="41.11224" lon="20.06002">
        <ele>163.581973</ele>
        <time>2022-05-03T07:46:19.583Z</time>
      </trkpt>
      <trkpt lat="41.11216" lon="20.05991">
        <ele>163.466076</ele>
        <time>2022-05-03T07:46:21.591Z</time>
      </trkpt>
      <trkpt lat="41.11208" lon="20.05981">
        <ele>163.357964</ele>
        <time>2022-05-03T07:46:23.592Z</time>
      </trkpt>
      <trkpt lat="41.112" lon="20.05972">
        <ele>163.258673</ele>
        <time>2022-05-03T07:46:25.583Z</time>
      </trkpt>
      <trkpt lat="41.11192" lon="20.05962">
        <ele>163.156834</ele>
        <time>2022-05-03T07:46:27.613Z</time>
      </trkpt>
      <trkpt lat="41.11185" lon="20.05951">
        <ele>163.045896</ele>
        <time>2022-05-03T07:46:29.582Z</time>
      </trkpt>
      <trkpt lat="41.11179" lon="20.05938">
        <ele>162.932796</ele>
        <time>2022-05-03T07:46:31.590Z</time>
      </trkpt>
      <trkpt lat="41.11174" lon="20.05923">
        <ele>162.810151</ele>
        <time>2022-05-03T07:46:33.581Z</time>
      </trkpt>
      <trkpt lat="41.11169" lon="20.05906">
        <ele>162.678973</ele>
        <time>2022-05-03T07:46:35.590Z</time>
      </trkpt>
      <trkpt lat="41.11166" lon="20.05888">
        <ele>162.545629</ele>
        <time>2022-05-03T07:46:37.583Z</time>
      </trkpt>
      <trkpt lat="41.11164" lon="20.05871">
        <ele>162.415048</ele>
        <time>2022-05-03T07:46:39.583Z</time>
      </trkpt>
      <trkpt lat="41.11162" lon="20.05854">
        <ele>162.288522</ele>
        <time>2022-05-03T07:46:41.593Z</time>
      </trkpt>
      <trkpt lat="41.1116" lon="20.05838">
        <ele>162.170325</ele>
        <time>2022-05-03T07:46:43.612Z</time>
      </trkpt>
      <trkpt lat="41.11158" lon="20.05822">
        <ele>162.054479</ele>
        <time>2022-05-03T07:46:45.592Z</time>
      </trkpt>
      <trkpt lat="41.11157" lon="20.05807">
        <ele>162.020085</ele>
        <time>2022-05-03T07:46:47.587Z</time>
      </trkpt>
      <trkpt lat="41.11156" lon="20.05791">
        <ele>161.985444</ele>
        <time>2022-05-03T07:46:49.593Z</time>
      </trkpt>
      <trkpt lat="41.11154" lon="20.05776">
        <ele>161.952033</ele>
        <time>2022-05-03T07:46:51.593Z</time>
      </trkpt>
      <trkpt lat="41.11152" lon="20.05762">
        <ele>161.920071</ele>
        <time>2022-05-03T07:46:53.587Z</time>
      </trkpt>
      <trkpt lat="41.11151" lon="20.05748">
        <ele>161.889504</ele>
        <time>2022-05-03T07:46:55.616Z</time>
      </trkpt>
      <trkpt lat="41.1115" lon="20.05734">
        <ele>161.856594</ele>
        <time>2022-05-03T07:46:57.592Z</time>
      </trkpt>
      <trkpt lat="41.11148" lon="20.05718">
        <ele>161.822576</ele>
        <time>2022-05-03T07:46:59.594Z</time>
      </trkpt>
      <trkpt lat="41.11146" lon="20.05702">
        <ele>161.785716</ele>
        <time>2022-05-03T07:47:01.587Z</time>
      </trkpt>
      <trkpt lat="41.11145" lon="20.05685">
        <ele>161.747552</ele>
        <time>2022-05-03T07:47:03.582Z</time>
      </trkpt>
      <trkpt lat="41.11144" lon="20.05668">
        <ele>161.70927</ele>
        <time>2022-05-03T07:47:05.606Z</time>
      </trkpt>
      <trkpt lat="41.11142" lon="20.0565">
        <ele>161.669732</ele>
        <time>2022-05-03T07:47:07.590Z</time>
      </trkpt>
      <trkpt lat="41.11143" lon="20.05632">
        <ele>161.631479</ele>
        <time>2022-05-03T07:47:09.582Z</time>
      </trkpt>
      <trkpt lat="41.11144" lon="20.05617">
        <ele>161.597367</ele>
        <time>2022-05-03T07:47:11.591Z</time>
      </trkpt>
      <trkpt lat="41.11147" lon="20.05603">
        <ele>161.563985</ele>
        <time>2022-05-03T07:47:13.586Z</time>
      </trkpt>
      <trkpt lat="41.1115" lon="20.05589">
        <ele>161.532274</ele>
        <time>2022-05-03T07:47:15.583Z</time>
      </trkpt>
      <trkpt lat="41.11153" lon="20.05576">
        <ele>161.705975</ele>
        <time>2022-05-03T07:47:17.588Z</time>
      </trkpt>
      <trkpt lat="41.11156" lon="20.05561">
        <ele>161.962004</ele>
        <time>2022-05-03T07:47:20.594Z</time>
      </trkpt>
      <trkpt lat="41.11159" lon="20.05546">
        <ele>162.206013</ele>
        <time>2022-05-03T07:47:23.593Z</time>
      </trkpt>
      <trkpt lat="41.11161" lon="20.05531">
        <ele>162.460876</ele>
        <time>2022-05-03T07:47:26.586Z</time>
      </trkpt>
      <trkpt lat="41.11164" lon="20.05515">
        <ele>162.717784</ele>
        <time>2022-05-03T07:47:29.608Z</time>
      </trkpt>
      <trkpt lat="41.11165" lon="20.055">
        <ele>162.955135</ele>
        <time>2022-05-03T07:47:32.590Z</time>
      </trkpt>
      <trkpt lat="41.11167" lon="20.05485">
        <ele>163.210078</ele>
        <time>2022-05-03T07:47:35.611Z</time>
      </trkpt>
      <trkpt lat="41.11169" lon="20.0547">
        <ele>163.452846</ele>
        <time>2022-05-03T07:47:38.585Z</time>
      </trkpt>
      <trkpt lat="41.11171" lon="20.05455">
        <ele>163.686829</ele>
        <time>2022-05-03T07:47:41.585Z</time>
      </trkpt>
      <trkpt lat="41.11174" lon="20.05442">
        <ele>163.91204</ele>
        <time>2022-05-03T07:47:44.581Z</time>
      </trkpt>
      <trkpt lat="41.11176" lon="20.05429">
        <ele>164.12639</ele>
        <time>2022-05-03T07:47:47.604Z</time>
      </trkpt>
      <trkpt lat="41.11178" lon="20.05416">
        <ele>164.333396</ele>
        <time>2022-05-03T07:47:50.582Z</time>
      </trkpt>
      <trkpt lat="41.1118" lon="20.05404">
        <ele>164.533133</ele>
        <time>2022-05-03T07:47:53.602Z</time>
      </trkpt>
      <trkpt lat="41.11183" lon="20.05392">
        <ele>164.739168</ele>
        <time>2022-05-03T07:47:56.584Z</time>
      </trkpt>
      <trkpt lat="41.11184" lon="20.05379">
        <ele>164.942473</ele>
        <time>2022-05-03T07:47:59.590Z</time>
      </trkpt>
      <trkpt lat="41.11185" lon="20.05367">
        <ele>165.139484</ele>
        <time>2022-05-03T07:48:02.587Z</time>
      </trkpt>
      <trkpt lat="41.11184" lon="20.05351">
        <ele>165.364847</ele>
        <time>2022-05-03T07:48:06.585Z</time>
      </trkpt>
      <trkpt lat="41.11182" lon="20.05337">
        <ele>165.3455</ele>
        <time>2022-05-03T07:48:09.583Z</time>
      </trkpt>
      <trkpt lat="41.11179" lon="20.05325">
        <ele>165.325839</ele>
        <time>2022-05-03T07:48:12.593Z</time>
      </trkpt>
      <trkpt lat="41.11175" lon="20.0531">
        <ele>165.304159</ele>
        <time>2022-05-03T07:48:15.607Z</time>
      </trkpt>
      <trkpt lat="41.1117" lon="20.05296">
        <ele>165.281242</ele>
        <time>2022-05-03T07:48:18.618Z</time>
      </trkpt>
      <trkpt lat="41.11164" lon="20.0528">
        <ele>165.256259</ele>
        <time>2022-05-03T07:48:21.596Z</time>
      </trkpt>
      <trkpt lat="41.1116" lon="20.05269">
        <ele>165.238033</ele>
        <time>2022-05-03T07:48:23.624Z</time>
      </trkpt>
      <trkpt lat="41.11155" lon="20.05258">
        <ele>165.219371</ele>
        <time>2022-05-03T07:48:25.604Z</time>
      </trkpt>
      <trkpt lat="41.1115" lon="20.05248">
        <ele>165.202312</ele>
        <time>2022-05-03T07:48:27.615Z</time>
      </trkpt>
      <trkpt lat="41.11143" lon="20.05233">
        <ele>165.176846</ele>
        <time>2022-05-03T07:48:30.606Z</time>
      </trkpt>
      <trkpt lat="41.11136" lon="20.05218">
        <ele>165.151685</ele>
        <time>2022-05-03T07:48:33.639Z</time>
      </trkpt>
      <trkpt lat="41.11132" lon="20.05207">
        <ele>165.133686</ele>
        <time>2022-05-03T07:48:35.649Z</time>
      </trkpt>
      <trkpt lat="41.11128" lon="20.05195">
        <ele>165.115253</ele>
        <time>2022-05-03T07:48:37.604Z</time>
      </trkpt>
      <trkpt lat="41.11124" lon="20.05183">
        <ele>165.095824</ele>
        <time>2022-05-03T07:48:39.608Z</time>
      </trkpt>
      <trkpt lat="41.11119" lon="20.0517">
        <ele>165.075793</ele>
        <time>2022-05-03T07:48:41.623Z</time>
      </trkpt>
      <trkpt lat="41.11115" lon="20.05158">
        <ele>165.055893</ele>
        <time>2022-05-03T07:48:43.613Z</time>
      </trkpt>
      <trkpt lat="41.11112" lon="20.05144">
        <ele>165.035368</ele>
        <time>2022-05-03T07:48:45.603Z</time>
      </trkpt>
      <trkpt lat="41.1111" lon="20.0513">
        <ele>164.743101</ele>
        <time>2022-05-03T07:48:47.687Z</time>
      </trkpt>
      <trkpt lat="41.11109" lon="20.05117">
        <ele>164.1451</ele>
        <time>2022-05-03T07:48:49.603Z</time>
      </trkpt>
      <trkpt lat="41.11107" lon="20.05104">
        <ele>163.569227</ele>
        <time>2022-05-03T07:48:51.601Z</time>
      </trkpt>
      <trkpt lat="41.11102" lon="20.05093">
        <ele>163.008323</ele>
        <time>2022-05-03T07:48:53.608Z</time>
      </trkpt>
      <trkpt lat="41.11095" lon="20.05084">
        <ele>162.445213</ele>
        <time>2022-05-03T07:48:55.620Z</time>
      </trkpt>
      <trkpt lat="41.11088" lon="20.05074">
        <ele>161.849043</ele>
        <time>2022-05-03T07:48:57.640Z</time>
      </trkpt>
      <trkpt lat="41.11079" lon="20.05067">
        <ele>161.251195</ele>
        <time>2022-05-03T07:48:59.603Z</time>
      </trkpt>
      <trkpt lat="41.11069" lon="20.05062">
        <ele>160.620768</ele>
        <time>2022-05-03T07:49:01.598Z</time>
      </trkpt>
      <trkpt lat="41.11058" lon="20.05058">
        <ele>159.960057</ele>
        <time>2022-05-03T07:49:03.662Z</time>
      </trkpt>
      <trkpt lat="41.11047" lon="20.05055">
        <ele>159.320892</ele>
        <time>2022-05-03T07:49:05.603Z</time>
      </trkpt>
      <trkpt lat="41.11036" lon="20.05056">
        <ele>158.681906</ele>
        <time>2022-05-03T07:49:07.603Z</time>
      </trkpt>
      <trkpt lat="41.11024" lon="20.05057">
        <ele>157.995382</ele>
        <time>2022-05-03T07:49:09.586Z</time>
      </trkpt>
      <trkpt lat="41.11012" lon="20.05058">
        <ele>157.290264</ele>
        <time>2022-05-03T07:49:11.604Z</time>
      </trkpt>
      <trkpt lat="41.11" lon="20.05058">
        <ele>156.564159</ele>
        <time>2022-05-03T07:49:13.617Z</time>
      </trkpt>
      <trkpt lat="41.10987" lon="20.05059">
        <ele>155.849388</ele>
        <time>2022-05-03T07:49:15.608Z</time>
      </trkpt>
      <trkpt lat="41.10975" lon="20.05059">
        <ele>155.117318</ele>
        <time>2022-05-03T07:49:17.614Z</time>
      </trkpt>
      <trkpt lat="41.10962" lon="20.05058">
        <ele>154.476503</ele>
        <time>2022-05-03T07:49:19.602Z</time>
      </trkpt>
      <trkpt lat="41.1095" lon="20.05057">
        <ele>154.059891</ele>
        <time>2022-05-03T07:49:21.601Z</time>
      </trkpt>
      <trkpt lat="41.10938" lon="20.05055">
        <ele>153.653968</ele>
        <time>2022-05-03T07:49:23.626Z</time>
      </trkpt>
      <trkpt lat="41.10927" lon="20.05051">
        <ele>153.265056</ele>
        <time>2022-05-03T07:49:25.618Z</time>
      </trkpt>
      <trkpt lat="41.10916" lon="20.05046">
        <ele>152.869894</ele>
        <time>2022-05-03T07:49:27.616Z</time>
      </trkpt>
      <trkpt lat="41.10905" lon="20.05041">
        <ele>152.481887</ele>
        <time>2022-05-03T07:49:29.598Z</time>
      </trkpt>
      <trkpt lat="41.10894" lon="20.05036">
        <ele>152.106349</ele>
        <time>2022-05-03T07:49:31.599Z</time>
      </trkpt>
      <trkpt lat="41.10884" lon="20.05031">
        <ele>151.731686</ele>
        <time>2022-05-03T07:49:33.622Z</time>
      </trkpt>
      <trkpt lat="41.10874" lon="20.05026">
        <ele>151.40013</ele>
        <time>2022-05-03T07:49:35.594Z</time>
      </trkpt>
      <trkpt lat="41.10863" lon="20.05023">
        <ele>151.01398</ele>
        <time>2022-05-03T07:49:37.593Z</time>
      </trkpt>
      <trkpt lat="41.10852" lon="20.05021">
        <ele>150.628788</ele>
        <time>2022-05-03T07:49:39.598Z</time>
      </trkpt>
      <trkpt lat="41.10843" lon="20.05016">
        <ele>150.317703</ele>
        <time>2022-05-03T07:49:41.604Z</time>
      </trkpt>
      <trkpt lat="41.10832" lon="20.0501">
        <ele>149.919192</ele>
        <time>2022-05-03T07:49:44.585Z</time>
      </trkpt>
      <trkpt lat="41.10822" lon="20.05005">
        <ele>149.55169</ele>
        <time>2022-05-03T07:49:48.614Z</time>
      </trkpt>
      <trkpt lat="41.10813" lon="20.05">
        <ele>149.240028</ele>
        <time>2022-05-03T07:49:54.601Z</time>
      </trkpt>
      <trkpt lat="41.10804" lon="20.04995">
        <ele>148.915158</ele>
        <time>2022-05-03T07:49:57.611Z</time>
      </trkpt>
      <trkpt lat="41.10794" lon="20.04987">
        <ele>148.555188</ele>
        <time>2022-05-03T07:50:00.617Z</time>
      </trkpt>
      <trkpt lat="41.10784" lon="20.04979">
        <ele>148.60675</ele>
        <time>2022-05-03T07:50:03.626Z</time>
      </trkpt>
      <trkpt lat="41.10774" lon="20.04971">
        <ele>148.661357</ele>
        <time>2022-05-03T07:50:06.614Z</time>
      </trkpt>
      <trkpt lat="41.10766" lon="20.04964">
        <ele>148.704542</ele>
        <time>2022-05-03T07:50:08.608Z</time>
      </trkpt>
      <trkpt lat="41.10757" lon="20.04956">
        <ele>148.752092</ele>
        <time>2022-05-03T07:50:10.673Z</time>
      </trkpt>
      <trkpt lat="41.10749" lon="20.04948">
        <ele>148.800394</ele>
        <time>2022-05-03T07:50:12.618Z</time>
      </trkpt>
      <trkpt lat="41.1074" lon="20.0494">
        <ele>148.847801</ele>
        <time>2022-05-03T07:50:14.633Z</time>
      </trkpt>
      <trkpt lat="41.10733" lon="20.04931">
        <ele>148.894223</ele>
        <time>2022-05-03T07:50:16.601Z</time>
      </trkpt>
      <trkpt lat="41.10725" lon="20.04922">
        <ele>148.94042</ele>
        <time>2022-05-03T07:50:18.617Z</time>
      </trkpt>
      <trkpt lat="41.10717" lon="20.04914">
        <ele>148.986873</ele>
        <time>2022-05-03T07:50:20.612Z</time>
      </trkpt>
      <trkpt lat="41.10709" lon="20.04906">
        <ele>149.03169</ele>
        <time>2022-05-03T07:50:22.600Z</time>
      </trkpt>
      <trkpt lat="41.10702" lon="20.04898">
        <ele>149.074178</ele>
        <time>2022-05-03T07:50:24.619Z</time>
      </trkpt>
      <trkpt lat="41.10694" lon="20.04891">
        <ele>149.119309</ele>
        <time>2022-05-03T07:50:26.599Z</time>
      </trkpt>
      <trkpt lat="41.10686" lon="20.04883">
        <ele>149.164849</ele>
        <time>2022-05-03T07:50:28.604Z</time>
      </trkpt>
      <trkpt lat="41.10678" lon="20.04874">
        <ele>149.212529</ele>
        <time>2022-05-03T07:50:30.608Z</time>
      </trkpt>
      <trkpt lat="41.1067" lon="20.04865">
        <ele>149.257702</ele>
        <time>2022-05-03T07:50:32.640Z</time>
      </trkpt>
      <trkpt lat="41.10663" lon="20.04856">
        <ele>149.30197</ele>
        <time>2022-05-03T07:50:34.604Z</time>
      </trkpt>
      <trkpt lat="41.10656" lon="20.04847">
        <ele>149.344586</ele>
        <time>2022-05-03T07:50:36.605Z</time>
      </trkpt>
      <trkpt lat="41.10647" lon="20.04834">
        <ele>149.485507</ele>
        <time>2022-05-03T07:50:39.610Z</time>
      </trkpt>
      <trkpt lat="41.1064" lon="20.04824">
        <ele>149.623845</ele>
        <time>2022-05-03T07:50:41.613Z</time>
      </trkpt>
      <trkpt lat="41.10633" lon="20.04813">
        <ele>149.773843</ele>
        <time>2022-05-03T07:50:43.611Z</time>
      </trkpt>
      <trkpt lat="41.10626" lon="20.04803">
        <ele>149.919784</ele>
        <time>2022-05-03T07:50:45.604Z</time>
      </trkpt>
      <trkpt lat="41.1062" lon="20.04793">
        <ele>150.062</ele>
        <time>2022-05-03T07:50:47.616Z</time>
      </trkpt>
      <trkpt lat="41.10613" lon="20.04782">
        <ele>150.205995</ele>
        <time>2022-05-03T07:50:49.632Z</time>
      </trkpt>
      <trkpt lat="41.10607" lon="20.04772">
        <ele>150.342773</ele>
        <time>2022-05-03T07:50:51.587Z</time>
      </trkpt>
      <trkpt lat="41.106" lon="20.04763">
        <ele>150.48033</ele>
        <time>2022-05-03T07:50:53.592Z</time>
      </trkpt>
      <trkpt lat="41.10593" lon="20.04753">
        <ele>150.615951</ele>
        <time>2022-05-03T07:50:55.637Z</time>
      </trkpt>
      <trkpt lat="41.10586" lon="20.04743">
        <ele>150.754437</ele>
        <time>2022-05-03T07:50:57.614Z</time>
      </trkpt>
      <trkpt lat="41.1058" lon="20.04733">
        <ele>150.894242</ele>
        <time>2022-05-03T07:50:59.610Z</time>
      </trkpt>
      <trkpt lat="41.10573" lon="20.04723">
        <ele>151.037559</ele>
        <time>2022-05-03T07:51:01.619Z</time>
      </trkpt>
      <trkpt lat="41.10566" lon="20.04713">
        <ele>151.178693</ele>
        <time>2022-05-03T07:51:03.616Z</time>
      </trkpt>
      <trkpt lat="41.1056" lon="20.04703">
        <ele>151.31718</ele>
        <time>2022-05-03T07:51:05.645Z</time>
      </trkpt>
      <trkpt lat="41.10553" lon="20.04693">
        <ele>151.460635</ele>
        <time>2022-05-03T07:51:07.631Z</time>
      </trkpt>
      <trkpt lat="41.10545" lon="20.04682">
        <ele>151.614525</ele>
        <time>2022-05-03T07:51:09.599Z</time>
      </trkpt>
      <trkpt lat="41.10538" lon="20.04671">
        <ele>151.766227</ele>
        <time>2022-05-03T07:51:11.598Z</time>
      </trkpt>
      <trkpt lat="41.10531" lon="20.04661">
        <ele>151.773672</ele>
        <time>2022-05-03T07:51:13.601Z</time>
      </trkpt>
      <trkpt lat="41.10525" lon="20.04652">
        <ele>151.502865</ele>
        <time>2022-05-03T07:51:15.619Z</time>
      </trkpt>
      <trkpt lat="41.10516" lon="20.04639">
        <ele>151.127667</ele>
        <time>2022-05-03T07:51:18.629Z</time>
      </trkpt>
      <trkpt lat="41.10507" lon="20.04626">
        <ele>150.763721</ele>
        <time>2022-05-03T07:51:21.608Z</time>
      </trkpt>
      <trkpt lat="41.10499" lon="20.04614">
        <ele>150.416216</ele>
        <time>2022-05-03T07:51:24.595Z</time>
      </trkpt>
      <trkpt lat="41.10491" lon="20.04602">
        <ele>150.068478</ele>
        <time>2022-05-03T07:51:27.604Z</time>
      </trkpt>
      <trkpt lat="41.10483" lon="20.04591">
        <ele>149.74084</ele>
        <time>2022-05-03T07:51:30.606Z</time>
      </trkpt>
      <trkpt lat="41.10477" lon="20.04582">
        <ele>149.467279</ele>
        <time>2022-05-03T07:51:33.620Z</time>
      </trkpt>
      <trkpt lat="41.10471" lon="20.04571">
        <ele>149.194234</ele>
        <time>2022-05-03T07:51:36.622Z</time>
      </trkpt>
      <trkpt lat="41.10464" lon="20.04562">
        <ele>148.919914</ele>
        <time>2022-05-03T07:51:42.619Z</time>
      </trkpt>
      <trkpt lat="41.10457" lon="20.0455">
        <ele>148.578907</ele>
        <time>2022-05-03T07:51:46.611Z</time>
      </trkpt>
      <trkpt lat="41.10448" lon="20.04539">
        <ele>148.239134</ele>
        <time>2022-05-03T07:51:49.601Z</time>
      </trkpt>
      <trkpt lat="41.10439" lon="20.04525">
        <ele>147.843215</ele>
        <time>2022-05-03T07:51:52.642Z</time>
      </trkpt>
      <trkpt lat="41.10432" lon="20.04515">
        <ele>147.562203</ele>
        <time>2022-05-03T07:51:54.615Z</time>
      </trkpt>
      <trkpt lat="41.10425" lon="20.04505">
        <ele>147.262365</ele>
        <time>2022-05-03T07:51:56.641Z</time>
      </trkpt>
      <trkpt lat="41.10419" lon="20.04493">
        <ele>146.948112</ele>
        <time>2022-05-03T07:51:58.606Z</time>
      </trkpt>
      <trkpt lat="41.10412" lon="20.04481">
        <ele>146.671913</ele>
        <time>2022-05-03T07:52:00.595Z</time>
      </trkpt>
      <trkpt lat="41.10405" lon="20.04468">
        <ele>146.494653</ele>
        <time>2022-05-03T07:52:02.605Z</time>
      </trkpt>
      <trkpt lat="41.10398" lon="20.04453">
        <ele>146.313299</ele>
        <time>2022-05-03T07:52:04.603Z</time>
      </trkpt>
      <trkpt lat="41.10392" lon="20.04439">
        <ele>146.136629</ele>
        <time>2022-05-03T07:52:06.614Z</time>
      </trkpt>
      <trkpt lat="41.10386" lon="20.04425">
        <ele>145.959947</ele>
        <time>2022-05-03T07:52:08.652Z</time>
      </trkpt>
      <trkpt lat="41.1038" lon="20.04411">
        <ele>145.788176</ele>
        <time>2022-05-03T07:52:10.615Z</time>
      </trkpt>
      <trkpt lat="41.10375" lon="20.04397">
        <ele>145.622565</ele>
        <time>2022-05-03T07:52:12.612Z</time>
      </trkpt>
      <trkpt lat="41.10371" lon="20.04384">
        <ele>145.464087</ele>
        <time>2022-05-03T07:52:14.611Z</time>
      </trkpt>
      <trkpt lat="41.10365" lon="20.04371">
        <ele>145.305598</ele>
        <time>2022-05-03T07:52:16.603Z</time>
      </trkpt>
      <trkpt lat="41.10361" lon="20.04358">
        <ele>145.148097</ele>
        <time>2022-05-03T07:52:18.594Z</time>
      </trkpt>
      <trkpt lat="41.10356" lon="20.04346">
        <ele>144.994802</ele>
        <time>2022-05-03T07:52:20.620Z</time>
      </trkpt>
      <trkpt lat="41.10351" lon="20.04335">
        <ele>144.853675</ele>
        <time>2022-05-03T07:52:22.634Z</time>
      </trkpt>
      <trkpt lat="41.10347" lon="20.04324">
        <ele>144.719513</ele>
        <time>2022-05-03T07:52:24.614Z</time>
      </trkpt>
      <trkpt lat="41.10341" lon="20.04308">
        <ele>144.527335</ele>
        <time>2022-05-03T07:52:27.595Z</time>
      </trkpt>
      <trkpt lat="41.10336" lon="20.04293">
        <ele>144.352456</ele>
        <time>2022-05-03T07:52:30.611Z</time>
      </trkpt>
      <trkpt lat="41.1033" lon="20.04279">
        <ele>144.17864</ele>
        <time>2022-05-03T07:52:33.605Z</time>
      </trkpt>
      <trkpt lat="41.10324" lon="20.04265">
        <ele>144.115336</ele>
        <time>2022-05-03T07:52:36.600Z</time>
      </trkpt>
      <trkpt lat="41.10319" lon="20.04251">
        <ele>144.086035</ele>
        <time>2022-05-03T07:52:39.604Z</time>
      </trkpt>
      <trkpt lat="41.10315" lon="20.0424">
        <ele>144.064634</ele>
        <time>2022-05-03T07:52:41.657Z</time>
      </trkpt>
      <trkpt lat="41.10311" lon="20.04229">
        <ele>144.043051</ele>
        <time>2022-05-03T07:52:43.624Z</time>
      </trkpt>
      <trkpt lat="41.10307" lon="20.04218">
        <ele>144.021107</ele>
        <time>2022-05-03T07:52:45.607Z</time>
      </trkpt>
      <trkpt lat="41.10304" lon="20.04207">
        <ele>143.999455</ele>
        <time>2022-05-03T07:52:47.594Z</time>
      </trkpt>
      <trkpt lat="41.103" lon="20.04195">
        <ele>143.976811</ele>
        <time>2022-05-03T07:52:49.596Z</time>
      </trkpt>
      <trkpt lat="41.10296" lon="20.04184">
        <ele>143.955228</ele>
        <time>2022-05-03T07:52:51.609Z</time>
      </trkpt>
      <trkpt lat="41.10293" lon="20.04173">
        <ele>143.932893</ele>
        <time>2022-05-03T07:52:53.606Z</time>
      </trkpt>
      <trkpt lat="41.10289" lon="20.04161">
        <ele>143.911168</ele>
        <time>2022-05-03T07:52:55.610Z</time>
      </trkpt>
      <trkpt lat="41.10286" lon="20.0415">
        <ele>143.889845</ele>
        <time>2022-05-03T07:52:57.613Z</time>
      </trkpt>
      <trkpt lat="41.10282" lon="20.04139">
        <ele>143.868465</ele>
        <time>2022-05-03T07:52:59.614Z</time>
      </trkpt>
      <trkpt lat="41.10278" lon="20.04128">
        <ele>143.846946</ele>
        <time>2022-05-03T07:53:01.618Z</time>
      </trkpt>
      <trkpt lat="41.10273" lon="20.04113">
        <ele>143.815924</ele>
        <time>2022-05-03T07:53:04.629Z</time>
      </trkpt>
      <trkpt lat="41.10268" lon="20.04096">
        <ele>143.78421</ele>
        <time>2022-05-03T07:53:07.599Z</time>
      </trkpt>
      <trkpt lat="41.10264" lon="20.04085">
        <ele>143.762228</ele>
        <time>2022-05-03T07:53:09.592Z</time>
      </trkpt>
      <trkpt lat="41.10261" lon="20.04073">
        <ele>143.739086</ele>
        <time>2022-05-03T07:53:11.605Z</time>
      </trkpt>
      <trkpt lat="41.10257" lon="20.04061">
        <ele>143.715903</ele>
        <time>2022-05-03T07:53:13.607Z</time>
      </trkpt>
      <trkpt lat="41.10251" lon="20.04046">
        <ele>143.719314</ele>
        <time>2022-05-03T07:53:16.594Z</time>
      </trkpt>
      <trkpt lat="41.10246" lon="20.0403">
        <ele>143.733112</ele>
        <time>2022-05-03T07:53:19.606Z</time>
      </trkpt>
      <trkpt lat="41.10243" lon="20.04019">
        <ele>143.743134</ele>
        <time>2022-05-03T07:53:21.613Z</time>
      </trkpt>
      <trkpt lat="41.10239" lon="20.04007">
        <ele>143.752849</ele>
        <time>2022-05-03T07:53:23.598Z</time>
      </trkpt>
      <trkpt lat="41.10236" lon="20.03996">
        <ele>143.762414</ele>
        <time>2022-05-03T07:53:25.607Z</time>
      </trkpt>
      <trkpt lat="41.10231" lon="20.0398">
        <ele>143.776306</ele>
        <time>2022-05-03T07:53:28.606Z</time>
      </trkpt>
      <trkpt lat="41.10226" lon="20.03964">
        <ele>143.789771</ele>
        <time>2022-05-03T07:53:31.638Z</time>
      </trkpt>
      <trkpt lat="41.10221" lon="20.03949">
        <ele>143.80313</ele>
        <time>2022-05-03T07:53:34.599Z</time>
      </trkpt>
      <trkpt lat="41.10216" lon="20.03932">
        <ele>143.817257</ele>
        <time>2022-05-03T07:53:37.603Z</time>
      </trkpt>
      <trkpt lat="41.10212" lon="20.03921">
        <ele>143.826898</ele>
        <time>2022-05-03T07:53:39.614Z</time>
      </trkpt>
      <trkpt lat="41.10209" lon="20.03909">
        <ele>143.837066</ele>
        <time>2022-05-03T07:53:41.603Z</time>
      </trkpt>
      <trkpt lat="41.10205" lon="20.03897">
        <ele>143.847413</ele>
        <time>2022-05-03T07:53:43.603Z</time>
      </trkpt>
      <trkpt lat="41.10201" lon="20.03885">
        <ele>143.857955</ele>
        <time>2022-05-03T07:53:45.634Z</time>
      </trkpt>
      <trkpt lat="41.10197" lon="20.03872">
        <ele>143.86854</ele>
        <time>2022-05-03T07:53:47.595Z</time>
      </trkpt>
      <trkpt lat="41.10193" lon="20.0386">
        <ele>143.879228</ele>
        <time>2022-05-03T07:53:49.611Z</time>
      </trkpt>
      <trkpt lat="41.10189" lon="20.03847">
        <ele>143.89035</ele>
        <time>2022-05-03T07:53:51.622Z</time>
      </trkpt>
      <trkpt lat="41.10185" lon="20.03834">
        <ele>143.915153</ele>
        <time>2022-05-03T07:53:53.613Z</time>
      </trkpt>
      <trkpt lat="41.10181" lon="20.03822">
        <ele>143.975949</ele>
        <time>2022-05-03T07:53:55.606Z</time>
      </trkpt>
      <trkpt lat="41.10177" lon="20.03809">
        <ele>144.03569</ele>
        <time>2022-05-03T07:53:57.641Z</time>
      </trkpt>
      <trkpt lat="41.10173" lon="20.03798">
        <ele>144.093374</ele>
        <time>2022-05-03T07:53:59.618Z</time>
      </trkpt>
      <trkpt lat="41.10169" lon="20.03787">
        <ele>144.148053</ele>
        <time>2022-05-03T07:54:01.599Z</time>
      </trkpt>
      <trkpt lat="41.10165" lon="20.03775">
        <ele>144.203135</ele>
        <time>2022-05-03T07:54:03.603Z</time>
      </trkpt>
      <trkpt lat="41.1016" lon="20.03759">
        <ele>144.28339</ele>
        <time>2022-05-03T07:54:06.603Z</time>
      </trkpt>
      <trkpt lat="41.10157" lon="20.03748">
        <ele>144.33681</ele>
        <time>2022-05-03T07:54:08.625Z</time>
      </trkpt>
      <trkpt lat="41.10151" lon="20.03732">
        <ele>144.41554</ele>
        <time>2022-05-03T07:54:11.647Z</time>
      </trkpt>
      <trkpt lat="41.10147" lon="20.03716">
        <ele>144.490789</ele>
        <time>2022-05-03T07:54:14.612Z</time>
      </trkpt>
      <trkpt lat="41.1014" lon="20.037">
        <ele>144.570665</ele>
        <time>2022-05-03T07:54:17.617Z</time>
      </trkpt>
      <trkpt lat="41.10137" lon="20.03688">
        <ele>144.630364</ele>
        <time>2022-05-03T07:54:19.616Z</time>
      </trkpt>
      <trkpt lat="41.10133" lon="20.03675">
        <ele>144.690903</ele>
        <time>2022-05-03T07:54:21.604Z</time>
      </trkpt>
      <trkpt lat="41.1013" lon="20.03663">
        <ele>144.748121</ele>
        <time>2022-05-03T07:54:23.590Z</time>
      </trkpt>
      <trkpt lat="41.10124" lon="20.03647">
        <ele>144.827607</ele>
        <time>2022-05-03T07:54:26.595Z</time>
      </trkpt>
      <trkpt lat="41.1012" lon="20.03636">
        <ele>144.882302</ele>
        <time>2022-05-03T07:54:28.641Z</time>
      </trkpt>
      <trkpt lat="41.10117" lon="20.03625">
        <ele>144.936359</ele>
        <time>2022-05-03T07:54:30.604Z</time>
      </trkpt>
      <trkpt lat="41.10114" lon="20.03613">
        <ele>144.866305</ele>
        <time>2022-05-03T07:54:32.605Z</time>
      </trkpt>
      <trkpt lat="41.10111" lon="20.03601">
        <ele>144.629035</ele>
        <time>2022-05-03T07:54:34.598Z</time>
      </trkpt>
      <trkpt lat="41.10108" lon="20.03589">
        <ele>144.384096</ele>
        <time>2022-05-03T07:54:36.604Z</time>
      </trkpt>
      <trkpt lat="41.10105" lon="20.03577">
        <ele>144.149947</ele>
        <time>2022-05-03T07:54:38.600Z</time>
      </trkpt>
      <trkpt lat="41.10103" lon="20.03564">
        <ele>143.895121</ele>
        <time>2022-05-03T07:54:40.599Z</time>
      </trkpt>
      <trkpt lat="41.10101" lon="20.03551">
        <ele>143.638171</ele>
        <time>2022-05-03T07:54:42.606Z</time>
      </trkpt>
      <trkpt lat="41.10099" lon="20.03538">
        <ele>143.387129</ele>
        <time>2022-05-03T07:54:44.609Z</time>
      </trkpt>
      <trkpt lat="41.10097" lon="20.03525">
        <ele>143.135235</ele>
        <time>2022-05-03T07:54:46.608Z</time>
      </trkpt>
      <trkpt lat="41.10095" lon="20.03512">
        <ele>142.880143</ele>
        <time>2022-05-03T07:54:48.621Z</time>
      </trkpt>
      <trkpt lat="41.10093" lon="20.03499">
        <ele>142.633286</ele>
        <time>2022-05-03T07:54:50.597Z</time>
      </trkpt>
      <trkpt lat="41.1009" lon="20.03487">
        <ele>142.389503</ele>
        <time>2022-05-03T07:54:52.594Z</time>
      </trkpt>
      <trkpt lat="41.10088" lon="20.03474">
        <ele>142.143274</ele>
        <time>2022-05-03T07:54:54.604Z</time>
      </trkpt>
      <trkpt lat="41.10085" lon="20.03461">
        <ele>141.894585</ele>
        <time>2022-05-03T07:54:56.616Z</time>
      </trkpt>
      <trkpt lat="41.10083" lon="20.03449">
        <ele>141.640928</ele>
        <time>2022-05-03T07:54:58.604Z</time>
      </trkpt>
      <trkpt lat="41.1008" lon="20.03435">
        <ele>141.383062</ele>
        <time>2022-05-03T07:55:00.596Z</time>
      </trkpt>
      <trkpt lat="41.10078" lon="20.03423">
        <ele>141.143324</ele>
        <time>2022-05-03T07:55:02.600Z</time>
      </trkpt>
      <trkpt lat="41.10076" lon="20.03411">
        <ele>140.901968</ele>
        <time>2022-05-03T07:55:04.604Z</time>
      </trkpt>
      <trkpt lat="41.10074" lon="20.03399">
        <ele>140.669651</ele>
        <time>2022-05-03T07:55:06.611Z</time>
      </trkpt>
      <trkpt lat="41.10072" lon="20.03386">
        <ele>140.44041</ele>
        <time>2022-05-03T07:55:08.607Z</time>
      </trkpt>
      <trkpt lat="41.1007" lon="20.03373">
        <ele>140.388171</ele>
        <time>2022-05-03T07:55:10.616Z</time>
      </trkpt>
      <trkpt lat="41.10068" lon="20.0336">
        <ele>140.336707</ele>
        <time>2022-05-03T07:55:12.624Z</time>
      </trkpt>
      <trkpt lat="41.10066" lon="20.03348">
        <ele>140.287917</ele>
        <time>2022-05-03T07:55:14.655Z</time>
      </trkpt>
      <trkpt lat="41.10063" lon="20.03331">
        <ele>140.217397</ele>
        <time>2022-05-03T07:55:17.615Z</time>
      </trkpt>
      <trkpt lat="41.10061" lon="20.03313">
        <ele>140.146399</ele>
        <time>2022-05-03T07:55:20.603Z</time>
      </trkpt>
      <trkpt lat="41.1006" lon="20.03301">
        <ele>140.09836</ele>
        <time>2022-05-03T07:55:22.610Z</time>
      </trkpt>
      <trkpt lat="41.10059" lon="20.0329">
        <ele>140.050436</ele>
        <time>2022-05-03T07:55:24.608Z</time>
      </trkpt>
      <trkpt lat="41.10057" lon="20.03272">
        <ele>139.98154</ele>
        <time>2022-05-03T07:55:27.593Z</time>
      </trkpt>
      <trkpt lat="41.10057" lon="20.03255">
        <ele>139.911809</ele>
        <time>2022-05-03T07:55:30.589Z</time>
      </trkpt>
      <trkpt lat="41.10057" lon="20.03238">
        <ele>139.844562</ele>
        <time>2022-05-03T07:55:33.610Z</time>
      </trkpt>
      <trkpt lat="41.10056" lon="20.03222">
        <ele>139.781155</ele>
        <time>2022-05-03T07:55:36.613Z</time>
      </trkpt>
      <trkpt lat="41.10055" lon="20.03207">
        <ele>139.721432</ele>
        <time>2022-05-03T07:55:39.592Z</time>
      </trkpt>
      <trkpt lat="41.10055" lon="20.03192">
        <ele>139.659748</ele>
        <time>2022-05-03T07:55:42.611Z</time>
      </trkpt>
      <trkpt lat="41.10055" lon="20.03177">
        <ele>139.600837</ele>
        <time>2022-05-03T07:55:45.622Z</time>
      </trkpt>
      <trkpt lat="41.10055" lon="20.03164">
        <ele>139.548291</ele>
        <time>2022-05-03T07:55:48.622Z</time>
      </trkpt>
      <trkpt lat="41.10055" lon="20.0315">
        <ele>139.495765</ele>
        <time>2022-05-03T07:55:51.606Z</time>
      </trkpt>
      <trkpt lat="41.10055" lon="20.03135">
        <ele>139.905917</ele>
        <time>2022-05-03T07:55:54.603Z</time>
      </trkpt>
      <trkpt lat="41.10055" lon="20.03119">
        <ele>140.33842</ele>
        <time>2022-05-03T07:55:57.662Z</time>
      </trkpt>
      <trkpt lat="41.10055" lon="20.03106">
        <ele>140.662151</ele>
        <time>2022-05-03T07:55:59.604Z</time>
      </trkpt>
      <trkpt lat="41.10056" lon="20.03094">
        <ele>140.996162</ele>
        <time>2022-05-03T07:56:01.610Z</time>
      </trkpt>
      <trkpt lat="41.10056" lon="20.03077">
        <ele>141.458507</ele>
        <time>2022-05-03T07:56:04.616Z</time>
      </trkpt>
      <trkpt lat="41.10057" lon="20.03061">
        <ele>141.864438</ele>
        <time>2022-05-03T07:56:07.599Z</time>
      </trkpt>
      <trkpt lat="41.10057" lon="20.03048">
        <ele>142.224863</ele>
        <time>2022-05-03T07:56:10.597Z</time>
      </trkpt>
      <trkpt lat="41.10055" lon="20.03033">
        <ele>142.619602</ele>
        <time>2022-05-03T07:56:13.626Z</time>
      </trkpt>
      <trkpt lat="41.10053" lon="20.03022">
        <ele>142.938943</ele>
        <time>2022-05-03T07:56:16.596Z</time>
      </trkpt>
      <trkpt lat="41.10053" lon="20.03007">
        <ele>143.331531</ele>
        <time>2022-05-03T07:56:20.625Z</time>
      </trkpt>
      <trkpt lat="41.10053" lon="20.02991">
        <ele>143.756144</ele>
        <time>2022-05-03T07:56:23.578Z</time>
      </trkpt>
      <trkpt lat="41.10053" lon="20.02975">
        <ele>144.19403</ele>
        <time>2022-05-03T07:56:26.618Z</time>
      </trkpt>
      <trkpt lat="41.10054" lon="20.02957">
        <ele>144.668473</ele>
        <time>2022-05-03T07:56:29.613Z</time>
      </trkpt>
      <trkpt lat="41.10057" lon="20.0294">
        <ele>145.124222</ele>
        <time>2022-05-03T07:56:32.599Z</time>
      </trkpt>
      <trkpt lat="41.10062" lon="20.0293">
        <ele>145.449455</ele>
        <time>2022-05-03T07:56:34.617Z</time>
      </trkpt>
      <trkpt lat="41.1007" lon="20.02915">
        <ele>145.800995</ele>
        <time>2022-05-03T07:56:37.598Z</time>
      </trkpt>
      <trkpt lat="41.10077" lon="20.02906">
        <ele>145.476952</ele>
        <time>2022-05-03T07:56:39.658Z</time>
      </trkpt>
      <trkpt lat="41.10085" lon="20.02899">
        <ele>145.157434</ele>
        <time>2022-05-03T07:56:41.590Z</time>
      </trkpt>
      <trkpt lat="41.10093" lon="20.02894">
        <ele>144.848976</ele>
        <time>2022-05-03T07:56:43.584Z</time>
      </trkpt>
      <trkpt lat="41.10101" lon="20.02887">
        <ele>144.541439</ele>
        <time>2022-05-03T07:56:45.583Z</time>
      </trkpt>
      <trkpt lat="41.10109" lon="20.02881">
        <ele>144.239616</ele>
        <time>2022-05-03T07:56:47.587Z</time>
      </trkpt>
      <trkpt lat="41.10117" lon="20.02875">
        <ele>143.937793</ele>
        <time>2022-05-03T07:56:49.581Z</time>
      </trkpt>
      <trkpt lat="41.10126" lon="20.02867">
        <ele>143.578124</ele>
        <time>2022-05-03T07:56:52.586Z</time>
      </trkpt>
      <trkpt lat="41.10134" lon="20.02861">
        <ele>143.267185</ele>
        <time>2022-05-03T07:56:56.624Z</time>
      </trkpt>
      <trkpt lat="41.10145" lon="20.02854">
        <ele>142.881206</ele>
        <time>2022-05-03T07:57:00.585Z</time>
      </trkpt>
      <trkpt lat="41.10153" lon="20.02848">
        <ele>142.557151</ele>
        <time>2022-05-03T07:57:04.604Z</time>
      </trkpt>
      <trkpt lat="41.1016" lon="20.02839">
        <ele>142.247048</ele>
        <time>2022-05-03T07:57:09.626Z</time>
      </trkpt>
      <trkpt lat="41.10157" lon="20.02827">
        <ele>141.916044</ele>
        <time>2022-05-03T07:57:14.607Z</time>
      </trkpt>
      <trkpt lat="41.10153" lon="20.02815">
        <ele>141.586455</ele>
        <time>2022-05-03T07:57:17.601Z</time>
      </trkpt>
      <trkpt lat="41.10149" lon="20.02801">
        <ele>141.218795</ele>
        <time>2022-05-03T07:57:20.610Z</time>
      </trkpt>
      <trkpt lat="41.10144" lon="20.02787">
        <ele>140.850863</ele>
        <time>2022-05-03T07:57:23.655Z</time>
      </trkpt>
      <trkpt lat="41.1014" lon="20.02773">
        <ele>140.458314</ele>
        <time>2022-05-03T07:57:26.600Z</time>
      </trkpt>
      <trkpt lat="41.10135" lon="20.0276">
        <ele>140.088751</ele>
        <time>2022-05-03T07:57:29.618Z</time>
      </trkpt>
      <trkpt lat="41.1013" lon="20.02746">
        <ele>139.875145</ele>
        <time>2022-05-03T07:57:32.615Z</time>
      </trkpt>
      <trkpt lat="41.10125" lon="20.02732">
        <ele>139.830693</ele>
        <time>2022-05-03T07:57:35.591Z</time>
      </trkpt>
      <trkpt lat="41.10121" lon="20.02718">
        <ele>139.784207</ele>
        <time>2022-05-03T07:57:38.611Z</time>
      </trkpt>
      <trkpt lat="41.10116" lon="20.02703">
        <ele>139.738825</ele>
        <time>2022-05-03T07:57:41.624Z</time>
      </trkpt>
      <trkpt lat="41.10113" lon="20.02689">
        <ele>139.695589</ele>
        <time>2022-05-03T07:57:44.606Z</time>
      </trkpt>
      <trkpt lat="41.10108" lon="20.02675">
        <ele>139.650448</ele>
        <time>2022-05-03T07:57:47.613Z</time>
      </trkpt>
      <trkpt lat="41.10104" lon="20.0266">
        <ele>139.604796</ele>
        <time>2022-05-03T07:57:50.642Z</time>
      </trkpt>
      <trkpt lat="41.101" lon="20.02646">
        <ele>139.560486</ele>
        <time>2022-05-03T07:57:53.604Z</time>
      </trkpt>
      <trkpt lat="41.10096" lon="20.02632">
        <ele>139.516477</ele>
        <time>2022-05-03T07:57:56.607Z</time>
      </trkpt>
      <trkpt lat="41.10092" lon="20.02618">
        <ele>139.472984</ele>
        <time>2022-05-03T07:57:59.615Z</time>
      </trkpt>
      <trkpt lat="41.10087" lon="20.02604">
        <ele>139.427472</ele>
        <time>2022-05-03T07:58:02.597Z</time>
      </trkpt>
      <trkpt lat="41.10082" lon="20.0259">
        <ele>139.382444</ele>
        <time>2022-05-03T07:58:05.604Z</time>
      </trkpt>
      <trkpt lat="41.10078" lon="20.02576">
        <ele>139.336915</ele>
        <time>2022-05-03T07:58:08.619Z</time>
      </trkpt>
      <trkpt lat="41.10073" lon="20.0256">
        <ele>139.289224</ele>
        <time>2022-05-03T07:58:11.604Z</time>
      </trkpt>
      <trkpt lat="41.10068" lon="20.02546">
        <ele>139.242653</ele>
        <time>2022-05-03T07:58:14.610Z</time>
      </trkpt>
      <trkpt lat="41.10063" lon="20.02532">
        <ele>139.183286</ele>
        <time>2022-05-03T07:58:17.611Z</time>
      </trkpt>
      <trkpt lat="41.10058" lon="20.02518">
        <ele>138.910035</ele>
        <time>2022-05-03T07:58:20.614Z</time>
      </trkpt>
      <trkpt lat="41.10052" lon="20.02506">
        <ele>138.642152</ele>
        <time>2022-05-03T07:58:23.612Z</time>
      </trkpt>
      <trkpt lat="41.10046" lon="20.02492">
        <ele>138.35474</ele>
        <time>2022-05-03T07:58:26.602Z</time>
      </trkpt>
      <trkpt lat="41.10041" lon="20.02478">
        <ele>138.063655</ele>
        <time>2022-05-03T07:58:29.629Z</time>
      </trkpt>
      <trkpt lat="41.10035" lon="20.02463">
        <ele>137.763898</ele>
        <time>2022-05-03T07:58:32.599Z</time>
      </trkpt>
      <trkpt lat="41.10029" lon="20.0245">
        <ele>137.484809</ele>
        <time>2022-05-03T07:58:35.608Z</time>
      </trkpt>
      <trkpt lat="41.10023" lon="20.02437">
        <ele>137.202966</ele>
        <time>2022-05-03T07:58:38.591Z</time>
      </trkpt>
      <trkpt lat="41.10016" lon="20.02424">
        <ele>136.918096</ele>
        <time>2022-05-03T07:58:41.621Z</time>
      </trkpt>
      <trkpt lat="41.10011" lon="20.0241">
        <ele>136.631347</ele>
        <time>2022-05-03T07:58:44.662Z</time>
      </trkpt>
      <trkpt lat="41.10006" lon="20.02397">
        <ele>136.367211</ele>
        <time>2022-05-03T07:58:47.610Z</time>
      </trkpt>
      <trkpt lat="41.10001" lon="20.02384">
        <ele>136.107447</ele>
        <time>2022-05-03T07:58:50.632Z</time>
      </trkpt>
      <trkpt lat="41.09994" lon="20.02372">
        <ele>135.834735</ele>
        <time>2022-05-03T07:58:53.616Z</time>
      </trkpt>
      <trkpt lat="41.09987" lon="20.02358">
        <ele>135.529885</ele>
        <time>2022-05-03T07:58:56.617Z</time>
      </trkpt>
      <trkpt lat="41.09979" lon="20.02344">
        <ele>135.209311</ele>
        <time>2022-05-03T07:58:59.615Z</time>
      </trkpt>
      <trkpt lat="41.09973" lon="20.02334">
        <ele>134.980103</ele>
        <time>2022-05-03T07:59:01.600Z</time>
      </trkpt>
      <trkpt lat="41.09968" lon="20.02324">
        <ele>134.78914</ele>
        <time>2022-05-03T07:59:03.603Z</time>
      </trkpt>
      <trkpt lat="41.09962" lon="20.02313">
        <ele>134.637391</ele>
        <time>2022-05-03T07:59:05.618Z</time>
      </trkpt>
      <trkpt lat="41.09956" lon="20.02303">
        <ele>134.484706</ele>
        <time>2022-05-03T07:59:07.658Z</time>
      </trkpt>
      <trkpt lat="41.09949" lon="20.02292">
        <ele>134.325325</ele>
        <time>2022-05-03T07:59:09.614Z</time>
      </trkpt>
      <trkpt lat="41.09942" lon="20.02283">
        <ele>134.168209</ele>
        <time>2022-05-03T07:59:11.599Z</time>
      </trkpt>
      <trkpt lat="41.09936" lon="20.02273">
        <ele>134.014327</ele>
        <time>2022-05-03T07:59:13.605Z</time>
      </trkpt>
      <trkpt lat="41.09929" lon="20.02263">
        <ele>133.856158</ele>
        <time>2022-05-03T07:59:15.612Z</time>
      </trkpt>
      <trkpt lat="41.09922" lon="20.02253">
        <ele>133.69521</ele>
        <time>2022-05-03T07:59:17.614Z</time>
      </trkpt>
      <trkpt lat="41.09915" lon="20.02242">
        <ele>133.534441</ele>
        <time>2022-05-03T07:59:19.613Z</time>
      </trkpt>
      <trkpt lat="41.09908" lon="20.02233">
        <ele>133.374745</ele>
        <time>2022-05-03T07:59:21.619Z</time>
      </trkpt>
      <trkpt lat="41.09901" lon="20.02223">
        <ele>133.215294</ele>
        <time>2022-05-03T07:59:23.601Z</time>
      </trkpt>
      <trkpt lat="41.09894" lon="20.02213">
        <ele>133.061134</ele>
        <time>2022-05-03T07:59:25.608Z</time>
      </trkpt>
      <trkpt lat="41.09888" lon="20.02203">
        <ele>132.909247</ele>
        <time>2022-05-03T07:59:27.604Z</time>
      </trkpt>
      <trkpt lat="41.09881" lon="20.02193">
        <ele>132.747748</ele>
        <time>2022-05-03T07:59:29.647Z</time>
      </trkpt>
      <trkpt lat="41.09874" lon="20.02183">
        <ele>132.585558</ele>
        <time>2022-05-03T07:59:31.602Z</time>
      </trkpt>
      <trkpt lat="41.09867" lon="20.02174">
        <ele>132.432405</ele>
        <time>2022-05-03T07:59:33.606Z</time>
      </trkpt>
      <trkpt lat="41.0986" lon="20.02166">
        <ele>132.287805</ele>
        <time>2022-05-03T07:59:35.638Z</time>
      </trkpt>
      <trkpt lat="41.09853" lon="20.02157">
        <ele>132.145467</ele>
        <time>2022-05-03T07:59:37.615Z</time>
      </trkpt>
      <trkpt lat="41.09843" lon="20.02147">
        <ele>132.005275</ele>
        <time>2022-05-03T07:59:40.635Z</time>
      </trkpt>
      <trkpt lat="41.09834" lon="20.02136">
        <ele>131.907158</ele>
        <time>2022-05-03T07:59:43.617Z</time>
      </trkpt>
      <trkpt lat="41.09826" lon="20.02126">
        <ele>131.816365</ele>
        <time>2022-05-03T07:59:46.656Z</time>
      </trkpt>
      <trkpt lat="41.09817" lon="20.02116">
        <ele>131.725567</ele>
        <time>2022-05-03T07:59:49.593Z</time>
      </trkpt>
      <trkpt lat="41.09808" lon="20.02106">
        <ele>131.632185</ele>
        <time>2022-05-03T07:59:52.597Z</time>
      </trkpt>
      <trkpt lat="41.09799" lon="20.02095">
        <ele>131.537426</ele>
        <time>2022-05-03T07:59:55.620Z</time>
      </trkpt>
      <trkpt lat="41.0979" lon="20.02085">
        <ele>131.446237</ele>
        <time>2022-05-03T07:59:58.615Z</time>
      </trkpt>
      <trkpt lat="41.09781" lon="20.02076">
        <ele>131.354613</ele>
        <time>2022-05-03T08:00:01.594Z</time>
      </trkpt>
      <trkpt lat="41.09772" lon="20.02065">
        <ele>131.258642</ele>
        <time>2022-05-03T08:00:04.606Z</time>
      </trkpt>
      <trkpt lat="41.09762" lon="20.02054">
        <ele>131.159743</ele>
        <time>2022-05-03T08:00:07.641Z</time>
      </trkpt>
      <trkpt lat="41.09753" lon="20.02043">
        <ele>131.057665</ele>
        <time>2022-05-03T08:00:10.611Z</time>
      </trkpt>
      <trkpt lat="41.09742" lon="20.02032">
        <ele>130.952165</ele>
        <time>2022-05-03T08:00:13.589Z</time>
      </trkpt>
      <trkpt lat="41.09732" lon="20.02021">
        <ele>130.849096</ele>
        <time>2022-05-03T08:00:16.604Z</time>
      </trkpt>
      <trkpt lat="41.09722" lon="20.0201">
        <ele>130.743596</ele>
        <time>2022-05-03T08:00:19.595Z</time>
      </trkpt>
      <trkpt lat="41.09712" lon="20.01999">
        <ele>130.643051</ele>
        <time>2022-05-03T08:00:22.600Z</time>
      </trkpt>
      <trkpt lat="41.09702" lon="20.01988">
        <ele>130.589856</ele>
        <time>2022-05-03T08:00:25.661Z</time>
      </trkpt>
      <trkpt lat="41.09692" lon="20.01977">
        <ele>130.537289</ele>
        <time>2022-05-03T08:00:28.588Z</time>
      </trkpt>
      <trkpt lat="41.09682" lon="20.01966">
        <ele>130.486632</ele>
        <time>2022-05-03T08:00:31.614Z</time>
      </trkpt>
      <trkpt lat="41.09673" lon="20.01955">
        <ele>130.437784</ele>
        <time>2022-05-03T08:00:34.603Z</time>
      </trkpt>
      <trkpt lat="41.09663" lon="20.01945">
        <ele>130.388832</ele>
        <time>2022-05-03T08:00:37.593Z</time>
      </trkpt>
      <trkpt lat="41.09654" lon="20.01935">
        <ele>130.340592</ele>
        <time>2022-05-03T08:00:40.603Z</time>
      </trkpt>
      <trkpt lat="41.09645" lon="20.01925">
        <ele>130.294902</ele>
        <time>2022-05-03T08:00:43.616Z</time>
      </trkpt>
      <trkpt lat="41.09636" lon="20.01913">
        <ele>130.246083</ele>
        <time>2022-05-03T08:00:46.601Z</time>
      </trkpt>
      <trkpt lat="41.09627" lon="20.01903">
        <ele>130.199307</ele>
        <time>2022-05-03T08:00:49.607Z</time>
      </trkpt>
      <trkpt lat="41.09619" lon="20.01893">
        <ele>130.1542</ele>
        <time>2022-05-03T08:00:52.613Z</time>
      </trkpt>
      <trkpt lat="41.0961" lon="20.01884">
        <ele>130.109607</ele>
        <time>2022-05-03T08:00:55.602Z</time>
      </trkpt>
      <trkpt lat="41.09601" lon="20.01874">
        <ele>130.0634</ele>
        <time>2022-05-03T08:00:58.601Z</time>
      </trkpt>
      <trkpt lat="41.09591" lon="20.01864">
        <ele>130.015076</ele>
        <time>2022-05-03T08:01:01.614Z</time>
      </trkpt>
      <trkpt lat="41.09582" lon="20.01855">
        <ele>129.968589</ele>
        <time>2022-05-03T08:01:04.602Z</time>
      </trkpt>
      <trkpt lat="41.09572" lon="20.01846">
        <ele>129.985901</ele>
        <time>2022-05-03T08:01:07.615Z</time>
      </trkpt>
      <trkpt lat="41.09564" lon="20.01837">
        <ele>130.470377</ele>
        <time>2022-05-03T08:01:10.631Z</time>
      </trkpt>
      <trkpt lat="41.09556" lon="20.01828">
        <ele>130.936338</ele>
        <time>2022-05-03T08:01:13.627Z</time>
      </trkpt>
      <trkpt lat="41.09548" lon="20.0182">
        <ele>131.392045</ele>
        <time>2022-05-03T08:01:16.641Z</time>
      </trkpt>
      <trkpt lat="41.0954" lon="20.0181">
        <ele>131.853553</ele>
        <time>2022-05-03T08:01:19.595Z</time>
      </trkpt>
      <trkpt lat="41.09533" lon="20.01802">
        <ele>132.265978</ele>
        <time>2022-05-03T08:01:22.614Z</time>
      </trkpt>
      <trkpt lat="41.09526" lon="20.01794">
        <ele>132.698528</ele>
        <time>2022-05-03T08:01:26.613Z</time>
      </trkpt>
      <trkpt lat="41.09517" lon="20.01786">
        <ele>133.156625</ele>
        <time>2022-05-03T08:01:30.616Z</time>
      </trkpt>
      <trkpt lat="41.09508" lon="20.01778">
        <ele>133.643084</ele>
        <time>2022-05-03T08:01:34.627Z</time>
      </trkpt>
      <trkpt lat="41.09501" lon="20.01769">
        <ele>134.073167</ele>
        <time>2022-05-03T08:01:38.592Z</time>
      </trkpt>
      <trkpt lat="41.09493" lon="20.01761">
        <ele>134.525871</ele>
        <time>2022-05-03T08:01:42.612Z</time>
      </trkpt>
      <trkpt lat="41.09486" lon="20.01752">
        <ele>134.954184</ele>
        <time>2022-05-03T08:01:46.603Z</time>
      </trkpt>
      <trkpt lat="41.09479" lon="20.01742">
        <ele>135.408986</ele>
        <time>2022-05-03T08:01:50.615Z</time>
      </trkpt>
      <trkpt lat="41.09472" lon="20.01731">
        <ele>135.882194</ele>
        <time>2022-05-03T08:01:54.604Z</time>
      </trkpt>
      <trkpt lat="41.09465" lon="20.01721">
        <ele>136.354268</ele>
        <time>2022-05-03T08:01:58.609Z</time>
      </trkpt>
      <trkpt lat="41.09458" lon="20.0171">
        <ele>136.854852</ele>
        <time>2022-05-03T08:02:02.622Z</time>
      </trkpt>
      <trkpt lat="41.09451" lon="20.01699">
        <ele>137.341496</ele>
        <time>2022-05-03T08:02:06.601Z</time>
      </trkpt>
      <trkpt lat="41.09443" lon="20.01687">
        <ele>137.843303</ele>
        <time>2022-05-03T08:02:10.605Z</time>
      </trkpt>
      <trkpt lat="41.09436" lon="20.01677">
        <ele>138.337054</ele>
        <time>2022-05-03T08:02:14.601Z</time>
      </trkpt>
      <trkpt lat="41.09429" lon="20.01667">
        <ele>138.797807</ele>
        <time>2022-05-03T08:02:18.587Z</time>
      </trkpt>
      <trkpt lat="41.09421" lon="20.01656">
        <ele>139.307336</ele>
        <time>2022-05-03T08:02:22.595Z</time>
      </trkpt>
      <trkpt lat="41.09415" lon="20.01647">
        <ele>139.726987</ele>
        <time>2022-05-03T08:02:25.610Z</time>
      </trkpt>
      <trkpt lat="41.09409" lon="20.01638">
        <ele>140.141589</ele>
        <time>2022-05-03T08:02:28.620Z</time>
      </trkpt>
      <trkpt lat="41.09403" lon="20.01629">
        <ele>140.550599</ele>
        <time>2022-05-03T08:02:31.604Z</time>
      </trkpt>
      <trkpt lat="41.09395" lon="20.01619">
        <ele>141.056132</ele>
        <time>2022-05-03T08:02:35.654Z</time>
      </trkpt>
      <trkpt lat="41.09388" lon="20.01609">
        <ele>141.52756</ele>
        <time>2022-05-03T08:02:39.605Z</time>
      </trkpt>
      <trkpt lat="41.09381" lon="20.01598">
        <ele>142.000243</ele>
        <time>2022-05-03T08:02:43.602Z</time>
      </trkpt>
      <trkpt lat="41.09377" lon="20.01587">
        <ele>142.41276</ele>
        <time>2022-05-03T08:02:47.641Z</time>
      </trkpt>
      <trkpt lat="41.09373" lon="20.01576">
        <ele>142.841038</ele>
        <time>2022-05-03T08:02:51.590Z</time>
      </trkpt>
      <trkpt lat="41.09368" lon="20.01564">
        <ele>143.290389</ele>
        <time>2022-05-03T08:02:55.615Z</time>
      </trkpt>
      <trkpt lat="41.09364" lon="20.0155">
        <ele>143.81539</ele>
        <time>2022-05-03T08:02:59.601Z</time>
      </trkpt>
      <trkpt lat="41.0936" lon="20.01538">
        <ele>144.251777</ele>
        <time>2022-05-03T08:03:02.594Z</time>
      </trkpt>
      <trkpt lat="41.09356" lon="20.01527">
        <ele>144.700725</ele>
        <time>2022-05-03T08:03:05.645Z</time>
      </trkpt>
      <trkpt lat="41.0935" lon="20.01515">
        <ele>145.195245</ele>
        <time>2022-05-03T08:03:08.600Z</time>
      </trkpt>
      <trkpt lat="41.09343" lon="20.01501">
        <ele>145.743268</ele>
        <time>2022-05-03T08:03:11.605Z</time>
      </trkpt>
      <trkpt lat="41.09336" lon="20.01487">
        <ele>145.919134</ele>
        <time>2022-05-03T08:03:14.598Z</time>
      </trkpt>
      <trkpt lat="41.09328" lon="20.01473">
        <ele>145.436051</ele>
        <time>2022-05-03T08:03:17.603Z</time>
      </trkpt>
      <trkpt lat="41.09322" lon="20.01462">
        <ele>145.084236</ele>
        <time>2022-05-03T08:03:19.610Z</time>
      </trkpt>
      <trkpt lat="41.09315" lon="20.01451">
        <ele>144.723914</ele>
        <time>2022-05-03T08:03:21.650Z</time>
      </trkpt>
      <trkpt lat="41.09308" lon="20.01441">
        <ele>144.35122</ele>
        <time>2022-05-03T08:03:23.602Z</time>
      </trkpt>
      <trkpt lat="41.09301" lon="20.0143">
        <ele>143.966353</ele>
        <time>2022-05-03T08:03:25.586Z</time>
      </trkpt>
      <trkpt lat="41.09293" lon="20.01419">
        <ele>143.56567</ele>
        <time>2022-05-03T08:03:27.616Z</time>
      </trkpt>
      <trkpt lat="41.09284" lon="20.01409">
        <ele>143.139419</ele>
        <time>2022-05-03T08:03:29.603Z</time>
      </trkpt>
      <trkpt lat="41.09274" lon="20.01398">
        <ele>142.70043</ele>
        <time>2022-05-03T08:03:31.602Z</time>
      </trkpt>
      <trkpt lat="41.09266" lon="20.01387">
        <ele>142.278103</ele>
        <time>2022-05-03T08:03:33.612Z</time>
      </trkpt>
      <trkpt lat="41.09259" lon="20.01373">
        <ele>141.841191</ele>
        <time>2022-05-03T08:03:35.620Z</time>
      </trkpt>
      <trkpt lat="41.09252" lon="20.01358">
        <ele>141.387333</ele>
        <time>2022-05-03T08:03:37.607Z</time>
      </trkpt>
      <trkpt lat="41.09246" lon="20.01344">
        <ele>140.934657</ele>
        <time>2022-05-03T08:03:39.595Z</time>
      </trkpt>
      <trkpt lat="41.0924" lon="20.0133">
        <ele>140.504788</ele>
        <time>2022-05-03T08:03:41.618Z</time>
      </trkpt>
      <trkpt lat="41.09233" lon="20.01317">
        <ele>140.090621</ele>
        <time>2022-05-03T08:03:43.589Z</time>
      </trkpt>
      <trkpt lat="41.09227" lon="20.01304">
        <ele>139.762929</ele>
        <time>2022-05-03T08:03:45.595Z</time>
      </trkpt>
      <trkpt lat="41.09221" lon="20.01292">
        <ele>139.741511</ele>
        <time>2022-05-03T08:03:47.616Z</time>
      </trkpt>
      <trkpt lat="41.09216" lon="20.01281">
        <ele>139.721545</ele>
        <time>2022-05-03T08:03:49.606Z</time>
      </trkpt>
      <trkpt lat="41.09211" lon="20.0127">
        <ele>139.702581</ele>
        <time>2022-05-03T08:03:51.592Z</time>
      </trkpt>
      <trkpt lat="41.09205" lon="20.01256">
        <ele>139.67779</ele>
        <time>2022-05-03T08:03:54.608Z</time>
      </trkpt>
      <trkpt lat="41.092" lon="20.01243">
        <ele>139.654844</ele>
        <time>2022-05-03T08:03:57.649Z</time>
      </trkpt>
      <trkpt lat="41.09194" lon="20.0123">
        <ele>139.633212</ele>
        <time>2022-05-03T08:04:00.592Z</time>
      </trkpt>
      <trkpt lat="41.09189" lon="20.01217">
        <ele>139.610332</ele>
        <time>2022-05-03T08:04:03.579Z</time>
      </trkpt>
      <trkpt lat="41.09184" lon="20.01204">
        <ele>139.588557</ele>
        <time>2022-05-03T08:04:06.578Z</time>
      </trkpt>
      <trkpt lat="41.09181" lon="20.01191">
        <ele>139.56768</ele>
        <time>2022-05-03T08:04:11.254Z</time>
      </trkpt>
      <trkpt lat="41.09177" lon="20.01178">
        <ele>139.547078</ele>
        <time>2022-05-03T08:04:12.587Z</time>
      </trkpt>
      <trkpt lat="41.09173" lon="20.01163">
        <ele>139.523733</ele>
        <time>2022-05-03T08:04:16.604Z</time>
      </trkpt>
      <trkpt lat="41.09169" lon="20.0115">
        <ele>139.50257</ele>
        <time>2022-05-03T08:04:20.596Z</time>
      </trkpt>
      <trkpt lat="41.09166" lon="20.01137">
        <ele>139.481262</ele>
        <time>2022-05-03T08:04:24.607Z</time>
      </trkpt>
      <trkpt lat="41.09163" lon="20.01123">
        <ele>139.4587</ele>
        <time>2022-05-03T08:04:28.609Z</time>
      </trkpt>
      <trkpt lat="41.0916" lon="20.01108">
        <ele>139.435168</ele>
        <time>2022-05-03T08:04:32.594Z</time>
      </trkpt>
      <trkpt lat="41.09158" lon="20.01094">
        <ele>139.414093</ele>
        <time>2022-05-03T08:04:36.610Z</time>
      </trkpt>
      <trkpt lat="41.09157" lon="20.01081">
        <ele>139.692605</ele>
        <time>2022-05-03T08:04:40.592Z</time>
      </trkpt>
      <trkpt lat="41.09157" lon="20.01066">
        <ele>140.179832</ele>
        <time>2022-05-03T08:04:44.599Z</time>
      </trkpt>
      <trkpt lat="41.09156" lon="20.01052">
        <ele>140.659157</ele>
        <time>2022-05-03T08:04:48.607Z</time>
      </trkpt>
      <trkpt lat="41.09152" lon="20.01039">
        <ele>141.107366</ele>
        <time>2022-05-03T08:04:52.600Z</time>
      </trkpt>
      <trkpt lat="41.0915" lon="20.01026">
        <ele>141.539895</ele>
        <time>2022-05-03T08:04:56.614Z</time>
      </trkpt>
      <trkpt lat="41.09148" lon="20.01015">
        <ele>141.936598</ele>
        <time>2022-05-03T08:05:00.615Z</time>
      </trkpt>
      <trkpt lat="41.09146" lon="20.01">
        <ele>142.426999</ele>
        <time>2022-05-03T08:05:05.604Z</time>
      </trkpt>
      <trkpt lat="41.09144" lon="20.00986">
        <ele>142.915544</ele>
        <time>2022-05-03T08:05:10.609Z</time>
      </trkpt>
      <trkpt lat="41.09143" lon="20.00974">
        <ele>143.319099</ele>
        <time>2022-05-03T08:05:14.606Z</time>
      </trkpt>
      <trkpt lat="41.09141" lon="20.00962">
        <ele>143.71719</ele>
        <time>2022-05-03T08:05:18.604Z</time>
      </trkpt>
      <trkpt lat="41.0914" lon="20.0095">
        <ele>144.131252</ele>
        <time>2022-05-03T08:05:22.599Z</time>
      </trkpt>
      <trkpt lat="41.09138" lon="20.00935">
        <ele>144.622673</ele>
        <time>2022-05-03T08:05:27.602Z</time>
      </trkpt>
      <trkpt lat="41.09137" lon="20.00921">
        <ele>145.110383</ele>
        <time>2022-05-03T08:05:32.605Z</time>
      </trkpt>
      <trkpt lat="41.09137" lon="20.00909">
        <ele>145.510456</ele>
        <time>2022-05-03T08:05:36.605Z</time>
      </trkpt>
      <trkpt lat="41.09136" lon="20.00895">
        <ele>145.97852</ele>
        <time>2022-05-03T08:05:41.595Z</time>
      </trkpt>
      <trkpt lat="41.09136" lon="20.0088">
        <ele>146.465266</ele>
        <time>2022-05-03T08:05:46.611Z</time>
      </trkpt>
      <trkpt lat="41.09137" lon="20.00866">
        <ele>146.927042</ele>
        <time>2022-05-03T08:05:51.605Z</time>
      </trkpt>
      <trkpt lat="41.09137" lon="20.00853">
        <ele>147.360631</ele>
        <time>2022-05-03T08:05:56.655Z</time>
      </trkpt>
      <trkpt lat="41.09138" lon="20.00841">
        <ele>148.090461</ele>
        <time>2022-05-03T08:06:01.613Z</time>
      </trkpt>
      <trkpt lat="41.09139" lon="20.00828">
        <ele>148.783325</ele>
        <time>2022-05-03T08:06:06.627Z</time>
      </trkpt>
      <trkpt lat="41.0914" lon="20.00814">
        <ele>149.599194</ele>
        <time>2022-05-03T08:06:12.614Z</time>
      </trkpt>
      <trkpt lat="41.09142" lon="20.00802">
        <ele>150.292437</ele>
        <time>2022-05-03T08:06:17.617Z</time>
      </trkpt>
      <trkpt lat="41.09144" lon="20.0079">
        <ele>150.988547</ele>
        <time>2022-05-03T08:06:22.608Z</time>
      </trkpt>
      <trkpt lat="41.09145" lon="20.00778">
        <ele>151.697458</ele>
        <time>2022-05-03T08:06:27.613Z</time>
      </trkpt>
      <trkpt lat="41.09147" lon="20.00766">
        <ele>152.385673</ele>
        <time>2022-05-03T08:06:32.610Z</time>
      </trkpt>
      <trkpt lat="41.09149" lon="20.00753">
        <ele>153.106422</ele>
        <time>2022-05-03T08:06:37.615Z</time>
      </trkpt>
      <trkpt lat="41.09151" lon="20.00741">
        <ele>153.804228</ele>
        <time>2022-05-03T08:06:42.602Z</time>
      </trkpt>
      <trkpt lat="41.09152" lon="20.00729">
        <ele>154.513627</ele>
        <time>2022-05-03T08:06:47.599Z</time>
      </trkpt>
      <trkpt lat="41.09153" lon="20.00716">
        <ele>155.236901</ele>
        <time>2022-05-03T08:06:52.612Z</time>
      </trkpt>
      <trkpt lat="41.09155" lon="20.00703">
        <ele>155.988983</ele>
        <time>2022-05-03T08:06:58.648Z</time>
      </trkpt>
      <trkpt lat="41.09156" lon="20.0069">
        <ele>156.732019</ele>
        <time>2022-05-03T08:07:04.600Z</time>
      </trkpt>
      <trkpt lat="41.09158" lon="20.00676">
        <ele>157.506413</ele>
        <time>2022-05-03T08:07:11.607Z</time>
      </trkpt>
      <trkpt lat="41.0916" lon="20.00663">
        <ele>158.262643</ele>
        <time>2022-05-03T08:07:17.602Z</time>
      </trkpt>
      <trkpt lat="41.09162" lon="20.00651">
        <ele>159.000447</ele>
        <time>2022-05-03T08:07:23.611Z</time>
      </trkpt>
      <trkpt lat="41.09163" lon="20.00638">
        <ele>159.70346</ele>
        <time>2022-05-03T08:07:29.600Z</time>
      </trkpt>
      <trkpt lat="41.09163" lon="20.00626">
        <ele>160.416701</ele>
        <time>2022-05-03T08:07:34.602Z</time>
      </trkpt>
      <trkpt lat="41.09164" lon="20.00613">
        <ele>160.975216</ele>
        <time>2022-05-03T08:07:39.607Z</time>
      </trkpt>
      <trkpt lat="41.09166" lon="20.00601">
        <ele>161.270844</ele>
        <time>2022-05-03T08:07:45.608Z</time>
      </trkpt>
      <trkpt lat="41.09167" lon="20.00588">
        <ele>161.576781</ele>
        <time>2022-05-03T08:07:51.597Z</time>
      </trkpt>
      <trkpt lat="41.09168" lon="20.00575">
        <ele>161.863591</ele>
        <time>2022-05-03T08:07:57.598Z</time>
      </trkpt>
      <trkpt lat="41.09169" lon="20.00563">
        <ele>162.142216</ele>
        <time>2022-05-03T08:08:02.652Z</time>
      </trkpt>
      <trkpt lat="41.09169" lon="20.00551">
        <ele>162.425203</ele>
        <time>2022-05-03T08:08:07.612Z</time>
      </trkpt>
      <trkpt lat="41.09169" lon="20.00539">
        <ele>162.712693</ele>
        <time>2022-05-03T08:08:12.602Z</time>
      </trkpt>
      <trkpt lat="41.09169" lon="20.00526">
        <ele>162.995798</ele>
        <time>2022-05-03T08:08:17.588Z</time>
      </trkpt>
      <trkpt lat="41.09168" lon="20.00514">
        <ele>163.277394</ele>
        <time>2022-05-03T08:08:22.600Z</time>
      </trkpt>
      <trkpt lat="41.09168" lon="20.005">
        <ele>163.604279</ele>
        <time>2022-05-03T08:08:28.602Z</time>
      </trkpt>
      <trkpt lat="41.09167" lon="20.00488">
        <ele>163.892164</ele>
        <time>2022-05-03T08:08:33.638Z</time>
      </trkpt>
      <trkpt lat="41.09166" lon="20.00476">
        <ele>164.176968</ele>
        <time>2022-05-03T08:08:38.617Z</time>
      </trkpt>
      <trkpt lat="41.09164" lon="20.00461">
        <ele>164.519944</ele>
        <time>2022-05-03T08:08:43.612Z</time>
      </trkpt>
      <trkpt lat="41.09162" lon="20.00449">
        <ele>164.801945</ele>
        <time>2022-05-03T08:08:47.607Z</time>
      </trkpt>
      <trkpt lat="41.09161" lon="20.00436">
        <ele>165.122064</ele>
        <time>2022-05-03T08:08:51.595Z</time>
      </trkpt>
      <trkpt lat="41.09158" lon="20.00421">
        <ele>165.457183</ele>
        <time>2022-05-03T08:08:55.619Z</time>
      </trkpt>
      <trkpt lat="41.09155" lon="20.00408">
        <ele>165.797929</ele>
        <time>2022-05-03T08:08:59.625Z</time>
      </trkpt>
      <trkpt lat="41.0915" lon="20.00395">
        <ele>166.113514</ele>
        <time>2022-05-03T08:09:03.618Z</time>
      </trkpt>
      <trkpt lat="41.09144" lon="20.00383">
        <ele>166.367908</ele>
        <time>2022-05-03T08:09:07.628Z</time>
      </trkpt>
      <trkpt lat="41.09139" lon="20.00369">
        <ele>166.122029</ele>
        <time>2022-05-03T08:09:11.618Z</time>
      </trkpt>
      <trkpt lat="41.09133" lon="20.00357">
        <ele>165.896752</ele>
        <time>2022-05-03T08:09:15.600Z</time>
      </trkpt>
      <trkpt lat="41.09126" lon="20.00344">
        <ele>165.636782</ele>
        <time>2022-05-03T08:09:19.599Z</time>
      </trkpt>
      <trkpt lat="41.0912" lon="20.00333">
        <ele>165.418236</ele>
        <time>2022-05-03T08:09:22.625Z</time>
      </trkpt>
      <trkpt lat="41.09114" lon="20.00321">
        <ele>165.208719</ele>
        <time>2022-05-03T08:09:25.608Z</time>
      </trkpt>
      <trkpt lat="41.09108" lon="20.00311">
        <ele>164.999023</ele>
        <time>2022-05-03T08:09:28.599Z</time>
      </trkpt>
      <trkpt lat="41.09102" lon="20.00299">
        <ele>164.767982</ele>
        <time>2022-05-03T08:09:31.608Z</time>
      </trkpt>
      <trkpt lat="41.09094" lon="20.00287">
        <ele>164.524075</ele>
        <time>2022-05-03T08:09:34.601Z</time>
      </trkpt>
      <trkpt lat="41.09086" lon="20.00276">
        <ele>164.275636</ele>
        <time>2022-05-03T08:09:37.604Z</time>
      </trkpt>
      <trkpt lat="41.09077" lon="20.00265">
        <ele>164.020406</ele>
        <time>2022-05-03T08:09:40.645Z</time>
      </trkpt>
      <trkpt lat="41.09066" lon="20.00255">
        <ele>163.745373</ele>
        <time>2022-05-03T08:09:43.614Z</time>
      </trkpt>
      <trkpt lat="41.09058" lon="20.00248">
        <ele>163.550645</ele>
        <time>2022-05-03T08:09:45.604Z</time>
      </trkpt>
      <trkpt lat="41.09047" lon="20.00238">
        <ele>163.276829</ele>
        <time>2022-05-03T08:09:48.599Z</time>
      </trkpt>
      <trkpt lat="41.09039" lon="20.00231">
        <ele>163.076906</ele>
        <time>2022-05-03T08:09:50.621Z</time>
      </trkpt>
      <trkpt lat="41.09031" lon="20.00224">
        <ele>162.86567</ele>
        <time>2022-05-03T08:09:52.616Z</time>
      </trkpt>
      <trkpt lat="41.09023" lon="20.00217">
        <ele>162.662269</ele>
        <time>2022-05-03T08:09:54.604Z</time>
      </trkpt>
      <trkpt lat="41.09014" lon="20.00209">
        <ele>162.09306</ele>
        <time>2022-05-03T08:09:56.622Z</time>
      </trkpt>
      <trkpt lat="41.09005" lon="20.00202">
        <ele>161.499611</ele>
        <time>2022-05-03T08:09:58.631Z</time>
      </trkpt>
      <trkpt lat="41.08997" lon="20.00195">
        <ele>160.920225</ele>
        <time>2022-05-03T08:10:00.605Z</time>
      </trkpt>
      <trkpt lat="41.08988" lon="20.00188">
        <ele>160.356091</ele>
        <time>2022-05-03T08:10:02.619Z</time>
      </trkpt>
      <trkpt lat="41.0898" lon="20.00181">
        <ele>159.791318</ele>
        <time>2022-05-03T08:10:04.604Z</time>
      </trkpt>
      <trkpt lat="41.08971" lon="20.00174">
        <ele>159.197614</ele>
        <time>2022-05-03T08:10:06.610Z</time>
      </trkpt>
      <trkpt lat="41.08963" lon="20.00167">
        <ele>158.6138</ele>
        <time>2022-05-03T08:10:08.605Z</time>
      </trkpt>
      <trkpt lat="41.08954" lon="20.0016">
        <ele>158.043275</ele>
        <time>2022-05-03T08:10:10.595Z</time>
      </trkpt>
      <trkpt lat="41.08945" lon="20.00154">
        <ele>157.45565</ele>
        <time>2022-05-03T08:10:12.605Z</time>
      </trkpt>
      <trkpt lat="41.08936" lon="20.00147">
        <ele>156.863706</ele>
        <time>2022-05-03T08:10:14.639Z</time>
      </trkpt>
      <trkpt lat="41.08927" lon="20.0014">
        <ele>156.278204</ele>
        <time>2022-05-03T08:10:16.603Z</time>
      </trkpt>
      <trkpt lat="41.08919" lon="20.00133">
        <ele>155.701069</ele>
        <time>2022-05-03T08:10:18.602Z</time>
      </trkpt>
      <trkpt lat="41.0891" lon="20.00126">
        <ele>155.111295</ele>
        <time>2022-05-03T08:10:20.615Z</time>
      </trkpt>
      <trkpt lat="41.08901" lon="20.0012">
        <ele>154.532917</ele>
        <time>2022-05-03T08:10:22.610Z</time>
      </trkpt>
      <trkpt lat="41.08892" lon="20.00113">
        <ele>153.941789</ele>
        <time>2022-05-03T08:10:24.610Z</time>
      </trkpt>
      <trkpt lat="41.08884" lon="20.00105">
        <ele>153.343332</ele>
        <time>2022-05-03T08:10:26.589Z</time>
      </trkpt>
      <trkpt lat="41.08875" lon="20.00097">
        <ele>152.752063</ele>
        <time>2022-05-03T08:10:28.596Z</time>
      </trkpt>
      <trkpt lat="41.08867" lon="20.00089">
        <ele>152.245889</ele>
        <time>2022-05-03T08:10:30.594Z</time>
      </trkpt>
      <trkpt lat="41.08858" lon="20.00081">
        <ele>151.96865</ele>
        <time>2022-05-03T08:10:32.612Z</time>
      </trkpt>
      <trkpt lat="41.0885" lon="20.00072">
        <ele>151.684188</ele>
        <time>2022-05-03T08:10:34.618Z</time>
      </trkpt>
      <trkpt lat="41.08841" lon="20.00062">
        <ele>151.399271</ele>
        <time>2022-05-03T08:10:36.651Z</time>
      </trkpt>
      <trkpt lat="41.08833" lon="20.00053">
        <ele>151.12363</ele>
        <time>2022-05-03T08:10:38.601Z</time>
      </trkpt>
      <trkpt lat="41.08826" lon="20.00044">
        <ele>150.85381</ele>
        <time>2022-05-03T08:10:40.599Z</time>
      </trkpt>
      <trkpt lat="41.08818" lon="20.00035">
        <ele>150.580813</ele>
        <time>2022-05-03T08:10:42.650Z</time>
      </trkpt>
      <trkpt lat="41.0881" lon="20.00025">
        <ele>150.301712</ele>
        <time>2022-05-03T08:10:44.599Z</time>
      </trkpt>
      <trkpt lat="41.08802" lon="20.00016">
        <ele>150.028051</ele>
        <time>2022-05-03T08:10:46.605Z</time>
      </trkpt>
      <trkpt lat="41.08794" lon="20.00007">
        <ele>149.744586</ele>
        <time>2022-05-03T08:10:48.600Z</time>
      </trkpt>
      <trkpt lat="41.08785" lon="19.99997">
        <ele>149.44375</ele>
        <time>2022-05-03T08:10:50.613Z</time>
      </trkpt>
      <trkpt lat="41.08777" lon="19.99989">
        <ele>149.180967</ele>
        <time>2022-05-03T08:10:52.619Z</time>
      </trkpt>
      <trkpt lat="41.08769" lon="19.9998">
        <ele>148.908595</ele>
        <time>2022-05-03T08:10:54.613Z</time>
      </trkpt>
      <trkpt lat="41.08761" lon="19.9997">
        <ele>148.620518</ele>
        <time>2022-05-03T08:10:56.612Z</time>
      </trkpt>
      <trkpt lat="41.08753" lon="19.9996">
        <ele>148.320534</ele>
        <time>2022-05-03T08:10:58.603Z</time>
      </trkpt>
      <trkpt lat="41.08745" lon="19.9995">
        <ele>148.038353</ele>
        <time>2022-05-03T08:11:00.614Z</time>
      </trkpt>
      <trkpt lat="41.08736" lon="19.99941">
        <ele>147.752293</ele>
        <time>2022-05-03T08:11:02.611Z</time>
      </trkpt>
      <trkpt lat="41.08728" lon="19.99932">
        <ele>147.631004</ele>
        <time>2022-05-03T08:11:04.649Z</time>
      </trkpt>
      <trkpt lat="41.08719" lon="19.99923">
        <ele>147.667991</ele>
        <time>2022-05-03T08:11:06.611Z</time>
      </trkpt>
      <trkpt lat="41.08712" lon="19.99914">
        <ele>147.701263</ele>
        <time>2022-05-03T08:11:08.613Z</time>
      </trkpt>
      <trkpt lat="41.08704" lon="19.99905">
        <ele>147.735058</ele>
        <time>2022-05-03T08:11:10.583Z</time>
      </trkpt>
      <trkpt lat="41.08696" lon="19.99897">
        <ele>147.767761</ele>
        <time>2022-05-03T08:11:12.615Z</time>
      </trkpt>
      <trkpt lat="41.08689" lon="19.9989">
        <ele>147.797692</ele>
        <time>2022-05-03T08:11:14.643Z</time>
      </trkpt>
      <trkpt lat="41.08679" lon="19.99879">
        <ele>147.840864</ele>
        <time>2022-05-03T08:11:17.612Z</time>
      </trkpt>
      <trkpt lat="41.0867" lon="19.99868">
        <ele>147.883039</ele>
        <time>2022-05-03T08:11:20.608Z</time>
      </trkpt>
      <trkpt lat="41.0866" lon="19.99859">
        <ele>147.923174</ele>
        <time>2022-05-03T08:11:23.616Z</time>
      </trkpt>
      <trkpt lat="41.08649" lon="19.9985">
        <ele>147.96504</ele>
        <time>2022-05-03T08:11:26.644Z</time>
      </trkpt>
      <trkpt lat="41.08639" lon="19.99841">
        <ele>148.007169</ele>
        <time>2022-05-03T08:11:29.618Z</time>
      </trkpt>
      <trkpt lat="41.08631" lon="19.99835">
        <ele>148.038696</ele>
        <time>2022-05-03T08:11:31.613Z</time>
      </trkpt>
      <trkpt lat="41.08622" lon="19.99829">
        <ele>148.069872</ele>
        <time>2022-05-03T08:11:33.609Z</time>
      </trkpt>
      <trkpt lat="41.08614" lon="19.99823">
        <ele>148.100102</ele>
        <time>2022-05-03T08:11:35.598Z</time>
      </trkpt>
      <trkpt lat="41.08606" lon="19.99818">
        <ele>148.131279</ele>
        <time>2022-05-03T08:11:37.642Z</time>
      </trkpt>
      <trkpt lat="41.08598" lon="19.99811">
        <ele>148.164126</ele>
        <time>2022-05-03T08:11:39.610Z</time>
      </trkpt>
      <trkpt lat="41.0859" lon="19.99805">
        <ele>148.195404</ele>
        <time>2022-05-03T08:11:41.607Z</time>
      </trkpt>
      <trkpt lat="41.08582" lon="19.99799">
        <ele>148.33679</ele>
        <time>2022-05-03T08:11:43.651Z</time>
      </trkpt>
      <trkpt lat="41.08574" lon="19.99792">
        <ele>148.65895</ele>
        <time>2022-05-03T08:11:45.628Z</time>
      </trkpt>
      <trkpt lat="41.08566" lon="19.99786">
        <ele>148.971049</ele>
        <time>2022-05-03T08:11:47.616Z</time>
      </trkpt>
      <trkpt lat="41.08559" lon="19.99779">
        <ele>149.288939</ele>
        <time>2022-05-03T08:11:49.610Z</time>
      </trkpt>
      <trkpt lat="41.08552" lon="19.99769">
        <ele>149.623989</ele>
        <time>2022-05-03T08:11:51.622Z</time>
      </trkpt>
      <trkpt lat="41.08544" lon="19.99761">
        <ele>149.958436</ele>
        <time>2022-05-03T08:11:53.619Z</time>
      </trkpt>
      <trkpt lat="41.08537" lon="19.99754">
        <ele>150.279582</ele>
        <time>2022-05-03T08:11:55.612Z</time>
      </trkpt>
      <trkpt lat="41.08527" lon="19.99743">
        <ele>150.710245</ele>
        <time>2022-05-03T08:11:58.615Z</time>
      </trkpt>
      <trkpt lat="41.08519" lon="19.99732">
        <ele>151.119621</ele>
        <time>2022-05-03T08:12:01.616Z</time>
      </trkpt>
      <trkpt lat="41.0851" lon="19.99719">
        <ele>151.552703</ele>
        <time>2022-05-03T08:12:04.622Z</time>
      </trkpt>
      <trkpt lat="41.08502" lon="19.99706">
        <ele>151.997376</ele>
        <time>2022-05-03T08:12:07.613Z</time>
      </trkpt>
      <trkpt lat="41.08495" lon="19.99693">
        <ele>152.419353</ele>
        <time>2022-05-03T08:12:10.603Z</time>
      </trkpt>
      <trkpt lat="41.08489" lon="19.99679">
        <ele>152.826169</ele>
        <time>2022-05-03T08:12:13.613Z</time>
      </trkpt>
      <trkpt lat="41.08483" lon="19.99665">
        <ele>153.235035</ele>
        <time>2022-05-03T08:12:16.618Z</time>
      </trkpt>
      <trkpt lat="41.08478" lon="19.99651">
        <ele>153.653893</ele>
        <time>2022-05-03T08:12:19.615Z</time>
      </trkpt>
      <trkpt lat="41.08473" lon="19.99637">
        <ele>154.051935</ele>
        <time>2022-05-03T08:12:22.613Z</time>
      </trkpt>
      <trkpt lat="41.08467" lon="19.99622">
        <ele>154.48721</ele>
        <time>2022-05-03T08:12:25.605Z</time>
      </trkpt>
      <trkpt lat="41.08462" lon="19.99608">
        <ele>154.935134</ele>
        <time>2022-05-03T08:12:28.646Z</time>
      </trkpt>
      <trkpt lat="41.08457" lon="19.99595">
        <ele>155.36187</ele>
        <time>2022-05-03T08:12:31.604Z</time>
      </trkpt>
      <trkpt lat="41.08452" lon="19.99581">
        <ele>155.792097</ele>
        <time>2022-05-03T08:12:34.650Z</time>
      </trkpt>
      <trkpt lat="41.08446" lon="19.99569">
        <ele>156.194597</ele>
        <time>2022-05-03T08:12:37.625Z</time>
      </trkpt>
      <trkpt lat="41.08441" lon="19.99556">
        <ele>156.61288</ele>
        <time>2022-05-03T08:12:40.607Z</time>
      </trkpt>
      <trkpt lat="41.08436" lon="19.99542">
        <ele>157.04044</ele>
        <time>2022-05-03T08:12:43.620Z</time>
      </trkpt>
      <trkpt lat="41.08431" lon="19.9953">
        <ele>157.435956</ele>
        <time>2022-05-03T08:12:46.619Z</time>
      </trkpt>
      <trkpt lat="41.08426" lon="19.99518">
        <ele>157.826661</ele>
        <time>2022-05-03T08:12:49.604Z</time>
      </trkpt>
      <trkpt lat="41.08422" lon="19.99506">
        <ele>158.207051</ele>
        <time>2022-05-03T08:12:52.605Z</time>
      </trkpt>
      <trkpt lat="41.08417" lon="19.99494">
        <ele>158.584333</ele>
        <time>2022-05-03T08:12:55.610Z</time>
      </trkpt>
      <trkpt lat="41.08412" lon="19.99482">
        <ele>158.967234</ele>
        <time>2022-05-03T08:12:58.620Z</time>
      </trkpt>
      <trkpt lat="41.08407" lon="19.99471">
        <ele>159.328373</ele>
        <time>2022-05-03T08:13:01.606Z</time>
      </trkpt>
      <trkpt lat="41.08402" lon="19.9946">
        <ele>159.710512</ele>
        <time>2022-05-03T08:13:04.616Z</time>
      </trkpt>
      <trkpt lat="41.08397" lon="19.99448">
        <ele>160.108165</ele>
        <time>2022-05-03T08:13:07.623Z</time>
      </trkpt>
      <trkpt lat="41.0839" lon="19.99436">
        <ele>160.506153</ele>
        <time>2022-05-03T08:13:10.615Z</time>
      </trkpt>
      <trkpt lat="41.08382" lon="19.99426">
        <ele>160.92559</ele>
        <time>2022-05-03T08:13:13.608Z</time>
      </trkpt>
      <trkpt lat="41.08374" lon="19.99416">
        <ele>160.979846</ele>
        <time>2022-05-03T08:13:16.614Z</time>
      </trkpt>
      <trkpt lat="41.08366" lon="19.99406">
        <ele>160.583631</ele>
        <time>2022-05-03T08:13:19.608Z</time>
      </trkpt>
      <trkpt lat="41.08358" lon="19.99395">
        <ele>160.181918</ele>
        <time>2022-05-03T08:13:22.624Z</time>
      </trkpt>
      <trkpt lat="41.0835" lon="19.99385">
        <ele>159.800554</ele>
        <time>2022-05-03T08:13:25.620Z</time>
      </trkpt>
      <trkpt lat="41.08341" lon="19.99375">
        <ele>159.40025</ele>
        <time>2022-05-03T08:13:28.622Z</time>
      </trkpt>
      <trkpt lat="41.08333" lon="19.99366">
        <ele>159.026864</ele>
        <time>2022-05-03T08:13:31.624Z</time>
      </trkpt>
      <trkpt lat="41.08323" lon="19.99357">
        <ele>158.613561</ele>
        <time>2022-05-03T08:13:34.617Z</time>
      </trkpt>
      <trkpt lat="41.08313" lon="19.99348">
        <ele>158.194396</ele>
        <time>2022-05-03T08:13:37.632Z</time>
      </trkpt>
      <trkpt lat="41.08302" lon="19.9934">
        <ele>157.74737</ele>
        <time>2022-05-03T08:13:40.634Z</time>
      </trkpt>
      <trkpt lat="41.08294" lon="19.99333">
        <ele>157.41972</ele>
        <time>2022-05-03T08:13:42.615Z</time>
      </trkpt>
      <trkpt lat="41.08286" lon="19.99325">
        <ele>157.067485</ele>
        <time>2022-05-03T08:13:44.620Z</time>
      </trkpt>
      <trkpt lat="41.08278" lon="19.99317">
        <ele>156.71479</ele>
        <time>2022-05-03T08:13:46.645Z</time>
      </trkpt>
      <trkpt lat="41.0827" lon="19.99309">
        <ele>156.362239</ele>
        <time>2022-05-03T08:13:48.640Z</time>
      </trkpt>
      <trkpt lat="41.08262" lon="19.99299">
        <ele>155.978338</ele>
        <time>2022-05-03T08:13:50.600Z</time>
      </trkpt>
      <trkpt lat="41.08254" lon="19.99289">
        <ele>155.589322</ele>
        <time>2022-05-03T08:13:52.618Z</time>
      </trkpt>
      <trkpt lat="41.08246" lon="19.99278">
        <ele>155.196884</ele>
        <time>2022-05-03T08:13:54.613Z</time>
      </trkpt>
      <trkpt lat="41.08238" lon="19.99267">
        <ele>154.783636</ele>
        <time>2022-05-03T08:13:56.615Z</time>
      </trkpt>
      <trkpt lat="41.0823" lon="19.99255">
        <ele>154.388964</ele>
        <time>2022-05-03T08:13:58.601Z</time>
      </trkpt>
      <trkpt lat="41.08221" lon="19.99243">
        <ele>153.988146</ele>
        <time>2022-05-03T08:14:00.600Z</time>
      </trkpt>
      <trkpt lat="41.08212" lon="19.99231">
        <ele>153.583624</ele>
        <time>2022-05-03T08:14:02.631Z</time>
      </trkpt>
      <trkpt lat="41.08203" lon="19.99219">
        <ele>153.170169</ele>
        <time>2022-05-03T08:14:04.607Z</time>
      </trkpt>
      <trkpt lat="41.08193" lon="19.99208">
        <ele>152.75188</ele>
        <time>2022-05-03T08:14:06.606Z</time>
      </trkpt>
      <trkpt lat="41.08182" lon="19.99197">
        <ele>152.320246</ele>
        <time>2022-05-03T08:14:08.620Z</time>
      </trkpt>
      <trkpt lat="41.08171" lon="19.99186">
        <ele>151.872977</ele>
        <time>2022-05-03T08:14:10.660Z</time>
      </trkpt>
      <trkpt lat="41.0816" lon="19.99174">
        <ele>151.417656</ele>
        <time>2022-05-03T08:14:12.617Z</time>
      </trkpt>
      <trkpt lat="41.08149" lon="19.99162">
        <ele>150.960731</ele>
        <time>2022-05-03T08:14:14.616Z</time>
      </trkpt>
      <trkpt lat="41.08138" lon="19.99149">
        <ele>150.491921</ele>
        <time>2022-05-03T08:14:16.643Z</time>
      </trkpt>
      <trkpt lat="41.08127" lon="19.99136">
        <ele>150.008629</ele>
        <time>2022-05-03T08:14:18.611Z</time>
      </trkpt>
      <trkpt lat="41.08116" lon="19.99122">
        <ele>149.515559</ele>
        <time>2022-05-03T08:14:20.620Z</time>
      </trkpt>
      <trkpt lat="41.08106" lon="19.99107">
        <ele>149.057731</ele>
        <time>2022-05-03T08:14:22.617Z</time>
      </trkpt>
      <trkpt lat="41.08095" lon="19.99091">
        <ele>148.851489</ele>
        <time>2022-05-03T08:14:24.621Z</time>
      </trkpt>
      <trkpt lat="41.08086" lon="19.99073">
        <ele>148.641691</ele>
        <time>2022-05-03T08:14:26.653Z</time>
      </trkpt>
      <trkpt lat="41.08076" lon="19.99056">
        <ele>148.437255</ele>
        <time>2022-05-03T08:14:28.624Z</time>
      </trkpt>
      <trkpt lat="41.08067" lon="19.9904">
        <ele>148.235995</ele>
        <time>2022-05-03T08:14:30.645Z</time>
      </trkpt>
      <trkpt lat="41.08057" lon="19.99025">
        <ele>148.038543</ele>
        <time>2022-05-03T08:14:32.615Z</time>
      </trkpt>
      <trkpt lat="41.08046" lon="19.99011">
        <ele>147.839677</ele>
        <time>2022-05-03T08:14:34.620Z</time>
      </trkpt>
      <trkpt lat="41.08034" lon="19.98998">
        <ele>147.646796</ele>
        <time>2022-05-03T08:14:36.619Z</time>
      </trkpt>
      <trkpt lat="41.08022" lon="19.98987">
        <ele>147.456038</ele>
        <time>2022-05-03T08:14:38.618Z</time>
      </trkpt>
      <trkpt lat="41.0801" lon="19.98976">
        <ele>147.266543</ele>
        <time>2022-05-03T08:14:40.625Z</time>
      </trkpt>
      <trkpt lat="41.07998" lon="19.98967">
        <ele>147.082132</ele>
        <time>2022-05-03T08:14:42.625Z</time>
      </trkpt>
      <trkpt lat="41.07985" lon="19.98959">
        <ele>146.897667</ele>
        <time>2022-05-03T08:14:44.624Z</time>
      </trkpt>
      <trkpt lat="41.07971" lon="19.98952">
        <ele>146.622161</ele>
        <time>2022-05-03T08:14:46.629Z</time>
      </trkpt>
      <trkpt lat="41.07957" lon="19.98946">
        <ele>146.083257</ele>
        <time>2022-05-03T08:14:48.605Z</time>
      </trkpt>
      <trkpt lat="41.07943" lon="19.98939">
        <ele>145.560168</ele>
        <time>2022-05-03T08:14:50.617Z</time>
      </trkpt>
      <trkpt lat="41.0793" lon="19.98932">
        <ele>145.052133</ele>
        <time>2022-05-03T08:14:52.601Z</time>
      </trkpt>
      <trkpt lat="41.07917" lon="19.98923">
        <ele>144.542607</ele>
        <time>2022-05-03T08:14:54.641Z</time>
      </trkpt>
      <trkpt lat="41.07905" lon="19.98914">
        <ele>144.051416</ele>
        <time>2022-05-03T08:14:56.595Z</time>
      </trkpt>
      <trkpt lat="41.07893" lon="19.98904">
        <ele>143.554432</ele>
        <time>2022-05-03T08:14:58.612Z</time>
      </trkpt>
      <trkpt lat="41.07881" lon="19.98895">
        <ele>143.072197</ele>
        <time>2022-05-03T08:15:00.609Z</time>
      </trkpt>
      <trkpt lat="41.0787" lon="19.98885">
        <ele>142.584097</ele>
        <time>2022-05-03T08:15:02.618Z</time>
      </trkpt>
      <trkpt lat="41.07859" lon="19.98876">
        <ele>142.120741</ele>
        <time>2022-05-03T08:15:04.615Z</time>
      </trkpt>
      <trkpt lat="41.07848" lon="19.98868">
        <ele>141.661815</ele>
        <time>2022-05-03T08:15:06.605Z</time>
      </trkpt>
      <trkpt lat="41.07836" lon="19.98858">
        <ele>141.188611</ele>
        <time>2022-05-03T08:15:08.612Z</time>
      </trkpt>
      <trkpt lat="41.07825" lon="19.98849">
        <ele>140.706375</ele>
        <time>2022-05-03T08:15:10.600Z</time>
      </trkpt>
      <trkpt lat="41.07814" lon="19.98839">
        <ele>140.26771</ele>
        <time>2022-05-03T08:15:12.659Z</time>
      </trkpt>
      <trkpt lat="41.07803" lon="19.98828">
        <ele>139.920749</ele>
        <time>2022-05-03T08:15:14.591Z</time>
      </trkpt>
      <trkpt lat="41.07792" lon="19.98815">
        <ele>139.56223</ele>
        <time>2022-05-03T08:15:16.667Z</time>
      </trkpt>
      <trkpt lat="41.07781" lon="19.98803">
        <ele>139.204965</ele>
        <time>2022-05-03T08:15:18.619Z</time>
      </trkpt>
      <trkpt lat="41.07771" lon="19.98789">
        <ele>138.84485</ele>
        <time>2022-05-03T08:15:20.618Z</time>
      </trkpt>
      <trkpt lat="41.07761" lon="19.98776">
        <ele>138.484735</ele>
        <time>2022-05-03T08:15:22.607Z</time>
      </trkpt>
      <trkpt lat="41.0775" lon="19.98763">
        <ele>138.124129</ele>
        <time>2022-05-03T08:15:24.611Z</time>
      </trkpt>
      <trkpt lat="41.0774" lon="19.98749">
        <ele>137.764013</ele>
        <time>2022-05-03T08:15:26.614Z</time>
      </trkpt>
      <trkpt lat="41.0773" lon="19.98736">
        <ele>137.399466</ele>
        <time>2022-05-03T08:15:28.606Z</time>
      </trkpt>
      <trkpt lat="41.0772" lon="19.98723">
        <ele>137.050814</ele>
        <time>2022-05-03T08:15:30.663Z</time>
      </trkpt>
      <trkpt lat="41.07709" lon="19.98711">
        <ele>136.70925</ele>
        <time>2022-05-03T08:15:32.621Z</time>
      </trkpt>
      <trkpt lat="41.07699" lon="19.987">
        <ele>136.37644</ele>
        <time>2022-05-03T08:15:34.609Z</time>
      </trkpt>
      <trkpt lat="41.07689" lon="19.98689">
        <ele>136.045156</ele>
        <time>2022-05-03T08:15:36.614Z</time>
      </trkpt>
      <trkpt lat="41.07679" lon="19.98677">
        <ele>135.767238</ele>
        <time>2022-05-03T08:15:38.644Z</time>
      </trkpt>
      <trkpt lat="41.07668" lon="19.98666">
        <ele>135.57224</ele>
        <time>2022-05-03T08:15:40.587Z</time>
      </trkpt>
      <trkpt lat="41.07657" lon="19.98656">
        <ele>135.378403</ele>
        <time>2022-05-03T08:15:42.618Z</time>
      </trkpt>
      <trkpt lat="41.07647" lon="19.98646">
        <ele>135.190623</ele>
        <time>2022-05-03T08:15:44.619Z</time>
      </trkpt>
      <trkpt lat="41.07636" lon="19.98637">
        <ele>135.005273</ele>
        <time>2022-05-03T08:15:46.611Z</time>
      </trkpt>
      <trkpt lat="41.07626" lon="19.98628">
        <ele>134.826565</ele>
        <time>2022-05-03T08:15:48.619Z</time>
      </trkpt>
      <trkpt lat="41.07616" lon="19.9862">
        <ele>134.657455</ele>
        <time>2022-05-03T08:15:50.621Z</time>
      </trkpt>
      <trkpt lat="41.07606" lon="19.98613">
        <ele>134.498925</ele>
        <time>2022-05-03T08:15:52.604Z</time>
      </trkpt>
      <trkpt lat="41.07596" lon="19.98606">
        <ele>134.339353</ele>
        <time>2022-05-03T08:15:54.603Z</time>
      </trkpt>
      <trkpt lat="41.07586" lon="19.98601">
        <ele>134.18116</ele>
        <time>2022-05-03T08:15:56.612Z</time>
      </trkpt>
      <trkpt lat="41.07576" lon="19.98597">
        <ele>134.026412</ele>
        <time>2022-05-03T08:15:58.608Z</time>
      </trkpt>
      <trkpt lat="41.07566" lon="19.98594">
        <ele>133.872202</ele>
        <time>2022-05-03T08:16:00.598Z</time>
      </trkpt>
      <trkpt lat="41.07556" lon="19.98592">
        <ele>133.72567</ele>
        <time>2022-05-03T08:16:02.609Z</time>
      </trkpt>
      <trkpt lat="41.07546" lon="19.98591">
        <ele>133.586144</ele>
        <time>2022-05-03T08:16:04.619Z</time>
      </trkpt>
      <trkpt lat="41.07537" lon="19.98591">
        <ele>133.451177</ele>
        <time>2022-05-03T08:16:06.618Z</time>
      </trkpt>
      <trkpt lat="41.07523" lon="19.98593">
        <ele>133.258909</ele>
        <time>2022-05-03T08:16:09.626Z</time>
      </trkpt>
      <trkpt lat="41.07514" lon="19.98595">
        <ele>133.258729</ele>
        <time>2022-05-03T08:16:11.642Z</time>
      </trkpt>
      <trkpt lat="41.07501" lon="19.98598">
        <ele>133.286037</ele>
        <time>2022-05-03T08:16:14.607Z</time>
      </trkpt>
      <trkpt lat="41.07491" lon="19.98603">
        <ele>133.307062</ele>
        <time>2022-05-03T08:16:16.600Z</time>
      </trkpt>
      <trkpt lat="41.07482" lon="19.98607">
        <ele>133.32844</ele>
        <time>2022-05-03T08:16:18.605Z</time>
      </trkpt>
      <trkpt lat="41.07472" lon="19.9861">
        <ele>133.348999</ele>
        <time>2022-05-03T08:16:20.618Z</time>
      </trkpt>
      <trkpt lat="41.07462" lon="19.98613">
        <ele>133.370118</ele>
        <time>2022-05-03T08:16:22.656Z</time>
      </trkpt>
      <trkpt lat="41.07452" lon="19.98615">
        <ele>133.391846</ele>
        <time>2022-05-03T08:16:24.626Z</time>
      </trkpt>
      <trkpt lat="41.07441" lon="19.98617">
        <ele>133.413988</ele>
        <time>2022-05-03T08:16:26.603Z</time>
      </trkpt>
      <trkpt lat="41.07431" lon="19.98618">
        <ele>133.435371</ele>
        <time>2022-05-03T08:16:28.655Z</time>
      </trkpt>
      <trkpt lat="41.07422" lon="19.98617">
        <ele>133.455432</ele>
        <time>2022-05-03T08:16:30.600Z</time>
      </trkpt>
      <trkpt lat="41.07412" lon="19.98616">
        <ele>133.476333</ele>
        <time>2022-05-03T08:16:32.606Z</time>
      </trkpt>
      <trkpt lat="41.07401" lon="19.98612">
        <ele>133.49864</ele>
        <time>2022-05-03T08:16:34.590Z</time>
      </trkpt>
      <trkpt lat="41.07392" lon="19.98609">
        <ele>133.519284</ele>
        <time>2022-05-03T08:16:36.613Z</time>
      </trkpt>
      <trkpt lat="41.07383" lon="19.98604">
        <ele>133.5393</ele>
        <time>2022-05-03T08:16:38.617Z</time>
      </trkpt>
      <trkpt lat="41.07374" lon="19.98599">
        <ele>133.559429</ele>
        <time>2022-05-03T08:16:40.612Z</time>
      </trkpt>
      <trkpt lat="41.07365" lon="19.98593">
        <ele>133.580619</ele>
        <time>2022-05-03T08:16:42.612Z</time>
      </trkpt>
      <trkpt lat="41.07356" lon="19.98586">
        <ele>133.602001</ele>
        <time>2022-05-03T08:16:44.616Z</time>
      </trkpt>
      <trkpt lat="41.07348" lon="19.98579">
        <ele>133.614712</ele>
        <time>2022-05-03T08:16:46.617Z</time>
      </trkpt>
      <trkpt lat="41.07341" lon="19.9857">
        <ele>133.607171</ele>
        <time>2022-05-03T08:16:48.619Z</time>
      </trkpt>
      <trkpt lat="41.07333" lon="19.98562">
        <ele>133.599482</ele>
        <time>2022-05-03T08:16:50.625Z</time>
      </trkpt>
      <trkpt lat="41.07325" lon="19.98553">
        <ele>133.591888</ele>
        <time>2022-05-03T08:16:52.615Z</time>
      </trkpt>
      <trkpt lat="41.07318" lon="19.98543">
        <ele>133.583991</ele>
        <time>2022-05-03T08:16:54.632Z</time>
      </trkpt>
      <trkpt lat="41.07312" lon="19.98532">
        <ele>133.576282</ele>
        <time>2022-05-03T08:16:56.618Z</time>
      </trkpt>
      <trkpt lat="41.07305" lon="19.98521">
        <ele>133.568313</ele>
        <time>2022-05-03T08:16:58.616Z</time>
      </trkpt>
      <trkpt lat="41.07301" lon="19.9851">
        <ele>133.560839</ele>
        <time>2022-05-03T08:17:00.598Z</time>
      </trkpt>
      <trkpt lat="41.07297" lon="19.98497">
        <ele>133.55334</ele>
        <time>2022-05-03T08:17:02.722Z</time>
      </trkpt>
      <trkpt lat="41.07293" lon="19.98485">
        <ele>133.545678</ele>
        <time>2022-05-03T08:17:04.604Z</time>
      </trkpt>
      <trkpt lat="41.0729" lon="19.98473">
        <ele>133.538336</ele>
        <time>2022-05-03T08:17:06.617Z</time>
      </trkpt>
      <trkpt lat="41.07285" lon="19.98457">
        <ele>133.528631</ele>
        <time>2022-05-03T08:17:09.624Z</time>
      </trkpt>
      <trkpt lat="41.07279" lon="19.98442">
        <ele>133.51888</ele>
        <time>2022-05-03T08:17:12.648Z</time>
      </trkpt>
      <trkpt lat="41.07273" lon="19.98427">
        <ele>133.509448</ele>
        <time>2022-05-03T08:17:15.606Z</time>
      </trkpt>
      <trkpt lat="41.07268" lon="19.98417">
        <ele>133.502406</ele>
        <time>2022-05-03T08:17:17.603Z</time>
      </trkpt>
      <trkpt lat="41.07263" lon="19.98407">
        <ele>133.495289</ele>
        <time>2022-05-03T08:17:19.614Z</time>
      </trkpt>
      <trkpt lat="41.07258" lon="19.98396">
        <ele>133.488125</ele>
        <time>2022-05-03T08:17:21.596Z</time>
      </trkpt>
      <trkpt lat="41.07252" lon="19.98386">
        <ele>133.481109</ele>
        <time>2022-05-03T08:17:23.597Z</time>
      </trkpt>
      <trkpt lat="41.07246" lon="19.98378">
        <ele>133.182883</ele>
        <time>2022-05-03T08:17:25.641Z</time>
      </trkpt>
      <trkpt lat="41.07235" lon="19.98367">
        <ele>132.70725</ele>
        <time>2022-05-03T08:17:28.598Z</time>
      </trkpt>
      <trkpt lat="41.07227" lon="19.9836">
        <ele>132.365507</ele>
        <time>2022-05-03T08:17:30.595Z</time>
      </trkpt>
      <trkpt lat="41.07219" lon="19.98353">
        <ele>132.031104</ele>
        <time>2022-05-03T08:17:32.606Z</time>
      </trkpt>
      <trkpt lat="41.07211" lon="19.98347">
        <ele>131.706886</ele>
        <time>2022-05-03T08:17:34.616Z</time>
      </trkpt>
      <trkpt lat="41.07203" lon="19.98341">
        <ele>131.37448</ele>
        <time>2022-05-03T08:17:36.615Z</time>
      </trkpt>
      <trkpt lat="41.07195" lon="19.98335">
        <ele>131.03327</ele>
        <time>2022-05-03T08:17:38.596Z</time>
      </trkpt>
      <trkpt lat="41.07185" lon="19.98329">
        <ele>130.664532</ele>
        <time>2022-05-03T08:17:40.621Z</time>
      </trkpt>
      <trkpt lat="41.07176" lon="19.98322">
        <ele>130.297029</ele>
        <time>2022-05-03T08:17:42.610Z</time>
      </trkpt>
      <trkpt lat="41.07168" lon="19.98316">
        <ele>129.950488</ele>
        <time>2022-05-03T08:17:44.593Z</time>
      </trkpt>
      <trkpt lat="41.0716" lon="19.98309">
        <ele>129.614544</ele>
        <time>2022-05-03T08:17:46.647Z</time>
      </trkpt>
      <trkpt lat="41.07153" lon="19.98301">
        <ele>129.285604</ele>
        <time>2022-05-03T08:17:48.600Z</time>
      </trkpt>
      <trkpt lat="41.07145" lon="19.98292">
        <ele>128.937186</ele>
        <time>2022-05-03T08:17:50.608Z</time>
      </trkpt>
      <trkpt lat="41.07138" lon="19.98284">
        <ele>128.600018</ele>
        <time>2022-05-03T08:17:52.593Z</time>
      </trkpt>
      <trkpt lat="41.07131" lon="19.98277">
        <ele>128.269456</ele>
        <time>2022-05-03T08:17:54.606Z</time>
      </trkpt>
      <trkpt lat="41.07121" lon="19.98266">
        <ele>127.813415</ele>
        <time>2022-05-03T08:17:57.646Z</time>
      </trkpt>
      <trkpt lat="41.07112" lon="19.98256">
        <ele>127.402844</ele>
        <time>2022-05-03T08:18:00.614Z</time>
      </trkpt>
      <trkpt lat="41.07103" lon="19.98247">
        <ele>127.190659</ele>
        <time>2022-05-03T08:18:03.607Z</time>
      </trkpt>
      <trkpt lat="41.07094" lon="19.98236">
        <ele>127.608121</ele>
        <time>2022-05-03T08:18:06.616Z</time>
      </trkpt>
      <trkpt lat="41.07085" lon="19.98225">
        <ele>128.04647</ele>
        <time>2022-05-03T08:18:09.620Z</time>
      </trkpt>
      <trkpt lat="41.07076" lon="19.98214">
        <ele>128.477563</ele>
        <time>2022-05-03T08:18:12.602Z</time>
      </trkpt>
      <trkpt lat="41.07068" lon="19.98202">
        <ele>128.891611</ele>
        <time>2022-05-03T08:18:15.636Z</time>
      </trkpt>
      <trkpt lat="41.0706" lon="19.9819">
        <ele>129.305618</ele>
        <time>2022-05-03T08:18:18.619Z</time>
      </trkpt>
      <trkpt lat="41.07053" lon="19.98177">
        <ele>129.721639</ele>
        <time>2022-05-03T08:18:21.602Z</time>
      </trkpt>
      <trkpt lat="41.07047" lon="19.98165">
        <ele>130.104074</ele>
        <time>2022-05-03T08:18:24.618Z</time>
      </trkpt>
      <trkpt lat="41.0704" lon="19.98153">
        <ele>130.492742</ele>
        <time>2022-05-03T08:18:27.627Z</time>
      </trkpt>
      <trkpt lat="41.07033" lon="19.98142">
        <ele>130.873713</ele>
        <time>2022-05-03T08:18:30.631Z</time>
      </trkpt>
      <trkpt lat="41.07026" lon="19.98131">
        <ele>131.265863</ele>
        <time>2022-05-03T08:18:33.623Z</time>
      </trkpt>
      <trkpt lat="41.07018" lon="19.98122">
        <ele>131.642331</ele>
        <time>2022-05-03T08:18:36.665Z</time>
      </trkpt>
      <trkpt lat="41.07009" lon="19.98112">
        <ele>132.037985</ele>
        <time>2022-05-03T08:18:39.603Z</time>
      </trkpt>
      <trkpt lat="41.07" lon="19.98103">
        <ele>132.442845</ele>
        <time>2022-05-03T08:18:42.652Z</time>
      </trkpt>
      <trkpt lat="41.0699" lon="19.98093">
        <ele>132.853321</ele>
        <time>2022-05-03T08:18:45.606Z</time>
      </trkpt>
      <trkpt lat="41.0698" lon="19.98085">
        <ele>133.282588</ele>
        <time>2022-05-03T08:18:48.594Z</time>
      </trkpt>
      <trkpt lat="41.0697" lon="19.98075">
        <ele>133.200788</ele>
        <time>2022-05-03T08:18:51.642Z</time>
      </trkpt>
      <trkpt lat="41.06958" lon="19.98066">
        <ele>132.977917</ele>
        <time>2022-05-03T08:18:54.658Z</time>
      </trkpt>
      <trkpt lat="41.0695" lon="19.9806">
        <ele>132.822121</ele>
        <time>2022-05-03T08:18:56.601Z</time>
      </trkpt>
      <trkpt lat="41.06942" lon="19.98053">
        <ele>132.659082</ele>
        <time>2022-05-03T08:18:58.614Z</time>
      </trkpt>
      <trkpt lat="41.06933" lon="19.98046">
        <ele>132.487531</ele>
        <time>2022-05-03T08:19:00.636Z</time>
      </trkpt>
      <trkpt lat="41.06925" lon="19.98039">
        <ele>132.322438</ele>
        <time>2022-05-03T08:19:02.612Z</time>
      </trkpt>
      <trkpt lat="41.06917" lon="19.98032">
        <ele>132.153761</ele>
        <time>2022-05-03T08:19:04.629Z</time>
      </trkpt>
      <trkpt lat="41.06908" lon="19.98025">
        <ele>131.98221</ele>
        <time>2022-05-03T08:19:06.595Z</time>
      </trkpt>
      <trkpt lat="41.06895" lon="19.98015">
        <ele>131.727391</ele>
        <time>2022-05-03T08:19:09.612Z</time>
      </trkpt>
      <trkpt lat="41.06884" lon="19.98007">
        <ele>131.517103</ele>
        <time>2022-05-03T08:19:11.612Z</time>
      </trkpt>
      <trkpt lat="41.06873" lon="19.97999">
        <ele>131.3089</ele>
        <time>2022-05-03T08:19:13.616Z</time>
      </trkpt>
      <trkpt lat="41.06862" lon="19.97992">
        <ele>131.104172</ele>
        <time>2022-05-03T08:19:15.617Z</time>
      </trkpt>
      <trkpt lat="41.06851" lon="19.97984">
        <ele>130.893883</ele>
        <time>2022-05-03T08:19:17.658Z</time>
      </trkpt>
      <trkpt lat="41.0684" lon="19.97976">
        <ele>130.68177</ele>
        <time>2022-05-03T08:19:19.606Z</time>
      </trkpt>
      <trkpt lat="41.06829" lon="19.97968">
        <ele>130.470271</ele>
        <time>2022-05-03T08:19:21.608Z</time>
      </trkpt>
      <trkpt lat="41.06818" lon="19.9796">
        <ele>130.217547</ele>
        <time>2022-05-03T08:19:23.653Z</time>
      </trkpt>
      <trkpt lat="41.06807" lon="19.97952">
        <ele>129.893095</ele>
        <time>2022-05-03T08:19:25.630Z</time>
      </trkpt>
      <trkpt lat="41.06795" lon="19.97944">
        <ele>129.574863</ele>
        <time>2022-05-03T08:19:27.612Z</time>
      </trkpt>
      <trkpt lat="41.06785" lon="19.97937">
        <ele>129.268621</ele>
        <time>2022-05-03T08:19:29.591Z</time>
      </trkpt>
      <trkpt lat="41.06774" lon="19.9793">
        <ele>128.972988</ele>
        <time>2022-05-03T08:19:31.619Z</time>
      </trkpt>
      <trkpt lat="41.06763" lon="19.97922">
        <ele>128.662718</ele>
        <time>2022-05-03T08:19:33.621Z</time>
      </trkpt>
      <trkpt lat="41.06753" lon="19.97913">
        <ele>128.352088</ele>
        <time>2022-05-03T08:19:35.599Z</time>
      </trkpt>
      <trkpt lat="41.06743" lon="19.97905">
        <ele>128.051233</ele>
        <time>2022-05-03T08:19:37.593Z</time>
      </trkpt>
      <trkpt lat="41.06734" lon="19.97895">
        <ele>127.762234</ele>
        <time>2022-05-03T08:19:39.631Z</time>
      </trkpt>
      <trkpt lat="41.06726" lon="19.97886">
        <ele>127.496509</ele>
        <time>2022-05-03T08:19:41.609Z</time>
      </trkpt>
      <trkpt lat="41.06718" lon="19.97877">
        <ele>127.236982</ele>
        <time>2022-05-03T08:19:43.621Z</time>
      </trkpt>
      <trkpt lat="41.06711" lon="19.97869">
        <ele>126.993184</ele>
        <time>2022-05-03T08:19:45.640Z</time>
      </trkpt>
      <trkpt lat="41.06703" lon="19.97861">
        <ele>126.751957</ele>
        <time>2022-05-03T08:19:47.606Z</time>
      </trkpt>
      <trkpt lat="41.06696" lon="19.97853">
        <ele>126.523885</ele>
        <time>2022-05-03T08:19:49.612Z</time>
      </trkpt>
      <trkpt lat="41.06687" lon="19.97842">
        <ele>126.204739</ele>
        <time>2022-05-03T08:19:52.615Z</time>
      </trkpt>
      <trkpt lat="41.0668" lon="19.97833">
        <ele>125.976679</ele>
        <time>2022-05-03T08:19:54.639Z</time>
      </trkpt>
      <trkpt lat="41.06673" lon="19.97825">
        <ele>125.795496</ele>
        <time>2022-05-03T08:19:56.604Z</time>
      </trkpt>
      <trkpt lat="41.06666" lon="19.97817">
        <ele>125.730795</ele>
        <time>2022-05-03T08:19:58.610Z</time>
      </trkpt>
      <trkpt lat="41.06659" lon="19.97809">
        <ele>125.667282</ele>
        <time>2022-05-03T08:20:00.626Z</time>
      </trkpt>
      <trkpt lat="41.06652" lon="19.97801">
        <ele>125.605293</ele>
        <time>2022-05-03T08:20:02.603Z</time>
      </trkpt>
      <trkpt lat="41.06645" lon="19.97792">
        <ele>125.541945</ele>
        <time>2022-05-03T08:20:04.613Z</time>
      </trkpt>
      <trkpt lat="41.06639" lon="19.97784">
        <ele>125.4791</ele>
        <time>2022-05-03T08:20:06.622Z</time>
      </trkpt>
      <trkpt lat="41.06629" lon="19.97772">
        <ele>125.388754</ele>
        <time>2022-05-03T08:20:09.611Z</time>
      </trkpt>
      <trkpt lat="41.06619" lon="19.97761">
        <ele>125.300595</ele>
        <time>2022-05-03T08:20:12.610Z</time>
      </trkpt>
      <trkpt lat="41.06608" lon="19.9775">
        <ele>125.209491</ele>
        <time>2022-05-03T08:20:15.609Z</time>
      </trkpt>
      <trkpt lat="41.06598" lon="19.9774">
        <ele>125.120981</ele>
        <time>2022-05-03T08:20:18.614Z</time>
      </trkpt>
      <trkpt lat="41.06586" lon="19.9773">
        <ele>125.027744</ele>
        <time>2022-05-03T08:20:21.613Z</time>
      </trkpt>
      <trkpt lat="41.06578" lon="19.97723">
        <ele>124.960578</ele>
        <time>2022-05-03T08:20:23.598Z</time>
      </trkpt>
      <trkpt lat="41.06569" lon="19.97716">
        <ele>124.887603</ele>
        <time>2022-05-03T08:20:25.636Z</time>
      </trkpt>
      <trkpt lat="41.06559" lon="19.97709">
        <ele>124.814671</ele>
        <time>2022-05-03T08:20:27.662Z</time>
      </trkpt>
      <trkpt lat="41.06549" lon="19.97703">
        <ele>124.739087</ele>
        <time>2022-05-03T08:20:29.616Z</time>
      </trkpt>
      <trkpt lat="41.0654" lon="19.97697">
        <ele>124.668365</ele>
        <time>2022-05-03T08:20:31.610Z</time>
      </trkpt>
      <trkpt lat="41.0653" lon="19.97691">
        <ele>124.595761</ele>
        <time>2022-05-03T08:20:33.601Z</time>
      </trkpt>
      <trkpt lat="41.0652" lon="19.97686">
        <ele>124.292625</ele>
        <time>2022-05-03T08:20:35.615Z</time>
      </trkpt>
      <trkpt lat="41.06509" lon="19.97682">
        <ele>123.966979</ele>
        <time>2022-05-03T08:20:37.610Z</time>
      </trkpt>
      <trkpt lat="41.06498" lon="19.97677">
        <ele>123.630296</ele>
        <time>2022-05-03T08:20:39.611Z</time>
      </trkpt>
      <trkpt lat="41.06487" lon="19.97673">
        <ele>123.291492</ele>
        <time>2022-05-03T08:20:41.600Z</time>
      </trkpt>
      <trkpt lat="41.06475" lon="19.9767">
        <ele>122.949538</ele>
        <time>2022-05-03T08:20:43.615Z</time>
      </trkpt>
      <trkpt lat="41.06463" lon="19.97668">
        <ele>122.605771</ele>
        <time>2022-05-03T08:20:45.610Z</time>
      </trkpt>
      <trkpt lat="41.06451" lon="19.97666">
        <ele>122.248036</ele>
        <time>2022-05-03T08:20:47.612Z</time>
      </trkpt>
      <trkpt lat="41.06439" lon="19.97664">
        <ele>121.897546</ele>
        <time>2022-05-03T08:20:49.595Z</time>
      </trkpt>
      <trkpt lat="41.06427" lon="19.97663">
        <ele>121.545091</ele>
        <time>2022-05-03T08:20:51.642Z</time>
      </trkpt>
      <trkpt lat="41.06414" lon="19.97663">
        <ele>121.190459</ele>
        <time>2022-05-03T08:20:53.655Z</time>
      </trkpt>
      <trkpt lat="41.06401" lon="19.97662">
        <ele>120.818328</ele>
        <time>2022-05-03T08:20:55.611Z</time>
      </trkpt>
      <trkpt lat="41.06388" lon="19.97661">
        <ele>120.440587</ele>
        <time>2022-05-03T08:20:57.598Z</time>
      </trkpt>
      <trkpt lat="41.06375" lon="19.97661">
        <ele>120.068609</ele>
        <time>2022-05-03T08:20:59.610Z</time>
      </trkpt>
      <trkpt lat="41.06362" lon="19.9766">
        <ele>119.696631</ele>
        <time>2022-05-03T08:21:01.602Z</time>
      </trkpt>
      <trkpt lat="41.0635" lon="19.9766">
        <ele>119.344516</ele>
        <time>2022-05-03T08:21:03.611Z</time>
      </trkpt>
      <trkpt lat="41.06337" lon="19.9766">
        <ele>119.057041</ele>
        <time>2022-05-03T08:21:05.611Z</time>
      </trkpt>
      <trkpt lat="41.06325" lon="19.9766">
        <ele>118.771665</ele>
        <time>2022-05-03T08:21:07.613Z</time>
      </trkpt>
      <trkpt lat="41.06312" lon="19.97659">
        <ele>118.490908</ele>
        <time>2022-05-03T08:21:09.623Z</time>
      </trkpt>
      <trkpt lat="41.063" lon="19.97658">
        <ele>118.205201</ele>
        <time>2022-05-03T08:21:11.611Z</time>
      </trkpt>
      <trkpt lat="41.06288" lon="19.97656">
        <ele>117.93153</ele>
        <time>2022-05-03T08:21:13.610Z</time>
      </trkpt>
      <trkpt lat="41.06276" lon="19.97654">
        <ele>117.663674</ele>
        <time>2022-05-03T08:21:15.609Z</time>
      </trkpt>
      <trkpt lat="41.06264" lon="19.97652">
        <ele>117.389782</ele>
        <time>2022-05-03T08:21:17.624Z</time>
      </trkpt>
      <trkpt lat="41.06253" lon="19.9765">
        <ele>117.124693</ele>
        <time>2022-05-03T08:21:19.620Z</time>
      </trkpt>
      <trkpt lat="41.06242" lon="19.97646">
        <ele>116.875471</ele>
        <time>2022-05-03T08:21:21.656Z</time>
      </trkpt>
      <trkpt lat="41.06233" lon="19.97643">
        <ele>116.646121</ele>
        <time>2022-05-03T08:21:23.612Z</time>
      </trkpt>
      <trkpt lat="41.06224" lon="19.97639">
        <ele>116.431146</ele>
        <time>2022-05-03T08:21:25.620Z</time>
      </trkpt>
      <trkpt lat="41.06211" lon="19.97632">
        <ele>116.127116</ele>
        <time>2022-05-03T08:21:28.610Z</time>
      </trkpt>
      <trkpt lat="41.06203" lon="19.97627">
        <ele>115.91279</ele>
        <time>2022-05-03T08:21:30.609Z</time>
      </trkpt>
      <trkpt lat="41.06194" lon="19.97622">
        <ele>115.704088</ele>
        <time>2022-05-03T08:21:32.658Z</time>
      </trkpt>
      <trkpt lat="41.06185" lon="19.97616">
        <ele>115.47989</ele>
        <time>2022-05-03T08:21:34.620Z</time>
      </trkpt>
      <trkpt lat="41.06177" lon="19.97611">
        <ele>115.297118</ele>
        <time>2022-05-03T08:21:36.614Z</time>
      </trkpt>
      <trkpt lat="41.06169" lon="19.97604">
        <ele>115.260671</ele>
        <time>2022-05-03T08:21:38.644Z</time>
      </trkpt>
      <trkpt lat="41.06157" lon="19.97595">
        <ele>115.210113</ele>
        <time>2022-05-03T08:21:41.615Z</time>
      </trkpt>
      <trkpt lat="41.06146" lon="19.97587">
        <ele>115.162308</ele>
        <time>2022-05-03T08:21:44.612Z</time>
      </trkpt>
      <trkpt lat="41.06136" lon="19.97578">
        <ele>115.114461</ele>
        <time>2022-05-03T08:21:47.618Z</time>
      </trkpt>
      <trkpt lat="41.06125" lon="19.97569">
        <ele>115.06501</ele>
        <time>2022-05-03T08:21:50.611Z</time>
      </trkpt>
      <trkpt lat="41.06114" lon="19.9756">
        <ele>115.017019</ele>
        <time>2022-05-03T08:21:53.595Z</time>
      </trkpt>
      <trkpt lat="41.06103" lon="19.97551">
        <ele>114.966613</ele>
        <time>2022-05-03T08:21:56.614Z</time>
      </trkpt>
      <trkpt lat="41.06092" lon="19.97542">
        <ele>114.915882</ele>
        <time>2022-05-03T08:21:59.627Z</time>
      </trkpt>
      <trkpt lat="41.06084" lon="19.97536">
        <ele>114.881382</ele>
        <time>2022-05-03T08:22:01.620Z</time>
      </trkpt>
      <trkpt lat="41.06076" lon="19.97529">
        <ele>114.846589</ele>
        <time>2022-05-03T08:22:03.611Z</time>
      </trkpt>
      <trkpt lat="41.06068" lon="19.97524">
        <ele>114.81164</ele>
        <time>2022-05-03T08:22:05.623Z</time>
      </trkpt>
      <trkpt lat="41.06059" lon="19.97518">
        <ele>114.773987</ele>
        <time>2022-05-03T08:22:07.613Z</time>
      </trkpt>
      <trkpt lat="41.06051" lon="19.97512">
        <ele>114.73642</ele>
        <time>2022-05-03T08:22:09.617Z</time>
      </trkpt>
      <trkpt lat="41.06041" lon="19.97508">
        <ele>114.697102</ele>
        <time>2022-05-03T08:22:11.609Z</time>
      </trkpt>
      <trkpt lat="41.06031" lon="19.97504">
        <ele>114.657697</ele>
        <time>2022-05-03T08:22:13.630Z</time>
      </trkpt>
      <trkpt lat="41.06021" lon="19.975">
        <ele>114.61664</ele>
        <time>2022-05-03T08:22:15.609Z</time>
      </trkpt>
      <trkpt lat="41.0601" lon="19.97496">
        <ele>114.618171</ele>
        <time>2022-05-03T08:22:17.615Z</time>
      </trkpt>
      <trkpt lat="41.05998" lon="19.97493">
        <ele>114.619765</ele>
        <time>2022-05-03T08:22:19.611Z</time>
      </trkpt>
      <trkpt lat="41.05987" lon="19.97491">
        <ele>114.621397</ele>
        <time>2022-05-03T08:22:21.625Z</time>
      </trkpt>
      <trkpt lat="41.05975" lon="19.9749">
        <ele>114.623009</ele>
        <time>2022-05-03T08:22:23.646Z</time>
      </trkpt>
      <trkpt lat="41.05963" lon="19.9749">
        <ele>114.624604</ele>
        <time>2022-05-03T08:22:25.618Z</time>
      </trkpt>
      <trkpt lat="41.05952" lon="19.97491">
        <ele>114.6262</ele>
        <time>2022-05-03T08:22:27.611Z</time>
      </trkpt>
      <trkpt lat="41.0594" lon="19.97492">
        <ele>114.627853</ele>
        <time>2022-05-03T08:22:29.632Z</time>
      </trkpt>
      <trkpt lat="41.05928" lon="19.97493">
        <ele>114.629525</ele>
        <time>2022-05-03T08:22:31.608Z</time>
      </trkpt>
      <trkpt lat="41.05916" lon="19.97496">
        <ele>114.631216</ele>
        <time>2022-05-03T08:22:33.611Z</time>
      </trkpt>
      <trkpt lat="41.05903" lon="19.975">
        <ele>114.632977</ele>
        <time>2022-05-03T08:22:35.638Z</time>
      </trkpt>
      <trkpt lat="41.0589" lon="19.97503">
        <ele>114.63477</ele>
        <time>2022-05-03T08:22:37.612Z</time>
      </trkpt>
      <trkpt lat="41.05877" lon="19.97506">
        <ele>114.63659</ele>
        <time>2022-05-03T08:22:39.620Z</time>
      </trkpt>
      <trkpt lat="41.05864" lon="19.97507">
        <ele>114.638426</ele>
        <time>2022-05-03T08:22:41.626Z</time>
      </trkpt>
      <trkpt lat="41.0585" lon="19.97507">
        <ele>114.640283</ele>
        <time>2022-05-03T08:22:43.610Z</time>
      </trkpt>
      <trkpt lat="41.05837" lon="19.97506">
        <ele>114.490614</ele>
        <time>2022-05-03T08:22:45.644Z</time>
      </trkpt>
      <trkpt lat="41.05824" lon="19.97503">
        <ele>114.123374</ele>
        <time>2022-05-03T08:22:47.615Z</time>
      </trkpt>
      <trkpt lat="41.05812" lon="19.975">
        <ele>113.758612</ele>
        <time>2022-05-03T08:22:49.611Z</time>
      </trkpt>
      <trkpt lat="41.05799" lon="19.97495">
        <ele>113.374087</ele>
        <time>2022-05-03T08:22:51.600Z</time>
      </trkpt>
      <trkpt lat="41.05786" lon="19.97489">
        <ele>113.000811</ele>
        <time>2022-05-03T08:22:53.616Z</time>
      </trkpt>
      <trkpt lat="41.05775" lon="19.97483">
        <ele>112.647499</ele>
        <time>2022-05-03T08:22:55.616Z</time>
      </trkpt>
      <trkpt lat="41.05765" lon="19.97475">
        <ele>112.311044</ele>
        <time>2022-05-03T08:22:57.612Z</time>
      </trkpt>
      <trkpt lat="41.05755" lon="19.97467">
        <ele>111.986924</ele>
        <time>2022-05-03T08:22:59.619Z</time>
      </trkpt>
      <trkpt lat="41.05745" lon="19.9746">
        <ele>111.66739</ele>
        <time>2022-05-03T08:23:01.613Z</time>
      </trkpt>
      <trkpt lat="41.05736" lon="19.97452">
        <ele>111.355603</ele>
        <time>2022-05-03T08:23:03.614Z</time>
      </trkpt>
      <trkpt lat="41.05726" lon="19.97445">
        <ele>111.057173</ele>
        <time>2022-05-03T08:23:05.628Z</time>
      </trkpt>
      <trkpt lat="41.05717" lon="19.97438">
        <ele>110.754714</ele>
        <time>2022-05-03T08:23:07.632Z</time>
      </trkpt>
      <trkpt lat="41.05708" lon="19.9743">
        <ele>110.44145</ele>
        <time>2022-05-03T08:23:09.626Z</time>
      </trkpt>
      <trkpt lat="41.05698" lon="19.97423">
        <ele>110.124658</ele>
        <time>2022-05-03T08:23:11.617Z</time>
      </trkpt>
      <trkpt lat="41.05689" lon="19.97416">
        <ele>109.836326</ele>
        <time>2022-05-03T08:23:13.612Z</time>
      </trkpt>
      <trkpt lat="41.05681" lon="19.97409">
        <ele>109.54529</ele>
        <time>2022-05-03T08:23:15.622Z</time>
      </trkpt>
      <trkpt lat="41.05672" lon="19.97403">
        <ele>109.50163</ele>
        <time>2022-05-03T08:23:17.628Z</time>
      </trkpt>
      <trkpt lat="41.05663" lon="19.97396">
        <ele>109.460281</ele>
        <time>2022-05-03T08:23:19.627Z</time>
      </trkpt>
      <trkpt lat="41.05654" lon="19.97389">
        <ele>109.416556</ele>
        <time>2022-05-03T08:23:21.607Z</time>
      </trkpt>
      <trkpt lat="41.05646" lon="19.97383">
        <ele>109.373674</ele>
        <time>2022-05-03T08:23:23.619Z</time>
      </trkpt>
      <trkpt lat="41.05638" lon="19.97376">
        <ele>109.333056</ele>
        <time>2022-05-03T08:23:25.642Z</time>
      </trkpt>
      <trkpt lat="41.0563" lon="19.9737">
        <ele>109.293788</ele>
        <time>2022-05-03T08:23:27.621Z</time>
      </trkpt>
      <trkpt lat="41.05622" lon="19.97364">
        <ele>109.25563</ele>
        <time>2022-05-03T08:23:29.605Z</time>
      </trkpt>
      <trkpt lat="41.05613" lon="19.97358">
        <ele>109.21396</ele>
        <time>2022-05-03T08:23:31.612Z</time>
      </trkpt>
      <trkpt lat="41.05605" lon="19.97351">
        <ele>109.171712</ele>
        <time>2022-05-03T08:23:33.608Z</time>
      </trkpt>
      <trkpt lat="41.05597" lon="19.97345">
        <ele>109.131913</ele>
        <time>2022-05-03T08:23:35.605Z</time>
      </trkpt>
      <trkpt lat="41.05588" lon="19.97339">
        <ele>109.090361</ele>
        <time>2022-05-03T08:23:37.656Z</time>
      </trkpt>
      <trkpt lat="41.0558" lon="19.97333">
        <ele>109.048383</ele>
        <time>2022-05-03T08:23:39.616Z</time>
      </trkpt>
      <trkpt lat="41.05572" lon="19.97326">
        <ele>109.008098</ele>
        <time>2022-05-03T08:23:41.611Z</time>
      </trkpt>
      <trkpt lat="41.0556" lon="19.97317">
        <ele>108.95038</ele>
        <time>2022-05-03T08:23:44.598Z</time>
      </trkpt>
      <trkpt lat="41.05552" lon="19.9731">
        <ele>108.907966</ele>
        <time>2022-05-03T08:23:46.595Z</time>
      </trkpt>
      <trkpt lat="41.05543" lon="19.97303">
        <ele>108.866617</ele>
        <time>2022-05-03T08:23:48.646Z</time>
      </trkpt>
      <trkpt lat="41.05535" lon="19.97297">
        <ele>108.826167</ele>
        <time>2022-05-03T08:23:50.630Z</time>
      </trkpt>
      <trkpt lat="41.05527" lon="19.97291">
        <ele>108.785837</ele>
        <time>2022-05-03T08:23:52.612Z</time>
      </trkpt>
      <trkpt lat="41.05519" lon="19.97284">
        <ele>108.884753</ele>
        <time>2022-05-03T08:23:54.604Z</time>
      </trkpt>
      <trkpt lat="41.05511" lon="19.97278">
        <ele>109.02709</ele>
        <time>2022-05-03T08:23:56.610Z</time>
      </trkpt>
      <trkpt lat="41.05503" lon="19.97271">
        <ele>109.173949</ele>
        <time>2022-05-03T08:23:58.615Z</time>
      </trkpt>
      <trkpt lat="41.05492" lon="19.97262">
        <ele>109.371476</ele>
        <time>2022-05-03T08:24:01.630Z</time>
      </trkpt>
      <trkpt lat="41.05484" lon="19.97255">
        <ele>109.52156</ele>
        <time>2022-05-03T08:24:03.614Z</time>
      </trkpt>
      <trkpt lat="41.05476" lon="19.97249">
        <ele>109.669259</ele>
        <time>2022-05-03T08:24:05.642Z</time>
      </trkpt>
      <trkpt lat="41.05464" lon="19.97239">
        <ele>109.879702</ele>
        <time>2022-05-03T08:24:08.632Z</time>
      </trkpt>
      <trkpt lat="41.05453" lon="19.9723">
        <ele>110.084394</ele>
        <time>2022-05-03T08:24:11.609Z</time>
      </trkpt>
      <trkpt lat="41.05441" lon="19.97221">
        <ele>110.291141</ele>
        <time>2022-05-03T08:24:14.622Z</time>
      </trkpt>
      <trkpt lat="41.05433" lon="19.97215">
        <ele>110.431637</ele>
        <time>2022-05-03T08:24:16.636Z</time>
      </trkpt>
      <trkpt lat="41.05425" lon="19.97209">
        <ele>110.576685</ele>
        <time>2022-05-03T08:24:18.622Z</time>
      </trkpt>
      <trkpt lat="41.05417" lon="19.97202">
        <ele>110.723804</ele>
        <time>2022-05-03T08:24:20.632Z</time>
      </trkpt>
      <trkpt lat="41.05408" lon="19.97196">
        <ele>110.871693</ele>
        <time>2022-05-03T08:24:22.599Z</time>
      </trkpt>
      <trkpt lat="41.054" lon="19.9719">
        <ele>111.022636</ele>
        <time>2022-05-03T08:24:24.634Z</time>
      </trkpt>
      <trkpt lat="41.05392" lon="19.97183">
        <ele>111.163133</ele>
        <time>2022-05-03T08:24:26.611Z</time>
      </trkpt>
      <trkpt lat="41.05384" lon="19.97177">
        <ele>111.311589</ele>
        <time>2022-05-03T08:24:28.602Z</time>
      </trkpt>
      <trkpt lat="41.05375" lon="19.97171">
        <ele>111.458709</ele>
        <time>2022-05-03T08:24:30.615Z</time>
      </trkpt>
      <trkpt lat="41.05367" lon="19.97164">
        <ele>111.524471</ele>
        <time>2022-05-03T08:24:32.629Z</time>
      </trkpt>
      <trkpt lat="41.05359" lon="19.97158">
        <ele>111.478633</ele>
        <time>2022-05-03T08:24:34.607Z</time>
      </trkpt>
      <trkpt lat="41.05351" lon="19.97152">
        <ele>111.434664</ele>
        <time>2022-05-03T08:24:36.609Z</time>
      </trkpt>
      <trkpt lat="41.05339" lon="19.97143">
        <ele>111.37443</ele>
        <time>2022-05-03T08:24:39.620Z</time>
      </trkpt>
      <trkpt lat="41.05328" lon="19.97135">
        <ele>111.313203</ele>
        <time>2022-05-03T08:24:42.627Z</time>
      </trkpt>
      <trkpt lat="41.05317" lon="19.97126">
        <ele>111.251275</ele>
        <time>2022-05-03T08:24:45.612Z</time>
      </trkpt>
      <trkpt lat="41.05308" lon="19.9712">
        <ele>111.206827</ele>
        <time>2022-05-03T08:24:47.622Z</time>
      </trkpt>
      <trkpt lat="41.053" lon="19.97113">
        <ele>111.160584</ele>
        <time>2022-05-03T08:24:49.645Z</time>
      </trkpt>
      <trkpt lat="41.05292" lon="19.97107">
        <ele>111.115103</ele>
        <time>2022-05-03T08:24:51.615Z</time>
      </trkpt>
      <trkpt lat="41.05284" lon="19.971">
        <ele>111.071601</ele>
        <time>2022-05-03T08:24:53.614Z</time>
      </trkpt>
      <trkpt lat="41.05275" lon="19.97094">
        <ele>111.027694</ele>
        <time>2022-05-03T08:24:55.638Z</time>
      </trkpt>
      <trkpt lat="41.05268" lon="19.97088">
        <ele>110.985</ele>
        <time>2022-05-03T08:24:57.616Z</time>
      </trkpt>
      <trkpt lat="41.0526" lon="19.97082">
        <ele>110.940914</ele>
        <time>2022-05-03T08:24:59.604Z</time>
      </trkpt>
      <trkpt lat="41.05251" lon="19.97075">
        <ele>110.894671</ele>
        <time>2022-05-03T08:25:01.615Z</time>
      </trkpt>
      <trkpt lat="41.05243" lon="19.97069">
        <ele>110.848428</ele>
        <time>2022-05-03T08:25:03.614Z</time>
      </trkpt>
      <trkpt lat="41.05234" lon="19.97062">
        <ele>110.803796</ele>
        <time>2022-05-03T08:25:05.604Z</time>
      </trkpt>
      <trkpt lat="41.05226" lon="19.97055">
        <ele>110.756606</ele>
        <time>2022-05-03T08:25:07.640Z</time>
      </trkpt>
      <trkpt lat="41.05217" lon="19.97048">
        <ele>110.709456</ele>
        <time>2022-05-03T08:25:09.614Z</time>
      </trkpt>
      <trkpt lat="41.05209" lon="19.9704">
        <ele>110.96362</ele>
        <time>2022-05-03T08:25:11.689Z</time>
      </trkpt>
      <trkpt lat="41.05201" lon="19.97031">
        <ele>111.277183</ele>
        <time>2022-05-03T08:25:13.608Z</time>
      </trkpt>
      <trkpt lat="41.05193" lon="19.97023">
        <ele>111.597751</ele>
        <time>2022-05-03T08:25:15.620Z</time>
      </trkpt>
      <trkpt lat="41.05186" lon="19.97015">
        <ele>111.906102</ele>
        <time>2022-05-03T08:25:17.628Z</time>
      </trkpt>
      <trkpt lat="41.05179" lon="19.97006">
        <ele>112.214876</ele>
        <time>2022-05-03T08:25:19.607Z</time>
      </trkpt>
      <trkpt lat="41.05173" lon="19.96997">
        <ele>112.511231</ele>
        <time>2022-05-03T08:25:21.599Z</time>
      </trkpt>
      <trkpt lat="41.05164" lon="19.96984">
        <ele>112.927504</ele>
        <time>2022-05-03T08:25:24.643Z</time>
      </trkpt>
      <trkpt lat="41.05156" lon="19.96972">
        <ele>113.319554</ele>
        <time>2022-05-03T08:25:27.614Z</time>
      </trkpt>
      <trkpt lat="41.05149" lon="19.96959">
        <ele>113.694138</ele>
        <time>2022-05-03T08:25:30.620Z</time>
      </trkpt>
      <trkpt lat="41.05143" lon="19.96947">
        <ele>114.059863</ele>
        <time>2022-05-03T08:25:33.617Z</time>
      </trkpt>
      <trkpt lat="41.05136" lon="19.96933">
        <ele>114.447971</ele>
        <time>2022-05-03T08:25:36.616Z</time>
      </trkpt>
      <trkpt lat="41.05131" lon="19.96919">
        <ele>114.830167</ele>
        <time>2022-05-03T08:25:39.620Z</time>
      </trkpt>
      <trkpt lat="41.05125" lon="19.96905">
        <ele>115.203472</ele>
        <time>2022-05-03T08:25:42.611Z</time>
      </trkpt>
      <trkpt lat="41.05121" lon="19.96891">
        <ele>115.573789</ele>
        <time>2022-05-03T08:25:45.652Z</time>
      </trkpt>
      <trkpt lat="41.05117" lon="19.96875">
        <ele>115.957793</ele>
        <time>2022-05-03T08:25:48.664Z</time>
      </trkpt>
      <trkpt lat="41.05115" lon="19.96861">
        <ele>116.311692</ele>
        <time>2022-05-03T08:25:51.612Z</time>
      </trkpt>
      <trkpt lat="41.05112" lon="19.96847">
        <ele>116.597931</ele>
        <time>2022-05-03T08:25:54.624Z</time>
      </trkpt>
      <trkpt lat="41.05108" lon="19.96832">
        <ele>116.874277</ele>
        <time>2022-05-03T08:25:57.628Z</time>
      </trkpt>
      <trkpt lat="41.05105" lon="19.96817">
        <ele>117.161742</ele>
        <time>2022-05-03T08:26:00.599Z</time>
      </trkpt>
      <trkpt lat="41.05103" lon="19.968">
        <ele>117.455507</ele>
        <time>2022-05-03T08:26:03.606Z</time>
      </trkpt>
      <trkpt lat="41.051" lon="19.96784">
        <ele>117.742556</ele>
        <time>2022-05-03T08:26:06.646Z</time>
      </trkpt>
      <trkpt lat="41.05098" lon="19.96769">
        <ele>118.023004</ele>
        <time>2022-05-03T08:26:09.601Z</time>
      </trkpt>
      <trkpt lat="41.05095" lon="19.96753">
        <ele>118.308329</ele>
        <time>2022-05-03T08:26:12.610Z</time>
      </trkpt>
      <trkpt lat="41.05092" lon="19.96738">
        <ele>118.578161</ele>
        <time>2022-05-03T08:26:15.637Z</time>
      </trkpt>
      <trkpt lat="41.0509" lon="19.96723">
        <ele>118.84777</ele>
        <time>2022-05-03T08:26:18.594Z</time>
      </trkpt>
      <trkpt lat="41.05088" lon="19.96709">
        <ele>119.102639</ele>
        <time>2022-05-03T08:26:21.612Z</time>
      </trkpt>
      <trkpt lat="41.05087" lon="19.96696">
        <ele>119.340643</ele>
        <time>2022-05-03T08:26:24.626Z</time>
      </trkpt>
      <trkpt lat="41.05085" lon="19.96682">
        <ele>119.593777</ele>
        <time>2022-05-03T08:26:27.606Z</time>
      </trkpt>
      <trkpt lat="41.05082" lon="19.96667">
        <ele>119.855205</ele>
        <time>2022-05-03T08:26:30.616Z</time>
      </trkpt>
      <trkpt lat="41.0508" lon="19.96653">
        <ele>120.113129</ele>
        <time>2022-05-03T08:26:33.652Z</time>
      </trkpt>
      <trkpt lat="41.05078" lon="19.96639">
        <ele>120.362797</ele>
        <time>2022-05-03T08:26:36.624Z</time>
      </trkpt>
      <trkpt lat="41.05077" lon="19.96625">
        <ele>120.608169</ele>
        <time>2022-05-03T08:26:39.612Z</time>
      </trkpt>
      <trkpt lat="41.05076" lon="19.96611">
        <ele>120.772645</ele>
        <time>2022-05-03T08:26:42.614Z</time>
      </trkpt>
      <trkpt lat="41.05075" lon="19.96596">
        <ele>120.927086</ele>
        <time>2022-05-03T08:26:45.614Z</time>
      </trkpt>
      <trkpt lat="41.05073" lon="19.96581">
        <ele>121.084737</ele>
        <time>2022-05-03T08:26:48.626Z</time>
      </trkpt>
      <trkpt lat="41.05073" lon="19.96565">
        <ele>121.243179</ele>
        <time>2022-05-03T08:26:51.613Z</time>
      </trkpt>
      <trkpt lat="41.05072" lon="19.9655">
        <ele>121.399371</ele>
        <time>2022-05-03T08:26:54.640Z</time>
      </trkpt>
      <trkpt lat="41.05071" lon="19.96535">
        <ele>121.554725</ele>
        <time>2022-05-03T08:26:57.614Z</time>
      </trkpt>
      <trkpt lat="41.0507" lon="19.9652">
        <ele>121.708948</ele>
        <time>2022-05-03T08:27:00.612Z</time>
      </trkpt>
      <trkpt lat="41.05069" lon="19.96503">
        <ele>121.885229</ele>
        <time>2022-05-03T08:27:03.658Z</time>
      </trkpt>
      <trkpt lat="41.05068" lon="19.96486">
        <ele>122.06756</ele>
        <time>2022-05-03T08:27:06.632Z</time>
      </trkpt>
      <trkpt lat="41.05067" lon="19.96468">
        <ele>122.252067</ele>
        <time>2022-05-03T08:27:09.609Z</time>
      </trkpt>
      <trkpt lat="41.05066" lon="19.96456">
        <ele>122.379528</ele>
        <time>2022-05-03T08:27:11.650Z</time>
      </trkpt>
      <trkpt lat="41.05065" lon="19.96443">
        <ele>122.50596</ele>
        <time>2022-05-03T08:27:13.624Z</time>
      </trkpt>
      <trkpt lat="41.05064" lon="19.96431">
        <ele>122.631155</ele>
        <time>2022-05-03T08:27:15.626Z</time>
      </trkpt>
      <trkpt lat="41.05064" lon="19.96419">
        <ele>122.757713</ele>
        <time>2022-05-03T08:27:17.625Z</time>
      </trkpt>
      <trkpt lat="41.05063" lon="19.96407">
        <ele>122.885174</ele>
        <time>2022-05-03T08:27:19.624Z</time>
      </trkpt>
      <trkpt lat="41.05062" lon="19.96395">
        <ele>123.009678</ele>
        <time>2022-05-03T08:27:21.621Z</time>
      </trkpt>
      <trkpt lat="41.05061" lon="19.96383">
        <ele>123.118894</ele>
        <time>2022-05-03T08:27:23.623Z</time>
      </trkpt>
      <trkpt lat="41.0506" lon="19.96365">
        <ele>123.20035</ele>
        <time>2022-05-03T08:27:26.619Z</time>
      </trkpt>
      <trkpt lat="41.05059" lon="19.96353">
        <ele>123.256492</ele>
        <time>2022-05-03T08:27:28.644Z</time>
      </trkpt>
      <trkpt lat="41.05058" lon="19.96341">
        <ele>123.311273</ele>
        <time>2022-05-03T08:27:30.615Z</time>
      </trkpt>
      <trkpt lat="41.05058" lon="19.96329">
        <ele>123.366919</ele>
        <time>2022-05-03T08:27:32.611Z</time>
      </trkpt>
      <trkpt lat="41.05057" lon="19.96316">
        <ele>123.422499</ele>
        <time>2022-05-03T08:27:34.609Z</time>
      </trkpt>
      <trkpt lat="41.05056" lon="19.96304">
        <ele>123.477839</ele>
        <time>2022-05-03T08:27:36.600Z</time>
      </trkpt>
      <trkpt lat="41.05056" lon="19.96292">
        <ele>123.535302</ele>
        <time>2022-05-03T08:27:38.628Z</time>
      </trkpt>
      <trkpt lat="41.05055" lon="19.96279">
        <ele>123.593813</ele>
        <time>2022-05-03T08:27:40.629Z</time>
      </trkpt>
      <trkpt lat="41.05054" lon="19.96266">
        <ele>123.65215</ele>
        <time>2022-05-03T08:27:42.600Z</time>
      </trkpt>
      <trkpt lat="41.05054" lon="19.96253">
        <ele>123.709512</ele>
        <time>2022-05-03T08:27:44.625Z</time>
      </trkpt>
      <trkpt lat="41.05054" lon="19.9624">
        <ele>123.768681</ele>
        <time>2022-05-03T08:27:46.669Z</time>
      </trkpt>
      <trkpt lat="41.05054" lon="19.96228">
        <ele>123.826968</ele>
        <time>2022-05-03T08:27:48.600Z</time>
      </trkpt>
      <trkpt lat="41.05055" lon="19.96215">
        <ele>123.886334</ele>
        <time>2022-05-03T08:27:50.621Z</time>
      </trkpt>
      <trkpt lat="41.05056" lon="19.96202">
        <ele>123.943999</ele>
        <time>2022-05-03T08:27:52.613Z</time>
      </trkpt>
      <trkpt lat="41.05057" lon="19.96189">
        <ele>124.001462</ele>
        <time>2022-05-03T08:27:54.596Z</time>
      </trkpt>
      <trkpt lat="41.05058" lon="19.96177">
        <ele>124.058222</ele>
        <time>2022-05-03T08:27:56.609Z</time>
      </trkpt>
      <trkpt lat="41.05059" lon="19.96165">
        <ele>124.114982</ele>
        <time>2022-05-03T08:27:58.611Z</time>
      </trkpt>
      <trkpt lat="41.05059" lon="19.96152">
        <ele>124.171082</ele>
        <time>2022-05-03T08:28:00.618Z</time>
      </trkpt>
      <trkpt lat="41.05061" lon="19.9614">
        <ele>124.124518</ele>
        <time>2022-05-03T08:28:02.612Z</time>
      </trkpt>
      <trkpt lat="41.05061" lon="19.96127">
        <ele>124.004999</ele>
        <time>2022-05-03T08:28:04.619Z</time>
      </trkpt>
      <trkpt lat="41.05062" lon="19.96115">
        <ele>123.888881</ele>
        <time>2022-05-03T08:28:06.616Z</time>
      </trkpt>
      <trkpt lat="41.05063" lon="19.96103">
        <ele>123.777237</ele>
        <time>2022-05-03T08:28:08.634Z</time>
      </trkpt>
      <trkpt lat="41.05065" lon="19.96086">
        <ele>123.61804</ele>
        <time>2022-05-03T08:28:11.609Z</time>
      </trkpt>
      <trkpt lat="41.05066" lon="19.96068">
        <ele>123.455542</ele>
        <time>2022-05-03T08:28:14.641Z</time>
      </trkpt>
      <trkpt lat="41.05067" lon="19.96051">
        <ele>123.295563</ele>
        <time>2022-05-03T08:28:17.607Z</time>
      </trkpt>
      <trkpt lat="41.05069" lon="19.96035">
        <ele>123.143193</ele>
        <time>2022-05-03T08:28:20.639Z</time>
      </trkpt>
      <trkpt lat="41.0507" lon="19.96019">
        <ele>122.995425</ele>
        <time>2022-05-03T08:28:23.599Z</time>
      </trkpt>
      <trkpt lat="41.05071" lon="19.96003">
        <ele>122.849368</ele>
        <time>2022-05-03T08:28:26.644Z</time>
      </trkpt>
      <trkpt lat="41.05072" lon="19.95987">
        <ele>122.703172</ele>
        <time>2022-05-03T08:28:29.621Z</time>
      </trkpt>
      <trkpt lat="41.05075" lon="19.95972">
        <ele>122.562529</ele>
        <time>2022-05-03T08:28:32.640Z</time>
      </trkpt>
      <trkpt lat="41.05078" lon="19.95957">
        <ele>122.416643</ele>
        <time>2022-05-03T08:28:35.605Z</time>
      </trkpt>
      <trkpt lat="41.05081" lon="19.9594">
        <ele>122.253109</ele>
        <time>2022-05-03T08:28:38.628Z</time>
      </trkpt>
      <trkpt lat="41.05084" lon="19.95929">
        <ele>122.142612</ele>
        <time>2022-05-03T08:28:40.628Z</time>
      </trkpt>
      <trkpt lat="41.05087" lon="19.95917">
        <ele>122.02921</ele>
        <time>2022-05-03T08:28:42.593Z</time>
      </trkpt>
      <trkpt lat="41.0509" lon="19.95906">
        <ele>121.831101</ele>
        <time>2022-05-03T08:28:44.602Z</time>
      </trkpt>
      <trkpt lat="41.05094" lon="19.95891">
        <ele>121.490528</ele>
        <time>2022-05-03T08:28:47.620Z</time>
      </trkpt>
      <trkpt lat="41.051" lon="19.95875">
        <ele>121.128555</ele>
        <time>2022-05-03T08:28:50.624Z</time>
      </trkpt>
      <trkpt lat="41.05104" lon="19.95864">
        <ele>120.879216</ele>
        <time>2022-05-03T08:28:52.602Z</time>
      </trkpt>
      <trkpt lat="41.05108" lon="19.95853">
        <ele>120.624414</ele>
        <time>2022-05-03T08:28:54.656Z</time>
      </trkpt>
      <trkpt lat="41.05113" lon="19.95843">
        <ele>120.364867</ele>
        <time>2022-05-03T08:28:56.621Z</time>
      </trkpt>
      <trkpt lat="41.05119" lon="19.95832">
        <ele>120.084596</ele>
        <time>2022-05-03T08:28:58.614Z</time>
      </trkpt>
      <trkpt lat="41.05125" lon="19.95821">
        <ele>119.797617</ele>
        <time>2022-05-03T08:29:00.613Z</time>
      </trkpt>
      <trkpt lat="41.05131" lon="19.9581">
        <ele>119.502148</ele>
        <time>2022-05-03T08:29:02.615Z</time>
      </trkpt>
      <trkpt lat="41.05138" lon="19.958">
        <ele>119.219402</ele>
        <time>2022-05-03T08:29:04.616Z</time>
      </trkpt>
      <trkpt lat="41.05145" lon="19.95791">
        <ele>118.949437</ele>
        <time>2022-05-03T08:29:06.614Z</time>
      </trkpt>
      <trkpt lat="41.05152" lon="19.95782">
        <ele>118.681647</ele>
        <time>2022-05-03T08:29:08.635Z</time>
      </trkpt>
      <trkpt lat="41.05158" lon="19.95773">
        <ele>118.426181</ele>
        <time>2022-05-03T08:29:10.619Z</time>
      </trkpt>
      <trkpt lat="41.05165" lon="19.95764">
        <ele>118.159343</ele>
        <time>2022-05-03T08:29:12.614Z</time>
      </trkpt>
      <trkpt lat="41.05171" lon="19.95755">
        <ele>117.89547</ele>
        <time>2022-05-03T08:29:14.619Z</time>
      </trkpt>
      <trkpt lat="41.05179" lon="19.95746">
        <ele>117.611851</ele>
        <time>2022-05-03T08:29:16.643Z</time>
      </trkpt>
      <trkpt lat="41.05186" lon="19.95737">
        <ele>117.332204</ele>
        <time>2022-05-03T08:29:18.620Z</time>
      </trkpt>
      <trkpt lat="41.05193" lon="19.95727">
        <ele>117.040192</ele>
        <time>2022-05-03T08:29:20.624Z</time>
      </trkpt>
      <trkpt lat="41.052" lon="19.95717">
        <ele>116.947788</ele>
        <time>2022-05-03T08:29:22.614Z</time>
      </trkpt>
      <trkpt lat="41.05208" lon="19.95707">
        <ele>116.9103</ele>
        <time>2022-05-03T08:29:24.605Z</time>
      </trkpt>
      <trkpt lat="41.05216" lon="19.95697">
        <ele>116.872502</ele>
        <time>2022-05-03T08:29:26.620Z</time>
      </trkpt>
      <trkpt lat="41.05224" lon="19.95687">
        <ele>116.835379</ele>
        <time>2022-05-03T08:29:28.654Z</time>
      </trkpt>
      <trkpt lat="41.05232" lon="19.95677">
        <ele>116.797463</ele>
        <time>2022-05-03T08:29:30.609Z</time>
      </trkpt>
      <trkpt lat="41.05239" lon="19.95667">
        <ele>116.759665</ele>
        <time>2022-05-03T08:29:32.651Z</time>
      </trkpt>
      <trkpt lat="41.05247" lon="19.95657">
        <ele>116.722904</ele>
        <time>2022-05-03T08:29:34.618Z</time>
      </trkpt>
      <trkpt lat="41.05255" lon="19.95646">
        <ele>116.684861</ele>
        <time>2022-05-03T08:29:36.622Z</time>
      </trkpt>
      <trkpt lat="41.05263" lon="19.95637">
        <ele>116.6481</ele>
        <time>2022-05-03T08:29:38.614Z</time>
      </trkpt>
      <trkpt lat="41.0527" lon="19.95627">
        <ele>116.61073</ele>
        <time>2022-05-03T08:29:40.612Z</time>
      </trkpt>
      <trkpt lat="41.05278" lon="19.95617">
        <ele>116.575318</ele>
        <time>2022-05-03T08:29:42.611Z</time>
      </trkpt>
      <trkpt lat="41.05285" lon="19.95607">
        <ele>116.539051</ele>
        <time>2022-05-03T08:29:44.622Z</time>
      </trkpt>
      <trkpt lat="41.05292" lon="19.95598">
        <ele>116.503639</ele>
        <time>2022-05-03T08:29:46.612Z</time>
      </trkpt>
      <trkpt lat="41.05299" lon="19.95588">
        <ele>116.469139</ele>
        <time>2022-05-03T08:29:48.610Z</time>
      </trkpt>
      <trkpt lat="41.05307" lon="19.95578">
        <ele>116.432872</ele>
        <time>2022-05-03T08:29:50.611Z</time>
      </trkpt>
      <trkpt lat="41.05314" lon="19.95569">
        <ele>116.396849</ele>
        <time>2022-05-03T08:29:52.617Z</time>
      </trkpt>
      <trkpt lat="41.05322" lon="19.95559">
        <ele>116.361052</ele>
        <time>2022-05-03T08:29:54.614Z</time>
      </trkpt>
      <trkpt lat="41.05329" lon="19.9555">
        <ele>116.352704</ele>
        <time>2022-05-03T08:29:56.615Z</time>
      </trkpt>
      <trkpt lat="41.05336" lon="19.95541">
        <ele>116.350129</ele>
        <time>2022-05-03T08:29:58.611Z</time>
      </trkpt>
      <trkpt lat="41.05343" lon="19.95533">
        <ele>116.347634</ele>
        <time>2022-05-03T08:30:00.605Z</time>
      </trkpt>
      <trkpt lat="41.05351" lon="19.95525">
        <ele>116.345158</ele>
        <time>2022-05-03T08:30:02.663Z</time>
      </trkpt>
      <trkpt lat="41.05358" lon="19.95517">
        <ele>116.34261</ele>
        <time>2022-05-03T08:30:04.647Z</time>
      </trkpt>
      <trkpt lat="41.05365" lon="19.95509">
        <ele>116.340062</ele>
        <time>2022-05-03T08:30:06.622Z</time>
      </trkpt>
      <trkpt lat="41.05373" lon="19.955">
        <ele>116.337407</ele>
        <time>2022-05-03T08:30:08.603Z</time>
      </trkpt>
      <trkpt lat="41.05381" lon="19.95492">
        <ele>116.334724</ele>
        <time>2022-05-03T08:30:10.618Z</time>
      </trkpt>
      <trkpt lat="41.05388" lon="19.95483">
        <ele>116.332156</ele>
        <time>2022-05-03T08:30:12.618Z</time>
      </trkpt>
      <trkpt lat="41.05395" lon="19.95475">
        <ele>116.329654</ele>
        <time>2022-05-03T08:30:14.633Z</time>
      </trkpt>
      <trkpt lat="41.05403" lon="19.95467">
        <ele>116.327052</ele>
        <time>2022-05-03T08:30:16.608Z</time>
      </trkpt>
      <trkpt lat="41.0541" lon="19.95459">
        <ele>116.324609</ele>
        <time>2022-05-03T08:30:18.623Z</time>
      </trkpt>
      <trkpt lat="41.05417" lon="19.95451">
        <ele>116.322112</ele>
        <time>2022-05-03T08:30:20.626Z</time>
      </trkpt>
      <trkpt lat="41.05425" lon="19.95443">
        <ele>116.319524</ele>
        <time>2022-05-03T08:30:22.603Z</time>
      </trkpt>
      <trkpt lat="41.05433" lon="19.95435">
        <ele>116.316811</ele>
        <time>2022-05-03T08:30:24.658Z</time>
      </trkpt>
      <trkpt lat="41.05442" lon="19.95427">
        <ele>116.314039</ele>
        <time>2022-05-03T08:30:26.632Z</time>
      </trkpt>
      <trkpt lat="41.05451" lon="19.95419">
        <ele>116.311146</ele>
        <time>2022-05-03T08:30:28.613Z</time>
      </trkpt>
      <trkpt lat="41.05459" lon="19.95412">
        <ele>116.30866</ele>
        <time>2022-05-03T08:30:30.652Z</time>
      </trkpt>
      <trkpt lat="41.0547" lon="19.95403">
        <ele>116.245769</ele>
        <time>2022-05-03T08:30:33.631Z</time>
      </trkpt>
      <trkpt lat="41.05478" lon="19.95396">
        <ele>116.168419</ele>
        <time>2022-05-03T08:30:35.605Z</time>
      </trkpt>
      <trkpt lat="41.05486" lon="19.95389">
        <ele>116.091758</ele>
        <time>2022-05-03T08:30:37.655Z</time>
      </trkpt>
      <trkpt lat="41.05494" lon="19.95382">
        <ele>116.016434</ele>
        <time>2022-05-03T08:30:39.601Z</time>
      </trkpt>
      <trkpt lat="41.05501" lon="19.95375">
        <ele>115.939632</ele>
        <time>2022-05-03T08:30:41.651Z</time>
      </trkpt>
      <trkpt lat="41.05509" lon="19.95367">
        <ele>115.860071</ele>
        <time>2022-05-03T08:30:43.615Z</time>
      </trkpt>
      <trkpt lat="41.05516" lon="19.95358">
        <ele>115.779271</ele>
        <time>2022-05-03T08:30:45.626Z</time>
      </trkpt>
      <trkpt lat="41.05524" lon="19.9535">
        <ele>115.703001</ele>
        <time>2022-05-03T08:30:47.616Z</time>
      </trkpt>
      <trkpt lat="41.05531" lon="19.95342">
        <ele>115.629656</ele>
        <time>2022-05-03T08:30:49.618Z</time>
      </trkpt>
      <trkpt lat="41.05537" lon="19.95334">
        <ele>115.556427</ele>
        <time>2022-05-03T08:30:51.619Z</time>
      </trkpt>
      <trkpt lat="41.05543" lon="19.95325">
        <ele>115.482346</ele>
        <time>2022-05-03T08:30:53.625Z</time>
      </trkpt>
      <trkpt lat="41.0555" lon="19.95316">
        <ele>115.407631</ele>
        <time>2022-05-03T08:30:55.670Z</time>
      </trkpt>
      <trkpt lat="41.05556" lon="19.95305">
        <ele>115.325914</ele>
        <time>2022-05-03T08:30:57.617Z</time>
      </trkpt>
      <trkpt lat="41.05563" lon="19.95295">
        <ele>115.242277</ele>
        <time>2022-05-03T08:30:59.614Z</time>
      </trkpt>
      <trkpt lat="41.05569" lon="19.95285">
        <ele>115.163069</ele>
        <time>2022-05-03T08:31:01.625Z</time>
      </trkpt>
      <trkpt lat="41.05574" lon="19.95274">
        <ele>115.086567</ele>
        <time>2022-05-03T08:31:03.662Z</time>
      </trkpt>
      <trkpt lat="41.05579" lon="19.95263">
        <ele>115.009551</ele>
        <time>2022-05-03T08:31:05.619Z</time>
      </trkpt>
      <trkpt lat="41.05584" lon="19.95252">
        <ele>114.931819</ele>
        <time>2022-05-03T08:31:07.619Z</time>
      </trkpt>
      <trkpt lat="41.05588" lon="19.95241">
        <ele>114.863803</ele>
        <time>2022-05-03T08:31:09.657Z</time>
      </trkpt>
      <trkpt lat="41.05593" lon="19.9523">
        <ele>115.080536</ele>
        <time>2022-05-03T08:31:11.611Z</time>
      </trkpt>
      <trkpt lat="41.05597" lon="19.95218">
        <ele>115.292759</ele>
        <time>2022-05-03T08:31:13.640Z</time>
      </trkpt>
      <trkpt lat="41.05601" lon="19.95207">
        <ele>115.50395</ele>
        <time>2022-05-03T08:31:15.601Z</time>
      </trkpt>
      <trkpt lat="41.05605" lon="19.95196">
        <ele>115.714649</ele>
        <time>2022-05-03T08:31:17.606Z</time>
      </trkpt>
      <trkpt lat="41.0561" lon="19.95185">
        <ele>115.929374</ele>
        <time>2022-05-03T08:31:19.623Z</time>
      </trkpt>
      <trkpt lat="41.05614" lon="19.95173">
        <ele>116.144602</ele>
        <time>2022-05-03T08:31:21.625Z</time>
      </trkpt>
      <trkpt lat="41.05618" lon="19.95162">
        <ele>116.354289</ele>
        <time>2022-05-03T08:31:23.620Z</time>
      </trkpt>
      <trkpt lat="41.05622" lon="19.95151">
        <ele>116.55792</ele>
        <time>2022-05-03T08:31:25.628Z</time>
      </trkpt>
      <trkpt lat="41.05626" lon="19.9514">
        <ele>116.768618</ele>
        <time>2022-05-03T08:31:27.632Z</time>
      </trkpt>
      <trkpt lat="41.0563" lon="19.95129">
        <ele>116.974761</ele>
        <time>2022-05-03T08:31:29.636Z</time>
      </trkpt>
      <trkpt lat="41.05636" lon="19.95113">
        <ele>117.27175</ele>
        <time>2022-05-03T08:31:32.599Z</time>
      </trkpt>
      <trkpt lat="41.0564" lon="19.95103">
        <ele>117.473863</ele>
        <time>2022-05-03T08:31:34.622Z</time>
      </trkpt>
      <trkpt lat="41.05644" lon="19.95092">
        <ele>117.680166</ele>
        <time>2022-05-03T08:31:36.644Z</time>
      </trkpt>
      <trkpt lat="41.05649" lon="19.95076">
        <ele>117.972562</ele>
        <time>2022-05-03T08:31:39.614Z</time>
      </trkpt>
      <trkpt lat="41.05655" lon="19.95061">
        <ele>118.264407</ele>
        <time>2022-05-03T08:31:42.626Z</time>
      </trkpt>
      <trkpt lat="41.0566" lon="19.95045">
        <ele>118.54728</ele>
        <time>2022-05-03T08:31:45.646Z</time>
      </trkpt>
      <trkpt lat="41.05664" lon="19.95028">
        <ele>118.847526</ele>
        <time>2022-05-03T08:31:48.658Z</time>
      </trkpt>
      <trkpt lat="41.05667" lon="19.95017">
        <ele>118.962234</ele>
        <time>2022-05-03T08:31:50.625Z</time>
      </trkpt>
      <trkpt lat="41.05669" lon="19.95004">
        <ele>119.052307</ele>
        <time>2022-05-03T08:31:52.607Z</time>
      </trkpt>
      <trkpt lat="41.05671" lon="19.94992">
        <ele>119.140899</ele>
        <time>2022-05-03T08:31:54.740Z</time>
      </trkpt>
      <trkpt lat="41.05673" lon="19.9498">
        <ele>119.230199</ele>
        <time>2022-05-03T08:31:56.609Z</time>
      </trkpt>
      <trkpt lat="41.05674" lon="19.94968">
        <ele>119.318173</ele>
        <time>2022-05-03T08:31:58.612Z</time>
      </trkpt>
      <trkpt lat="41.05675" lon="19.94956">
        <ele>119.404805</ele>
        <time>2022-05-03T08:32:00.672Z</time>
      </trkpt>
      <trkpt lat="41.05675" lon="19.94944">
        <ele>119.493523</ele>
        <time>2022-05-03T08:32:02.608Z</time>
      </trkpt>
      <trkpt lat="41.05675" lon="19.94932">
        <ele>119.579902</ele>
        <time>2022-05-03T08:32:04.617Z</time>
      </trkpt>
      <trkpt lat="41.05675" lon="19.9492">
        <ele>119.667017</ele>
        <time>2022-05-03T08:32:06.598Z</time>
      </trkpt>
      <trkpt lat="41.05674" lon="19.94907">
        <ele>119.755735</ele>
        <time>2022-05-03T08:32:08.624Z</time>
      </trkpt>
      <trkpt lat="41.05674" lon="19.94895">
        <ele>119.846117</ele>
        <time>2022-05-03T08:32:10.666Z</time>
      </trkpt>
      <trkpt lat="41.05672" lon="19.94883">
        <ele>119.934091</ele>
        <time>2022-05-03T08:32:12.604Z</time>
      </trkpt>
      <trkpt lat="41.05671" lon="19.94871">
        <ele>120.020933</ele>
        <time>2022-05-03T08:32:14.618Z</time>
      </trkpt>
      <trkpt lat="41.05669" lon="19.94859">
        <ele>120.107588</ele>
        <time>2022-05-03T08:32:16.610Z</time>
      </trkpt>
      <trkpt lat="41.05667" lon="19.94847">
        <ele>120.195779</ele>
        <time>2022-05-03T08:32:18.618Z</time>
      </trkpt>
      <trkpt lat="41.05664" lon="19.94835">
        <ele>120.28482</ele>
        <time>2022-05-03T08:32:20.623Z</time>
      </trkpt>
      <trkpt lat="41.05661" lon="19.94823">
        <ele>120.37508</ele>
        <time>2022-05-03T08:32:22.645Z</time>
      </trkpt>
      <trkpt lat="41.05657" lon="19.94812">
        <ele>120.462344</ele>
        <time>2022-05-03T08:32:24.618Z</time>
      </trkpt>
      <trkpt lat="41.05654" lon="19.94801">
        <ele>120.550358</ele>
        <time>2022-05-03T08:32:26.602Z</time>
      </trkpt>
      <trkpt lat="41.0565" lon="19.9479">
        <ele>120.639884</ele>
        <time>2022-05-03T08:32:28.624Z</time>
      </trkpt>
      <trkpt lat="41.05644" lon="19.94774">
        <ele>120.783808</ele>
        <time>2022-05-03T08:32:31.663Z</time>
      </trkpt>
      <trkpt lat="41.05639" lon="19.94759">
        <ele>120.9214</ele>
        <time>2022-05-03T08:32:34.624Z</time>
      </trkpt>
      <trkpt lat="41.05634" lon="19.94746">
        <ele>121.042058</ele>
        <time>2022-05-03T08:32:37.630Z</time>
      </trkpt>
      <trkpt lat="41.05629" lon="19.94732">
        <ele>121.163182</ele>
        <time>2022-05-03T08:32:40.628Z</time>
      </trkpt>
      <trkpt lat="41.05624" lon="19.94718">
        <ele>121.285597</ele>
        <time>2022-05-03T08:32:43.622Z</time>
      </trkpt>
      <trkpt lat="41.05619" lon="19.94705">
        <ele>121.406229</ele>
        <time>2022-05-03T08:32:46.608Z</time>
      </trkpt>
      <trkpt lat="41.05615" lon="19.94693">
        <ele>121.514024</ele>
        <time>2022-05-03T08:32:49.634Z</time>
      </trkpt>
      <trkpt lat="41.05611" lon="19.94682">
        <ele>121.616143</ele>
        <time>2022-05-03T08:32:52.612Z</time>
      </trkpt>
      <trkpt lat="41.05607" lon="19.9467">
        <ele>121.721273</ele>
        <time>2022-05-03T08:32:55.612Z</time>
      </trkpt>
      <trkpt lat="41.05602" lon="19.94659">
        <ele>121.825469</ele>
        <time>2022-05-03T08:32:58.632Z</time>
      </trkpt>
      <trkpt lat="41.05599" lon="19.94647">
        <ele>121.929511</ele>
        <time>2022-05-03T08:33:01.615Z</time>
      </trkpt>
      <trkpt lat="41.05593" lon="19.94633">
        <ele>122.055236</ele>
        <time>2022-05-03T08:33:05.623Z</time>
      </trkpt>
      <trkpt lat="41.05589" lon="19.94622">
        <ele>122.155295</ele>
        <time>2022-05-03T08:33:08.608Z</time>
      </trkpt>
      <trkpt lat="41.05586" lon="19.94611">
        <ele>122.254894</ele>
        <time>2022-05-03T08:33:11.600Z</time>
      </trkpt>
      <trkpt lat="41.0558" lon="19.94597">
        <ele>122.383761</ele>
        <time>2022-05-03T08:33:15.626Z</time>
      </trkpt>
      <trkpt lat="41.05576" lon="19.94583">
        <ele>122.506793</ele>
        <time>2022-05-03T08:33:19.616Z</time>
      </trkpt>
      <trkpt lat="41.05572" lon="19.94571">
        <ele>122.549248</ele>
        <time>2022-05-03T08:33:22.615Z</time>
      </trkpt>
      <trkpt lat="41.05568" lon="19.9456">
        <ele>122.548722</ele>
        <time>2022-05-03T08:33:25.609Z</time>
      </trkpt>
      <trkpt lat="41.05564" lon="19.94549">
        <ele>122.548208</ele>
        <time>2022-05-03T08:33:28.616Z</time>
      </trkpt>
      <trkpt lat="41.0556" lon="19.94536">
        <ele>122.547605</ele>
        <time>2022-05-03T08:33:32.599Z</time>
      </trkpt>
      <trkpt lat="41.05555" lon="19.94524">
        <ele>122.547027</ele>
        <time>2022-05-03T08:33:36.622Z</time>
      </trkpt>
      <trkpt lat="41.0555" lon="19.94512">
        <ele>122.546452</ele>
        <time>2022-05-03T08:33:40.603Z</time>
      </trkpt>
      <trkpt lat="41.05546" lon="19.94499">
        <ele>122.545842</ele>
        <time>2022-05-03T08:33:44.630Z</time>
      </trkpt>
      <trkpt lat="41.05541" lon="19.94486">
        <ele>122.545215</ele>
        <time>2022-05-03T08:33:48.614Z</time>
      </trkpt>
      <trkpt lat="41.05535" lon="19.94473">
        <ele>122.544578</ele>
        <time>2022-05-03T08:33:52.612Z</time>
      </trkpt>
      <trkpt lat="41.0553" lon="19.94461">
        <ele>122.543954</ele>
        <time>2022-05-03T08:33:56.615Z</time>
      </trkpt>
      <trkpt lat="41.05524" lon="19.94449">
        <ele>122.543339</ele>
        <time>2022-05-03T08:34:00.642Z</time>
      </trkpt>
      <trkpt lat="41.05517" lon="19.94437">
        <ele>122.542729</ele>
        <time>2022-05-03T08:34:04.617Z</time>
      </trkpt>
      <trkpt lat="41.05509" lon="19.94426">
        <ele>122.542055</ele>
        <time>2022-05-03T08:34:08.609Z</time>
      </trkpt>
      <trkpt lat="41.05502" lon="19.94417">
        <ele>122.541513</ele>
        <time>2022-05-03T08:34:11.623Z</time>
      </trkpt>
      <trkpt lat="41.05495" lon="19.94407">
        <ele>122.540942</ele>
        <time>2022-05-03T08:34:14.634Z</time>
      </trkpt>
      <trkpt lat="41.05487" lon="19.94398">
        <ele>122.540323</ele>
        <time>2022-05-03T08:34:17.645Z</time>
      </trkpt>
      <trkpt lat="41.05479" lon="19.94388">
        <ele>122.539702</ele>
        <time>2022-05-03T08:34:20.653Z</time>
      </trkpt>
      <trkpt lat="41.05471" lon="19.94378">
        <ele>122.387607</ele>
        <time>2022-05-03T08:34:23.629Z</time>
      </trkpt>
      <trkpt lat="41.05462" lon="19.94367">
        <ele>122.041836</ele>
        <time>2022-05-03T08:34:26.626Z</time>
      </trkpt>
      <trkpt lat="41.05454" lon="19.94356">
        <ele>121.684912</ele>
        <time>2022-05-03T08:34:29.599Z</time>
      </trkpt>
      <trkpt lat="41.05445" lon="19.94343">
        <ele>121.300232</ele>
        <time>2022-05-03T08:34:32.617Z</time>
      </trkpt>
      <trkpt lat="41.05439" lon="19.94334">
        <ele>121.030037</ele>
        <time>2022-05-03T08:34:34.656Z</time>
      </trkpt>
      <trkpt lat="41.05433" lon="19.94324">
        <ele>120.753954</ele>
        <time>2022-05-03T08:34:36.597Z</time>
      </trkpt>
      <trkpt lat="41.05427" lon="19.94314">
        <ele>120.460147</ele>
        <time>2022-05-03T08:34:38.625Z</time>
      </trkpt>
      <trkpt lat="41.05422" lon="19.94302">
        <ele>120.164435</ele>
        <time>2022-05-03T08:34:40.608Z</time>
      </trkpt>
      <trkpt lat="41.05417" lon="19.94289">
        <ele>119.8363</ele>
        <time>2022-05-03T08:34:42.621Z</time>
      </trkpt>
      <trkpt lat="41.05411" lon="19.94275">
        <ele>119.485775</ele>
        <time>2022-05-03T08:34:44.636Z</time>
      </trkpt>
      <trkpt lat="41.05406" lon="19.9426">
        <ele>119.122619</ele>
        <time>2022-05-03T08:34:46.625Z</time>
      </trkpt>
      <trkpt lat="41.05401" lon="19.94244">
        <ele>118.740776</ele>
        <time>2022-05-03T08:34:48.610Z</time>
      </trkpt>
      <trkpt lat="41.05397" lon="19.94228">
        <ele>118.352856</ele>
        <time>2022-05-03T08:34:50.651Z</time>
      </trkpt>
      <trkpt lat="41.05393" lon="19.9421">
        <ele>117.939044</ele>
        <time>2022-05-03T08:34:52.629Z</time>
      </trkpt>
      <trkpt lat="41.0539" lon="19.9419">
        <ele>117.50341</ele>
        <time>2022-05-03T08:34:54.612Z</time>
      </trkpt>
      <trkpt lat="41.05388" lon="19.9417">
        <ele>117.097271</ele>
        <time>2022-05-03T08:34:56.594Z</time>
      </trkpt>
      <trkpt lat="41.05387" lon="19.94149">
        <ele>116.759115</ele>
        <time>2022-05-03T08:34:58.619Z</time>
      </trkpt>
      <trkpt lat="41.05387" lon="19.94126">
        <ele>116.405491</ele>
        <time>2022-05-03T08:35:00.645Z</time>
      </trkpt>
      <trkpt lat="41.05388" lon="19.94104">
        <ele>116.050038</ele>
        <time>2022-05-03T08:35:02.619Z</time>
      </trkpt>
      <trkpt lat="41.05391" lon="19.94082">
        <ele>115.682329</ele>
        <time>2022-05-03T08:35:04.610Z</time>
      </trkpt>
      <trkpt lat="41.05395" lon="19.94059">
        <ele>115.30603</ele>
        <time>2022-05-03T08:35:06.620Z</time>
      </trkpt>
      <trkpt lat="41.05397" lon="19.94047">
        <ele>115.113562</ele>
        <time>2022-05-03T08:35:07.612Z</time>
      </trkpt>
      <trkpt lat="41.054" lon="19.94035">
        <ele>114.920521</ele>
        <time>2022-05-03T08:35:08.612Z</time>
      </trkpt>
      <trkpt lat="41.05402" lon="19.94024">
        <ele>114.72651</ele>
        <time>2022-05-03T08:35:09.630Z</time>
      </trkpt>
      <trkpt lat="41.05404" lon="19.94012">
        <ele>114.533044</ele>
        <time>2022-05-03T08:35:10.620Z</time>
      </trkpt>
      <trkpt lat="41.05407" lon="19.94001">
        <ele>114.342673</ele>
        <time>2022-05-03T08:35:11.678Z</time>
      </trkpt>
      <trkpt lat="41.05409" lon="19.93989">
        <ele>114.148662</ele>
        <time>2022-05-03T08:35:12.640Z</time>
      </trkpt>
      <trkpt lat="41.05411" lon="19.93977">
        <ele>113.953648</ele>
        <time>2022-05-03T08:35:13.621Z</time>
      </trkpt>
      <trkpt lat="41.05413" lon="19.93965">
        <ele>113.759652</ele>
        <time>2022-05-03T08:35:14.623Z</time>
      </trkpt>
      <trkpt lat="41.05415" lon="19.93953">
        <ele>113.558757</ele>
        <time>2022-05-03T08:35:15.612Z</time>
      </trkpt>
      <trkpt lat="41.05417" lon="19.93941">
        <ele>113.430166</ele>
        <time>2022-05-03T08:35:16.607Z</time>
      </trkpt>
      <trkpt lat="41.0542" lon="19.93918">
        <ele>113.399386</ele>
        <time>2022-05-03T08:35:18.634Z</time>
      </trkpt>
      <trkpt lat="41.05425" lon="19.93896">
        <ele>113.36947</ele>
        <time>2022-05-03T08:35:20.622Z</time>
      </trkpt>
      <trkpt lat="41.0543" lon="19.93875">
        <ele>113.339754</ele>
        <time>2022-05-03T08:35:22.613Z</time>
      </trkpt>
      <trkpt lat="41.05437" lon="19.93855">
        <ele>113.310515</ele>
        <time>2022-05-03T08:35:24.620Z</time>
      </trkpt>
      <trkpt lat="41.05444" lon="19.93836">
        <ele>113.282163</ele>
        <time>2022-05-03T08:35:26.636Z</time>
      </trkpt>
      <trkpt lat="41.05452" lon="19.93818">
        <ele>113.255301</ele>
        <time>2022-05-03T08:35:28.645Z</time>
      </trkpt>
      <trkpt lat="41.0546" lon="19.93802">
        <ele>113.229516</ele>
        <time>2022-05-03T08:35:30.613Z</time>
      </trkpt>
      <trkpt lat="41.05468" lon="19.93787">
        <ele>113.204849</ele>
        <time>2022-05-03T08:35:32.634Z</time>
      </trkpt>
      <trkpt lat="41.05476" lon="19.93774">
        <ele>113.182089</ele>
        <time>2022-05-03T08:35:34.604Z</time>
      </trkpt>
      <trkpt lat="41.05484" lon="19.93762">
        <ele>113.161069</ele>
        <time>2022-05-03T08:35:36.622Z</time>
      </trkpt>
      <trkpt lat="41.05491" lon="19.9375">
        <ele>113.141342</ele>
        <time>2022-05-03T08:35:38.604Z</time>
      </trkpt>
      <trkpt lat="41.05499" lon="19.93739">
        <ele>113.1216</ele>
        <time>2022-05-03T08:35:40.606Z</time>
      </trkpt>
      <trkpt lat="41.05506" lon="19.93728">
        <ele>113.330826</ele>
        <time>2022-05-03T08:35:42.618Z</time>
      </trkpt>
      <trkpt lat="41.05513" lon="19.93718">
        <ele>113.549006</ele>
        <time>2022-05-03T08:35:44.632Z</time>
      </trkpt>
      <trkpt lat="41.05519" lon="19.93709">
        <ele>113.744793</ele>
        <time>2022-05-03T08:35:46.623Z</time>
      </trkpt>
      <trkpt lat="41.05527" lon="19.93697">
        <ele>114.007318</ele>
        <time>2022-05-03T08:35:49.654Z</time>
      </trkpt>
      <trkpt lat="41.05534" lon="19.93684">
        <ele>114.26193</ele>
        <time>2022-05-03T08:35:52.616Z</time>
      </trkpt>
      <trkpt lat="41.05542" lon="19.93671">
        <ele>114.5306</ele>
        <time>2022-05-03T08:35:55.620Z</time>
      </trkpt>
      <trkpt lat="41.0555" lon="19.93659">
        <ele>114.789057</ele>
        <time>2022-05-03T08:35:58.616Z</time>
      </trkpt>
      <trkpt lat="41.05558" lon="19.93644">
        <ele>115.084654</ele>
        <time>2022-05-03T08:36:01.636Z</time>
      </trkpt>
      <trkpt lat="41.05564" lon="19.93633">
        <ele>115.30185</ele>
        <time>2022-05-03T08:36:03.605Z</time>
      </trkpt>
      <trkpt lat="41.05571" lon="19.93622">
        <ele>115.528065</ele>
        <time>2022-05-03T08:36:05.604Z</time>
      </trkpt>
      <trkpt lat="41.05577" lon="19.93611">
        <ele>115.758181</ele>
        <time>2022-05-03T08:36:07.631Z</time>
      </trkpt>
      <trkpt lat="41.05584" lon="19.936">
        <ele>115.988228</ele>
        <time>2022-05-03T08:36:09.627Z</time>
      </trkpt>
      <trkpt lat="41.0559" lon="19.93589">
        <ele>116.204158</ele>
        <time>2022-05-03T08:36:11.620Z</time>
      </trkpt>
      <trkpt lat="41.05596" lon="19.93579">
        <ele>116.411073</ele>
        <time>2022-05-03T08:36:13.617Z</time>
      </trkpt>
      <trkpt lat="41.05601" lon="19.93569">
        <ele>116.609002</ele>
        <time>2022-05-03T08:36:15.620Z</time>
      </trkpt>
      <trkpt lat="41.05607" lon="19.93559">
        <ele>116.808387</ele>
        <time>2022-05-03T08:36:17.620Z</time>
      </trkpt>
      <trkpt lat="41.05612" lon="19.93549">
        <ele>116.929646</ele>
        <time>2022-05-03T08:36:19.651Z</time>
      </trkpt>
      <trkpt lat="41.05617" lon="19.93538">
        <ele>116.80189</ele>
        <time>2022-05-03T08:36:21.619Z</time>
      </trkpt>
      <trkpt lat="41.05622" lon="19.93528">
        <ele>116.677344</ele>
        <time>2022-05-03T08:36:23.636Z</time>
      </trkpt>
      <trkpt lat="41.05626" lon="19.93517">
        <ele>116.547562</ele>
        <time>2022-05-03T08:36:25.641Z</time>
      </trkpt>
      <trkpt lat="41.0563" lon="19.93506">
        <ele>116.421507</ele>
        <time>2022-05-03T08:36:27.620Z</time>
      </trkpt>
      <trkpt lat="41.05636" lon="19.93491">
        <ele>116.248196</ele>
        <time>2022-05-03T08:36:30.633Z</time>
      </trkpt>
      <trkpt lat="41.05643" lon="19.93475">
        <ele>116.064404</ele>
        <time>2022-05-03T08:36:33.618Z</time>
      </trkpt>
      <trkpt lat="41.05647" lon="19.93463">
        <ele>115.926693</ele>
        <time>2022-05-03T08:36:35.623Z</time>
      </trkpt>
      <trkpt lat="41.05652" lon="19.93451">
        <ele>115.780698</ele>
        <time>2022-05-03T08:36:37.615Z</time>
      </trkpt>
      <trkpt lat="41.05657" lon="19.93438">
        <ele>115.629496</ele>
        <time>2022-05-03T08:36:39.615Z</time>
      </trkpt>
      <trkpt lat="41.05662" lon="19.93425">
        <ele>115.486259</ele>
        <time>2022-05-03T08:36:41.622Z</time>
      </trkpt>
      <trkpt lat="41.05667" lon="19.93413">
        <ele>115.341942</ele>
        <time>2022-05-03T08:36:43.634Z</time>
      </trkpt>
      <trkpt lat="41.05672" lon="19.93401">
        <ele>115.193588</ele>
        <time>2022-05-03T08:36:45.623Z</time>
      </trkpt>
      <trkpt lat="41.05678" lon="19.93388">
        <ele>115.045671</ele>
        <time>2022-05-03T08:36:47.624Z</time>
      </trkpt>
      <trkpt lat="41.05684" lon="19.93376">
        <ele>114.901659</ele>
        <time>2022-05-03T08:36:49.615Z</time>
      </trkpt>
      <trkpt lat="41.0569" lon="19.93365">
        <ele>114.754329</ele>
        <time>2022-05-03T08:36:51.647Z</time>
      </trkpt>
      <trkpt lat="41.05696" lon="19.93354">
        <ele>114.611251</ele>
        <time>2022-05-03T08:36:53.617Z</time>
      </trkpt>
      <trkpt lat="41.05703" lon="19.93343">
        <ele>114.440994</ele>
        <time>2022-05-03T08:36:55.623Z</time>
      </trkpt>
      <trkpt lat="41.05709" lon="19.93332">
        <ele>114.195968</ele>
        <time>2022-05-03T08:36:57.617Z</time>
      </trkpt>
      <trkpt lat="41.05715" lon="19.93322">
        <ele>113.953623</ele>
        <time>2022-05-03T08:36:59.606Z</time>
      </trkpt>
      <trkpt lat="41.05722" lon="19.93311">
        <ele>113.706997</ele>
        <time>2022-05-03T08:37:01.606Z</time>
      </trkpt>
      <trkpt lat="41.05729" lon="19.933">
        <ele>113.44891</ele>
        <time>2022-05-03T08:37:03.616Z</time>
      </trkpt>
      <trkpt lat="41.05736" lon="19.93288">
        <ele>113.182121</ele>
        <time>2022-05-03T08:37:05.619Z</time>
      </trkpt>
      <trkpt lat="41.05743" lon="19.93277">
        <ele>112.916706</ele>
        <time>2022-05-03T08:37:07.617Z</time>
      </trkpt>
      <trkpt lat="41.0575" lon="19.93266">
        <ele>112.660001</ele>
        <time>2022-05-03T08:37:09.648Z</time>
      </trkpt>
      <trkpt lat="41.05757" lon="19.93255">
        <ele>112.410598</ele>
        <time>2022-05-03T08:37:11.633Z</time>
      </trkpt>
      <trkpt lat="41.05763" lon="19.93245">
        <ele>112.162588</ele>
        <time>2022-05-03T08:37:13.619Z</time>
      </trkpt>
      <trkpt lat="41.0577" lon="19.93234">
        <ele>111.920445</ele>
        <time>2022-05-03T08:37:15.668Z</time>
      </trkpt>
      <trkpt lat="41.05776" lon="19.93224">
        <ele>111.685282</ele>
        <time>2022-05-03T08:37:17.622Z</time>
      </trkpt>
      <trkpt lat="41.05782" lon="19.93214">
        <ele>111.451629</ele>
        <time>2022-05-03T08:37:19.602Z</time>
      </trkpt>
      <trkpt lat="41.05788" lon="19.93204">
        <ele>111.216582</ele>
        <time>2022-05-03T08:37:21.618Z</time>
      </trkpt>
      <trkpt lat="41.05795" lon="19.93194">
        <ele>110.987077</ele>
        <time>2022-05-03T08:37:23.608Z</time>
      </trkpt>
      <trkpt lat="41.05801" lon="19.93184">
        <ele>110.761851</ele>
        <time>2022-05-03T08:37:25.619Z</time>
      </trkpt>
      <trkpt lat="41.05807" lon="19.93175">
        <ele>110.542267</ele>
        <time>2022-05-03T08:37:27.616Z</time>
      </trkpt>
      <trkpt lat="41.05813" lon="19.93165">
        <ele>110.305192</ele>
        <time>2022-05-03T08:37:29.615Z</time>
      </trkpt>
      <trkpt lat="41.0582" lon="19.93155">
        <ele>110.205565</ele>
        <time>2022-05-03T08:37:31.616Z</time>
      </trkpt>
      <trkpt lat="41.05827" lon="19.93146">
        <ele>110.178847</ele>
        <time>2022-05-03T08:37:33.621Z</time>
      </trkpt>
      <trkpt lat="41.05835" lon="19.93137">
        <ele>110.152306</ele>
        <time>2022-05-03T08:37:35.625Z</time>
      </trkpt>
      <trkpt lat="41.05842" lon="19.93129">
        <ele>110.125739</ele>
        <time>2022-05-03T08:37:37.623Z</time>
      </trkpt>
      <trkpt lat="41.0585" lon="19.93121">
        <ele>110.098657</ele>
        <time>2022-05-03T08:37:39.600Z</time>
      </trkpt>
      <trkpt lat="41.05858" lon="19.93112">
        <ele>110.072171</ele>
        <time>2022-05-03T08:37:41.617Z</time>
      </trkpt>
      <trkpt lat="41.05865" lon="19.93104">
        <ele>110.045477</ele>
        <time>2022-05-03T08:37:43.624Z</time>
      </trkpt>
      <trkpt lat="41.05873" lon="19.93095">
        <ele>110.017731</ele>
        <time>2022-05-03T08:37:45.619Z</time>
      </trkpt>
      <trkpt lat="41.05881" lon="19.93086">
        <ele>109.988836</ele>
        <time>2022-05-03T08:37:47.622Z</time>
      </trkpt>
      <trkpt lat="41.0589" lon="19.93077">
        <ele>109.960103</ele>
        <time>2022-05-03T08:37:49.628Z</time>
      </trkpt>
      <trkpt lat="41.05898" lon="19.93069">
        <ele>109.93289</ele>
        <time>2022-05-03T08:37:51.622Z</time>
      </trkpt>
      <trkpt lat="41.05905" lon="19.9306">
        <ele>109.906622</ele>
        <time>2022-05-03T08:37:53.622Z</time>
      </trkpt>
      <trkpt lat="41.05912" lon="19.93052">
        <ele>109.881192</ele>
        <time>2022-05-03T08:37:55.624Z</time>
      </trkpt>
      <trkpt lat="41.05919" lon="19.93045">
        <ele>109.856562</ele>
        <time>2022-05-03T08:37:57.625Z</time>
      </trkpt>
      <trkpt lat="41.05926" lon="19.93037">
        <ele>109.832225</ele>
        <time>2022-05-03T08:37:59.612Z</time>
      </trkpt>
      <trkpt lat="41.05934" lon="19.9303">
        <ele>109.807595</ele>
        <time>2022-05-03T08:38:01.644Z</time>
      </trkpt>
      <trkpt lat="41.05941" lon="19.93022">
        <ele>109.782502</ele>
        <time>2022-05-03T08:38:03.632Z</time>
      </trkpt>
      <trkpt lat="41.05948" lon="19.93014">
        <ele>109.756689</ele>
        <time>2022-05-03T08:38:05.606Z</time>
      </trkpt>
      <trkpt lat="41.05956" lon="19.93006">
        <ele>109.776317</ele>
        <time>2022-05-03T08:38:07.614Z</time>
      </trkpt>
      <trkpt lat="41.05964" lon="19.92998">
        <ele>109.878672</ele>
        <time>2022-05-03T08:38:09.620Z</time>
      </trkpt>
      <trkpt lat="41.05971" lon="19.92991">
        <ele>109.980001</ele>
        <time>2022-05-03T08:38:11.620Z</time>
      </trkpt>
      <trkpt lat="41.05979" lon="19.92984">
        <ele>110.082744</ele>
        <time>2022-05-03T08:38:13.640Z</time>
      </trkpt>
      <trkpt lat="41.05987" lon="19.92976">
        <ele>110.186777</ele>
        <time>2022-05-03T08:38:15.630Z</time>
      </trkpt>
      <trkpt lat="41.05995" lon="19.9297">
        <ele>110.28865</ele>
        <time>2022-05-03T08:38:17.608Z</time>
      </trkpt>
      <trkpt lat="41.06006" lon="19.92961">
        <ele>110.43051</ele>
        <time>2022-05-03T08:38:20.625Z</time>
      </trkpt>
      <trkpt lat="41.06015" lon="19.92954">
        <ele>110.536932</ele>
        <time>2022-05-03T08:38:22.629Z</time>
      </trkpt>
      <trkpt lat="41.06023" lon="19.92948">
        <ele>110.640667</ele>
        <time>2022-05-03T08:38:24.667Z</time>
      </trkpt>
      <trkpt lat="41.06031" lon="19.92941">
        <ele>110.745876</ele>
        <time>2022-05-03T08:38:26.621Z</time>
      </trkpt>
      <trkpt lat="41.0604" lon="19.92935">
        <ele>110.852588</ele>
        <time>2022-05-03T08:38:28.603Z</time>
      </trkpt>
      <trkpt lat="41.06049" lon="19.92929">
        <ele>110.960461</ele>
        <time>2022-05-03T08:38:30.617Z</time>
      </trkpt>
      <trkpt lat="41.06057" lon="19.92924">
        <ele>111.06145</ele>
        <time>2022-05-03T08:38:32.619Z</time>
      </trkpt>
      <trkpt lat="41.06066" lon="19.92918">
        <ele>111.162667</ele>
        <time>2022-05-03T08:38:34.618Z</time>
      </trkpt>
      <trkpt lat="41.06074" lon="19.92912">
        <ele>111.263079</ele>
        <time>2022-05-03T08:38:36.614Z</time>
      </trkpt>
      <trkpt lat="41.06082" lon="19.92906">
        <ele>111.365402</ele>
        <time>2022-05-03T08:38:38.624Z</time>
      </trkpt>
      <trkpt lat="41.06091" lon="19.92901">
        <ele>111.465056</ele>
        <time>2022-05-03T08:38:40.622Z</time>
      </trkpt>
      <trkpt lat="41.06099" lon="19.92895">
        <ele>111.562417</ele>
        <time>2022-05-03T08:38:42.639Z</time>
      </trkpt>
      <trkpt lat="41.06107" lon="19.9289">
        <ele>111.663635</ele>
        <time>2022-05-03T08:38:44.635Z</time>
      </trkpt>
      <trkpt lat="41.06115" lon="19.92884">
        <ele>111.681562</ele>
        <time>2022-05-03T08:38:46.599Z</time>
      </trkpt>
      <trkpt lat="41.06124" lon="19.92879">
        <ele>111.6799</ele>
        <time>2022-05-03T08:38:48.600Z</time>
      </trkpt>
      <trkpt lat="41.06132" lon="19.92873">
        <ele>111.678151</ele>
        <time>2022-05-03T08:38:50.623Z</time>
      </trkpt>
      <trkpt lat="41.0614" lon="19.92867">
        <ele>111.676521</ele>
        <time>2022-05-03T08:38:52.660Z</time>
      </trkpt>
      <trkpt lat="41.06152" lon="19.92859">
        <ele>111.674196</ele>
        <time>2022-05-03T08:38:55.600Z</time>
      </trkpt>
      <trkpt lat="41.06161" lon="19.92854">
        <ele>111.672491</ele>
        <time>2022-05-03T08:38:57.610Z</time>
      </trkpt>
      <trkpt lat="41.06169" lon="19.92848">
        <ele>111.67087</ele>
        <time>2022-05-03T08:38:59.608Z</time>
      </trkpt>
      <trkpt lat="41.06181" lon="19.92839">
        <ele>111.668443</ele>
        <time>2022-05-03T08:39:02.621Z</time>
      </trkpt>
      <trkpt lat="41.06189" lon="19.92834">
        <ele>111.66674</ele>
        <time>2022-05-03T08:39:04.607Z</time>
      </trkpt>
      <trkpt lat="41.06199" lon="19.92829">
        <ele>111.664917</ele>
        <time>2022-05-03T08:39:06.595Z</time>
      </trkpt>
      <trkpt lat="41.06208" lon="19.92822">
        <ele>111.662972</ele>
        <time>2022-05-03T08:39:08.611Z</time>
      </trkpt>
      <trkpt lat="41.06218" lon="19.92815">
        <ele>111.660986</ele>
        <time>2022-05-03T08:39:10.605Z</time>
      </trkpt>
      <trkpt lat="41.06228" lon="19.92808">
        <ele>111.658971</ele>
        <time>2022-05-03T08:39:12.611Z</time>
      </trkpt>
      <trkpt lat="41.06238" lon="19.92801">
        <ele>111.656887</ele>
        <time>2022-05-03T08:39:14.644Z</time>
      </trkpt>
      <trkpt lat="41.06249" lon="19.92794">
        <ele>111.654785</ele>
        <time>2022-05-03T08:39:16.622Z</time>
      </trkpt>
      <trkpt lat="41.06259" lon="19.92787">
        <ele>111.652694</ele>
        <time>2022-05-03T08:39:18.632Z</time>
      </trkpt>
      <trkpt lat="41.0627" lon="19.9278">
        <ele>111.63161</ele>
        <time>2022-05-03T08:39:20.655Z</time>
      </trkpt>
      <trkpt lat="41.06281" lon="19.92772">
        <ele>111.454972</ele>
        <time>2022-05-03T08:39:22.638Z</time>
      </trkpt>
      <trkpt lat="41.06292" lon="19.92765">
        <ele>111.278334</ele>
        <time>2022-05-03T08:39:24.625Z</time>
      </trkpt>
      <trkpt lat="41.06303" lon="19.92757">
        <ele>111.098642</ele>
        <time>2022-05-03T08:39:26.603Z</time>
      </trkpt>
      <trkpt lat="41.06314" lon="19.9275">
        <ele>110.919445</ele>
        <time>2022-05-03T08:39:28.618Z</time>
      </trkpt>
      <trkpt lat="41.06325" lon="19.92742">
        <ele>110.739451</ele>
        <time>2022-05-03T08:39:30.611Z</time>
      </trkpt>
      <trkpt lat="41.06336" lon="19.92734">
        <ele>110.556464</ele>
        <time>2022-05-03T08:39:32.621Z</time>
      </trkpt>
      <trkpt lat="41.06348" lon="19.92727">
        <ele>110.375984</ele>
        <time>2022-05-03T08:39:34.615Z</time>
      </trkpt>
      <trkpt lat="41.06359" lon="19.92719">
        <ele>110.195505</ele>
        <time>2022-05-03T08:39:36.674Z</time>
      </trkpt>
      <trkpt lat="41.0637" lon="19.92712">
        <ele>110.020142</ele>
        <time>2022-05-03T08:39:38.608Z</time>
      </trkpt>
      <trkpt lat="41.06381" lon="19.92705">
        <ele>109.84272</ele>
        <time>2022-05-03T08:39:40.608Z</time>
      </trkpt>
      <trkpt lat="41.06392" lon="19.92698">
        <ele>109.668982</ele>
        <time>2022-05-03T08:39:42.624Z</time>
      </trkpt>
      <trkpt lat="41.06403" lon="19.9269">
        <ele>109.49156</ele>
        <time>2022-05-03T08:39:44.612Z</time>
      </trkpt>
      <trkpt lat="41.06413" lon="19.92683">
        <ele>109.317353</ele>
        <time>2022-05-03T08:39:46.607Z</time>
      </trkpt>
      <trkpt lat="41.06424" lon="19.92676">
        <ele>109.146534</ele>
        <time>2022-05-03T08:39:48.601Z</time>
      </trkpt>
      <trkpt lat="41.06434" lon="19.92669">
        <ele>109.060656</ele>
        <time>2022-05-03T08:39:50.607Z</time>
      </trkpt>
      <trkpt lat="41.06444" lon="19.92662">
        <ele>109.054755</ele>
        <time>2022-05-03T08:39:52.622Z</time>
      </trkpt>
      <trkpt lat="41.06454" lon="19.92655">
        <ele>109.048965</ele>
        <time>2022-05-03T08:39:54.617Z</time>
      </trkpt>
      <trkpt lat="41.06464" lon="19.92648">
        <ele>109.043045</ele>
        <time>2022-05-03T08:39:56.623Z</time>
      </trkpt>
      <trkpt lat="41.06474" lon="19.92641">
        <ele>109.037137</ele>
        <time>2022-05-03T08:39:58.646Z</time>
      </trkpt>
      <trkpt lat="41.06484" lon="19.92633">
        <ele>109.031088</ele>
        <time>2022-05-03T08:40:00.618Z</time>
      </trkpt>
      <trkpt lat="41.06494" lon="19.92625">
        <ele>109.025093</ele>
        <time>2022-05-03T08:40:02.604Z</time>
      </trkpt>
      <trkpt lat="41.06503" lon="19.92618">
        <ele>109.019269</ele>
        <time>2022-05-03T08:40:04.648Z</time>
      </trkpt>
      <trkpt lat="41.06513" lon="19.9261">
        <ele>109.013449</ele>
        <time>2022-05-03T08:40:06.611Z</time>
      </trkpt>
      <trkpt lat="41.06522" lon="19.92602">
        <ele>109.007675</ele>
        <time>2022-05-03T08:40:08.626Z</time>
      </trkpt>
      <trkpt lat="41.06531" lon="19.92594">
        <ele>109.002053</ele>
        <time>2022-05-03T08:40:10.669Z</time>
      </trkpt>
      <trkpt lat="41.0654" lon="19.92586">
        <ele>108.996518</ele>
        <time>2022-05-03T08:40:12.624Z</time>
      </trkpt>
      <trkpt lat="41.06548" lon="19.92578">
        <ele>108.991112</ele>
        <time>2022-05-03T08:40:14.627Z</time>
      </trkpt>
      <trkpt lat="41.06557" lon="19.92571">
        <ele>108.985772</ele>
        <time>2022-05-03T08:40:16.611Z</time>
      </trkpt>
      <trkpt lat="41.06565" lon="19.92563">
        <ele>108.980581</ele>
        <time>2022-05-03T08:40:18.617Z</time>
      </trkpt>
      <trkpt lat="41.06574" lon="19.92556">
        <ele>108.975262</ele>
        <time>2022-05-03T08:40:20.628Z</time>
      </trkpt>
      <trkpt lat="41.06581" lon="19.92549">
        <ele>108.970377</ele>
        <time>2022-05-03T08:40:22.615Z</time>
      </trkpt>
      <trkpt lat="41.0659" lon="19.92541">
        <ele>109.088687</ele>
        <time>2022-05-03T08:40:24.594Z</time>
      </trkpt>
      <trkpt lat="41.06599" lon="19.92532">
        <ele>109.227481</ele>
        <time>2022-05-03T08:40:26.623Z</time>
      </trkpt>
      <trkpt lat="41.06607" lon="19.92524">
        <ele>109.357172</ele>
        <time>2022-05-03T08:40:28.605Z</time>
      </trkpt>
      <trkpt lat="41.06616" lon="19.92516">
        <ele>109.495334</ele>
        <time>2022-05-03T08:40:30.640Z</time>
      </trkpt>
      <trkpt lat="41.06625" lon="19.92507">
        <ele>109.642582</ele>
        <time>2022-05-03T08:40:32.651Z</time>
      </trkpt>
      <trkpt lat="41.06635" lon="19.92498">
        <ele>109.788794</ele>
        <time>2022-05-03T08:40:34.612Z</time>
      </trkpt>
      <trkpt lat="41.06644" lon="19.9249">
        <ele>109.933338</ele>
        <time>2022-05-03T08:40:36.625Z</time>
      </trkpt>
      <trkpt lat="41.06653" lon="19.92481">
        <ele>110.073728</ele>
        <time>2022-05-03T08:40:38.613Z</time>
      </trkpt>
      <trkpt lat="41.06662" lon="19.92474">
        <ele>110.20709</ele>
        <time>2022-05-03T08:40:40.615Z</time>
      </trkpt>
      <trkpt lat="41.0667" lon="19.92466">
        <ele>110.342569</ele>
        <time>2022-05-03T08:40:42.599Z</time>
      </trkpt>
      <trkpt lat="41.06679" lon="19.92457">
        <ele>110.483992</ele>
        <time>2022-05-03T08:40:44.616Z</time>
      </trkpt>
      <trkpt lat="41.06689" lon="19.92449">
        <ele>110.628535</ele>
        <time>2022-05-03T08:40:46.611Z</time>
      </trkpt>
      <trkpt lat="41.06698" lon="19.9244">
        <ele>110.774126</ele>
        <time>2022-05-03T08:40:48.624Z</time>
      </trkpt>
      <trkpt lat="41.06707" lon="19.92432">
        <ele>110.911741</ele>
        <time>2022-05-03T08:40:50.607Z</time>
      </trkpt>
      <trkpt lat="41.06716" lon="19.92423">
        <ele>111.049971</ele>
        <time>2022-05-03T08:40:52.650Z</time>
      </trkpt>
      <trkpt lat="41.06724" lon="19.92415">
        <ele>111.183079</ele>
        <time>2022-05-03T08:40:54.653Z</time>
      </trkpt>
      <trkpt lat="41.06732" lon="19.92407">
        <ele>111.258672</ele>
        <time>2022-05-03T08:40:56.620Z</time>
      </trkpt>
      <trkpt lat="41.0674" lon="19.92398">
        <ele>111.24761</ele>
        <time>2022-05-03T08:40:58.623Z</time>
      </trkpt>
      <trkpt lat="41.06749" lon="19.9239">
        <ele>111.236401</ele>
        <time>2022-05-03T08:41:00.613Z</time>
      </trkpt>
      <trkpt lat="41.06757" lon="19.92381">
        <ele>111.224908</ele>
        <time>2022-05-03T08:41:02.612Z</time>
      </trkpt>
      <trkpt lat="41.06766" lon="19.92372">
        <ele>111.213161</ele>
        <time>2022-05-03T08:41:04.614Z</time>
      </trkpt>
      <trkpt lat="41.06774" lon="19.92362">
        <ele>111.2013</ele>
        <time>2022-05-03T08:41:06.623Z</time>
      </trkpt>
      <trkpt lat="41.06783" lon="19.92352">
        <ele>111.188459</ele>
        <time>2022-05-03T08:41:08.622Z</time>
      </trkpt>
      <trkpt lat="41.06792" lon="19.92342">
        <ele>111.176073</ele>
        <time>2022-05-03T08:41:10.615Z</time>
      </trkpt>
      <trkpt lat="41.068" lon="19.92331">
        <ele>111.164033</ele>
        <time>2022-05-03T08:41:12.627Z</time>
      </trkpt>
      <trkpt lat="41.06809" lon="19.92321">
        <ele>111.151617</ele>
        <time>2022-05-03T08:41:14.615Z</time>
      </trkpt>
      <trkpt lat="41.06817" lon="19.9231">
        <ele>111.13879</ele>
        <time>2022-05-03T08:41:16.652Z</time>
      </trkpt>
      <trkpt lat="41.06826" lon="19.92298">
        <ele>111.125811</ele>
        <time>2022-05-03T08:41:18.633Z</time>
      </trkpt>
      <trkpt lat="41.06834" lon="19.92287">
        <ele>111.112996</ele>
        <time>2022-05-03T08:41:20.600Z</time>
      </trkpt>
      <trkpt lat="41.06842" lon="19.92276">
        <ele>111.100624</ele>
        <time>2022-05-03T08:41:22.658Z</time>
      </trkpt>
      <trkpt lat="41.0685" lon="19.92265">
        <ele>111.088336</ele>
        <time>2022-05-03T08:41:24.611Z</time>
      </trkpt>
      <trkpt lat="41.06858" lon="19.92254">
        <ele>111.075945</ele>
        <time>2022-05-03T08:41:26.614Z</time>
      </trkpt>
      <trkpt lat="41.06867" lon="19.92242">
        <ele>110.93762</ele>
        <time>2022-05-03T08:41:28.595Z</time>
      </trkpt>
      <trkpt lat="41.06875" lon="19.9223">
        <ele>110.715064</ele>
        <time>2022-05-03T08:41:30.625Z</time>
      </trkpt>
      <trkpt lat="41.06884" lon="19.92218">
        <ele>110.482526</ele>
        <time>2022-05-03T08:41:32.609Z</time>
      </trkpt>
      <trkpt lat="41.06893" lon="19.92206">
        <ele>110.254914</ele>
        <time>2022-05-03T08:41:34.663Z</time>
      </trkpt>
      <trkpt lat="41.06901" lon="19.92195">
        <ele>110.037847</ele>
        <time>2022-05-03T08:41:36.636Z</time>
      </trkpt>
      <trkpt lat="41.06909" lon="19.92183">
        <ele>109.822764</ele>
        <time>2022-05-03T08:41:38.604Z</time>
      </trkpt>
      <trkpt lat="41.06917" lon="19.92172">
        <ele>109.602889</ele>
        <time>2022-05-03T08:41:40.607Z</time>
      </trkpt>
      <trkpt lat="41.06926" lon="19.92161">
        <ele>109.388179</ele>
        <time>2022-05-03T08:41:42.609Z</time>
      </trkpt>
      <trkpt lat="41.06934" lon="19.9215">
        <ele>109.178295</ele>
        <time>2022-05-03T08:41:44.656Z</time>
      </trkpt>
      <trkpt lat="41.06942" lon="19.9214">
        <ele>108.979059</ele>
        <time>2022-05-03T08:41:46.618Z</time>
      </trkpt>
      <trkpt lat="41.06951" lon="19.92129">
        <ele>108.7624</ele>
        <time>2022-05-03T08:41:48.656Z</time>
      </trkpt>
      <trkpt lat="41.0696" lon="19.92119">
        <ele>108.543471</ele>
        <time>2022-05-03T08:41:50.619Z</time>
      </trkpt>
      <trkpt lat="41.06969" lon="19.92108">
        <ele>108.320433</ele>
        <time>2022-05-03T08:41:52.600Z</time>
      </trkpt>
      <trkpt lat="41.06978" lon="19.92098">
        <ele>108.097249</ele>
        <time>2022-05-03T08:41:54.637Z</time>
      </trkpt>
      <trkpt lat="41.06988" lon="19.92088">
        <ele>107.868623</ele>
        <time>2022-05-03T08:41:56.657Z</time>
      </trkpt>
      <trkpt lat="41.06998" lon="19.92078">
        <ele>108.026388</ele>
        <time>2022-05-03T08:41:58.614Z</time>
      </trkpt>
      <trkpt lat="41.07009" lon="19.92068">
        <ele>108.34483</ele>
        <time>2022-05-03T08:42:00.598Z</time>
      </trkpt>
      <trkpt lat="41.07019" lon="19.92059">
        <ele>108.658934</ele>
        <time>2022-05-03T08:42:02.624Z</time>
      </trkpt>
      <trkpt lat="41.07029" lon="19.9205">
        <ele>108.975088</ele>
        <time>2022-05-03T08:42:04.620Z</time>
      </trkpt>
      <trkpt lat="41.07039" lon="19.92041">
        <ele>109.276233</ele>
        <time>2022-05-03T08:42:06.617Z</time>
      </trkpt>
      <trkpt lat="41.07048" lon="19.92034">
        <ele>109.553961</ele>
        <time>2022-05-03T08:42:08.620Z</time>
      </trkpt>
      <trkpt lat="41.07057" lon="19.92026">
        <ele>109.835089</ele>
        <time>2022-05-03T08:42:10.616Z</time>
      </trkpt>
      <trkpt lat="41.07067" lon="19.92018">
        <ele>110.133021</ele>
        <time>2022-05-03T08:42:12.652Z</time>
      </trkpt>
      <trkpt lat="41.07077" lon="19.9201">
        <ele>110.445008</ele>
        <time>2022-05-03T08:42:14.620Z</time>
      </trkpt>
      <trkpt lat="41.07087" lon="19.92001">
        <ele>110.752769</ele>
        <time>2022-05-03T08:42:16.602Z</time>
      </trkpt>
      <trkpt lat="41.07097" lon="19.91993">
        <ele>111.052948</ele>
        <time>2022-05-03T08:42:18.592Z</time>
      </trkpt>
      <trkpt lat="41.07107" lon="19.91985">
        <ele>111.349093</ele>
        <time>2022-05-03T08:42:20.615Z</time>
      </trkpt>
      <trkpt lat="41.07117" lon="19.91977">
        <ele>111.6385</ele>
        <time>2022-05-03T08:42:22.626Z</time>
      </trkpt>
      <trkpt lat="41.07126" lon="19.91969">
        <ele>111.921437</ele>
        <time>2022-05-03T08:42:24.615Z</time>
      </trkpt>
      <trkpt lat="41.07134" lon="19.9196">
        <ele>112.199948</ele>
        <time>2022-05-03T08:42:26.622Z</time>
      </trkpt>
      <trkpt lat="41.07142" lon="19.9195">
        <ele>112.458058</ele>
        <time>2022-05-03T08:42:28.598Z</time>
      </trkpt>
      <trkpt lat="41.07149" lon="19.9194">
        <ele>112.631875</ele>
        <time>2022-05-03T08:42:30.619Z</time>
      </trkpt>
      <trkpt lat="41.07156" lon="19.91929">
        <ele>112.809827</ele>
        <time>2022-05-03T08:42:32.628Z</time>
      </trkpt>
      <trkpt lat="41.07163" lon="19.91917">
        <ele>112.998611</ele>
        <time>2022-05-03T08:42:34.644Z</time>
      </trkpt>
      <trkpt lat="41.07169" lon="19.91903">
        <ele>113.199969</ele>
        <time>2022-05-03T08:42:36.602Z</time>
      </trkpt>
      <trkpt lat="41.07176" lon="19.91888">
        <ele>113.407889</ele>
        <time>2022-05-03T08:42:38.600Z</time>
      </trkpt>
      <trkpt lat="41.07181" lon="19.91874">
        <ele>113.610239</ele>
        <time>2022-05-03T08:42:40.661Z</time>
      </trkpt>
      <trkpt lat="41.07185" lon="19.91859">
        <ele>113.802457</ele>
        <time>2022-05-03T08:42:42.618Z</time>
      </trkpt>
      <trkpt lat="41.07189" lon="19.91844">
        <ele>113.993719</ele>
        <time>2022-05-03T08:42:44.608Z</time>
      </trkpt>
      <trkpt lat="41.07193" lon="19.9183">
        <ele>114.183803</ele>
        <time>2022-05-03T08:42:46.624Z</time>
      </trkpt>
      <trkpt lat="41.07196" lon="19.91815">
        <ele>114.368389</ele>
        <time>2022-05-03T08:42:48.622Z</time>
      </trkpt>
      <trkpt lat="41.07199" lon="19.91801">
        <ele>114.55684</ele>
        <time>2022-05-03T08:42:50.619Z</time>
      </trkpt>
      <trkpt lat="41.07202" lon="19.91785">
        <ele>114.754073</ele>
        <time>2022-05-03T08:42:52.657Z</time>
      </trkpt>
      <trkpt lat="41.07204" lon="19.91769">
        <ele>114.952326</ele>
        <time>2022-05-03T08:42:54.615Z</time>
      </trkpt>
      <trkpt lat="41.07205" lon="19.91754">
        <ele>115.140996</ele>
        <time>2022-05-03T08:42:56.597Z</time>
      </trkpt>
      <trkpt lat="41.07204" lon="19.9174">
        <ele>115.32293</ele>
        <time>2022-05-03T08:42:58.652Z</time>
      </trkpt>
      <trkpt lat="41.07203" lon="19.91725">
        <ele>115.391163</ele>
        <time>2022-05-03T08:43:00.616Z</time>
      </trkpt>
      <trkpt lat="41.07201" lon="19.91711">
        <ele>115.410998</ele>
        <time>2022-05-03T08:43:02.616Z</time>
      </trkpt>
      <trkpt lat="41.07199" lon="19.91696">
        <ele>115.430765</ele>
        <time>2022-05-03T08:43:04.645Z</time>
      </trkpt>
      <trkpt lat="41.07197" lon="19.91681">
        <ele>115.451959</ele>
        <time>2022-05-03T08:43:06.624Z</time>
      </trkpt>
      <trkpt lat="41.07195" lon="19.91665">
        <ele>115.473153</ele>
        <time>2022-05-03T08:43:08.619Z</time>
      </trkpt>
      <trkpt lat="41.07193" lon="19.91651">
        <ele>115.493318</ele>
        <time>2022-05-03T08:43:10.607Z</time>
      </trkpt>
      <trkpt lat="41.0719" lon="19.91637">
        <ele>115.51236</ele>
        <time>2022-05-03T08:43:12.623Z</time>
      </trkpt>
      <trkpt lat="41.07188" lon="19.91623">
        <ele>115.531498</ele>
        <time>2022-05-03T08:43:14.603Z</time>
      </trkpt>
      <trkpt lat="41.07186" lon="19.91609">
        <ele>115.550314</ele>
        <time>2022-05-03T08:43:16.609Z</time>
      </trkpt>
      <trkpt lat="41.07184" lon="19.91596">
        <ele>115.568828</ele>
        <time>2022-05-03T08:43:18.630Z</time>
      </trkpt>
      <trkpt lat="41.07181" lon="19.91582">
        <ele>115.587553</ele>
        <time>2022-05-03T08:43:20.616Z</time>
      </trkpt>
      <trkpt lat="41.07179" lon="19.9157">
        <ele>115.604446</ele>
        <time>2022-05-03T08:43:22.619Z</time>
      </trkpt>
      <trkpt lat="41.07177" lon="19.91559">
        <ele>115.620603</ele>
        <time>2022-05-03T08:43:24.626Z</time>
      </trkpt>
      <trkpt lat="41.07175" lon="19.91545">
        <ele>115.639239</ele>
        <time>2022-05-03T08:43:26.648Z</time>
      </trkpt>
      <trkpt lat="41.07173" lon="19.91532">
        <ele>115.657885</ele>
        <time>2022-05-03T08:43:28.598Z</time>
      </trkpt>
      <trkpt lat="41.0717" lon="19.91518">
        <ele>115.676531</ele>
        <time>2022-05-03T08:43:30.613Z</time>
      </trkpt>
      <trkpt lat="41.07168" lon="19.91505">
        <ele>115.694575</ele>
        <time>2022-05-03T08:43:32.651Z</time>
      </trkpt>
      <trkpt lat="41.07166" lon="19.91492">
        <ele>116.023024</ele>
        <time>2022-05-03T08:43:34.606Z</time>
      </trkpt>
      <trkpt lat="41.07165" lon="19.91479">
        <ele>116.445645</ele>
        <time>2022-05-03T08:43:36.604Z</time>
      </trkpt>
      <trkpt lat="41.07162" lon="19.91467">
        <ele>116.857719</ele>
        <time>2022-05-03T08:43:38.653Z</time>
      </trkpt>
      <trkpt lat="41.0716" lon="19.91454">
        <ele>117.270049</ele>
        <time>2022-05-03T08:43:40.611Z</time>
      </trkpt>
      <trkpt lat="41.07158" lon="19.91437">
        <ele>117.856416</ele>
        <time>2022-05-03T08:43:43.612Z</time>
      </trkpt>
      <trkpt lat="41.07156" lon="19.91424">
        <ele>118.26239</ele>
        <time>2022-05-03T08:43:45.609Z</time>
      </trkpt>
      <trkpt lat="41.07154" lon="19.91413">
        <ele>118.652243</ele>
        <time>2022-05-03T08:43:47.609Z</time>
      </trkpt>
      <trkpt lat="41.07153" lon="19.91401">
        <ele>119.047087</ele>
        <time>2022-05-03T08:43:49.652Z</time>
      </trkpt>
      <trkpt lat="41.07152" lon="19.91388">
        <ele>119.453075</ele>
        <time>2022-05-03T08:43:51.619Z</time>
      </trkpt>
      <trkpt lat="41.07151" lon="19.91376">
        <ele>119.843489</ele>
        <time>2022-05-03T08:43:53.623Z</time>
      </trkpt>
      <trkpt lat="41.07151" lon="19.91364">
        <ele>120.243537</ele>
        <time>2022-05-03T08:43:55.617Z</time>
      </trkpt>
      <trkpt lat="41.07151" lon="19.91352">
        <ele>120.637201</ele>
        <time>2022-05-03T08:43:57.608Z</time>
      </trkpt>
      <trkpt lat="41.07152" lon="19.91335">
        <ele>121.18518</ele>
        <time>2022-05-03T08:44:00.642Z</time>
      </trkpt>
      <trkpt lat="41.07153" lon="19.91318">
        <ele>121.726677</ele>
        <time>2022-05-03T08:44:03.601Z</time>
      </trkpt>
      <trkpt lat="41.07154" lon="19.91301">
        <ele>122.290272</ele>
        <time>2022-05-03T08:44:06.658Z</time>
      </trkpt>
      <trkpt lat="41.07156" lon="19.91284">
        <ele>122.847896</ele>
        <time>2022-05-03T08:44:09.612Z</time>
      </trkpt>
      <trkpt lat="41.07157" lon="19.91268">
        <ele>123.381346</ele>
        <time>2022-05-03T08:44:12.648Z</time>
      </trkpt>
      <trkpt lat="41.07158" lon="19.91252">
        <ele>122.738975</ele>
        <time>2022-05-03T08:44:15.623Z</time>
      </trkpt>
      <trkpt lat="41.0716" lon="19.91236">
        <ele>121.843648</ele>
        <time>2022-05-03T08:44:18.627Z</time>
      </trkpt>
      <trkpt lat="41.07162" lon="19.91218">
        <ele>120.896379</ele>
        <time>2022-05-03T08:44:21.618Z</time>
      </trkpt>
      <trkpt lat="41.07164" lon="19.91201">
        <ele>119.970386</ele>
        <time>2022-05-03T08:44:24.612Z</time>
      </trkpt>
      <trkpt lat="41.07166" lon="19.91185">
        <ele>119.066756</ele>
        <time>2022-05-03T08:44:27.620Z</time>
      </trkpt>
      <trkpt lat="41.07168" lon="19.91168">
        <ele>118.147813</ele>
        <time>2022-05-03T08:44:30.631Z</time>
      </trkpt>
      <trkpt lat="41.0717" lon="19.91151">
        <ele>117.205864</ele>
        <time>2022-05-03T08:44:33.621Z</time>
      </trkpt>
      <trkpt lat="41.07172" lon="19.91139">
        <ele>116.560613</ele>
        <time>2022-05-03T08:44:35.594Z</time>
      </trkpt>
      <trkpt lat="41.07174" lon="19.91127">
        <ele>115.91406</ele>
        <time>2022-05-03T08:44:37.619Z</time>
      </trkpt>
      <trkpt lat="41.07175" lon="19.91115">
        <ele>115.248878</ele>
        <time>2022-05-03T08:44:39.641Z</time>
      </trkpt>
      <trkpt lat="41.07177" lon="19.91103">
        <ele>114.576945</ele>
        <time>2022-05-03T08:44:41.611Z</time>
      </trkpt>
      <trkpt lat="41.0718" lon="19.91091">
        <ele>113.917527</ele>
        <time>2022-05-03T08:44:43.592Z</time>
      </trkpt>
      <trkpt lat="41.07182" lon="19.9108">
        <ele>113.279562</ele>
        <time>2022-05-03T08:44:45.619Z</time>
      </trkpt>
      <trkpt lat="41.07187" lon="19.91063">
        <ele>112.312227</ele>
        <time>2022-05-03T08:44:48.620Z</time>
      </trkpt>
      <trkpt lat="41.0719" lon="19.91051">
        <ele>111.652428</ele>
        <time>2022-05-03T08:44:50.642Z</time>
      </trkpt>
      <trkpt lat="41.07193" lon="19.91039">
        <ele>110.984993</ele>
        <time>2022-05-03T08:44:52.607Z</time>
      </trkpt>
      <trkpt lat="41.07196" lon="19.91027">
        <ele>110.476049</ele>
        <time>2022-05-03T08:44:54.619Z</time>
      </trkpt>
      <trkpt lat="41.07199" lon="19.91016">
        <ele>110.172483</ele>
        <time>2022-05-03T08:44:56.607Z</time>
      </trkpt>
      <trkpt lat="41.07203" lon="19.91003">
        <ele>109.861036</ele>
        <time>2022-05-03T08:44:58.599Z</time>
      </trkpt>
      <trkpt lat="41.07206" lon="19.90991">
        <ele>109.538366</ele>
        <time>2022-05-03T08:45:00.618Z</time>
      </trkpt>
      <trkpt lat="41.07209" lon="19.90979">
        <ele>109.229278</ele>
        <time>2022-05-03T08:45:02.613Z</time>
      </trkpt>
      <trkpt lat="41.07213" lon="19.90966">
        <ele>108.915553</ele>
        <time>2022-05-03T08:45:04.627Z</time>
      </trkpt>
      <trkpt lat="41.07216" lon="19.90955">
        <ele>108.609839</ele>
        <time>2022-05-03T08:45:06.641Z</time>
      </trkpt>
      <trkpt lat="41.07219" lon="19.90943">
        <ele>108.302943</ele>
        <time>2022-05-03T08:45:08.620Z</time>
      </trkpt>
      <trkpt lat="41.07222" lon="19.90929">
        <ele>107.975557</ele>
        <time>2022-05-03T08:45:10.615Z</time>
      </trkpt>
      <trkpt lat="41.07224" lon="19.90916">
        <ele>107.652645</ele>
        <time>2022-05-03T08:45:12.646Z</time>
      </trkpt>
      <trkpt lat="41.07225" lon="19.90903">
        <ele>107.319724</ele>
        <time>2022-05-03T08:45:14.625Z</time>
      </trkpt>
      <trkpt lat="41.07226" lon="19.90889">
        <ele>106.992662</ele>
        <time>2022-05-03T08:45:16.624Z</time>
      </trkpt>
      <trkpt lat="41.07227" lon="19.90876">
        <ele>106.673374</ele>
        <time>2022-05-03T08:45:18.619Z</time>
      </trkpt>
      <trkpt lat="41.07227" lon="19.90862">
        <ele>106.342995</ele>
        <time>2022-05-03T08:45:20.631Z</time>
      </trkpt>
      <trkpt lat="41.07227" lon="19.90849">
        <ele>106.014841</ele>
        <time>2022-05-03T08:45:22.610Z</time>
      </trkpt>
      <trkpt lat="41.07226" lon="19.90835">
        <ele>105.683272</ele>
        <time>2022-05-03T08:45:24.614Z</time>
      </trkpt>
      <trkpt lat="41.07225" lon="19.90822">
        <ele>105.360676</ele>
        <time>2022-05-03T08:45:26.612Z</time>
      </trkpt>
      <trkpt lat="41.07223" lon="19.90804">
        <ele>104.927661</ele>
        <time>2022-05-03T08:45:29.635Z</time>
      </trkpt>
      <trkpt lat="41.07221" lon="19.90786">
        <ele>105.031686</ele>
        <time>2022-05-03T08:45:32.612Z</time>
      </trkpt>
      <trkpt lat="41.07218" lon="19.9077">
        <ele>105.212754</ele>
        <time>2022-05-03T08:45:35.619Z</time>
      </trkpt>
      <trkpt lat="41.07217" lon="19.90755">
        <ele>105.384464</ele>
        <time>2022-05-03T08:45:38.606Z</time>
      </trkpt>
      <trkpt lat="41.07215" lon="19.9074">
        <ele>105.559901</ele>
        <time>2022-05-03T08:45:41.621Z</time>
      </trkpt>
      <trkpt lat="41.07213" lon="19.90724">
        <ele>105.73252</ele>
        <time>2022-05-03T08:45:44.600Z</time>
      </trkpt>
      <trkpt lat="41.07211" lon="19.90709">
        <ele>105.904045</ele>
        <time>2022-05-03T08:45:47.616Z</time>
      </trkpt>
      <trkpt lat="41.07209" lon="19.90694">
        <ele>106.076101</ele>
        <time>2022-05-03T08:45:50.604Z</time>
      </trkpt>
      <trkpt lat="41.07207" lon="19.90679">
        <ele>106.238426</ele>
        <time>2022-05-03T08:45:53.622Z</time>
      </trkpt>
      <trkpt lat="41.07206" lon="19.90665">
        <ele>106.401125</ele>
        <time>2022-05-03T08:45:56.614Z</time>
      </trkpt>
      <trkpt lat="41.07204" lon="19.90651">
        <ele>106.551719</ele>
        <time>2022-05-03T08:45:59.609Z</time>
      </trkpt>
      <trkpt lat="41.07203" lon="19.90638">
        <ele>106.704513</ele>
        <time>2022-05-03T08:46:02.618Z</time>
      </trkpt>
      <trkpt lat="41.07201" lon="19.90624">
        <ele>106.861922</ele>
        <time>2022-05-03T08:46:05.614Z</time>
      </trkpt>
      <trkpt lat="41.072" lon="19.9061">
        <ele>107.016915</ele>
        <time>2022-05-03T08:46:08.606Z</time>
      </trkpt>
      <trkpt lat="41.07198" lon="19.90596">
        <ele>107.170604</ele>
        <time>2022-05-03T08:46:11.611Z</time>
      </trkpt>
      <trkpt lat="41.07197" lon="19.90583">
        <ele>107.316442</ele>
        <time>2022-05-03T08:46:14.606Z</time>
      </trkpt>
      <trkpt lat="41.07195" lon="19.90572">
        <ele>107.449232</ele>
        <time>2022-05-03T08:46:17.603Z</time>
      </trkpt>
      <trkpt lat="41.07194" lon="19.90559">
        <ele>107.508128</ele>
        <time>2022-05-03T08:46:20.623Z</time>
      </trkpt>
      <trkpt lat="41.07192" lon="19.90545">
        <ele>107.491473</ele>
        <time>2022-05-03T08:46:23.618Z</time>
      </trkpt>
      <trkpt lat="41.0719" lon="19.90531">
        <ele>107.474362</ele>
        <time>2022-05-03T08:46:26.620Z</time>
      </trkpt>
      <trkpt lat="41.07188" lon="19.90516">
        <ele>107.455414</ele>
        <time>2022-05-03T08:46:29.615Z</time>
      </trkpt>
      <trkpt lat="41.07187" lon="19.905">
        <ele>107.435179</ele>
        <time>2022-05-03T08:46:32.611Z</time>
      </trkpt>
      <trkpt lat="41.07185" lon="19.90483">
        <ele>107.41474</ele>
        <time>2022-05-03T08:46:35.613Z</time>
      </trkpt>
      <trkpt lat="41.07185" lon="19.90466">
        <ele>107.393683</ele>
        <time>2022-05-03T08:46:38.625Z</time>
      </trkpt>
      <trkpt lat="41.07185" lon="19.90448">
        <ele>107.371758</ele>
        <time>2022-05-03T08:46:41.615Z</time>
      </trkpt>
      <trkpt lat="41.07186" lon="19.90435">
        <ele>107.355932</ele>
        <time>2022-05-03T08:46:43.622Z</time>
      </trkpt>
      <trkpt lat="41.07187" lon="19.90422">
        <ele>107.34029</ele>
        <time>2022-05-03T08:46:45.635Z</time>
      </trkpt>
      <trkpt lat="41.07188" lon="19.9041">
        <ele>107.324628</ele>
        <time>2022-05-03T08:46:47.627Z</time>
      </trkpt>
      <trkpt lat="41.0719" lon="19.90397">
        <ele>107.308801</ele>
        <time>2022-05-03T08:46:49.637Z</time>
      </trkpt>
      <trkpt lat="41.07191" lon="19.90384">
        <ele>107.292829</ele>
        <time>2022-05-03T08:46:51.606Z</time>
      </trkpt>
      <trkpt lat="41.07193" lon="19.90371">
        <ele>107.276386</ele>
        <time>2022-05-03T08:46:53.618Z</time>
      </trkpt>
      <trkpt lat="41.07195" lon="19.90357">
        <ele>107.25973</ele>
        <time>2022-05-03T08:46:55.614Z</time>
      </trkpt>
      <trkpt lat="41.07197" lon="19.90344">
        <ele>107.24267</ele>
        <time>2022-05-03T08:46:57.616Z</time>
      </trkpt>
      <trkpt lat="41.07198" lon="19.9033">
        <ele>107.226014</ele>
        <time>2022-05-03T08:46:59.630Z</time>
      </trkpt>
      <trkpt lat="41.072" lon="19.90317">
        <ele>107.21728</ele>
        <time>2022-05-03T08:47:01.617Z</time>
      </trkpt>
      <trkpt lat="41.07201" lon="19.90304">
        <ele>107.209132</ele>
        <time>2022-05-03T08:47:03.627Z</time>
      </trkpt>
      <trkpt lat="41.07203" lon="19.90291">
        <ele>107.201056</ele>
        <time>2022-05-03T08:47:05.615Z</time>
      </trkpt>
      <trkpt lat="41.07204" lon="19.90278">
        <ele>107.192917</ele>
        <time>2022-05-03T08:47:07.612Z</time>
      </trkpt>
      <trkpt lat="41.07206" lon="19.90264">
        <ele>107.184637</ele>
        <time>2022-05-03T08:47:09.620Z</time>
      </trkpt>
      <trkpt lat="41.07207" lon="19.90251">
        <ele>107.176417</ele>
        <time>2022-05-03T08:47:11.631Z</time>
      </trkpt>
      <trkpt lat="41.07209" lon="19.90238">
        <ele>107.168351</ele>
        <time>2022-05-03T08:47:13.654Z</time>
      </trkpt>
      <trkpt lat="41.0721" lon="19.90225">
        <ele>107.160615</ele>
        <time>2022-05-03T08:47:15.596Z</time>
      </trkpt>
      <trkpt lat="41.07212" lon="19.90213">
        <ele>107.152685</ele>
        <time>2022-05-03T08:47:17.604Z</time>
      </trkpt>
      <trkpt lat="41.07214" lon="19.902">
        <ele>107.145069</ele>
        <time>2022-05-03T08:47:19.655Z</time>
      </trkpt>
      <trkpt lat="41.07216" lon="19.90183">
        <ele>107.134302</ele>
        <time>2022-05-03T08:47:22.631Z</time>
      </trkpt>
      <trkpt lat="41.07218" lon="19.90167">
        <ele>107.124305</ele>
        <time>2022-05-03T08:47:25.626Z</time>
      </trkpt>
      <trkpt lat="41.0722" lon="19.90151">
        <ele>107.114289</ele>
        <time>2022-05-03T08:47:28.598Z</time>
      </trkpt>
      <trkpt lat="41.07222" lon="19.90135">
        <ele>107.104545</ele>
        <time>2022-05-03T08:47:31.615Z</time>
      </trkpt>
      <trkpt lat="41.07223" lon="19.9012">
        <ele>107.095356</ele>
        <time>2022-05-03T08:47:34.624Z</time>
      </trkpt>
      <trkpt lat="41.07225" lon="19.90105">
        <ele>107.08635</ele>
        <time>2022-05-03T08:47:37.617Z</time>
      </trkpt>
      <trkpt lat="41.07226" lon="19.9009">
        <ele>107.079719</ele>
        <time>2022-05-03T08:47:40.626Z</time>
      </trkpt>
      <trkpt lat="41.07226" lon="19.90075">
        <ele>107.082752</ele>
        <time>2022-05-03T08:47:43.602Z</time>
      </trkpt>
      <trkpt lat="41.07227" lon="19.9006">
        <ele>107.085775</ele>
        <time>2022-05-03T08:47:46.617Z</time>
      </trkpt>
      <trkpt lat="41.07228" lon="19.90044">
        <ele>107.088867</ele>
        <time>2022-05-03T08:47:49.631Z</time>
      </trkpt>
      <trkpt lat="41.07228" lon="19.90029">
        <ele>107.09186</ele>
        <time>2022-05-03T08:47:52.625Z</time>
      </trkpt>
      <trkpt lat="41.07229" lon="19.90015">
        <ele>107.094731</ele>
        <time>2022-05-03T08:47:55.603Z</time>
      </trkpt>
      <trkpt lat="41.07229" lon="19.90001">
        <ele>107.097486</ele>
        <time>2022-05-03T08:47:58.611Z</time>
      </trkpt>
      <trkpt lat="41.07229" lon="19.89987">
        <ele>107.100239</ele>
        <time>2022-05-03T08:48:01.618Z</time>
      </trkpt>
      <trkpt lat="41.07229" lon="19.89973">
        <ele>107.103011</ele>
        <time>2022-05-03T08:48:04.602Z</time>
      </trkpt>
      <trkpt lat="41.07229" lon="19.89958">
        <ele>107.105885</ele>
        <time>2022-05-03T08:48:07.613Z</time>
      </trkpt>
      <trkpt lat="41.07228" lon="19.89943">
        <ele>107.108843</ele>
        <time>2022-05-03T08:48:10.660Z</time>
      </trkpt>
      <trkpt lat="41.07227" lon="19.8993">
        <ele>107.111587</ele>
        <time>2022-05-03T08:48:13.622Z</time>
      </trkpt>
      <trkpt lat="41.07225" lon="19.89916">
        <ele>107.11434</ele>
        <time>2022-05-03T08:48:16.622Z</time>
      </trkpt>
      <trkpt lat="41.07223" lon="19.89902">
        <ele>107.117045</ele>
        <time>2022-05-03T08:48:19.626Z</time>
      </trkpt>
      <trkpt lat="41.07221" lon="19.89889">
        <ele>107.119842</ele>
        <time>2022-05-03T08:48:22.592Z</time>
      </trkpt>
      <trkpt lat="41.07218" lon="19.89875">
        <ele>107.122735</ele>
        <time>2022-05-03T08:48:25.612Z</time>
      </trkpt>
      <trkpt lat="41.07215" lon="19.89861">
        <ele>107.125537</ele>
        <time>2022-05-03T08:48:28.597Z</time>
      </trkpt>
      <trkpt lat="41.07211" lon="19.89847">
        <ele>107.040826</ele>
        <time>2022-05-03T08:48:31.612Z</time>
      </trkpt>
      <trkpt lat="41.07206" lon="19.89834">
        <ele>106.922858</ele>
        <time>2022-05-03T08:48:34.634Z</time>
      </trkpt>
      <trkpt lat="41.07201" lon="19.89819">
        <ele>106.799778</ele>
        <time>2022-05-03T08:48:37.607Z</time>
      </trkpt>
      <trkpt lat="41.07195" lon="19.89804">
        <ele>106.669917</ele>
        <time>2022-05-03T08:48:40.614Z</time>
      </trkpt>
      <trkpt lat="41.07191" lon="19.89794">
        <ele>106.576338</ele>
        <time>2022-05-03T08:48:42.600Z</time>
      </trkpt>
      <trkpt lat="41.07187" lon="19.89783">
        <ele>106.480981</ele>
        <time>2022-05-03T08:48:44.604Z</time>
      </trkpt>
      <trkpt lat="41.07182" lon="19.89771">
        <ele>106.376488</ele>
        <time>2022-05-03T08:48:46.604Z</time>
      </trkpt>
      <trkpt lat="41.07177" lon="19.89759">
        <ele>106.270443</ele>
        <time>2022-05-03T08:48:48.630Z</time>
      </trkpt>
      <trkpt lat="41.07172" lon="19.89747">
        <ele>106.162863</ele>
        <time>2022-05-03T08:48:50.643Z</time>
      </trkpt>
      <trkpt lat="41.07167" lon="19.89735">
        <ele>106.052236</ele>
        <time>2022-05-03T08:48:52.617Z</time>
      </trkpt>
      <trkpt lat="41.07162" lon="19.89722">
        <ele>105.9426</ele>
        <time>2022-05-03T08:48:54.652Z</time>
      </trkpt>
      <trkpt lat="41.07157" lon="19.8971">
        <ele>105.836199</ele>
        <time>2022-05-03T08:48:56.612Z</time>
      </trkpt>
      <trkpt lat="41.07152" lon="19.89698">
        <ele>105.727737</ele>
        <time>2022-05-03T08:48:58.605Z</time>
      </trkpt>
      <trkpt lat="41.07147" lon="19.89686">
        <ele>105.618292</ele>
        <time>2022-05-03T08:49:00.611Z</time>
      </trkpt>
      <trkpt lat="41.07142" lon="19.89673">
        <ele>105.507756</ele>
        <time>2022-05-03T08:49:02.612Z</time>
      </trkpt>
      <trkpt lat="41.07137" lon="19.8966">
        <ele>105.396752</ele>
        <time>2022-05-03T08:49:04.608Z</time>
      </trkpt>
      <trkpt lat="41.07133" lon="19.89648">
        <ele>105.286216</ele>
        <time>2022-05-03T08:49:06.621Z</time>
      </trkpt>
      <trkpt lat="41.07128" lon="19.89635">
        <ele>105.185767</ele>
        <time>2022-05-03T08:49:08.612Z</time>
      </trkpt>
      <trkpt lat="41.07123" lon="19.89623">
        <ele>105.089472</ele>
        <time>2022-05-03T08:49:10.608Z</time>
      </trkpt>
      <trkpt lat="41.07118" lon="19.89611">
        <ele>104.993121</ele>
        <time>2022-05-03T08:49:12.610Z</time>
      </trkpt>
      <trkpt lat="41.07113" lon="19.89599">
        <ele>104.895333</ele>
        <time>2022-05-03T08:49:14.604Z</time>
      </trkpt>
      <trkpt lat="41.07108" lon="19.89587">
        <ele>104.79478</ele>
        <time>2022-05-03T08:49:16.612Z</time>
      </trkpt>
      <trkpt lat="41.07103" lon="19.89574">
        <ele>104.692339</ele>
        <time>2022-05-03T08:49:18.618Z</time>
      </trkpt>
      <trkpt lat="41.07098" lon="19.89561">
        <ele>104.590752</ele>
        <time>2022-05-03T08:49:20.606Z</time>
      </trkpt>
      <trkpt lat="41.07093" lon="19.89549">
        <ele>104.4941</ele>
        <time>2022-05-03T08:49:22.643Z</time>
      </trkpt>
      <trkpt lat="41.07088" lon="19.89538">
        <ele>104.40085</ele>
        <time>2022-05-03T08:49:24.629Z</time>
      </trkpt>
      <trkpt lat="41.07084" lon="19.89527">
        <ele>104.309765</ele>
        <time>2022-05-03T08:49:26.616Z</time>
      </trkpt>
      <trkpt lat="41.07079" lon="19.89516">
        <ele>104.220379</ele>
        <time>2022-05-03T08:49:28.658Z</time>
      </trkpt>
      <trkpt lat="41.07074" lon="19.89504">
        <ele>104.128213</ele>
        <time>2022-05-03T08:49:30.628Z</time>
      </trkpt>
      <trkpt lat="41.07069" lon="19.89493">
        <ele>104.034493</ele>
        <time>2022-05-03T08:49:32.616Z</time>
      </trkpt>
      <trkpt lat="41.07064" lon="19.89482">
        <ele>103.940022</ele>
        <time>2022-05-03T08:49:34.628Z</time>
      </trkpt>
      <trkpt lat="41.07059" lon="19.8947">
        <ele>103.846154</ele>
        <time>2022-05-03T08:49:36.644Z</time>
      </trkpt>
      <trkpt lat="41.07054" lon="19.8946">
        <ele>103.757192</ele>
        <time>2022-05-03T08:49:38.615Z</time>
      </trkpt>
      <trkpt lat="41.07049" lon="19.89449">
        <ele>103.667236</ele>
        <time>2022-05-03T08:49:40.598Z</time>
      </trkpt>
      <trkpt lat="41.07044" lon="19.89439">
        <ele>103.579586</ele>
        <time>2022-05-03T08:49:42.607Z</time>
      </trkpt>
      <trkpt lat="41.07039" lon="19.89428">
        <ele>103.550935</ele>
        <time>2022-05-03T08:49:44.623Z</time>
      </trkpt>
      <trkpt lat="41.07034" lon="19.89418">
        <ele>103.528654</ele>
        <time>2022-05-03T08:49:46.652Z</time>
      </trkpt>
      <trkpt lat="41.07029" lon="19.89408">
        <ele>103.506678</ele>
        <time>2022-05-03T08:49:48.625Z</time>
      </trkpt>
      <trkpt lat="41.07024" lon="19.89398">
        <ele>103.484882</ele>
        <time>2022-05-03T08:49:50.643Z</time>
      </trkpt>
      <trkpt lat="41.07019" lon="19.89388">
        <ele>103.463038</ele>
        <time>2022-05-03T08:49:52.618Z</time>
      </trkpt>
      <trkpt lat="41.07014" lon="19.89377">
        <ele>103.440704</ele>
        <time>2022-05-03T08:49:54.632Z</time>
      </trkpt>
      <trkpt lat="41.07009" lon="19.89367">
        <ele>103.417834</ele>
        <time>2022-05-03T08:49:56.651Z</time>
      </trkpt>
      <trkpt lat="41.07004" lon="19.89357">
        <ele>103.395858</ele>
        <time>2022-05-03T08:49:58.604Z</time>
      </trkpt>
      <trkpt lat="41.06999" lon="19.89346">
        <ele>103.373446</ele>
        <time>2022-05-03T08:50:00.603Z</time>
      </trkpt>
      <trkpt lat="41.06994" lon="19.89336">
        <ele>103.350575</ele>
        <time>2022-05-03T08:50:02.643Z</time>
      </trkpt>
      <trkpt lat="41.06989" lon="19.89325">
        <ele>103.328141</ele>
        <time>2022-05-03T08:50:04.620Z</time>
      </trkpt>
      <trkpt lat="41.06984" lon="19.89315">
        <ele>103.305216</ele>
        <time>2022-05-03T08:50:06.632Z</time>
      </trkpt>
      <trkpt lat="41.06979" lon="19.89304">
        <ele>103.28232</ele>
        <time>2022-05-03T08:50:08.629Z</time>
      </trkpt>
      <trkpt lat="41.06974" lon="19.89293">
        <ele>103.259013</ele>
        <time>2022-05-03T08:50:10.621Z</time>
      </trkpt>
      <trkpt lat="41.06969" lon="19.89282">
        <ele>103.235618</ele>
        <time>2022-05-03T08:50:12.611Z</time>
      </trkpt>
      <trkpt lat="41.06964" lon="19.89271">
        <ele>103.212158</ele>
        <time>2022-05-03T08:50:14.631Z</time>
      </trkpt>
      <trkpt lat="41.06958" lon="19.8926">
        <ele>103.188284</ele>
        <time>2022-05-03T08:50:16.612Z</time>
      </trkpt>
      <trkpt lat="41.06953" lon="19.89249">
        <ele>103.164977</ele>
        <time>2022-05-03T08:50:18.612Z</time>
      </trkpt>
      <trkpt lat="41.06948" lon="19.89239">
        <ele>103.14228</ele>
        <time>2022-05-03T08:50:20.607Z</time>
      </trkpt>
      <trkpt lat="41.06943" lon="19.89229">
        <ele>103.082755</ele>
        <time>2022-05-03T08:50:22.611Z</time>
      </trkpt>
      <trkpt lat="41.06938" lon="19.89219">
        <ele>103.011661</ele>
        <time>2022-05-03T08:50:24.621Z</time>
      </trkpt>
      <trkpt lat="41.0693" lon="19.89204">
        <ele>102.906928</ele>
        <time>2022-05-03T08:50:27.625Z</time>
      </trkpt>
      <trkpt lat="41.06922" lon="19.8919">
        <ele>102.801321</ele>
        <time>2022-05-03T08:50:30.627Z</time>
      </trkpt>
      <trkpt lat="41.06916" lon="19.8918">
        <ele>102.728548</ele>
        <time>2022-05-03T08:50:32.624Z</time>
      </trkpt>
      <trkpt lat="41.0691" lon="19.89171">
        <ele>102.654177</ele>
        <time>2022-05-03T08:50:34.635Z</time>
      </trkpt>
      <trkpt lat="41.06904" lon="19.89161">
        <ele>102.581121</ele>
        <time>2022-05-03T08:50:36.643Z</time>
      </trkpt>
      <trkpt lat="41.06897" lon="19.89153">
        <ele>102.507606</ele>
        <time>2022-05-03T08:50:38.606Z</time>
      </trkpt>
      <trkpt lat="41.0689" lon="19.89144">
        <ele>102.434585</ele>
        <time>2022-05-03T08:50:40.628Z</time>
      </trkpt>
      <trkpt lat="41.06883" lon="19.89136">
        <ele>102.360756</ele>
        <time>2022-05-03T08:50:42.626Z</time>
      </trkpt>
      <trkpt lat="41.06875" lon="19.89128">
        <ele>102.284595</ele>
        <time>2022-05-03T08:50:44.618Z</time>
      </trkpt>
      <trkpt lat="41.06867" lon="19.89121">
        <ele>102.210837</ele>
        <time>2022-05-03T08:50:46.608Z</time>
      </trkpt>
      <trkpt lat="41.06859" lon="19.89114">
        <ele>102.137089</ele>
        <time>2022-05-03T08:50:48.631Z</time>
      </trkpt>
      <trkpt lat="41.06851" lon="19.89108">
        <ele>102.06455</ele>
        <time>2022-05-03T08:50:50.612Z</time>
      </trkpt>
      <trkpt lat="41.06843" lon="19.89103">
        <ele>101.993869</ele>
        <time>2022-05-03T08:50:52.624Z</time>
      </trkpt>
      <trkpt lat="41.06835" lon="19.89097">
        <ele>101.92064</ele>
        <time>2022-05-03T08:50:54.604Z</time>
      </trkpt>
      <trkpt lat="41.06826" lon="19.89092">
        <ele>101.844334</ele>
        <time>2022-05-03T08:50:56.636Z</time>
      </trkpt>
      <trkpt lat="41.06817" lon="19.89086">
        <ele>101.768679</ele>
        <time>2022-05-03T08:50:58.609Z</time>
      </trkpt>
      <trkpt lat="41.06808" lon="19.8908">
        <ele>101.819999</ele>
        <time>2022-05-03T08:51:00.621Z</time>
      </trkpt>
      <trkpt lat="41.068" lon="19.89073">
        <ele>101.976693</ele>
        <time>2022-05-03T08:51:02.620Z</time>
      </trkpt>
      <trkpt lat="41.06792" lon="19.89067">
        <ele>102.126614</ele>
        <time>2022-05-03T08:51:04.613Z</time>
      </trkpt>
      <trkpt lat="41.06784" lon="19.8906">
        <ele>102.271191</ele>
        <time>2022-05-03T08:51:06.618Z</time>
      </trkpt>
      <trkpt lat="41.06773" lon="19.8905">
        <ele>102.483541</ele>
        <time>2022-05-03T08:51:09.627Z</time>
      </trkpt>
      <trkpt lat="41.06763" lon="19.89039">
        <ele>102.682968</ele>
        <time>2022-05-03T08:51:12.615Z</time>
      </trkpt>
      <trkpt lat="41.06755" lon="19.89029">
        <ele>102.865719</ele>
        <time>2022-05-03T08:51:15.613Z</time>
      </trkpt>
      <trkpt lat="41.06746" lon="19.8902">
        <ele>103.040454</ele>
        <time>2022-05-03T08:51:18.612Z</time>
      </trkpt>
      <trkpt lat="41.06738" lon="19.8901">
        <ele>103.21023</ele>
        <time>2022-05-03T08:51:21.620Z</time>
      </trkpt>
      <trkpt lat="41.0673" lon="19.89001">
        <ele>103.370534</ele>
        <time>2022-05-03T08:51:24.617Z</time>
      </trkpt>
      <trkpt lat="41.06723" lon="19.88993">
        <ele>103.525698</ele>
        <time>2022-05-03T08:51:27.613Z</time>
      </trkpt>
      <trkpt lat="41.06716" lon="19.88984">
        <ele>103.673875</ele>
        <time>2022-05-03T08:51:30.636Z</time>
      </trkpt>
      <trkpt lat="41.06709" lon="19.88976">
        <ele>103.819614</ele>
        <time>2022-05-03T08:51:33.642Z</time>
      </trkpt>
      <trkpt lat="41.06702" lon="19.88968">
        <ele>103.96774</ele>
        <time>2022-05-03T08:51:36.606Z</time>
      </trkpt>
      <trkpt lat="41.06695" lon="19.88959">
        <ele>104.117411</ele>
        <time>2022-05-03T08:51:39.630Z</time>
      </trkpt>
      <trkpt lat="41.06689" lon="19.8895">
        <ele>104.264999</ele>
        <time>2022-05-03T08:51:42.655Z</time>
      </trkpt>
      <trkpt lat="41.06682" lon="19.88942">
        <ele>104.408429</ele>
        <time>2022-05-03T08:51:45.610Z</time>
      </trkpt>
      <trkpt lat="41.06675" lon="19.88931">
        <ele>104.584637</ele>
        <time>2022-05-03T08:51:49.616Z</time>
      </trkpt>
      <trkpt lat="41.06667" lon="19.8892">
        <ele>104.825382</ele>
        <time>2022-05-03T08:51:53.660Z</time>
      </trkpt>
      <trkpt lat="41.06659" lon="19.88908">
        <ele>105.071172</ele>
        <time>2022-05-03T08:51:57.619Z</time>
      </trkpt>
      <trkpt lat="41.06653" lon="19.88899">
        <ele>105.2679</ele>
        <time>2022-05-03T08:52:00.598Z</time>
      </trkpt>
      <trkpt lat="41.06648" lon="19.88888">
        <ele>105.480869</ele>
        <time>2022-05-03T08:52:03.614Z</time>
      </trkpt>
      <trkpt lat="41.06642" lon="19.88877">
        <ele>105.694716</ele>
        <time>2022-05-03T08:52:06.616Z</time>
      </trkpt>
      <trkpt lat="41.06636" lon="19.88866">
        <ele>105.902334</ele>
        <time>2022-05-03T08:52:09.602Z</time>
      </trkpt>
      <trkpt lat="41.06631" lon="19.88855">
        <ele>106.111038</ele>
        <time>2022-05-03T08:52:12.594Z</time>
      </trkpt>
      <trkpt lat="41.06625" lon="19.88843">
        <ele>106.336922</ele>
        <time>2022-05-03T08:52:15.597Z</time>
      </trkpt>
      <trkpt lat="41.0662" lon="19.88829">
        <ele>106.574912</ele>
        <time>2022-05-03T08:52:18.606Z</time>
      </trkpt>
      <trkpt lat="41.06615" lon="19.88816">
        <ele>106.81469</ele>
        <time>2022-05-03T08:52:21.598Z</time>
      </trkpt>
      <trkpt lat="41.0661" lon="19.88803">
        <ele>107.046931</ele>
        <time>2022-05-03T08:52:24.604Z</time>
      </trkpt>
      <trkpt lat="41.06606" lon="19.88789">
        <ele>107.281456</ele>
        <time>2022-05-03T08:52:27.640Z</time>
      </trkpt>
      <trkpt lat="41.06601" lon="19.88774">
        <ele>107.545107</ele>
        <time>2022-05-03T08:52:30.609Z</time>
      </trkpt>
      <trkpt lat="41.06596" lon="19.88757">
        <ele>107.827047</ele>
        <time>2022-05-03T08:52:33.593Z</time>
      </trkpt>
      <trkpt lat="41.0659" lon="19.88741">
        <ele>108.111112</ele>
        <time>2022-05-03T08:52:36.606Z</time>
      </trkpt>
      <trkpt lat="41.06587" lon="19.88729">
        <ele>108.310713</ele>
        <time>2022-05-03T08:52:38.608Z</time>
      </trkpt>
      <trkpt lat="41.06583" lon="19.88717">
        <ele>108.366902</ele>
        <time>2022-05-03T08:52:40.603Z</time>
      </trkpt>
      <trkpt lat="41.0658" lon="19.88706">
        <ele>108.38621</ele>
        <time>2022-05-03T08:52:42.608Z</time>
      </trkpt>
      <trkpt lat="41.06576" lon="19.88694">
        <ele>108.406317</ele>
        <time>2022-05-03T08:52:44.631Z</time>
      </trkpt>
      <trkpt lat="41.06572" lon="19.88682">
        <ele>108.426264</ele>
        <time>2022-05-03T08:52:46.608Z</time>
      </trkpt>
      <trkpt lat="41.06568" lon="19.88669">
        <ele>108.446842</ele>
        <time>2022-05-03T08:52:48.603Z</time>
      </trkpt>
      <trkpt lat="41.06564" lon="19.88657">
        <ele>108.467137</ele>
        <time>2022-05-03T08:52:50.631Z</time>
      </trkpt>
      <trkpt lat="41.06561" lon="19.88644">
        <ele>108.487145</ele>
        <time>2022-05-03T08:52:52.642Z</time>
      </trkpt>
      <trkpt lat="41.06557" lon="19.88632">
        <ele>108.507152</ele>
        <time>2022-05-03T08:52:54.608Z</time>
      </trkpt>
      <trkpt lat="41.06554" lon="19.8862">
        <ele>108.526661</ele>
        <time>2022-05-03T08:52:56.611Z</time>
      </trkpt>
      <trkpt lat="41.0655" lon="19.88608">
        <ele>108.54625</ele>
        <time>2022-05-03T08:52:58.614Z</time>
      </trkpt>
      <trkpt lat="41.06546" lon="19.88596">
        <ele>108.565885</ele>
        <time>2022-05-03T08:53:00.599Z</time>
      </trkpt>
      <trkpt lat="41.06543" lon="19.88584">
        <ele>108.585681</ele>
        <time>2022-05-03T08:53:02.620Z</time>
      </trkpt>
      <trkpt lat="41.06539" lon="19.88573">
        <ele>108.603839</ele>
        <time>2022-05-03T08:53:04.617Z</time>
      </trkpt>
      <trkpt lat="41.06535" lon="19.88561">
        <ele>108.623367</ele>
        <time>2022-05-03T08:53:06.655Z</time>
      </trkpt>
      <trkpt lat="41.06531" lon="19.88549">
        <ele>108.643613</ele>
        <time>2022-05-03T08:53:08.653Z</time>
      </trkpt>
      <trkpt lat="41.06528" lon="19.88536">
        <ele>108.66462</ele>
        <time>2022-05-03T08:53:10.640Z</time>
      </trkpt>
      <trkpt lat="41.06524" lon="19.88523">
        <ele>108.685913</ele>
        <time>2022-05-03T08:53:12.611Z</time>
      </trkpt>
      <trkpt lat="41.0652" lon="19.8851">
        <ele>108.707183</ele>
        <time>2022-05-03T08:53:14.628Z</time>
      </trkpt>
      <trkpt lat="41.06516" lon="19.88498">
        <ele>108.700564</ele>
        <time>2022-05-03T08:53:16.592Z</time>
      </trkpt>
      <trkpt lat="41.06512" lon="19.88485">
        <ele>108.678462</ele>
        <time>2022-05-03T08:53:18.601Z</time>
      </trkpt>
      <trkpt lat="41.06507" lon="19.88472">
        <ele>108.656401</ele>
        <time>2022-05-03T08:53:20.634Z</time>
      </trkpt>
      <trkpt lat="41.06503" lon="19.88459">
        <ele>108.63411</ele>
        <time>2022-05-03T08:53:22.608Z</time>
      </trkpt>
      <trkpt lat="41.06498" lon="19.88446">
        <ele>108.611122</ele>
        <time>2022-05-03T08:53:24.593Z</time>
      </trkpt>
      <trkpt lat="41.06494" lon="19.88433">
        <ele>108.588726</ele>
        <time>2022-05-03T08:53:26.616Z</time>
      </trkpt>
      <trkpt lat="41.0649" lon="19.88421">
        <ele>108.567499</ele>
        <time>2022-05-03T08:53:28.595Z</time>
      </trkpt>
      <trkpt lat="41.06486" lon="19.88408">
        <ele>108.545005</ele>
        <time>2022-05-03T08:53:30.599Z</time>
      </trkpt>
      <trkpt lat="41.06482" lon="19.88395">
        <ele>108.522675</ele>
        <time>2022-05-03T08:53:32.626Z</time>
      </trkpt>
      <trkpt lat="41.06478" lon="19.88381">
        <ele>108.49968</ele>
        <time>2022-05-03T08:53:34.604Z</time>
      </trkpt>
      <trkpt lat="41.06473" lon="19.88368">
        <ele>108.477013</ele>
        <time>2022-05-03T08:53:36.605Z</time>
      </trkpt>
      <trkpt lat="41.06469" lon="19.88355">
        <ele>108.45491</ele>
        <time>2022-05-03T08:53:38.614Z</time>
      </trkpt>
      <trkpt lat="41.06465" lon="19.88342">
        <ele>108.432499</ele>
        <time>2022-05-03T08:53:40.642Z</time>
      </trkpt>
      <trkpt lat="41.06461" lon="19.8833">
        <ele>108.410378</ele>
        <time>2022-05-03T08:53:42.603Z</time>
      </trkpt>
      <trkpt lat="41.06456" lon="19.88317">
        <ele>108.387909</ele>
        <time>2022-05-03T08:53:44.614Z</time>
      </trkpt>
      <trkpt lat="41.06452" lon="19.88304">
        <ele>108.366018</ele>
        <time>2022-05-03T08:53:46.618Z</time>
      </trkpt>
      <trkpt lat="41.06448" lon="19.88291">
        <ele>108.343957</ele>
        <time>2022-05-03T08:53:48.605Z</time>
      </trkpt>
      <trkpt lat="41.06444" lon="19.88278">
        <ele>108.118378</ele>
        <time>2022-05-03T08:53:50.630Z</time>
      </trkpt>
      <trkpt lat="41.0644" lon="19.88266">
        <ele>107.801367</ele>
        <time>2022-05-03T08:53:52.624Z</time>
      </trkpt>
      <trkpt lat="41.06435" lon="19.88253">
        <ele>107.481951</ele>
        <time>2022-05-03T08:53:54.616Z</time>
      </trkpt>
      <trkpt lat="41.06431" lon="19.8824">
        <ele>107.156195</ele>
        <time>2022-05-03T08:53:56.615Z</time>
      </trkpt>
      <trkpt lat="41.06427" lon="19.88228">
        <ele>106.840991</ele>
        <time>2022-05-03T08:53:58.606Z</time>
      </trkpt>
      <trkpt lat="41.06423" lon="19.88215">
        <ele>106.525144</ele>
        <time>2022-05-03T08:54:00.615Z</time>
      </trkpt>
      <trkpt lat="41.06419" lon="19.88203">
        <ele>106.21539</ele>
        <time>2022-05-03T08:54:02.643Z</time>
      </trkpt>
      <trkpt lat="41.06415" lon="19.88191">
        <ele>105.91067</ele>
        <time>2022-05-03T08:54:04.608Z</time>
      </trkpt>
      <trkpt lat="41.0641" lon="19.88178">
        <ele>105.599177</ele>
        <time>2022-05-03T08:54:06.606Z</time>
      </trkpt>
      <trkpt lat="41.06406" lon="19.88167">
        <ele>105.292383</ele>
        <time>2022-05-03T08:54:08.610Z</time>
      </trkpt>
      <trkpt lat="41.06401" lon="19.88155">
        <ele>104.980922</ele>
        <time>2022-05-03T08:54:10.596Z</time>
      </trkpt>
      <trkpt lat="41.06396" lon="19.88143">
        <ele>104.668877</ele>
        <time>2022-05-03T08:54:12.619Z</time>
      </trkpt>
      <trkpt lat="41.0639" lon="19.88131">
        <ele>104.341046</ele>
        <time>2022-05-03T08:54:14.602Z</time>
      </trkpt>
      <trkpt lat="41.06384" lon="19.88119">
        <ele>104.020201</ele>
        <time>2022-05-03T08:54:16.617Z</time>
      </trkpt>
      <trkpt lat="41.06378" lon="19.88107">
        <ele>103.677877</ele>
        <time>2022-05-03T08:54:18.614Z</time>
      </trkpt>
      <trkpt lat="41.06372" lon="19.88095">
        <ele>103.350464</ele>
        <time>2022-05-03T08:54:20.612Z</time>
      </trkpt>
      <trkpt lat="41.06365" lon="19.88085">
        <ele>103.033827</ele>
        <time>2022-05-03T08:54:22.625Z</time>
      </trkpt>
      <trkpt lat="41.06358" lon="19.88074">
        <ele>102.773966</ele>
        <time>2022-05-03T08:54:24.651Z</time>
      </trkpt>
      <trkpt lat="41.06351" lon="19.88062">
        <ele>102.610666</ele>
        <time>2022-05-03T08:54:26.636Z</time>
      </trkpt>
      <trkpt lat="41.06344" lon="19.8805">
        <ele>102.441134</ele>
        <time>2022-05-03T08:54:28.613Z</time>
      </trkpt>
      <trkpt lat="41.06337" lon="19.88039">
        <ele>102.276963</ele>
        <time>2022-05-03T08:54:30.625Z</time>
      </trkpt>
      <trkpt lat="41.0633" lon="19.88027">
        <ele>102.111875</ele>
        <time>2022-05-03T08:54:32.622Z</time>
      </trkpt>
      <trkpt lat="41.06323" lon="19.88015">
        <ele>101.946829</ele>
        <time>2022-05-03T08:54:34.618Z</time>
      </trkpt>
      <trkpt lat="41.06317" lon="19.88004">
        <ele>101.78954</ele>
        <time>2022-05-03T08:54:36.610Z</time>
      </trkpt>
      <trkpt lat="41.0631" lon="19.87994">
        <ele>101.637817</ele>
        <time>2022-05-03T08:54:38.626Z</time>
      </trkpt>
      <trkpt lat="41.06303" lon="19.87983">
        <ele>101.483892</ele>
        <time>2022-05-03T08:54:40.614Z</time>
      </trkpt>
      <trkpt lat="41.06297" lon="19.87973">
        <ele>101.331143</ele>
        <time>2022-05-03T08:54:42.609Z</time>
      </trkpt>
      <trkpt lat="41.0629" lon="19.87962">
        <ele>101.177537</ele>
        <time>2022-05-03T08:54:44.614Z</time>
      </trkpt>
      <trkpt lat="41.06284" lon="19.87951">
        <ele>101.021388</ele>
        <time>2022-05-03T08:54:46.644Z</time>
      </trkpt>
      <trkpt lat="41.06277" lon="19.8794">
        <ele>100.865187</ele>
        <time>2022-05-03T08:54:48.605Z</time>
      </trkpt>
      <trkpt lat="41.06271" lon="19.87928">
        <ele>100.700046</ele>
        <time>2022-05-03T08:54:50.606Z</time>
      </trkpt>
      <trkpt lat="41.06265" lon="19.87914">
        <ele>100.528967</ele>
        <time>2022-05-03T08:54:52.663Z</time>
      </trkpt>
      <trkpt lat="41.06259" lon="19.87901">
        <ele>100.361391</ele>
        <time>2022-05-03T08:54:54.613Z</time>
      </trkpt>
      <trkpt lat="41.06255" lon="19.87887">
        <ele>100.194329</ele>
        <time>2022-05-03T08:54:56.626Z</time>
      </trkpt>
      <trkpt lat="41.06251" lon="19.87874">
        <ele>100.205352</ele>
        <time>2022-05-03T08:54:58.615Z</time>
      </trkpt>
      <trkpt lat="41.06248" lon="19.8786">
        <ele>100.219096</ele>
        <time>2022-05-03T08:55:00.614Z</time>
      </trkpt>
      <trkpt lat="41.06245" lon="19.87847">
        <ele>100.232054</ele>
        <time>2022-05-03T08:55:02.620Z</time>
      </trkpt>
      <trkpt lat="41.06243" lon="19.87834">
        <ele>100.24512</ele>
        <time>2022-05-03T08:55:04.611Z</time>
      </trkpt>
      <trkpt lat="41.06242" lon="19.8782">
        <ele>100.258439</ele>
        <time>2022-05-03T08:55:06.615Z</time>
      </trkpt>
      <trkpt lat="41.06241" lon="19.87806">
        <ele>100.272141</ele>
        <time>2022-05-03T08:55:08.633Z</time>
      </trkpt>
      <trkpt lat="41.06241" lon="19.87792">
        <ele>100.286017</ele>
        <time>2022-05-03T08:55:10.619Z</time>
      </trkpt>
      <trkpt lat="41.06241" lon="19.87778">
        <ele>100.298744</ele>
        <time>2022-05-03T08:55:12.634Z</time>
      </trkpt>
      <trkpt lat="41.06242" lon="19.87764">
        <ele>100.312454</ele>
        <time>2022-05-03T08:55:14.649Z</time>
      </trkpt>
      <trkpt lat="41.06243" lon="19.8775">
        <ele>100.326548</ele>
        <time>2022-05-03T08:55:16.624Z</time>
      </trkpt>
      <trkpt lat="41.06243" lon="19.87734">
        <ele>100.341804</ele>
        <time>2022-05-03T08:55:18.616Z</time>
      </trkpt>
      <trkpt lat="41.06244" lon="19.87717">
        <ele>100.357521</ele>
        <time>2022-05-03T08:55:20.616Z</time>
      </trkpt>
      <trkpt lat="41.06244" lon="19.87701">
        <ele>100.373142</ele>
        <time>2022-05-03T08:55:22.621Z</time>
      </trkpt>
      <trkpt lat="41.06245" lon="19.87684">
        <ele>100.389656</ele>
        <time>2022-05-03T08:55:24.617Z</time>
      </trkpt>
      <trkpt lat="41.06246" lon="19.87666">
        <ele>100.407309</ele>
        <time>2022-05-03T08:55:26.596Z</time>
      </trkpt>
      <trkpt lat="41.06246" lon="19.87648">
        <ele>100.352863</ele>
        <time>2022-05-03T08:55:28.612Z</time>
      </trkpt>
      <trkpt lat="41.06247" lon="19.8763">
        <ele>100.018404</ele>
        <time>2022-05-03T08:55:30.597Z</time>
      </trkpt>
      <trkpt lat="41.06248" lon="19.87612">
        <ele>99.687371</ele>
        <time>2022-05-03T08:55:32.619Z</time>
      </trkpt>
      <trkpt lat="41.06249" lon="19.87593">
        <ele>99.326402</ele>
        <time>2022-05-03T08:55:34.631Z</time>
      </trkpt>
      <trkpt lat="41.0625" lon="19.87574">
        <ele>98.961325</ele>
        <time>2022-05-03T08:55:36.614Z</time>
      </trkpt>
      <trkpt lat="41.06251" lon="19.87555">
        <ele>98.603771</ele>
        <time>2022-05-03T08:55:38.623Z</time>
      </trkpt>
      <trkpt lat="41.06252" lon="19.87537">
        <ele>98.2525</ele>
        <time>2022-05-03T08:55:40.620Z</time>
      </trkpt>
      <trkpt lat="41.06253" lon="19.87517">
        <ele>97.889795</ele>
        <time>2022-05-03T08:55:42.630Z</time>
      </trkpt>
      <trkpt lat="41.06254" lon="19.87498">
        <ele>97.530543</ele>
        <time>2022-05-03T08:55:44.635Z</time>
      </trkpt>
      <trkpt lat="41.06255" lon="19.8748">
        <ele>97.188398</ele>
        <time>2022-05-03T08:55:46.604Z</time>
      </trkpt>
      <trkpt lat="41.06256" lon="19.87463">
        <ele>96.863007</ele>
        <time>2022-05-03T08:55:48.600Z</time>
      </trkpt>
      <trkpt lat="41.06257" lon="19.87447">
        <ele>96.558494</ele>
        <time>2022-05-03T08:55:50.602Z</time>
      </trkpt>
      <trkpt lat="41.06257" lon="19.87434">
        <ele>96.307616</ele>
        <time>2022-05-03T08:55:52.607Z</time>
      </trkpt>
      <trkpt lat="41.06257" lon="19.87421">
        <ele>96.062397</ele>
        <time>2022-05-03T08:55:54.652Z</time>
      </trkpt>
      <trkpt lat="41.06256" lon="19.87407">
        <ele>95.866527</ele>
        <time>2022-05-03T08:55:56.608Z</time>
      </trkpt>
      <trkpt lat="41.06256" lon="19.87392">
        <ele>95.745608</ele>
        <time>2022-05-03T08:55:58.603Z</time>
      </trkpt>
      <trkpt lat="41.06255" lon="19.87379">
        <ele>95.631984</ele>
        <time>2022-05-03T08:56:00.608Z</time>
      </trkpt>
      <trkpt lat="41.06253" lon="19.87366">
        <ele>95.518669</ele>
        <time>2022-05-03T08:56:02.616Z</time>
      </trkpt>
      <trkpt lat="41.06252" lon="19.87352">
        <ele>95.400184</ele>
        <time>2022-05-03T08:56:04.602Z</time>
      </trkpt>
      <trkpt lat="41.0625" lon="19.87337">
        <ele>95.27746</ele>
        <time>2022-05-03T08:56:06.625Z</time>
      </trkpt>
      <trkpt lat="41.06248" lon="19.87323">
        <ele>95.154104</ele>
        <time>2022-05-03T08:56:08.617Z</time>
      </trkpt>
      <trkpt lat="41.06246" lon="19.87308">
        <ele>95.025988</ele>
        <time>2022-05-03T08:56:10.616Z</time>
      </trkpt>
      <trkpt lat="41.06244" lon="19.87293">
        <ele>94.897452</ele>
        <time>2022-05-03T08:56:12.618Z</time>
      </trkpt>
      <trkpt lat="41.06242" lon="19.87278">
        <ele>94.771204</ele>
        <time>2022-05-03T08:56:14.615Z</time>
      </trkpt>
      <trkpt lat="41.0624" lon="19.87265">
        <ele>94.652832</ele>
        <time>2022-05-03T08:56:16.649Z</time>
      </trkpt>
      <trkpt lat="41.06238" lon="19.87251">
        <ele>94.533176</ele>
        <time>2022-05-03T08:56:18.623Z</time>
      </trkpt>
      <trkpt lat="41.06236" lon="19.87237">
        <ele>94.418324</ele>
        <time>2022-05-03T08:56:20.628Z</time>
      </trkpt>
      <trkpt lat="41.06234" lon="19.87224">
        <ele>94.304496</ele>
        <time>2022-05-03T08:56:22.620Z</time>
      </trkpt>
      <trkpt lat="41.06233" lon="19.8721">
        <ele>94.189003</ele>
        <time>2022-05-03T08:56:24.628Z</time>
      </trkpt>
      <trkpt lat="41.06231" lon="19.87197">
        <ele>94.074522</ele>
        <time>2022-05-03T08:56:26.608Z</time>
      </trkpt>
      <trkpt lat="41.06229" lon="19.87184">
        <ele>93.960693</ele>
        <time>2022-05-03T08:56:28.626Z</time>
      </trkpt>
      <trkpt lat="41.06228" lon="19.8717">
        <ele>94.076618</ele>
        <time>2022-05-03T08:56:30.627Z</time>
      </trkpt>
      <trkpt lat="41.06227" lon="19.87157">
        <ele>94.37277</ele>
        <time>2022-05-03T08:56:32.615Z</time>
      </trkpt>
      <trkpt lat="41.06225" lon="19.87145">
        <ele>94.660963</ele>
        <time>2022-05-03T08:56:34.613Z</time>
      </trkpt>
      <trkpt lat="41.06224" lon="19.87132">
        <ele>94.949512</ele>
        <time>2022-05-03T08:56:36.615Z</time>
      </trkpt>
      <trkpt lat="41.06222" lon="19.8712">
        <ele>95.231319</ele>
        <time>2022-05-03T08:56:38.643Z</time>
      </trkpt>
      <trkpt lat="41.06221" lon="19.87108">
        <ele>95.506831</ele>
        <time>2022-05-03T08:56:40.619Z</time>
      </trkpt>
      <trkpt lat="41.06218" lon="19.87091">
        <ele>95.905945</ele>
        <time>2022-05-03T08:56:43.613Z</time>
      </trkpt>
      <trkpt lat="41.06216" lon="19.87073">
        <ele>96.312301</ele>
        <time>2022-05-03T08:56:46.619Z</time>
      </trkpt>
      <trkpt lat="41.06214" lon="19.87061">
        <ele>96.597176</ele>
        <time>2022-05-03T08:56:48.622Z</time>
      </trkpt>
      <trkpt lat="41.06212" lon="19.87049">
        <ele>96.882671</ele>
        <time>2022-05-03T08:56:50.629Z</time>
      </trkpt>
      <trkpt lat="41.0621" lon="19.87036">
        <ele>97.164391</ele>
        <time>2022-05-03T08:56:52.607Z</time>
      </trkpt>
      <trkpt lat="41.06208" lon="19.87025">
        <ele>97.435944</ele>
        <time>2022-05-03T08:56:54.618Z</time>
      </trkpt>
      <trkpt lat="41.06206" lon="19.87013">
        <ele>97.711326</ele>
        <time>2022-05-03T08:56:56.620Z</time>
      </trkpt>
      <trkpt lat="41.06203" lon="19.86996">
        <ele>98.10526</ele>
        <time>2022-05-03T08:56:59.619Z</time>
      </trkpt>
      <trkpt lat="41.062" lon="19.86979">
        <ele>98.502292</ele>
        <time>2022-05-03T08:57:02.616Z</time>
      </trkpt>
      <trkpt lat="41.06197" lon="19.86962">
        <ele>98.903544</ele>
        <time>2022-05-03T08:57:05.625Z</time>
      </trkpt>
      <trkpt lat="41.06194" lon="19.86945">
        <ele>99.283537</ele>
        <time>2022-05-03T08:57:08.619Z</time>
      </trkpt>
      <trkpt lat="41.06192" lon="19.86931">
        <ele>99.259154</ele>
        <time>2022-05-03T08:57:11.632Z</time>
      </trkpt>
      <trkpt lat="41.06189" lon="19.86917">
        <ele>99.195627</ele>
        <time>2022-05-03T08:57:14.622Z</time>
      </trkpt>
      <trkpt lat="41.06187" lon="19.86904">
        <ele>99.130835</ele>
        <time>2022-05-03T08:57:17.682Z</time>
      </trkpt>
      <trkpt lat="41.06185" lon="19.8689">
        <ele>99.064908</ele>
        <time>2022-05-03T08:57:20.615Z</time>
      </trkpt>
      <trkpt lat="41.06183" lon="19.86876">
        <ele>98.997596</ele>
        <time>2022-05-03T08:57:23.631Z</time>
      </trkpt>
      <trkpt lat="41.06181" lon="19.86861">
        <ele>98.92756</ele>
        <time>2022-05-03T08:57:26.611Z</time>
      </trkpt>
      <trkpt lat="41.06179" lon="19.86846">
        <ele>98.858266</ele>
        <time>2022-05-03T08:57:29.618Z</time>
      </trkpt>
      <trkpt lat="41.06177" lon="19.86831">
        <ele>98.788015</ele>
        <time>2022-05-03T08:57:32.624Z</time>
      </trkpt>
      <trkpt lat="41.06175" lon="19.86816">
        <ele>98.71913</ele>
        <time>2022-05-03T08:57:35.711Z</time>
      </trkpt>
      <trkpt lat="41.06173" lon="19.86801">
        <ele>98.648423</ele>
        <time>2022-05-03T08:57:38.631Z</time>
      </trkpt>
      <trkpt lat="41.06171" lon="19.86787">
        <ele>98.579674</ele>
        <time>2022-05-03T08:57:41.617Z</time>
      </trkpt>
      <trkpt lat="41.06169" lon="19.86772">
        <ele>98.509989</ele>
        <time>2022-05-03T08:57:44.630Z</time>
      </trkpt>
      <trkpt lat="41.06167" lon="19.86757">
        <ele>98.442128</ele>
        <time>2022-05-03T08:57:47.612Z</time>
      </trkpt>
      <trkpt lat="41.06165" lon="19.86743">
        <ele>98.372421</ele>
        <time>2022-05-03T08:57:50.607Z</time>
      </trkpt>
      <trkpt lat="41.06163" lon="19.86728">
        <ele>98.302484</ele>
        <time>2022-05-03T08:57:53.615Z</time>
      </trkpt>
      <trkpt lat="41.0616" lon="19.86712">
        <ele>98.22757</ele>
        <time>2022-05-03T08:57:56.652Z</time>
      </trkpt>
      <trkpt lat="41.06158" lon="19.86697">
        <ele>98.186891</ele>
        <time>2022-05-03T08:57:59.618Z</time>
      </trkpt>
      <trkpt lat="41.06156" lon="19.86682">
        <ele>98.152032</ele>
        <time>2022-05-03T08:58:02.592Z</time>
      </trkpt>
      <trkpt lat="41.06154" lon="19.86668">
        <ele>98.117962</ele>
        <time>2022-05-03T08:58:05.637Z</time>
      </trkpt>
      <trkpt lat="41.06151" lon="19.86652">
        <ele>98.08112</ele>
        <time>2022-05-03T08:58:08.613Z</time>
      </trkpt>
      <trkpt lat="41.06148" lon="19.86637">
        <ele>98.044454</ele>
        <time>2022-05-03T08:58:11.598Z</time>
      </trkpt>
      <trkpt lat="41.06145" lon="19.86621">
        <ele>98.007085</ele>
        <time>2022-05-03T08:58:14.657Z</time>
      </trkpt>
      <trkpt lat="41.06142" lon="19.86605">
        <ele>97.969216</ele>
        <time>2022-05-03T08:58:17.616Z</time>
      </trkpt>
      <trkpt lat="41.06139" lon="19.8659">
        <ele>97.932773</ele>
        <time>2022-05-03T08:58:20.639Z</time>
      </trkpt>
      <trkpt lat="41.06136" lon="19.86575">
        <ele>97.896722</ele>
        <time>2022-05-03T08:58:23.613Z</time>
      </trkpt>
      <trkpt lat="41.06132" lon="19.8656">
        <ele>97.861672</ele>
        <time>2022-05-03T08:58:26.655Z</time>
      </trkpt>
      <trkpt lat="41.06128" lon="19.86546">
        <ele>97.826116</ele>
        <time>2022-05-03T08:58:29.615Z</time>
      </trkpt>
      <trkpt lat="41.06123" lon="19.86531">
        <ele>97.789787</ele>
        <time>2022-05-03T08:58:32.616Z</time>
      </trkpt>
      <trkpt lat="41.06119" lon="19.86516">
        <ele>97.753095</ele>
        <time>2022-05-03T08:58:35.624Z</time>
      </trkpt>
      <trkpt lat="41.06113" lon="19.86502">
        <ele>97.71685</ele>
        <time>2022-05-03T08:58:38.633Z</time>
      </trkpt>
      <trkpt lat="41.06108" lon="19.86488">
        <ele>97.680451</ele>
        <time>2022-05-03T08:58:41.621Z</time>
      </trkpt>
      <trkpt lat="41.06103" lon="19.86473">
        <ele>97.762144</ele>
        <time>2022-05-03T08:58:44.598Z</time>
      </trkpt>
      <trkpt lat="41.06097" lon="19.86457">
        <ele>97.909514</ele>
        <time>2022-05-03T08:58:47.616Z</time>
      </trkpt>
      <trkpt lat="41.06094" lon="19.86446">
        <ele>98.009891</ele>
        <time>2022-05-03T08:58:49.610Z</time>
      </trkpt>
      <trkpt lat="41.0609" lon="19.86434">
        <ele>98.118373</ele>
        <time>2022-05-03T08:58:51.609Z</time>
      </trkpt>
      <trkpt lat="41.06087" lon="19.86422">
        <ele>98.226079</ele>
        <time>2022-05-03T08:58:53.627Z</time>
      </trkpt>
      <trkpt lat="41.06084" lon="19.8641">
        <ele>98.331047</ele>
        <time>2022-05-03T08:58:55.620Z</time>
      </trkpt>
      <trkpt lat="41.06081" lon="19.86398">
        <ele>98.436066</ele>
        <time>2022-05-03T08:58:57.625Z</time>
      </trkpt>
      <trkpt lat="41.06079" lon="19.86386">
        <ele>98.537277</ele>
        <time>2022-05-03T08:58:59.651Z</time>
      </trkpt>
      <trkpt lat="41.06075" lon="19.86369">
        <ele>98.681788</ele>
        <time>2022-05-03T08:59:02.617Z</time>
      </trkpt>
      <trkpt lat="41.06073" lon="19.86355">
        <ele>98.808744</ele>
        <time>2022-05-03T08:59:05.620Z</time>
      </trkpt>
      <trkpt lat="41.06072" lon="19.86342">
        <ele>98.914687</ele>
        <time>2022-05-03T08:59:08.611Z</time>
      </trkpt>
      <trkpt lat="41.06071" lon="19.86328">
        <ele>99.029628</ele>
        <time>2022-05-03T08:59:11.612Z</time>
      </trkpt>
      <trkpt lat="41.06071" lon="19.86313">
        <ele>99.160381</ele>
        <time>2022-05-03T08:59:14.626Z</time>
      </trkpt>
      <trkpt lat="41.06071" lon="19.86295">
        <ele>99.306047</ele>
        <time>2022-05-03T08:59:17.624Z</time>
      </trkpt>
      <trkpt lat="41.06071" lon="19.86278">
        <ele>99.44919</ele>
        <time>2022-05-03T08:59:20.622Z</time>
      </trkpt>
      <trkpt lat="41.06071" lon="19.86262">
        <ele>99.584813</ele>
        <time>2022-05-03T08:59:23.630Z</time>
      </trkpt>
      <trkpt lat="41.06071" lon="19.86246">
        <ele>99.615209</ele>
        <time>2022-05-03T08:59:26.626Z</time>
      </trkpt>
      <trkpt lat="41.06071" lon="19.86229">
        <ele>99.49336</ele>
        <time>2022-05-03T08:59:29.605Z</time>
      </trkpt>
      <trkpt lat="41.0607" lon="19.86211">
        <ele>99.368417</ele>
        <time>2022-05-03T08:59:32.627Z</time>
      </trkpt>
      <trkpt lat="41.06069" lon="19.86194">
        <ele>99.244127</ele>
        <time>2022-05-03T08:59:35.609Z</time>
      </trkpt>
      <trkpt lat="41.06068" lon="19.86182">
        <ele>99.158786</ele>
        <time>2022-05-03T08:59:37.611Z</time>
      </trkpt>
      <trkpt lat="41.06066" lon="19.86164">
        <ele>99.030775</ele>
        <time>2022-05-03T08:59:40.624Z</time>
      </trkpt>
      <trkpt lat="41.06065" lon="19.86152">
        <ele>98.941171</ele>
        <time>2022-05-03T08:59:42.627Z</time>
      </trkpt>
      <trkpt lat="41.06063" lon="19.86139">
        <ele>98.848177</ele>
        <time>2022-05-03T08:59:44.644Z</time>
      </trkpt>
      <trkpt lat="41.06061" lon="19.86126">
        <ele>98.755183</ele>
        <time>2022-05-03T08:59:46.622Z</time>
      </trkpt>
      <trkpt lat="41.0606" lon="19.86114">
        <ele>98.662383</ele>
        <time>2022-05-03T08:59:48.615Z</time>
      </trkpt>
      <trkpt lat="41.06058" lon="19.86101">
        <ele>98.572393</ele>
        <time>2022-05-03T08:59:50.613Z</time>
      </trkpt>
      <trkpt lat="41.06055" lon="19.86089">
        <ele>98.484103</ele>
        <time>2022-05-03T08:59:52.606Z</time>
      </trkpt>
      <trkpt lat="41.06053" lon="19.86078">
        <ele>98.395303</ele>
        <time>2022-05-03T08:59:54.614Z</time>
      </trkpt>
      <trkpt lat="41.0605" lon="19.86066">
        <ele>98.308975</ele>
        <time>2022-05-03T08:59:56.621Z</time>
      </trkpt>
      <trkpt lat="41.06047" lon="19.86054">
        <ele>98.219486</ele>
        <time>2022-05-03T08:59:58.604Z</time>
      </trkpt>
      <trkpt lat="41.06045" lon="19.86043">
        <ele>98.133552</ele>
        <time>2022-05-03T09:00:00.638Z</time>
      </trkpt>
      <trkpt lat="41.0604" lon="19.86027">
        <ele>98.011828</ele>
        <time>2022-05-03T09:00:03.615Z</time>
      </trkpt>
      <trkpt lat="41.06035" lon="19.86012">
        <ele>97.894123</ele>
        <time>2022-05-03T09:00:06.672Z</time>
      </trkpt>
      <trkpt lat="41.06029" lon="19.85997">
        <ele>97.772517</ele>
        <time>2022-05-03T09:00:09.625Z</time>
      </trkpt>
      <trkpt lat="41.06024" lon="19.85983">
        <ele>97.660867</ele>
        <time>2022-05-03T09:00:12.657Z</time>
      </trkpt>
      <trkpt lat="41.06017" lon="19.8597">
        <ele>97.544924</ele>
        <time>2022-05-03T09:00:15.639Z</time>
      </trkpt>
      <trkpt lat="41.0601" lon="19.85956">
        <ele>97.421688</ele>
        <time>2022-05-03T09:00:18.622Z</time>
      </trkpt>
      <trkpt lat="41.06003" lon="19.85942">
        <ele>97.295788</ele>
        <time>2022-05-03T09:00:21.630Z</time>
      </trkpt>
      <trkpt lat="41.05995" lon="19.85927">
        <ele>97.168737</ele>
        <time>2022-05-03T09:00:24.612Z</time>
      </trkpt>
      <trkpt lat="41.05987" lon="19.85913">
        <ele>97.040537</ele>
        <time>2022-05-03T09:00:27.631Z</time>
      </trkpt>
      <trkpt lat="41.05979" lon="19.85899">
        <ele>96.909434</ele>
        <time>2022-05-03T09:00:30.618Z</time>
      </trkpt>
      <trkpt lat="41.05972" lon="19.85889">
        <ele>96.815434</ele>
        <time>2022-05-03T09:00:32.641Z</time>
      </trkpt>
      <trkpt lat="41.05966" lon="19.85879">
        <ele>96.717922</ele>
        <time>2022-05-03T09:00:34.653Z</time>
      </trkpt>
      <trkpt lat="41.0596" lon="19.85869">
        <ele>96.622706</ele>
        <time>2022-05-03T09:00:36.617Z</time>
      </trkpt>
      <trkpt lat="41.05954" lon="19.85859">
        <ele>96.528101</ele>
        <time>2022-05-03T09:00:38.633Z</time>
      </trkpt>
      <trkpt lat="41.05947" lon="19.85848">
        <ele>96.431225</ele>
        <time>2022-05-03T09:00:40.652Z</time>
      </trkpt>
      <trkpt lat="41.05941" lon="19.85837">
        <ele>96.332624</ele>
        <time>2022-05-03T09:00:42.632Z</time>
      </trkpt>
      <trkpt lat="41.05935" lon="19.85826">
        <ele>96.228224</ele>
        <time>2022-05-03T09:00:44.603Z</time>
      </trkpt>
      <trkpt lat="41.05928" lon="19.85814">
        <ele>96.023886</ele>
        <time>2022-05-03T09:00:46.597Z</time>
      </trkpt>
      <trkpt lat="41.05921" lon="19.85801">
        <ele>95.80753</ele>
        <time>2022-05-03T09:00:48.622Z</time>
      </trkpt>
      <trkpt lat="41.05914" lon="19.85789">
        <ele>95.588932</ele>
        <time>2022-05-03T09:00:50.622Z</time>
      </trkpt>
      <trkpt lat="41.05907" lon="19.85776">
        <ele>95.361323</ele>
        <time>2022-05-03T09:00:52.619Z</time>
      </trkpt>
      <trkpt lat="41.05899" lon="19.85762">
        <ele>95.128152</ele>
        <time>2022-05-03T09:00:54.617Z</time>
      </trkpt>
      <trkpt lat="41.05892" lon="19.85748">
        <ele>94.890553</ele>
        <time>2022-05-03T09:00:56.622Z</time>
      </trkpt>
      <trkpt lat="41.05885" lon="19.85734">
        <ele>94.650384</ele>
        <time>2022-05-03T09:00:58.623Z</time>
      </trkpt>
      <trkpt lat="41.05877" lon="19.85719">
        <ele>94.401024</ele>
        <time>2022-05-03T09:01:00.639Z</time>
      </trkpt>
      <trkpt lat="41.0587" lon="19.85704">
        <ele>94.158663</ele>
        <time>2022-05-03T09:01:02.604Z</time>
      </trkpt>
      <trkpt lat="41.05863" lon="19.8569">
        <ele>93.913827</ele>
        <time>2022-05-03T09:01:04.608Z</time>
      </trkpt>
      <trkpt lat="41.05856" lon="19.85675">
        <ele>93.67434</ele>
        <time>2022-05-03T09:01:06.625Z</time>
      </trkpt>
      <trkpt lat="41.05848" lon="19.8566">
        <ele>93.423082</ele>
        <time>2022-05-03T09:01:08.655Z</time>
      </trkpt>
      <trkpt lat="41.05841" lon="19.85646">
        <ele>93.185229</ele>
        <time>2022-05-03T09:01:10.606Z</time>
      </trkpt>
      <trkpt lat="41.05835" lon="19.85632">
        <ele>92.956962</ele>
        <time>2022-05-03T09:01:12.612Z</time>
      </trkpt>
      <trkpt lat="41.05829" lon="19.85619">
        <ele>92.915679</ele>
        <time>2022-05-03T09:01:14.648Z</time>
      </trkpt>
      <trkpt lat="41.05824" lon="19.85606">
        <ele>92.949272</ele>
        <time>2022-05-03T09:01:16.624Z</time>
      </trkpt>
      <trkpt lat="41.05819" lon="19.85594">
        <ele>92.981106</ele>
        <time>2022-05-03T09:01:18.622Z</time>
      </trkpt>
      <trkpt lat="41.05814" lon="19.85583">
        <ele>93.011507</ele>
        <time>2022-05-03T09:01:20.630Z</time>
      </trkpt>
      <trkpt lat="41.0581" lon="19.85572">
        <ele>93.0398</ele>
        <time>2022-05-03T09:01:22.647Z</time>
      </trkpt>
      <trkpt lat="41.05804" lon="19.85558">
        <ele>93.077753</ele>
        <time>2022-05-03T09:01:25.624Z</time>
      </trkpt>
      <trkpt lat="41.05799" lon="19.85545">
        <ele>93.110558</ele>
        <time>2022-05-03T09:01:28.599Z</time>
      </trkpt>
      <trkpt lat="41.05795" lon="19.85534">
        <ele>93.140445</ele>
        <time>2022-05-03T09:01:31.618Z</time>
      </trkpt>
      <trkpt lat="41.05791" lon="19.85523">
        <ele>93.169437</ele>
        <time>2022-05-03T09:01:34.610Z</time>
      </trkpt>
      <trkpt lat="41.05787" lon="19.85512">
        <ele>93.197871</ele>
        <time>2022-05-03T09:01:37.608Z</time>
      </trkpt>
      <trkpt lat="41.05782" lon="19.855">
        <ele>93.2288</ele>
        <time>2022-05-03T09:01:40.620Z</time>
      </trkpt>
      <trkpt lat="41.05777" lon="19.85488">
        <ele>93.259729</ele>
        <time>2022-05-03T09:01:43.645Z</time>
      </trkpt>
      <trkpt lat="41.05773" lon="19.85476">
        <ele>93.290154</ele>
        <time>2022-05-03T09:01:46.655Z</time>
      </trkpt>
      <trkpt lat="41.05769" lon="19.85464">
        <ele>93.320617</ele>
        <time>2022-05-03T09:01:49.617Z</time>
      </trkpt>
      <trkpt lat="41.05765" lon="19.85453">
        <ele>93.350257</ele>
        <time>2022-05-03T09:01:52.614Z</time>
      </trkpt>
      <trkpt lat="41.0576" lon="19.85442">
        <ele>93.37959</ele>
        <time>2022-05-03T09:01:55.616Z</time>
      </trkpt>
      <trkpt lat="41.05756" lon="19.85429">
        <ele>93.410779</ele>
        <time>2022-05-03T09:01:58.658Z</time>
      </trkpt>
      <trkpt lat="41.05753" lon="19.85417">
        <ele>93.442276</ele>
        <time>2022-05-03T09:02:01.617Z</time>
      </trkpt>
      <trkpt lat="41.0575" lon="19.85405">
        <ele>93.927355</ele>
        <time>2022-05-03T09:02:04.620Z</time>
      </trkpt>
      <trkpt lat="41.05747" lon="19.85393">
        <ele>94.522799</ele>
        <time>2022-05-03T09:02:07.626Z</time>
      </trkpt>
      <trkpt lat="41.05745" lon="19.8538">
        <ele>95.113379</ele>
        <time>2022-05-03T09:02:10.627Z</time>
      </trkpt>
      <trkpt lat="41.05743" lon="19.85368">
        <ele>95.675902</ele>
        <time>2022-05-03T09:02:13.602Z</time>
      </trkpt>
      <trkpt lat="41.05741" lon="19.85355">
        <ele>96.26199</ele>
        <time>2022-05-03T09:02:16.620Z</time>
      </trkpt>
      <trkpt lat="41.0574" lon="19.85343">
        <ele>96.845449</ele>
        <time>2022-05-03T09:02:19.614Z</time>
      </trkpt>
      <trkpt lat="41.05739" lon="19.85331">
        <ele>97.409194</ele>
        <time>2022-05-03T09:02:22.616Z</time>
      </trkpt>
      <trkpt lat="41.05738" lon="19.85317">
        <ele>98.009342</ele>
        <time>2022-05-03T09:02:25.631Z</time>
      </trkpt>
      <trkpt lat="41.05738" lon="19.85304">
        <ele>98.607562</ele>
        <time>2022-05-03T09:02:28.604Z</time>
      </trkpt>
      <trkpt lat="41.05738" lon="19.85292">
        <ele>99.18292</ele>
        <time>2022-05-03T09:02:31.643Z</time>
      </trkpt>
      <trkpt lat="41.05738" lon="19.8528">
        <ele>99.740539</ele>
        <time>2022-05-03T09:02:34.639Z</time>
      </trkpt>
      <trkpt lat="41.05739" lon="19.85266">
        <ele>100.345754</ele>
        <time>2022-05-03T09:02:37.646Z</time>
      </trkpt>
      <trkpt lat="41.0574" lon="19.85253">
        <ele>100.955005</ele>
        <time>2022-05-03T09:02:40.599Z</time>
      </trkpt>
      <trkpt lat="41.05742" lon="19.8524">
        <ele>101.556484</ele>
        <time>2022-05-03T09:02:43.634Z</time>
      </trkpt>
      <trkpt lat="41.05744" lon="19.85226">
        <ele>102.198731</ele>
        <time>2022-05-03T09:02:46.612Z</time>
      </trkpt>
      <trkpt lat="41.05746" lon="19.85213">
        <ele>102.808475</ele>
        <time>2022-05-03T09:02:49.617Z</time>
      </trkpt>
      <trkpt lat="41.05748" lon="19.85201">
        <ele>103.406639</ele>
        <time>2022-05-03T09:02:52.615Z</time>
      </trkpt>
      <trkpt lat="41.0575" lon="19.85188">
        <ele>103.984613</ele>
        <time>2022-05-03T09:02:55.623Z</time>
      </trkpt>
      <trkpt lat="41.05752" lon="19.85175">
        <ele>104.321699</ele>
        <time>2022-05-03T09:02:58.586Z</time>
      </trkpt>
      <trkpt lat="41.05754" lon="19.85162">
        <ele>104.279405</ele>
        <time>2022-05-03T09:03:01.629Z</time>
      </trkpt>
      <trkpt lat="41.05756" lon="19.85148">
        <ele>104.233586</ele>
        <time>2022-05-03T09:03:04.610Z</time>
      </trkpt>
      <trkpt lat="41.05759" lon="19.85134">
        <ele>104.186546</ele>
        <time>2022-05-03T09:03:07.617Z</time>
      </trkpt>
      <trkpt lat="41.05761" lon="19.85119">
        <ele>104.13752</ele>
        <time>2022-05-03T09:03:10.627Z</time>
      </trkpt>
      <trkpt lat="41.05763" lon="19.85105">
        <ele>104.090673</ele>
        <time>2022-05-03T09:03:13.616Z</time>
      </trkpt>
      <trkpt lat="41.05765" lon="19.8509">
        <ele>104.043115</ele>
        <time>2022-05-03T09:03:16.642Z</time>
      </trkpt>
      <trkpt lat="41.05767" lon="19.85075">
        <ele>103.992913</ele>
        <time>2022-05-03T09:03:19.608Z</time>
      </trkpt>
      <trkpt lat="41.0577" lon="19.85059">
        <ele>103.94026</ele>
        <time>2022-05-03T09:03:22.662Z</time>
      </trkpt>
      <trkpt lat="41.05772" lon="19.85043">
        <ele>103.88872</ele>
        <time>2022-05-03T09:03:25.615Z</time>
      </trkpt>
      <trkpt lat="41.05774" lon="19.85028">
        <ele>103.839854</ele>
        <time>2022-05-03T09:03:28.632Z</time>
      </trkpt>
      <trkpt lat="41.05777" lon="19.85013">
        <ele>103.791845</ele>
        <time>2022-05-03T09:03:31.633Z</time>
      </trkpt>
      <trkpt lat="41.05778" lon="19.84999">
        <ele>103.7458</ele>
        <time>2022-05-03T09:03:34.610Z</time>
      </trkpt>
      <trkpt lat="41.0578" lon="19.84985">
        <ele>103.702223</ele>
        <time>2022-05-03T09:03:37.622Z</time>
      </trkpt>
      <trkpt lat="41.05781" lon="19.84972">
        <ele>103.65775</ele>
        <time>2022-05-03T09:03:40.653Z</time>
      </trkpt>
      <trkpt lat="41.05782" lon="19.84957">
        <ele>103.609983</ele>
        <time>2022-05-03T09:03:43.599Z</time>
      </trkpt>
      <trkpt lat="41.05782" lon="19.84941">
        <ele>103.481645</ele>
        <time>2022-05-03T09:03:46.627Z</time>
      </trkpt>
      <trkpt lat="41.05783" lon="19.84925">
        <ele>103.186406</ele>
        <time>2022-05-03T09:03:49.618Z</time>
      </trkpt>
      <trkpt lat="41.05782" lon="19.8491">
        <ele>102.907225</ele>
        <time>2022-05-03T09:03:52.620Z</time>
      </trkpt>
      <trkpt lat="41.05781" lon="19.84895">
        <ele>102.612848</ele>
        <time>2022-05-03T09:03:55.613Z</time>
      </trkpt>
      <trkpt lat="41.05779" lon="19.84879">
        <ele>102.314096</ele>
        <time>2022-05-03T09:03:58.604Z</time>
      </trkpt>
      <trkpt lat="41.05777" lon="19.84864">
        <ele>102.027455</ele>
        <time>2022-05-03T09:04:01.616Z</time>
      </trkpt>
      <trkpt lat="41.05774" lon="19.84849">
        <ele>101.732784</ele>
        <time>2022-05-03T09:04:04.610Z</time>
      </trkpt>
      <trkpt lat="41.0577" lon="19.84833">
        <ele>101.42158</ele>
        <time>2022-05-03T09:04:07.616Z</time>
      </trkpt>
      <trkpt lat="41.05767" lon="19.84817">
        <ele>101.116358</ele>
        <time>2022-05-03T09:04:10.602Z</time>
      </trkpt>
      <trkpt lat="41.05762" lon="19.84803">
        <ele>100.822763</ele>
        <time>2022-05-03T09:04:13.618Z</time>
      </trkpt>
      <trkpt lat="41.05758" lon="19.84789">
        <ele>100.538263</ele>
        <time>2022-05-03T09:04:16.614Z</time>
      </trkpt>
      <trkpt lat="41.05752" lon="19.84776">
        <ele>100.254456</ele>
        <time>2022-05-03T09:04:19.651Z</time>
      </trkpt>
      <trkpt lat="41.05746" lon="19.84762">
        <ele>99.961649</ele>
        <time>2022-05-03T09:04:22.623Z</time>
      </trkpt>
      <trkpt lat="41.0574" lon="19.8475">
        <ele>99.680323</ele>
        <time>2022-05-03T09:04:25.655Z</time>
      </trkpt>
      <trkpt lat="41.05734" lon="19.84738">
        <ele>99.407014</ele>
        <time>2022-05-03T09:04:28.601Z</time>
      </trkpt>
      <trkpt lat="41.05727" lon="19.84726">
        <ele>99.123446</ele>
        <time>2022-05-03T09:04:31.628Z</time>
      </trkpt>
      <trkpt lat="41.0572" lon="19.84713">
        <ele>99.12475</ele>
        <time>2022-05-03T09:04:34.622Z</time>
      </trkpt>
      <trkpt lat="41.05713" lon="19.84701">
        <ele>99.158641</ele>
        <time>2022-05-03T09:04:37.629Z</time>
      </trkpt>
      <trkpt lat="41.05706" lon="19.84688">
        <ele>99.192707</ele>
        <time>2022-05-03T09:04:40.595Z</time>
      </trkpt>
      <trkpt lat="41.05699" lon="19.84675">
        <ele>99.227146</ele>
        <time>2022-05-03T09:04:43.614Z</time>
      </trkpt>
      <trkpt lat="41.05692" lon="19.84663">
        <ele>99.260688</ele>
        <time>2022-05-03T09:04:46.581Z</time>
      </trkpt>
      <trkpt lat="41.05686" lon="19.84651">
        <ele>99.293521</ele>
        <time>2022-05-03T09:04:49.597Z</time>
      </trkpt>
      <trkpt lat="41.0568" lon="19.84638">
        <ele>99.325588</ele>
        <time>2022-05-03T09:04:52.610Z</time>
      </trkpt>
      <trkpt lat="41.05674" lon="19.84626">
        <ele>99.357241</ele>
        <time>2022-05-03T09:04:55.637Z</time>
      </trkpt>
      <trkpt lat="41.05669" lon="19.84612">
        <ele>99.39089</ele>
        <time>2022-05-03T09:04:58.604Z</time>
      </trkpt>
      <trkpt lat="41.05663" lon="19.846">
        <ele>99.423256</ele>
        <time>2022-05-03T09:05:01.639Z</time>
      </trkpt>
      <trkpt lat="41.05658" lon="19.84586">
        <ele>99.456024</ele>
        <time>2022-05-03T09:05:04.611Z</time>
      </trkpt>
      <trkpt lat="41.05653" lon="19.84573">
        <ele>99.487615</ele>
        <time>2022-05-03T09:05:07.626Z</time>
      </trkpt>
      <trkpt lat="41.05649" lon="19.84559">
        <ele>99.521016</ele>
        <time>2022-05-03T09:05:10.601Z</time>
      </trkpt>
      <trkpt lat="41.05644" lon="19.84545">
        <ele>99.554592</ele>
        <time>2022-05-03T09:05:13.603Z</time>
      </trkpt>
      <trkpt lat="41.0564" lon="19.84531">
        <ele>99.587033</ele>
        <time>2022-05-03T09:05:16.630Z</time>
      </trkpt>
      <trkpt lat="41.05636" lon="19.84518">
        <ele>99.625949</ele>
        <time>2022-05-03T09:05:19.620Z</time>
      </trkpt>
      <trkpt lat="41.05632" lon="19.84505">
        <ele>99.727341</ele>
        <time>2022-05-03T09:05:22.603Z</time>
      </trkpt>
      <trkpt lat="41.05628" lon="19.84491">
        <ele>99.835473</ele>
        <time>2022-05-03T09:05:25.603Z</time>
      </trkpt>
      <trkpt lat="41.05624" lon="19.84476">
        <ele>99.944612</ele>
        <time>2022-05-03T09:05:28.609Z</time>
      </trkpt>
      <trkpt lat="41.0562" lon="19.84462">
        <ele>100.056784</ele>
        <time>2022-05-03T09:05:31.625Z</time>
      </trkpt>
      <trkpt lat="41.05617" lon="19.84448">
        <ele>100.160534</ele>
        <time>2022-05-03T09:05:34.609Z</time>
      </trkpt>
      <trkpt lat="41.05613" lon="19.84435">
        <ele>100.265308</ele>
        <time>2022-05-03T09:05:37.607Z</time>
      </trkpt>
      <trkpt lat="41.05609" lon="19.84421">
        <ele>100.371754</ele>
        <time>2022-05-03T09:05:40.610Z</time>
      </trkpt>
      <trkpt lat="41.05605" lon="19.84406">
        <ele>100.482247</ele>
        <time>2022-05-03T09:05:43.646Z</time>
      </trkpt>
      <trkpt lat="41.056" lon="19.84392">
        <ele>100.593148</ele>
        <time>2022-05-03T09:05:46.606Z</time>
      </trkpt>
      <trkpt lat="41.05596" lon="19.84378">
        <ele>100.6996</ele>
        <time>2022-05-03T09:05:49.618Z</time>
      </trkpt>
      <trkpt lat="41.05592" lon="19.84365">
        <ele>100.804034</ele>
        <time>2022-05-03T09:05:52.639Z</time>
      </trkpt>
      <trkpt lat="41.05588" lon="19.84351">
        <ele>100.913856</ele>
        <time>2022-05-03T09:05:55.608Z</time>
      </trkpt>
      <trkpt lat="41.05584" lon="19.84337">
        <ele>101.019633</ele>
        <time>2022-05-03T09:05:58.609Z</time>
      </trkpt>
      <trkpt lat="41.0558" lon="19.84323">
        <ele>101.127141</ele>
        <time>2022-05-03T09:06:01.626Z</time>
      </trkpt>
      <trkpt lat="41.05576" lon="19.84309">
        <ele>101.235314</ele>
        <time>2022-05-03T09:06:04.606Z</time>
      </trkpt>
      <trkpt lat="41.05572" lon="19.84294">
        <ele>101.358122</ele>
        <time>2022-05-03T09:06:07.660Z</time>
      </trkpt>
      <trkpt lat="41.05568" lon="19.84279">
        <ele>101.534537</ele>
        <time>2022-05-03T09:06:10.607Z</time>
      </trkpt>
      <trkpt lat="41.05564" lon="19.84264">
        <ele>101.715016</ele>
        <time>2022-05-03T09:06:13.654Z</time>
      </trkpt>
      <trkpt lat="41.0556" lon="19.84249">
        <ele>101.889906</ele>
        <time>2022-05-03T09:06:16.652Z</time>
      </trkpt>
      <trkpt lat="41.05557" lon="19.84234">
        <ele>102.064108</ele>
        <time>2022-05-03T09:06:19.624Z</time>
      </trkpt>
      <trkpt lat="41.05554" lon="19.84219">
        <ele>102.23712</ele>
        <time>2022-05-03T09:06:22.645Z</time>
      </trkpt>
      <trkpt lat="41.05551" lon="19.84205">
        <ele>102.404803</ele>
        <time>2022-05-03T09:06:25.620Z</time>
      </trkpt>
      <trkpt lat="41.05549" lon="19.8419">
        <ele>102.571335</ele>
        <time>2022-05-03T09:06:28.610Z</time>
      </trkpt>
      <trkpt lat="41.05547" lon="19.84174">
        <ele>102.747454</ele>
        <time>2022-05-03T09:06:31.625Z</time>
      </trkpt>
      <trkpt lat="41.05545" lon="19.84159">
        <ele>102.92408</ele>
        <time>2022-05-03T09:06:34.651Z</time>
      </trkpt>
      <trkpt lat="41.05543" lon="19.84142">
        <ele>103.11237</ele>
        <time>2022-05-03T09:06:37.607Z</time>
      </trkpt>
      <trkpt lat="41.05542" lon="19.84126">
        <ele>103.291782</ele>
        <time>2022-05-03T09:06:40.630Z</time>
      </trkpt>
      <trkpt lat="41.05541" lon="19.8411">
        <ele>103.465822</ele>
        <time>2022-05-03T09:06:43.614Z</time>
      </trkpt>
      <trkpt lat="41.0554" lon="19.84095">
        <ele>103.642721</ele>
        <time>2022-05-03T09:06:46.612Z</time>
      </trkpt>
      <trkpt lat="41.05539" lon="19.84079">
        <ele>103.818379</ele>
        <time>2022-05-03T09:06:49.631Z</time>
      </trkpt>
      <trkpt lat="41.05537" lon="19.84063">
        <ele>103.994663</ele>
        <time>2022-05-03T09:06:52.621Z</time>
      </trkpt>
      <trkpt lat="41.05536" lon="19.84048">
        <ele>104.189435</ele>
        <time>2022-05-03T09:06:55.615Z</time>
      </trkpt>
      <trkpt lat="41.05535" lon="19.84033">
        <ele>104.392093</ele>
        <time>2022-05-03T09:06:58.606Z</time>
      </trkpt>
      <trkpt lat="41.05533" lon="19.84016">
        <ele>104.602439</ele>
        <time>2022-05-03T09:07:01.611Z</time>
      </trkpt>
      <trkpt lat="41.05531" lon="19.84001">
        <ele>104.810972</ele>
        <time>2022-05-03T09:07:04.600Z</time>
      </trkpt>
      <trkpt lat="41.0553" lon="19.83985">
        <ele>105.015821</ele>
        <time>2022-05-03T09:07:07.617Z</time>
      </trkpt>
      <trkpt lat="41.05528" lon="19.83969">
        <ele>105.217199</ele>
        <time>2022-05-03T09:07:10.657Z</time>
      </trkpt>
      <trkpt lat="41.05527" lon="19.83954">
        <ele>105.417296</ele>
        <time>2022-05-03T09:07:13.619Z</time>
      </trkpt>
      <trkpt lat="41.05525" lon="19.83939">
        <ele>105.614503</ele>
        <time>2022-05-03T09:07:16.630Z</time>
      </trkpt>
      <trkpt lat="41.05523" lon="19.83924">
        <ele>105.808772</ele>
        <time>2022-05-03T09:07:19.633Z</time>
      </trkpt>
      <trkpt lat="41.05521" lon="19.83909">
        <ele>106.003431</ele>
        <time>2022-05-03T09:07:22.657Z</time>
      </trkpt>
      <trkpt lat="41.05519" lon="19.83895">
        <ele>106.193283</ele>
        <time>2022-05-03T09:07:25.621Z</time>
      </trkpt>
      <trkpt lat="41.05517" lon="19.83879">
        <ele>106.395801</ele>
        <time>2022-05-03T09:07:28.612Z</time>
      </trkpt>
      <trkpt lat="41.05515" lon="19.83864">
        <ele>106.594869</ele>
        <time>2022-05-03T09:07:31.600Z</time>
      </trkpt>
      <trkpt lat="41.05512" lon="19.83848">
        <ele>106.802133</ele>
        <time>2022-05-03T09:07:34.614Z</time>
      </trkpt>
      <trkpt lat="41.05509" lon="19.83832">
        <ele>107.01692</ele>
        <time>2022-05-03T09:07:37.619Z</time>
      </trkpt>
      <trkpt lat="41.05506" lon="19.83816">
        <ele>107.303912</ele>
        <time>2022-05-03T09:07:40.635Z</time>
      </trkpt>
      <trkpt lat="41.05503" lon="19.83802">
        <ele>107.592859</ele>
        <time>2022-05-03T09:07:43.628Z</time>
      </trkpt>
      <trkpt lat="41.055" lon="19.83788">
        <ele>107.869498</ele>
        <time>2022-05-03T09:07:46.698Z</time>
      </trkpt>
      <trkpt lat="41.05498" lon="19.83773">
        <ele>108.143308</ele>
        <time>2022-05-03T09:07:49.658Z</time>
      </trkpt>
      <trkpt lat="41.05496" lon="19.8376">
        <ele>108.415049</ele>
        <time>2022-05-03T09:07:52.623Z</time>
      </trkpt>
      <trkpt lat="41.05493" lon="19.83746">
        <ele>108.673979</ele>
        <time>2022-05-03T09:07:55.640Z</time>
      </trkpt>
      <trkpt lat="41.05491" lon="19.83733">
        <ele>108.924203</ele>
        <time>2022-05-03T09:07:58.593Z</time>
      </trkpt>
      <trkpt lat="41.05488" lon="19.83719">
        <ele>109.215635</ele>
        <time>2022-05-03T09:08:02.629Z</time>
      </trkpt>
      <trkpt lat="41.05485" lon="19.83704">
        <ele>109.496755</ele>
        <time>2022-05-03T09:08:05.658Z</time>
      </trkpt>
      <trkpt lat="41.05481" lon="19.8369">
        <ele>109.781495</ele>
        <time>2022-05-03T09:08:08.669Z</time>
      </trkpt>
      <trkpt lat="41.05478" lon="19.83678">
        <ele>110.029791</ele>
        <time>2022-05-03T09:08:11.611Z</time>
      </trkpt>
      <trkpt lat="41.05474" lon="19.83667">
        <ele>110.267553</ele>
        <time>2022-05-03T09:08:14.611Z</time>
      </trkpt>
      <trkpt lat="41.0547" lon="19.83656">
        <ele>110.4931</ele>
        <time>2022-05-03T09:08:17.606Z</time>
      </trkpt>
      <trkpt lat="41.05465" lon="19.83645">
        <ele>110.730631</ele>
        <time>2022-05-03T09:08:20.615Z</time>
      </trkpt>
      <trkpt lat="41.0546" lon="19.83634">
        <ele>110.976865</ele>
        <time>2022-05-03T09:08:23.616Z</time>
      </trkpt>
      <trkpt lat="41.05454" lon="19.83623">
        <ele>111.239957</ele>
        <time>2022-05-03T09:08:26.613Z</time>
      </trkpt>
      <trkpt lat="41.05448" lon="19.83612">
        <ele>111.507211</ele>
        <time>2022-05-03T09:08:29.626Z</time>
      </trkpt>
      <trkpt lat="41.0544" lon="19.836">
        <ele>111.293798</ele>
        <time>2022-05-03T09:08:32.612Z</time>
      </trkpt>
      <trkpt lat="41.05432" lon="19.8359">
        <ele>110.890009</ele>
        <time>2022-05-03T09:08:35.609Z</time>
      </trkpt>
      <trkpt lat="41.05423" lon="19.83581">
        <ele>110.485958</ele>
        <time>2022-05-03T09:08:38.648Z</time>
      </trkpt>
      <trkpt lat="41.05416" lon="19.83572">
        <ele>110.118052</ele>
        <time>2022-05-03T09:08:41.624Z</time>
      </trkpt>
      <trkpt lat="41.05408" lon="19.83565">
        <ele>109.741868</ele>
        <time>2022-05-03T09:08:44.614Z</time>
      </trkpt>
      <trkpt lat="41.05399" lon="19.83557">
        <ele>109.326822</ele>
        <time>2022-05-03T09:08:47.624Z</time>
      </trkpt>
      <trkpt lat="41.05389" lon="19.8355">
        <ele>108.910458</ele>
        <time>2022-05-03T09:08:50.624Z</time>
      </trkpt>
      <trkpt lat="41.05379" lon="19.83542">
        <ele>108.472903</ele>
        <time>2022-05-03T09:08:53.658Z</time>
      </trkpt>
      <trkpt lat="41.05368" lon="19.83536">
        <ele>108.042598</ele>
        <time>2022-05-03T09:08:56.630Z</time>
      </trkpt>
      <trkpt lat="41.05357" lon="19.83528">
        <ele>107.54585</ele>
        <time>2022-05-03T09:08:59.606Z</time>
      </trkpt>
      <trkpt lat="41.05345" lon="19.83519">
        <ele>107.048538</ele>
        <time>2022-05-03T09:09:02.611Z</time>
      </trkpt>
      <trkpt lat="41.05334" lon="19.83511">
        <ele>106.566851</ele>
        <time>2022-05-03T09:09:05.622Z</time>
      </trkpt>
      <trkpt lat="41.05322" lon="19.83501">
        <ele>106.051606</ele>
        <time>2022-05-03T09:09:08.618Z</time>
      </trkpt>
      <trkpt lat="41.05314" lon="19.83494">
        <ele>105.677081</ele>
        <time>2022-05-03T09:09:10.626Z</time>
      </trkpt>
      <trkpt lat="41.05306" lon="19.83486">
        <ele>105.303459</ele>
        <time>2022-05-03T09:09:12.625Z</time>
      </trkpt>
      <trkpt lat="41.05299" lon="19.83477">
        <ele>104.932388</ele>
        <time>2022-05-03T09:09:14.615Z</time>
      </trkpt>
      <trkpt lat="41.05292" lon="19.83467">
        <ele>104.656203</ele>
        <time>2022-05-03T09:09:16.614Z</time>
      </trkpt>
      <trkpt lat="41.05286" lon="19.83456">
        <ele>104.410853</ele>
        <time>2022-05-03T09:09:18.614Z</time>
      </trkpt>
      <trkpt lat="41.0528" lon="19.83445">
        <ele>104.167294</ele>
        <time>2022-05-03T09:09:20.608Z</time>
      </trkpt>
      <trkpt lat="41.05274" lon="19.83434">
        <ele>103.930564</ele>
        <time>2022-05-03T09:09:22.653Z</time>
      </trkpt>
      <trkpt lat="41.05269" lon="19.83423">
        <ele>103.695632</ele>
        <time>2022-05-03T09:09:24.650Z</time>
      </trkpt>
      <trkpt lat="41.05265" lon="19.83412">
        <ele>103.468777</ele>
        <time>2022-05-03T09:09:26.615Z</time>
      </trkpt>
      <trkpt lat="41.05261" lon="19.834">
        <ele>103.23651</ele>
        <time>2022-05-03T09:09:28.603Z</time>
      </trkpt>
      <trkpt lat="41.05256" lon="19.83389">
        <ele>102.998325</ele>
        <time>2022-05-03T09:09:30.609Z</time>
      </trkpt>
      <trkpt lat="41.05252" lon="19.83376">
        <ele>102.760803</ele>
        <time>2022-05-03T09:09:32.611Z</time>
      </trkpt>
      <trkpt lat="41.05249" lon="19.83364">
        <ele>102.520875</ele>
        <time>2022-05-03T09:09:34.618Z</time>
      </trkpt>
      <trkpt lat="41.05245" lon="19.83352">
        <ele>102.277664</ele>
        <time>2022-05-03T09:09:36.612Z</time>
      </trkpt>
      <trkpt lat="41.05241" lon="19.83339">
        <ele>102.027568</ele>
        <time>2022-05-03T09:09:38.620Z</time>
      </trkpt>
      <trkpt lat="41.05237" lon="19.83326">
        <ele>101.777471</ele>
        <time>2022-05-03T09:09:40.599Z</time>
      </trkpt>
      <trkpt lat="41.05233" lon="19.83313">
        <ele>101.527374</ele>
        <time>2022-05-03T09:09:42.613Z</time>
      </trkpt>
      <trkpt lat="41.05229" lon="19.833">
        <ele>101.27907</ele>
        <time>2022-05-03T09:09:44.654Z</time>
      </trkpt>
      <trkpt lat="41.05225" lon="19.83288">
        <ele>101.030766</ele>
        <time>2022-05-03T09:09:46.643Z</time>
      </trkpt>
      <trkpt lat="41.05221" lon="19.83275">
        <ele>100.781766</ele>
        <time>2022-05-03T09:09:48.615Z</time>
      </trkpt>
      <trkpt lat="41.05217" lon="19.83262">
        <ele>100.539007</ele>
        <time>2022-05-03T09:09:50.615Z</time>
      </trkpt>
      <trkpt lat="41.05213" lon="19.83249">
        <ele>100.442119</ele>
        <time>2022-05-03T09:09:52.660Z</time>
      </trkpt>
      <trkpt lat="41.05209" lon="19.83236">
        <ele>100.343677</ele>
        <time>2022-05-03T09:09:54.610Z</time>
      </trkpt>
      <trkpt lat="41.05205" lon="19.83222">
        <ele>100.245213</ele>
        <time>2022-05-03T09:09:56.614Z</time>
      </trkpt>
      <trkpt lat="41.05202" lon="19.83208">
        <ele>100.14359</ele>
        <time>2022-05-03T09:09:58.599Z</time>
      </trkpt>
      <trkpt lat="41.05198" lon="19.83194">
        <ele>100.041553</ele>
        <time>2022-05-03T09:10:00.630Z</time>
      </trkpt>
      <trkpt lat="41.05195" lon="19.83179">
        <ele>99.939917</ele>
        <time>2022-05-03T09:10:02.600Z</time>
      </trkpt>
      <trkpt lat="41.05192" lon="19.83165">
        <ele>99.83921</ele>
        <time>2022-05-03T09:10:04.617Z</time>
      </trkpt>
      <trkpt lat="41.0519" lon="19.8315">
        <ele>99.73826</ele>
        <time>2022-05-03T09:10:06.616Z</time>
      </trkpt>
      <trkpt lat="41.05187" lon="19.83135">
        <ele>99.633597</ele>
        <time>2022-05-03T09:10:08.620Z</time>
      </trkpt>
      <trkpt lat="41.05185" lon="19.8312">
        <ele>99.528198</ele>
        <time>2022-05-03T09:10:10.684Z</time>
      </trkpt>
      <trkpt lat="41.05183" lon="19.83105">
        <ele>99.424147</ele>
        <time>2022-05-03T09:10:12.607Z</time>
      </trkpt>
      <trkpt lat="41.0518" lon="19.8309">
        <ele>99.319594</ele>
        <time>2022-05-03T09:10:14.621Z</time>
      </trkpt>
      <trkpt lat="41.05178" lon="19.83074">
        <ele>99.212713</ele>
        <time>2022-05-03T09:10:16.614Z</time>
      </trkpt>
      <trkpt lat="41.05176" lon="19.83059">
        <ele>99.106164</ele>
        <time>2022-05-03T09:10:18.656Z</time>
      </trkpt>
      <trkpt lat="41.05174" lon="19.83044">
        <ele>99.001953</ele>
        <time>2022-05-03T09:10:20.615Z</time>
      </trkpt>
      <trkpt lat="41.05172" lon="19.83029">
        <ele>98.905571</ele>
        <time>2022-05-03T09:10:22.691Z</time>
      </trkpt>
      <trkpt lat="41.05169" lon="19.83014">
        <ele>98.834686</ele>
        <time>2022-05-03T09:10:24.606Z</time>
      </trkpt>
      <trkpt lat="41.05166" lon="19.83">
        <ele>98.765147</ele>
        <time>2022-05-03T09:10:26.622Z</time>
      </trkpt>
      <trkpt lat="41.05162" lon="19.82986">
        <ele>98.696872</ele>
        <time>2022-05-03T09:10:28.613Z</time>
      </trkpt>
      <trkpt lat="41.05158" lon="19.82971">
        <ele>98.625004</ele>
        <time>2022-05-03T09:10:30.617Z</time>
      </trkpt>
      <trkpt lat="41.05154" lon="19.82957">
        <ele>98.554348</ele>
        <time>2022-05-03T09:10:32.606Z</time>
      </trkpt>
      <trkpt lat="41.05149" lon="19.82943">
        <ele>98.480031</ele>
        <time>2022-05-03T09:10:34.646Z</time>
      </trkpt>
      <trkpt lat="41.05144" lon="19.82929">
        <ele>98.407084</ele>
        <time>2022-05-03T09:10:36.602Z</time>
      </trkpt>
      <trkpt lat="41.05138" lon="19.82914">
        <ele>98.331661</ele>
        <time>2022-05-03T09:10:38.618Z</time>
      </trkpt>
      <trkpt lat="41.05133" lon="19.829">
        <ele>98.255417</ele>
        <time>2022-05-03T09:10:40.615Z</time>
      </trkpt>
      <trkpt lat="41.05127" lon="19.82885">
        <ele>98.178757</ele>
        <time>2022-05-03T09:10:42.612Z</time>
      </trkpt>
      <trkpt lat="41.05122" lon="19.8287">
        <ele>98.102927</ele>
        <time>2022-05-03T09:10:44.617Z</time>
      </trkpt>
      <trkpt lat="41.05116" lon="19.82856">
        <ele>98.027504</ele>
        <time>2022-05-03T09:10:46.611Z</time>
      </trkpt>
      <trkpt lat="41.05111" lon="19.82841">
        <ele>97.951259</ele>
        <time>2022-05-03T09:10:48.651Z</time>
      </trkpt>
      <trkpt lat="41.05105" lon="19.82827">
        <ele>97.876818</ele>
        <time>2022-05-03T09:10:50.640Z</time>
      </trkpt>
      <trkpt lat="41.051" lon="19.82812">
        <ele>97.803498</ele>
        <time>2022-05-03T09:10:52.620Z</time>
      </trkpt>
      <trkpt lat="41.05095" lon="19.82798">
        <ele>97.747946</ele>
        <time>2022-05-03T09:10:54.611Z</time>
      </trkpt>
      <trkpt lat="41.0509" lon="19.82784">
        <ele>97.692831</ele>
        <time>2022-05-03T09:10:56.650Z</time>
      </trkpt>
      <trkpt lat="41.05084" lon="19.8277">
        <ele>97.639703</ele>
        <time>2022-05-03T09:10:58.629Z</time>
      </trkpt>
      <trkpt lat="41.0508" lon="19.82757">
        <ele>97.58833</ele>
        <time>2022-05-03T09:11:00.596Z</time>
      </trkpt>
      <trkpt lat="41.05075" lon="19.82743">
        <ele>97.536397</ele>
        <time>2022-05-03T09:11:02.613Z</time>
      </trkpt>
      <trkpt lat="41.05071" lon="19.82728">
        <ele>97.481292</ele>
        <time>2022-05-03T09:11:04.631Z</time>
      </trkpt>
      <trkpt lat="41.05067" lon="19.82713">
        <ele>97.426635</ele>
        <time>2022-05-03T09:11:06.624Z</time>
      </trkpt>
      <trkpt lat="41.05064" lon="19.82699">
        <ele>97.373395</ele>
        <time>2022-05-03T09:11:08.620Z</time>
      </trkpt>
      <trkpt lat="41.0506" lon="19.82684">
        <ele>97.320755</ele>
        <time>2022-05-03T09:11:10.621Z</time>
      </trkpt>
      <trkpt lat="41.05058" lon="19.8267">
        <ele>97.26835</ele>
        <time>2022-05-03T09:11:12.622Z</time>
      </trkpt>
      <trkpt lat="41.05056" lon="19.82655">
        <ele>97.216665</ele>
        <time>2022-05-03T09:11:14.612Z</time>
      </trkpt>
      <trkpt lat="41.05055" lon="19.8264">
        <ele>97.165788</ele>
        <time>2022-05-03T09:11:16.624Z</time>
      </trkpt>
      <trkpt lat="41.05054" lon="19.82627">
        <ele>97.118178</ele>
        <time>2022-05-03T09:11:18.652Z</time>
      </trkpt>
      <trkpt lat="41.05053" lon="19.82614">
        <ele>97.071998</ele>
        <time>2022-05-03T09:11:20.631Z</time>
      </trkpt>
      <trkpt lat="41.05052" lon="19.82601">
        <ele>97.0279</ele>
        <time>2022-05-03T09:11:22.614Z</time>
      </trkpt>
      <trkpt lat="41.05052" lon="19.82589">
        <ele>96.984191</ele>
        <time>2022-05-03T09:11:24.649Z</time>
      </trkpt>
      <trkpt lat="41.05051" lon="19.82576">
        <ele>97.09481</ele>
        <time>2022-05-03T09:11:26.610Z</time>
      </trkpt>
      <trkpt lat="41.0505" lon="19.82564">
        <ele>97.218325</ele>
        <time>2022-05-03T09:11:28.610Z</time>
      </trkpt>
      <trkpt lat="41.05049" lon="19.82546">
        <ele>97.39313</ele>
        <time>2022-05-03T09:11:31.623Z</time>
      </trkpt>
      <trkpt lat="41.05048" lon="19.82529">
        <ele>97.561742</ele>
        <time>2022-05-03T09:11:34.628Z</time>
      </trkpt>
      <trkpt lat="41.05047" lon="19.82513">
        <ele>97.723845</ele>
        <time>2022-05-03T09:11:37.637Z</time>
      </trkpt>
      <trkpt lat="41.05046" lon="19.82497">
        <ele>97.881583</ele>
        <time>2022-05-03T09:11:40.625Z</time>
      </trkpt>
      <trkpt lat="41.05045" lon="19.82481">
        <ele>98.038332</ele>
        <time>2022-05-03T09:11:43.641Z</time>
      </trkpt>
      <trkpt lat="41.05044" lon="19.82465">
        <ele>98.196537</ele>
        <time>2022-05-03T09:11:46.597Z</time>
      </trkpt>
      <trkpt lat="41.05043" lon="19.8245">
        <ele>98.354412</ele>
        <time>2022-05-03T09:11:49.619Z</time>
      </trkpt>
      <trkpt lat="41.05041" lon="19.82433">
        <ele>98.516382</ele>
        <time>2022-05-03T09:11:52.672Z</time>
      </trkpt>
      <trkpt lat="41.0504" lon="19.82417">
        <ele>98.678054</ele>
        <time>2022-05-03T09:11:55.619Z</time>
      </trkpt>
      <trkpt lat="41.05038" lon="19.82402">
        <ele>98.833058</ele>
        <time>2022-05-03T09:11:58.606Z</time>
      </trkpt>
      <trkpt lat="41.05035" lon="19.82386">
        <ele>98.990701</ele>
        <time>2022-05-03T09:12:01.611Z</time>
      </trkpt>
      <trkpt lat="41.05032" lon="19.82369">
        <ele>99.167411</ele>
        <time>2022-05-03T09:12:04.615Z</time>
      </trkpt>
      <trkpt lat="41.05029" lon="19.82358">
        <ele>99.287999</ele>
        <time>2022-05-03T09:12:06.619Z</time>
      </trkpt>
      <trkpt lat="41.05026" lon="19.82346">
        <ele>99.288495</ele>
        <time>2022-05-03T09:12:08.626Z</time>
      </trkpt>
      <trkpt lat="41.05023" lon="19.82335">
        <ele>99.165786</ele>
        <time>2022-05-03T09:12:10.612Z</time>
      </trkpt>
      <trkpt lat="41.05019" lon="19.82324">
        <ele>99.043069</ele>
        <time>2022-05-03T09:12:12.614Z</time>
      </trkpt>
      <trkpt lat="41.05016" lon="19.82313">
        <ele>98.917424</ele>
        <time>2022-05-03T09:12:14.620Z</time>
      </trkpt>
      <trkpt lat="41.05012" lon="19.82302">
        <ele>98.789374</ele>
        <time>2022-05-03T09:12:16.617Z</time>
      </trkpt>
      <trkpt lat="41.05008" lon="19.82291">
        <ele>98.663478</ele>
        <time>2022-05-03T09:12:18.624Z</time>
      </trkpt>
      <trkpt lat="41.05003" lon="19.8228">
        <ele>98.538775</ele>
        <time>2022-05-03T09:12:20.653Z</time>
      </trkpt>
      <trkpt lat="41.04998" lon="19.8227">
        <ele>98.41192</ele>
        <time>2022-05-03T09:12:22.603Z</time>
      </trkpt>
      <trkpt lat="41.04993" lon="19.82259">
        <ele>98.284196</ele>
        <time>2022-05-03T09:12:24.603Z</time>
      </trkpt>
      <trkpt lat="41.04987" lon="19.82249">
        <ele>98.155227</ele>
        <time>2022-05-03T09:12:26.651Z</time>
      </trkpt>
      <trkpt lat="41.04982" lon="19.82239">
        <ele>98.025478</ele>
        <time>2022-05-03T09:12:28.624Z</time>
      </trkpt>
      <trkpt lat="41.04976" lon="19.82229">
        <ele>97.893189</ele>
        <time>2022-05-03T09:12:30.616Z</time>
      </trkpt>
      <trkpt lat="41.04969" lon="19.82219">
        <ele>97.759168</ele>
        <time>2022-05-03T09:12:32.621Z</time>
      </trkpt>
      <trkpt lat="41.04963" lon="19.82209">
        <ele>97.621965</ele>
        <time>2022-05-03T09:12:34.630Z</time>
      </trkpt>
      <trkpt lat="41.04956" lon="19.82198">
        <ele>97.480497</ele>
        <time>2022-05-03T09:12:36.649Z</time>
      </trkpt>
      <trkpt lat="41.04949" lon="19.82188">
        <ele>97.339698</ele>
        <time>2022-05-03T09:12:38.621Z</time>
      </trkpt>
      <trkpt lat="41.04943" lon="19.82178">
        <ele>97.202727</ele>
        <time>2022-05-03T09:12:40.622Z</time>
      </trkpt>
      <trkpt lat="41.04936" lon="19.82168">
        <ele>97.062394</ele>
        <time>2022-05-03T09:12:42.617Z</time>
      </trkpt>
      <trkpt lat="41.04929" lon="19.82158">
        <ele>96.921305</ele>
        <time>2022-05-03T09:12:44.622Z</time>
      </trkpt>
      <trkpt lat="41.04921" lon="19.82148">
        <ele>96.729032</ele>
        <time>2022-05-03T09:12:46.622Z</time>
      </trkpt>
      <trkpt lat="41.04914" lon="19.82138">
        <ele>96.527081</ele>
        <time>2022-05-03T09:12:48.668Z</time>
      </trkpt>
      <trkpt lat="41.04906" lon="19.82129">
        <ele>96.329321</ele>
        <time>2022-05-03T09:12:50.632Z</time>
      </trkpt>
      <trkpt lat="41.04898" lon="19.8212">
        <ele>96.126401</ele>
        <time>2022-05-03T09:12:52.623Z</time>
      </trkpt>
      <trkpt lat="41.04889" lon="19.82111">
        <ele>95.92109</ele>
        <time>2022-05-03T09:12:54.612Z</time>
      </trkpt>
      <trkpt lat="41.04881" lon="19.82102">
        <ele>95.716154</ele>
        <time>2022-05-03T09:12:56.624Z</time>
      </trkpt>
      <trkpt lat="41.04873" lon="19.82093">
        <ele>95.506063</ele>
        <time>2022-05-03T09:12:58.613Z</time>
      </trkpt>
      <trkpt lat="41.04864" lon="19.82083">
        <ele>95.290644</ele>
        <time>2022-05-03T09:13:00.627Z</time>
      </trkpt>
      <trkpt lat="41.04855" lon="19.82073">
        <ele>95.066568</ele>
        <time>2022-05-03T09:13:02.610Z</time>
      </trkpt>
      <trkpt lat="41.04846" lon="19.82064">
        <ele>94.849305</ele>
        <time>2022-05-03T09:13:04.619Z</time>
      </trkpt>
      <trkpt lat="41.04837" lon="19.82054">
        <ele>94.633314</ele>
        <time>2022-05-03T09:13:06.606Z</time>
      </trkpt>
      <trkpt lat="41.04829" lon="19.82045">
        <ele>94.421758</ele>
        <time>2022-05-03T09:13:08.622Z</time>
      </trkpt>
      <trkpt lat="41.04821" lon="19.82035">
        <ele>94.210733</ele>
        <time>2022-05-03T09:13:10.684Z</time>
      </trkpt>
      <trkpt lat="41.04812" lon="19.82026">
        <ele>94.004488</ele>
        <time>2022-05-03T09:13:12.643Z</time>
      </trkpt>
      <trkpt lat="41.04804" lon="19.82017">
        <ele>93.803021</ele>
        <time>2022-05-03T09:13:14.614Z</time>
      </trkpt>
      <trkpt lat="41.04797" lon="19.82007">
        <ele>93.601988</ele>
        <time>2022-05-03T09:13:16.617Z</time>
      </trkpt>
      <trkpt lat="41.0479" lon="19.81997">
        <ele>93.462375</ele>
        <time>2022-05-03T09:13:18.617Z</time>
      </trkpt>
      <trkpt lat="41.04783" lon="19.81986">
        <ele>93.477852</ele>
        <time>2022-05-03T09:13:20.611Z</time>
      </trkpt>
      <trkpt lat="41.04776" lon="19.81975">
        <ele>93.493317</ele>
        <time>2022-05-03T09:13:22.622Z</time>
      </trkpt>
      <trkpt lat="41.0477" lon="19.81964">
        <ele>93.508777</ele>
        <time>2022-05-03T09:13:24.612Z</time>
      </trkpt>
      <trkpt lat="41.04764" lon="19.81952">
        <ele>93.524093</ele>
        <time>2022-05-03T09:13:26.612Z</time>
      </trkpt>
      <trkpt lat="41.04758" lon="19.81941">
        <ele>93.538629</ele>
        <time>2022-05-03T09:13:28.620Z</time>
      </trkpt>
      <trkpt lat="41.04752" lon="19.8193">
        <ele>93.552796</ele>
        <time>2022-05-03T09:13:30.639Z</time>
      </trkpt>
      <trkpt lat="41.04747" lon="19.8192">
        <ele>93.566885</ele>
        <time>2022-05-03T09:13:32.665Z</time>
      </trkpt>
      <trkpt lat="41.04741" lon="19.81908">
        <ele>93.581761</ele>
        <time>2022-05-03T09:13:34.620Z</time>
      </trkpt>
      <trkpt lat="41.04735" lon="19.81897">
        <ele>93.596978</ele>
        <time>2022-05-03T09:13:36.645Z</time>
      </trkpt>
      <trkpt lat="41.04729" lon="19.81885">
        <ele>93.612454</ele>
        <time>2022-05-03T09:13:38.663Z</time>
      </trkpt>
      <trkpt lat="41.04723" lon="19.81873">
        <ele>93.627262</ele>
        <time>2022-05-03T09:13:40.610Z</time>
      </trkpt>
      <trkpt lat="41.04718" lon="19.81862">
        <ele>93.642071</ele>
        <time>2022-05-03T09:13:42.625Z</time>
      </trkpt>
      <trkpt lat="41.04712" lon="19.8185">
        <ele>93.656777</ele>
        <time>2022-05-03T09:13:44.613Z</time>
      </trkpt>
      <trkpt lat="41.04706" lon="19.81839">
        <ele>93.671573</ele>
        <time>2022-05-03T09:13:46.622Z</time>
      </trkpt>
      <trkpt lat="41.04701" lon="19.81828">
        <ele>93.686136</ele>
        <time>2022-05-03T09:13:48.618Z</time>
      </trkpt>
      <trkpt lat="41.04696" lon="19.81817">
        <ele>93.699725</ele>
        <time>2022-05-03T09:13:50.624Z</time>
      </trkpt>
      <trkpt lat="41.04691" lon="19.81806">
        <ele>93.713786</ele>
        <time>2022-05-03T09:13:52.628Z</time>
      </trkpt>
      <trkpt lat="41.04685" lon="19.81794">
        <ele>93.677231</ele>
        <time>2022-05-03T09:13:54.609Z</time>
      </trkpt>
      <trkpt lat="41.04679" lon="19.81783">
        <ele>93.632333</ele>
        <time>2022-05-03T09:13:56.624Z</time>
      </trkpt>
      <trkpt lat="41.04674" lon="19.81772">
        <ele>93.586477</ele>
        <time>2022-05-03T09:13:58.612Z</time>
      </trkpt>
      <trkpt lat="41.04669" lon="19.81761">
        <ele>93.542712</ele>
        <time>2022-05-03T09:14:00.651Z</time>
      </trkpt>
      <trkpt lat="41.04663" lon="19.8175">
        <ele>93.497472</ele>
        <time>2022-05-03T09:14:02.612Z</time>
      </trkpt>
      <trkpt lat="41.04658" lon="19.81738">
        <ele>93.452762</ele>
        <time>2022-05-03T09:14:04.622Z</time>
      </trkpt>
      <trkpt lat="41.04653" lon="19.81727">
        <ele>93.409225</ele>
        <time>2022-05-03T09:14:06.614Z</time>
      </trkpt>
      <trkpt lat="41.04648" lon="19.81716">
        <ele>93.365751</ele>
        <time>2022-05-03T09:14:08.618Z</time>
      </trkpt>
      <trkpt lat="41.04643" lon="19.81705">
        <ele>93.321174</ele>
        <time>2022-05-03T09:14:10.619Z</time>
      </trkpt>
      <trkpt lat="41.04638" lon="19.81693">
        <ele>93.276242</ele>
        <time>2022-05-03T09:14:12.622Z</time>
      </trkpt>
      <trkpt lat="41.04633" lon="19.81681">
        <ele>93.230644</ele>
        <time>2022-05-03T09:14:14.616Z</time>
      </trkpt>
      <trkpt lat="41.04628" lon="19.8167">
        <ele>93.185547</ele>
        <time>2022-05-03T09:14:16.621Z</time>
      </trkpt>
      <trkpt lat="41.04623" lon="19.81658">
        <ele>93.140026</ele>
        <time>2022-05-03T09:14:18.643Z</time>
      </trkpt>
      <trkpt lat="41.04618" lon="19.81647">
        <ele>93.095154</ele>
        <time>2022-05-03T09:14:20.638Z</time>
      </trkpt>
      <trkpt lat="41.04613" lon="19.81635">
        <ele>93.049703</ele>
        <time>2022-05-03T09:14:22.635Z</time>
      </trkpt>
      <trkpt lat="41.04608" lon="19.81623">
        <ele>93.002915</ele>
        <time>2022-05-03T09:14:24.619Z</time>
      </trkpt>
      <trkpt lat="41.04604" lon="19.8161">
        <ele>92.955735</ele>
        <time>2022-05-03T09:14:26.632Z</time>
      </trkpt>
      <trkpt lat="41.04599" lon="19.81598">
        <ele>92.909543</ele>
        <time>2022-05-03T09:14:28.647Z</time>
      </trkpt>
      <trkpt lat="41.04594" lon="19.81586">
        <ele>92.823803</ele>
        <time>2022-05-03T09:14:30.626Z</time>
      </trkpt>
      <trkpt lat="41.04589" lon="19.81575">
        <ele>92.737511</ele>
        <time>2022-05-03T09:14:32.618Z</time>
      </trkpt>
      <trkpt lat="41.04584" lon="19.81562">
        <ele>92.649362</ele>
        <time>2022-05-03T09:14:34.661Z</time>
      </trkpt>
      <trkpt lat="41.0458" lon="19.8155">
        <ele>92.560644</ele>
        <time>2022-05-03T09:14:36.619Z</time>
      </trkpt>
      <trkpt lat="41.04574" lon="19.81538">
        <ele>92.468917</ele>
        <time>2022-05-03T09:14:38.621Z</time>
      </trkpt>
      <trkpt lat="41.04569" lon="19.81526">
        <ele>92.383032</ele>
        <time>2022-05-03T09:14:40.617Z</time>
      </trkpt>
      <trkpt lat="41.04564" lon="19.81514">
        <ele>92.29786</ele>
        <time>2022-05-03T09:14:42.620Z</time>
      </trkpt>
      <trkpt lat="41.0456" lon="19.81502">
        <ele>92.210844</ele>
        <time>2022-05-03T09:14:44.611Z</time>
      </trkpt>
      <trkpt lat="41.04555" lon="19.81491">
        <ele>92.127053</ele>
        <time>2022-05-03T09:14:46.625Z</time>
      </trkpt>
      <trkpt lat="41.0455" lon="19.8148">
        <ele>92.044792</ele>
        <time>2022-05-03T09:14:48.616Z</time>
      </trkpt>
      <trkpt lat="41.04546" lon="19.81468">
        <ele>91.962269</ele>
        <time>2022-05-03T09:14:50.624Z</time>
      </trkpt>
      <trkpt lat="41.04541" lon="19.81457">
        <ele>91.87863</ele>
        <time>2022-05-03T09:14:52.624Z</time>
      </trkpt>
      <trkpt lat="41.04536" lon="19.81445">
        <ele>91.795065</ele>
        <time>2022-05-03T09:14:54.615Z</time>
      </trkpt>
      <trkpt lat="41.04531" lon="19.81434">
        <ele>91.708917</ele>
        <time>2022-05-03T09:14:56.619Z</time>
      </trkpt>
      <trkpt lat="41.04526" lon="19.81422">
        <ele>91.622348</ele>
        <time>2022-05-03T09:14:58.618Z</time>
      </trkpt>
      <trkpt lat="41.04521" lon="19.8141">
        <ele>91.534523</ele>
        <time>2022-05-03T09:15:00.605Z</time>
      </trkpt>
      <trkpt lat="41.04516" lon="19.81398">
        <ele>91.444751</ele>
        <time>2022-05-03T09:15:02.625Z</time>
      </trkpt>
      <trkpt lat="41.04511" lon="19.81385">
        <ele>91.335322</ele>
        <time>2022-05-03T09:15:04.619Z</time>
      </trkpt>
      <trkpt lat="41.04506" lon="19.81373">
        <ele>91.177</ele>
        <time>2022-05-03T09:15:06.605Z</time>
      </trkpt>
      <trkpt lat="41.045" lon="19.8136">
        <ele>91.013256</ele>
        <time>2022-05-03T09:15:08.596Z</time>
      </trkpt>
      <trkpt lat="41.04494" lon="19.81347">
        <ele>90.847235</ele>
        <time>2022-05-03T09:15:10.602Z</time>
      </trkpt>
      <trkpt lat="41.04489" lon="19.81334">
        <ele>90.676857</ele>
        <time>2022-05-03T09:15:12.657Z</time>
      </trkpt>
      <trkpt lat="41.04483" lon="19.8132">
        <ele>90.505782</ele>
        <time>2022-05-03T09:15:14.623Z</time>
      </trkpt>
      <trkpt lat="41.04477" lon="19.81306">
        <ele>90.328865</ele>
        <time>2022-05-03T09:15:16.635Z</time>
      </trkpt>
      <trkpt lat="41.04471" lon="19.81291">
        <ele>90.147933</ele>
        <time>2022-05-03T09:15:18.664Z</time>
      </trkpt>
      <trkpt lat="41.04465" lon="19.81277">
        <ele>89.966041</ele>
        <time>2022-05-03T09:15:20.620Z</time>
      </trkpt>
      <trkpt lat="41.04459" lon="19.81262">
        <ele>89.779123</ele>
        <time>2022-05-03T09:15:22.616Z</time>
      </trkpt>
      <trkpt lat="41.04453" lon="19.81247">
        <ele>89.588733</ele>
        <time>2022-05-03T09:15:24.615Z</time>
      </trkpt>
      <trkpt lat="41.04447" lon="19.81231">
        <ele>89.393744</ele>
        <time>2022-05-03T09:15:26.621Z</time>
      </trkpt>
      <trkpt lat="41.04441" lon="19.81216">
        <ele>89.196004</ele>
        <time>2022-05-03T09:15:28.596Z</time>
      </trkpt>
      <trkpt lat="41.04434" lon="19.81199">
        <ele>88.988667</ele>
        <time>2022-05-03T09:15:30.611Z</time>
      </trkpt>
      <trkpt lat="41.04427" lon="19.81183">
        <ele>88.782741</ele>
        <time>2022-05-03T09:15:32.621Z</time>
      </trkpt>
      <trkpt lat="41.0442" lon="19.81167">
        <ele>88.521509</ele>
        <time>2022-05-03T09:15:34.627Z</time>
      </trkpt>
      <trkpt lat="41.04414" lon="19.8115">
        <ele>88.251673</ele>
        <time>2022-05-03T09:15:36.619Z</time>
      </trkpt>
      <trkpt lat="41.04407" lon="19.81134">
        <ele>87.981837</ele>
        <time>2022-05-03T09:15:38.618Z</time>
      </trkpt>
      <trkpt lat="41.04401" lon="19.81118">
        <ele>87.710147</ele>
        <time>2022-05-03T09:15:40.649Z</time>
      </trkpt>
      <trkpt lat="41.04394" lon="19.81102">
        <ele>87.445489</ele>
        <time>2022-05-03T09:15:42.612Z</time>
      </trkpt>
      <trkpt lat="41.04387" lon="19.81087">
        <ele>87.180531</ele>
        <time>2022-05-03T09:15:44.620Z</time>
      </trkpt>
      <trkpt lat="41.04381" lon="19.81071">
        <ele>86.92161</ele>
        <time>2022-05-03T09:15:46.676Z</time>
      </trkpt>
      <trkpt lat="41.04375" lon="19.81056">
        <ele>86.666202</ele>
        <time>2022-05-03T09:15:48.612Z</time>
      </trkpt>
      <trkpt lat="41.04369" lon="19.81041">
        <ele>86.41301</ele>
        <time>2022-05-03T09:15:50.617Z</time>
      </trkpt>
      <trkpt lat="41.04363" lon="19.81026">
        <ele>86.165133</ele>
        <time>2022-05-03T09:15:52.613Z</time>
      </trkpt>
      <trkpt lat="41.04357" lon="19.8101">
        <ele>85.917691</ele>
        <time>2022-05-03T09:15:54.608Z</time>
      </trkpt>
      <trkpt lat="41.04352" lon="19.80995">
        <ele>85.674013</ele>
        <time>2022-05-03T09:15:56.605Z</time>
      </trkpt>
      <trkpt lat="41.04348" lon="19.8098">
        <ele>85.442158</ele>
        <time>2022-05-03T09:15:58.616Z</time>
      </trkpt>
      <trkpt lat="41.04345" lon="19.80966">
        <ele>85.25281</ele>
        <time>2022-05-03T09:16:00.604Z</time>
      </trkpt>
      <trkpt lat="41.04342" lon="19.80953">
        <ele>85.396769</ele>
        <time>2022-05-03T09:16:02.617Z</time>
      </trkpt>
      <trkpt lat="41.04339" lon="19.8094">
        <ele>85.53266</ele>
        <time>2022-05-03T09:16:04.610Z</time>
      </trkpt>
      <trkpt lat="41.04337" lon="19.80928">
        <ele>85.663549</ele>
        <time>2022-05-03T09:16:06.638Z</time>
      </trkpt>
      <trkpt lat="41.04336" lon="19.80916">
        <ele>85.792982</ele>
        <time>2022-05-03T09:16:08.652Z</time>
      </trkpt>
      <trkpt lat="41.04335" lon="19.80904">
        <ele>85.917834</ele>
        <time>2022-05-03T09:16:10.622Z</time>
      </trkpt>
      <trkpt lat="41.04334" lon="19.80892">
        <ele>86.041526</ele>
        <time>2022-05-03T09:16:12.630Z</time>
      </trkpt>
      <trkpt lat="41.04333" lon="19.8088">
        <ele>86.169344</ele>
        <time>2022-05-03T09:16:14.656Z</time>
      </trkpt>
      <trkpt lat="41.04333" lon="19.80867">
        <ele>86.296697</ele>
        <time>2022-05-03T09:16:16.624Z</time>
      </trkpt>
      <trkpt lat="41.04334" lon="19.80849">
        <ele>86.485371</ele>
        <time>2022-05-03T09:16:19.608Z</time>
      </trkpt>
      <trkpt lat="41.04334" lon="19.80837">
        <ele>86.613935</ele>
        <time>2022-05-03T09:16:21.621Z</time>
      </trkpt>
      <trkpt lat="41.04335" lon="19.80824">
        <ele>86.748639</ele>
        <time>2022-05-03T09:16:23.631Z</time>
      </trkpt>
      <trkpt lat="41.04335" lon="19.80811">
        <ele>86.883406</ele>
        <time>2022-05-03T09:16:25.652Z</time>
      </trkpt>
      <trkpt lat="41.04336" lon="19.80798">
        <ele>87.018111</ele>
        <time>2022-05-03T09:16:27.619Z</time>
      </trkpt>
      <trkpt lat="41.04336" lon="19.80785">
        <ele>87.147555</ele>
        <time>2022-05-03T09:16:29.623Z</time>
      </trkpt>
      <trkpt lat="41.04336" lon="19.80773">
        <ele>87.271863</ele>
        <time>2022-05-03T09:16:31.660Z</time>
      </trkpt>
      <trkpt lat="41.04337" lon="19.80755">
        <ele>87.456335</ele>
        <time>2022-05-03T09:16:34.649Z</time>
      </trkpt>
      <trkpt lat="41.04337" lon="19.80743">
        <ele>87.586815</ele>
        <time>2022-05-03T09:16:36.613Z</time>
      </trkpt>
      <trkpt lat="41.04337" lon="19.8073">
        <ele>87.712014</ele>
        <time>2022-05-03T09:16:38.622Z</time>
      </trkpt>
      <trkpt lat="41.04338" lon="19.80718">
        <ele>87.73997</ele>
        <time>2022-05-03T09:16:40.619Z</time>
      </trkpt>
      <trkpt lat="41.04339" lon="19.80705">
        <ele>87.768773</ele>
        <time>2022-05-03T09:16:42.612Z</time>
      </trkpt>
      <trkpt lat="41.04339" lon="19.80692">
        <ele>87.796978</ele>
        <time>2022-05-03T09:16:44.610Z</time>
      </trkpt>
      <trkpt lat="41.0434" lon="19.8068">
        <ele>87.825434</ele>
        <time>2022-05-03T09:16:46.617Z</time>
      </trkpt>
      <trkpt lat="41.04341" lon="19.80668">
        <ele>87.853281</ele>
        <time>2022-05-03T09:16:48.623Z</time>
      </trkpt>
      <trkpt lat="41.04343" lon="19.8065">
        <ele>87.892245</ele>
        <time>2022-05-03T09:16:51.623Z</time>
      </trkpt>
      <trkpt lat="41.04345" lon="19.80633">
        <ele>87.931732</ele>
        <time>2022-05-03T09:16:54.622Z</time>
      </trkpt>
      <trkpt lat="41.04347" lon="19.80616">
        <ele>87.970733</ele>
        <time>2022-05-03T09:16:57.627Z</time>
      </trkpt>
      <trkpt lat="41.04349" lon="19.80599">
        <ele>88.00902</ele>
        <time>2022-05-03T09:17:00.622Z</time>
      </trkpt>
      <trkpt lat="41.04351" lon="19.80582">
        <ele>88.047259</ele>
        <time>2022-05-03T09:17:03.619Z</time>
      </trkpt>
      <trkpt lat="41.04354" lon="19.80565">
        <ele>88.086862</ele>
        <time>2022-05-03T09:17:06.625Z</time>
      </trkpt>
      <trkpt lat="41.04356" lon="19.80548">
        <ele>88.125968</ele>
        <time>2022-05-03T09:17:09.614Z</time>
      </trkpt>
      <trkpt lat="41.04358" lon="19.80531">
        <ele>88.164873</ele>
        <time>2022-05-03T09:17:12.626Z</time>
      </trkpt>
      <trkpt lat="41.0436" lon="19.80513">
        <ele>88.204642</ele>
        <time>2022-05-03T09:17:15.621Z</time>
      </trkpt>
      <trkpt lat="41.04363" lon="19.80497">
        <ele>88.242979</ele>
        <time>2022-05-03T09:17:18.620Z</time>
      </trkpt>
      <trkpt lat="41.04365" lon="19.80481">
        <ele>88.399694</ele>
        <time>2022-05-03T09:17:21.602Z</time>
      </trkpt>
      <trkpt lat="41.04367" lon="19.80464">
        <ele>88.574045</ele>
        <time>2022-05-03T09:17:24.634Z</time>
      </trkpt>
      <trkpt lat="41.04369" lon="19.80449">
        <ele>88.742591</ele>
        <time>2022-05-03T09:17:27.624Z</time>
      </trkpt>
      <trkpt lat="41.04371" lon="19.80434">
        <ele>88.902177</ele>
        <time>2022-05-03T09:17:30.610Z</time>
      </trkpt>
      <trkpt lat="41.04372" lon="19.80419">
        <ele>89.056383</ele>
        <time>2022-05-03T09:17:33.624Z</time>
      </trkpt>
      <trkpt lat="41.04373" lon="19.80405">
        <ele>89.209541</ele>
        <time>2022-05-03T09:17:36.624Z</time>
      </trkpt>
      <trkpt lat="41.04375" lon="19.80391">
        <ele>89.36221</ele>
        <time>2022-05-03T09:17:39.622Z</time>
      </trkpt>
      <trkpt lat="41.04376" lon="19.80376">
        <ele>89.514493</ele>
        <time>2022-05-03T09:17:42.631Z</time>
      </trkpt>
      <trkpt lat="41.04378" lon="19.80362">
        <ele>89.670101</ele>
        <time>2022-05-03T09:17:45.614Z</time>
      </trkpt>
      <trkpt lat="41.04379" lon="19.80347">
        <ele>89.831132</ele>
        <time>2022-05-03T09:17:48.612Z</time>
      </trkpt>
      <trkpt lat="41.04381" lon="19.80331">
        <ele>89.996879</ele>
        <time>2022-05-03T09:17:51.625Z</time>
      </trkpt>
      <trkpt lat="41.04382" lon="19.80315">
        <ele>90.1676</ele>
        <time>2022-05-03T09:17:54.643Z</time>
      </trkpt>
      <trkpt lat="41.04382" lon="19.803">
        <ele>90.328176</ele>
        <time>2022-05-03T09:17:57.618Z</time>
      </trkpt>
      <trkpt lat="41.04383" lon="19.80284">
        <ele>90.49141</ele>
        <time>2022-05-03T09:18:00.612Z</time>
      </trkpt>
      <trkpt lat="41.04384" lon="19.80269">
        <ele>90.65254</ele>
        <time>2022-05-03T09:18:03.636Z</time>
      </trkpt>
      <trkpt lat="41.04384" lon="19.80254">
        <ele>90.809673</ele>
        <time>2022-05-03T09:18:06.627Z</time>
      </trkpt>
      <trkpt lat="41.04385" lon="19.80239">
        <ele>90.950638</ele>
        <time>2022-05-03T09:18:09.649Z</time>
      </trkpt>
      <trkpt lat="41.04385" lon="19.80224">
        <ele>91.091553</ele>
        <time>2022-05-03T09:18:12.604Z</time>
      </trkpt>
      <trkpt lat="41.04386" lon="19.80208">
        <ele>91.235246</ele>
        <time>2022-05-03T09:18:15.626Z</time>
      </trkpt>
      <trkpt lat="41.04386" lon="19.80193">
        <ele>91.381754</ele>
        <time>2022-05-03T09:18:18.619Z</time>
      </trkpt>
      <trkpt lat="41.04386" lon="19.80178">
        <ele>91.52448</ele>
        <time>2022-05-03T09:18:21.609Z</time>
      </trkpt>
      <trkpt lat="41.04386" lon="19.80163">
        <ele>91.665357</ele>
        <time>2022-05-03T09:18:24.624Z</time>
      </trkpt>
      <trkpt lat="41.04386" lon="19.80147">
        <ele>91.80994</ele>
        <time>2022-05-03T09:18:27.659Z</time>
      </trkpt>
      <trkpt lat="41.04387" lon="19.80132">
        <ele>91.954656</ele>
        <time>2022-05-03T09:18:30.619Z</time>
      </trkpt>
      <trkpt lat="41.04387" lon="19.80116">
        <ele>92.102139</ele>
        <time>2022-05-03T09:18:33.622Z</time>
      </trkpt>
      <trkpt lat="41.04387" lon="19.80101">
        <ele>92.24205</ele>
        <time>2022-05-03T09:18:36.615Z</time>
      </trkpt>
      <trkpt lat="41.04387" lon="19.80086">
        <ele>92.38196</ele>
        <time>2022-05-03T09:18:39.628Z</time>
      </trkpt>
      <trkpt lat="41.04387" lon="19.80072">
        <ele>92.520246</ele>
        <time>2022-05-03T09:18:42.619Z</time>
      </trkpt>
      <trkpt lat="41.04386" lon="19.80057">
        <ele>92.656521</ele>
        <time>2022-05-03T09:18:45.612Z</time>
      </trkpt>
      <trkpt lat="41.04386" lon="19.80042">
        <ele>92.793644</ele>
        <time>2022-05-03T09:18:48.624Z</time>
      </trkpt>
      <trkpt lat="41.04385" lon="19.80028">
        <ele>92.93367</ele>
        <time>2022-05-03T09:18:51.623Z</time>
      </trkpt>
      <trkpt lat="41.04385" lon="19.80012">
        <ele>93.015079</ele>
        <time>2022-05-03T09:18:54.610Z</time>
      </trkpt>
      <trkpt lat="41.04385" lon="19.79997">
        <ele>93.037065</ele>
        <time>2022-05-03T09:18:57.628Z</time>
      </trkpt>
      <trkpt lat="41.04384" lon="19.79981">
        <ele>93.05918</ele>
        <time>2022-05-03T09:19:00.652Z</time>
      </trkpt>
      <trkpt lat="41.04384" lon="19.79966">
        <ele>93.080735</ele>
        <time>2022-05-03T09:19:03.619Z</time>
      </trkpt>
      <trkpt lat="41.04384" lon="19.7995">
        <ele>93.102849</ele>
        <time>2022-05-03T09:19:06.662Z</time>
      </trkpt>
      <trkpt lat="41.04384" lon="19.79935">
        <ele>93.125248</ele>
        <time>2022-05-03T09:19:09.614Z</time>
      </trkpt>
      <trkpt lat="41.04384" lon="19.79919">
        <ele>93.147647</ele>
        <time>2022-05-03T09:19:12.656Z</time>
      </trkpt>
      <trkpt lat="41.04385" lon="19.79904">
        <ele>93.168657</ele>
        <time>2022-05-03T09:19:15.617Z</time>
      </trkpt>
      <trkpt lat="41.04385" lon="19.79889">
        <ele>93.190205</ele>
        <time>2022-05-03T09:19:18.632Z</time>
      </trkpt>
      <trkpt lat="41.04385" lon="19.79874">
        <ele>93.211793</ele>
        <time>2022-05-03T09:19:21.601Z</time>
      </trkpt>
      <trkpt lat="41.04386" lon="19.79858">
        <ele>93.234502</ele>
        <time>2022-05-03T09:19:24.621Z</time>
      </trkpt>
      <trkpt lat="41.04386" lon="19.79842">
        <ele>93.256495</ele>
        <time>2022-05-03T09:19:27.632Z</time>
      </trkpt>
      <trkpt lat="41.04387" lon="19.79827">
        <ele>93.278109</ele>
        <time>2022-05-03T09:19:30.614Z</time>
      </trkpt>
      <trkpt lat="41.04388" lon="19.79812">
        <ele>93.299522</ele>
        <time>2022-05-03T09:19:33.620Z</time>
      </trkpt>
      <trkpt lat="41.04389" lon="19.79797">
        <ele>93.320104</ele>
        <time>2022-05-03T09:19:36.630Z</time>
      </trkpt>
      <trkpt lat="41.0439" lon="19.79783">
        <ele>93.341186</ele>
        <time>2022-05-03T09:19:39.605Z</time>
      </trkpt>
      <trkpt lat="41.04392" lon="19.79768">
        <ele>93.206583</ele>
        <time>2022-05-03T09:19:42.624Z</time>
      </trkpt>
      <trkpt lat="41.04393" lon="19.79754">
        <ele>93.06509</ele>
        <time>2022-05-03T09:19:45.625Z</time>
      </trkpt>
      <trkpt lat="41.04394" lon="19.7974">
        <ele>92.922756</ele>
        <time>2022-05-03T09:19:48.620Z</time>
      </trkpt>
      <trkpt lat="41.04395" lon="19.79725">
        <ele>92.783601</ele>
        <time>2022-05-03T09:19:51.676Z</time>
      </trkpt>
      <trkpt lat="41.04396" lon="19.79711">
        <ele>92.640647</ele>
        <time>2022-05-03T09:19:54.603Z</time>
      </trkpt>
      <trkpt lat="41.04398" lon="19.79696">
        <ele>92.49459</ele>
        <time>2022-05-03T09:19:57.643Z</time>
      </trkpt>
      <trkpt lat="41.044" lon="19.79681">
        <ele>92.344482</ele>
        <time>2022-05-03T09:20:00.618Z</time>
      </trkpt>
      <trkpt lat="41.04402" lon="19.79666">
        <ele>92.193371</ele>
        <time>2022-05-03T09:20:03.599Z</time>
      </trkpt>
      <trkpt lat="41.04405" lon="19.79651">
        <ele>92.035574</ele>
        <time>2022-05-03T09:20:06.607Z</time>
      </trkpt>
      <trkpt lat="41.04408" lon="19.79635">
        <ele>91.875662</ele>
        <time>2022-05-03T09:20:09.612Z</time>
      </trkpt>
      <trkpt lat="41.04409" lon="19.79623">
        <ele>91.758489</ele>
        <time>2022-05-03T09:20:11.614Z</time>
      </trkpt>
      <trkpt lat="41.04412" lon="19.79605">
        <ele>91.581603</ele>
        <time>2022-05-03T09:20:14.655Z</time>
      </trkpt>
      <trkpt lat="41.04414" lon="19.79593">
        <ele>91.456458</ele>
        <time>2022-05-03T09:20:16.609Z</time>
      </trkpt>
      <trkpt lat="41.04416" lon="19.7958">
        <ele>91.325984</ele>
        <time>2022-05-03T09:20:18.621Z</time>
      </trkpt>
      <trkpt lat="41.04418" lon="19.79566">
        <ele>91.189724</ele>
        <time>2022-05-03T09:20:20.661Z</time>
      </trkpt>
      <trkpt lat="41.0442" lon="19.79552">
        <ele>91.051246</ele>
        <time>2022-05-03T09:20:22.614Z</time>
      </trkpt>
      <trkpt lat="41.04421" lon="19.79538">
        <ele>90.921177</ele>
        <time>2022-05-03T09:20:24.613Z</time>
      </trkpt>
      <trkpt lat="41.04424" lon="19.79524">
        <ele>90.79883</ele>
        <time>2022-05-03T09:20:26.656Z</time>
      </trkpt>
      <trkpt lat="41.04426" lon="19.79508">
        <ele>90.670069</ele>
        <time>2022-05-03T09:20:28.616Z</time>
      </trkpt>
      <trkpt lat="41.04428" lon="19.79493">
        <ele>90.537852</ele>
        <time>2022-05-03T09:20:30.620Z</time>
      </trkpt>
      <trkpt lat="41.0443" lon="19.79476">
        <ele>90.399118</ele>
        <time>2022-05-03T09:20:32.598Z</time>
      </trkpt>
      <trkpt lat="41.04432" lon="19.7946">
        <ele>90.260571</ele>
        <time>2022-05-03T09:20:34.644Z</time>
      </trkpt>
      <trkpt lat="41.04435" lon="19.79443">
        <ele>90.119384</ele>
        <time>2022-05-03T09:20:36.621Z</time>
      </trkpt>
      <trkpt lat="41.04437" lon="19.79426">
        <ele>89.975755</ele>
        <time>2022-05-03T09:20:38.661Z</time>
      </trkpt>
      <trkpt lat="41.0444" lon="19.79409">
        <ele>89.833368</ele>
        <time>2022-05-03T09:20:40.614Z</time>
      </trkpt>
      <trkpt lat="41.04442" lon="19.79393">
        <ele>89.696454</ele>
        <time>2022-05-03T09:20:42.618Z</time>
      </trkpt>
      <trkpt lat="41.04443" lon="19.79377">
        <ele>89.565557</ele>
        <time>2022-05-03T09:20:44.658Z</time>
      </trkpt>
      <trkpt lat="41.04445" lon="19.79362">
        <ele>89.438163</ele>
        <time>2022-05-03T09:20:46.620Z</time>
      </trkpt>
      <trkpt lat="41.04446" lon="19.79347">
        <ele>89.312198</ele>
        <time>2022-05-03T09:20:48.617Z</time>
      </trkpt>
      <trkpt lat="41.04448" lon="19.79331">
        <ele>89.186362</ele>
        <time>2022-05-03T09:20:50.671Z</time>
      </trkpt>
      <trkpt lat="41.04448" lon="19.79317">
        <ele>89.062755</ele>
        <time>2022-05-03T09:20:52.613Z</time>
      </trkpt>
      <trkpt lat="41.04449" lon="19.79302">
        <ele>88.963486</ele>
        <time>2022-05-03T09:20:54.600Z</time>
      </trkpt>
      <trkpt lat="41.04449" lon="19.79288">
        <ele>88.876668</ele>
        <time>2022-05-03T09:20:56.618Z</time>
      </trkpt>
      <trkpt lat="41.04449" lon="19.79274">
        <ele>88.789333</ele>
        <time>2022-05-03T09:20:58.652Z</time>
      </trkpt>
      <trkpt lat="41.0445" lon="19.79259">
        <ele>88.703204</ele>
        <time>2022-05-03T09:21:00.617Z</time>
      </trkpt>
      <trkpt lat="41.04449" lon="19.79245">
        <ele>88.617686</ele>
        <time>2022-05-03T09:21:02.657Z</time>
      </trkpt>
      <trkpt lat="41.04449" lon="19.79232">
        <ele>88.537065</ele>
        <time>2022-05-03T09:21:04.611Z</time>
      </trkpt>
      <trkpt lat="41.04449" lon="19.7922">
        <ele>88.459435</ele>
        <time>2022-05-03T09:21:06.618Z</time>
      </trkpt>
      <trkpt lat="41.04448" lon="19.79207">
        <ele>88.384101</ele>
        <time>2022-05-03T09:21:08.608Z</time>
      </trkpt>
      <trkpt lat="41.04448" lon="19.79195">
        <ele>88.310091</ele>
        <time>2022-05-03T09:21:10.611Z</time>
      </trkpt>
      <trkpt lat="41.04447" lon="19.79183">
        <ele>88.236033</ele>
        <time>2022-05-03T09:21:12.628Z</time>
      </trkpt>
      <trkpt lat="41.04447" lon="19.79171">
        <ele>88.161975</ele>
        <time>2022-05-03T09:21:14.616Z</time>
      </trkpt>
      <trkpt lat="41.04446" lon="19.79159">
        <ele>88.088526</ele>
        <time>2022-05-03T09:21:16.616Z</time>
      </trkpt>
      <trkpt lat="41.04446" lon="19.79147">
        <ele>88.013906</ele>
        <time>2022-05-03T09:21:18.604Z</time>
      </trkpt>
      <trkpt lat="41.04445" lon="19.79135">
        <ele>87.941116</ele>
        <time>2022-05-03T09:21:20.618Z</time>
      </trkpt>
      <trkpt lat="41.04444" lon="19.79117">
        <ele>87.83399</ele>
        <time>2022-05-03T09:21:23.619Z</time>
      </trkpt>
      <trkpt lat="41.04443" lon="19.791">
        <ele>87.72477</ele>
        <time>2022-05-03T09:21:26.611Z</time>
      </trkpt>
      <trkpt lat="41.04442" lon="19.79087">
        <ele>87.649297</ele>
        <time>2022-05-03T09:21:28.614Z</time>
      </trkpt>
      <trkpt lat="41.04441" lon="19.79075">
        <ele>87.572438</ele>
        <time>2022-05-03T09:21:30.652Z</time>
      </trkpt>
      <trkpt lat="41.0444" lon="19.79063">
        <ele>87.546739</ele>
        <time>2022-05-03T09:21:32.620Z</time>
      </trkpt>
      <trkpt lat="41.04439" lon="19.7905">
        <ele>87.525387</ele>
        <time>2022-05-03T09:21:34.624Z</time>
      </trkpt>
      <trkpt lat="41.04438" lon="19.79038">
        <ele>87.504216</ele>
        <time>2022-05-03T09:21:36.607Z</time>
      </trkpt>
      <trkpt lat="41.04437" lon="19.79025">
        <ele>87.48158</ele>
        <time>2022-05-03T09:21:38.625Z</time>
      </trkpt>
      <trkpt lat="41.04436" lon="19.79012">
        <ele>87.458601</ele>
        <time>2022-05-03T09:21:40.629Z</time>
      </trkpt>
      <trkpt lat="41.04435" lon="19.78999">
        <ele>87.43545</ele>
        <time>2022-05-03T09:21:42.612Z</time>
      </trkpt>
      <trkpt lat="41.04434" lon="19.78985">
        <ele>87.412364</ele>
        <time>2022-05-03T09:21:44.617Z</time>
      </trkpt>
      <trkpt lat="41.04433" lon="19.78972">
        <ele>87.388524</ele>
        <time>2022-05-03T09:21:46.619Z</time>
      </trkpt>
      <trkpt lat="41.04431" lon="19.78958">
        <ele>87.364117</ele>
        <time>2022-05-03T09:21:48.623Z</time>
      </trkpt>
      <trkpt lat="41.04431" lon="19.78944">
        <ele>87.340012</ele>
        <time>2022-05-03T09:21:50.618Z</time>
      </trkpt>
      <trkpt lat="41.0443" lon="19.7893">
        <ele>87.316235</ele>
        <time>2022-05-03T09:21:52.617Z</time>
      </trkpt>
      <trkpt lat="41.04429" lon="19.78917">
        <ele>87.293108</ele>
        <time>2022-05-03T09:21:54.615Z</time>
      </trkpt>
      <trkpt lat="41.04428" lon="19.78903">
        <ele>87.269363</ele>
        <time>2022-05-03T09:21:56.600Z</time>
      </trkpt>
      <trkpt lat="41.04427" lon="19.7889">
        <ele>87.245695</ele>
        <time>2022-05-03T09:21:58.606Z</time>
      </trkpt>
      <trkpt lat="41.04427" lon="19.78876">
        <ele>87.222295</ele>
        <time>2022-05-03T09:22:00.615Z</time>
      </trkpt>
      <trkpt lat="41.04426" lon="19.78862">
        <ele>87.1985</ele>
        <time>2022-05-03T09:22:02.610Z</time>
      </trkpt>
      <trkpt lat="41.04425" lon="19.78848">
        <ele>87.17365</ele>
        <time>2022-05-03T09:22:04.640Z</time>
      </trkpt>
      <trkpt lat="41.04424" lon="19.78835">
        <ele>87.151183</ele>
        <time>2022-05-03T09:22:06.613Z</time>
      </trkpt>
      <trkpt lat="41.04423" lon="19.78822">
        <ele>87.13594</ele>
        <time>2022-05-03T09:22:08.623Z</time>
      </trkpt>
      <trkpt lat="41.04422" lon="19.78808">
        <ele>87.12012</ele>
        <time>2022-05-03T09:22:10.617Z</time>
      </trkpt>
      <trkpt lat="41.04422" lon="19.78795">
        <ele>87.10362</ele>
        <time>2022-05-03T09:22:12.604Z</time>
      </trkpt>
      <trkpt lat="41.04421" lon="19.7878">
        <ele>87.086874</ele>
        <time>2022-05-03T09:22:14.625Z</time>
      </trkpt>
      <trkpt lat="41.0442" lon="19.78766">
        <ele>87.069764</ele>
        <time>2022-05-03T09:22:16.612Z</time>
      </trkpt>
      <trkpt lat="41.0442" lon="19.78751">
        <ele>87.052052</ele>
        <time>2022-05-03T09:22:18.606Z</time>
      </trkpt>
      <trkpt lat="41.04419" lon="19.78736">
        <ele>87.03436</ele>
        <time>2022-05-03T09:22:20.612Z</time>
      </trkpt>
      <trkpt lat="41.04418" lon="19.78722">
        <ele>87.016977</ele>
        <time>2022-05-03T09:22:22.615Z</time>
      </trkpt>
      <trkpt lat="41.04417" lon="19.78707">
        <ele>86.999579</ele>
        <time>2022-05-03T09:22:24.621Z</time>
      </trkpt>
      <trkpt lat="41.04416" lon="19.78693">
        <ele>86.982283</ele>
        <time>2022-05-03T09:22:26.617Z</time>
      </trkpt>
      <trkpt lat="41.04415" lon="19.78678">
        <ele>86.965032</ele>
        <time>2022-05-03T09:22:28.618Z</time>
      </trkpt>
      <trkpt lat="41.04414" lon="19.78664">
        <ele>86.948342</ele>
        <time>2022-05-03T09:22:30.688Z</time>
      </trkpt>
      <trkpt lat="41.04413" lon="19.7865">
        <ele>86.931077</ele>
        <time>2022-05-03T09:22:32.640Z</time>
      </trkpt>
      <trkpt lat="41.04411" lon="19.78635">
        <ele>86.914134</ele>
        <time>2022-05-03T09:22:34.627Z</time>
      </trkpt>
      <trkpt lat="41.0441" lon="19.78621">
        <ele>86.897388</ele>
        <time>2022-05-03T09:22:36.605Z</time>
      </trkpt>
      <trkpt lat="41.04409" lon="19.78607">
        <ele>86.880698</ele>
        <time>2022-05-03T09:22:38.660Z</time>
      </trkpt>
      <trkpt lat="41.04408" lon="19.78593">
        <ele>86.813962</ele>
        <time>2022-05-03T09:22:40.629Z</time>
      </trkpt>
      <trkpt lat="41.04407" lon="19.78579">
        <ele>86.66761</ele>
        <time>2022-05-03T09:22:42.623Z</time>
      </trkpt>
      <trkpt lat="41.04405" lon="19.78564">
        <ele>86.523884</ele>
        <time>2022-05-03T09:22:44.618Z</time>
      </trkpt>
      <trkpt lat="41.04403" lon="19.7855">
        <ele>86.380754</ele>
        <time>2022-05-03T09:22:46.618Z</time>
      </trkpt>
      <trkpt lat="41.04402" lon="19.78536">
        <ele>86.239178</ele>
        <time>2022-05-03T09:22:48.658Z</time>
      </trkpt>
      <trkpt lat="41.04401" lon="19.78522">
        <ele>86.094803</ele>
        <time>2022-05-03T09:22:50.615Z</time>
      </trkpt>
      <trkpt lat="41.04399" lon="19.78508">
        <ele>85.953195</ele>
        <time>2022-05-03T09:22:52.626Z</time>
      </trkpt>
      <trkpt lat="41.04397" lon="19.78494">
        <ele>85.812031</ele>
        <time>2022-05-03T09:22:54.615Z</time>
      </trkpt>
      <trkpt lat="41.04396" lon="19.78479">
        <ele>85.670276</ele>
        <time>2022-05-03T09:22:56.604Z</time>
      </trkpt>
      <trkpt lat="41.04394" lon="19.78465">
        <ele>85.521805</ele>
        <time>2022-05-03T09:22:58.613Z</time>
      </trkpt>
      <trkpt lat="41.04392" lon="19.78449">
        <ele>85.368036</ele>
        <time>2022-05-03T09:23:00.610Z</time>
      </trkpt>
      <trkpt lat="41.0439" lon="19.78434">
        <ele>85.217035</ele>
        <time>2022-05-03T09:23:02.623Z</time>
      </trkpt>
      <trkpt lat="41.04388" lon="19.7842">
        <ele>85.070525</ele>
        <time>2022-05-03T09:23:04.666Z</time>
      </trkpt>
      <trkpt lat="41.04387" lon="19.78405">
        <ele>84.922271</ele>
        <time>2022-05-03T09:23:06.665Z</time>
      </trkpt>
      <trkpt lat="41.04385" lon="19.7839">
        <ele>84.770631</ele>
        <time>2022-05-03T09:23:08.623Z</time>
      </trkpt>
      <trkpt lat="41.04383" lon="19.78375">
        <ele>84.619215</ele>
        <time>2022-05-03T09:23:10.630Z</time>
      </trkpt>
      <trkpt lat="41.04381" lon="19.7836">
        <ele>84.45924</ele>
        <time>2022-05-03T09:23:12.649Z</time>
      </trkpt>
      <trkpt lat="41.04379" lon="19.78344">
        <ele>84.277718</ele>
        <time>2022-05-03T09:23:14.618Z</time>
      </trkpt>
      <trkpt lat="41.04377" lon="19.78329">
        <ele>84.094151</ele>
        <time>2022-05-03T09:23:16.646Z</time>
      </trkpt>
      <trkpt lat="41.04375" lon="19.78312">
        <ele>83.903724</ele>
        <time>2022-05-03T09:23:18.609Z</time>
      </trkpt>
      <trkpt lat="41.04373" lon="19.78296">
        <ele>83.71511</ele>
        <time>2022-05-03T09:23:20.626Z</time>
      </trkpt>
      <trkpt lat="41.04371" lon="19.7828">
        <ele>83.522823</ele>
        <time>2022-05-03T09:23:22.612Z</time>
      </trkpt>
      <trkpt lat="41.04369" lon="19.78264">
        <ele>83.336232</ele>
        <time>2022-05-03T09:23:24.625Z</time>
      </trkpt>
      <trkpt lat="41.04367" lon="19.78248">
        <ele>83.146817</ele>
        <time>2022-05-03T09:23:26.614Z</time>
      </trkpt>
      <trkpt lat="41.04365" lon="19.78232">
        <ele>82.955669</ele>
        <time>2022-05-03T09:23:28.616Z</time>
      </trkpt>
      <trkpt lat="41.04362" lon="19.78215">
        <ele>82.762845</ele>
        <time>2022-05-03T09:23:30.644Z</time>
      </trkpt>
      <trkpt lat="41.0436" lon="19.78199">
        <ele>82.57309</ele>
        <time>2022-05-03T09:23:32.666Z</time>
      </trkpt>
      <trkpt lat="41.04358" lon="19.78183">
        <ele>82.386499</ele>
        <time>2022-05-03T09:23:34.632Z</time>
      </trkpt>
      <trkpt lat="41.04356" lon="19.78166">
        <ele>82.191272</ele>
        <time>2022-05-03T09:23:36.655Z</time>
      </trkpt>
      <trkpt lat="41.04354" lon="19.7815">
        <ele>81.995811</ele>
        <time>2022-05-03T09:23:38.623Z</time>
      </trkpt>
      <trkpt lat="41.04353" lon="19.78134">
        <ele>81.812878</ele>
        <time>2022-05-03T09:23:40.629Z</time>
      </trkpt>
      <trkpt lat="41.04351" lon="19.78119">
        <ele>81.675623</ele>
        <time>2022-05-03T09:23:42.618Z</time>
      </trkpt>
      <trkpt lat="41.04348" lon="19.78103">
        <ele>81.563565</ele>
        <time>2022-05-03T09:23:44.596Z</time>
      </trkpt>
      <trkpt lat="41.04346" lon="19.78087">
        <ele>81.449845</ele>
        <time>2022-05-03T09:23:46.661Z</time>
      </trkpt>
      <trkpt lat="41.04342" lon="19.78071">
        <ele>81.338426</ele>
        <time>2022-05-03T09:23:48.644Z</time>
      </trkpt>
      <trkpt lat="41.04338" lon="19.78056">
        <ele>81.228326</ele>
        <time>2022-05-03T09:23:50.614Z</time>
      </trkpt>
      <trkpt lat="41.04335" lon="19.78041">
        <ele>81.119262</ele>
        <time>2022-05-03T09:23:52.619Z</time>
      </trkpt>
      <trkpt lat="41.04331" lon="19.78027">
        <ele>81.011599</ele>
        <time>2022-05-03T09:23:54.623Z</time>
      </trkpt>
      <trkpt lat="41.04326" lon="19.78012">
        <ele>80.903166</ele>
        <time>2022-05-03T09:23:56.625Z</time>
      </trkpt>
      <trkpt lat="41.04322" lon="19.77997">
        <ele>80.794533</ele>
        <time>2022-05-03T09:23:58.647Z</time>
      </trkpt>
      <trkpt lat="41.04319" lon="19.77982">
        <ele>80.681267</ele>
        <time>2022-05-03T09:24:00.605Z</time>
      </trkpt>
      <trkpt lat="41.0432" lon="19.77964">
        <ele>80.559444</ele>
        <time>2022-05-03T09:24:02.617Z</time>
      </trkpt>
      <trkpt lat="41.04325" lon="19.77951">
        <ele>80.459966</ele>
        <time>2022-05-03T09:24:04.664Z</time>
      </trkpt>
      <trkpt lat="41.0433" lon="19.77935">
        <ele>80.344172</ele>
        <time>2022-05-03T09:24:06.625Z</time>
      </trkpt>
      <trkpt lat="41.04331" lon="19.77918">
        <ele>80.222127</ele>
        <time>2022-05-03T09:24:08.632Z</time>
      </trkpt>
      <trkpt lat="41.04327" lon="19.77904">
        <ele>80.117041</ele>
        <time>2022-05-03T09:24:10.613Z</time>
      </trkpt>
      <trkpt lat="41.0432" lon="19.77887">
        <ele>79.856928</ele>
        <time>2022-05-03T09:24:12.616Z</time>
      </trkpt>
      <trkpt lat="41.04314" lon="19.77872">
        <ele>79.602003</ele>
        <time>2022-05-03T09:24:14.614Z</time>
      </trkpt>
      <trkpt lat="41.0431" lon="19.77855">
        <ele>79.327879</ele>
        <time>2022-05-03T09:24:16.613Z</time>
      </trkpt>
      <trkpt lat="41.04305" lon="19.7784">
        <ele>79.075918</ele>
        <time>2022-05-03T09:24:18.616Z</time>
      </trkpt>
      <trkpt lat="41.043" lon="19.77824">
        <ele>78.803939</ele>
        <time>2022-05-03T09:24:20.615Z</time>
      </trkpt>
      <trkpt lat="41.04296" lon="19.77808">
        <ele>78.553123</ele>
        <time>2022-05-03T09:24:22.623Z</time>
      </trkpt>
      <trkpt lat="41.04292" lon="19.77792">
        <ele>78.29438</ele>
        <time>2022-05-03T09:24:24.623Z</time>
      </trkpt>
      <trkpt lat="41.04289" lon="19.77777">
        <ele>78.046488</ele>
        <time>2022-05-03T09:24:26.628Z</time>
      </trkpt>
      <trkpt lat="41.04285" lon="19.77761">
        <ele>77.800057</ele>
        <time>2022-05-03T09:24:28.632Z</time>
      </trkpt>
      <trkpt lat="41.04282" lon="19.77746">
        <ele>77.562765</ele>
        <time>2022-05-03T09:24:30.615Z</time>
      </trkpt>
      <trkpt lat="41.04278" lon="19.77731">
        <ele>77.321068</ele>
        <time>2022-05-03T09:24:32.620Z</time>
      </trkpt>
      <trkpt lat="41.04275" lon="19.77717">
        <ele>77.095657</ele>
        <time>2022-05-03T09:24:34.619Z</time>
      </trkpt>
      <trkpt lat="41.04272" lon="19.77703">
        <ele>76.863025</ele>
        <time>2022-05-03T09:24:36.621Z</time>
      </trkpt>
      <trkpt lat="41.04268" lon="19.77689">
        <ele>76.63952</ele>
        <time>2022-05-03T09:24:38.656Z</time>
      </trkpt>
      <trkpt lat="41.04265" lon="19.77675">
        <ele>76.437117</ele>
        <time>2022-05-03T09:24:40.621Z</time>
      </trkpt>
      <trkpt lat="41.04262" lon="19.77662">
        <ele>76.49622</ele>
        <time>2022-05-03T09:24:42.625Z</time>
      </trkpt>
      <trkpt lat="41.04259" lon="19.77648">
        <ele>76.555572</ele>
        <time>2022-05-03T09:24:44.668Z</time>
      </trkpt>
      <trkpt lat="41.04255" lon="19.77634">
        <ele>76.615098</ele>
        <time>2022-05-03T09:24:46.617Z</time>
      </trkpt>
      <trkpt lat="41.04251" lon="19.77621">
        <ele>76.672858</ele>
        <time>2022-05-03T09:24:48.608Z</time>
      </trkpt>
      <trkpt lat="41.04248" lon="19.77609">
        <ele>76.726617</ele>
        <time>2022-05-03T09:24:50.622Z</time>
      </trkpt>
      <trkpt lat="41.04245" lon="19.77597">
        <ele>76.777916</ele>
        <time>2022-05-03T09:24:52.614Z</time>
      </trkpt>
      <trkpt lat="41.04241" lon="19.7758">
        <ele>76.849971</ele>
        <time>2022-05-03T09:24:55.658Z</time>
      </trkpt>
      <trkpt lat="41.04238" lon="19.77563">
        <ele>76.923181</ele>
        <time>2022-05-03T09:24:58.624Z</time>
      </trkpt>
      <trkpt lat="41.04235" lon="19.77551">
        <ele>76.97448</ele>
        <time>2022-05-03T09:25:00.616Z</time>
      </trkpt>
      <trkpt lat="41.04232" lon="19.77538">
        <ele>77.03027</ele>
        <time>2022-05-03T09:25:02.618Z</time>
      </trkpt>
      <trkpt lat="41.04229" lon="19.77526">
        <ele>77.082356</ele>
        <time>2022-05-03T09:25:04.623Z</time>
      </trkpt>
      <trkpt lat="41.04227" lon="19.77514">
        <ele>77.135177</ele>
        <time>2022-05-03T09:25:06.673Z</time>
      </trkpt>
      <trkpt lat="41.04224" lon="19.77502">
        <ele>77.185767</ele>
        <time>2022-05-03T09:25:08.617Z</time>
      </trkpt>
      <trkpt lat="41.04221" lon="19.77489">
        <ele>77.24009</ele>
        <time>2022-05-03T09:25:10.623Z</time>
      </trkpt>
      <trkpt lat="41.04218" lon="19.77477">
        <ele>77.29504</ele>
        <time>2022-05-03T09:25:12.615Z</time>
      </trkpt>
      <trkpt lat="41.04215" lon="19.77464">
        <ele>77.35053</ele>
        <time>2022-05-03T09:25:14.632Z</time>
      </trkpt>
      <trkpt lat="41.04212" lon="19.77451">
        <ele>77.406198</ele>
        <time>2022-05-03T09:25:16.618Z</time>
      </trkpt>
      <trkpt lat="41.04209" lon="19.77438">
        <ele>77.393279</ele>
        <time>2022-05-03T09:25:18.629Z</time>
      </trkpt>
      <trkpt lat="41.04207" lon="19.77426">
        <ele>77.367579</ele>
        <time>2022-05-03T09:25:20.619Z</time>
      </trkpt>
      <trkpt lat="41.04205" lon="19.77414">
        <ele>77.341326</ele>
        <time>2022-05-03T09:25:22.612Z</time>
      </trkpt>
      <trkpt lat="41.04203" lon="19.77402">
        <ele>77.316312</ele>
        <time>2022-05-03T09:25:24.613Z</time>
      </trkpt>
      <trkpt lat="41.04199" lon="19.77385">
        <ele>77.279687</ele>
        <time>2022-05-03T09:25:27.620Z</time>
      </trkpt>
      <trkpt lat="41.04197" lon="19.77373">
        <ele>77.253407</ele>
        <time>2022-05-03T09:25:29.598Z</time>
      </trkpt>
      <trkpt lat="41.04195" lon="19.7736">
        <ele>77.227592</ele>
        <time>2022-05-03T09:25:31.623Z</time>
      </trkpt>
      <trkpt lat="41.04192" lon="19.77349">
        <ele>77.202627</ele>
        <time>2022-05-03T09:25:33.620Z</time>
      </trkpt>
      <trkpt lat="41.04189" lon="19.77337">
        <ele>77.17635</ele>
        <time>2022-05-03T09:25:35.617Z</time>
      </trkpt>
      <trkpt lat="41.04187" lon="19.77324">
        <ele>77.149845</ele>
        <time>2022-05-03T09:25:37.660Z</time>
      </trkpt>
      <trkpt lat="41.04184" lon="19.77312">
        <ele>77.122668</ele>
        <time>2022-05-03T09:25:39.624Z</time>
      </trkpt>
      <trkpt lat="41.04181" lon="19.77299">
        <ele>77.094591</ele>
        <time>2022-05-03T09:25:41.620Z</time>
      </trkpt>
      <trkpt lat="41.04179" lon="19.77285">
        <ele>77.066098</ele>
        <time>2022-05-03T09:25:43.632Z</time>
      </trkpt>
      <trkpt lat="41.04178" lon="19.77271">
        <ele>77.037703</ele>
        <time>2022-05-03T09:25:45.618Z</time>
      </trkpt>
      <trkpt lat="41.04177" lon="19.77257">
        <ele>77.007332</ele>
        <time>2022-05-03T09:25:47.616Z</time>
      </trkpt>
      <trkpt lat="41.04177" lon="19.77241">
        <ele>76.975149</ele>
        <time>2022-05-03T09:25:49.621Z</time>
      </trkpt>
      <trkpt lat="41.04178" lon="19.77225">
        <ele>76.941262</ele>
        <time>2022-05-03T09:25:51.614Z</time>
      </trkpt>
      <trkpt lat="41.04179" lon="19.77208">
        <ele>76.973675</ele>
        <time>2022-05-03T09:25:53.626Z</time>
      </trkpt>
      <trkpt lat="41.0418" lon="19.77192">
        <ele>77.077613</ele>
        <time>2022-05-03T09:25:55.604Z</time>
      </trkpt>
      <trkpt lat="41.0418" lon="19.77176">
        <ele>77.179879</ele>
        <time>2022-05-03T09:25:57.621Z</time>
      </trkpt>
      <trkpt lat="41.04181" lon="19.7716">
        <ele>77.283322</ele>
        <time>2022-05-03T09:25:59.611Z</time>
      </trkpt>
      <trkpt lat="41.04179" lon="19.77146">
        <ele>77.379212</ele>
        <time>2022-05-03T09:26:01.619Z</time>
      </trkpt>
      <trkpt lat="41.04177" lon="19.77131">
        <ele>77.474986</ele>
        <time>2022-05-03T09:26:03.614Z</time>
      </trkpt>
      <trkpt lat="41.04175" lon="19.77117">
        <ele>77.565357</ele>
        <time>2022-05-03T09:26:05.621Z</time>
      </trkpt>
      <trkpt lat="41.04173" lon="19.77101">
        <ele>77.671976</ele>
        <time>2022-05-03T09:26:08.625Z</time>
      </trkpt>
      <trkpt lat="41.04171" lon="19.77086">
        <ele>77.770936</ele>
        <time>2022-05-03T09:26:11.614Z</time>
      </trkpt>
      <trkpt lat="41.0417" lon="19.77072">
        <ele>77.859832</ele>
        <time>2022-05-03T09:26:14.622Z</time>
      </trkpt>
      <trkpt lat="41.0417" lon="19.77059">
        <ele>77.949303</ele>
        <time>2022-05-03T09:26:17.622Z</time>
      </trkpt>
      <trkpt lat="41.04169" lon="19.77044">
        <ele>78.044641</ele>
        <time>2022-05-03T09:26:20.603Z</time>
      </trkpt>
      <trkpt lat="41.04168" lon="19.77028">
        <ele>78.145924</ele>
        <time>2022-05-03T09:26:23.616Z</time>
      </trkpt>
      <trkpt lat="41.04167" lon="19.77012">
        <ele>78.253399</ele>
        <time>2022-05-03T09:26:26.663Z</time>
      </trkpt>
      <trkpt lat="41.04166" lon="19.76996">
        <ele>78.356955</ele>
        <time>2022-05-03T09:26:29.625Z</time>
      </trkpt>
      <trkpt lat="41.04166" lon="19.76979">
        <ele>78.461849</ele>
        <time>2022-05-03T09:26:32.613Z</time>
      </trkpt>
      <trkpt lat="41.04164" lon="19.76962">
        <ele>78.540168</ele>
        <time>2022-05-03T09:26:35.629Z</time>
      </trkpt>
      <trkpt lat="41.04163" lon="19.76946">
        <ele>78.616026</ele>
        <time>2022-05-03T09:26:38.625Z</time>
      </trkpt>
      <trkpt lat="41.04162" lon="19.76929">
        <ele>78.693912</ele>
        <time>2022-05-03T09:26:41.624Z</time>
      </trkpt>
      <trkpt lat="41.04161" lon="19.76911">
        <ele>78.773881</ele>
        <time>2022-05-03T09:26:44.616Z</time>
      </trkpt>
      <trkpt lat="41.04159" lon="19.76894">
        <ele>78.850718</ele>
        <time>2022-05-03T09:26:47.622Z</time>
      </trkpt>
      <trkpt lat="41.04158" lon="19.76877">
        <ele>78.92959</ele>
        <time>2022-05-03T09:26:50.630Z</time>
      </trkpt>
      <trkpt lat="41.04157" lon="19.76865">
        <ele>78.985301</ele>
        <time>2022-05-03T09:26:52.626Z</time>
      </trkpt>
      <trkpt lat="41.04155" lon="19.76853">
        <ele>79.039175</ele>
        <time>2022-05-03T09:26:54.639Z</time>
      </trkpt>
      <trkpt lat="41.0415" lon="19.76836">
        <ele>79.120737</ele>
        <time>2022-05-03T09:26:57.643Z</time>
      </trkpt>
      <trkpt lat="41.04142" lon="19.76822">
        <ele>79.201002</ele>
        <time>2022-05-03T09:27:00.652Z</time>
      </trkpt>
      <trkpt lat="41.04136" lon="19.76814">
        <ele>79.254996</ele>
        <time>2022-05-03T09:27:02.615Z</time>
      </trkpt>
      <trkpt lat="41.04126" lon="19.76803">
        <ele>79.331861</ele>
        <time>2022-05-03T09:27:05.615Z</time>
      </trkpt>
      <trkpt lat="41.04116" lon="19.76794">
        <ele>79.399968</ele>
        <time>2022-05-03T09:27:08.623Z</time>
      </trkpt>
      <trkpt lat="41.04107" lon="19.76786">
        <ele>79.468793</ele>
        <time>2022-05-03T09:27:11.653Z</time>
      </trkpt>
      <trkpt lat="41.04098" lon="19.76776">
        <ele>79.538713</ele>
        <time>2022-05-03T09:27:14.614Z</time>
      </trkpt>
      <trkpt lat="41.04089" lon="19.76765">
        <ele>79.287835</ele>
        <time>2022-05-03T09:27:17.666Z</time>
      </trkpt>
      <trkpt lat="41.0408" lon="19.76752">
        <ele>79.002649</ele>
        <time>2022-05-03T09:27:20.622Z</time>
      </trkpt>
      <trkpt lat="41.04074" lon="19.76736">
        <ele>78.704059</ele>
        <time>2022-05-03T09:27:23.616Z</time>
      </trkpt>
      <trkpt lat="41.0407" lon="19.76724">
        <ele>78.49185</ele>
        <time>2022-05-03T09:27:25.603Z</time>
      </trkpt>
      <trkpt lat="41.04065" lon="19.76712">
        <ele>78.272518</ele>
        <time>2022-05-03T09:27:27.631Z</time>
      </trkpt>
      <trkpt lat="41.04061" lon="19.767">
        <ele>78.047104</ele>
        <time>2022-05-03T09:27:29.657Z</time>
      </trkpt>
      <trkpt lat="41.04058" lon="19.76687">
        <ele>77.810832</ele>
        <time>2022-05-03T09:27:31.600Z</time>
      </trkpt>
      <trkpt lat="41.04057" lon="19.76671">
        <ele>77.553072</ele>
        <time>2022-05-03T09:27:33.614Z</time>
      </trkpt>
      <trkpt lat="41.04058" lon="19.76656">
        <ele>77.2995</ele>
        <time>2022-05-03T09:27:35.612Z</time>
      </trkpt>
      <trkpt lat="41.04063" lon="19.76642">
        <ele>77.045557</ele>
        <time>2022-05-03T09:27:37.616Z</time>
      </trkpt>
      <trkpt lat="41.0407" lon="19.76629">
        <ele>76.775542</ele>
        <time>2022-05-03T09:27:39.609Z</time>
      </trkpt>
      <trkpt lat="41.04078" lon="19.76617">
        <ele>76.510913</ele>
        <time>2022-05-03T09:27:41.616Z</time>
      </trkpt>
      <trkpt lat="41.04084" lon="19.76606">
        <ele>76.276807</ele>
        <time>2022-05-03T09:27:43.611Z</time>
      </trkpt>
      <trkpt lat="41.04091" lon="19.76594">
        <ele>76.034827</ele>
        <time>2022-05-03T09:27:45.637Z</time>
      </trkpt>
      <trkpt lat="41.04098" lon="19.76582">
        <ele>75.77829</ele>
        <time>2022-05-03T09:27:47.622Z</time>
      </trkpt>
      <trkpt lat="41.04106" lon="19.76569">
        <ele>75.540689</ele>
        <time>2022-05-03T09:27:49.605Z</time>
      </trkpt>
      <trkpt lat="41.04114" lon="19.76555">
        <ele>75.402643</ele>
        <time>2022-05-03T09:27:51.651Z</time>
      </trkpt>
      <trkpt lat="41.04122" lon="19.76542">
        <ele>75.265021</ele>
        <time>2022-05-03T09:27:53.625Z</time>
      </trkpt>
      <trkpt lat="41.04131" lon="19.76529">
        <ele>75.129351</ele>
        <time>2022-05-03T09:27:55.604Z</time>
      </trkpt>
      <trkpt lat="41.0414" lon="19.76515">
        <ele>74.985235</ele>
        <time>2022-05-03T09:27:57.632Z</time>
      </trkpt>
      <trkpt lat="41.04148" lon="19.76499">
        <ele>74.838205</ele>
        <time>2022-05-03T09:27:59.623Z</time>
      </trkpt>
      <trkpt lat="41.04154" lon="19.76483">
        <ele>74.693544</ele>
        <time>2022-05-03T09:28:01.613Z</time>
      </trkpt>
      <trkpt lat="41.04161" lon="19.76466">
        <ele>74.543304</ele>
        <time>2022-05-03T09:28:03.616Z</time>
      </trkpt>
      <trkpt lat="41.04168" lon="19.76449">
        <ele>74.389075</ele>
        <time>2022-05-03T09:28:05.616Z</time>
      </trkpt>
      <trkpt lat="41.04174" lon="19.76432">
        <ele>74.235539</ele>
        <time>2022-05-03T09:28:07.611Z</time>
      </trkpt>
      <trkpt lat="41.0418" lon="19.76413">
        <ele>74.077591</ele>
        <time>2022-05-03T09:28:09.613Z</time>
      </trkpt>
      <trkpt lat="41.04186" lon="19.76397">
        <ele>73.932297</ele>
        <time>2022-05-03T09:28:11.620Z</time>
      </trkpt>
      <trkpt lat="41.04192" lon="19.76381">
        <ele>73.797511</ele>
        <time>2022-05-03T09:28:13.598Z</time>
      </trkpt>
      <trkpt lat="41.04198" lon="19.76366">
        <ele>73.772964</ele>
        <time>2022-05-03T09:28:15.625Z</time>
      </trkpt>
      <trkpt lat="41.04203" lon="19.76351">
        <ele>74.132884</ele>
        <time>2022-05-03T09:28:17.620Z</time>
      </trkpt>
      <trkpt lat="41.04208" lon="19.76336">
        <ele>74.470966</ele>
        <time>2022-05-03T09:28:19.668Z</time>
      </trkpt>
      <trkpt lat="41.04212" lon="19.76322">
        <ele>74.807081</ele>
        <time>2022-05-03T09:28:21.623Z</time>
      </trkpt>
      <trkpt lat="41.04217" lon="19.76309">
        <ele>75.118569</ele>
        <time>2022-05-03T09:28:23.625Z</time>
      </trkpt>
      <trkpt lat="41.04221" lon="19.76296">
        <ele>75.411707</ele>
        <time>2022-05-03T09:28:25.608Z</time>
      </trkpt>
      <trkpt lat="41.04225" lon="19.76284">
        <ele>75.694711</ele>
        <time>2022-05-03T09:28:27.632Z</time>
      </trkpt>
      <trkpt lat="41.04229" lon="19.76272">
        <ele>75.970437</ele>
        <time>2022-05-03T09:28:29.620Z</time>
      </trkpt>
      <trkpt lat="41.04233" lon="19.76261">
        <ele>76.226257</ele>
        <time>2022-05-03T09:28:31.625Z</time>
      </trkpt>
      <trkpt lat="41.04237" lon="19.76248">
        <ele>76.545543</ele>
        <time>2022-05-03T09:28:34.608Z</time>
      </trkpt>
      <trkpt lat="41.04242" lon="19.76235">
        <ele>76.850505</ele>
        <time>2022-05-03T09:28:37.616Z</time>
      </trkpt>
      <trkpt lat="41.04246" lon="19.76223">
        <ele>77.140916</ele>
        <time>2022-05-03T09:28:40.610Z</time>
      </trkpt>
      <trkpt lat="41.04251" lon="19.76209">
        <ele>77.457089</ele>
        <time>2022-05-03T09:28:44.610Z</time>
      </trkpt>
      <trkpt lat="41.04256" lon="19.76195">
        <ele>77.785045</ele>
        <time>2022-05-03T09:28:48.597Z</time>
      </trkpt>
      <trkpt lat="41.04261" lon="19.76182">
        <ele>78.112967</ele>
        <time>2022-05-03T09:28:52.608Z</time>
      </trkpt>
      <trkpt lat="41.04267" lon="19.76168">
        <ele>78.445425</ele>
        <time>2022-05-03T09:28:56.619Z</time>
      </trkpt>
      <trkpt lat="41.04274" lon="19.76157">
        <ele>78.765441</ele>
        <time>2022-05-03T09:29:00.612Z</time>
      </trkpt>
      <trkpt lat="41.0428" lon="19.76148">
        <ele>79.002519</ele>
        <time>2022-05-03T09:29:03.638Z</time>
      </trkpt>
      <trkpt lat="41.04289" lon="19.7614">
        <ele>79.277902</ele>
        <time>2022-05-03T09:29:07.605Z</time>
      </trkpt>
      <trkpt lat="41.04297" lon="19.76133">
        <ele>79.532508</ele>
        <time>2022-05-03T09:29:11.611Z</time>
      </trkpt>
      <trkpt lat="41.04306" lon="19.76126">
        <ele>79.809953</ele>
        <time>2022-05-03T09:29:15.647Z</time>
      </trkpt>
      <trkpt lat="41.04316" lon="19.7612">
        <ele>80.075932</ele>
        <time>2022-05-03T09:29:19.631Z</time>
      </trkpt>
      <trkpt lat="41.04325" lon="19.76115">
        <ele>80.351081</ele>
        <time>2022-05-03T09:29:24.605Z</time>
      </trkpt>
      <trkpt lat="41.04334" lon="19.7611">
        <ele>80.59628</ele>
        <time>2022-05-03T09:29:29.632Z</time>
      </trkpt>
      <trkpt lat="41.04343" lon="19.76106">
        <ele>80.835667</ele>
        <time>2022-05-03T09:29:34.612Z</time>
      </trkpt>
      <trkpt lat="41.04353" lon="19.76101">
        <ele>81.113508</ele>
        <time>2022-05-03T09:29:39.615Z</time>
      </trkpt>
      <trkpt lat="41.04362" lon="19.76098">
        <ele>81.362803</ele>
        <time>2022-05-03T09:29:43.654Z</time>
      </trkpt>
      <trkpt lat="41.04373" lon="19.76093">
        <ele>81.657315</ele>
        <time>2022-05-03T09:29:48.617Z</time>
      </trkpt>
      <trkpt lat="41.04381" lon="19.76087">
        <ele>81.904944</ele>
        <time>2022-05-03T09:29:52.625Z</time>
      </trkpt>
      <trkpt lat="41.0439" lon="19.76079">
        <ele>82.184564</ele>
        <time>2022-05-03T09:29:57.618Z</time>
      </trkpt>
      <trkpt lat="41.04398" lon="19.7607">
        <ele>82.459303</ele>
        <time>2022-05-03T09:30:02.610Z</time>
      </trkpt>
      <trkpt lat="41.04405" lon="19.7606">
        <ele>82.7179</ele>
        <time>2022-05-03T09:30:06.625Z</time>
      </trkpt>
      <trkpt lat="41.04412" lon="19.76051">
        <ele>82.976497</ele>
        <time>2022-05-03T09:30:11.649Z</time>
      </trkpt>
      <trkpt lat="41.04418" lon="19.76039">
        <ele>83.253664</ele>
        <time>2022-05-03T09:30:16.620Z</time>
      </trkpt>
      <trkpt lat="41.04424" lon="19.76029">
        <ele>83.49028</ele>
        <time>2022-05-03T09:30:20.632Z</time>
      </trkpt>
      <trkpt lat="41.04429" lon="19.76018">
        <ele>83.608374</ele>
        <time>2022-05-03T09:30:24.624Z</time>
      </trkpt>
      <trkpt lat="41.04434" lon="19.76007">
        <ele>83.724948</ele>
        <time>2022-05-03T09:30:28.660Z</time>
      </trkpt>
      <trkpt lat="41.04439" lon="19.75996">
        <ele>83.843908</ele>
        <time>2022-05-03T09:30:32.638Z</time>
      </trkpt>
      <trkpt lat="41.04445" lon="19.75984">
        <ele>83.972711</ele>
        <time>2022-05-03T09:30:36.624Z</time>
      </trkpt>
      <trkpt lat="41.0445" lon="19.75973">
        <ele>84.090685</ele>
        <time>2022-05-03T09:30:40.627Z</time>
      </trkpt>
      <trkpt lat="41.04455" lon="19.7596">
        <ele>84.226016</ele>
        <time>2022-05-03T09:30:45.619Z</time>
      </trkpt>
      <trkpt lat="41.0446" lon="19.75948">
        <ele>84.350045</ele>
        <time>2022-05-03T09:30:49.616Z</time>
      </trkpt>
      <trkpt lat="41.04465" lon="19.75936">
        <ele>84.479265</ele>
        <time>2022-05-03T09:30:53.654Z</time>
      </trkpt>
      <trkpt lat="41.0447" lon="19.75922">
        <ele>84.624058</ele>
        <time>2022-05-03T09:30:57.605Z</time>
      </trkpt>
      <trkpt lat="41.04474" lon="19.7591">
        <ele>84.746237</ele>
        <time>2022-05-03T09:31:00.617Z</time>
      </trkpt>
      <trkpt lat="41.04479" lon="19.75894">
        <ele>84.899439</ele>
        <time>2022-05-03T09:31:03.620Z</time>
      </trkpt>
      <trkpt lat="41.0448" lon="19.75882">
        <ele>85.01414</ele>
        <time>2022-05-03T09:31:05.613Z</time>
      </trkpt>
      <trkpt lat="41.04482" lon="19.75867">
        <ele>85.153689</ele>
        <time>2022-05-03T09:31:07.657Z</time>
      </trkpt>
      <trkpt lat="41.04483" lon="19.7585">
        <ele>85.306772</ele>
        <time>2022-05-03T09:31:09.619Z</time>
      </trkpt>
      <trkpt lat="41.04486" lon="19.75834">
        <ele>85.452162</ele>
        <time>2022-05-03T09:31:11.626Z</time>
      </trkpt>
      <trkpt lat="41.04491" lon="19.75817">
        <ele>85.619533</ele>
        <time>2022-05-03T09:31:13.636Z</time>
      </trkpt>
      <trkpt lat="41.04497" lon="19.75801">
        <ele>85.467049</ele>
        <time>2022-05-03T09:31:15.631Z</time>
      </trkpt>
      <trkpt lat="41.04504" lon="19.75785">
        <ele>85.209312</ele>
        <time>2022-05-03T09:31:17.616Z</time>
      </trkpt>
      <trkpt lat="41.04511" lon="19.75769">
        <ele>84.940047</ele>
        <time>2022-05-03T09:31:19.619Z</time>
      </trkpt>
      <trkpt lat="41.04518" lon="19.75754">
        <ele>84.682001</ele>
        <time>2022-05-03T09:31:21.622Z</time>
      </trkpt>
      <trkpt lat="41.04526" lon="19.75737">
        <ele>84.404903</ele>
        <time>2022-05-03T09:31:23.616Z</time>
      </trkpt>
      <trkpt lat="41.04534" lon="19.7572">
        <ele>84.118733</ele>
        <time>2022-05-03T09:31:25.618Z</time>
      </trkpt>
      <trkpt lat="41.04542" lon="19.75703">
        <ele>83.832175</ele>
        <time>2022-05-03T09:31:27.615Z</time>
      </trkpt>
      <trkpt lat="41.04549" lon="19.75686">
        <ele>83.543946</ele>
        <time>2022-05-03T09:31:29.675Z</time>
      </trkpt>
      <trkpt lat="41.04558" lon="19.75669">
        <ele>83.258744</ele>
        <time>2022-05-03T09:31:31.612Z</time>
      </trkpt>
      <trkpt lat="41.04566" lon="19.75653">
        <ele>82.979362</ele>
        <time>2022-05-03T09:31:33.623Z</time>
      </trkpt>
      <trkpt lat="41.04574" lon="19.75637">
        <ele>82.70191</ele>
        <time>2022-05-03T09:31:35.599Z</time>
      </trkpt>
      <trkpt lat="41.04581" lon="19.7562">
        <ele>82.421119</ele>
        <time>2022-05-03T09:31:37.602Z</time>
      </trkpt>
      <trkpt lat="41.04587" lon="19.75603">
        <ele>82.612389</ele>
        <time>2022-05-03T09:31:39.604Z</time>
      </trkpt>
      <trkpt lat="41.04592" lon="19.75586">
        <ele>83.587225</ele>
        <time>2022-05-03T09:31:41.616Z</time>
      </trkpt>
      <trkpt lat="41.04597" lon="19.7557">
        <ele>84.491356</ele>
        <time>2022-05-03T09:31:43.657Z</time>
      </trkpt>
      <trkpt lat="41.04601" lon="19.75557">
        <ele>85.270326</ele>
        <time>2022-05-03T09:31:45.622Z</time>
      </trkpt>
      <trkpt lat="41.04605" lon="19.75544">
        <ele>86.006421</ele>
        <time>2022-05-03T09:31:47.619Z</time>
      </trkpt>
      <trkpt lat="41.0461" lon="19.75528">
        <ele>86.93674</ele>
        <time>2022-05-03T09:31:50.617Z</time>
      </trkpt>
      <trkpt lat="41.04613" lon="19.75515">
        <ele>87.688339</ele>
        <time>2022-05-03T09:31:54.613Z</time>
      </trkpt>
      <trkpt lat="41.04616" lon="19.75502">
        <ele>88.392504</ele>
        <time>2022-05-03T09:31:59.619Z</time>
      </trkpt>
      <trkpt lat="41.04618" lon="19.7549">
        <ele>89.092799</ele>
        <time>2022-05-03T09:32:05.616Z</time>
      </trkpt>
      <trkpt lat="41.04621" lon="19.75477">
        <ele>89.779462</ele>
        <time>2022-05-03T09:32:11.618Z</time>
      </trkpt>
      <trkpt lat="41.04623" lon="19.75463">
        <ele>90.558917</ele>
        <time>2022-05-03T09:32:17.620Z</time>
      </trkpt>
      <trkpt lat="41.04622" lon="19.7545">
        <ele>91.290222</ele>
        <time>2022-05-03T09:32:25.647Z</time>
      </trkpt>
      <trkpt lat="41.04622" lon="19.75436">
        <ele>92.011793</ele>
        <time>2022-05-03T09:32:32.625Z</time>
      </trkpt>
      <trkpt lat="41.0462" lon="19.75424">
        <ele>92.685772</ele>
        <time>2022-05-03T09:32:37.617Z</time>
      </trkpt>
      <trkpt lat="41.04619" lon="19.75411">
        <ele>93.369335</ele>
        <time>2022-05-03T09:32:43.624Z</time>
      </trkpt>
      <trkpt lat="41.04618" lon="19.75399">
        <ele>94.020114</ele>
        <time>2022-05-03T09:32:49.638Z</time>
      </trkpt>
      <trkpt lat="41.04616" lon="19.75386">
        <ele>94.713793</ele>
        <time>2022-05-03T09:32:54.617Z</time>
      </trkpt>
      <trkpt lat="41.04614" lon="19.75372">
        <ele>95.34406</ele>
        <time>2022-05-03T09:32:59.656Z</time>
      </trkpt>
      <trkpt lat="41.04613" lon="19.75358">
        <ele>95.821763</ele>
        <time>2022-05-03T09:33:04.614Z</time>
      </trkpt>
      <trkpt lat="41.04611" lon="19.75344">
        <ele>96.321869</ele>
        <time>2022-05-03T09:33:09.641Z</time>
      </trkpt>
      <trkpt lat="41.0461" lon="19.7533">
        <ele>96.783317</ele>
        <time>2022-05-03T09:33:13.616Z</time>
      </trkpt>
      <trkpt lat="41.04608" lon="19.75317">
        <ele>97.231237</ele>
        <time>2022-05-03T09:33:17.620Z</time>
      </trkpt>
      <trkpt lat="41.04607" lon="19.75303">
        <ele>97.708261</ele>
        <time>2022-05-03T09:33:22.617Z</time>
      </trkpt>
      <trkpt lat="41.04605" lon="19.75289">
        <ele>98.21414</ele>
        <time>2022-05-03T09:33:27.631Z</time>
      </trkpt>
      <trkpt lat="41.04604" lon="19.75276">
        <ele>98.664731</ele>
        <time>2022-05-03T09:33:31.614Z</time>
      </trkpt>
      <trkpt lat="41.04601" lon="19.75262">
        <ele>99.15208</ele>
        <time>2022-05-03T09:33:35.625Z</time>
      </trkpt>
      <trkpt lat="41.04598" lon="19.75251">
        <ele>99.57237</ele>
        <time>2022-05-03T09:33:39.595Z</time>
      </trkpt>
      <trkpt lat="41.04595" lon="19.75238">
        <ele>100.038164</ele>
        <time>2022-05-03T09:33:43.613Z</time>
      </trkpt>
      <trkpt lat="41.04591" lon="19.75226">
        <ele>100.476005</ele>
        <time>2022-05-03T09:33:47.613Z</time>
      </trkpt>
      <trkpt lat="41.0459" lon="19.75213">
        <ele>100.92871</ele>
        <time>2022-05-03T09:33:52.615Z</time>
      </trkpt>
      <trkpt lat="41.04589" lon="19.75199">
        <ele>101.40757</ele>
        <time>2022-05-03T09:33:57.631Z</time>
      </trkpt>
      <trkpt lat="41.04584" lon="19.75189">
        <ele>101.820747</ele>
        <time>2022-05-03T09:34:02.615Z</time>
      </trkpt>
      <trkpt lat="41.04573" lon="19.75142">
        <ele>103.343514</ele>
        <time>2022-05-03T10:04:35.639Z</time>
      </trkpt>
      <trkpt lat="41.0457" lon="19.75128">
        <ele>103.566755</ele>
        <time>2022-05-03T10:04:39.625Z</time>
      </trkpt>
      <trkpt lat="41.04571" lon="19.75115">
        <ele>103.761178</ele>
        <time>2022-05-03T10:04:44.655Z</time>
      </trkpt>
      <trkpt lat="41.0457" lon="19.75101">
        <ele>103.968973</ele>
        <time>2022-05-03T10:04:50.628Z</time>
      </trkpt>
      <trkpt lat="41.04571" lon="19.75088">
        <ele>104.161781</ele>
        <time>2022-05-03T10:04:57.621Z</time>
      </trkpt>
      <trkpt lat="41.04575" lon="19.75076">
        <ele>104.353666</ele>
        <time>2022-05-03T10:05:01.627Z</time>
      </trkpt>
      <trkpt lat="41.04576" lon="19.7506">
        <ele>104.601921</ele>
        <time>2022-05-03T10:05:05.652Z</time>
      </trkpt>
      <trkpt lat="41.04577" lon="19.75044">
        <ele>104.841623</ele>
        <time>2022-05-03T10:05:08.623Z</time>
      </trkpt>
      <trkpt lat="41.04578" lon="19.75027">
        <ele>105.093791</ele>
        <time>2022-05-03T10:05:11.607Z</time>
      </trkpt>
      <trkpt lat="41.04583" lon="19.75011">
        <ele>105.35246</ele>
        <time>2022-05-03T10:05:14.632Z</time>
      </trkpt>
      <trkpt lat="41.04586" lon="19.74999">
        <ele>105.533658</ele>
        <time>2022-05-03T10:05:16.662Z</time>
      </trkpt>
      <trkpt lat="41.0459" lon="19.74983">
        <ele>105.786961</ele>
        <time>2022-05-03T10:05:19.636Z</time>
      </trkpt>
      <trkpt lat="41.04593" lon="19.74972">
        <ele>105.97572</ele>
        <time>2022-05-03T10:05:21.626Z</time>
      </trkpt>
      <trkpt lat="41.04597" lon="19.74959">
        <ele>106.178509</ele>
        <time>2022-05-03T10:05:23.620Z</time>
      </trkpt>
      <trkpt lat="41.046" lon="19.74946">
        <ele>106.379099</ele>
        <time>2022-05-03T10:05:25.621Z</time>
      </trkpt>
      <trkpt lat="41.04603" lon="19.74933">
        <ele>106.575728</ele>
        <time>2022-05-03T10:05:27.650Z</time>
      </trkpt>
      <trkpt lat="41.04605" lon="19.7492">
        <ele>106.78495</ele>
        <time>2022-05-03T10:05:29.616Z</time>
      </trkpt>
      <trkpt lat="41.04608" lon="19.74906">
        <ele>105.401328</ele>
        <time>2022-05-03T10:05:31.615Z</time>
      </trkpt>
      <trkpt lat="41.04611" lon="19.74892">
        <ele>103.896987</ele>
        <time>2022-05-03T10:05:33.662Z</time>
      </trkpt>
      <trkpt lat="41.04614" lon="19.74877">
        <ele>102.409295</ele>
        <time>2022-05-03T10:05:35.628Z</time>
      </trkpt>
      <trkpt lat="41.04619" lon="19.74863">
        <ele>100.84876</ele>
        <time>2022-05-03T10:05:37.613Z</time>
      </trkpt>
      <trkpt lat="41.04625" lon="19.74848">
        <ele>99.155308</ele>
        <time>2022-05-03T10:05:39.649Z</time>
      </trkpt>
      <trkpt lat="41.04629" lon="19.74833">
        <ele>97.584005</ele>
        <time>2022-05-03T10:05:41.623Z</time>
      </trkpt>
      <trkpt lat="41.04632" lon="19.74821">
        <ele>96.293516</ele>
        <time>2022-05-03T10:05:43.632Z</time>
      </trkpt>
      <trkpt lat="41.04638" lon="19.74807">
        <ele>94.765797</ele>
        <time>2022-05-03T10:05:46.619Z</time>
      </trkpt>
      <trkpt lat="41.04643" lon="19.74795">
        <ele>93.437941</ele>
        <time>2022-05-03T10:05:49.611Z</time>
      </trkpt>
      <trkpt lat="41.04647" lon="19.74779">
        <ele>91.729433</ele>
        <time>2022-05-03T10:05:52.640Z</time>
      </trkpt>
      <trkpt lat="41.04653" lon="19.74764">
        <ele>90.030384</ele>
        <time>2022-05-03T10:05:55.611Z</time>
      </trkpt>
      <trkpt lat="41.0466" lon="19.74751">
        <ele>88.484454</ele>
        <time>2022-05-03T10:05:58.626Z</time>
      </trkpt>
      <trkpt lat="41.04666" lon="19.74739">
        <ele>87.071448</ele>
        <time>2022-05-03T10:06:01.644Z</time>
      </trkpt>
      <trkpt lat="41.04672" lon="19.74724">
        <ele>85.352845</ele>
        <time>2022-05-03T10:06:04.623Z</time>
      </trkpt>
      <trkpt lat="41.04677" lon="19.74711">
        <ele>83.898916</ele>
        <time>2022-05-03T10:06:07.654Z</time>
      </trkpt>
      <trkpt lat="41.04681" lon="19.74698">
        <ele>82.851354</ele>
        <time>2022-05-03T10:06:10.623Z</time>
      </trkpt>
      <trkpt lat="41.04684" lon="19.74684">
        <ele>82.207143</ele>
        <time>2022-05-03T10:06:13.615Z</time>
      </trkpt>
      <trkpt lat="41.04686" lon="19.74668">
        <ele>81.518315</ele>
        <time>2022-05-03T10:06:16.624Z</time>
      </trkpt>
      <trkpt lat="41.0469" lon="19.74651">
        <ele>80.747654</ele>
        <time>2022-05-03T10:06:19.611Z</time>
      </trkpt>
      <trkpt lat="41.04691" lon="19.74637">
        <ele>80.152233</ele>
        <time>2022-05-03T10:06:21.617Z</time>
      </trkpt>
      <trkpt lat="41.04693" lon="19.74622">
        <ele>79.476235</ele>
        <time>2022-05-03T10:06:23.674Z</time>
      </trkpt>
      <trkpt lat="41.04695" lon="19.74606">
        <ele>78.772694</ele>
        <time>2022-05-03T10:06:25.627Z</time>
      </trkpt>
      <trkpt lat="41.04697" lon="19.74592">
        <ele>78.178078</ele>
        <time>2022-05-03T10:06:27.613Z</time>
      </trkpt>
      <trkpt lat="41.047" lon="19.74575">
        <ele>77.418805</ele>
        <time>2022-05-03T10:06:30.623Z</time>
      </trkpt>
      <trkpt lat="41.04701" lon="19.74563">
        <ele>76.86708</ele>
        <time>2022-05-03T10:06:32.620Z</time>
      </trkpt>
      <trkpt lat="41.04703" lon="19.7455">
        <ele>76.318936</ele>
        <time>2022-05-03T10:06:34.663Z</time>
      </trkpt>
      <trkpt lat="41.04705" lon="19.74537">
        <ele>75.710924</ele>
        <time>2022-05-03T10:06:36.608Z</time>
      </trkpt>
      <trkpt lat="41.04708" lon="19.74524">
        <ele>75.152151</ele>
        <time>2022-05-03T10:06:38.617Z</time>
      </trkpt>
      <trkpt lat="41.04709" lon="19.7451">
        <ele>74.528378</ele>
        <time>2022-05-03T10:06:41.609Z</time>
      </trkpt>
      <trkpt lat="41.04711" lon="19.74495">
        <ele>73.856656</ele>
        <time>2022-05-03T10:06:44.609Z</time>
      </trkpt>
      <trkpt lat="41.04714" lon="19.74482">
        <ele>73.269376</ele>
        <time>2022-05-03T10:06:48.603Z</time>
      </trkpt>
      <trkpt lat="41.04713" lon="19.74466">
        <ele>72.808798</ele>
        <time>2022-05-03T10:06:53.632Z</time>
      </trkpt>
      <trkpt lat="41.04713" lon="19.74452">
        <ele>72.860575</ele>
        <time>2022-05-03T10:06:56.650Z</time>
      </trkpt>
      <trkpt lat="41.04713" lon="19.7444">
        <ele>72.909687</ele>
        <time>2022-05-03T10:06:59.614Z</time>
      </trkpt>
      <trkpt lat="41.04713" lon="19.74427">
        <ele>72.956156</ele>
        <time>2022-05-03T10:07:02.659Z</time>
      </trkpt>
      <trkpt lat="41.04713" lon="19.74415">
        <ele>73.002669</ele>
        <time>2022-05-03T10:07:05.600Z</time>
      </trkpt>
      <trkpt lat="41.04711" lon="19.744">
        <ele>73.062419</ele>
        <time>2022-05-03T10:07:09.624Z</time>
      </trkpt>
      <trkpt lat="41.0471" lon="19.74385">
        <ele>73.117519</ele>
        <time>2022-05-03T10:07:12.627Z</time>
      </trkpt>
      <trkpt lat="41.04709" lon="19.74369">
        <ele>73.178304</ele>
        <time>2022-05-03T10:07:15.620Z</time>
      </trkpt>
      <trkpt lat="41.04708" lon="19.74353">
        <ele>73.239317</ele>
        <time>2022-05-03T10:07:18.624Z</time>
      </trkpt>
      <trkpt lat="41.04708" lon="19.74337">
        <ele>73.300742</ele>
        <time>2022-05-03T10:07:21.611Z</time>
      </trkpt>
      <trkpt lat="41.04707" lon="19.74321">
        <ele>73.360968</ele>
        <time>2022-05-03T10:07:24.667Z</time>
      </trkpt>
      <trkpt lat="41.04707" lon="19.74306">
        <ele>73.417727</ele>
        <time>2022-05-03T10:07:27.623Z</time>
      </trkpt>
      <trkpt lat="41.04707" lon="19.74291">
        <ele>73.477505</ele>
        <time>2022-05-03T10:07:30.618Z</time>
      </trkpt>
      <trkpt lat="41.04707" lon="19.74274">
        <ele>73.539938</ele>
        <time>2022-05-03T10:07:33.624Z</time>
      </trkpt>
      <trkpt lat="41.04707" lon="19.74258">
        <ele>73.603516</ele>
        <time>2022-05-03T10:07:36.614Z</time>
      </trkpt>
      <trkpt lat="41.04706" lon="19.7424">
        <ele>73.670207</ele>
        <time>2022-05-03T10:07:39.619Z</time>
      </trkpt>
      <trkpt lat="41.04706" lon="19.74224">
        <ele>73.556482</ele>
        <time>2022-05-03T10:07:42.616Z</time>
      </trkpt>
      <trkpt lat="41.0471" lon="19.74212">
        <ele>73.334612</ele>
        <time>2022-05-03T10:07:45.613Z</time>
      </trkpt>
      <trkpt lat="41.04714" lon="19.74198">
        <ele>73.093952</ele>
        <time>2022-05-03T10:07:48.651Z</time>
      </trkpt>
      <trkpt lat="41.0472" lon="19.74183">
        <ele>72.81137</ele>
        <time>2022-05-03T10:07:51.621Z</time>
      </trkpt>
      <trkpt lat="41.04725" lon="19.74169">
        <ele>72.535907</ele>
        <time>2022-05-03T10:07:54.617Z</time>
      </trkpt>
      <trkpt lat="41.0473" lon="19.74156">
        <ele>72.294389</ele>
        <time>2022-05-03T10:07:57.619Z</time>
      </trkpt>
      <trkpt lat="41.04736" lon="19.74143">
        <ele>72.039509</ele>
        <time>2022-05-03T10:08:00.624Z</time>
      </trkpt>
      <trkpt lat="41.04742" lon="19.74129">
        <ele>71.772947</ele>
        <time>2022-05-03T10:08:03.646Z</time>
      </trkpt>
      <trkpt lat="41.04748" lon="19.74114">
        <ele>71.500004</ele>
        <time>2022-05-03T10:08:06.631Z</time>
      </trkpt>
      <trkpt lat="41.04751" lon="19.74099">
        <ele>71.232399</ele>
        <time>2022-05-03T10:08:09.652Z</time>
      </trkpt>
      <trkpt lat="41.04754" lon="19.74085">
        <ele>70.981062</ele>
        <time>2022-05-03T10:08:12.596Z</time>
      </trkpt>
      <trkpt lat="41.04758" lon="19.74071">
        <ele>70.738065</ele>
        <time>2022-05-03T10:08:15.623Z</time>
      </trkpt>
      <trkpt lat="41.04761" lon="19.74057">
        <ele>70.485552</ele>
        <time>2022-05-03T10:08:18.625Z</time>
      </trkpt>
      <trkpt lat="41.04765" lon="19.74041">
        <ele>70.209014</ele>
        <time>2022-05-03T10:08:21.618Z</time>
      </trkpt>
      <trkpt lat="41.04767" lon="19.74024">
        <ele>69.922534</ele>
        <time>2022-05-03T10:08:24.622Z</time>
      </trkpt>
      <trkpt lat="41.04767" lon="19.74008">
        <ele>69.700695</ele>
        <time>2022-05-03T10:08:27.612Z</time>
      </trkpt>
      <trkpt lat="41.04771" lon="19.73996">
        <ele>69.687888</ele>
        <time>2022-05-03T10:08:30.612Z</time>
      </trkpt>
      <trkpt lat="41.04774" lon="19.73984">
        <ele>69.675569</ele>
        <time>2022-05-03T10:08:33.626Z</time>
      </trkpt>
      <trkpt lat="41.04776" lon="19.7397">
        <ele>69.661373</ele>
        <time>2022-05-03T10:08:36.615Z</time>
      </trkpt>
      <trkpt lat="41.04779" lon="19.73953">
        <ele>69.644776</ele>
        <time>2022-05-03T10:08:39.613Z</time>
      </trkpt>
      <trkpt lat="41.04781" lon="19.73936">
        <ele>69.628476</ele>
        <time>2022-05-03T10:08:42.612Z</time>
      </trkpt>
      <trkpt lat="41.04782" lon="19.7392">
        <ele>69.611901</ele>
        <time>2022-05-03T10:08:45.623Z</time>
      </trkpt>
      <trkpt lat="41.04784" lon="19.73903">
        <ele>69.595389</ele>
        <time>2022-05-03T10:08:48.656Z</time>
      </trkpt>
      <trkpt lat="41.04786" lon="19.73885">
        <ele>69.577937</ele>
        <time>2022-05-03T10:08:51.614Z</time>
      </trkpt>
      <trkpt lat="41.04788" lon="19.73872">
        <ele>69.565039</ele>
        <time>2022-05-03T10:08:53.616Z</time>
      </trkpt>
      <trkpt lat="41.0479" lon="19.7386">
        <ele>69.552498</ele>
        <time>2022-05-03T10:08:55.607Z</time>
      </trkpt>
      <trkpt lat="41.04792" lon="19.73846">
        <ele>69.539384</ele>
        <time>2022-05-03T10:08:57.627Z</time>
      </trkpt>
      <trkpt lat="41.04794" lon="19.73833">
        <ele>69.526104</ele>
        <time>2022-05-03T10:08:59.638Z</time>
      </trkpt>
      <trkpt lat="41.04796" lon="19.7382">
        <ele>69.513178</ele>
        <time>2022-05-03T10:09:01.615Z</time>
      </trkpt>
      <trkpt lat="41.04798" lon="19.73807">
        <ele>69.500662</ele>
        <time>2022-05-03T10:09:03.619Z</time>
      </trkpt>
      <trkpt lat="41.048" lon="19.73795">
        <ele>69.488065</ele>
        <time>2022-05-03T10:09:05.650Z</time>
      </trkpt>
      <trkpt lat="41.04802" lon="19.73782">
        <ele>69.475932</ele>
        <time>2022-05-03T10:09:07.613Z</time>
      </trkpt>
      <trkpt lat="41.04804" lon="19.73771">
        <ele>69.526163</ele>
        <time>2022-05-03T10:09:09.622Z</time>
      </trkpt>
      <trkpt lat="41.04807" lon="19.73755">
        <ele>69.645504</ele>
        <time>2022-05-03T10:09:12.617Z</time>
      </trkpt>
      <trkpt lat="41.0481" lon="19.73741">
        <ele>69.756312</ele>
        <time>2022-05-03T10:09:15.630Z</time>
      </trkpt>
      <trkpt lat="41.04813" lon="19.73726">
        <ele>69.872876</ele>
        <time>2022-05-03T10:09:18.617Z</time>
      </trkpt>
      <trkpt lat="41.04818" lon="19.7371">
        <ele>69.997743</ele>
        <time>2022-05-03T10:09:21.651Z</time>
      </trkpt>
      <trkpt lat="41.04822" lon="19.73698">
        <ele>70.096491</ele>
        <time>2022-05-03T10:09:23.625Z</time>
      </trkpt>
      <trkpt lat="41.04826" lon="19.73686">
        <ele>70.198731</ele>
        <time>2022-05-03T10:09:25.619Z</time>
      </trkpt>
      <trkpt lat="41.04831" lon="19.73674">
        <ele>70.303287</ele>
        <time>2022-05-03T10:09:27.618Z</time>
      </trkpt>
      <trkpt lat="41.04836" lon="19.73662">
        <ele>70.406233</ele>
        <time>2022-05-03T10:09:29.623Z</time>
      </trkpt>
      <trkpt lat="41.04841" lon="19.73651">
        <ele>70.503146</ele>
        <time>2022-05-03T10:09:31.614Z</time>
      </trkpt>
      <trkpt lat="41.04847" lon="19.7364">
        <ele>70.59779</ele>
        <time>2022-05-03T10:09:33.614Z</time>
      </trkpt>
      <trkpt lat="41.04852" lon="19.7363">
        <ele>70.69117</ele>
        <time>2022-05-03T10:09:35.623Z</time>
      </trkpt>
      <trkpt lat="41.04858" lon="19.73621">
        <ele>70.780339</ele>
        <time>2022-05-03T10:09:37.622Z</time>
      </trkpt>
      <trkpt lat="41.04865" lon="19.73607">
        <ele>70.904246</ele>
        <time>2022-05-03T10:09:40.632Z</time>
      </trkpt>
      <trkpt lat="41.04873" lon="19.73596">
        <ele>71.02318</ele>
        <time>2022-05-03T10:09:43.623Z</time>
      </trkpt>
      <trkpt lat="41.04881" lon="19.73583">
        <ele>71.146531</ele>
        <time>2022-05-03T10:09:46.617Z</time>
      </trkpt>
      <trkpt lat="41.04889" lon="19.7357">
        <ele>71.274356</ele>
        <time>2022-05-03T10:09:49.613Z</time>
      </trkpt>
      <trkpt lat="41.04897" lon="19.73557">
        <ele>71.401448</ele>
        <time>2022-05-03T10:09:52.615Z</time>
      </trkpt>
      <trkpt lat="41.04905" lon="19.73545">
        <ele>71.524618</ele>
        <time>2022-05-03T10:09:55.619Z</time>
      </trkpt>
      <trkpt lat="41.04912" lon="19.73533">
        <ele>71.64396</ele>
        <time>2022-05-03T10:09:58.639Z</time>
      </trkpt>
      <trkpt lat="41.04919" lon="19.73522">
        <ele>71.755861</ele>
        <time>2022-05-03T10:10:01.634Z</time>
      </trkpt>
      <trkpt lat="41.04926" lon="19.73512">
        <ele>71.85487</ele>
        <time>2022-05-03T10:10:04.627Z</time>
      </trkpt>
      <trkpt lat="41.04932" lon="19.73499">
        <ele>71.972157</ele>
        <time>2022-05-03T10:10:08.608Z</time>
      </trkpt>
      <trkpt lat="41.04938" lon="19.73487">
        <ele>72.077197</ele>
        <time>2022-05-03T10:10:12.618Z</time>
      </trkpt>
      <trkpt lat="41.04943" lon="19.73473">
        <ele>72.199286</ele>
        <time>2022-05-03T10:10:16.624Z</time>
      </trkpt>
      <trkpt lat="41.04949" lon="19.7346">
        <ele>72.313633</ele>
        <time>2022-05-03T10:10:19.625Z</time>
      </trkpt>
      <trkpt lat="41.04955" lon="19.73445">
        <ele>72.448438</ele>
        <time>2022-05-03T10:10:22.624Z</time>
      </trkpt>
      <trkpt lat="41.0496" lon="19.73434">
        <ele>72.545131</ele>
        <time>2022-05-03T10:10:24.625Z</time>
      </trkpt>
      <trkpt lat="41.04965" lon="19.73422">
        <ele>72.645168</ele>
        <time>2022-05-03T10:10:26.611Z</time>
      </trkpt>
      <trkpt lat="41.0497" lon="19.73411">
        <ele>72.745693</ele>
        <time>2022-05-03T10:10:28.616Z</time>
      </trkpt>
      <trkpt lat="41.04974" lon="19.734">
        <ele>72.842276</ele>
        <time>2022-05-03T10:10:30.640Z</time>
      </trkpt>
      <trkpt lat="41.04978" lon="19.73388">
        <ele>72.938438</ele>
        <time>2022-05-03T10:10:32.624Z</time>
      </trkpt>
      <trkpt lat="41.04982" lon="19.73377">
        <ele>73.033667</ele>
        <time>2022-05-03T10:10:34.626Z</time>
      </trkpt>
      <trkpt lat="41.04986" lon="19.73361">
        <ele>73.053529</ele>
        <time>2022-05-03T10:10:37.603Z</time>
      </trkpt>
      <trkpt lat="41.04991" lon="19.73347">
        <ele>73.012126</ele>
        <time>2022-05-03T10:10:40.622Z</time>
      </trkpt>
      <trkpt lat="41.04997" lon="19.73335">
        <ele>72.97213</ele>
        <time>2022-05-03T10:10:43.617Z</time>
      </trkpt>
      <trkpt lat="41.05002" lon="19.7332">
        <ele>72.927437</ele>
        <time>2022-05-03T10:10:46.611Z</time>
      </trkpt>
      <trkpt lat="41.05008" lon="19.73305">
        <ele>72.878044</ele>
        <time>2022-05-03T10:10:49.618Z</time>
      </trkpt>
      <trkpt lat="41.05013" lon="19.73294">
        <ele>72.844628</ele>
        <time>2022-05-03T10:10:51.616Z</time>
      </trkpt>
      <trkpt lat="41.05016" lon="19.73283">
        <ele>72.811036</ele>
        <time>2022-05-03T10:10:53.624Z</time>
      </trkpt>
      <trkpt lat="41.05023" lon="19.73268">
        <ele>72.763166</ele>
        <time>2022-05-03T10:10:56.628Z</time>
      </trkpt>
      <trkpt lat="41.05027" lon="19.73253">
        <ele>72.719833</ele>
        <time>2022-05-03T10:10:59.627Z</time>
      </trkpt>
      <trkpt lat="41.05031" lon="19.73238">
        <ele>72.675588</ele>
        <time>2022-05-03T10:11:02.628Z</time>
      </trkpt>
      <trkpt lat="41.05033" lon="19.7322">
        <ele>72.626636</ele>
        <time>2022-05-03T10:11:05.619Z</time>
      </trkpt>
      <trkpt lat="41.05034" lon="19.73208">
        <ele>72.591581</ele>
        <time>2022-05-03T10:11:07.614Z</time>
      </trkpt>
      <trkpt lat="41.05037" lon="19.73191">
        <ele>72.543569</ele>
        <time>2022-05-03T10:11:10.624Z</time>
      </trkpt>
      <trkpt lat="41.05039" lon="19.73174">
        <ele>72.495021</ele>
        <time>2022-05-03T10:11:13.627Z</time>
      </trkpt>
      <trkpt lat="41.05041" lon="19.73156">
        <ele>72.446263</ele>
        <time>2022-05-03T10:11:16.620Z</time>
      </trkpt>
      <trkpt lat="41.05043" lon="19.73144">
        <ele>72.414878</ele>
        <time>2022-05-03T10:11:18.611Z</time>
      </trkpt>
      <trkpt lat="41.05046" lon="19.73133">
        <ele>72.387104</ele>
        <time>2022-05-03T10:11:20.630Z</time>
      </trkpt>
      <trkpt lat="41.05048" lon="19.73115">
        <ele>72.345853</ele>
        <time>2022-05-03T10:11:23.615Z</time>
      </trkpt>
      <trkpt lat="41.0505" lon="19.73103">
        <ele>72.318148</ele>
        <time>2022-05-03T10:11:25.620Z</time>
      </trkpt>
      <trkpt lat="41.05052" lon="19.73086">
        <ele>72.277272</ele>
        <time>2022-05-03T10:11:28.619Z</time>
      </trkpt>
      <trkpt lat="41.05054" lon="19.73068">
        <ele>72.236397</ele>
        <time>2022-05-03T10:11:31.626Z</time>
      </trkpt>
      <trkpt lat="41.05055" lon="19.73056">
        <ele>72.2084</ele>
        <time>2022-05-03T10:11:33.616Z</time>
      </trkpt>
      <trkpt lat="41.05057" lon="19.73039">
        <ele>72.167652</ele>
        <time>2022-05-03T10:11:36.616Z</time>
      </trkpt>
      <trkpt lat="41.05058" lon="19.73027">
        <ele>72.140017</ele>
        <time>2022-05-03T10:11:38.614Z</time>
      </trkpt>
      <trkpt lat="41.05061" lon="19.7301">
        <ele>72.099728</ele>
        <time>2022-05-03T10:11:41.625Z</time>
      </trkpt>
      <trkpt lat="41.05063" lon="19.72993">
        <ele>72.059537</ele>
        <time>2022-05-03T10:11:44.630Z</time>
      </trkpt>
      <trkpt lat="41.05065" lon="19.72976">
        <ele>72.019992</ele>
        <time>2022-05-03T10:11:47.647Z</time>
      </trkpt>
      <trkpt lat="41.05068" lon="19.72959">
        <ele>71.979254</ele>
        <time>2022-05-03T10:11:50.632Z</time>
      </trkpt>
      <trkpt lat="41.05069" lon="19.72947">
        <ele>71.951225</ele>
        <time>2022-05-03T10:11:52.648Z</time>
      </trkpt>
      <trkpt lat="41.05071" lon="19.72935">
        <ele>71.923069</ele>
        <time>2022-05-03T10:11:54.617Z</time>
      </trkpt>
      <trkpt lat="41.05074" lon="19.72923">
        <ele>71.894592</ele>
        <time>2022-05-03T10:11:56.616Z</time>
      </trkpt>
      <trkpt lat="41.05077" lon="19.72912">
        <ele>71.838656</ele>
        <time>2022-05-03T10:11:58.621Z</time>
      </trkpt>
      <trkpt lat="41.05082" lon="19.72895">
        <ele>71.611477</ele>
        <time>2022-05-03T10:12:01.616Z</time>
      </trkpt>
      <trkpt lat="41.05086" lon="19.72884">
        <ele>71.453374</ele>
        <time>2022-05-03T10:12:03.647Z</time>
      </trkpt>
      <trkpt lat="41.05089" lon="19.72872">
        <ele>71.289335</ele>
        <time>2022-05-03T10:12:05.628Z</time>
      </trkpt>
      <trkpt lat="41.05093" lon="19.72859">
        <ele>71.114596</ele>
        <time>2022-05-03T10:12:07.627Z</time>
      </trkpt>
      <trkpt lat="41.05096" lon="19.72846">
        <ele>70.939665</ele>
        <time>2022-05-03T10:12:09.652Z</time>
      </trkpt>
      <trkpt lat="41.051" lon="19.72833">
        <ele>70.763649</ele>
        <time>2022-05-03T10:12:11.622Z</time>
      </trkpt>
      <trkpt lat="41.05104" lon="19.72819">
        <ele>70.584136</ele>
        <time>2022-05-03T10:12:13.634Z</time>
      </trkpt>
      <trkpt lat="41.05107" lon="19.72806">
        <ele>70.404529</ele>
        <time>2022-05-03T10:12:15.642Z</time>
      </trkpt>
      <trkpt lat="41.05111" lon="19.72793">
        <ele>70.227409</ele>
        <time>2022-05-03T10:12:17.616Z</time>
      </trkpt>
      <trkpt lat="41.05114" lon="19.7278">
        <ele>70.05624</ele>
        <time>2022-05-03T10:12:19.626Z</time>
      </trkpt>
      <trkpt lat="41.05119" lon="19.72768">
        <ele>69.884011</ele>
        <time>2022-05-03T10:12:21.671Z</time>
      </trkpt>
      <trkpt lat="41.05123" lon="19.72755">
        <ele>69.70201</ele>
        <time>2022-05-03T10:12:23.628Z</time>
      </trkpt>
      <trkpt lat="41.05128" lon="19.72742">
        <ele>69.517718</ele>
        <time>2022-05-03T10:12:25.625Z</time>
      </trkpt>
      <trkpt lat="41.05133" lon="19.72729">
        <ele>69.328172</ele>
        <time>2022-05-03T10:12:27.642Z</time>
      </trkpt>
      <trkpt lat="41.05138" lon="19.72716">
        <ele>69.142786</ele>
        <time>2022-05-03T10:12:29.629Z</time>
      </trkpt>
      <trkpt lat="41.05143" lon="19.72702">
        <ele>68.953181</ele>
        <time>2022-05-03T10:12:31.611Z</time>
      </trkpt>
      <trkpt lat="41.05148" lon="19.72688">
        <ele>68.712996</ele>
        <time>2022-05-03T10:12:33.605Z</time>
      </trkpt>
      <trkpt lat="41.05154" lon="19.72674">
        <ele>68.423206</ele>
        <time>2022-05-03T10:12:35.614Z</time>
      </trkpt>
      <trkpt lat="41.05159" lon="19.7266">
        <ele>68.133415</ele>
        <time>2022-05-03T10:12:37.616Z</time>
      </trkpt>
      <trkpt lat="41.05165" lon="19.72646">
        <ele>67.852063</ele>
        <time>2022-05-03T10:12:39.628Z</time>
      </trkpt>
      <trkpt lat="41.05171" lon="19.72633">
        <ele>67.577388</ele>
        <time>2022-05-03T10:12:41.611Z</time>
      </trkpt>
      <trkpt lat="41.05177" lon="19.72621">
        <ele>67.303577</ele>
        <time>2022-05-03T10:12:43.611Z</time>
      </trkpt>
      <trkpt lat="41.05183" lon="19.72608">
        <ele>67.018418</ele>
        <time>2022-05-03T10:12:45.620Z</time>
      </trkpt>
      <trkpt lat="41.0519" lon="19.72594">
        <ele>66.731926</ele>
        <time>2022-05-03T10:12:47.633Z</time>
      </trkpt>
      <trkpt lat="41.05197" lon="19.72581">
        <ele>66.440041</ele>
        <time>2022-05-03T10:12:49.656Z</time>
      </trkpt>
      <trkpt lat="41.05204" lon="19.72568">
        <ele>66.14784</ele>
        <time>2022-05-03T10:12:51.598Z</time>
      </trkpt>
      <trkpt lat="41.0521" lon="19.72554">
        <ele>65.859746</ele>
        <time>2022-05-03T10:12:53.613Z</time>
      </trkpt>
      <trkpt lat="41.05216" lon="19.72541">
        <ele>65.578395</ele>
        <time>2022-05-03T10:12:55.671Z</time>
      </trkpt>
      <trkpt lat="41.05221" lon="19.72527">
        <ele>65.295059</ele>
        <time>2022-05-03T10:12:57.622Z</time>
      </trkpt>
      <trkpt lat="41.05225" lon="19.72512">
        <ele>65.005769</ele>
        <time>2022-05-03T10:12:59.622Z</time>
      </trkpt>
      <trkpt lat="41.05229" lon="19.72497">
        <ele>64.715636</ele>
        <time>2022-05-03T10:13:01.671Z</time>
      </trkpt>
      <trkpt lat="41.05233" lon="19.72483">
        <ele>64.492047</ele>
        <time>2022-05-03T10:13:03.624Z</time>
      </trkpt>
      <trkpt lat="41.05237" lon="19.72469">
        <ele>64.4343</ele>
        <time>2022-05-03T10:13:05.607Z</time>
      </trkpt>
      <trkpt lat="41.0524" lon="19.72456">
        <ele>64.380383</ele>
        <time>2022-05-03T10:13:07.623Z</time>
      </trkpt>
      <trkpt lat="41.05244" lon="19.72443">
        <ele>64.323368</ele>
        <time>2022-05-03T10:13:09.629Z</time>
      </trkpt>
      <trkpt lat="41.05249" lon="19.72429">
        <ele>64.265964</ele>
        <time>2022-05-03T10:13:11.622Z</time>
      </trkpt>
      <trkpt lat="41.05253" lon="19.72416">
        <ele>64.209849</ele>
        <time>2022-05-03T10:13:13.634Z</time>
      </trkpt>
      <trkpt lat="41.05257" lon="19.72402">
        <ele>64.152656</ele>
        <time>2022-05-03T10:13:15.622Z</time>
      </trkpt>
      <trkpt lat="41.0526" lon="19.72389">
        <ele>64.096872</ele>
        <time>2022-05-03T10:13:17.627Z</time>
      </trkpt>
      <trkpt lat="41.05264" lon="19.72376">
        <ele>64.041701</ele>
        <time>2022-05-03T10:13:19.616Z</time>
      </trkpt>
      <trkpt lat="41.05268" lon="19.72363">
        <ele>63.987435</ele>
        <time>2022-05-03T10:13:21.625Z</time>
      </trkpt>
      <trkpt lat="41.05271" lon="19.7235">
        <ele>63.93153</ele>
        <time>2022-05-03T10:13:23.675Z</time>
      </trkpt>
      <trkpt lat="41.05275" lon="19.72336">
        <ele>63.875416</ele>
        <time>2022-05-03T10:13:25.634Z</time>
      </trkpt>
      <trkpt lat="41.05278" lon="19.72323">
        <ele>63.820006</ele>
        <time>2022-05-03T10:13:27.606Z</time>
      </trkpt>
      <trkpt lat="41.05281" lon="19.72309">
        <ele>63.764381</ele>
        <time>2022-05-03T10:13:29.614Z</time>
      </trkpt>
      <trkpt lat="41.05285" lon="19.72295">
        <ele>63.707254</ele>
        <time>2022-05-03T10:13:31.616Z</time>
      </trkpt>
      <trkpt lat="41.05287" lon="19.72281">
        <ele>63.649669</ele>
        <time>2022-05-03T10:13:33.632Z</time>
      </trkpt>
      <trkpt lat="41.0529" lon="19.72267">
        <ele>63.594139</ele>
        <time>2022-05-03T10:13:35.629Z</time>
      </trkpt>
      <trkpt lat="41.05292" lon="19.72254">
        <ele>63.621706</ele>
        <time>2022-05-03T10:13:37.630Z</time>
      </trkpt>
      <trkpt lat="41.05295" lon="19.72241">
        <ele>63.718268</ele>
        <time>2022-05-03T10:13:39.614Z</time>
      </trkpt>
      <trkpt lat="41.05298" lon="19.72228">
        <ele>63.814873</ele>
        <time>2022-05-03T10:13:41.631Z</time>
      </trkpt>
      <trkpt lat="41.053" lon="19.72213">
        <ele>63.91764</ele>
        <time>2022-05-03T10:13:43.619Z</time>
      </trkpt>
      <trkpt lat="41.05302" lon="19.722">
        <ele>64.016133</ele>
        <time>2022-05-03T10:13:45.659Z</time>
      </trkpt>
      <trkpt lat="41.05305" lon="19.72186">
        <ele>64.115226</ele>
        <time>2022-05-03T10:13:47.607Z</time>
      </trkpt>
      <trkpt lat="41.05308" lon="19.72173">
        <ele>64.213316</ele>
        <time>2022-05-03T10:13:49.600Z</time>
      </trkpt>
      <trkpt lat="41.05311" lon="19.7216">
        <ele>64.312409</ele>
        <time>2022-05-03T10:13:51.664Z</time>
      </trkpt>
      <trkpt lat="41.05312" lon="19.72146">
        <ele>64.410629</ele>
        <time>2022-05-03T10:13:53.630Z</time>
      </trkpt>
      <trkpt lat="41.05312" lon="19.72132">
        <ele>64.507194</ele>
        <time>2022-05-03T10:13:55.615Z</time>
      </trkpt>
      <trkpt lat="41.0531" lon="19.72118">
        <ele>64.608817</ele>
        <time>2022-05-03T10:13:57.762Z</time>
      </trkpt>
      <trkpt lat="41.05308" lon="19.72104">
        <ele>64.708701</ele>
        <time>2022-05-03T10:13:59.635Z</time>
      </trkpt>
      <trkpt lat="41.05309" lon="19.7209">
        <ele>64.808568</ele>
        <time>2022-05-03T10:14:01.596Z</time>
      </trkpt>
      <trkpt lat="41.05314" lon="19.72078">
        <ele>64.91128</ele>
        <time>2022-05-03T10:14:03.631Z</time>
      </trkpt>
      <trkpt lat="41.05322" lon="19.72066">
        <ele>65.020924</ele>
        <time>2022-05-03T10:14:05.622Z</time>
      </trkpt>
      <trkpt lat="41.0533" lon="19.72055">
        <ele>65.132667</ele>
        <time>2022-05-03T10:14:07.613Z</time>
      </trkpt>
      <trkpt lat="41.05339" lon="19.72045">
        <ele>65.244274</ele>
        <time>2022-05-03T10:14:09.603Z</time>
      </trkpt>
      <trkpt lat="41.05347" lon="19.72034">
        <ele>65.327265</ele>
        <time>2022-05-03T10:14:11.658Z</time>
      </trkpt>
      <trkpt lat="41.05354" lon="19.72023">
        <ele>65.405505</ele>
        <time>2022-05-03T10:14:13.630Z</time>
      </trkpt>
      <trkpt lat="41.05361" lon="19.72013">
        <ele>65.480603</ele>
        <time>2022-05-03T10:14:15.627Z</time>
      </trkpt>
      <trkpt lat="41.05367" lon="19.72002">
        <ele>65.555702</ele>
        <time>2022-05-03T10:14:17.628Z</time>
      </trkpt>
      <trkpt lat="41.05374" lon="19.71992">
        <ele>65.631968</ele>
        <time>2022-05-03T10:14:19.651Z</time>
      </trkpt>
      <trkpt lat="41.0538" lon="19.71981">
        <ele>65.706893</ele>
        <time>2022-05-03T10:14:21.697Z</time>
      </trkpt>
      <trkpt lat="41.05386" lon="19.71969">
        <ele>65.783563</ele>
        <time>2022-05-03T10:14:23.629Z</time>
      </trkpt>
      <trkpt lat="41.05392" lon="19.71958">
        <ele>65.858998</ele>
        <time>2022-05-03T10:14:25.660Z</time>
      </trkpt>
      <trkpt lat="41.05398" lon="19.71946">
        <ele>65.936302</ele>
        <time>2022-05-03T10:14:27.605Z</time>
      </trkpt>
      <trkpt lat="41.05404" lon="19.71934">
        <ele>66.017075</ele>
        <time>2022-05-03T10:14:29.636Z</time>
      </trkpt>
      <trkpt lat="41.05411" lon="19.71921">
        <ele>66.101267</ele>
        <time>2022-05-03T10:14:31.599Z</time>
      </trkpt>
      <trkpt lat="41.05417" lon="19.71908">
        <ele>66.183877</ele>
        <time>2022-05-03T10:14:33.618Z</time>
      </trkpt>
      <trkpt lat="41.05423" lon="19.71896">
        <ele>66.264141</ele>
        <time>2022-05-03T10:14:35.633Z</time>
      </trkpt>
      <trkpt lat="41.05429" lon="19.71884">
        <ele>66.343954</ele>
        <time>2022-05-03T10:14:37.620Z</time>
      </trkpt>
      <trkpt lat="41.05436" lon="19.71871">
        <ele>66.426384</ele>
        <time>2022-05-03T10:14:39.625Z</time>
      </trkpt>
      <trkpt lat="41.05443" lon="19.71858">
        <ele>66.51309</ele>
        <time>2022-05-03T10:14:41.626Z</time>
      </trkpt>
      <trkpt lat="41.0545" lon="19.71845">
        <ele>66.461739</ele>
        <time>2022-05-03T10:14:43.639Z</time>
      </trkpt>
      <trkpt lat="41.05457" lon="19.71831">
        <ele>66.245199</ele>
        <time>2022-05-03T10:14:45.607Z</time>
      </trkpt>
      <trkpt lat="41.05463" lon="19.71818">
        <ele>66.036969</ele>
        <time>2022-05-03T10:14:47.622Z</time>
      </trkpt>
      <trkpt lat="41.05471" lon="19.71804">
        <ele>65.807955</ele>
        <time>2022-05-03T10:14:49.626Z</time>
      </trkpt>
      <trkpt lat="41.05479" lon="19.7179">
        <ele>65.57764</ele>
        <time>2022-05-03T10:14:51.623Z</time>
      </trkpt>
      <trkpt lat="41.05486" lon="19.71776">
        <ele>65.358917</ele>
        <time>2022-05-03T10:14:53.669Z</time>
      </trkpt>
      <trkpt lat="41.05493" lon="19.71763">
        <ele>65.149808</ele>
        <time>2022-05-03T10:14:55.613Z</time>
      </trkpt>
      <trkpt lat="41.055" lon="19.71751">
        <ele>64.93875</ele>
        <time>2022-05-03T10:14:57.612Z</time>
      </trkpt>
      <trkpt lat="41.05507" lon="19.71738">
        <ele>64.740342</ele>
        <time>2022-05-03T10:14:59.630Z</time>
      </trkpt>
      <trkpt lat="41.05513" lon="19.71727">
        <ele>64.545102</ele>
        <time>2022-05-03T10:15:01.629Z</time>
      </trkpt>
      <trkpt lat="41.05519" lon="19.71715">
        <ele>64.361469</ele>
        <time>2022-05-03T10:15:03.626Z</time>
      </trkpt>
      <trkpt lat="41.05526" lon="19.71704">
        <ele>64.181017</ele>
        <time>2022-05-03T10:15:05.610Z</time>
      </trkpt>
      <trkpt lat="41.05532" lon="19.71694">
        <ele>64.002675</ele>
        <time>2022-05-03T10:15:07.623Z</time>
      </trkpt>
      <trkpt lat="41.05538" lon="19.71683">
        <ele>63.824333</ele>
        <time>2022-05-03T10:15:09.627Z</time>
      </trkpt>
      <trkpt lat="41.05544" lon="19.71672">
        <ele>63.648098</ele>
        <time>2022-05-03T10:15:11.610Z</time>
      </trkpt>
      <trkpt lat="41.0555" lon="19.71662">
        <ele>63.475031</ele>
        <time>2022-05-03T10:15:13.623Z</time>
      </trkpt>
      <trkpt lat="41.05558" lon="19.71647">
        <ele>63.435799</ele>
        <time>2022-05-03T10:15:16.631Z</time>
      </trkpt>
      <trkpt lat="41.05563" lon="19.71638">
        <ele>63.46069</ele>
        <time>2022-05-03T10:15:18.616Z</time>
      </trkpt>
      <trkpt lat="41.0557" lon="19.71623">
        <ele>63.497403</ele>
        <time>2022-05-03T10:15:21.655Z</time>
      </trkpt>
      <trkpt lat="41.05578" lon="19.71609">
        <ele>63.533584</ele>
        <time>2022-05-03T10:15:24.619Z</time>
      </trkpt>
      <trkpt lat="41.05586" lon="19.71595">
        <ele>63.570256</ele>
        <time>2022-05-03T10:15:27.658Z</time>
      </trkpt>
      <trkpt lat="41.05592" lon="19.71585">
        <ele>63.596665</ele>
        <time>2022-05-03T10:15:29.628Z</time>
      </trkpt>
      <trkpt lat="41.05598" lon="19.71575">
        <ele>63.621739</ele>
        <time>2022-05-03T10:15:31.610Z</time>
      </trkpt>
      <trkpt lat="41.05604" lon="19.71565">
        <ele>63.649878</ele>
        <time>2022-05-03T10:15:33.612Z</time>
      </trkpt>
      <trkpt lat="41.05611" lon="19.71555">
        <ele>63.67779</ele>
        <time>2022-05-03T10:15:35.620Z</time>
      </trkpt>
      <trkpt lat="41.05617" lon="19.71545">
        <ele>63.705544</ele>
        <time>2022-05-03T10:15:37.622Z</time>
      </trkpt>
      <trkpt lat="41.05624" lon="19.71535">
        <ele>63.73328</ele>
        <time>2022-05-03T10:15:39.626Z</time>
      </trkpt>
      <trkpt lat="41.0563" lon="19.71525">
        <ele>63.760561</ele>
        <time>2022-05-03T10:15:41.626Z</time>
      </trkpt>
      <trkpt lat="41.05637" lon="19.71515">
        <ele>63.788023</ele>
        <time>2022-05-03T10:15:43.630Z</time>
      </trkpt>
      <trkpt lat="41.05644" lon="19.71505">
        <ele>63.814904</ele>
        <time>2022-05-03T10:15:45.643Z</time>
      </trkpt>
      <trkpt lat="41.05651" lon="19.71496">
        <ele>63.842849</ele>
        <time>2022-05-03T10:15:47.616Z</time>
      </trkpt>
      <trkpt lat="41.05658" lon="19.71485">
        <ele>63.872755</ele>
        <time>2022-05-03T10:15:49.610Z</time>
      </trkpt>
      <trkpt lat="41.05666" lon="19.71475">
        <ele>63.903268</ele>
        <time>2022-05-03T10:15:51.627Z</time>
      </trkpt>
      <trkpt lat="41.05673" lon="19.71464">
        <ele>63.853004</ele>
        <time>2022-05-03T10:15:53.621Z</time>
      </trkpt>
      <trkpt lat="41.05681" lon="19.71453">
        <ele>63.797301</ele>
        <time>2022-05-03T10:15:55.617Z</time>
      </trkpt>
      <trkpt lat="41.05689" lon="19.71441">
        <ele>63.740872</ele>
        <time>2022-05-03T10:15:57.610Z</time>
      </trkpt>
      <trkpt lat="41.05696" lon="19.7143">
        <ele>63.683517</ele>
        <time>2022-05-03T10:15:59.632Z</time>
      </trkpt>
      <trkpt lat="41.05704" lon="19.71418">
        <ele>63.626112</ele>
        <time>2022-05-03T10:16:01.606Z</time>
      </trkpt>
      <trkpt lat="41.05712" lon="19.71407">
        <ele>63.56953</ele>
        <time>2022-05-03T10:16:03.636Z</time>
      </trkpt>
      <trkpt lat="41.0572" lon="19.71396">
        <ele>63.513334</ele>
        <time>2022-05-03T10:16:05.616Z</time>
      </trkpt>
      <trkpt lat="41.05727" lon="19.71384">
        <ele>63.457465</ele>
        <time>2022-05-03T10:16:07.617Z</time>
      </trkpt>
      <trkpt lat="41.05735" lon="19.71373">
        <ele>63.398791</ele>
        <time>2022-05-03T10:16:09.607Z</time>
      </trkpt>
      <trkpt lat="41.05743" lon="19.71361">
        <ele>63.341661</ele>
        <time>2022-05-03T10:16:11.662Z</time>
      </trkpt>
      <trkpt lat="41.05751" lon="19.7135">
        <ele>63.283459</ele>
        <time>2022-05-03T10:16:13.617Z</time>
      </trkpt>
      <trkpt lat="41.05759" lon="19.71339">
        <ele>63.22735</ele>
        <time>2022-05-03T10:16:15.626Z</time>
      </trkpt>
      <trkpt lat="41.05767" lon="19.71328">
        <ele>63.171581</ele>
        <time>2022-05-03T10:16:17.626Z</time>
      </trkpt>
      <trkpt lat="41.05775" lon="19.71317">
        <ele>63.115878</ele>
        <time>2022-05-03T10:16:19.638Z</time>
      </trkpt>
      <trkpt lat="41.05782" lon="19.71306">
        <ele>63.06172</ele>
        <time>2022-05-03T10:16:21.638Z</time>
      </trkpt>
      <trkpt lat="41.05789" lon="19.71297">
        <ele>63.036183</ele>
        <time>2022-05-03T10:16:23.612Z</time>
      </trkpt>
      <trkpt lat="41.05796" lon="19.71286">
        <ele>63.141344</ele>
        <time>2022-05-03T10:16:25.609Z</time>
      </trkpt>
      <trkpt lat="41.05803" lon="19.71276">
        <ele>63.247077</ele>
        <time>2022-05-03T10:16:27.624Z</time>
      </trkpt>
      <trkpt lat="41.05809" lon="19.71266">
        <ele>63.352636</ele>
        <time>2022-05-03T10:16:29.623Z</time>
      </trkpt>
      <trkpt lat="41.05815" lon="19.71255">
        <ele>63.457423</ele>
        <time>2022-05-03T10:16:31.627Z</time>
      </trkpt>
      <trkpt lat="41.05821" lon="19.71243">
        <ele>63.561692</ele>
        <time>2022-05-03T10:16:33.666Z</time>
      </trkpt>
      <trkpt lat="41.05827" lon="19.71232">
        <ele>63.665553</ele>
        <time>2022-05-03T10:16:35.627Z</time>
      </trkpt>
      <trkpt lat="41.05832" lon="19.7122">
        <ele>63.769778</ele>
        <time>2022-05-03T10:16:37.618Z</time>
      </trkpt>
      <trkpt lat="41.05836" lon="19.71209">
        <ele>63.868526</ele>
        <time>2022-05-03T10:16:39.611Z</time>
      </trkpt>
      <trkpt lat="41.0584" lon="19.71197">
        <ele>63.966994</ele>
        <time>2022-05-03T10:16:41.630Z</time>
      </trkpt>
      <trkpt lat="41.05844" lon="19.71185">
        <ele>64.066105</ele>
        <time>2022-05-03T10:16:43.630Z</time>
      </trkpt>
      <trkpt lat="41.05847" lon="19.71173">
        <ele>64.164129</ele>
        <time>2022-05-03T10:16:45.605Z</time>
      </trkpt>
      <trkpt lat="41.0585" lon="19.71161">
        <ele>64.259298</ele>
        <time>2022-05-03T10:16:47.630Z</time>
      </trkpt>
      <trkpt lat="41.05853" lon="19.71149">
        <ele>64.356872</ele>
        <time>2022-05-03T10:16:49.618Z</time>
      </trkpt>
      <trkpt lat="41.05855" lon="19.71137">
        <ele>64.452684</ele>
        <time>2022-05-03T10:16:51.661Z</time>
      </trkpt>
      <trkpt lat="41.05856" lon="19.71125">
        <ele>64.549061</ele>
        <time>2022-05-03T10:16:53.644Z</time>
      </trkpt>
      <trkpt lat="41.05858" lon="19.71112">
        <ele>64.647117</ele>
        <time>2022-05-03T10:16:55.625Z</time>
      </trkpt>
      <trkpt lat="41.05859" lon="19.711">
        <ele>64.743337</ele>
        <time>2022-05-03T10:16:57.618Z</time>
      </trkpt>
      <trkpt lat="41.05861" lon="19.71087">
        <ele>64.841076</ele>
        <time>2022-05-03T10:16:59.622Z</time>
      </trkpt>
      <trkpt lat="41.05863" lon="19.71074">
        <ele>65.001038</ele>
        <time>2022-05-03T10:17:01.613Z</time>
      </trkpt>
      <trkpt lat="41.05864" lon="19.71062">
        <ele>65.163465</ele>
        <time>2022-05-03T10:17:03.609Z</time>
      </trkpt>
      <trkpt lat="41.05865" lon="19.7105">
        <ele>65.323808</ele>
        <time>2022-05-03T10:17:05.616Z</time>
      </trkpt>
      <trkpt lat="41.05867" lon="19.71037">
        <ele>65.48851</ele>
        <time>2022-05-03T10:17:07.614Z</time>
      </trkpt>
      <trkpt lat="41.05869" lon="19.71025">
        <ele>65.648129</ele>
        <time>2022-05-03T10:17:09.624Z</time>
      </trkpt>
      <trkpt lat="41.05871" lon="19.71007">
        <ele>65.877405</ele>
        <time>2022-05-03T10:17:12.618Z</time>
      </trkpt>
      <trkpt lat="41.05873" lon="19.70996">
        <ele>66.030789</ele>
        <time>2022-05-03T10:17:14.652Z</time>
      </trkpt>
      <trkpt lat="41.05875" lon="19.70978">
        <ele>66.260065</ele>
        <time>2022-05-03T10:17:17.609Z</time>
      </trkpt>
      <trkpt lat="41.05877" lon="19.70966">
        <ele>66.413985</ele>
        <time>2022-05-03T10:17:19.614Z</time>
      </trkpt>
      <trkpt lat="41.0588" lon="19.70949">
        <ele>66.636615</ele>
        <time>2022-05-03T10:17:22.628Z</time>
      </trkpt>
      <trkpt lat="41.05882" lon="19.70933">
        <ele>66.853579</ele>
        <time>2022-05-03T10:17:25.607Z</time>
      </trkpt>
      <trkpt lat="41.05884" lon="19.70917">
        <ele>67.066731</ele>
        <time>2022-05-03T10:17:28.623Z</time>
      </trkpt>
      <trkpt lat="41.05886" lon="19.709">
        <ele>67.283337</ele>
        <time>2022-05-03T10:17:31.654Z</time>
      </trkpt>
      <trkpt lat="41.05888" lon="19.70884">
        <ele>67.497999</ele>
        <time>2022-05-03T10:17:34.607Z</time>
      </trkpt>
      <trkpt lat="41.0589" lon="19.70867">
        <ele>67.710106</ele>
        <time>2022-05-03T10:17:37.667Z</time>
      </trkpt>
      <trkpt lat="41.05891" lon="19.70852">
        <ele>67.91353</ele>
        <time>2022-05-03T10:17:40.629Z</time>
      </trkpt>
      <trkpt lat="41.05893" lon="19.70836">
        <ele>67.977827</ele>
        <time>2022-05-03T10:17:43.667Z</time>
      </trkpt>
      <trkpt lat="41.05895" lon="19.70821">
        <ele>68.03385</ele>
        <time>2022-05-03T10:17:46.620Z</time>
      </trkpt>
      <trkpt lat="41.05898" lon="19.70805">
        <ele>68.091794</ele>
        <time>2022-05-03T10:17:49.615Z</time>
      </trkpt>
      <trkpt lat="41.059" lon="19.70788">
        <ele>68.152457</ele>
        <time>2022-05-03T10:17:52.635Z</time>
      </trkpt>
      <trkpt lat="41.05903" lon="19.70771">
        <ele>68.213912</ele>
        <time>2022-05-03T10:17:55.630Z</time>
      </trkpt>
      <trkpt lat="41.05905" lon="19.70754">
        <ele>68.276248</ele>
        <time>2022-05-03T10:17:58.632Z</time>
      </trkpt>
      <trkpt lat="41.05907" lon="19.70742">
        <ele>68.31952</ele>
        <time>2022-05-03T10:18:00.656Z</time>
      </trkpt>
      <trkpt lat="41.05909" lon="19.7073">
        <ele>68.363344</ele>
        <time>2022-05-03T10:18:02.621Z</time>
      </trkpt>
      <trkpt lat="41.05911" lon="19.70718">
        <ele>68.407219</ele>
        <time>2022-05-03T10:18:04.613Z</time>
      </trkpt>
      <trkpt lat="41.05913" lon="19.70706">
        <ele>68.450655</ele>
        <time>2022-05-03T10:18:06.623Z</time>
      </trkpt>
      <trkpt lat="41.05915" lon="19.70694">
        <ele>68.494132</ele>
        <time>2022-05-03T10:18:08.637Z</time>
      </trkpt>
      <trkpt lat="41.05916" lon="19.70682">
        <ele>68.537568</ele>
        <time>2022-05-03T10:18:10.624Z</time>
      </trkpt>
      <trkpt lat="41.05918" lon="19.7067">
        <ele>68.580344</ele>
        <time>2022-05-03T10:18:12.612Z</time>
      </trkpt>
      <trkpt lat="41.05919" lon="19.70658">
        <ele>68.623471</ele>
        <time>2022-05-03T10:18:14.611Z</time>
      </trkpt>
      <trkpt lat="41.05921" lon="19.70645">
        <ele>68.668575</ele>
        <time>2022-05-03T10:18:16.618Z</time>
      </trkpt>
      <trkpt lat="41.05922" lon="19.70633">
        <ele>68.714895</ele>
        <time>2022-05-03T10:18:18.628Z</time>
      </trkpt>
      <trkpt lat="41.05924" lon="19.7062">
        <ele>68.761844</ele>
        <time>2022-05-03T10:18:20.635Z</time>
      </trkpt>
      <trkpt lat="41.05926" lon="19.70607">
        <ele>68.716216</ele>
        <time>2022-05-03T10:18:22.616Z</time>
      </trkpt>
      <trkpt lat="41.05928" lon="19.70594">
        <ele>68.63844</ele>
        <time>2022-05-03T10:18:24.627Z</time>
      </trkpt>
      <trkpt lat="41.0593" lon="19.70581">
        <ele>68.561657</ele>
        <time>2022-05-03T10:18:26.636Z</time>
      </trkpt>
      <trkpt lat="41.05932" lon="19.70568">
        <ele>68.484597</ele>
        <time>2022-05-03T10:18:28.651Z</time>
      </trkpt>
      <trkpt lat="41.05934" lon="19.70555">
        <ele>68.407814</ele>
        <time>2022-05-03T10:18:30.626Z</time>
      </trkpt>
      <trkpt lat="41.05936" lon="19.70542">
        <ele>68.331755</ele>
        <time>2022-05-03T10:18:32.615Z</time>
      </trkpt>
      <trkpt lat="41.05938" lon="19.70529">
        <ele>68.252938</ele>
        <time>2022-05-03T10:18:34.615Z</time>
      </trkpt>
      <trkpt lat="41.0594" lon="19.70515">
        <ele>68.173297</ele>
        <time>2022-05-03T10:18:36.605Z</time>
      </trkpt>
      <trkpt lat="41.05942" lon="19.70502">
        <ele>68.094074</ele>
        <time>2022-05-03T10:18:38.612Z</time>
      </trkpt>
      <trkpt lat="41.05943" lon="19.70489">
        <ele>68.016128</ele>
        <time>2022-05-03T10:18:40.629Z</time>
      </trkpt>
      <trkpt lat="41.05945" lon="19.70476">
        <ele>67.937479</ele>
        <time>2022-05-03T10:18:42.614Z</time>
      </trkpt>
      <trkpt lat="41.05947" lon="19.70462">
        <ele>67.857805</ele>
        <time>2022-05-03T10:18:44.616Z</time>
      </trkpt>
      <trkpt lat="41.05948" lon="19.70449">
        <ele>67.780089</ele>
        <time>2022-05-03T10:18:46.617Z</time>
      </trkpt>
      <trkpt lat="41.0595" lon="19.70436">
        <ele>67.701566</ele>
        <time>2022-05-03T10:18:48.632Z</time>
      </trkpt>
      <trkpt lat="41.05951" lon="19.70423">
        <ele>67.625921</ele>
        <time>2022-05-03T10:18:50.620Z</time>
      </trkpt>
      <trkpt lat="41.05953" lon="19.7041">
        <ele>67.547424</ele>
        <time>2022-05-03T10:18:52.614Z</time>
      </trkpt>
      <trkpt lat="41.05955" lon="19.70396">
        <ele>67.465345</ele>
        <time>2022-05-03T10:18:54.659Z</time>
      </trkpt>
      <trkpt lat="41.05958" lon="19.70382">
        <ele>67.38368</ele>
        <time>2022-05-03T10:18:56.645Z</time>
      </trkpt>
      <trkpt lat="41.0596" lon="19.70368">
        <ele>67.147245</ele>
        <time>2022-05-03T10:18:58.644Z</time>
      </trkpt>
      <trkpt lat="41.05962" lon="19.70355">
        <ele>66.911939</ele>
        <time>2022-05-03T10:19:00.626Z</time>
      </trkpt>
      <trkpt lat="41.05964" lon="19.70341">
        <ele>66.677184</ele>
        <time>2022-05-03T10:19:02.621Z</time>
      </trkpt>
      <trkpt lat="41.05966" lon="19.70327">
        <ele>66.438685</ele>
        <time>2022-05-03T10:19:04.624Z</time>
      </trkpt>
      <trkpt lat="41.05968" lon="19.70313">
        <ele>66.196001</ele>
        <time>2022-05-03T10:19:06.653Z</time>
      </trkpt>
      <trkpt lat="41.0597" lon="19.70299">
        <ele>65.952397</ele>
        <time>2022-05-03T10:19:08.613Z</time>
      </trkpt>
      <trkpt lat="41.05972" lon="19.70286">
        <ele>65.710454</ele>
        <time>2022-05-03T10:19:10.629Z</time>
      </trkpt>
      <trkpt lat="41.05974" lon="19.70272">
        <ele>65.468609</ele>
        <time>2022-05-03T10:19:12.607Z</time>
      </trkpt>
      <trkpt lat="41.05976" lon="19.70257">
        <ele>65.220068</ele>
        <time>2022-05-03T10:19:14.611Z</time>
      </trkpt>
      <trkpt lat="41.05978" lon="19.70243">
        <ele>64.974473</ele>
        <time>2022-05-03T10:19:16.618Z</time>
      </trkpt>
      <trkpt lat="41.0598" lon="19.70228">
        <ele>64.718009</ele>
        <time>2022-05-03T10:19:18.619Z</time>
      </trkpt>
      <trkpt lat="41.05983" lon="19.70212">
        <ele>64.445657</ele>
        <time>2022-05-03T10:19:20.623Z</time>
      </trkpt>
      <trkpt lat="41.05985" lon="19.70196">
        <ele>64.161532</ele>
        <time>2022-05-03T10:19:22.607Z</time>
      </trkpt>
      <trkpt lat="41.05987" lon="19.70179">
        <ele>63.875402</ele>
        <time>2022-05-03T10:19:24.608Z</time>
      </trkpt>
      <trkpt lat="41.0599" lon="19.70163">
        <ele>63.592836</ele>
        <time>2022-05-03T10:19:26.634Z</time>
      </trkpt>
      <trkpt lat="41.05992" lon="19.70146">
        <ele>63.305028</ele>
        <time>2022-05-03T10:19:28.616Z</time>
      </trkpt>
      <trkpt lat="41.05995" lon="19.70129">
        <ele>63.064534</ele>
        <time>2022-05-03T10:19:30.614Z</time>
      </trkpt>
      <trkpt lat="41.05997" lon="19.70111">
        <ele>62.818399</ele>
        <time>2022-05-03T10:19:32.613Z</time>
      </trkpt>
      <trkpt lat="41.06" lon="19.70092">
        <ele>62.562569</ele>
        <time>2022-05-03T10:19:34.616Z</time>
      </trkpt>
      <trkpt lat="41.06002" lon="19.70073">
        <ele>62.305956</ele>
        <time>2022-05-03T10:19:36.647Z</time>
      </trkpt>
      <trkpt lat="41.06004" lon="19.70054">
        <ele>62.044506</ele>
        <time>2022-05-03T10:19:38.613Z</time>
      </trkpt>
      <trkpt lat="41.06007" lon="19.70035">
        <ele>61.782756</ele>
        <time>2022-05-03T10:19:40.624Z</time>
      </trkpt>
      <trkpt lat="41.06009" lon="19.70017">
        <ele>61.528662</ele>
        <time>2022-05-03T10:19:42.656Z</time>
      </trkpt>
      <trkpt lat="41.06012" lon="19.69998">
        <ele>61.269915</ele>
        <time>2022-05-03T10:19:44.613Z</time>
      </trkpt>
      <trkpt lat="41.06015" lon="19.69978">
        <ele>60.993479</ele>
        <time>2022-05-03T10:19:46.612Z</time>
      </trkpt>
      <trkpt lat="41.06019" lon="19.69958">
        <ele>60.719682</ele>
        <time>2022-05-03T10:19:48.626Z</time>
      </trkpt>
      <trkpt lat="41.06023" lon="19.69938">
        <ele>60.442908</ele>
        <time>2022-05-03T10:19:50.610Z</time>
      </trkpt>
      <trkpt lat="41.06027" lon="19.69919">
        <ele>60.171348</ele>
        <time>2022-05-03T10:19:52.626Z</time>
      </trkpt>
      <trkpt lat="41.06031" lon="19.69899">
        <ele>59.903466</ele>
        <time>2022-05-03T10:19:54.614Z</time>
      </trkpt>
      <trkpt lat="41.06034" lon="19.69879">
        <ele>59.639709</ele>
        <time>2022-05-03T10:19:56.630Z</time>
      </trkpt>
      <trkpt lat="41.06038" lon="19.69861">
        <ele>59.387282</ele>
        <time>2022-05-03T10:19:58.617Z</time>
      </trkpt>
      <trkpt lat="41.06042" lon="19.69842">
        <ele>59.137719</ele>
        <time>2022-05-03T10:20:00.635Z</time>
      </trkpt>
      <trkpt lat="41.06045" lon="19.69825">
        <ele>58.913314</ele>
        <time>2022-05-03T10:20:02.626Z</time>
      </trkpt>
      <trkpt lat="41.06049" lon="19.69809">
        <ele>58.690157</ele>
        <time>2022-05-03T10:20:04.690Z</time>
      </trkpt>
      <trkpt lat="41.06052" lon="19.69793">
        <ele>58.479295</ele>
        <time>2022-05-03T10:20:06.638Z</time>
      </trkpt>
      <trkpt lat="41.06056" lon="19.69779">
        <ele>58.278106</ele>
        <time>2022-05-03T10:20:08.623Z</time>
      </trkpt>
      <trkpt lat="41.0606" lon="19.69764">
        <ele>58.073878</ele>
        <time>2022-05-03T10:20:10.614Z</time>
      </trkpt>
      <trkpt lat="41.06064" lon="19.69748">
        <ele>57.860476</ele>
        <time>2022-05-03T10:20:12.619Z</time>
      </trkpt>
      <trkpt lat="41.06068" lon="19.69733">
        <ele>57.650747</ele>
        <time>2022-05-03T10:20:14.626Z</time>
      </trkpt>
      <trkpt lat="41.06072" lon="19.69719">
        <ele>57.459808</ele>
        <time>2022-05-03T10:20:16.623Z</time>
      </trkpt>
      <trkpt lat="41.06075" lon="19.69706">
        <ele>57.274343</ele>
        <time>2022-05-03T10:20:18.614Z</time>
      </trkpt>
      <trkpt lat="41.06079" lon="19.69693">
        <ele>57.092559</ele>
        <time>2022-05-03T10:20:20.630Z</time>
      </trkpt>
      <trkpt lat="41.06083" lon="19.6968">
        <ele>56.960083</ele>
        <time>2022-05-03T10:20:22.620Z</time>
      </trkpt>
      <trkpt lat="41.06086" lon="19.69669">
        <ele>56.868558</ele>
        <time>2022-05-03T10:20:24.629Z</time>
      </trkpt>
      <trkpt lat="41.06089" lon="19.69656">
        <ele>56.772623</ele>
        <time>2022-05-03T10:20:26.625Z</time>
      </trkpt>
      <trkpt lat="41.06093" lon="19.69644">
        <ele>56.676689</ele>
        <time>2022-05-03T10:20:28.617Z</time>
      </trkpt>
      <trkpt lat="41.06097" lon="19.69632">
        <ele>56.580191</ele>
        <time>2022-05-03T10:20:30.605Z</time>
      </trkpt>
      <trkpt lat="41.06101" lon="19.6962">
        <ele>56.485283</ele>
        <time>2022-05-03T10:20:32.650Z</time>
      </trkpt>
      <trkpt lat="41.06104" lon="19.69607">
        <ele>56.390722</ele>
        <time>2022-05-03T10:20:34.622Z</time>
      </trkpt>
      <trkpt lat="41.06108" lon="19.69596">
        <ele>56.297658</ele>
        <time>2022-05-03T10:20:36.623Z</time>
      </trkpt>
      <trkpt lat="41.06112" lon="19.69584">
        <ele>56.204409</ele>
        <time>2022-05-03T10:20:38.662Z</time>
      </trkpt>
      <trkpt lat="41.06116" lon="19.69572">
        <ele>56.112498</ele>
        <time>2022-05-03T10:20:40.624Z</time>
      </trkpt>
      <trkpt lat="41.0612" lon="19.69561">
        <ele>56.022305</ele>
        <time>2022-05-03T10:20:42.616Z</time>
      </trkpt>
      <trkpt lat="41.06124" lon="19.6955">
        <ele>55.934274</ele>
        <time>2022-05-03T10:20:44.651Z</time>
      </trkpt>
      <trkpt lat="41.06129" lon="19.69539">
        <ele>55.84425</ele>
        <time>2022-05-03T10:20:46.631Z</time>
      </trkpt>
      <trkpt lat="41.06133" lon="19.69528">
        <ele>55.753817</ele>
        <time>2022-05-03T10:20:48.610Z</time>
      </trkpt>
      <trkpt lat="41.06136" lon="19.69517">
        <ele>55.666283</ele>
        <time>2022-05-03T10:20:50.629Z</time>
      </trkpt>
      <trkpt lat="41.0614" lon="19.69506">
        <ele>55.578748</ele>
        <time>2022-05-03T10:20:52.631Z</time>
      </trkpt>
      <trkpt lat="41.06144" lon="19.69495">
        <ele>55.491096</ele>
        <time>2022-05-03T10:20:54.636Z</time>
      </trkpt>
      <trkpt lat="41.06148" lon="19.69484">
        <ele>55.401726</ele>
        <time>2022-05-03T10:20:56.624Z</time>
      </trkpt>
      <trkpt lat="41.06152" lon="19.69473">
        <ele>55.314131</ele>
        <time>2022-05-03T10:20:58.625Z</time>
      </trkpt>
      <trkpt lat="41.06156" lon="19.69462">
        <ele>55.38756</ele>
        <time>2022-05-03T10:21:00.625Z</time>
      </trkpt>
      <trkpt lat="41.0616" lon="19.69451">
        <ele>55.55972</ele>
        <time>2022-05-03T10:21:02.628Z</time>
      </trkpt>
      <trkpt lat="41.06167" lon="19.69435">
        <ele>55.810734</ele>
        <time>2022-05-03T10:21:05.612Z</time>
      </trkpt>
      <trkpt lat="41.06171" lon="19.69425">
        <ele>55.978287</ele>
        <time>2022-05-03T10:21:07.618Z</time>
      </trkpt>
      <trkpt lat="41.06175" lon="19.69413">
        <ele>56.151794</ele>
        <time>2022-05-03T10:21:09.614Z</time>
      </trkpt>
      <trkpt lat="41.06179" lon="19.69402">
        <ele>56.333643</ele>
        <time>2022-05-03T10:21:11.616Z</time>
      </trkpt>
      <trkpt lat="41.06184" lon="19.6939">
        <ele>56.522135</ele>
        <time>2022-05-03T10:21:13.620Z</time>
      </trkpt>
      <trkpt lat="41.06188" lon="19.69378">
        <ele>56.706019</ele>
        <time>2022-05-03T10:21:15.628Z</time>
      </trkpt>
      <trkpt lat="41.06193" lon="19.69366">
        <ele>56.897069</ele>
        <time>2022-05-03T10:21:17.610Z</time>
      </trkpt>
      <trkpt lat="41.06198" lon="19.69354">
        <ele>57.088501</ele>
        <time>2022-05-03T10:21:19.634Z</time>
      </trkpt>
      <trkpt lat="41.06203" lon="19.69342">
        <ele>57.282236</ele>
        <time>2022-05-03T10:21:21.637Z</time>
      </trkpt>
      <trkpt lat="41.06208" lon="19.6933">
        <ele>57.476294</ele>
        <time>2022-05-03T10:21:23.672Z</time>
      </trkpt>
      <trkpt lat="41.06213" lon="19.69318">
        <ele>57.667583</ele>
        <time>2022-05-03T10:21:25.624Z</time>
      </trkpt>
      <trkpt lat="41.06218" lon="19.69306">
        <ele>57.866547</ele>
        <time>2022-05-03T10:21:27.624Z</time>
      </trkpt>
      <trkpt lat="41.06223" lon="19.69294">
        <ele>58.055401</ele>
        <time>2022-05-03T10:21:29.626Z</time>
      </trkpt>
      <trkpt lat="41.06228" lon="19.69283">
        <ele>58.243632</ele>
        <time>2022-05-03T10:21:31.627Z</time>
      </trkpt>
      <trkpt lat="41.06233" lon="19.69271">
        <ele>58.431553</ele>
        <time>2022-05-03T10:21:33.623Z</time>
      </trkpt>
      <trkpt lat="41.06238" lon="19.69259">
        <ele>58.625287</ele>
        <time>2022-05-03T10:21:35.642Z</time>
      </trkpt>
      <trkpt lat="41.06244" lon="19.69247">
        <ele>58.578137</ele>
        <time>2022-05-03T10:21:37.616Z</time>
      </trkpt>
      <trkpt lat="41.06249" lon="19.69235">
        <ele>58.520557</ele>
        <time>2022-05-03T10:21:39.688Z</time>
      </trkpt>
      <trkpt lat="41.06254" lon="19.69222">
        <ele>58.462057</ele>
        <time>2022-05-03T10:21:41.626Z</time>
      </trkpt>
      <trkpt lat="41.06259" lon="19.69209">
        <ele>58.402575</ele>
        <time>2022-05-03T10:21:43.615Z</time>
      </trkpt>
      <trkpt lat="41.06264" lon="19.69197">
        <ele>58.344011</ele>
        <time>2022-05-03T10:21:45.656Z</time>
      </trkpt>
      <trkpt lat="41.0627" lon="19.69184">
        <ele>58.28364</ele>
        <time>2022-05-03T10:21:47.631Z</time>
      </trkpt>
      <trkpt lat="41.06276" lon="19.69171">
        <ele>58.222298</ele>
        <time>2022-05-03T10:21:49.617Z</time>
      </trkpt>
      <trkpt lat="41.06281" lon="19.69158">
        <ele>58.160626</ele>
        <time>2022-05-03T10:21:51.658Z</time>
      </trkpt>
      <trkpt lat="41.06285" lon="19.69145">
        <ele>58.102368</ele>
        <time>2022-05-03T10:21:53.632Z</time>
      </trkpt>
      <trkpt lat="41.06291" lon="19.69132">
        <ele>58.040306</ele>
        <time>2022-05-03T10:21:55.616Z</time>
      </trkpt>
      <trkpt lat="41.06297" lon="19.69118">
        <ele>57.976376</ele>
        <time>2022-05-03T10:21:57.628Z</time>
      </trkpt>
      <trkpt lat="41.06303" lon="19.69105">
        <ele>57.912767</ele>
        <time>2022-05-03T10:21:59.622Z</time>
      </trkpt>
      <trkpt lat="41.06309" lon="19.69092">
        <ele>57.851762</ele>
        <time>2022-05-03T10:22:01.615Z</time>
      </trkpt>
      <trkpt lat="41.06314" lon="19.6908">
        <ele>57.791391</ele>
        <time>2022-05-03T10:22:03.624Z</time>
      </trkpt>
      <trkpt lat="41.06319" lon="19.69067">
        <ele>57.732273</ele>
        <time>2022-05-03T10:22:05.608Z</time>
      </trkpt>
      <trkpt lat="41.06325" lon="19.69054">
        <ele>57.672099</ele>
        <time>2022-05-03T10:22:07.634Z</time>
      </trkpt>
      <trkpt lat="41.06331" lon="19.69041">
        <ele>57.703686</ele>
        <time>2022-05-03T10:22:09.623Z</time>
      </trkpt>
      <trkpt lat="41.06336" lon="19.69028">
        <ele>57.773202</ele>
        <time>2022-05-03T10:22:11.624Z</time>
      </trkpt>
      <trkpt lat="41.06342" lon="19.69014">
        <ele>57.844087</ele>
        <time>2022-05-03T10:22:13.656Z</time>
      </trkpt>
      <trkpt lat="41.06348" lon="19.69">
        <ele>57.915553</ele>
        <time>2022-05-03T10:22:15.609Z</time>
      </trkpt>
      <trkpt lat="41.06354" lon="19.68987">
        <ele>57.985941</ele>
        <time>2022-05-03T10:22:17.617Z</time>
      </trkpt>
      <trkpt lat="41.0636" lon="19.68973">
        <ele>58.056235</ele>
        <time>2022-05-03T10:22:19.660Z</time>
      </trkpt>
      <trkpt lat="41.06366" lon="19.68959">
        <ele>58.128093</ele>
        <time>2022-05-03T10:22:21.617Z</time>
      </trkpt>
      <trkpt lat="41.06371" lon="19.68946">
        <ele>58.197308</ele>
        <time>2022-05-03T10:22:23.625Z</time>
      </trkpt>
      <trkpt lat="41.06377" lon="19.68933">
        <ele>58.265744</ele>
        <time>2022-05-03T10:22:25.616Z</time>
      </trkpt>
      <trkpt lat="41.06383" lon="19.6892">
        <ele>58.333018</ele>
        <time>2022-05-03T10:22:27.624Z</time>
      </trkpt>
      <trkpt lat="41.06389" lon="19.68907">
        <ele>58.401249</ele>
        <time>2022-05-03T10:22:29.636Z</time>
      </trkpt>
      <trkpt lat="41.06394" lon="19.68893">
        <ele>58.469583</ele>
        <time>2022-05-03T10:22:31.640Z</time>
      </trkpt>
      <trkpt lat="41.064" lon="19.6888">
        <ele>58.538313</ele>
        <time>2022-05-03T10:22:33.610Z</time>
      </trkpt>
      <trkpt lat="41.06406" lon="19.68867">
        <ele>58.606667</ele>
        <time>2022-05-03T10:22:35.639Z</time>
      </trkpt>
      <trkpt lat="41.06411" lon="19.68854">
        <ele>58.675291</ele>
        <time>2022-05-03T10:22:37.631Z</time>
      </trkpt>
      <trkpt lat="41.06417" lon="19.68841">
        <ele>58.724751</ele>
        <time>2022-05-03T10:22:39.663Z</time>
      </trkpt>
      <trkpt lat="41.06423" lon="19.68828">
        <ele>58.705554</ele>
        <time>2022-05-03T10:22:41.667Z</time>
      </trkpt>
      <trkpt lat="41.06429" lon="19.68815">
        <ele>58.686376</ele>
        <time>2022-05-03T10:22:43.625Z</time>
      </trkpt>
      <trkpt lat="41.06435" lon="19.68802">
        <ele>58.667461</ele>
        <time>2022-05-03T10:22:45.624Z</time>
      </trkpt>
      <trkpt lat="41.0644" lon="19.68789">
        <ele>58.648687</ele>
        <time>2022-05-03T10:22:47.612Z</time>
      </trkpt>
      <trkpt lat="41.06446" lon="19.68776">
        <ele>58.62972</ele>
        <time>2022-05-03T10:22:49.626Z</time>
      </trkpt>
      <trkpt lat="41.06451" lon="19.68763">
        <ele>58.61056</ele>
        <time>2022-05-03T10:22:51.634Z</time>
      </trkpt>
      <trkpt lat="41.06457" lon="19.6875">
        <ele>58.591288</ele>
        <time>2022-05-03T10:22:53.621Z</time>
      </trkpt>
      <trkpt lat="41.06462" lon="19.68737">
        <ele>58.572099</ele>
        <time>2022-05-03T10:22:55.622Z</time>
      </trkpt>
      <trkpt lat="41.06468" lon="19.68723">
        <ele>58.552909</ele>
        <time>2022-05-03T10:22:57.611Z</time>
      </trkpt>
      <trkpt lat="41.06473" lon="19.6871">
        <ele>58.534024</ele>
        <time>2022-05-03T10:22:59.623Z</time>
      </trkpt>
      <trkpt lat="41.06479" lon="19.68698">
        <ele>58.515694</ele>
        <time>2022-05-03T10:23:01.614Z</time>
      </trkpt>
      <trkpt lat="41.06484" lon="19.68685">
        <ele>58.496644</ele>
        <time>2022-05-03T10:23:03.628Z</time>
      </trkpt>
      <trkpt lat="41.0649" lon="19.68672">
        <ele>58.477509</ele>
        <time>2022-05-03T10:23:05.624Z</time>
      </trkpt>
      <trkpt lat="41.06496" lon="19.68659">
        <ele>58.458265</ele>
        <time>2022-05-03T10:23:07.621Z</time>
      </trkpt>
      <trkpt lat="41.06501" lon="19.68646">
        <ele>58.439157</ele>
        <time>2022-05-03T10:23:09.657Z</time>
      </trkpt>
      <trkpt lat="41.06507" lon="19.68632">
        <ele>58.361525</ele>
        <time>2022-05-03T10:23:11.604Z</time>
      </trkpt>
      <trkpt lat="41.06512" lon="19.68619">
        <ele>58.16049</ele>
        <time>2022-05-03T10:23:13.614Z</time>
      </trkpt>
      <trkpt lat="41.06518" lon="19.68606">
        <ele>57.964339</ele>
        <time>2022-05-03T10:23:15.619Z</time>
      </trkpt>
      <trkpt lat="41.06523" lon="19.68593">
        <ele>57.770188</ele>
        <time>2022-05-03T10:23:17.626Z</time>
      </trkpt>
      <trkpt lat="41.06529" lon="19.6858">
        <ele>57.57861</ele>
        <time>2022-05-03T10:23:19.618Z</time>
      </trkpt>
      <trkpt lat="41.06534" lon="19.68568">
        <ele>57.387607</ele>
        <time>2022-05-03T10:23:21.623Z</time>
      </trkpt>
      <trkpt lat="41.06539" lon="19.68555">
        <ele>57.203733</ele>
        <time>2022-05-03T10:23:23.625Z</time>
      </trkpt>
      <trkpt lat="41.06544" lon="19.68543">
        <ele>57.017318</ele>
        <time>2022-05-03T10:23:25.625Z</time>
      </trkpt>
      <trkpt lat="41.0655" lon="19.68531">
        <ele>56.83003</ele>
        <time>2022-05-03T10:23:27.630Z</time>
      </trkpt>
      <trkpt lat="41.06555" lon="19.68518">
        <ele>56.639028</ele>
        <time>2022-05-03T10:23:29.626Z</time>
      </trkpt>
      <trkpt lat="41.06561" lon="19.68505">
        <ele>56.441146</ele>
        <time>2022-05-03T10:23:31.652Z</time>
      </trkpt>
      <trkpt lat="41.06567" lon="19.68492">
        <ele>56.236074</ele>
        <time>2022-05-03T10:23:33.616Z</time>
      </trkpt>
      <trkpt lat="41.06572" lon="19.68479">
        <ele>56.037921</ele>
        <time>2022-05-03T10:23:35.634Z</time>
      </trkpt>
      <trkpt lat="41.06578" lon="19.68466">
        <ele>55.840912</ele>
        <time>2022-05-03T10:23:37.645Z</time>
      </trkpt>
      <trkpt lat="41.06584" lon="19.68453">
        <ele>55.64732</ele>
        <time>2022-05-03T10:23:39.618Z</time>
      </trkpt>
      <trkpt lat="41.06589" lon="19.6844">
        <ele>55.453728</ele>
        <time>2022-05-03T10:23:41.616Z</time>
      </trkpt>
      <trkpt lat="41.06595" lon="19.68427">
        <ele>55.272075</ele>
        <time>2022-05-03T10:23:43.611Z</time>
      </trkpt>
      <trkpt lat="41.066" lon="19.68415">
        <ele>55.178414</ele>
        <time>2022-05-03T10:23:45.621Z</time>
      </trkpt>
      <trkpt lat="41.06605" lon="19.68402">
        <ele>55.082033</ele>
        <time>2022-05-03T10:23:47.617Z</time>
      </trkpt>
      <trkpt lat="41.06611" lon="19.68388">
        <ele>54.981095</ele>
        <time>2022-05-03T10:23:49.618Z</time>
      </trkpt>
      <trkpt lat="41.06616" lon="19.68375">
        <ele>54.883146</ele>
        <time>2022-05-03T10:23:51.620Z</time>
      </trkpt>
      <trkpt lat="41.06622" lon="19.68363">
        <ele>54.788062</ele>
        <time>2022-05-03T10:23:53.631Z</time>
      </trkpt>
      <trkpt lat="41.06627" lon="19.6835">
        <ele>54.692407</ele>
        <time>2022-05-03T10:23:55.620Z</time>
      </trkpt>
      <trkpt lat="41.06633" lon="19.68337">
        <ele>54.597893</ele>
        <time>2022-05-03T10:23:57.620Z</time>
      </trkpt>
      <trkpt lat="41.06638" lon="19.68325">
        <ele>54.503357</ele>
        <time>2022-05-03T10:23:59.607Z</time>
      </trkpt>
      <trkpt lat="41.06644" lon="19.68313">
        <ele>54.408638</ele>
        <time>2022-05-03T10:24:01.625Z</time>
      </trkpt>
      <trkpt lat="41.06649" lon="19.683">
        <ele>54.313982</ele>
        <time>2022-05-03T10:24:03.636Z</time>
      </trkpt>
      <trkpt lat="41.06655" lon="19.68288">
        <ele>54.218177</ele>
        <time>2022-05-03T10:24:05.635Z</time>
      </trkpt>
      <trkpt lat="41.0666" lon="19.68275">
        <ele>54.121797</ele>
        <time>2022-05-03T10:24:07.620Z</time>
      </trkpt>
      <trkpt lat="41.06666" lon="19.68262">
        <ele>54.024001</ele>
        <time>2022-05-03T10:24:09.655Z</time>
      </trkpt>
      <trkpt lat="41.06671" lon="19.68249">
        <ele>53.925888</ele>
        <time>2022-05-03T10:24:11.673Z</time>
      </trkpt>
      <trkpt lat="41.06676" lon="19.68236">
        <ele>53.829234</ele>
        <time>2022-05-03T10:24:13.622Z</time>
      </trkpt>
      <trkpt lat="41.06681" lon="19.68223">
        <ele>53.732708</ele>
        <time>2022-05-03T10:24:15.653Z</time>
      </trkpt>
      <trkpt lat="41.06687" lon="19.6821">
        <ele>53.774251</ele>
        <time>2022-05-03T10:24:17.630Z</time>
      </trkpt>
      <trkpt lat="41.06692" lon="19.68196">
        <ele>53.835567</ele>
        <time>2022-05-03T10:24:19.614Z</time>
      </trkpt>
      <trkpt lat="41.06696" lon="19.68183">
        <ele>53.894926</ele>
        <time>2022-05-03T10:24:21.626Z</time>
      </trkpt>
      <trkpt lat="41.06701" lon="19.68169">
        <ele>53.955681</ele>
        <time>2022-05-03T10:24:23.639Z</time>
      </trkpt>
      <trkpt lat="41.06706" lon="19.68156">
        <ele>54.017485</ele>
        <time>2022-05-03T10:24:25.629Z</time>
      </trkpt>
      <trkpt lat="41.06711" lon="19.68142">
        <ele>54.079415</ele>
        <time>2022-05-03T10:24:27.614Z</time>
      </trkpt>
      <trkpt lat="41.06716" lon="19.68129">
        <ele>54.140985</ele>
        <time>2022-05-03T10:24:29.630Z</time>
      </trkpt>
      <trkpt lat="41.06722" lon="19.68115">
        <ele>54.20411</ele>
        <time>2022-05-03T10:24:31.683Z</time>
      </trkpt>
      <trkpt lat="41.06727" lon="19.68101">
        <ele>54.268206</ele>
        <time>2022-05-03T10:24:33.605Z</time>
      </trkpt>
      <trkpt lat="41.06732" lon="19.68087">
        <ele>54.331087</ele>
        <time>2022-05-03T10:24:35.625Z</time>
      </trkpt>
      <trkpt lat="41.06737" lon="19.68074">
        <ele>54.392587</ele>
        <time>2022-05-03T10:24:37.613Z</time>
      </trkpt>
      <trkpt lat="41.06742" lon="19.6806">
        <ele>54.453194</ele>
        <time>2022-05-03T10:24:39.627Z</time>
      </trkpt>
      <trkpt lat="41.06749" lon="19.68048">
        <ele>54.513754</ele>
        <time>2022-05-03T10:24:41.614Z</time>
      </trkpt>
      <trkpt lat="41.06759" lon="19.68041">
        <ele>54.575074</ele>
        <time>2022-05-03T10:24:43.657Z</time>
      </trkpt>
      <trkpt lat="41.0677" lon="19.68042">
        <ele>54.635249</ele>
        <time>2022-05-03T10:24:45.652Z</time>
      </trkpt>
      <trkpt lat="41.0678" lon="19.68046">
        <ele>54.691895</ele>
        <time>2022-05-03T10:24:47.621Z</time>
      </trkpt>
      <trkpt lat="41.0679" lon="19.68047">
        <ele>54.722759</ele>
        <time>2022-05-03T10:24:49.671Z</time>
      </trkpt>
      <trkpt lat="41.06799" lon="19.68039">
        <ele>54.752966</ele>
        <time>2022-05-03T10:24:51.625Z</time>
      </trkpt>
      <trkpt lat="41.06806" lon="19.68028">
        <ele>54.786177</ele>
        <time>2022-05-03T10:24:53.617Z</time>
      </trkpt>
      <trkpt lat="41.06814" lon="19.68017">
        <ele>54.820738</ele>
        <time>2022-05-03T10:24:55.630Z</time>
      </trkpt>
      <trkpt lat="41.06821" lon="19.68006">
        <ele>54.853585</ele>
        <time>2022-05-03T10:24:57.623Z</time>
      </trkpt>
      <trkpt lat="41.06828" lon="19.67995">
        <ele>54.886205</ele>
        <time>2022-05-03T10:24:59.623Z</time>
      </trkpt>
      <trkpt lat="41.06835" lon="19.67984">
        <ele>54.918995</ele>
        <time>2022-05-03T10:25:01.609Z</time>
      </trkpt>
      <trkpt lat="41.06842" lon="19.67973">
        <ele>54.951421</ele>
        <time>2022-05-03T10:25:03.622Z</time>
      </trkpt>
      <trkpt lat="41.06849" lon="19.67962">
        <ele>54.983656</ele>
        <time>2022-05-03T10:25:05.632Z</time>
      </trkpt>
      <trkpt lat="41.06856" lon="19.6795">
        <ele>55.016406</ele>
        <time>2022-05-03T10:25:07.612Z</time>
      </trkpt>
      <trkpt lat="41.06864" lon="19.67939">
        <ele>55.050226</ele>
        <time>2022-05-03T10:25:09.623Z</time>
      </trkpt>
      <trkpt lat="41.06871" lon="19.67927">
        <ele>55.083699</ele>
        <time>2022-05-03T10:25:11.627Z</time>
      </trkpt>
      <trkpt lat="41.06878" lon="19.67916">
        <ele>55.117022</ele>
        <time>2022-05-03T10:25:13.626Z</time>
      </trkpt>
      <trkpt lat="41.06885" lon="19.67904">
        <ele>55.150669</ele>
        <time>2022-05-03T10:25:15.618Z</time>
      </trkpt>
      <trkpt lat="41.06893" lon="19.67893">
        <ele>55.18511</ele>
        <time>2022-05-03T10:25:17.635Z</time>
      </trkpt>
      <trkpt lat="41.06901" lon="19.67882">
        <ele>55.218601</ele>
        <time>2022-05-03T10:25:19.628Z</time>
      </trkpt>
      <trkpt lat="41.06909" lon="19.67871">
        <ele>55.323165</ele>
        <time>2022-05-03T10:25:21.643Z</time>
      </trkpt>
      <trkpt lat="41.06916" lon="19.6786">
        <ele>55.459987</ele>
        <time>2022-05-03T10:25:23.646Z</time>
      </trkpt>
      <trkpt lat="41.06923" lon="19.67849">
        <ele>55.590062</ele>
        <time>2022-05-03T10:25:25.620Z</time>
      </trkpt>
      <trkpt lat="41.0693" lon="19.67838">
        <ele>55.715606</ele>
        <time>2022-05-03T10:25:27.606Z</time>
      </trkpt>
      <trkpt lat="41.06937" lon="19.67826">
        <ele>55.849821</ele>
        <time>2022-05-03T10:25:29.612Z</time>
      </trkpt>
      <trkpt lat="41.06944" lon="19.67816">
        <ele>55.975456</ele>
        <time>2022-05-03T10:25:31.613Z</time>
      </trkpt>
      <trkpt lat="41.0695" lon="19.67805">
        <ele>56.099709</ele>
        <time>2022-05-03T10:25:33.633Z</time>
      </trkpt>
      <trkpt lat="41.06957" lon="19.67794">
        <ele>56.221696</ele>
        <time>2022-05-03T10:25:35.632Z</time>
      </trkpt>
      <trkpt lat="41.06963" lon="19.67784">
        <ele>56.344386</ele>
        <time>2022-05-03T10:25:37.629Z</time>
      </trkpt>
      <trkpt lat="41.0697" lon="19.67773">
        <ele>56.465733</ele>
        <time>2022-05-03T10:25:39.661Z</time>
      </trkpt>
      <trkpt lat="41.06976" lon="19.67763">
        <ele>56.586578</ele>
        <time>2022-05-03T10:25:41.615Z</time>
      </trkpt>
      <trkpt lat="41.06982" lon="19.67753">
        <ele>56.701428</ele>
        <time>2022-05-03T10:25:43.626Z</time>
      </trkpt>
      <trkpt lat="41.06988" lon="19.67744">
        <ele>56.812684</ele>
        <time>2022-05-03T10:25:45.639Z</time>
      </trkpt>
      <trkpt lat="41.06994" lon="19.67734">
        <ele>56.924775</ele>
        <time>2022-05-03T10:25:47.615Z</time>
      </trkpt>
      <trkpt lat="41.07001" lon="19.67725">
        <ele>57.040013</ele>
        <time>2022-05-03T10:25:49.635Z</time>
      </trkpt>
      <trkpt lat="41.07007" lon="19.67715">
        <ele>57.152203</ele>
        <time>2022-05-03T10:25:51.619Z</time>
      </trkpt>
      <trkpt lat="41.07013" lon="19.67706">
        <ele>57.260795</ele>
        <time>2022-05-03T10:25:53.612Z</time>
      </trkpt>
      <trkpt lat="41.07022" lon="19.67693">
        <ele>57.39654</ele>
        <time>2022-05-03T10:25:56.618Z</time>
      </trkpt>
      <trkpt lat="41.0703" lon="19.6768">
        <ele>57.482349</ele>
        <time>2022-05-03T10:25:59.607Z</time>
      </trkpt>
      <trkpt lat="41.07039" lon="19.67667">
        <ele>57.56522</ele>
        <time>2022-05-03T10:26:02.634Z</time>
      </trkpt>
      <trkpt lat="41.07047" lon="19.67655">
        <ele>57.646998</ele>
        <time>2022-05-03T10:26:05.632Z</time>
      </trkpt>
      <trkpt lat="41.07055" lon="19.67642">
        <ele>57.727603</ele>
        <time>2022-05-03T10:26:08.604Z</time>
      </trkpt>
      <trkpt lat="41.07063" lon="19.6763">
        <ele>57.805484</ele>
        <time>2022-05-03T10:26:11.630Z</time>
      </trkpt>
      <trkpt lat="41.07071" lon="19.67618">
        <ele>57.885946</ele>
        <time>2022-05-03T10:26:14.633Z</time>
      </trkpt>
      <trkpt lat="41.07079" lon="19.67606">
        <ele>57.964802</ele>
        <time>2022-05-03T10:26:17.610Z</time>
      </trkpt>
      <trkpt lat="41.07087" lon="19.67594">
        <ele>58.042683</ele>
        <time>2022-05-03T10:26:20.627Z</time>
      </trkpt>
      <trkpt lat="41.07095" lon="19.67582">
        <ele>58.119502</ele>
        <time>2022-05-03T10:26:23.655Z</time>
      </trkpt>
      <trkpt lat="41.07102" lon="19.67569">
        <ele>58.198449</ele>
        <time>2022-05-03T10:26:26.625Z</time>
      </trkpt>
      <trkpt lat="41.0711" lon="19.67558">
        <ele>58.27558</ele>
        <time>2022-05-03T10:26:29.643Z</time>
      </trkpt>
      <trkpt lat="41.07118" lon="19.67546">
        <ele>58.354676</ele>
        <time>2022-05-03T10:26:32.617Z</time>
      </trkpt>
      <trkpt lat="41.07125" lon="19.67538">
        <ele>58.41435</ele>
        <time>2022-05-03T10:26:34.634Z</time>
      </trkpt>
      <trkpt lat="41.07132" lon="19.6753">
        <ele>58.474464</ele>
        <time>2022-05-03T10:26:36.642Z</time>
      </trkpt>
      <trkpt lat="41.07139" lon="19.67522">
        <ele>58.533169</ele>
        <time>2022-05-03T10:26:38.632Z</time>
      </trkpt>
      <trkpt lat="41.07146" lon="19.67514">
        <ele>58.664344</ele>
        <time>2022-05-03T10:26:40.655Z</time>
      </trkpt>
      <trkpt lat="41.07153" lon="19.67507">
        <ele>58.811571</ele>
        <time>2022-05-03T10:26:42.627Z</time>
      </trkpt>
      <trkpt lat="41.0716" lon="19.67499">
        <ele>58.965347</ele>
        <time>2022-05-03T10:26:44.637Z</time>
      </trkpt>
      <trkpt lat="41.07167" lon="19.67491">
        <ele>59.117429</ele>
        <time>2022-05-03T10:26:46.650Z</time>
      </trkpt>
      <trkpt lat="41.07174" lon="19.67483">
        <ele>59.263423</ele>
        <time>2022-05-03T10:26:48.620Z</time>
      </trkpt>
      <trkpt lat="41.07184" lon="19.67471">
        <ele>59.477939</ele>
        <time>2022-05-03T10:26:51.629Z</time>
      </trkpt>
      <trkpt lat="41.07194" lon="19.6746">
        <ele>59.694545</ele>
        <time>2022-05-03T10:26:54.627Z</time>
      </trkpt>
      <trkpt lat="41.07204" lon="19.67448">
        <ele>59.909062</ele>
        <time>2022-05-03T10:26:57.651Z</time>
      </trkpt>
      <trkpt lat="41.07213" lon="19.67437">
        <ele>60.103407</ele>
        <time>2022-05-03T10:27:00.622Z</time>
      </trkpt>
      <trkpt lat="41.07222" lon="19.67427">
        <ele>60.294854</ele>
        <time>2022-05-03T10:27:03.636Z</time>
      </trkpt>
      <trkpt lat="41.07231" lon="19.67417">
        <ele>60.494362</ele>
        <time>2022-05-03T10:27:06.616Z</time>
      </trkpt>
      <trkpt lat="41.07239" lon="19.67407">
        <ele>60.668206</ele>
        <time>2022-05-03T10:27:09.655Z</time>
      </trkpt>
      <trkpt lat="41.07247" lon="19.67397">
        <ele>60.844699</ele>
        <time>2022-05-03T10:27:12.606Z</time>
      </trkpt>
      <trkpt lat="41.07254" lon="19.67387">
        <ele>61.013768</ele>
        <time>2022-05-03T10:27:15.659Z</time>
      </trkpt>
      <trkpt lat="41.07261" lon="19.67376">
        <ele>61.186154</ele>
        <time>2022-05-03T10:27:18.622Z</time>
      </trkpt>
      <trkpt lat="41.07267" lon="19.67365">
        <ele>61.367022</ele>
        <time>2022-05-03T10:27:21.610Z</time>
      </trkpt>
      <trkpt lat="41.07273" lon="19.67351">
        <ele>61.497136</ele>
        <time>2022-05-03T10:27:24.625Z</time>
      </trkpt>
      <trkpt lat="41.07278" lon="19.67338">
        <ele>61.553095</ele>
        <time>2022-05-03T10:27:27.627Z</time>
      </trkpt>
      <trkpt lat="41.07283" lon="19.67324">
        <ele>61.612439</ele>
        <time>2022-05-03T10:27:30.628Z</time>
      </trkpt>
      <trkpt lat="41.0729" lon="19.6731">
        <ele>61.678334</ele>
        <time>2022-05-03T10:27:33.626Z</time>
      </trkpt>
      <trkpt lat="41.07296" lon="19.67295">
        <ele>61.745405</ele>
        <time>2022-05-03T10:27:36.635Z</time>
      </trkpt>
      <trkpt lat="41.07303" lon="19.6728">
        <ele>61.813126</ele>
        <time>2022-05-03T10:27:39.623Z</time>
      </trkpt>
      <trkpt lat="41.07309" lon="19.67265">
        <ele>61.88327</ele>
        <time>2022-05-03T10:27:42.619Z</time>
      </trkpt>
      <trkpt lat="41.07314" lon="19.67253">
        <ele>61.93305</ele>
        <time>2022-05-03T10:27:44.628Z</time>
      </trkpt>
      <trkpt lat="41.07318" lon="19.67242">
        <ele>61.982927</ele>
        <time>2022-05-03T10:27:46.628Z</time>
      </trkpt>
      <trkpt lat="41.07322" lon="19.67231">
        <ele>62.032793</ele>
        <time>2022-05-03T10:27:48.628Z</time>
      </trkpt>
      <trkpt lat="41.07326" lon="19.67219">
        <ele>62.083281</ele>
        <time>2022-05-03T10:27:50.630Z</time>
      </trkpt>
      <trkpt lat="41.07331" lon="19.67208">
        <ele>62.134202</ele>
        <time>2022-05-03T10:27:52.634Z</time>
      </trkpt>
      <trkpt lat="41.07336" lon="19.67196">
        <ele>62.186303</ele>
        <time>2022-05-03T10:27:54.617Z</time>
      </trkpt>
      <trkpt lat="41.0734" lon="19.67184">
        <ele>62.239448</ele>
        <time>2022-05-03T10:27:56.628Z</time>
      </trkpt>
      <trkpt lat="41.07345" lon="19.67172">
        <ele>62.292473</ele>
        <time>2022-05-03T10:27:58.622Z</time>
      </trkpt>
      <trkpt lat="41.07349" lon="19.6716">
        <ele>62.345269</ele>
        <time>2022-05-03T10:28:00.624Z</time>
      </trkpt>
      <trkpt lat="41.07354" lon="19.67148">
        <ele>62.39607</ele>
        <time>2022-05-03T10:28:02.618Z</time>
      </trkpt>
      <trkpt lat="41.07358" lon="19.67137">
        <ele>62.597026</ele>
        <time>2022-05-03T10:28:04.628Z</time>
      </trkpt>
      <trkpt lat="41.07362" lon="19.67126">
        <ele>62.814123</ele>
        <time>2022-05-03T10:28:06.671Z</time>
      </trkpt>
      <trkpt lat="41.07365" lon="19.67115">
        <ele>63.026609</ele>
        <time>2022-05-03T10:28:08.620Z</time>
      </trkpt>
      <trkpt lat="41.0737" lon="19.67104">
        <ele>63.239477</ele>
        <time>2022-05-03T10:28:10.624Z</time>
      </trkpt>
      <trkpt lat="41.07374" lon="19.67093">
        <ele>63.465701</ele>
        <time>2022-05-03T10:28:12.613Z</time>
      </trkpt>
      <trkpt lat="41.07377" lon="19.67081">
        <ele>63.68236</ele>
        <time>2022-05-03T10:28:14.615Z</time>
      </trkpt>
      <trkpt lat="41.07385" lon="19.67067">
        <ele>64.005244</ele>
        <time>2022-05-03T10:28:17.648Z</time>
      </trkpt>
      <trkpt lat="41.07391" lon="19.67054">
        <ele>64.271956</ele>
        <time>2022-05-03T10:28:19.640Z</time>
      </trkpt>
      <trkpt lat="41.07397" lon="19.67039">
        <ele>64.563545</ele>
        <time>2022-05-03T10:28:21.622Z</time>
      </trkpt>
      <trkpt lat="41.07403" lon="19.67026">
        <ele>64.840657</ele>
        <time>2022-05-03T10:28:23.625Z</time>
      </trkpt>
      <trkpt lat="41.07408" lon="19.67011">
        <ele>65.123784</ele>
        <time>2022-05-03T10:28:25.630Z</time>
      </trkpt>
      <trkpt lat="41.07413" lon="19.66997">
        <ele>65.40957</ele>
        <time>2022-05-03T10:28:27.622Z</time>
      </trkpt>
      <trkpt lat="41.07419" lon="19.66983">
        <ele>65.689077</ele>
        <time>2022-05-03T10:28:29.632Z</time>
      </trkpt>
      <trkpt lat="41.07425" lon="19.66969">
        <ele>65.97282</ele>
        <time>2022-05-03T10:28:31.632Z</time>
      </trkpt>
      <trkpt lat="41.0743" lon="19.66954">
        <ele>66.257212</ele>
        <time>2022-05-03T10:28:33.628Z</time>
      </trkpt>
      <trkpt lat="41.07434" lon="19.6694">
        <ele>66.536206</ele>
        <time>2022-05-03T10:28:35.624Z</time>
      </trkpt>
      <trkpt lat="41.07439" lon="19.66925">
        <ele>66.719543</ele>
        <time>2022-05-03T10:28:37.622Z</time>
      </trkpt>
      <trkpt lat="41.07444" lon="19.66913">
        <ele>66.842496</ele>
        <time>2022-05-03T10:28:39.652Z</time>
      </trkpt>
      <trkpt lat="41.07449" lon="19.66901">
        <ele>66.960521</ele>
        <time>2022-05-03T10:28:41.624Z</time>
      </trkpt>
      <trkpt lat="41.07453" lon="19.66889">
        <ele>67.079856</ele>
        <time>2022-05-03T10:28:43.611Z</time>
      </trkpt>
      <trkpt lat="41.07458" lon="19.66876">
        <ele>67.203303</ele>
        <time>2022-05-03T10:28:45.619Z</time>
      </trkpt>
      <trkpt lat="41.07463" lon="19.66864">
        <ele>67.320187</ele>
        <time>2022-05-03T10:28:47.628Z</time>
      </trkpt>
      <trkpt lat="41.07468" lon="19.66853">
        <ele>67.43054</ele>
        <time>2022-05-03T10:28:49.640Z</time>
      </trkpt>
      <trkpt lat="41.07472" lon="19.66841">
        <ele>67.545765</ele>
        <time>2022-05-03T10:28:51.617Z</time>
      </trkpt>
      <trkpt lat="41.07476" lon="19.66829">
        <ele>67.657895</ele>
        <time>2022-05-03T10:28:53.621Z</time>
      </trkpt>
      <trkpt lat="41.0748" lon="19.66818">
        <ele>67.762127</ele>
        <time>2022-05-03T10:28:55.624Z</time>
      </trkpt>
      <trkpt lat="41.07483" lon="19.66807">
        <ele>67.866384</ele>
        <time>2022-05-03T10:28:57.618Z</time>
      </trkpt>
      <trkpt lat="41.07486" lon="19.66795">
        <ele>67.973049</ele>
        <time>2022-05-03T10:28:59.615Z</time>
      </trkpt>
      <trkpt lat="41.07489" lon="19.66782">
        <ele>68.087306</ele>
        <time>2022-05-03T10:29:01.662Z</time>
      </trkpt>
      <trkpt lat="41.07493" lon="19.66771">
        <ele>68.192441</ele>
        <time>2022-05-03T10:29:03.625Z</time>
      </trkpt>
      <trkpt lat="41.07498" lon="19.66756">
        <ele>68.335316</ele>
        <time>2022-05-03T10:29:06.633Z</time>
      </trkpt>
      <trkpt lat="41.07502" lon="19.66743">
        <ele>68.455067</ele>
        <time>2022-05-03T10:29:09.645Z</time>
      </trkpt>
      <trkpt lat="41.07508" lon="19.6673">
        <ele>68.588559</ele>
        <time>2022-05-03T10:29:12.618Z</time>
      </trkpt>
      <trkpt lat="41.07513" lon="19.66717">
        <ele>68.701122</ele>
        <time>2022-05-03T10:29:15.638Z</time>
      </trkpt>
      <trkpt lat="41.07518" lon="19.66704">
        <ele>68.752026</ele>
        <time>2022-05-03T10:29:18.658Z</time>
      </trkpt>
      <trkpt lat="41.07526" lon="19.66691">
        <ele>68.812461</ele>
        <time>2022-05-03T10:29:21.623Z</time>
      </trkpt>
      <trkpt lat="41.07531" lon="19.6668">
        <ele>68.854307</ele>
        <time>2022-05-03T10:29:23.632Z</time>
      </trkpt>
      <trkpt lat="41.07535" lon="19.66668">
        <ele>68.901335</ele>
        <time>2022-05-03T10:29:26.636Z</time>
      </trkpt>
      <trkpt lat="41.07539" lon="19.66655">
        <ele>68.952165</ele>
        <time>2022-05-03T10:29:30.605Z</time>
      </trkpt>
      <trkpt lat="41.07543" lon="19.66644">
        <ele>68.994244</ele>
        <time>2022-05-03T10:29:33.629Z</time>
      </trkpt>
      <trkpt lat="41.07547" lon="19.66633">
        <ele>69.035381</ele>
        <time>2022-05-03T10:29:36.609Z</time>
      </trkpt>
      <trkpt lat="41.07551" lon="19.66621">
        <ele>69.082371</ele>
        <time>2022-05-03T10:29:39.623Z</time>
      </trkpt>
      <trkpt lat="41.07557" lon="19.66607">
        <ele>69.135407</ele>
        <time>2022-05-03T10:29:43.619Z</time>
      </trkpt>
      <trkpt lat="41.07562" lon="19.66595">
        <ele>69.183781</ele>
        <time>2022-05-03T10:29:48.638Z</time>
      </trkpt>
      <trkpt lat="41.07567" lon="19.6658">
        <ele>69.239906</ele>
        <time>2022-05-03T10:29:52.622Z</time>
      </trkpt>
      <trkpt lat="41.07572" lon="19.66569">
        <ele>69.28741</ele>
        <time>2022-05-03T10:29:55.629Z</time>
      </trkpt>
      <trkpt lat="41.07579" lon="19.66556">
        <ele>69.341752</ele>
        <time>2022-05-03T10:29:58.617Z</time>
      </trkpt>
      <trkpt lat="41.07585" lon="19.66543">
        <ele>69.3931</ele>
        <time>2022-05-03T10:30:01.607Z</time>
      </trkpt>
      <trkpt lat="41.0759" lon="19.66529">
        <ele>69.448119</ele>
        <time>2022-05-03T10:30:04.613Z</time>
      </trkpt>
      <trkpt lat="41.07594" lon="19.66514">
        <ele>69.503274</ele>
        <time>2022-05-03T10:30:07.622Z</time>
      </trkpt>
      <trkpt lat="41.07599" lon="19.66497">
        <ele>69.297953</ele>
        <time>2022-05-03T10:30:10.627Z</time>
      </trkpt>
      <trkpt lat="41.07603" lon="19.66485">
        <ele>69.060112</ele>
        <time>2022-05-03T10:30:12.625Z</time>
      </trkpt>
      <trkpt lat="41.07607" lon="19.66473">
        <ele>68.842558</ele>
        <time>2022-05-03T10:30:14.623Z</time>
      </trkpt>
      <trkpt lat="41.07611" lon="19.66462">
        <ele>68.619973</ele>
        <time>2022-05-03T10:30:16.600Z</time>
      </trkpt>
      <trkpt lat="41.07616" lon="19.6645">
        <ele>68.38502</ele>
        <time>2022-05-03T10:30:18.657Z</time>
      </trkpt>
      <trkpt lat="41.07621" lon="19.66439">
        <ele>68.162972</ele>
        <time>2022-05-03T10:30:20.632Z</time>
      </trkpt>
      <trkpt lat="41.07625" lon="19.66428">
        <ele>67.942307</ele>
        <time>2022-05-03T10:30:22.618Z</time>
      </trkpt>
      <trkpt lat="41.07629" lon="19.66416">
        <ele>67.717121</ele>
        <time>2022-05-03T10:30:24.665Z</time>
      </trkpt>
      <trkpt lat="41.07634" lon="19.66405">
        <ele>67.49871</ele>
        <time>2022-05-03T10:30:26.629Z</time>
      </trkpt>
      <trkpt lat="41.07638" lon="19.66394">
        <ele>67.275751</ele>
        <time>2022-05-03T10:30:28.609Z</time>
      </trkpt>
      <trkpt lat="41.07644" lon="19.66383">
        <ele>67.045662</ele>
        <time>2022-05-03T10:30:31.632Z</time>
      </trkpt>
      <trkpt lat="41.07647" lon="19.66369">
        <ele>66.786922</ele>
        <time>2022-05-03T10:30:36.615Z</time>
      </trkpt>
      <trkpt lat="41.07651" lon="19.66357">
        <ele>66.56199</ele>
        <time>2022-05-03T10:30:39.596Z</time>
      </trkpt>
      <trkpt lat="41.07657" lon="19.66345">
        <ele>66.298506</ele>
        <time>2022-05-03T10:30:42.644Z</time>
      </trkpt>
      <trkpt lat="41.07663" lon="19.66332">
        <ele>66.033278</ele>
        <time>2022-05-03T10:30:45.603Z</time>
      </trkpt>
      <trkpt lat="41.07668" lon="19.66322">
        <ele>65.82316</ele>
        <time>2022-05-03T10:30:47.623Z</time>
      </trkpt>
      <trkpt lat="41.07674" lon="19.66312">
        <ele>65.605701</ele>
        <time>2022-05-03T10:30:49.626Z</time>
      </trkpt>
      <trkpt lat="41.07677" lon="19.66301">
        <ele>65.391194</ele>
        <time>2022-05-03T10:30:51.658Z</time>
      </trkpt>
      <trkpt lat="41.07682" lon="19.66289">
        <ele>65.202852</ele>
        <time>2022-05-03T10:30:53.618Z</time>
      </trkpt>
      <trkpt lat="41.07687" lon="19.66276">
        <ele>65.002356</ele>
        <time>2022-05-03T10:30:55.624Z</time>
      </trkpt>
      <trkpt lat="41.07691" lon="19.66264">
        <ele>64.818603</ele>
        <time>2022-05-03T10:30:57.667Z</time>
      </trkpt>
      <trkpt lat="41.07696" lon="19.66252">
        <ele>64.638867</ele>
        <time>2022-05-03T10:30:59.627Z</time>
      </trkpt>
      <trkpt lat="41.077" lon="19.66241">
        <ele>64.464085</ele>
        <time>2022-05-03T10:31:01.630Z</time>
      </trkpt>
      <trkpt lat="41.07705" lon="19.6623">
        <ele>64.297586</ele>
        <time>2022-05-03T10:31:03.654Z</time>
      </trkpt>
      <trkpt lat="41.0771" lon="19.66219">
        <ele>64.129603</ele>
        <time>2022-05-03T10:31:05.622Z</time>
      </trkpt>
      <trkpt lat="41.07715" lon="19.66203">
        <ele>63.899224</ele>
        <time>2022-05-03T10:31:08.622Z</time>
      </trkpt>
      <trkpt lat="41.0772" lon="19.66189">
        <ele>63.674116</ele>
        <time>2022-05-03T10:31:11.629Z</time>
      </trkpt>
      <trkpt lat="41.07728" lon="19.66173">
        <ele>63.433559</ele>
        <time>2022-05-03T10:31:14.619Z</time>
      </trkpt>
      <trkpt lat="41.07732" lon="19.66162">
        <ele>63.261758</ele>
        <time>2022-05-03T10:31:16.614Z</time>
      </trkpt>
      <trkpt lat="41.07737" lon="19.66151">
        <ele>63.090207</ele>
        <time>2022-05-03T10:31:18.637Z</time>
      </trkpt>
      <trkpt lat="41.07742" lon="19.6614">
        <ele>62.912825</ele>
        <time>2022-05-03T10:31:20.674Z</time>
      </trkpt>
      <trkpt lat="41.07746" lon="19.66129">
        <ele>62.738376</ele>
        <time>2022-05-03T10:31:22.634Z</time>
      </trkpt>
      <trkpt lat="41.07751" lon="19.66118">
        <ele>62.571577</ele>
        <time>2022-05-03T10:31:24.623Z</time>
      </trkpt>
      <trkpt lat="41.07755" lon="19.66107">
        <ele>62.405287</ele>
        <time>2022-05-03T10:31:26.644Z</time>
      </trkpt>
      <trkpt lat="41.0776" lon="19.66096">
        <ele>62.234378</ele>
        <time>2022-05-03T10:31:28.625Z</time>
      </trkpt>
      <trkpt lat="41.07764" lon="19.66085">
        <ele>62.109756</ele>
        <time>2022-05-03T10:31:30.616Z</time>
      </trkpt>
      <trkpt lat="41.07768" lon="19.6607">
        <ele>62.097927</ele>
        <time>2022-05-03T10:31:33.632Z</time>
      </trkpt>
      <trkpt lat="41.07773" lon="19.66054">
        <ele>62.08533</ele>
        <time>2022-05-03T10:31:36.627Z</time>
      </trkpt>
      <trkpt lat="41.07777" lon="19.66044">
        <ele>62.076449</ele>
        <time>2022-05-03T10:31:38.627Z</time>
      </trkpt>
      <trkpt lat="41.07783" lon="19.66028">
        <ele>62.063468</ele>
        <time>2022-05-03T10:31:41.624Z</time>
      </trkpt>
      <trkpt lat="41.07789" lon="19.66013">
        <ele>62.050402</ele>
        <time>2022-05-03T10:31:44.618Z</time>
      </trkpt>
      <trkpt lat="41.07795" lon="19.65998">
        <ele>62.038055</ele>
        <time>2022-05-03T10:31:47.618Z</time>
      </trkpt>
      <trkpt lat="41.07802" lon="19.65983">
        <ele>62.025062</ele>
        <time>2022-05-03T10:31:50.626Z</time>
      </trkpt>
      <trkpt lat="41.07808" lon="19.65968">
        <ele>62.012193</ele>
        <time>2022-05-03T10:31:53.612Z</time>
      </trkpt>
      <trkpt lat="41.07814" lon="19.65952">
        <ele>61.999348</ele>
        <time>2022-05-03T10:31:56.630Z</time>
      </trkpt>
      <trkpt lat="41.07818" lon="19.65936">
        <ele>61.986442</ele>
        <time>2022-05-03T10:31:59.659Z</time>
      </trkpt>
      <trkpt lat="41.07824" lon="19.65921">
        <ele>61.973886</ele>
        <time>2022-05-03T10:32:02.639Z</time>
      </trkpt>
      <trkpt lat="41.07829" lon="19.65907">
        <ele>61.962734</ele>
        <time>2022-05-03T10:32:05.625Z</time>
      </trkpt>
      <trkpt lat="41.07835" lon="19.65894">
        <ele>61.950964</ele>
        <time>2022-05-03T10:32:08.620Z</time>
      </trkpt>
      <trkpt lat="41.0784" lon="19.65882">
        <ele>61.940414</ele>
        <time>2022-05-03T10:32:11.631Z</time>
      </trkpt>
      <trkpt lat="41.07846" lon="19.65867">
        <ele>61.86865</ele>
        <time>2022-05-03T10:32:14.631Z</time>
      </trkpt>
      <trkpt lat="41.07851" lon="19.65852">
        <ele>61.730871</ele>
        <time>2022-05-03T10:32:17.634Z</time>
      </trkpt>
      <trkpt lat="41.07855" lon="19.65839">
        <ele>61.610901</ele>
        <time>2022-05-03T10:32:20.625Z</time>
      </trkpt>
      <trkpt lat="41.0786" lon="19.65823">
        <ele>61.469648</ele>
        <time>2022-05-03T10:32:23.630Z</time>
      </trkpt>
      <trkpt lat="41.07864" lon="19.65812">
        <ele>61.363552</ele>
        <time>2022-05-03T10:32:25.619Z</time>
      </trkpt>
      <trkpt lat="41.07869" lon="19.65801">
        <ele>61.259697</ele>
        <time>2022-05-03T10:32:27.628Z</time>
      </trkpt>
      <trkpt lat="41.07873" lon="19.65789">
        <ele>61.150414</ele>
        <time>2022-05-03T10:32:29.620Z</time>
      </trkpt>
      <trkpt lat="41.07877" lon="19.65778">
        <ele>61.049459</ele>
        <time>2022-05-03T10:32:31.630Z</time>
      </trkpt>
      <trkpt lat="41.07882" lon="19.65762">
        <ele>60.909267</ele>
        <time>2022-05-03T10:32:34.620Z</time>
      </trkpt>
      <trkpt lat="41.07888" lon="19.65746">
        <ele>60.761502</ele>
        <time>2022-05-03T10:32:37.623Z</time>
      </trkpt>
      <trkpt lat="41.07891" lon="19.65734">
        <ele>60.657263</ele>
        <time>2022-05-03T10:32:39.654Z</time>
      </trkpt>
      <trkpt lat="41.07894" lon="19.65722">
        <ele>60.554662</ele>
        <time>2022-05-03T10:32:41.615Z</time>
      </trkpt>
      <trkpt lat="41.07898" lon="19.65706">
        <ele>60.409306</ele>
        <time>2022-05-03T10:32:44.628Z</time>
      </trkpt>
      <trkpt lat="41.07901" lon="19.65689">
        <ele>60.266856</ele>
        <time>2022-05-03T10:32:47.655Z</time>
      </trkpt>
      <trkpt lat="41.07904" lon="19.65672">
        <ele>60.126674</ele>
        <time>2022-05-03T10:32:50.645Z</time>
      </trkpt>
      <trkpt lat="41.07906" lon="19.65656">
        <ele>59.985889</ele>
        <time>2022-05-03T10:32:53.650Z</time>
      </trkpt>
      <trkpt lat="41.07908" lon="19.65644">
        <ele>60.040896</ele>
        <time>2022-05-03T10:32:55.630Z</time>
      </trkpt>
      <trkpt lat="41.0791" lon="19.65627">
        <ele>60.200315</ele>
        <time>2022-05-03T10:32:58.623Z</time>
      </trkpt>
      <trkpt lat="41.07912" lon="19.6561">
        <ele>60.366579</ele>
        <time>2022-05-03T10:33:01.625Z</time>
      </trkpt>
      <trkpt lat="41.07914" lon="19.65593">
        <ele>60.527926</ele>
        <time>2022-05-03T10:33:04.634Z</time>
      </trkpt>
      <trkpt lat="41.07916" lon="19.65577">
        <ele>60.676415</ele>
        <time>2022-05-03T10:33:07.627Z</time>
      </trkpt>
      <trkpt lat="41.07917" lon="19.65562">
        <ele>60.823805</ele>
        <time>2022-05-03T10:33:10.624Z</time>
      </trkpt>
      <trkpt lat="41.07919" lon="19.65546">
        <ele>60.974652</ele>
        <time>2022-05-03T10:33:13.668Z</time>
      </trkpt>
      <trkpt lat="41.07922" lon="19.6553">
        <ele>61.133249</ele>
        <time>2022-05-03T10:33:16.625Z</time>
      </trkpt>
      <trkpt lat="41.07924" lon="19.65514">
        <ele>61.287355</ele>
        <time>2022-05-03T10:33:19.623Z</time>
      </trkpt>
      <trkpt lat="41.07926" lon="19.65497">
        <ele>61.444782</ele>
        <time>2022-05-03T10:33:22.654Z</time>
      </trkpt>
      <trkpt lat="41.07929" lon="19.65481">
        <ele>61.598646</ele>
        <time>2022-05-03T10:33:25.618Z</time>
      </trkpt>
      <trkpt lat="41.0793" lon="19.65465">
        <ele>61.74955</ele>
        <time>2022-05-03T10:33:28.614Z</time>
      </trkpt>
      <trkpt lat="41.07932" lon="19.65449">
        <ele>61.908711</ele>
        <time>2022-05-03T10:33:31.632Z</time>
      </trkpt>
      <trkpt lat="41.07933" lon="19.65432">
        <ele>62.064845</ele>
        <time>2022-05-03T10:33:34.613Z</time>
      </trkpt>
      <trkpt lat="41.07936" lon="19.65417">
        <ele>62.209395</ele>
        <time>2022-05-03T10:33:37.617Z</time>
      </trkpt>
      <trkpt lat="41.07935" lon="19.65401">
        <ele>62.231681</ele>
        <time>2022-05-03T10:33:40.650Z</time>
      </trkpt>
      <trkpt lat="41.07935" lon="19.65383">
        <ele>62.25682</ele>
        <time>2022-05-03T10:33:43.626Z</time>
      </trkpt>
      <trkpt lat="41.07934" lon="19.6537">
        <ele>62.273834</ele>
        <time>2022-05-03T10:33:45.630Z</time>
      </trkpt>
      <trkpt lat="41.07933" lon="19.65355">
        <ele>62.295556</ele>
        <time>2022-05-03T10:33:48.617Z</time>
      </trkpt>
      <trkpt lat="41.0793" lon="19.6534">
        <ele>62.316505</ele>
        <time>2022-05-03T10:33:51.616Z</time>
      </trkpt>
      <trkpt lat="41.07927" lon="19.65325">
        <ele>62.337313</ele>
        <time>2022-05-03T10:33:54.618Z</time>
      </trkpt>
      <trkpt lat="41.07924" lon="19.65312">
        <ele>62.357483</ele>
        <time>2022-05-03T10:33:57.665Z</time>
      </trkpt>
      <trkpt lat="41.07919" lon="19.65298">
        <ele>62.378178</ele>
        <time>2022-05-03T10:34:00.623Z</time>
      </trkpt>
      <trkpt lat="41.07913" lon="19.65284">
        <ele>62.399583</ele>
        <time>2022-05-03T10:34:03.611Z</time>
      </trkpt>
      <trkpt lat="41.07907" lon="19.65271">
        <ele>62.421468</ele>
        <time>2022-05-03T10:34:06.612Z</time>
      </trkpt>
      <trkpt lat="41.07901" lon="19.65256">
        <ele>62.444163</ele>
        <time>2022-05-03T10:34:09.617Z</time>
      </trkpt>
      <trkpt lat="41.07896" lon="19.65242">
        <ele>62.466092</ele>
        <time>2022-05-03T10:34:12.613Z</time>
      </trkpt>
      <trkpt lat="41.07891" lon="19.65228">
        <ele>62.487568</ele>
        <time>2022-05-03T10:34:15.630Z</time>
      </trkpt>
      <trkpt lat="41.07886" lon="19.65214">
        <ele>62.50917</ele>
        <time>2022-05-03T10:34:18.622Z</time>
      </trkpt>
      <trkpt lat="41.07881" lon="19.65199">
        <ele>62.531983</ele>
        <time>2022-05-03T10:34:21.626Z</time>
      </trkpt>
      <trkpt lat="41.07876" lon="19.65182">
        <ele>62.368815</ele>
        <time>2022-05-03T10:34:24.633Z</time>
      </trkpt>
      <trkpt lat="41.07873" lon="19.6517">
        <ele>62.203409</ele>
        <time>2022-05-03T10:34:26.666Z</time>
      </trkpt>
      <trkpt lat="41.07869" lon="19.65158">
        <ele>62.033729</ele>
        <time>2022-05-03T10:34:28.648Z</time>
      </trkpt>
      <trkpt lat="41.07866" lon="19.65146">
        <ele>61.860389</ele>
        <time>2022-05-03T10:34:30.625Z</time>
      </trkpt>
      <trkpt lat="41.07863" lon="19.65132">
        <ele>61.675795</ele>
        <time>2022-05-03T10:34:32.626Z</time>
      </trkpt>
      <trkpt lat="41.0786" lon="19.65118">
        <ele>61.49106</ele>
        <time>2022-05-03T10:34:34.638Z</time>
      </trkpt>
      <trkpt lat="41.07858" lon="19.65104">
        <ele>61.303912</ele>
        <time>2022-05-03T10:34:36.626Z</time>
      </trkpt>
      <trkpt lat="41.07857" lon="19.6509">
        <ele>61.114049</ele>
        <time>2022-05-03T10:34:38.614Z</time>
      </trkpt>
      <trkpt lat="41.07855" lon="19.65075">
        <ele>60.922073</ele>
        <time>2022-05-03T10:34:40.609Z</time>
      </trkpt>
      <trkpt lat="41.07854" lon="19.65061">
        <ele>60.738639</ele>
        <time>2022-05-03T10:34:42.617Z</time>
      </trkpt>
      <trkpt lat="41.07854" lon="19.65047">
        <ele>60.545309</ele>
        <time>2022-05-03T10:34:44.627Z</time>
      </trkpt>
      <trkpt lat="41.07853" lon="19.65032">
        <ele>60.350923</ele>
        <time>2022-05-03T10:34:46.628Z</time>
      </trkpt>
      <trkpt lat="41.07852" lon="19.65016">
        <ele>60.15157</ele>
        <time>2022-05-03T10:34:48.616Z</time>
      </trkpt>
      <trkpt lat="41.0785" lon="19.65002">
        <ele>59.963751</ele>
        <time>2022-05-03T10:34:50.616Z</time>
      </trkpt>
      <trkpt lat="41.07849" lon="19.64988">
        <ele>59.780829</ele>
        <time>2022-05-03T10:34:52.621Z</time>
      </trkpt>
      <trkpt lat="41.07847" lon="19.64975">
        <ele>59.60201</ele>
        <time>2022-05-03T10:34:54.707Z</time>
      </trkpt>
      <trkpt lat="41.07846" lon="19.64961">
        <ele>59.41902</ele>
        <time>2022-05-03T10:34:56.623Z</time>
      </trkpt>
      <trkpt lat="41.07844" lon="19.64947">
        <ele>59.259954</ele>
        <time>2022-05-03T10:34:58.630Z</time>
      </trkpt>
      <trkpt lat="41.07842" lon="19.64932">
        <ele>59.093748</ele>
        <time>2022-05-03T10:35:00.623Z</time>
      </trkpt>
      <trkpt lat="41.0784" lon="19.64917">
        <ele>58.916847</ele>
        <time>2022-05-03T10:35:02.623Z</time>
      </trkpt>
      <trkpt lat="41.07837" lon="19.64901">
        <ele>58.742971</ele>
        <time>2022-05-03T10:35:04.613Z</time>
      </trkpt>
      <trkpt lat="41.07835" lon="19.64886">
        <ele>58.568516</ele>
        <time>2022-05-03T10:35:06.633Z</time>
      </trkpt>
      <trkpt lat="41.07833" lon="19.6487">
        <ele>58.388593</ele>
        <time>2022-05-03T10:35:08.617Z</time>
      </trkpt>
      <trkpt lat="41.0783" lon="19.64855">
        <ele>58.211426</ele>
        <time>2022-05-03T10:35:10.623Z</time>
      </trkpt>
      <trkpt lat="41.07828" lon="19.6484">
        <ele>58.043577</ele>
        <time>2022-05-03T10:35:12.619Z</time>
      </trkpt>
      <trkpt lat="41.07826" lon="19.64825">
        <ele>57.878281</ele>
        <time>2022-05-03T10:35:14.631Z</time>
      </trkpt>
      <trkpt lat="41.07823" lon="19.64811">
        <ele>57.715497</ele>
        <time>2022-05-03T10:35:16.631Z</time>
      </trkpt>
      <trkpt lat="41.07821" lon="19.64798">
        <ele>57.567171</ele>
        <time>2022-05-03T10:35:18.616Z</time>
      </trkpt>
      <trkpt lat="41.07816" lon="19.64781">
        <ele>57.366036</ele>
        <time>2022-05-03T10:35:21.629Z</time>
      </trkpt>
      <trkpt lat="41.07812" lon="19.64766">
        <ele>57.181602</ele>
        <time>2022-05-03T10:35:24.664Z</time>
      </trkpt>
      <trkpt lat="41.07807" lon="19.64751">
        <ele>56.996469</ele>
        <time>2022-05-03T10:35:27.623Z</time>
      </trkpt>
      <trkpt lat="41.07802" lon="19.64736">
        <ele>56.8125</ele>
        <time>2022-05-03T10:35:30.638Z</time>
      </trkpt>
      <trkpt lat="41.07796" lon="19.6472">
        <ele>56.79906</ele>
        <time>2022-05-03T10:35:33.611Z</time>
      </trkpt>
      <trkpt lat="41.0779" lon="19.64704">
        <ele>56.84921</ele>
        <time>2022-05-03T10:35:36.630Z</time>
      </trkpt>
      <trkpt lat="41.07787" lon="19.64693">
        <ele>56.883563</ele>
        <time>2022-05-03T10:35:38.609Z</time>
      </trkpt>
      <trkpt lat="41.07782" lon="19.64681">
        <ele>56.918489</ele>
        <time>2022-05-03T10:35:40.624Z</time>
      </trkpt>
      <trkpt lat="41.07778" lon="19.64671">
        <ele>56.952927</ele>
        <time>2022-05-03T10:35:42.611Z</time>
      </trkpt>
      <trkpt lat="41.07774" lon="19.6466">
        <ele>56.987859</ele>
        <time>2022-05-03T10:35:44.627Z</time>
      </trkpt>
      <trkpt lat="41.07769" lon="19.64649">
        <ele>57.022369</ele>
        <time>2022-05-03T10:35:46.614Z</time>
      </trkpt>
      <trkpt lat="41.07765" lon="19.64638">
        <ele>57.056068</ele>
        <time>2022-05-03T10:35:48.626Z</time>
      </trkpt>
      <trkpt lat="41.07761" lon="19.64627">
        <ele>57.090578</ele>
        <time>2022-05-03T10:35:50.630Z</time>
      </trkpt>
      <trkpt lat="41.07756" lon="19.64617">
        <ele>57.124278</ele>
        <time>2022-05-03T10:35:52.662Z</time>
      </trkpt>
      <trkpt lat="41.07752" lon="19.64606">
        <ele>57.158533</ele>
        <time>2022-05-03T10:35:54.621Z</time>
      </trkpt>
      <trkpt lat="41.07745" lon="19.64592">
        <ele>57.20711</ele>
        <time>2022-05-03T10:35:57.620Z</time>
      </trkpt>
      <trkpt lat="41.07737" lon="19.64577">
        <ele>57.257369</ele>
        <time>2022-05-03T10:36:00.629Z</time>
      </trkpt>
      <trkpt lat="41.07731" lon="19.64567">
        <ele>57.293209</ele>
        <time>2022-05-03T10:36:02.622Z</time>
      </trkpt>
      <trkpt lat="41.07726" lon="19.64557">
        <ele>57.328382</ele>
        <time>2022-05-03T10:36:04.627Z</time>
      </trkpt>
      <trkpt lat="41.0772" lon="19.64547">
        <ele>57.363552</ele>
        <time>2022-05-03T10:36:06.633Z</time>
      </trkpt>
      <trkpt lat="41.07714" lon="19.64537">
        <ele>57.398516</ele>
        <time>2022-05-03T10:36:08.642Z</time>
      </trkpt>
      <trkpt lat="41.07708" lon="19.64527">
        <ele>57.437924</ele>
        <time>2022-05-03T10:36:10.631Z</time>
      </trkpt>
      <trkpt lat="41.07702" lon="19.64518">
        <ele>57.603582</ele>
        <time>2022-05-03T10:36:12.624Z</time>
      </trkpt>
      <trkpt lat="41.07694" lon="19.64504">
        <ele>57.834804</ele>
        <time>2022-05-03T10:36:15.620Z</time>
      </trkpt>
      <trkpt lat="41.07686" lon="19.6449">
        <ele>58.073723</ele>
        <time>2022-05-03T10:36:18.614Z</time>
      </trkpt>
      <trkpt lat="41.0768" lon="19.64482">
        <ele>58.238372</ele>
        <time>2022-05-03T10:36:20.622Z</time>
      </trkpt>
      <trkpt lat="41.07673" lon="19.64473">
        <ele>58.405842</ele>
        <time>2022-05-03T10:36:22.627Z</time>
      </trkpt>
      <trkpt lat="41.07665" lon="19.64464">
        <ele>58.581172</ele>
        <time>2022-05-03T10:36:24.627Z</time>
      </trkpt>
      <trkpt lat="41.07657" lon="19.64457">
        <ele>58.757887</ele>
        <time>2022-05-03T10:36:26.619Z</time>
      </trkpt>
      <trkpt lat="41.0765" lon="19.64449">
        <ele>58.920579</ele>
        <time>2022-05-03T10:36:28.625Z</time>
      </trkpt>
      <trkpt lat="41.07643" lon="19.64442">
        <ele>59.085947</ele>
        <time>2022-05-03T10:36:30.618Z</time>
      </trkpt>
      <trkpt lat="41.07636" lon="19.64434">
        <ele>59.251993</ele>
        <time>2022-05-03T10:36:32.625Z</time>
      </trkpt>
      <trkpt lat="41.07629" lon="19.64426">
        <ele>59.413924</ele>
        <time>2022-05-03T10:36:34.620Z</time>
      </trkpt>
      <trkpt lat="41.07621" lon="19.64417">
        <ele>59.591024</ele>
        <time>2022-05-03T10:36:36.646Z</time>
      </trkpt>
      <trkpt lat="41.07615" lon="19.64407">
        <ele>59.773894</ele>
        <time>2022-05-03T10:36:38.626Z</time>
      </trkpt>
      <trkpt lat="41.07609" lon="19.64396">
        <ele>59.958908</ele>
        <time>2022-05-03T10:36:40.618Z</time>
      </trkpt>
      <trkpt lat="41.07602" lon="19.64383">
        <ele>60.167524</ele>
        <time>2022-05-03T10:36:42.615Z</time>
      </trkpt>
      <trkpt lat="41.07596" lon="19.6437">
        <ele>60.378306</ele>
        <time>2022-05-03T10:36:44.614Z</time>
      </trkpt>
      <trkpt lat="41.0759" lon="19.64355">
        <ele>60.595675</ele>
        <time>2022-05-03T10:36:46.625Z</time>
      </trkpt>
      <trkpt lat="41.07586" lon="19.64341">
        <ele>60.606844</ele>
        <time>2022-05-03T10:36:48.652Z</time>
      </trkpt>
      <trkpt lat="41.07581" lon="19.64328">
        <ele>60.560549</ele>
        <time>2022-05-03T10:36:50.621Z</time>
      </trkpt>
      <trkpt lat="41.07575" lon="19.64315">
        <ele>60.513497</ele>
        <time>2022-05-03T10:36:52.622Z</time>
      </trkpt>
      <trkpt lat="41.07571" lon="19.64302">
        <ele>60.466722</ele>
        <time>2022-05-03T10:36:54.611Z</time>
      </trkpt>
      <trkpt lat="41.07566" lon="19.64289">
        <ele>60.421748</ele>
        <time>2022-05-03T10:36:56.621Z</time>
      </trkpt>
      <trkpt lat="41.07561" lon="19.64276">
        <ele>60.376682</ele>
        <time>2022-05-03T10:36:58.667Z</time>
      </trkpt>
      <trkpt lat="41.07557" lon="19.64264">
        <ele>60.333385</ele>
        <time>2022-05-03T10:37:00.631Z</time>
      </trkpt>
      <trkpt lat="41.07552" lon="19.64251">
        <ele>60.289972</ele>
        <time>2022-05-03T10:37:02.618Z</time>
      </trkpt>
      <trkpt lat="41.07548" lon="19.64239">
        <ele>60.244704</ele>
        <time>2022-05-03T10:37:04.624Z</time>
      </trkpt>
      <trkpt lat="41.07543" lon="19.64226">
        <ele>60.200654</ele>
        <time>2022-05-03T10:37:06.615Z</time>
      </trkpt>
      <trkpt lat="41.07538" lon="19.64214">
        <ele>60.157232</ele>
        <time>2022-05-03T10:37:08.637Z</time>
      </trkpt>
      <trkpt lat="41.07534" lon="19.64202">
        <ele>60.113676</ele>
        <time>2022-05-03T10:37:10.633Z</time>
      </trkpt>
      <trkpt lat="41.07529" lon="19.64189">
        <ele>60.070202</ele>
        <time>2022-05-03T10:37:12.629Z</time>
      </trkpt>
      <trkpt lat="41.07525" lon="19.64177">
        <ele>60.026038</ele>
        <time>2022-05-03T10:37:14.615Z</time>
      </trkpt>
      <trkpt lat="41.07521" lon="19.64164">
        <ele>59.982953</ele>
        <time>2022-05-03T10:37:16.625Z</time>
      </trkpt>
      <trkpt lat="41.07516" lon="19.64151">
        <ele>59.935668</ele>
        <time>2022-05-03T10:37:18.609Z</time>
      </trkpt>
      <trkpt lat="41.07511" lon="19.64138">
        <ele>59.888892</ele>
        <time>2022-05-03T10:37:20.706Z</time>
      </trkpt>
      <trkpt lat="41.07507" lon="19.64124">
        <ele>59.600593</ele>
        <time>2022-05-03T10:37:22.624Z</time>
      </trkpt>
      <trkpt lat="41.07502" lon="19.64109">
        <ele>59.293883</ele>
        <time>2022-05-03T10:37:24.618Z</time>
      </trkpt>
      <trkpt lat="41.07498" lon="19.64093">
        <ele>58.976304</ele>
        <time>2022-05-03T10:37:26.643Z</time>
      </trkpt>
      <trkpt lat="41.07494" lon="19.64077">
        <ele>58.639402</ele>
        <time>2022-05-03T10:37:28.628Z</time>
      </trkpt>
      <trkpt lat="41.07489" lon="19.6406">
        <ele>58.28279</ele>
        <time>2022-05-03T10:37:30.616Z</time>
      </trkpt>
      <trkpt lat="41.07484" lon="19.64044">
        <ele>57.938552</ele>
        <time>2022-05-03T10:37:32.612Z</time>
      </trkpt>
      <trkpt lat="41.07478" lon="19.64028">
        <ele>57.600099</ele>
        <time>2022-05-03T10:37:34.623Z</time>
      </trkpt>
      <trkpt lat="41.07472" lon="19.64014">
        <ele>57.286525</ele>
        <time>2022-05-03T10:37:36.625Z</time>
      </trkpt>
      <trkpt lat="41.07466" lon="19.64001">
        <ele>56.993114</ele>
        <time>2022-05-03T10:37:38.622Z</time>
      </trkpt>
      <trkpt lat="41.07459" lon="19.6399">
        <ele>56.714293</ele>
        <time>2022-05-03T10:37:40.627Z</time>
      </trkpt>
      <trkpt lat="41.07453" lon="19.63978">
        <ele>56.443194</ele>
        <time>2022-05-03T10:37:42.667Z</time>
      </trkpt>
      <trkpt lat="41.07448" lon="19.63967">
        <ele>56.188116</ele>
        <time>2022-05-03T10:37:44.616Z</time>
      </trkpt>
      <trkpt lat="41.07442" lon="19.63956">
        <ele>55.920216</ele>
        <time>2022-05-03T10:37:46.644Z</time>
      </trkpt>
      <trkpt lat="41.07435" lon="19.63945">
        <ele>55.63983</ele>
        <time>2022-05-03T10:37:48.619Z</time>
      </trkpt>
      <trkpt lat="41.07429" lon="19.63934">
        <ele>55.379682</ele>
        <time>2022-05-03T10:37:50.625Z</time>
      </trkpt>
      <trkpt lat="41.07423" lon="19.63924">
        <ele>55.258261</ele>
        <time>2022-05-03T10:37:52.631Z</time>
      </trkpt>
      <trkpt lat="41.07417" lon="19.63914">
        <ele>55.252887</ele>
        <time>2022-05-03T10:37:54.615Z</time>
      </trkpt>
      <trkpt lat="41.07411" lon="19.63904">
        <ele>55.247648</ele>
        <time>2022-05-03T10:37:56.627Z</time>
      </trkpt>
      <trkpt lat="41.07405" lon="19.63894">
        <ele>55.242505</ele>
        <time>2022-05-03T10:37:58.632Z</time>
      </trkpt>
      <trkpt lat="41.074" lon="19.63885">
        <ele>55.237501</ele>
        <time>2022-05-03T10:38:00.613Z</time>
      </trkpt>
      <trkpt lat="41.07393" lon="19.63871">
        <ele>55.230617</ele>
        <time>2022-05-03T10:38:03.612Z</time>
      </trkpt>
      <trkpt lat="41.07386" lon="19.63859">
        <ele>55.224338</ele>
        <time>2022-05-03T10:38:06.615Z</time>
      </trkpt>
      <trkpt lat="41.0738" lon="19.63848">
        <ele>55.218326</ele>
        <time>2022-05-03T10:38:09.606Z</time>
      </trkpt>
      <trkpt lat="41.07375" lon="19.63836">
        <ele>55.212524</ele>
        <time>2022-05-03T10:38:12.611Z</time>
      </trkpt>
      <trkpt lat="41.0737" lon="19.63825">
        <ele>55.207165</ele>
        <time>2022-05-03T10:38:15.670Z</time>
      </trkpt>
      <trkpt lat="41.07364" lon="19.63813">
        <ele>55.201116</ele>
        <time>2022-05-03T10:38:18.614Z</time>
      </trkpt>
      <trkpt lat="41.07359" lon="19.638">
        <ele>55.195066</ele>
        <time>2022-05-03T10:38:21.612Z</time>
      </trkpt>
      <trkpt lat="41.07355" lon="19.63785">
        <ele>55.188218</ele>
        <time>2022-05-03T10:38:24.608Z</time>
      </trkpt>
      <trkpt lat="41.07349" lon="19.63769">
        <ele>55.180879</ele>
        <time>2022-05-03T10:38:27.614Z</time>
      </trkpt>
      <trkpt lat="41.07343" lon="19.63754">
        <ele>55.17394</ele>
        <time>2022-05-03T10:38:30.605Z</time>
      </trkpt>
      <trkpt lat="41.07339" lon="19.6374">
        <ele>55.167303</ele>
        <time>2022-05-03T10:38:33.616Z</time>
      </trkpt>
      <trkpt lat="41.07334" lon="19.63725">
        <ele>55.160809</ele>
        <time>2022-05-03T10:38:36.626Z</time>
      </trkpt>
      <trkpt lat="41.0733" lon="19.63712">
        <ele>55.108658</ele>
        <time>2022-05-03T10:38:39.638Z</time>
      </trkpt>
      <trkpt lat="41.07325" lon="19.63701">
        <ele>55.060712</ele>
        <time>2022-05-03T10:38:42.653Z</time>
      </trkpt>
      <trkpt lat="41.07316" lon="19.637">
        <ele>55.016682</ele>
        <time>2022-05-03T10:38:45.602Z</time>
      </trkpt>
      <trkpt lat="41.07305" lon="19.63708">
        <ele>54.957304</ele>
        <time>2022-05-03T10:38:48.652Z</time>
      </trkpt>
      <trkpt lat="41.07296" lon="19.63713">
        <ele>54.910135</ele>
        <time>2022-05-03T10:38:50.638Z</time>
      </trkpt>
      <trkpt lat="41.07288" lon="19.63718">
        <ele>54.864436</ele>
        <time>2022-05-03T10:38:52.637Z</time>
      </trkpt>
      <trkpt lat="41.07277" lon="19.63725">
        <ele>54.807812</ele>
        <time>2022-05-03T10:38:55.607Z</time>
      </trkpt>
      <trkpt lat="41.07266" lon="19.63721">
        <ele>54.750433</ele>
        <time>2022-05-03T10:38:59.634Z</time>
      </trkpt>
      <trkpt lat="41.07257" lon="19.63712">
        <ele>54.694889</ele>
        <time>2022-05-03T10:39:02.627Z</time>
      </trkpt>
      <trkpt lat="41.07246" lon="19.63703">
        <ele>54.635284</ele>
        <time>2022-05-03T10:39:05.619Z</time>
      </trkpt>
      <trkpt lat="41.07234" lon="19.63703">
        <ele>54.574184</ele>
        <time>2022-05-03T10:39:08.639Z</time>
      </trkpt>
      <trkpt lat="41.07226" lon="19.63708">
        <ele>54.530061</ele>
        <time>2022-05-03T10:39:10.649Z</time>
      </trkpt>
      <trkpt lat="41.07217" lon="19.63714">
        <ele>54.48577</ele>
        <time>2022-05-03T10:39:13.632Z</time>
      </trkpt>
      <trkpt lat="41.07212" lon="19.63699">
        <ele>54.427152</ele>
        <time>2022-05-03T10:39:17.603Z</time>
      </trkpt>
      <trkpt lat="41.0721" lon="19.63687">
        <ele>54.382008</ele>
        <time>2022-05-03T10:39:19.632Z</time>
      </trkpt>
      <trkpt lat="41.07207" lon="19.63676">
        <ele>54.337012</ele>
        <time>2022-05-03T10:39:21.627Z</time>
      </trkpt>
      <trkpt lat="41.07203" lon="19.63665">
        <ele>54.292354</ele>
        <time>2022-05-03T10:39:23.617Z</time>
      </trkpt>
      <trkpt lat="41.07199" lon="19.63649">
        <ele>54.126544</ele>
        <time>2022-05-03T10:39:26.633Z</time>
      </trkpt>
      <trkpt lat="41.07197" lon="19.63638">
        <ele>53.999499</ele>
        <time>2022-05-03T10:39:28.670Z</time>
      </trkpt>
      <trkpt lat="41.07196" lon="19.63624">
        <ele>53.848711</ele>
        <time>2022-05-03T10:39:30.654Z</time>
      </trkpt>
      <trkpt lat="41.07195" lon="19.6361">
        <ele>53.703257</ele>
        <time>2022-05-03T10:39:32.636Z</time>
      </trkpt>
      <trkpt lat="41.07197" lon="19.63597">
        <ele>53.562155</ele>
        <time>2022-05-03T10:39:34.615Z</time>
      </trkpt>
      <trkpt lat="41.072" lon="19.63585">
        <ele>53.432675</ele>
        <time>2022-05-03T10:39:36.606Z</time>
      </trkpt>
      <trkpt lat="41.07202" lon="19.63573">
        <ele>53.303964</ele>
        <time>2022-05-03T10:39:38.634Z</time>
      </trkpt>
      <trkpt lat="41.07204" lon="19.63562">
        <ele>53.176919</ele>
        <time>2022-05-03T10:39:40.612Z</time>
      </trkpt>
      <trkpt lat="41.07207" lon="19.63545">
        <ele>52.996654</ele>
        <time>2022-05-03T10:39:43.628Z</time>
      </trkpt>
      <trkpt lat="41.07211" lon="19.6353">
        <ele>52.822814</ele>
        <time>2022-05-03T10:39:46.634Z</time>
      </trkpt>
      <trkpt lat="41.07218" lon="19.63515">
        <ele>52.638251</ele>
        <time>2022-05-03T10:39:49.620Z</time>
      </trkpt>
      <trkpt lat="41.07228" lon="19.63503">
        <ele>52.450831</ele>
        <time>2022-05-03T10:39:52.625Z</time>
      </trkpt>
      <trkpt lat="41.0724" lon="19.63498">
        <ele>52.271408</ele>
        <time>2022-05-03T10:39:55.616Z</time>
      </trkpt>
      <trkpt lat="41.07252" lon="19.63496">
        <ele>52.102982</ele>
        <time>2022-05-03T10:39:58.658Z</time>
      </trkpt>
      <trkpt lat="41.07264" lon="19.63491">
        <ele>51.926804</ele>
        <time>2022-05-03T10:40:01.627Z</time>
      </trkpt>
      <trkpt lat="41.07275" lon="19.63483">
        <ele>51.757144</ele>
        <time>2022-05-03T10:40:04.658Z</time>
      </trkpt>
      <trkpt lat="41.07282" lon="19.63471">
        <ele>51.608939</ele>
        <time>2022-05-03T10:40:07.629Z</time>
      </trkpt>
      <trkpt lat="41.07288" lon="19.63457">
        <ele>51.46205</ele>
        <time>2022-05-03T10:40:10.658Z</time>
      </trkpt>
      <trkpt lat="41.07291" lon="19.63442">
        <ele>51.311071</ele>
        <time>2022-05-03T10:40:13.626Z</time>
      </trkpt>
      <trkpt lat="41.07296" lon="19.63426">
        <ele>51.150186</ele>
        <time>2022-05-03T10:40:16.621Z</time>
      </trkpt>
      <trkpt lat="41.073" lon="19.63414">
        <ele>51.034126</ele>
        <time>2022-05-03T10:40:18.616Z</time>
      </trkpt>
      <trkpt lat="41.07304" lon="19.63403">
        <ele>50.919762</ele>
        <time>2022-05-03T10:40:20.603Z</time>
      </trkpt>
      <trkpt lat="41.07308" lon="19.63392">
        <ele>50.80016</ele>
        <time>2022-05-03T10:40:22.649Z</time>
      </trkpt>
      <trkpt lat="41.07312" lon="19.6338">
        <ele>50.678057</ele>
        <time>2022-05-03T10:40:24.643Z</time>
      </trkpt>
      <trkpt lat="41.07317" lon="19.63369">
        <ele>50.558352</ele>
        <time>2022-05-03T10:40:26.628Z</time>
      </trkpt>
      <trkpt lat="41.07321" lon="19.63358">
        <ele>50.443203</ele>
        <time>2022-05-03T10:40:28.652Z</time>
      </trkpt>
      <trkpt lat="41.07325" lon="19.63347">
        <ele>50.328887</ele>
        <time>2022-05-03T10:40:30.624Z</time>
      </trkpt>
      <trkpt lat="41.0733" lon="19.63336">
        <ele>50.215065</ele>
        <time>2022-05-03T10:40:32.644Z</time>
      </trkpt>
      <trkpt lat="41.07334" lon="19.63325">
        <ele>50.099916</ele>
        <time>2022-05-03T10:40:34.675Z</time>
      </trkpt>
      <trkpt lat="41.07341" lon="19.6331">
        <ele>49.936108</ele>
        <time>2022-05-03T10:40:37.624Z</time>
      </trkpt>
      <trkpt lat="41.07348" lon="19.63295">
        <ele>49.774396</ele>
        <time>2022-05-03T10:40:40.629Z</time>
      </trkpt>
      <trkpt lat="41.07354" lon="19.63281">
        <ele>49.614441</ele>
        <time>2022-05-03T10:40:43.640Z</time>
      </trkpt>
      <trkpt lat="41.07361" lon="19.63266">
        <ele>49.636171</ele>
        <time>2022-05-03T10:40:46.625Z</time>
      </trkpt>
      <trkpt lat="41.07366" lon="19.63255">
        <ele>49.792058</ele>
        <time>2022-05-03T10:40:48.612Z</time>
      </trkpt>
      <trkpt lat="41.07371" lon="19.63246">
        <ele>49.945285</ele>
        <time>2022-05-03T10:40:50.618Z</time>
      </trkpt>
      <trkpt lat="41.07376" lon="19.63236">
        <ele>50.098511</ele>
        <time>2022-05-03T10:40:52.627Z</time>
      </trkpt>
      <trkpt lat="41.07384" lon="19.63221">
        <ele>50.323829</ele>
        <time>2022-05-03T10:40:55.636Z</time>
      </trkpt>
      <trkpt lat="41.07389" lon="19.63211">
        <ele>50.484484</ele>
        <time>2022-05-03T10:40:57.626Z</time>
      </trkpt>
      <trkpt lat="41.07397" lon="19.63197">
        <ele>50.709611</ele>
        <time>2022-05-03T10:41:00.618Z</time>
      </trkpt>
      <trkpt lat="41.07404" lon="19.63183">
        <ele>50.934792</ele>
        <time>2022-05-03T10:41:03.644Z</time>
      </trkpt>
      <trkpt lat="41.07412" lon="19.63168">
        <ele>51.160625</ele>
        <time>2022-05-03T10:41:06.636Z</time>
      </trkpt>
      <trkpt lat="41.07419" lon="19.63153">
        <ele>51.386159</ele>
        <time>2022-05-03T10:41:09.624Z</time>
      </trkpt>
      <trkpt lat="41.07426" lon="19.63139">
        <ele>51.602725</ele>
        <time>2022-05-03T10:41:12.629Z</time>
      </trkpt>
      <trkpt lat="41.07432" lon="19.63126">
        <ele>51.808429</ele>
        <time>2022-05-03T10:41:15.628Z</time>
      </trkpt>
      <trkpt lat="41.07439" lon="19.63112">
        <ele>52.013183</ele>
        <time>2022-05-03T10:41:18.665Z</time>
      </trkpt>
      <trkpt lat="41.07446" lon="19.63099">
        <ele>52.225982</ele>
        <time>2022-05-03T10:41:21.638Z</time>
      </trkpt>
      <trkpt lat="41.07453" lon="19.63087">
        <ele>52.429536</ele>
        <time>2022-05-03T10:41:24.616Z</time>
      </trkpt>
      <trkpt lat="41.0746" lon="19.63075">
        <ele>52.608145</ele>
        <time>2022-05-03T10:41:27.616Z</time>
      </trkpt>
      <trkpt lat="41.07467" lon="19.63063">
        <ele>52.672589</ele>
        <time>2022-05-03T10:41:30.604Z</time>
      </trkpt>
      <trkpt lat="41.07474" lon="19.63053">
        <ele>52.733616</ele>
        <time>2022-05-03T10:41:33.626Z</time>
      </trkpt>
      <trkpt lat="41.07481" lon="19.63042">
        <ele>52.795022</ele>
        <time>2022-05-03T10:41:36.617Z</time>
      </trkpt>
      <trkpt lat="41.07487" lon="19.63031">
        <ele>52.856999</ele>
        <time>2022-05-03T10:41:39.626Z</time>
      </trkpt>
      <trkpt lat="41.07494" lon="19.63019">
        <ele>52.920371</ele>
        <time>2022-05-03T10:41:42.630Z</time>
      </trkpt>
      <trkpt lat="41.075" lon="19.63008">
        <ele>52.980954</ele>
        <time>2022-05-03T10:41:45.635Z</time>
      </trkpt>
      <trkpt lat="41.07506" lon="19.62996">
        <ele>53.045764</ele>
        <time>2022-05-03T10:41:48.605Z</time>
      </trkpt>
      <trkpt lat="41.07512" lon="19.62984">
        <ele>53.109633</ele>
        <time>2022-05-03T10:41:51.617Z</time>
      </trkpt>
      <trkpt lat="41.07519" lon="19.62972">
        <ele>53.173706</ele>
        <time>2022-05-03T10:41:54.625Z</time>
      </trkpt>
      <trkpt lat="41.07526" lon="19.6296">
        <ele>53.238157</ele>
        <time>2022-05-03T10:41:57.643Z</time>
      </trkpt>
      <trkpt lat="41.07532" lon="19.62948">
        <ele>53.303642</ele>
        <time>2022-05-03T10:42:00.620Z</time>
      </trkpt>
      <trkpt lat="41.07538" lon="19.62935">
        <ele>53.371461</ele>
        <time>2022-05-03T10:42:03.616Z</time>
      </trkpt>
      <trkpt lat="41.07545" lon="19.62922">
        <ele>53.440591</ele>
        <time>2022-05-03T10:42:06.627Z</time>
      </trkpt>
      <trkpt lat="41.07551" lon="19.62909">
        <ele>53.507616</ele>
        <time>2022-05-03T10:42:09.630Z</time>
      </trkpt>
      <trkpt lat="41.07558" lon="19.62895">
        <ele>53.577482</ele>
        <time>2022-05-03T10:42:12.596Z</time>
      </trkpt>
      <trkpt lat="41.07564" lon="19.62882">
        <ele>53.645065</ele>
        <time>2022-05-03T10:42:15.630Z</time>
      </trkpt>
      <trkpt lat="41.0757" lon="19.6287">
        <ele>53.572282</ele>
        <time>2022-05-03T10:42:18.627Z</time>
      </trkpt>
      <trkpt lat="41.07577" lon="19.62858">
        <ele>53.497236</ele>
        <time>2022-05-03T10:42:21.627Z</time>
      </trkpt>
      <trkpt lat="41.07585" lon="19.62845">
        <ele>53.417868</ele>
        <time>2022-05-03T10:42:24.629Z</time>
      </trkpt>
      <trkpt lat="41.07592" lon="19.62832">
        <ele>53.338111</ele>
        <time>2022-05-03T10:42:27.634Z</time>
      </trkpt>
      <trkpt lat="41.07599" lon="19.62818">
        <ele>53.253817</ele>
        <time>2022-05-03T10:42:30.640Z</time>
      </trkpt>
      <trkpt lat="41.07604" lon="19.62807">
        <ele>53.19324</ele>
        <time>2022-05-03T10:42:32.624Z</time>
      </trkpt>
      <trkpt lat="41.07609" lon="19.62797">
        <ele>53.134009</ele>
        <time>2022-05-03T10:42:34.629Z</time>
      </trkpt>
      <trkpt lat="41.07614" lon="19.62787">
        <ele>53.074648</ele>
        <time>2022-05-03T10:42:36.636Z</time>
      </trkpt>
      <trkpt lat="41.07619" lon="19.62778">
        <ele>53.016092</ele>
        <time>2022-05-03T10:42:38.612Z</time>
      </trkpt>
      <trkpt lat="41.07626" lon="19.62768">
        <ele>52.953846</ele>
        <time>2022-05-03T10:42:40.621Z</time>
      </trkpt>
      <trkpt lat="41.07632" lon="19.62759">
        <ele>52.892029</ele>
        <time>2022-05-03T10:42:42.626Z</time>
      </trkpt>
      <trkpt lat="41.0764" lon="19.62745">
        <ele>52.802826</ele>
        <time>2022-05-03T10:42:45.622Z</time>
      </trkpt>
      <trkpt lat="41.07647" lon="19.62735">
        <ele>52.737824</ele>
        <time>2022-05-03T10:42:47.628Z</time>
      </trkpt>
      <trkpt lat="41.07655" lon="19.62726">
        <ele>52.671339</ele>
        <time>2022-05-03T10:42:49.631Z</time>
      </trkpt>
      <trkpt lat="41.07662" lon="19.62717">
        <ele>52.608998</ele>
        <time>2022-05-03T10:42:51.639Z</time>
      </trkpt>
      <trkpt lat="41.07668" lon="19.62709">
        <ele>52.549196</ele>
        <time>2022-05-03T10:42:53.626Z</time>
      </trkpt>
      <trkpt lat="41.07675" lon="19.627">
        <ele>52.489745</ele>
        <time>2022-05-03T10:42:55.635Z</time>
      </trkpt>
      <trkpt lat="41.07681" lon="19.62691">
        <ele>52.476679</ele>
        <time>2022-05-03T10:42:57.613Z</time>
      </trkpt>
      <trkpt lat="41.07688" lon="19.62682">
        <ele>52.483559</ele>
        <time>2022-05-03T10:42:59.622Z</time>
      </trkpt>
      <trkpt lat="41.07694" lon="19.62673">
        <ele>52.490518</ele>
        <time>2022-05-03T10:43:01.630Z</time>
      </trkpt>
      <trkpt lat="41.07701" lon="19.62665">
        <ele>52.497491</ele>
        <time>2022-05-03T10:43:03.666Z</time>
      </trkpt>
      <trkpt lat="41.07708" lon="19.62657">
        <ele>52.504099</ele>
        <time>2022-05-03T10:43:05.629Z</time>
      </trkpt>
      <trkpt lat="41.07715" lon="19.62648">
        <ele>52.510963</ele>
        <time>2022-05-03T10:43:07.635Z</time>
      </trkpt>
      <trkpt lat="41.07722" lon="19.62641">
        <ele>52.517793</ele>
        <time>2022-05-03T10:43:09.611Z</time>
      </trkpt>
      <trkpt lat="41.0773" lon="19.62633">
        <ele>52.524486</ele>
        <time>2022-05-03T10:43:11.620Z</time>
      </trkpt>
      <trkpt lat="41.07737" lon="19.62627">
        <ele>52.531096</ele>
        <time>2022-05-03T10:43:13.636Z</time>
      </trkpt>
      <trkpt lat="41.07749" lon="19.62617">
        <ele>52.540942</ele>
        <time>2022-05-03T10:43:16.644Z</time>
      </trkpt>
      <trkpt lat="41.07759" lon="19.62609">
        <ele>52.54983</ele>
        <time>2022-05-03T10:43:19.626Z</time>
      </trkpt>
      <trkpt lat="41.0777" lon="19.62601">
        <ele>52.558738</ele>
        <time>2022-05-03T10:43:22.630Z</time>
      </trkpt>
      <trkpt lat="41.07781" lon="19.62591">
        <ele>52.568335</ele>
        <time>2022-05-03T10:43:25.603Z</time>
      </trkpt>
      <trkpt lat="41.07788" lon="19.62585">
        <ele>52.574975</ele>
        <time>2022-05-03T10:43:27.621Z</time>
      </trkpt>
      <trkpt lat="41.07797" lon="19.62578">
        <ele>52.582049</ele>
        <time>2022-05-03T10:43:29.623Z</time>
      </trkpt>
      <trkpt lat="41.07804" lon="19.62571">
        <ele>52.588934</ele>
        <time>2022-05-03T10:43:31.616Z</time>
      </trkpt>
      <trkpt lat="41.07812" lon="19.62564">
        <ele>52.595789</ele>
        <time>2022-05-03T10:43:33.637Z</time>
      </trkpt>
      <trkpt lat="41.0782" lon="19.62557">
        <ele>52.602859</ele>
        <time>2022-05-03T10:43:35.612Z</time>
      </trkpt>
      <trkpt lat="41.07828" lon="19.6255">
        <ele>52.620088</ele>
        <time>2022-05-03T10:43:37.613Z</time>
      </trkpt>
      <trkpt lat="41.07839" lon="19.6254">
        <ele>52.646557</ele>
        <time>2022-05-03T10:43:40.619Z</time>
      </trkpt>
      <trkpt lat="41.07847" lon="19.62534">
        <ele>52.665025</ele>
        <time>2022-05-03T10:43:42.630Z</time>
      </trkpt>
      <trkpt lat="41.07855" lon="19.62527">
        <ele>52.683506</ele>
        <time>2022-05-03T10:43:44.647Z</time>
      </trkpt>
      <trkpt lat="41.07863" lon="19.6252">
        <ele>52.702394</ele>
        <time>2022-05-03T10:43:46.675Z</time>
      </trkpt>
      <trkpt lat="41.07871" lon="19.62513">
        <ele>52.7205</ele>
        <time>2022-05-03T10:43:48.641Z</time>
      </trkpt>
      <trkpt lat="41.07881" lon="19.62502">
        <ele>52.746277</ele>
        <time>2022-05-03T10:43:51.639Z</time>
      </trkpt>
      <trkpt lat="41.07891" lon="19.62491">
        <ele>52.77102</ele>
        <time>2022-05-03T10:43:54.630Z</time>
      </trkpt>
      <trkpt lat="41.079" lon="19.6248">
        <ele>52.795857</ele>
        <time>2022-05-03T10:43:57.642Z</time>
      </trkpt>
      <trkpt lat="41.0791" lon="19.62468">
        <ele>52.82246</ele>
        <time>2022-05-03T10:44:00.636Z</time>
      </trkpt>
      <trkpt lat="41.07917" lon="19.62459">
        <ele>52.841101</ele>
        <time>2022-05-03T10:44:02.629Z</time>
      </trkpt>
      <trkpt lat="41.07925" lon="19.62451">
        <ele>52.859812</ele>
        <time>2022-05-03T10:44:04.610Z</time>
      </trkpt>
      <trkpt lat="41.07932" lon="19.62443">
        <ele>52.878615</ele>
        <time>2022-05-03T10:44:06.612Z</time>
      </trkpt>
      <trkpt lat="41.0794" lon="19.62434">
        <ele>52.898377</ele>
        <time>2022-05-03T10:44:08.625Z</time>
      </trkpt>
      <trkpt lat="41.07947" lon="19.62425">
        <ele>52.917423</ele>
        <time>2022-05-03T10:44:10.626Z</time>
      </trkpt>
      <trkpt lat="41.07954" lon="19.62416">
        <ele>52.936894</ele>
        <time>2022-05-03T10:44:12.624Z</time>
      </trkpt>
      <trkpt lat="41.07961" lon="19.62407">
        <ele>52.942737</ele>
        <time>2022-05-03T10:44:14.651Z</time>
      </trkpt>
      <trkpt lat="41.07969" lon="19.62398">
        <ele>52.787792</ele>
        <time>2022-05-03T10:44:16.620Z</time>
      </trkpt>
      <trkpt lat="41.07976" lon="19.62388">
        <ele>52.630464</ele>
        <time>2022-05-03T10:44:18.624Z</time>
      </trkpt>
      <trkpt lat="41.07983" lon="19.62379">
        <ele>52.472596</ele>
        <time>2022-05-03T10:44:20.663Z</time>
      </trkpt>
      <trkpt lat="41.07991" lon="19.62369">
        <ele>52.317156</ele>
        <time>2022-05-03T10:44:22.616Z</time>
      </trkpt>
      <trkpt lat="41.07998" lon="19.62359">
        <ele>52.154707</ele>
        <time>2022-05-03T10:44:24.610Z</time>
      </trkpt>
      <trkpt lat="41.08006" lon="19.62349">
        <ele>51.986607</ele>
        <time>2022-05-03T10:44:26.655Z</time>
      </trkpt>
      <trkpt lat="41.08014" lon="19.62338">
        <ele>51.818507</ele>
        <time>2022-05-03T10:44:28.630Z</time>
      </trkpt>
      <trkpt lat="41.08022" lon="19.62328">
        <ele>51.651425</ele>
        <time>2022-05-03T10:44:30.634Z</time>
      </trkpt>
      <trkpt lat="41.0803" lon="19.62318">
        <ele>51.483233</ele>
        <time>2022-05-03T10:44:32.663Z</time>
      </trkpt>
      <trkpt lat="41.08038" lon="19.62308">
        <ele>51.313148</ele>
        <time>2022-05-03T10:44:34.634Z</time>
      </trkpt>
      <trkpt lat="41.08046" lon="19.62298">
        <ele>51.143388</ele>
        <time>2022-05-03T10:44:36.614Z</time>
      </trkpt>
      <trkpt lat="41.08054" lon="19.62287">
        <ele>50.970152</ele>
        <time>2022-05-03T10:44:38.638Z</time>
      </trkpt>
      <trkpt lat="41.08063" lon="19.62277">
        <ele>50.793137</ele>
        <time>2022-05-03T10:44:40.642Z</time>
      </trkpt>
      <trkpt lat="41.08071" lon="19.62266">
        <ele>50.618146</ele>
        <time>2022-05-03T10:44:42.615Z</time>
      </trkpt>
      <trkpt lat="41.0808" lon="19.62256">
        <ele>50.443813</ele>
        <time>2022-05-03T10:44:44.623Z</time>
      </trkpt>
      <trkpt lat="41.08088" lon="19.62245">
        <ele>50.26548</ele>
        <time>2022-05-03T10:44:46.627Z</time>
      </trkpt>
      <trkpt lat="41.08096" lon="19.62233">
        <ele>50.074562</ele>
        <time>2022-05-03T10:44:48.662Z</time>
      </trkpt>
      <trkpt lat="41.08105" lon="19.62222">
        <ele>49.875554</ele>
        <time>2022-05-03T10:44:50.627Z</time>
      </trkpt>
      <trkpt lat="41.08114" lon="19.62211">
        <ele>49.680545</ele>
        <time>2022-05-03T10:44:52.627Z</time>
      </trkpt>
      <trkpt lat="41.08122" lon="19.62199">
        <ele>49.484389</ele>
        <time>2022-05-03T10:44:54.662Z</time>
      </trkpt>
      <trkpt lat="41.08131" lon="19.62188">
        <ele>49.285061</ele>
        <time>2022-05-03T10:44:56.627Z</time>
      </trkpt>
      <trkpt lat="41.0814" lon="19.62175">
        <ele>49.08331</ele>
        <time>2022-05-03T10:44:58.630Z</time>
      </trkpt>
      <trkpt lat="41.08149" lon="19.62163">
        <ele>48.876873</ele>
        <time>2022-05-03T10:45:00.630Z</time>
      </trkpt>
      <trkpt lat="41.08158" lon="19.62151">
        <ele>48.669013</ele>
        <time>2022-05-03T10:45:02.612Z</time>
      </trkpt>
      <trkpt lat="41.08167" lon="19.62139">
        <ele>48.458847</ele>
        <time>2022-05-03T10:45:04.638Z</time>
      </trkpt>
      <trkpt lat="41.08176" lon="19.62126">
        <ele>48.247554</ele>
        <time>2022-05-03T10:45:06.632Z</time>
      </trkpt>
      <trkpt lat="41.08185" lon="19.62114">
        <ele>48.033131</ele>
        <time>2022-05-03T10:45:08.617Z</time>
      </trkpt>
      <trkpt lat="41.08195" lon="19.62101">
        <ele>47.817566</ele>
        <time>2022-05-03T10:45:10.614Z</time>
      </trkpt>
      <trkpt lat="41.08205" lon="19.62089">
        <ele>47.603059</ele>
        <time>2022-05-03T10:45:12.626Z</time>
      </trkpt>
      <trkpt lat="41.08214" lon="19.62077">
        <ele>47.391492</ele>
        <time>2022-05-03T10:45:14.630Z</time>
      </trkpt>
      <trkpt lat="41.08223" lon="19.62065">
        <ele>47.291497</ele>
        <time>2022-05-03T10:45:16.671Z</time>
      </trkpt>
      <trkpt lat="41.08232" lon="19.62053">
        <ele>47.2426</ele>
        <time>2022-05-03T10:45:18.629Z</time>
      </trkpt>
      <trkpt lat="41.08241" lon="19.62041">
        <ele>47.196422</ele>
        <time>2022-05-03T10:45:20.635Z</time>
      </trkpt>
      <trkpt lat="41.0825" lon="19.6203">
        <ele>47.151697</ele>
        <time>2022-05-03T10:45:22.647Z</time>
      </trkpt>
      <trkpt lat="41.08259" lon="19.62019">
        <ele>47.10519</ele>
        <time>2022-05-03T10:45:24.627Z</time>
      </trkpt>
      <trkpt lat="41.08266" lon="19.62008">
        <ele>47.064629</ele>
        <time>2022-05-03T10:45:26.631Z</time>
      </trkpt>
      <trkpt lat="41.08274" lon="19.61999">
        <ele>47.025897</ele>
        <time>2022-05-03T10:45:28.619Z</time>
      </trkpt>
      <trkpt lat="41.08282" lon="19.6199">
        <ele>46.986046</ele>
        <time>2022-05-03T10:45:30.622Z</time>
      </trkpt>
      <trkpt lat="41.0829" lon="19.61981">
        <ele>46.947697</ele>
        <time>2022-05-03T10:45:32.638Z</time>
      </trkpt>
      <trkpt lat="41.08297" lon="19.61972">
        <ele>46.911014</ele>
        <time>2022-05-03T10:45:34.622Z</time>
      </trkpt>
      <trkpt lat="41.08304" lon="19.61964">
        <ele>46.875176</ele>
        <time>2022-05-03T10:45:36.625Z</time>
      </trkpt>
      <trkpt lat="41.08313" lon="19.61952">
        <ele>46.827476</ele>
        <time>2022-05-03T10:45:39.606Z</time>
      </trkpt>
      <trkpt lat="41.08323" lon="19.61941">
        <ele>46.780473</ele>
        <time>2022-05-03T10:45:42.611Z</time>
      </trkpt>
      <trkpt lat="41.08333" lon="19.61928">
        <ele>46.729334</ele>
        <time>2022-05-03T10:45:45.617Z</time>
      </trkpt>
      <trkpt lat="41.08339" lon="19.61919">
        <ele>46.693793</ele>
        <time>2022-05-03T10:45:47.605Z</time>
      </trkpt>
      <trkpt lat="41.08346" lon="19.6191">
        <ele>46.659636</ele>
        <time>2022-05-03T10:45:49.611Z</time>
      </trkpt>
      <trkpt lat="41.08353" lon="19.61901">
        <ele>46.745109</ele>
        <time>2022-05-03T10:45:51.609Z</time>
      </trkpt>
      <trkpt lat="41.0836" lon="19.61891">
        <ele>46.868083</ele>
        <time>2022-05-03T10:45:53.671Z</time>
      </trkpt>
      <trkpt lat="41.08366" lon="19.61881">
        <ele>46.991384</ele>
        <time>2022-05-03T10:45:55.628Z</time>
      </trkpt>
      <trkpt lat="41.08373" lon="19.6187">
        <ele>47.117811</ele>
        <time>2022-05-03T10:45:57.624Z</time>
      </trkpt>
      <trkpt lat="41.08381" lon="19.61859">
        <ele>47.249956</ele>
        <time>2022-05-03T10:45:59.619Z</time>
      </trkpt>
      <trkpt lat="41.08388" lon="19.61848">
        <ele>47.380641</ele>
        <time>2022-05-03T10:46:01.655Z</time>
      </trkpt>
      <trkpt lat="41.08395" lon="19.61838">
        <ele>47.507357</ele>
        <time>2022-05-03T10:46:03.607Z</time>
      </trkpt>
      <trkpt lat="41.08403" lon="19.61828">
        <ele>47.634242</ele>
        <time>2022-05-03T10:46:05.635Z</time>
      </trkpt>
      <trkpt lat="41.0841" lon="19.61818">
        <ele>47.759204</ele>
        <time>2022-05-03T10:46:07.616Z</time>
      </trkpt>
      <trkpt lat="41.08417" lon="19.61808">
        <ele>47.884302</ele>
        <time>2022-05-03T10:46:09.631Z</time>
      </trkpt>
      <trkpt lat="41.08424" lon="19.61797">
        <ele>48.0094</ele>
        <time>2022-05-03T10:46:11.623Z</time>
      </trkpt>
      <trkpt lat="41.08432" lon="19.61787">
        <ele>48.133838</ele>
        <time>2022-05-03T10:46:13.637Z</time>
      </trkpt>
      <trkpt lat="41.08439" lon="19.61777">
        <ele>48.261864</ele>
        <time>2022-05-03T10:46:15.610Z</time>
      </trkpt>
      <trkpt lat="41.08446" lon="19.61766">
        <ele>48.394009</ele>
        <time>2022-05-03T10:46:17.628Z</time>
      </trkpt>
      <trkpt lat="41.08454" lon="19.61755">
        <ele>48.522035</ele>
        <time>2022-05-03T10:46:19.622Z</time>
      </trkpt>
      <trkpt lat="41.08461" lon="19.61744">
        <ele>48.652185</ele>
        <time>2022-05-03T10:46:21.613Z</time>
      </trkpt>
      <trkpt lat="41.08469" lon="19.61733">
        <ele>48.785925</ele>
        <time>2022-05-03T10:46:23.630Z</time>
      </trkpt>
      <trkpt lat="41.08476" lon="19.61722">
        <ele>48.712788</ele>
        <time>2022-05-03T10:46:25.627Z</time>
      </trkpt>
      <trkpt lat="41.08483" lon="19.61711">
        <ele>48.629775</ele>
        <time>2022-05-03T10:46:27.622Z</time>
      </trkpt>
      <trkpt lat="41.0849" lon="19.61699">
        <ele>48.547632</ele>
        <time>2022-05-03T10:46:29.633Z</time>
      </trkpt>
      <trkpt lat="41.08497" lon="19.61688">
        <ele>48.463625</ele>
        <time>2022-05-03T10:46:31.614Z</time>
      </trkpt>
      <trkpt lat="41.08504" lon="19.61677">
        <ele>48.379559</ele>
        <time>2022-05-03T10:46:33.626Z</time>
      </trkpt>
      <trkpt lat="41.08512" lon="19.61666">
        <ele>48.297088</ele>
        <time>2022-05-03T10:46:35.683Z</time>
      </trkpt>
      <trkpt lat="41.08519" lon="19.61655">
        <ele>48.214286</ele>
        <time>2022-05-03T10:46:37.618Z</time>
      </trkpt>
      <trkpt lat="41.08526" lon="19.61644">
        <ele>48.132892</ele>
        <time>2022-05-03T10:46:39.618Z</time>
      </trkpt>
      <trkpt lat="41.08533" lon="19.61633">
        <ele>48.052473</ele>
        <time>2022-05-03T10:46:41.604Z</time>
      </trkpt>
      <trkpt lat="41.0854" lon="19.61622">
        <ele>47.971992</ele>
        <time>2022-05-03T10:46:43.630Z</time>
      </trkpt>
      <trkpt lat="41.08548" lon="19.61612">
        <ele>47.891858</ele>
        <time>2022-05-03T10:46:45.642Z</time>
      </trkpt>
      <trkpt lat="41.08555" lon="19.61601">
        <ele>47.810953</ele>
        <time>2022-05-03T10:46:47.620Z</time>
      </trkpt>
      <trkpt lat="41.08562" lon="19.6159">
        <ele>47.729981</ele>
        <time>2022-05-03T10:46:49.626Z</time>
      </trkpt>
      <trkpt lat="41.08569" lon="19.61579">
        <ele>47.649989</ele>
        <time>2022-05-03T10:46:51.630Z</time>
      </trkpt>
      <trkpt lat="41.08576" lon="19.61568">
        <ele>47.569996</ele>
        <time>2022-05-03T10:46:53.636Z</time>
      </trkpt>
      <trkpt lat="41.08582" lon="19.61559">
        <ele>47.497106</ele>
        <time>2022-05-03T10:46:55.628Z</time>
      </trkpt>
      <trkpt lat="41.08589" lon="19.61548">
        <ele>47.520038</ele>
        <time>2022-05-03T10:46:57.635Z</time>
      </trkpt>
      <trkpt lat="41.08596" lon="19.61538">
        <ele>47.701139</ele>
        <time>2022-05-03T10:46:59.616Z</time>
      </trkpt>
      <trkpt lat="41.08603" lon="19.61527">
        <ele>47.88237</ele>
        <time>2022-05-03T10:47:01.619Z</time>
      </trkpt>
      <trkpt lat="41.0861" lon="19.61517">
        <ele>48.054732</ele>
        <time>2022-05-03T10:47:03.627Z</time>
      </trkpt>
      <trkpt lat="41.08616" lon="19.61507">
        <ele>48.228048</ele>
        <time>2022-05-03T10:47:05.619Z</time>
      </trkpt>
      <trkpt lat="41.08623" lon="19.61497">
        <ele>48.407328</ele>
        <time>2022-05-03T10:47:07.626Z</time>
      </trkpt>
      <trkpt lat="41.08631" lon="19.61486">
        <ele>48.599079</ele>
        <time>2022-05-03T10:47:09.630Z</time>
      </trkpt>
      <trkpt lat="41.08638" lon="19.61475">
        <ele>48.791443</ele>
        <time>2022-05-03T10:47:11.628Z</time>
      </trkpt>
      <trkpt lat="41.08646" lon="19.61465">
        <ele>48.97745</ele>
        <time>2022-05-03T10:47:13.638Z</time>
      </trkpt>
      <trkpt lat="41.08653" lon="19.61454">
        <ele>49.165574</ele>
        <time>2022-05-03T10:47:15.664Z</time>
      </trkpt>
      <trkpt lat="41.08661" lon="19.61444">
        <ele>49.349464</ele>
        <time>2022-05-03T10:47:17.618Z</time>
      </trkpt>
      <trkpt lat="41.08668" lon="19.61433">
        <ele>49.529882</ele>
        <time>2022-05-03T10:47:19.627Z</time>
      </trkpt>
      <trkpt lat="41.08674" lon="19.61423">
        <ele>49.699936</ele>
        <time>2022-05-03T10:47:21.650Z</time>
      </trkpt>
      <trkpt lat="41.08681" lon="19.61414">
        <ele>49.869027</ele>
        <time>2022-05-03T10:47:23.611Z</time>
      </trkpt>
      <trkpt lat="41.08687" lon="19.61404">
        <ele>50.03179</ele>
        <time>2022-05-03T10:47:25.627Z</time>
      </trkpt>
      <trkpt lat="41.08693" lon="19.61395">
        <ele>50.191673</ele>
        <time>2022-05-03T10:47:27.684Z</time>
      </trkpt>
      <trkpt lat="41.08702" lon="19.61382">
        <ele>50.420841</ele>
        <time>2022-05-03T10:47:30.624Z</time>
      </trkpt>
      <trkpt lat="41.08711" lon="19.61369">
        <ele>50.515623</ele>
        <time>2022-05-03T10:47:33.638Z</time>
      </trkpt>
      <trkpt lat="41.08719" lon="19.61356">
        <ele>50.463099</ele>
        <time>2022-05-03T10:47:36.635Z</time>
      </trkpt>
      <trkpt lat="41.08727" lon="19.61342">
        <ele>50.408352</ele>
        <time>2022-05-03T10:47:39.624Z</time>
      </trkpt>
      <trkpt lat="41.08733" lon="19.61333">
        <ele>50.370444</ele>
        <time>2022-05-03T10:47:41.619Z</time>
      </trkpt>
      <trkpt lat="41.08739" lon="19.61323">
        <ele>50.3323</ele>
        <time>2022-05-03T10:47:43.640Z</time>
      </trkpt>
      <trkpt lat="41.08745" lon="19.61313">
        <ele>50.293921</ele>
        <time>2022-05-03T10:47:45.624Z</time>
      </trkpt>
      <trkpt lat="41.08751" lon="19.61304">
        <ele>50.254989</ele>
        <time>2022-05-03T10:47:47.631Z</time>
      </trkpt>
      <trkpt lat="41.08758" lon="19.61293">
        <ele>50.214161</ele>
        <time>2022-05-03T10:47:49.662Z</time>
      </trkpt>
      <trkpt lat="41.08765" lon="19.61283">
        <ele>50.172779</ele>
        <time>2022-05-03T10:47:51.626Z</time>
      </trkpt>
      <trkpt lat="41.08771" lon="19.61273">
        <ele>50.131166</ele>
        <time>2022-05-03T10:47:53.628Z</time>
      </trkpt>
      <trkpt lat="41.08778" lon="19.61263">
        <ele>50.090014</ele>
        <time>2022-05-03T10:47:55.612Z</time>
      </trkpt>
      <trkpt lat="41.08785" lon="19.61253">
        <ele>50.049092</ele>
        <time>2022-05-03T10:47:57.610Z</time>
      </trkpt>
      <trkpt lat="41.08791" lon="19.61243">
        <ele>50.009892</ele>
        <time>2022-05-03T10:47:59.645Z</time>
      </trkpt>
      <trkpt lat="41.08798" lon="19.61234">
        <ele>49.970423</ele>
        <time>2022-05-03T10:48:01.662Z</time>
      </trkpt>
      <trkpt lat="41.08804" lon="19.61224">
        <ele>49.930795</ele>
        <time>2022-05-03T10:48:03.618Z</time>
      </trkpt>
      <trkpt lat="41.0881" lon="19.61214">
        <ele>49.891685</ele>
        <time>2022-05-03T10:48:05.627Z</time>
      </trkpt>
      <trkpt lat="41.08816" lon="19.61204">
        <ele>49.851561</ele>
        <time>2022-05-03T10:48:07.669Z</time>
      </trkpt>
      <trkpt lat="41.08823" lon="19.61194">
        <ele>49.812398</ele>
        <time>2022-05-03T10:48:09.627Z</time>
      </trkpt>
      <trkpt lat="41.08828" lon="19.61183">
        <ele>50.030589</ele>
        <time>2022-05-03T10:48:11.626Z</time>
      </trkpt>
      <trkpt lat="41.08829" lon="19.61171">
        <ele>50.259004</ele>
        <time>2022-05-03T10:48:13.630Z</time>
      </trkpt>
      <trkpt lat="41.08828" lon="19.61159">
        <ele>50.501538</ele>
        <time>2022-05-03T10:48:15.617Z</time>
      </trkpt>
      <trkpt lat="41.08825" lon="19.61147">
        <ele>50.740838</ele>
        <time>2022-05-03T10:48:17.616Z</time>
      </trkpt>
      <trkpt lat="41.08819" lon="19.61131">
        <ele>51.066183</ele>
        <time>2022-05-03T10:48:20.671Z</time>
      </trkpt>
      <trkpt lat="41.08816" lon="19.61114">
        <ele>51.401921</ele>
        <time>2022-05-03T10:48:23.650Z</time>
      </trkpt>
      <trkpt lat="41.08821" lon="19.61102">
        <ele>51.683317</ele>
        <time>2022-05-03T10:48:26.631Z</time>
      </trkpt>
      <trkpt lat="41.08832" lon="19.61091">
        <ele>52.013638</ele>
        <time>2022-05-03T10:48:29.624Z</time>
      </trkpt>
      <trkpt lat="41.08841" lon="19.61078">
        <ele>52.356316</ele>
        <time>2022-05-03T10:48:32.624Z</time>
      </trkpt>
      <trkpt lat="41.08849" lon="19.6107">
        <ele>52.614493</ele>
        <time>2022-05-03T10:48:34.623Z</time>
      </trkpt>
      <trkpt lat="41.08858" lon="19.61065">
        <ele>52.852917</ele>
        <time>2022-05-03T10:48:36.678Z</time>
      </trkpt>
      <trkpt lat="41.08869" lon="19.61062">
        <ele>53.145043</ele>
        <time>2022-05-03T10:48:39.656Z</time>
      </trkpt>
      <trkpt lat="41.08879" lon="19.61061">
        <ele>53.385446</ele>
        <time>2022-05-03T10:48:43.623Z</time>
      </trkpt>
      <trkpt lat="41.08888" lon="19.61062">
        <ele>53.615791</ele>
        <time>2022-05-03T10:48:49.631Z</time>
      </trkpt>
      <trkpt lat="41.08897" lon="19.61064">
        <ele>53.857635</ele>
        <time>2022-05-03T10:48:55.606Z</time>
      </trkpt>
      <trkpt lat="41.08907" lon="19.6107">
        <ele>54.12218</ele>
        <time>2022-05-03T10:49:02.624Z</time>
      </trkpt>
      <trkpt lat="41.08915" lon="19.61076">
        <ele>54.346284</ele>
        <time>2022-05-03T10:49:08.613Z</time>
      </trkpt>
      <trkpt lat="41.08923" lon="19.61085">
        <ele>54.345705</ele>
        <time>2022-05-03T10:49:15.624Z</time>
      </trkpt>
      <trkpt lat="41.08929" lon="19.61097">
        <ele>54.345128</ele>
        <time>2022-05-03T10:49:22.628Z</time>
      </trkpt>
      <trkpt lat="41.08934" lon="19.61109">
        <ele>54.34453</ele>
        <time>2022-05-03T10:49:27.627Z</time>
      </trkpt>
      <trkpt lat="41.08939" lon="19.61122">
        <ele>54.343957</ele>
        <time>2022-05-03T10:49:31.660Z</time>
      </trkpt>
      <trkpt lat="41.08944" lon="19.61136">
        <ele>54.343304</ele>
        <time>2022-05-03T10:49:34.622Z</time>
      </trkpt>
      <trkpt lat="41.08947" lon="19.61148">
        <ele>54.342773</ele>
        <time>2022-05-03T10:49:36.637Z</time>
      </trkpt>
      <trkpt lat="41.0895" lon="19.61161">
        <ele>54.342181</ele>
        <time>2022-05-03T10:49:38.611Z</time>
      </trkpt>
      <trkpt lat="41.08952" lon="19.61177">
        <ele>54.341513</ele>
        <time>2022-05-03T10:49:40.629Z</time>
      </trkpt>
      <trkpt lat="41.08951" lon="19.61194">
        <ele>54.34082</ele>
        <time>2022-05-03T10:49:42.682Z</time>
      </trkpt>
      <trkpt lat="41.08948" lon="19.61211">
        <ele>54.340073</ele>
        <time>2022-05-03T10:49:44.624Z</time>
      </trkpt>
      <trkpt lat="41.08943" lon="19.61227">
        <ele>54.339343</ele>
        <time>2022-05-03T10:49:46.625Z</time>
      </trkpt>
      <trkpt lat="41.08935" lon="19.61241">
        <ele>54.338634</ele>
        <time>2022-05-03T10:49:48.620Z</time>
      </trkpt>
      <trkpt lat="41.08926" lon="19.61252">
        <ele>54.337928</ele>
        <time>2022-05-03T10:49:50.621Z</time>
      </trkpt>
      <trkpt lat="41.08915" lon="19.61261">
        <ele>54.337232</ele>
        <time>2022-05-03T10:49:52.677Z</time>
      </trkpt>
      <trkpt lat="41.08903" lon="19.61265">
        <ele>54.336519</ele>
        <time>2022-05-03T10:49:54.619Z</time>
      </trkpt>
      <trkpt lat="41.08891" lon="19.61267">
        <ele>54.676527</ele>
        <time>2022-05-03T10:49:56.724Z</time>
      </trkpt>
      <trkpt lat="41.08882" lon="19.61278">
        <ele>55.091605</ele>
        <time>2022-05-03T10:49:58.628Z</time>
      </trkpt>
      <trkpt lat="41.08882" lon="19.61294">
        <ele>55.514424</ele>
        <time>2022-05-03T10:50:00.608Z</time>
      </trkpt>
      <trkpt lat="41.08888" lon="19.61304">
        <ele>55.879686</ele>
        <time>2022-05-03T10:50:02.611Z</time>
      </trkpt>
      <trkpt lat="41.08896" lon="19.61313">
        <ele>56.244506</ele>
        <time>2022-05-03T10:50:04.674Z</time>
      </trkpt>
      <trkpt lat="41.08902" lon="19.61322">
        <ele>56.566688</ele>
        <time>2022-05-03T10:50:06.681Z</time>
      </trkpt>
      <trkpt lat="41.08911" lon="19.61335">
        <ele>57.032391</ele>
        <time>2022-05-03T10:50:09.628Z</time>
      </trkpt>
      <trkpt lat="41.08919" lon="19.61348">
        <ele>57.49011</ele>
        <time>2022-05-03T10:50:12.616Z</time>
      </trkpt>
      <trkpt lat="41.08927" lon="19.61359">
        <ele>57.904523</ele>
        <time>2022-05-03T10:50:15.664Z</time>
      </trkpt>
      <trkpt lat="41.08934" lon="19.61369">
        <ele>58.269109</ele>
        <time>2022-05-03T10:50:18.645Z</time>
      </trkpt>
      <trkpt lat="41.08941" lon="19.61382">
        <ele>58.69417</ele>
        <time>2022-05-03T10:50:22.615Z</time>
      </trkpt>
      <trkpt lat="41.08946" lon="19.61393">
        <ele>59.039188</ele>
        <time>2022-05-03T10:50:25.627Z</time>
      </trkpt>
      <trkpt lat="41.08953" lon="19.61403">
        <ele>59.396435</ele>
        <time>2022-05-03T10:50:28.629Z</time>
      </trkpt>
      <trkpt lat="41.08958" lon="19.61413">
        <ele>59.71895</ele>
        <time>2022-05-03T10:50:31.654Z</time>
      </trkpt>
      <trkpt lat="41.08963" lon="19.61423">
        <ele>60.040263</ele>
        <time>2022-05-03T10:50:35.634Z</time>
      </trkpt>
      <trkpt lat="41.08969" lon="19.61436">
        <ele>60.432463</ele>
        <time>2022-05-03T10:50:39.687Z</time>
      </trkpt>
      <trkpt lat="41.08974" lon="19.61447">
        <ele>60.737082</ele>
        <time>2022-05-03T10:50:43.628Z</time>
      </trkpt>
      <trkpt lat="41.08979" lon="19.61458">
        <ele>60.829133</ele>
        <time>2022-05-03T10:50:47.629Z</time>
      </trkpt>
      <trkpt lat="41.08984" lon="19.61469">
        <ele>60.920106</ele>
        <time>2022-05-03T10:50:51.629Z</time>
      </trkpt>
      <trkpt lat="41.0899" lon="19.61481">
        <ele>61.015679</ele>
        <time>2022-05-03T10:50:55.627Z</time>
      </trkpt>
      <trkpt lat="41.08996" lon="19.61491">
        <ele>61.110419</ele>
        <time>2022-05-03T10:50:59.675Z</time>
      </trkpt>
      <trkpt lat="41.09003" lon="19.61502">
        <ele>61.2094</ele>
        <time>2022-05-03T10:51:03.632Z</time>
      </trkpt>
      <trkpt lat="41.0901" lon="19.61512">
        <ele>61.309366</ele>
        <time>2022-05-03T10:51:07.628Z</time>
      </trkpt>
      <trkpt lat="41.0902" lon="19.61514">
        <ele>61.404746</ele>
        <time>2022-05-03T10:51:10.658Z</time>
      </trkpt>
      <trkpt lat="41.0903" lon="19.61508">
        <ele>61.502432</ele>
        <time>2022-05-03T10:51:13.626Z</time>
      </trkpt>
      <trkpt lat="41.09038" lon="19.61501">
        <ele>61.595737</ele>
        <time>2022-05-03T10:51:16.677Z</time>
      </trkpt>
      <trkpt lat="41.09046" lon="19.61493">
        <ele>61.690015</ele>
        <time>2022-05-03T10:51:19.615Z</time>
      </trkpt>
      <trkpt lat="41.09055" lon="19.61486">
        <ele>61.784907</ele>
        <time>2022-05-03T10:51:22.625Z</time>
      </trkpt>
      <trkpt lat="41.09065" lon="19.61477">
        <ele>61.897885</ele>
        <time>2022-05-03T10:51:25.628Z</time>
      </trkpt>
      <trkpt lat="41.09077" lon="19.61469">
        <ele>62.027156</ele>
        <time>2022-05-03T10:51:28.630Z</time>
      </trkpt>
      <trkpt lat="41.09086" lon="19.61462">
        <ele>62.119421</ele>
        <time>2022-05-03T10:51:30.621Z</time>
      </trkpt>
      <trkpt lat="41.09094" lon="19.61455">
        <ele>62.215067</ele>
        <time>2022-05-03T10:51:32.644Z</time>
      </trkpt>
      <trkpt lat="41.09103" lon="19.61447">
        <ele>62.311177</ele>
        <time>2022-05-03T10:51:34.639Z</time>
      </trkpt>
      <trkpt lat="41.09111" lon="19.61439">
        <ele>62.391922</ele>
        <time>2022-05-03T10:51:36.622Z</time>
      </trkpt>
      <trkpt lat="41.09119" lon="19.61431">
        <ele>62.08937</ele>
        <time>2022-05-03T10:51:38.663Z</time>
      </trkpt>
      <trkpt lat="41.09128" lon="19.61423">
        <ele>61.774825</ele>
        <time>2022-05-03T10:51:40.626Z</time>
      </trkpt>
      <trkpt lat="41.09137" lon="19.61414">
        <ele>61.44176</ele>
        <time>2022-05-03T10:51:42.618Z</time>
      </trkpt>
      <trkpt lat="41.09147" lon="19.61406">
        <ele>61.088799</ele>
        <time>2022-05-03T10:51:44.618Z</time>
      </trkpt>
      <trkpt lat="41.09158" lon="19.61397">
        <ele>60.710937</ele>
        <time>2022-05-03T10:51:46.632Z</time>
      </trkpt>
      <trkpt lat="41.09169" lon="19.61389">
        <ele>60.335622</ele>
        <time>2022-05-03T10:51:48.616Z</time>
      </trkpt>
      <trkpt lat="41.09181" lon="19.6138">
        <ele>59.951189</ele>
        <time>2022-05-03T10:51:50.631Z</time>
      </trkpt>
      <trkpt lat="41.09192" lon="19.61371">
        <ele>59.563671</ele>
        <time>2022-05-03T10:51:52.631Z</time>
      </trkpt>
      <trkpt lat="41.09203" lon="19.61363">
        <ele>59.175563</ele>
        <time>2022-05-03T10:51:54.626Z</time>
      </trkpt>
      <trkpt lat="41.09214" lon="19.61354">
        <ele>58.798479</ele>
        <time>2022-05-03T10:51:56.616Z</time>
      </trkpt>
      <trkpt lat="41.09226" lon="19.61346">
        <ele>58.408887</ele>
        <time>2022-05-03T10:51:58.628Z</time>
      </trkpt>
      <trkpt lat="41.09236" lon="19.61338">
        <ele>58.045402</ele>
        <time>2022-05-03T10:52:00.633Z</time>
      </trkpt>
      <trkpt lat="41.09247" lon="19.6133">
        <ele>57.686677</ele>
        <time>2022-05-03T10:52:02.630Z</time>
      </trkpt>
      <trkpt lat="41.09258" lon="19.61323">
        <ele>57.333758</ele>
        <time>2022-05-03T10:52:04.616Z</time>
      </trkpt>
      <trkpt lat="41.09268" lon="19.61315">
        <ele>57.038033</ele>
        <time>2022-05-03T10:52:06.666Z</time>
      </trkpt>
      <trkpt lat="41.09279" lon="19.61308">
        <ele>56.882539</ele>
        <time>2022-05-03T10:52:08.618Z</time>
      </trkpt>
      <trkpt lat="41.09289" lon="19.61301">
        <ele>56.729379</ele>
        <time>2022-05-03T10:52:10.624Z</time>
      </trkpt>
      <trkpt lat="41.09299" lon="19.61295">
        <ele>56.587076</ele>
        <time>2022-05-03T10:52:12.626Z</time>
      </trkpt>
      <trkpt lat="41.09309" lon="19.61288">
        <ele>56.443602</ele>
        <time>2022-05-03T10:52:14.632Z</time>
      </trkpt>
      <trkpt lat="41.09318" lon="19.61282">
        <ele>56.303034</ele>
        <time>2022-05-03T10:52:16.613Z</time>
      </trkpt>
      <trkpt lat="41.09327" lon="19.61276">
        <ele>56.168162</ele>
        <time>2022-05-03T10:52:18.636Z</time>
      </trkpt>
      <trkpt lat="41.09336" lon="19.61269">
        <ele>56.041317</ele>
        <time>2022-05-03T10:52:20.624Z</time>
      </trkpt>
      <trkpt lat="41.09347" lon="19.61261">
        <ele>55.87128</ele>
        <time>2022-05-03T10:52:23.630Z</time>
      </trkpt>
      <trkpt lat="41.09356" lon="19.61257">
        <ele>55.753105</ele>
        <time>2022-05-03T10:52:25.605Z</time>
      </trkpt>
      <trkpt lat="41.09364" lon="19.61251">
        <ele>55.633227</ele>
        <time>2022-05-03T10:52:27.615Z</time>
      </trkpt>
      <trkpt lat="41.09375" lon="19.61244">
        <ele>55.466352</ele>
        <time>2022-05-03T10:52:30.635Z</time>
      </trkpt>
      <trkpt lat="41.09384" lon="19.6124">
        <ele>55.347352</ele>
        <time>2022-05-03T10:52:32.628Z</time>
      </trkpt>
      <trkpt lat="41.09392" lon="19.61235">
        <ele>55.223997</ele>
        <time>2022-05-03T10:52:34.624Z</time>
      </trkpt>
      <trkpt lat="41.09401" lon="19.6123">
        <ele>55.104155</ele>
        <time>2022-05-03T10:52:36.635Z</time>
      </trkpt>
      <trkpt lat="41.0941" lon="19.61226">
        <ele>54.984487</ele>
        <time>2022-05-03T10:52:38.624Z</time>
      </trkpt>
      <trkpt lat="41.09418" lon="19.61222">
        <ele>54.865472</ele>
        <time>2022-05-03T10:52:40.628Z</time>
      </trkpt>
      <trkpt lat="41.09431" lon="19.61216">
        <ele>54.756299</ele>
        <time>2022-05-03T10:52:43.611Z</time>
      </trkpt>
      <trkpt lat="41.09443" lon="19.6121">
        <ele>54.896046</ele>
        <time>2022-05-03T10:52:46.616Z</time>
      </trkpt>
      <trkpt lat="41.09452" lon="19.61205">
        <ele>54.992378</ele>
        <time>2022-05-03T10:52:48.606Z</time>
      </trkpt>
      <trkpt lat="41.0946" lon="19.612">
        <ele>55.091712</ele>
        <time>2022-05-03T10:52:50.620Z</time>
      </trkpt>
      <trkpt lat="41.09469" lon="19.61196">
        <ele>55.190764</ele>
        <time>2022-05-03T10:52:52.616Z</time>
      </trkpt>
      <trkpt lat="41.09479" lon="19.61191">
        <ele>55.297011</ele>
        <time>2022-05-03T10:52:54.644Z</time>
      </trkpt>
      <trkpt lat="41.09488" lon="19.61187">
        <ele>55.404082</ele>
        <time>2022-05-03T10:52:56.642Z</time>
      </trkpt>
      <trkpt lat="41.09498" lon="19.61183">
        <ele>55.507056</ele>
        <time>2022-05-03T10:52:58.633Z</time>
      </trkpt>
      <trkpt lat="41.09507" lon="19.61179">
        <ele>55.608545</ele>
        <time>2022-05-03T10:53:00.631Z</time>
      </trkpt>
      <trkpt lat="41.09516" lon="19.61175">
        <ele>55.711518</ele>
        <time>2022-05-03T10:53:02.654Z</time>
      </trkpt>
      <trkpt lat="41.09526" lon="19.61171">
        <ele>55.816381</ele>
        <time>2022-05-03T10:53:04.624Z</time>
      </trkpt>
      <trkpt lat="41.09535" lon="19.61167">
        <ele>55.92337</ele>
        <time>2022-05-03T10:53:06.627Z</time>
      </trkpt>
      <trkpt lat="41.09545" lon="19.61163">
        <ele>56.027591</ele>
        <time>2022-05-03T10:53:08.652Z</time>
      </trkpt>
      <trkpt lat="41.09554" lon="19.61159">
        <ele>56.127564</ele>
        <time>2022-05-03T10:53:10.627Z</time>
      </trkpt>
      <trkpt lat="41.09563" lon="19.61155">
        <ele>56.2258</ele>
        <time>2022-05-03T10:53:12.630Z</time>
      </trkpt>
      <trkpt lat="41.09571" lon="19.61152">
        <ele>56.321327</ele>
        <time>2022-05-03T10:53:14.668Z</time>
      </trkpt>
      <trkpt lat="41.0958" lon="19.61148">
        <ele>56.420337</ele>
        <time>2022-05-03T10:53:16.628Z</time>
      </trkpt>
      <trkpt lat="41.0959" lon="19.61144">
        <ele>56.524558</ele>
        <time>2022-05-03T10:53:18.634Z</time>
      </trkpt>
      <trkpt lat="41.09599" lon="19.6114">
        <ele>56.614411</ele>
        <time>2022-05-03T10:53:20.658Z</time>
      </trkpt>
      <trkpt lat="41.09609" lon="19.61136">
        <ele>56.555675</ele>
        <time>2022-05-03T10:53:22.615Z</time>
      </trkpt>
      <trkpt lat="41.09618" lon="19.61132">
        <ele>56.496654</ele>
        <time>2022-05-03T10:53:24.614Z</time>
      </trkpt>
      <trkpt lat="41.09627" lon="19.61128">
        <ele>56.439045</ele>
        <time>2022-05-03T10:53:26.623Z</time>
      </trkpt>
      <trkpt lat="41.09636" lon="19.61125">
        <ele>56.382759</ele>
        <time>2022-05-03T10:53:28.634Z</time>
      </trkpt>
      <trkpt lat="41.09645" lon="19.61121">
        <ele>56.327701</ele>
        <time>2022-05-03T10:53:30.631Z</time>
      </trkpt>
      <trkpt lat="41.09654" lon="19.61118">
        <ele>56.272371</ele>
        <time>2022-05-03T10:53:32.619Z</time>
      </trkpt>
      <trkpt lat="41.09663" lon="19.61114">
        <ele>56.216423</ele>
        <time>2022-05-03T10:53:34.635Z</time>
      </trkpt>
      <trkpt lat="41.09671" lon="19.6111">
        <ele>56.162229</ele>
        <time>2022-05-03T10:53:36.618Z</time>
      </trkpt>
      <trkpt lat="41.0968" lon="19.61107">
        <ele>56.10743</ele>
        <time>2022-05-03T10:53:38.613Z</time>
      </trkpt>
      <trkpt lat="41.09693" lon="19.61101">
        <ele>56.02882</ele>
        <time>2022-05-03T10:53:41.625Z</time>
      </trkpt>
      <trkpt lat="41.09701" lon="19.61097">
        <ele>55.974767</ele>
        <time>2022-05-03T10:53:43.635Z</time>
      </trkpt>
      <trkpt lat="41.0971" lon="19.61094">
        <ele>55.920005</ele>
        <time>2022-05-03T10:53:45.615Z</time>
      </trkpt>
      <trkpt lat="41.09719" lon="19.6109">
        <ele>55.865666</ele>
        <time>2022-05-03T10:53:47.623Z</time>
      </trkpt>
      <trkpt lat="41.09727" lon="19.61086">
        <ele>55.809485</ele>
        <time>2022-05-03T10:53:49.627Z</time>
      </trkpt>
      <trkpt lat="41.09736" lon="19.61081">
        <ele>55.751149</ele>
        <time>2022-05-03T10:53:51.618Z</time>
      </trkpt>
      <trkpt lat="41.09745" lon="19.61076">
        <ele>55.696288</ele>
        <time>2022-05-03T10:53:53.628Z</time>
      </trkpt>
      <trkpt lat="41.09753" lon="19.61071">
        <ele>55.641232</ele>
        <time>2022-05-03T10:53:55.598Z</time>
      </trkpt>
      <trkpt lat="41.09765" lon="19.61065">
        <ele>55.566672</ele>
        <time>2022-05-03T10:53:58.620Z</time>
      </trkpt>
      <trkpt lat="41.09777" lon="19.6106">
        <ele>55.564608</ele>
        <time>2022-05-03T10:54:01.630Z</time>
      </trkpt>
      <trkpt lat="41.09789" lon="19.61055">
        <ele>55.59377</ele>
        <time>2022-05-03T10:54:04.631Z</time>
      </trkpt>
      <trkpt lat="41.09801" lon="19.6105">
        <ele>55.622881</ele>
        <time>2022-05-03T10:54:07.634Z</time>
      </trkpt>
      <trkpt lat="41.09813" lon="19.61044">
        <ele>55.652313</ele>
        <time>2022-05-03T10:54:10.619Z</time>
      </trkpt>
      <trkpt lat="41.09826" lon="19.61039">
        <ele>55.681477</ele>
        <time>2022-05-03T10:54:13.634Z</time>
      </trkpt>
      <trkpt lat="41.09838" lon="19.61034">
        <ele>55.710123</ele>
        <time>2022-05-03T10:54:16.659Z</time>
      </trkpt>
      <trkpt lat="41.0985" lon="19.61029">
        <ele>55.73935</ele>
        <time>2022-05-03T10:54:19.626Z</time>
      </trkpt>
      <trkpt lat="41.09862" lon="19.61024">
        <ele>55.768403</ele>
        <time>2022-05-03T10:54:22.634Z</time>
      </trkpt>
      <trkpt lat="41.09874" lon="19.61018">
        <ele>55.797727</ele>
        <time>2022-05-03T10:54:25.628Z</time>
      </trkpt>
      <trkpt lat="41.09887" lon="19.61013">
        <ele>55.827808</ele>
        <time>2022-05-03T10:54:28.638Z</time>
      </trkpt>
      <trkpt lat="41.09899" lon="19.61007">
        <ele>55.858107</ele>
        <time>2022-05-03T10:54:31.662Z</time>
      </trkpt>
      <trkpt lat="41.09912" lon="19.61003">
        <ele>55.888243</ele>
        <time>2022-05-03T10:54:34.630Z</time>
      </trkpt>
      <trkpt lat="41.09925" lon="19.60998">
        <ele>55.917955</ele>
        <time>2022-05-03T10:54:37.622Z</time>
      </trkpt>
      <trkpt lat="41.09937" lon="19.60992">
        <ele>55.947663</ele>
        <time>2022-05-03T10:54:40.628Z</time>
      </trkpt>
      <trkpt lat="41.0995" lon="19.60987">
        <ele>56.194542</ele>
        <time>2022-05-03T10:54:43.625Z</time>
      </trkpt>
      <trkpt lat="41.09962" lon="19.60981">
        <ele>56.490053</ele>
        <time>2022-05-03T10:54:46.611Z</time>
      </trkpt>
      <trkpt lat="41.09974" lon="19.60975">
        <ele>56.795274</ele>
        <time>2022-05-03T10:54:49.618Z</time>
      </trkpt>
      <trkpt lat="41.09987" lon="19.60969">
        <ele>57.095693</ele>
        <time>2022-05-03T10:54:52.629Z</time>
      </trkpt>
      <trkpt lat="41.09998" lon="19.60963">
        <ele>57.386577</ele>
        <time>2022-05-03T10:54:55.654Z</time>
      </trkpt>
      <trkpt lat="41.1001" lon="19.60958">
        <ele>57.675482</ele>
        <time>2022-05-03T10:54:58.616Z</time>
      </trkpt>
      <trkpt lat="41.10023" lon="19.60954">
        <ele>57.977419</ele>
        <time>2022-05-03T10:55:01.664Z</time>
      </trkpt>
      <trkpt lat="41.10035" lon="19.60949">
        <ele>58.263616</ele>
        <time>2022-05-03T10:55:04.622Z</time>
      </trkpt>
      <trkpt lat="41.10047" lon="19.60945">
        <ele>58.544359</ele>
        <time>2022-05-03T10:55:07.616Z</time>
      </trkpt>
      <trkpt lat="41.1006" lon="19.60943">
        <ele>58.843332</ele>
        <time>2022-05-03T10:55:10.624Z</time>
      </trkpt>
      <trkpt lat="41.10073" lon="19.60942">
        <ele>59.139825</ele>
        <time>2022-05-03T10:55:13.624Z</time>
      </trkpt>
      <trkpt lat="41.10086" lon="19.60941">
        <ele>59.448208</ele>
        <time>2022-05-03T10:55:16.615Z</time>
      </trkpt>
      <trkpt lat="41.10095" lon="19.6094">
        <ele>59.657492</ele>
        <time>2022-05-03T10:55:18.625Z</time>
      </trkpt>
      <trkpt lat="41.10104" lon="19.6094">
        <ele>59.868991</ele>
        <time>2022-05-03T10:55:20.620Z</time>
      </trkpt>
      <trkpt lat="41.10114" lon="19.60938">
        <ele>60.082228</ele>
        <time>2022-05-03T10:55:22.630Z</time>
      </trkpt>
      <trkpt lat="41.10124" lon="19.60938">
        <ele>60.024514</ele>
        <time>2022-05-03T10:55:24.624Z</time>
      </trkpt>
      <trkpt lat="41.10134" lon="19.60937">
        <ele>59.965513</ele>
        <time>2022-05-03T10:55:26.625Z</time>
      </trkpt>
      <trkpt lat="41.10144" lon="19.60935">
        <ele>59.904995</ele>
        <time>2022-05-03T10:55:28.614Z</time>
      </trkpt>
      <trkpt lat="41.10154" lon="19.60934">
        <ele>59.843485</ele>
        <time>2022-05-03T10:55:30.608Z</time>
      </trkpt>
      <trkpt lat="41.10165" lon="19.60932">
        <ele>59.778943</ele>
        <time>2022-05-03T10:55:32.631Z</time>
      </trkpt>
      <trkpt lat="41.10176" lon="19.60931">
        <ele>59.712092</ele>
        <time>2022-05-03T10:55:34.611Z</time>
      </trkpt>
      <trkpt lat="41.10187" lon="19.6093">
        <ele>59.642282</ele>
        <time>2022-05-03T10:55:36.624Z</time>
      </trkpt>
      <trkpt lat="41.10199" lon="19.60929">
        <ele>59.570607</ele>
        <time>2022-05-03T10:55:38.621Z</time>
      </trkpt>
      <trkpt lat="41.10212" lon="19.60928">
        <ele>59.494862</ele>
        <time>2022-05-03T10:55:40.619Z</time>
      </trkpt>
      <trkpt lat="41.10225" lon="19.60927">
        <ele>59.41487</ele>
        <time>2022-05-03T10:55:42.645Z</time>
      </trkpt>
      <trkpt lat="41.10239" lon="19.60925">
        <ele>59.332184</ele>
        <time>2022-05-03T10:55:44.627Z</time>
      </trkpt>
      <trkpt lat="41.10252" lon="19.60924">
        <ele>59.250993</ele>
        <time>2022-05-03T10:55:46.629Z</time>
      </trkpt>
      <trkpt lat="41.10266" lon="19.60922">
        <ele>59.169592</ele>
        <time>2022-05-03T10:55:48.633Z</time>
      </trkpt>
      <trkpt lat="41.10279" lon="19.60921">
        <ele>59.088905</ele>
        <time>2022-05-03T10:55:50.610Z</time>
      </trkpt>
      <trkpt lat="41.10293" lon="19.60919">
        <ele>59.008182</ele>
        <time>2022-05-03T10:55:52.634Z</time>
      </trkpt>
      <trkpt lat="41.10306" lon="19.60918">
        <ele>58.784671</ele>
        <time>2022-05-03T10:55:54.664Z</time>
      </trkpt>
      <trkpt lat="41.1032" lon="19.60916">
        <ele>58.557311</ele>
        <time>2022-05-03T10:55:56.623Z</time>
      </trkpt>
      <trkpt lat="41.10333" lon="19.60915">
        <ele>58.328011</ele>
        <time>2022-05-03T10:55:58.618Z</time>
      </trkpt>
      <trkpt lat="41.10347" lon="19.60914">
        <ele>58.102062</ele>
        <time>2022-05-03T10:56:00.609Z</time>
      </trkpt>
      <trkpt lat="41.10361" lon="19.60912">
        <ele>57.867528</ele>
        <time>2022-05-03T10:56:02.644Z</time>
      </trkpt>
      <trkpt lat="41.10374" lon="19.60911">
        <ele>57.648381</ele>
        <time>2022-05-03T10:56:04.620Z</time>
      </trkpt>
      <trkpt lat="41.10386" lon="19.6091">
        <ele>57.434356</ele>
        <time>2022-05-03T10:56:06.659Z</time>
      </trkpt>
      <trkpt lat="41.10399" lon="19.60909">
        <ele>57.227207</ele>
        <time>2022-05-03T10:56:08.619Z</time>
      </trkpt>
      <trkpt lat="41.1041" lon="19.60908">
        <ele>57.035157</ele>
        <time>2022-05-03T10:56:10.642Z</time>
      </trkpt>
      <trkpt lat="41.10421" lon="19.60906">
        <ele>56.846168</ele>
        <time>2022-05-03T10:56:12.628Z</time>
      </trkpt>
      <trkpt lat="41.10432" lon="19.60905">
        <ele>56.669012</ele>
        <time>2022-05-03T10:56:14.629Z</time>
      </trkpt>
      <trkpt lat="41.10442" lon="19.60904">
        <ele>56.493896</ele>
        <time>2022-05-03T10:56:16.632Z</time>
      </trkpt>
      <trkpt lat="41.10453" lon="19.60903">
        <ele>56.315424</ele>
        <time>2022-05-03T10:56:18.614Z</time>
      </trkpt>
      <trkpt lat="41.10463" lon="19.60902">
        <ele>56.142914</ele>
        <time>2022-05-03T10:56:20.629Z</time>
      </trkpt>
      <trkpt lat="41.10473" lon="19.60901">
        <ele>55.983606</ele>
        <time>2022-05-03T10:56:22.630Z</time>
      </trkpt>
      <trkpt lat="41.10482" lon="19.60899">
        <ele>56.048032</ele>
        <time>2022-05-03T10:56:24.627Z</time>
      </trkpt>
      <trkpt lat="41.10492" lon="19.60897">
        <ele>56.115211</ele>
        <time>2022-05-03T10:56:26.634Z</time>
      </trkpt>
      <trkpt lat="41.10502" lon="19.60895">
        <ele>56.181862</ele>
        <time>2022-05-03T10:56:28.647Z</time>
      </trkpt>
      <trkpt lat="41.10511" lon="19.60893">
        <ele>56.249632</ele>
        <time>2022-05-03T10:56:30.620Z</time>
      </trkpt>
      <trkpt lat="41.10522" lon="19.60891">
        <ele>56.319648</ele>
        <time>2022-05-03T10:56:32.628Z</time>
      </trkpt>
      <trkpt lat="41.10531" lon="19.60889">
        <ele>56.382071</ele>
        <time>2022-05-03T10:56:34.648Z</time>
      </trkpt>
      <trkpt lat="41.10541" lon="19.60887">
        <ele>56.450001</ele>
        <time>2022-05-03T10:56:36.625Z</time>
      </trkpt>
      <trkpt lat="41.1055" lon="19.60885">
        <ele>56.515763</ele>
        <time>2022-05-03T10:56:38.615Z</time>
      </trkpt>
      <trkpt lat="41.1056" lon="19.60883">
        <ele>56.581025</ele>
        <time>2022-05-03T10:56:40.624Z</time>
      </trkpt>
      <trkpt lat="41.10569" lon="19.6088">
        <ele>56.647135</ele>
        <time>2022-05-03T10:56:42.623Z</time>
      </trkpt>
      <trkpt lat="41.10579" lon="19.60878">
        <ele>56.711644</ele>
        <time>2022-05-03T10:56:44.615Z</time>
      </trkpt>
      <trkpt lat="41.10588" lon="19.60876">
        <ele>56.774334</ele>
        <time>2022-05-03T10:56:46.624Z</time>
      </trkpt>
      <trkpt lat="41.10597" lon="19.60873">
        <ele>56.837328</ele>
        <time>2022-05-03T10:56:48.651Z</time>
      </trkpt>
      <trkpt lat="41.10606" lon="19.60871">
        <ele>56.900217</ele>
        <time>2022-05-03T10:56:50.627Z</time>
      </trkpt>
      <trkpt lat="41.10615" lon="19.60868">
        <ele>56.964753</ele>
        <time>2022-05-03T10:56:52.618Z</time>
      </trkpt>
      <trkpt lat="41.10625" lon="19.60865">
        <ele>57.030426</ele>
        <time>2022-05-03T10:56:54.643Z</time>
      </trkpt>
      <trkpt lat="41.10634" lon="19.60861">
        <ele>57.094789</ele>
        <time>2022-05-03T10:56:56.608Z</time>
      </trkpt>
      <trkpt lat="41.10643" lon="19.60859">
        <ele>57.157465</ele>
        <time>2022-05-03T10:56:58.636Z</time>
      </trkpt>
      <trkpt lat="41.10652" lon="19.60855">
        <ele>57.286518</ele>
        <time>2022-05-03T10:57:00.631Z</time>
      </trkpt>
      <trkpt lat="41.10661" lon="19.60852">
        <ele>57.546574</ele>
        <time>2022-05-03T10:57:02.662Z</time>
      </trkpt>
      <trkpt lat="41.1067" lon="19.60847">
        <ele>57.807211</ele>
        <time>2022-05-03T10:57:04.618Z</time>
      </trkpt>
      <trkpt lat="41.10679" lon="19.60844">
        <ele>58.068501</ele>
        <time>2022-05-03T10:57:06.637Z</time>
      </trkpt>
      <trkpt lat="41.10688" lon="19.6084">
        <ele>58.323885</ele>
        <time>2022-05-03T10:57:08.623Z</time>
      </trkpt>
      <trkpt lat="41.107" lon="19.60834">
        <ele>58.694943</ele>
        <time>2022-05-03T10:57:11.625Z</time>
      </trkpt>
      <trkpt lat="41.10713" lon="19.60828">
        <ele>59.065847</ele>
        <time>2022-05-03T10:57:14.639Z</time>
      </trkpt>
      <trkpt lat="41.10725" lon="19.60823">
        <ele>59.426255</ele>
        <time>2022-05-03T10:57:17.647Z</time>
      </trkpt>
      <trkpt lat="41.10737" lon="19.60817">
        <ele>59.7801</ele>
        <time>2022-05-03T10:57:20.634Z</time>
      </trkpt>
      <trkpt lat="41.10749" lon="19.60812">
        <ele>60.122126</ele>
        <time>2022-05-03T10:57:23.623Z</time>
      </trkpt>
      <trkpt lat="41.10758" lon="19.60808">
        <ele>60.376852</ele>
        <time>2022-05-03T10:57:25.627Z</time>
      </trkpt>
      <trkpt lat="41.1077" lon="19.60803">
        <ele>60.731548</ele>
        <time>2022-05-03T10:57:28.640Z</time>
      </trkpt>
      <trkpt lat="41.10782" lon="19.60799">
        <ele>61.06649</ele>
        <time>2022-05-03T10:57:31.622Z</time>
      </trkpt>
      <trkpt lat="41.10793" lon="19.60794">
        <ele>61.394107</ele>
        <time>2022-05-03T10:57:34.623Z</time>
      </trkpt>
      <trkpt lat="41.10804" lon="19.6079">
        <ele>61.710204</ele>
        <time>2022-05-03T10:57:37.629Z</time>
      </trkpt>
      <trkpt lat="41.10815" lon="19.60786">
        <ele>62.032766</ele>
        <time>2022-05-03T10:57:40.629Z</time>
      </trkpt>
      <trkpt lat="41.10826" lon="19.60781">
        <ele>62.315477</ele>
        <time>2022-05-03T10:57:43.622Z</time>
      </trkpt>
      <trkpt lat="41.10836" lon="19.60777">
        <ele>62.562806</ele>
        <time>2022-05-03T10:57:46.625Z</time>
      </trkpt>
      <trkpt lat="41.10846" lon="19.60772">
        <ele>62.808522</ele>
        <time>2022-05-03T10:57:49.622Z</time>
      </trkpt>
      <trkpt lat="41.10856" lon="19.60767">
        <ele>63.053096</ele>
        <time>2022-05-03T10:57:52.653Z</time>
      </trkpt>
      <trkpt lat="41.10866" lon="19.60763">
        <ele>63.29229</ele>
        <time>2022-05-03T10:57:55.634Z</time>
      </trkpt>
      <trkpt lat="41.10875" lon="19.6076">
        <ele>63.504985</ele>
        <time>2022-05-03T10:57:58.679Z</time>
      </trkpt>
      <trkpt lat="41.10884" lon="19.60756">
        <ele>63.72922</ele>
        <time>2022-05-03T10:58:01.640Z</time>
      </trkpt>
      <trkpt lat="41.10894" lon="19.60751">
        <ele>63.980384</ele>
        <time>2022-05-03T10:58:04.623Z</time>
      </trkpt>
      <trkpt lat="41.10905" lon="19.60747">
        <ele>64.237395</ele>
        <time>2022-05-03T10:58:07.623Z</time>
      </trkpt>
      <trkpt lat="41.10915" lon="19.60743">
        <ele>64.490905</ele>
        <time>2022-05-03T10:58:10.634Z</time>
      </trkpt>
      <trkpt lat="41.10926" lon="19.60739">
        <ele>64.741529</ele>
        <time>2022-05-03T10:58:13.626Z</time>
      </trkpt>
      <trkpt lat="41.10936" lon="19.60734">
        <ele>64.987208</ele>
        <time>2022-05-03T10:58:16.619Z</time>
      </trkpt>
      <trkpt lat="41.10946" lon="19.6073">
        <ele>65.229029</ele>
        <time>2022-05-03T10:58:19.624Z</time>
      </trkpt>
      <trkpt lat="41.10956" lon="19.60726">
        <ele>65.466786</ele>
        <time>2022-05-03T10:58:22.624Z</time>
      </trkpt>
      <trkpt lat="41.10966" lon="19.60722">
        <ele>65.718075</ele>
        <time>2022-05-03T10:58:25.631Z</time>
      </trkpt>
      <trkpt lat="41.10976" lon="19.60718">
        <ele>65.961609</ele>
        <time>2022-05-03T10:58:28.624Z</time>
      </trkpt>
      <trkpt lat="41.10986" lon="19.60713">
        <ele>66.210686</ele>
        <time>2022-05-03T10:58:31.664Z</time>
      </trkpt>
      <trkpt lat="41.10997" lon="19.60708">
        <ele>66.313946</ele>
        <time>2022-05-03T10:58:34.628Z</time>
      </trkpt>
      <trkpt lat="41.11008" lon="19.60703">
        <ele>66.259128</ele>
        <time>2022-05-03T10:58:37.614Z</time>
      </trkpt>
      <trkpt lat="41.11019" lon="19.60698">
        <ele>66.204972</ele>
        <time>2022-05-03T10:58:40.624Z</time>
      </trkpt>
      <trkpt lat="41.1103" lon="19.60692">
        <ele>66.149712</ele>
        <time>2022-05-03T10:58:43.624Z</time>
      </trkpt>
      <trkpt lat="41.11041" lon="19.60687">
        <ele>66.097986</ele>
        <time>2022-05-03T10:58:46.633Z</time>
      </trkpt>
      <trkpt lat="41.11051" lon="19.60684">
        <ele>66.046936</ele>
        <time>2022-05-03T10:58:49.638Z</time>
      </trkpt>
      <trkpt lat="41.11061" lon="19.60678">
        <ele>65.995953</ele>
        <time>2022-05-03T10:58:52.616Z</time>
      </trkpt>
      <trkpt lat="41.11073" lon="19.60673">
        <ele>65.938365</ele>
        <time>2022-05-03T10:58:55.635Z</time>
      </trkpt>
      <trkpt lat="41.11084" lon="19.60668">
        <ele>65.88587</ele>
        <time>2022-05-03T10:58:58.622Z</time>
      </trkpt>
      <trkpt lat="41.11095" lon="19.60663">
        <ele>65.831273</ele>
        <time>2022-05-03T10:59:01.632Z</time>
      </trkpt>
      <trkpt lat="41.11106" lon="19.60658">
        <ele>65.774655</ele>
        <time>2022-05-03T10:59:04.626Z</time>
      </trkpt>
      <trkpt lat="41.11118" lon="19.60653">
        <ele>65.719389</ele>
        <time>2022-05-03T10:59:07.629Z</time>
      </trkpt>
      <trkpt lat="41.11129" lon="19.60647">
        <ele>65.661094</ele>
        <time>2022-05-03T10:59:10.648Z</time>
      </trkpt>
      <trkpt lat="41.11142" lon="19.60642">
        <ele>65.599959</ele>
        <time>2022-05-03T10:59:13.633Z</time>
      </trkpt>
      <trkpt lat="41.11151" lon="19.60638">
        <ele>65.556856</ele>
        <time>2022-05-03T10:59:15.627Z</time>
      </trkpt>
      <trkpt lat="41.11159" lon="19.60635">
        <ele>65.514305</ele>
        <time>2022-05-03T10:59:17.625Z</time>
      </trkpt>
      <trkpt lat="41.11172" lon="19.60629">
        <ele>65.373999</ele>
        <time>2022-05-03T10:59:20.639Z</time>
      </trkpt>
      <trkpt lat="41.11181" lon="19.60625">
        <ele>65.269453</ele>
        <time>2022-05-03T10:59:22.672Z</time>
      </trkpt>
      <trkpt lat="41.1119" lon="19.60621">
        <ele>65.165738</ele>
        <time>2022-05-03T10:59:24.615Z</time>
      </trkpt>
      <trkpt lat="41.11199" lon="19.60618">
        <ele>65.056312</ele>
        <time>2022-05-03T10:59:26.628Z</time>
      </trkpt>
      <trkpt lat="41.11208" lon="19.60614">
        <ele>64.948821</ele>
        <time>2022-05-03T10:59:28.622Z</time>
      </trkpt>
      <trkpt lat="41.11217" lon="19.60611">
        <ele>64.844257</ele>
        <time>2022-05-03T10:59:30.610Z</time>
      </trkpt>
      <trkpt lat="41.11226" lon="19.60607">
        <ele>64.730447</ele>
        <time>2022-05-03T10:59:32.624Z</time>
      </trkpt>
      <trkpt lat="41.11236" lon="19.60603">
        <ele>64.616478</ele>
        <time>2022-05-03T10:59:34.623Z</time>
      </trkpt>
      <trkpt lat="41.11244" lon="19.60598">
        <ele>64.508656</ele>
        <time>2022-05-03T10:59:36.610Z</time>
      </trkpt>
      <trkpt lat="41.11253" lon="19.60594">
        <ele>64.402439</ele>
        <time>2022-05-03T10:59:38.619Z</time>
      </trkpt>
      <trkpt lat="41.11262" lon="19.6059">
        <ele>64.295239</ele>
        <time>2022-05-03T10:59:40.629Z</time>
      </trkpt>
      <trkpt lat="41.11271" lon="19.60585">
        <ele>64.186681</ele>
        <time>2022-05-03T10:59:42.615Z</time>
      </trkpt>
      <trkpt lat="41.1128" lon="19.60581">
        <ele>64.076959</ele>
        <time>2022-05-03T10:59:44.674Z</time>
      </trkpt>
      <trkpt lat="41.11289" lon="19.60577">
        <ele>63.968904</ele>
        <time>2022-05-03T10:59:46.624Z</time>
      </trkpt>
      <trkpt lat="41.11301" lon="19.6057">
        <ele>63.817731</ele>
        <time>2022-05-03T10:59:49.619Z</time>
      </trkpt>
      <trkpt lat="41.11314" lon="19.60565">
        <ele>63.664222</ele>
        <time>2022-05-03T10:59:52.616Z</time>
      </trkpt>
      <trkpt lat="41.11323" lon="19.6056">
        <ele>63.55782</ele>
        <time>2022-05-03T10:59:54.635Z</time>
      </trkpt>
      <trkpt lat="41.11332" lon="19.60556">
        <ele>63.443897</ele>
        <time>2022-05-03T10:59:56.623Z</time>
      </trkpt>
      <trkpt lat="41.11343" lon="19.60551">
        <ele>63.325218</ele>
        <time>2022-05-03T10:59:58.636Z</time>
      </trkpt>
      <trkpt lat="41.11352" lon="19.60547">
        <ele>63.21454</ele>
        <time>2022-05-03T11:00:00.627Z</time>
      </trkpt>
      <trkpt lat="41.11362" lon="19.60544">
        <ele>63.107112</ele>
        <time>2022-05-03T11:00:02.629Z</time>
      </trkpt>
      <trkpt lat="41.11371" lon="19.6054">
        <ele>62.999551</ele>
        <time>2022-05-03T11:00:04.619Z</time>
      </trkpt>
      <trkpt lat="41.1138" lon="19.60536">
        <ele>62.893761</ele>
        <time>2022-05-03T11:00:06.632Z</time>
      </trkpt>
      <trkpt lat="41.1139" lon="19.60532">
        <ele>62.789309</ele>
        <time>2022-05-03T11:00:08.626Z</time>
      </trkpt>
      <trkpt lat="41.11399" lon="19.60528">
        <ele>62.684075</ele>
        <time>2022-05-03T11:00:10.637Z</time>
      </trkpt>
      <trkpt lat="41.11408" lon="19.60525">
        <ele>62.578744</ele>
        <time>2022-05-03T11:00:12.653Z</time>
      </trkpt>
      <trkpt lat="41.11417" lon="19.60521">
        <ele>62.471184</ele>
        <time>2022-05-03T11:00:14.632Z</time>
      </trkpt>
      <trkpt lat="41.11427" lon="19.60516">
        <ele>62.359488</ele>
        <time>2022-05-03T11:00:16.617Z</time>
      </trkpt>
      <trkpt lat="41.11436" lon="19.60512">
        <ele>62.252447</ele>
        <time>2022-05-03T11:00:18.621Z</time>
      </trkpt>
      <trkpt lat="41.11446" lon="19.60508">
        <ele>62.143291</ele>
        <time>2022-05-03T11:00:20.626Z</time>
      </trkpt>
      <trkpt lat="41.11455" lon="19.60503">
        <ele>62.041308</ele>
        <time>2022-05-03T11:00:22.624Z</time>
      </trkpt>
      <trkpt lat="41.11464" lon="19.60499">
        <ele>61.935028</ele>
        <time>2022-05-03T11:00:24.606Z</time>
      </trkpt>
      <trkpt lat="41.11475" lon="19.60494">
        <ele>61.808336</ele>
        <time>2022-05-03T11:00:26.617Z</time>
      </trkpt>
      <trkpt lat="41.11486" lon="19.6049">
        <ele>61.684889</ele>
        <time>2022-05-03T11:00:28.617Z</time>
      </trkpt>
      <trkpt lat="41.11497" lon="19.60485">
        <ele>61.558894</ele>
        <time>2022-05-03T11:00:30.635Z</time>
      </trkpt>
      <trkpt lat="41.11508" lon="19.60481">
        <ele>61.499537</ele>
        <time>2022-05-03T11:00:32.627Z</time>
      </trkpt>
      <trkpt lat="41.11518" lon="19.60478">
        <ele>61.515243</ele>
        <time>2022-05-03T11:00:34.656Z</time>
      </trkpt>
      <trkpt lat="41.11529" lon="19.60474">
        <ele>61.532213</ele>
        <time>2022-05-03T11:00:36.618Z</time>
      </trkpt>
      <trkpt lat="41.11539" lon="19.60469">
        <ele>61.54871</ele>
        <time>2022-05-03T11:00:38.630Z</time>
      </trkpt>
      <trkpt lat="41.1155" lon="19.60465">
        <ele>61.564998</ele>
        <time>2022-05-03T11:00:40.631Z</time>
      </trkpt>
      <trkpt lat="41.11561" lon="19.6046">
        <ele>61.582128</ele>
        <time>2022-05-03T11:00:42.676Z</time>
      </trkpt>
      <trkpt lat="41.11571" lon="19.60456">
        <ele>61.598275</ele>
        <time>2022-05-03T11:00:44.627Z</time>
      </trkpt>
      <trkpt lat="41.11582" lon="19.60452">
        <ele>61.614756</ele>
        <time>2022-05-03T11:00:46.629Z</time>
      </trkpt>
      <trkpt lat="41.11593" lon="19.60448">
        <ele>61.631329</ele>
        <time>2022-05-03T11:00:48.628Z</time>
      </trkpt>
      <trkpt lat="41.11603" lon="19.60444">
        <ele>61.647792</ele>
        <time>2022-05-03T11:00:50.627Z</time>
      </trkpt>
      <trkpt lat="41.11613" lon="19.60439">
        <ele>61.663405</ele>
        <time>2022-05-03T11:00:52.624Z</time>
      </trkpt>
      <trkpt lat="41.11623" lon="19.60435">
        <ele>61.679159</ele>
        <time>2022-05-03T11:00:54.631Z</time>
      </trkpt>
      <trkpt lat="41.11634" lon="19.60431">
        <ele>61.695442</ele>
        <time>2022-05-03T11:00:56.657Z</time>
      </trkpt>
      <trkpt lat="41.11644" lon="19.60426">
        <ele>61.711376</ele>
        <time>2022-05-03T11:00:58.630Z</time>
      </trkpt>
      <trkpt lat="41.11654" lon="19.60421">
        <ele>61.726853</ele>
        <time>2022-05-03T11:01:00.629Z</time>
      </trkpt>
      <trkpt lat="41.11664" lon="19.60416">
        <ele>61.743181</ele>
        <time>2022-05-03T11:01:02.657Z</time>
      </trkpt>
      <trkpt lat="41.11674" lon="19.60411">
        <ele>61.760207</ele>
        <time>2022-05-03T11:01:04.637Z</time>
      </trkpt>
      <trkpt lat="41.11685" lon="19.60407">
        <ele>61.809883</ele>
        <time>2022-05-03T11:01:06.634Z</time>
      </trkpt>
      <trkpt lat="41.11696" lon="19.60403">
        <ele>61.857683</ele>
        <time>2022-05-03T11:01:08.623Z</time>
      </trkpt>
      <trkpt lat="41.11706" lon="19.60399">
        <ele>61.903458</ele>
        <time>2022-05-03T11:01:10.616Z</time>
      </trkpt>
      <trkpt lat="41.11717" lon="19.60395">
        <ele>61.949382</ele>
        <time>2022-05-03T11:01:12.613Z</time>
      </trkpt>
      <trkpt lat="41.11727" lon="19.60391">
        <ele>61.995141</ele>
        <time>2022-05-03T11:01:14.626Z</time>
      </trkpt>
      <trkpt lat="41.11737" lon="19.60388">
        <ele>62.039685</ele>
        <time>2022-05-03T11:01:16.618Z</time>
      </trkpt>
      <trkpt lat="41.11747" lon="19.60385">
        <ele>62.08556</ele>
        <time>2022-05-03T11:01:18.614Z</time>
      </trkpt>
      <trkpt lat="41.11758" lon="19.60382">
        <ele>62.13214</ele>
        <time>2022-05-03T11:01:20.629Z</time>
      </trkpt>
      <trkpt lat="41.11769" lon="19.60379">
        <ele>62.179629</ele>
        <time>2022-05-03T11:01:22.626Z</time>
      </trkpt>
      <trkpt lat="41.1178" lon="19.60376">
        <ele>62.228132</ele>
        <time>2022-05-03T11:01:24.653Z</time>
      </trkpt>
      <trkpt lat="41.1179" lon="19.60371">
        <ele>62.27533</ele>
        <time>2022-05-03T11:01:26.626Z</time>
      </trkpt>
      <trkpt lat="41.118" lon="19.60367">
        <ele>62.320067</ele>
        <time>2022-05-03T11:01:28.620Z</time>
      </trkpt>
      <trkpt lat="41.1181" lon="19.60362">
        <ele>62.366736</ele>
        <time>2022-05-03T11:01:30.624Z</time>
      </trkpt>
      <trkpt lat="41.1182" lon="19.60358">
        <ele>62.412996</ele>
        <time>2022-05-03T11:01:32.631Z</time>
      </trkpt>
      <trkpt lat="41.1183" lon="19.60353">
        <ele>62.457627</ele>
        <time>2022-05-03T11:01:34.632Z</time>
      </trkpt>
      <trkpt lat="41.1184" lon="19.60349">
        <ele>62.500931</ele>
        <time>2022-05-03T11:01:36.620Z</time>
      </trkpt>
      <trkpt lat="41.11848" lon="19.60343">
        <ele>62.560675</ele>
        <time>2022-05-03T11:01:38.610Z</time>
      </trkpt>
      <trkpt lat="41.11857" lon="19.60336">
        <ele>62.686962</ele>
        <time>2022-05-03T11:01:40.608Z</time>
      </trkpt>
      <trkpt lat="41.11865" lon="19.60331">
        <ele>62.809127</ele>
        <time>2022-05-03T11:01:42.636Z</time>
      </trkpt>
      <trkpt lat="41.11874" lon="19.60326">
        <ele>62.939381</ele>
        <time>2022-05-03T11:01:44.629Z</time>
      </trkpt>
      <trkpt lat="41.11884" lon="19.60321">
        <ele>63.072301</ele>
        <time>2022-05-03T11:01:46.695Z</time>
      </trkpt>
      <trkpt lat="41.11893" lon="19.60316">
        <ele>63.209557</ele>
        <time>2022-05-03T11:01:48.625Z</time>
      </trkpt>
      <trkpt lat="41.11902" lon="19.6031">
        <ele>63.336116</ele>
        <time>2022-05-03T11:01:50.604Z</time>
      </trkpt>
      <trkpt lat="41.11911" lon="19.60305">
        <ele>63.460642</ele>
        <time>2022-05-03T11:01:52.675Z</time>
      </trkpt>
      <trkpt lat="41.11919" lon="19.60299">
        <ele>63.583148</ele>
        <time>2022-05-03T11:01:54.617Z</time>
      </trkpt>
      <trkpt lat="41.11931" lon="19.60292">
        <ele>63.755255</ele>
        <time>2022-05-03T11:01:57.627Z</time>
      </trkpt>
      <trkpt lat="41.11939" lon="19.60287">
        <ele>63.875781</ele>
        <time>2022-05-03T11:01:59.630Z</time>
      </trkpt>
      <trkpt lat="41.11948" lon="19.60282">
        <ele>63.997519</ele>
        <time>2022-05-03T11:02:01.624Z</time>
      </trkpt>
      <trkpt lat="41.11957" lon="19.60277">
        <ele>64.125608</ele>
        <time>2022-05-03T11:02:03.691Z</time>
      </trkpt>
      <trkpt lat="41.11966" lon="19.60272">
        <ele>64.252935</ele>
        <time>2022-05-03T11:02:05.623Z</time>
      </trkpt>
      <trkpt lat="41.11975" lon="19.60266">
        <ele>64.381854</ele>
        <time>2022-05-03T11:02:07.635Z</time>
      </trkpt>
      <trkpt lat="41.11983" lon="19.60261">
        <ele>64.503951</ele>
        <time>2022-05-03T11:02:09.610Z</time>
      </trkpt>
      <trkpt lat="41.11992" lon="19.60256">
        <ele>64.629636</ele>
        <time>2022-05-03T11:02:11.612Z</time>
      </trkpt>
      <trkpt lat="41.12001" lon="19.6025">
        <ele>64.755455</ele>
        <time>2022-05-03T11:02:13.626Z</time>
      </trkpt>
      <trkpt lat="41.12009" lon="19.60245">
        <ele>64.878746</ele>
        <time>2022-05-03T11:02:15.625Z</time>
      </trkpt>
      <trkpt lat="41.12018" lon="19.6024">
        <ele>64.764967</ele>
        <time>2022-05-03T11:02:17.628Z</time>
      </trkpt>
      <trkpt lat="41.12026" lon="19.60235">
        <ele>64.630809</ele>
        <time>2022-05-03T11:02:19.625Z</time>
      </trkpt>
      <trkpt lat="41.12034" lon="19.60229">
        <ele>64.50018</ele>
        <time>2022-05-03T11:02:21.626Z</time>
      </trkpt>
      <trkpt lat="41.12046" lon="19.60222">
        <ele>64.310887</ele>
        <time>2022-05-03T11:02:24.637Z</time>
      </trkpt>
      <trkpt lat="41.12055" lon="19.60217">
        <ele>64.168011</ele>
        <time>2022-05-03T11:02:26.624Z</time>
      </trkpt>
      <trkpt lat="41.12064" lon="19.60211">
        <ele>64.022975</ele>
        <time>2022-05-03T11:02:28.624Z</time>
      </trkpt>
      <trkpt lat="41.12074" lon="19.60205">
        <ele>63.86915</ele>
        <time>2022-05-03T11:02:30.628Z</time>
      </trkpt>
      <trkpt lat="41.12084" lon="19.60199">
        <ele>63.710956</ele>
        <time>2022-05-03T11:02:32.627Z</time>
      </trkpt>
      <trkpt lat="41.12095" lon="19.60193">
        <ele>63.545315</ele>
        <time>2022-05-03T11:02:34.619Z</time>
      </trkpt>
      <trkpt lat="41.12106" lon="19.60187">
        <ele>63.373955</ele>
        <time>2022-05-03T11:02:36.616Z</time>
      </trkpt>
      <trkpt lat="41.12117" lon="19.60181">
        <ele>63.197121</ele>
        <time>2022-05-03T11:02:38.621Z</time>
      </trkpt>
      <trkpt lat="41.12129" lon="19.60175">
        <ele>63.012565</ele>
        <time>2022-05-03T11:02:40.615Z</time>
      </trkpt>
      <trkpt lat="41.12142" lon="19.60169">
        <ele>62.822852</ele>
        <time>2022-05-03T11:02:42.661Z</time>
      </trkpt>
      <trkpt lat="41.12154" lon="19.60163">
        <ele>62.633138</ele>
        <time>2022-05-03T11:02:44.632Z</time>
      </trkpt>
      <trkpt lat="41.12166" lon="19.60157">
        <ele>62.442839</ele>
        <time>2022-05-03T11:02:46.625Z</time>
      </trkpt>
      <trkpt lat="41.12179" lon="19.60152">
        <ele>62.28097</ele>
        <time>2022-05-03T11:02:48.659Z</time>
      </trkpt>
      <trkpt lat="41.12191" lon="19.60146">
        <ele>62.192699</ele>
        <time>2022-05-03T11:02:50.623Z</time>
      </trkpt>
      <trkpt lat="41.12203" lon="19.60139">
        <ele>62.106862</ele>
        <time>2022-05-03T11:02:52.632Z</time>
      </trkpt>
      <trkpt lat="41.12214" lon="19.60132">
        <ele>62.0247</ele>
        <time>2022-05-03T11:02:54.615Z</time>
      </trkpt>
      <trkpt lat="41.12225" lon="19.60126">
        <ele>61.946346</ele>
        <time>2022-05-03T11:02:56.631Z</time>
      </trkpt>
      <trkpt lat="41.12236" lon="19.60121">
        <ele>61.866681</ele>
        <time>2022-05-03T11:02:58.628Z</time>
      </trkpt>
      <trkpt lat="41.12247" lon="19.60117">
        <ele>61.788909</ele>
        <time>2022-05-03T11:03:00.623Z</time>
      </trkpt>
      <trkpt lat="41.12258" lon="19.60112">
        <ele>61.71384</ele>
        <time>2022-05-03T11:03:02.606Z</time>
      </trkpt>
      <trkpt lat="41.12269" lon="19.60108">
        <ele>61.639889</ele>
        <time>2022-05-03T11:03:04.633Z</time>
      </trkpt>
      <trkpt lat="41.12279" lon="19.60103">
        <ele>61.567206</ele>
        <time>2022-05-03T11:03:06.632Z</time>
      </trkpt>
      <trkpt lat="41.12289" lon="19.60098">
        <ele>61.4923</ele>
        <time>2022-05-03T11:03:08.637Z</time>
      </trkpt>
      <trkpt lat="41.123" lon="19.60093">
        <ele>61.417973</ele>
        <time>2022-05-03T11:03:10.652Z</time>
      </trkpt>
      <trkpt lat="41.1231" lon="19.60088">
        <ele>61.346578</ele>
        <time>2022-05-03T11:03:12.627Z</time>
      </trkpt>
      <trkpt lat="41.1232" lon="19.60083">
        <ele>61.277224</ele>
        <time>2022-05-03T11:03:14.629Z</time>
      </trkpt>
      <trkpt lat="41.12329" lon="19.60079">
        <ele>61.208827</ele>
        <time>2022-05-03T11:03:16.624Z</time>
      </trkpt>
      <trkpt lat="41.12338" lon="19.60075">
        <ele>61.146451</ele>
        <time>2022-05-03T11:03:18.637Z</time>
      </trkpt>
      <trkpt lat="41.1235" lon="19.60069">
        <ele>61.102384</ele>
        <time>2022-05-03T11:03:21.655Z</time>
      </trkpt>
      <trkpt lat="41.12363" lon="19.60062">
        <ele>61.109613</ele>
        <time>2022-05-03T11:03:24.638Z</time>
      </trkpt>
      <trkpt lat="41.12372" lon="19.60057">
        <ele>61.114858</ele>
        <time>2022-05-03T11:03:26.652Z</time>
      </trkpt>
      <trkpt lat="41.12381" lon="19.60052">
        <ele>61.120236</ele>
        <time>2022-05-03T11:03:28.629Z</time>
      </trkpt>
      <trkpt lat="41.12391" lon="19.60047">
        <ele>61.125594</ele>
        <time>2022-05-03T11:03:30.642Z</time>
      </trkpt>
      <trkpt lat="41.124" lon="19.60042">
        <ele>61.131023</ele>
        <time>2022-05-03T11:03:32.657Z</time>
      </trkpt>
      <trkpt lat="41.12409" lon="19.60038">
        <ele>61.136337</ele>
        <time>2022-05-03T11:03:34.613Z</time>
      </trkpt>
      <trkpt lat="41.12419" lon="19.60033">
        <ele>61.141751</ele>
        <time>2022-05-03T11:03:36.632Z</time>
      </trkpt>
      <trkpt lat="41.12428" lon="19.60028">
        <ele>61.147239</ele>
        <time>2022-05-03T11:03:38.634Z</time>
      </trkpt>
      <trkpt lat="41.12438" lon="19.60023">
        <ele>61.152817</ele>
        <time>2022-05-03T11:03:40.605Z</time>
      </trkpt>
      <trkpt lat="41.12447" lon="19.60018">
        <ele>61.158046</ele>
        <time>2022-05-03T11:03:42.634Z</time>
      </trkpt>
      <trkpt lat="41.12456" lon="19.60013">
        <ele>61.163241</ele>
        <time>2022-05-03T11:03:44.615Z</time>
      </trkpt>
      <trkpt lat="41.12465" lon="19.60008">
        <ele>61.168565</ele>
        <time>2022-05-03T11:03:46.627Z</time>
      </trkpt>
      <trkpt lat="41.12474" lon="19.60003">
        <ele>61.173612</ele>
        <time>2022-05-03T11:03:48.621Z</time>
      </trkpt>
      <trkpt lat="41.12487" lon="19.59997">
        <ele>61.180962</ele>
        <time>2022-05-03T11:03:51.619Z</time>
      </trkpt>
      <trkpt lat="41.12496" lon="19.59995">
        <ele>61.185925</ele>
        <time>2022-05-03T11:03:53.632Z</time>
      </trkpt>
      <trkpt lat="41.12505" lon="19.59991">
        <ele>61.190803</ele>
        <time>2022-05-03T11:03:55.664Z</time>
      </trkpt>
      <trkpt lat="41.12517" lon="19.59985">
        <ele>61.216667</ele>
        <time>2022-05-03T11:03:58.636Z</time>
      </trkpt>
      <trkpt lat="41.12528" lon="19.59979">
        <ele>61.268829</ele>
        <time>2022-05-03T11:04:01.627Z</time>
      </trkpt>
      <trkpt lat="41.12539" lon="19.59973">
        <ele>61.321674</ele>
        <time>2022-05-03T11:04:04.631Z</time>
      </trkpt>
      <trkpt lat="41.12552" lon="19.59967">
        <ele>61.380335</ele>
        <time>2022-05-03T11:04:07.623Z</time>
      </trkpt>
      <trkpt lat="41.12561" lon="19.59963">
        <ele>61.42053</ele>
        <time>2022-05-03T11:04:09.613Z</time>
      </trkpt>
      <trkpt lat="41.12569" lon="19.59958">
        <ele>61.460758</ele>
        <time>2022-05-03T11:04:11.615Z</time>
      </trkpt>
      <trkpt lat="41.12577" lon="19.59954">
        <ele>61.500451</ele>
        <time>2022-05-03T11:04:13.610Z</time>
      </trkpt>
      <trkpt lat="41.12587" lon="19.59949">
        <ele>61.545347</ele>
        <time>2022-05-03T11:04:15.620Z</time>
      </trkpt>
      <trkpt lat="41.12596" lon="19.59945">
        <ele>61.589915</ele>
        <time>2022-05-03T11:04:17.626Z</time>
      </trkpt>
      <trkpt lat="41.12605" lon="19.59941">
        <ele>61.631879</ele>
        <time>2022-05-03T11:04:19.627Z</time>
      </trkpt>
      <trkpt lat="41.12614" lon="19.59936">
        <ele>61.672257</ele>
        <time>2022-05-03T11:04:21.628Z</time>
      </trkpt>
      <trkpt lat="41.12623" lon="19.59931">
        <ele>61.715385</ele>
        <time>2022-05-03T11:04:23.625Z</time>
      </trkpt>
      <trkpt lat="41.12632" lon="19.59928">
        <ele>61.757031</ele>
        <time>2022-05-03T11:04:25.624Z</time>
      </trkpt>
      <trkpt lat="41.12641" lon="19.59923">
        <ele>61.800687</ele>
        <time>2022-05-03T11:04:27.619Z</time>
      </trkpt>
      <trkpt lat="41.12651" lon="19.59918">
        <ele>61.847164</ele>
        <time>2022-05-03T11:04:29.649Z</time>
      </trkpt>
      <trkpt lat="41.12661" lon="19.59913">
        <ele>61.894466</ele>
        <time>2022-05-03T11:04:31.624Z</time>
      </trkpt>
      <trkpt lat="41.12671" lon="19.59909">
        <ele>61.940603</ele>
        <time>2022-05-03T11:04:33.617Z</time>
      </trkpt>
      <trkpt lat="41.12681" lon="19.59905">
        <ele>61.985066</ele>
        <time>2022-05-03T11:04:35.612Z</time>
      </trkpt>
      <trkpt lat="41.12691" lon="19.599">
        <ele>62.105645</ele>
        <time>2022-05-03T11:04:37.630Z</time>
      </trkpt>
      <trkpt lat="41.127" lon="19.59895">
        <ele>62.231493</ele>
        <time>2022-05-03T11:04:39.624Z</time>
      </trkpt>
      <trkpt lat="41.1271" lon="19.5989">
        <ele>62.355095</ele>
        <time>2022-05-03T11:04:41.621Z</time>
      </trkpt>
      <trkpt lat="41.1272" lon="19.59886">
        <ele>62.476932</ele>
        <time>2022-05-03T11:04:43.631Z</time>
      </trkpt>
      <trkpt lat="41.12729" lon="19.59881">
        <ele>62.596845</ele>
        <time>2022-05-03T11:04:45.627Z</time>
      </trkpt>
      <trkpt lat="41.12738" lon="19.59877">
        <ele>62.716893</ele>
        <time>2022-05-03T11:04:47.618Z</time>
      </trkpt>
      <trkpt lat="41.12748" lon="19.59872">
        <ele>62.834946</ele>
        <time>2022-05-03T11:04:49.628Z</time>
      </trkpt>
      <trkpt lat="41.12757" lon="19.59868">
        <ele>62.953</ele>
        <time>2022-05-03T11:04:51.655Z</time>
      </trkpt>
      <trkpt lat="41.12766" lon="19.59864">
        <ele>63.071648</ele>
        <time>2022-05-03T11:04:53.620Z</time>
      </trkpt>
      <trkpt lat="41.12775" lon="19.59859">
        <ele>63.187223</ele>
        <time>2022-05-03T11:04:55.627Z</time>
      </trkpt>
      <trkpt lat="41.12784" lon="19.59855">
        <ele>63.302482</ele>
        <time>2022-05-03T11:04:57.631Z</time>
      </trkpt>
      <trkpt lat="41.12793" lon="19.59851">
        <ele>63.415488</ele>
        <time>2022-05-03T11:04:59.637Z</time>
      </trkpt>
      <trkpt lat="41.12802" lon="19.59846">
        <ele>63.530134</ele>
        <time>2022-05-03T11:05:01.620Z</time>
      </trkpt>
      <trkpt lat="41.12811" lon="19.59842">
        <ele>63.642766</ele>
        <time>2022-05-03T11:05:03.631Z</time>
      </trkpt>
      <trkpt lat="41.1282" lon="19.59838">
        <ele>63.756279</ele>
        <time>2022-05-03T11:05:05.626Z</time>
      </trkpt>
      <trkpt lat="41.12829" lon="19.59834">
        <ele>63.87236</ele>
        <time>2022-05-03T11:05:07.634Z</time>
      </trkpt>
      <trkpt lat="41.12838" lon="19.5983">
        <ele>63.991551</ele>
        <time>2022-05-03T11:05:09.625Z</time>
      </trkpt>
      <trkpt lat="41.12848" lon="19.59826">
        <ele>64.113023</ele>
        <time>2022-05-03T11:05:11.623Z</time>
      </trkpt>
      <trkpt lat="41.12858" lon="19.59821">
        <ele>64.147468</ele>
        <time>2022-05-03T11:05:13.660Z</time>
      </trkpt>
      <trkpt lat="41.12868" lon="19.59817">
        <ele>64.146752</ele>
        <time>2022-05-03T11:05:15.643Z</time>
      </trkpt>
      <trkpt lat="41.12877" lon="19.59812">
        <ele>64.146041</ele>
        <time>2022-05-03T11:05:17.628Z</time>
      </trkpt>
      <trkpt lat="41.12887" lon="19.59808">
        <ele>64.145351</ele>
        <time>2022-05-03T11:05:19.635Z</time>
      </trkpt>
      <trkpt lat="41.12897" lon="19.59803">
        <ele>64.144648</ele>
        <time>2022-05-03T11:05:21.630Z</time>
      </trkpt>
      <trkpt lat="41.12906" lon="19.59798">
        <ele>64.143942</ele>
        <time>2022-05-03T11:05:23.622Z</time>
      </trkpt>
      <trkpt lat="41.12916" lon="19.59794">
        <ele>64.143251</ele>
        <time>2022-05-03T11:05:25.632Z</time>
      </trkpt>
      <trkpt lat="41.12925" lon="19.5979">
        <ele>64.142554</ele>
        <time>2022-05-03T11:05:27.610Z</time>
      </trkpt>
      <trkpt lat="41.12935" lon="19.59785">
        <ele>64.141863</ele>
        <time>2022-05-03T11:05:29.625Z</time>
      </trkpt>
      <trkpt lat="41.12944" lon="19.59781">
        <ele>64.141171</ele>
        <time>2022-05-03T11:05:31.631Z</time>
      </trkpt>
      <trkpt lat="41.12954" lon="19.59776">
        <ele>64.140481</ele>
        <time>2022-05-03T11:05:33.663Z</time>
      </trkpt>
      <trkpt lat="41.12963" lon="19.59771">
        <ele>64.139816</ele>
        <time>2022-05-03T11:05:35.626Z</time>
      </trkpt>
      <trkpt lat="41.12972" lon="19.59766">
        <ele>64.139132</ele>
        <time>2022-05-03T11:05:37.661Z</time>
      </trkpt>
      <trkpt lat="41.12981" lon="19.59761">
        <ele>64.138457</ele>
        <time>2022-05-03T11:05:39.666Z</time>
      </trkpt>
      <trkpt lat="41.1299" lon="19.59757">
        <ele>64.13778</ele>
        <time>2022-05-03T11:05:41.626Z</time>
      </trkpt>
      <trkpt lat="41.12999" lon="19.59752">
        <ele>64.137117</ele>
        <time>2022-05-03T11:05:43.617Z</time>
      </trkpt>
      <trkpt lat="41.13008" lon="19.59748">
        <ele>64.136469</ele>
        <time>2022-05-03T11:05:45.637Z</time>
      </trkpt>
      <trkpt lat="41.13017" lon="19.59742">
        <ele>64.135793</ele>
        <time>2022-05-03T11:05:47.606Z</time>
      </trkpt>
      <trkpt lat="41.13026" lon="19.59736">
        <ele>64.162605</ele>
        <time>2022-05-03T11:05:49.615Z</time>
      </trkpt>
      <trkpt lat="41.13035" lon="19.59731">
        <ele>64.197589</ele>
        <time>2022-05-03T11:05:51.636Z</time>
      </trkpt>
      <trkpt lat="41.13044" lon="19.59726">
        <ele>64.232807</ele>
        <time>2022-05-03T11:05:53.667Z</time>
      </trkpt>
      <trkpt lat="41.13053" lon="19.59723">
        <ele>64.266344</ele>
        <time>2022-05-03T11:05:55.621Z</time>
      </trkpt>
      <trkpt lat="41.13066" lon="19.59718">
        <ele>64.316006</ele>
        <time>2022-05-03T11:05:58.618Z</time>
      </trkpt>
      <trkpt lat="41.13075" lon="19.59714">
        <ele>64.352139</ele>
        <time>2022-05-03T11:06:00.634Z</time>
      </trkpt>
      <trkpt lat="41.13085" lon="19.5971">
        <ele>64.386546</ele>
        <time>2022-05-03T11:06:02.632Z</time>
      </trkpt>
      <trkpt lat="41.13094" lon="19.59706">
        <ele>64.422662</ele>
        <time>2022-05-03T11:06:04.658Z</time>
      </trkpt>
      <trkpt lat="41.13103" lon="19.59702">
        <ele>64.458435</ele>
        <time>2022-05-03T11:06:06.634Z</time>
      </trkpt>
      <trkpt lat="41.13113" lon="19.59698">
        <ele>64.493352</ele>
        <time>2022-05-03T11:06:08.622Z</time>
      </trkpt>
      <trkpt lat="41.13122" lon="19.59694">
        <ele>64.527421</ele>
        <time>2022-05-03T11:06:10.670Z</time>
      </trkpt>
      <trkpt lat="41.1313" lon="19.5969">
        <ele>64.561581</ele>
        <time>2022-05-03T11:06:12.633Z</time>
      </trkpt>
      <trkpt lat="41.13139" lon="19.59685">
        <ele>64.594689</ele>
        <time>2022-05-03T11:06:14.622Z</time>
      </trkpt>
      <trkpt lat="41.13151" lon="19.59679">
        <ele>64.640939</ele>
        <time>2022-05-03T11:06:17.645Z</time>
      </trkpt>
      <trkpt lat="41.13163" lon="19.59673">
        <ele>64.686949</ele>
        <time>2022-05-03T11:06:20.624Z</time>
      </trkpt>
      <trkpt lat="41.13175" lon="19.59668">
        <ele>64.731538</ele>
        <time>2022-05-03T11:06:23.612Z</time>
      </trkpt>
      <trkpt lat="41.13187" lon="19.59663">
        <ele>64.777764</ele>
        <time>2022-05-03T11:06:26.618Z</time>
      </trkpt>
      <trkpt lat="41.13199" lon="19.5966">
        <ele>65.167365</ele>
        <time>2022-05-03T11:06:29.636Z</time>
      </trkpt>
      <trkpt lat="41.13211" lon="19.59654">
        <ele>65.62996</ele>
        <time>2022-05-03T11:06:32.627Z</time>
      </trkpt>
      <trkpt lat="41.13223" lon="19.59648">
        <ele>66.097541</ele>
        <time>2022-05-03T11:06:35.630Z</time>
      </trkpt>
      <trkpt lat="41.13234" lon="19.59642">
        <ele>66.560788</ele>
        <time>2022-05-03T11:06:38.663Z</time>
      </trkpt>
      <trkpt lat="41.13246" lon="19.59636">
        <ele>67.031782</ele>
        <time>2022-05-03T11:06:41.637Z</time>
      </trkpt>
      <trkpt lat="41.13258" lon="19.5963">
        <ele>67.488099</ele>
        <time>2022-05-03T11:06:44.625Z</time>
      </trkpt>
      <trkpt lat="41.13266" lon="19.59625">
        <ele>67.822158</ele>
        <time>2022-05-03T11:06:46.618Z</time>
      </trkpt>
      <trkpt lat="41.13278" lon="19.59619">
        <ele>68.279844</ele>
        <time>2022-05-03T11:06:49.679Z</time>
      </trkpt>
      <trkpt lat="41.13289" lon="19.59617">
        <ele>68.69205</ele>
        <time>2022-05-03T11:06:52.619Z</time>
      </trkpt>
      <trkpt lat="41.13298" lon="19.59626">
        <ele>69.110885</ele>
        <time>2022-05-03T11:06:55.622Z</time>
      </trkpt>
      <trkpt lat="41.13301" lon="19.59641">
        <ele>69.527268</ele>
        <time>2022-05-03T11:06:58.632Z</time>
      </trkpt>
      <trkpt lat="41.13304" lon="19.59655">
        <ele>69.94464</ele>
        <time>2022-05-03T11:07:01.630Z</time>
      </trkpt>
      <trkpt lat="41.13307" lon="19.59669">
        <ele>70.336029</ele>
        <time>2022-05-03T11:07:04.612Z</time>
      </trkpt>
      <trkpt lat="41.13311" lon="19.59683">
        <ele>70.754714</ele>
        <time>2022-05-03T11:07:07.633Z</time>
      </trkpt>
      <trkpt lat="41.13315" lon="19.59696">
        <ele>71.1487</ele>
        <time>2022-05-03T11:07:10.637Z</time>
      </trkpt>
      <trkpt lat="41.13318" lon="19.59709">
        <ele>71.333833</ele>
        <time>2022-05-03T11:07:13.638Z</time>
      </trkpt>
      <trkpt lat="41.13322" lon="19.59721">
        <ele>71.1381</ele>
        <time>2022-05-03T11:07:16.629Z</time>
      </trkpt>
      <trkpt lat="41.13326" lon="19.59733">
        <ele>70.937339</ele>
        <time>2022-05-03T11:07:19.644Z</time>
      </trkpt>
      <trkpt lat="41.13329" lon="19.59747">
        <ele>70.722381</ele>
        <time>2022-05-03T11:07:22.628Z</time>
      </trkpt>
      <trkpt lat="41.13332" lon="19.59759">
        <ele>70.528049</ele>
        <time>2022-05-03T11:07:25.620Z</time>
      </trkpt>
      <trkpt lat="41.1334" lon="19.59769">
        <ele>70.297533</ele>
        <time>2022-05-03T11:07:29.650Z</time>
      </trkpt>
      <trkpt lat="41.13351" lon="19.59765">
        <ele>70.06955</ele>
        <time>2022-05-03T11:07:33.632Z</time>
      </trkpt>
      <trkpt lat="41.1336" lon="19.59759">
        <ele>69.874768</ele>
        <time>2022-05-03T11:07:37.630Z</time>
      </trkpt>
      <trkpt lat="41.13369" lon="19.59754">
        <ele>69.687014</ele>
        <time>2022-05-03T11:07:42.634Z</time>
      </trkpt>
      <trkpt lat="41.1338" lon="19.59748">
        <ele>69.449854</ele>
        <time>2022-05-03T11:07:47.631Z</time>
      </trkpt>
      <trkpt lat="41.13388" lon="19.59743">
        <ele>69.267821</ele>
        <time>2022-05-03T11:07:49.634Z</time>
      </trkpt>
      <trkpt lat="41.13397" lon="19.59736">
        <ele>69.044706</ele>
        <time>2022-05-03T11:07:51.620Z</time>
      </trkpt>
      <trkpt lat="41.13408" lon="19.59728">
        <ele>68.806366</ele>
        <time>2022-05-03T11:07:53.631Z</time>
      </trkpt>
      <trkpt lat="41.13418" lon="19.59722">
        <ele>68.572269</ele>
        <time>2022-05-03T11:07:55.610Z</time>
      </trkpt>
      <trkpt lat="41.13428" lon="19.59716">
        <ele>68.351625</ele>
        <time>2022-05-03T11:07:57.627Z</time>
      </trkpt>
      <trkpt lat="41.13438" lon="19.59708">
        <ele>68.136881</ele>
        <time>2022-05-03T11:07:59.631Z</time>
      </trkpt>
      <trkpt lat="41.13447" lon="19.59702">
        <ele>67.930414</ele>
        <time>2022-05-03T11:08:01.634Z</time>
      </trkpt>
      <trkpt lat="41.13456" lon="19.59696">
        <ele>67.719302</ele>
        <time>2022-05-03T11:08:03.629Z</time>
      </trkpt>
      <trkpt lat="41.13464" lon="19.5969">
        <ele>67.527395</ele>
        <time>2022-05-03T11:08:05.633Z</time>
      </trkpt>
      <trkpt lat="41.13473" lon="19.59681">
        <ele>67.292066</ele>
        <time>2022-05-03T11:08:08.610Z</time>
      </trkpt>
      <trkpt lat="41.13477" lon="19.59669">
        <ele>67.088539</ele>
        <time>2022-05-03T11:08:11.625Z</time>
      </trkpt>
      <trkpt lat="41.13472" lon="19.59654">
        <ele>66.830043</ele>
        <time>2022-05-03T11:08:14.627Z</time>
      </trkpt>
      <trkpt lat="41.13466" lon="19.59644">
        <ele>66.637013</ele>
        <time>2022-05-03T11:08:16.619Z</time>
      </trkpt>
      <trkpt lat="41.1346" lon="19.5963">
        <ele>66.368838</ele>
        <time>2022-05-03T11:08:19.633Z</time>
      </trkpt>
      <trkpt lat="41.13455" lon="19.59617">
        <ele>66.145294</ele>
        <time>2022-05-03T11:08:22.628Z</time>
      </trkpt>
      <trkpt lat="41.13455" lon="19.59605">
        <ele>65.952604</ele>
        <time>2022-05-03T11:08:26.639Z</time>
      </trkpt>
      <trkpt lat="41.13451" lon="19.59591">
        <ele>65.714631</ele>
        <time>2022-05-03T11:08:31.621Z</time>
      </trkpt>
      <trkpt lat="41.13447" lon="19.59577">
        <ele>65.489927</ele>
        <time>2022-05-03T11:08:35.622Z</time>
      </trkpt>
      <trkpt lat="41.13443" lon="19.59566">
        <ele>65.2777</ele>
        <time>2022-05-03T11:08:39.659Z</time>
      </trkpt>
      <trkpt lat="41.13439" lon="19.59552">
        <ele>65.041204</ele>
        <time>2022-05-03T11:08:43.630Z</time>
      </trkpt>
      <trkpt lat="41.13445" lon="19.5954">
        <ele>64.812847</ele>
        <time>2022-05-03T11:08:47.646Z</time>
      </trkpt>
      <trkpt lat="41.13456" lon="19.59536">
        <ele>64.566341</ele>
        <time>2022-05-03T11:08:50.633Z</time>
      </trkpt>
      <trkpt lat="41.13467" lon="19.5953">
        <ele>64.331101</ele>
        <time>2022-05-03T11:08:53.629Z</time>
      </trkpt>
      <trkpt lat="41.13477" lon="19.59525">
        <ele>64.101659</ele>
        <time>2022-05-03T11:08:56.642Z</time>
      </trkpt>
      <trkpt lat="41.13487" lon="19.5952">
        <ele>64.2429</ele>
        <time>2022-05-03T11:08:59.623Z</time>
      </trkpt>
      <trkpt lat="41.13498" lon="19.59515">
        <ele>64.613484</ele>
        <time>2022-05-03T11:09:02.607Z</time>
      </trkpt>
      <trkpt lat="41.13508" lon="19.59511">
        <ele>64.969116</ele>
        <time>2022-05-03T11:09:05.622Z</time>
      </trkpt>
      <trkpt lat="41.13518" lon="19.5951">
        <ele>65.296829</ele>
        <time>2022-05-03T11:09:08.634Z</time>
      </trkpt>
      <trkpt lat="41.13527" lon="19.59505">
        <ele>65.607977</ele>
        <time>2022-05-03T11:09:12.626Z</time>
      </trkpt>
      <trkpt lat="41.13537" lon="19.59501">
        <ele>65.964426</ele>
        <time>2022-05-03T11:09:16.628Z</time>
      </trkpt>
      <trkpt lat="41.13547" lon="19.59493">
        <ele>66.365002</ele>
        <time>2022-05-03T11:09:20.617Z</time>
      </trkpt>
      <trkpt lat="41.13557" lon="19.59487">
        <ele>66.703073</ele>
        <time>2022-05-03T11:09:23.639Z</time>
      </trkpt>
      <trkpt lat="41.13567" lon="19.59484">
        <ele>67.054205</ele>
        <time>2022-05-03T11:09:26.621Z</time>
      </trkpt>
      <trkpt lat="41.13577" lon="19.59482">
        <ele>67.389211</ele>
        <time>2022-05-03T11:09:29.626Z</time>
      </trkpt>
      <trkpt lat="41.13585" lon="19.59476">
        <ele>67.70319</ele>
        <time>2022-05-03T11:09:32.627Z</time>
      </trkpt>
      <trkpt lat="41.13597" lon="19.59473">
        <ele>68.084997</ele>
        <time>2022-05-03T11:09:36.645Z</time>
      </trkpt>
      <trkpt lat="41.13607" lon="19.59466">
        <ele>68.468416</ele>
        <time>2022-05-03T11:09:39.602Z</time>
      </trkpt>
      <trkpt lat="41.13619" lon="19.5946">
        <ele>68.882183</ele>
        <time>2022-05-03T11:09:42.633Z</time>
      </trkpt>
      <trkpt lat="41.1363" lon="19.59453">
        <ele>69.287717</ele>
        <time>2022-05-03T11:09:45.617Z</time>
      </trkpt>
      <trkpt lat="41.1364" lon="19.59448">
        <ele>69.664293</ele>
        <time>2022-05-03T11:09:48.622Z</time>
      </trkpt>
      <trkpt lat="41.13651" lon="19.59444">
        <ele>69.954871</ele>
        <time>2022-05-03T11:09:51.632Z</time>
      </trkpt>
      <trkpt lat="41.13662" lon="19.59439">
        <ele>69.859361</ele>
        <time>2022-05-03T11:09:54.636Z</time>
      </trkpt>
      <trkpt lat="41.13673" lon="19.59433">
        <ele>69.768016</ele>
        <time>2022-05-03T11:09:57.627Z</time>
      </trkpt>
      <trkpt lat="41.13682" lon="19.59427">
        <ele>69.679191</ele>
        <time>2022-05-03T11:10:00.626Z</time>
      </trkpt>
      <trkpt lat="41.13693" lon="19.59423">
        <ele>69.589887</ele>
        <time>2022-05-03T11:10:03.639Z</time>
      </trkpt>
      <trkpt lat="41.13702" lon="19.59418">
        <ele>69.508032</ele>
        <time>2022-05-03T11:10:06.653Z</time>
      </trkpt>
      <trkpt lat="41.13711" lon="19.59415">
        <ele>69.429747</ele>
        <time>2022-05-03T11:10:09.639Z</time>
      </trkpt>
      <trkpt lat="41.13721" lon="19.59411">
        <ele>69.349111</ele>
        <time>2022-05-03T11:10:12.631Z</time>
      </trkpt>
      <trkpt lat="41.13731" lon="19.59407">
        <ele>69.265058</ele>
        <time>2022-05-03T11:10:15.668Z</time>
      </trkpt>
      <trkpt lat="41.13742" lon="19.59402">
        <ele>69.17055</ele>
        <time>2022-05-03T11:10:18.629Z</time>
      </trkpt>
      <trkpt lat="41.13754" lon="19.59395">
        <ele>69.061738</ele>
        <time>2022-05-03T11:10:21.615Z</time>
      </trkpt>
      <trkpt lat="41.13766" lon="19.5939">
        <ele>68.957919</ele>
        <time>2022-05-03T11:10:24.623Z</time>
      </trkpt>
      <trkpt lat="41.13778" lon="19.59385">
        <ele>68.858374</ele>
        <time>2022-05-03T11:10:27.637Z</time>
      </trkpt>
      <trkpt lat="41.13789" lon="19.5938">
        <ele>68.759605</ele>
        <time>2022-05-03T11:10:30.633Z</time>
      </trkpt>
      <trkpt lat="41.138" lon="19.59375">
        <ele>68.667789</ele>
        <time>2022-05-03T11:10:33.626Z</time>
      </trkpt>
      <trkpt lat="41.1381" lon="19.59368">
        <ele>68.57725</ele>
        <time>2022-05-03T11:10:36.629Z</time>
      </trkpt>
      <trkpt lat="41.13819" lon="19.59362">
        <ele>68.502898</ele>
        <time>2022-05-03T11:10:39.626Z</time>
      </trkpt>
      <trkpt lat="41.13829" lon="19.59358">
        <ele>68.505815</ele>
        <time>2022-05-03T11:10:42.638Z</time>
      </trkpt>
      <trkpt lat="41.13839" lon="19.59354">
        <ele>68.50904</ele>
        <time>2022-05-03T11:10:45.634Z</time>
      </trkpt>
      <trkpt lat="41.13849" lon="19.59349">
        <ele>68.512077</ele>
        <time>2022-05-03T11:10:48.616Z</time>
      </trkpt>
      <trkpt lat="41.13858" lon="19.59344">
        <ele>68.514931</ele>
        <time>2022-05-03T11:10:51.627Z</time>
      </trkpt>
      <trkpt lat="41.13868" lon="19.59341">
        <ele>68.517923</ele>
        <time>2022-05-03T11:10:55.628Z</time>
      </trkpt>
      <trkpt lat="41.13876" lon="19.59334">
        <ele>68.520784</ele>
        <time>2022-05-03T11:10:58.639Z</time>
      </trkpt>
      <trkpt lat="41.13885" lon="19.59329">
        <ele>68.523653</ele>
        <time>2022-05-03T11:11:01.625Z</time>
      </trkpt>
      <trkpt lat="41.13895" lon="19.59323">
        <ele>68.526889</ele>
        <time>2022-05-03T11:11:04.643Z</time>
      </trkpt>
      <trkpt lat="41.13906" lon="19.59319">
        <ele>68.530344</ele>
        <time>2022-05-03T11:11:07.641Z</time>
      </trkpt>
      <trkpt lat="41.13919" lon="19.59314">
        <ele>68.534241</ele>
        <time>2022-05-03T11:11:10.627Z</time>
      </trkpt>
      <trkpt lat="41.13928" lon="19.59309">
        <ele>68.537277</ele>
        <time>2022-05-03T11:11:12.633Z</time>
      </trkpt>
      <trkpt lat="41.13937" lon="19.59306">
        <ele>68.540006</ele>
        <time>2022-05-03T11:11:14.624Z</time>
      </trkpt>
      <trkpt lat="41.13949" lon="19.593">
        <ele>68.543727</ele>
        <time>2022-05-03T11:11:17.635Z</time>
      </trkpt>
      <trkpt lat="41.13961" lon="19.59295">
        <ele>68.54728</ele>
        <time>2022-05-03T11:11:20.642Z</time>
      </trkpt>
      <trkpt lat="41.13972" lon="19.5929">
        <ele>68.550895</ele>
        <time>2022-05-03T11:11:23.631Z</time>
      </trkpt>
      <trkpt lat="41.13983" lon="19.59284">
        <ele>68.554192</ele>
        <time>2022-05-03T11:11:26.640Z</time>
      </trkpt>
      <trkpt lat="41.13994" lon="19.59278">
        <ele>68.582002</ele>
        <time>2022-05-03T11:11:29.632Z</time>
      </trkpt>
      <trkpt lat="41.14005" lon="19.59273">
        <ele>68.621615</ele>
        <time>2022-05-03T11:11:32.624Z</time>
      </trkpt>
      <trkpt lat="41.14015" lon="19.59268">
        <ele>68.660409</ele>
        <time>2022-05-03T11:11:35.636Z</time>
      </trkpt>
      <trkpt lat="41.14027" lon="19.59264">
        <ele>68.702222</ele>
        <time>2022-05-03T11:11:38.622Z</time>
      </trkpt>
      <trkpt lat="41.14038" lon="19.59259">
        <ele>68.74346</ele>
        <time>2022-05-03T11:11:41.622Z</time>
      </trkpt>
      <trkpt lat="41.14049" lon="19.59254">
        <ele>68.783721</ele>
        <time>2022-05-03T11:11:44.644Z</time>
      </trkpt>
      <trkpt lat="41.1406" lon="19.59248">
        <ele>68.823916</ele>
        <time>2022-05-03T11:11:47.637Z</time>
      </trkpt>
      <trkpt lat="41.14071" lon="19.59244">
        <ele>68.861976</ele>
        <time>2022-05-03T11:11:50.630Z</time>
      </trkpt>
      <trkpt lat="41.14082" lon="19.59239">
        <ele>68.902169</ele>
        <time>2022-05-03T11:11:53.620Z</time>
      </trkpt>
      <trkpt lat="41.14093" lon="19.59235">
        <ele>68.940973</ele>
        <time>2022-05-03T11:11:56.627Z</time>
      </trkpt>
      <trkpt lat="41.14103" lon="19.59229">
        <ele>68.978595</ele>
        <time>2022-05-03T11:11:59.620Z</time>
      </trkpt>
      <trkpt lat="41.14114" lon="19.59225">
        <ele>69.017307</ele>
        <time>2022-05-03T11:12:02.628Z</time>
      </trkpt>
      <trkpt lat="41.14125" lon="19.5922">
        <ele>69.05651</ele>
        <time>2022-05-03T11:12:05.610Z</time>
      </trkpt>
      <trkpt lat="41.14135" lon="19.59215">
        <ele>69.094735</ele>
        <time>2022-05-03T11:12:08.615Z</time>
      </trkpt>
      <trkpt lat="41.14147" lon="19.5921">
        <ele>69.13631</ele>
        <time>2022-05-03T11:12:11.674Z</time>
      </trkpt>
      <trkpt lat="41.14158" lon="19.59204">
        <ele>69.163939</ele>
        <time>2022-05-03T11:12:14.616Z</time>
      </trkpt>
      <trkpt lat="41.14169" lon="19.592">
        <ele>69.070028</ele>
        <time>2022-05-03T11:12:17.623Z</time>
      </trkpt>
      <trkpt lat="41.1418" lon="19.59196">
        <ele>68.974365</ele>
        <time>2022-05-03T11:12:20.634Z</time>
      </trkpt>
      <trkpt lat="41.14191" lon="19.5919">
        <ele>68.874061</ele>
        <time>2022-05-03T11:12:23.621Z</time>
      </trkpt>
      <trkpt lat="41.14202" lon="19.59185">
        <ele>68.775948</ele>
        <time>2022-05-03T11:12:26.644Z</time>
      </trkpt>
      <trkpt lat="41.14213" lon="19.59179">
        <ele>68.678262</ele>
        <time>2022-05-03T11:12:29.631Z</time>
      </trkpt>
      <trkpt lat="41.14224" lon="19.59173">
        <ele>68.584137</ele>
        <time>2022-05-03T11:12:32.629Z</time>
      </trkpt>
      <trkpt lat="41.14235" lon="19.59166">
        <ele>68.488256</ele>
        <time>2022-05-03T11:12:35.632Z</time>
      </trkpt>
      <trkpt lat="41.14246" lon="19.5916">
        <ele>68.386356</ele>
        <time>2022-05-03T11:12:38.612Z</time>
      </trkpt>
      <trkpt lat="41.14257" lon="19.59155">
        <ele>68.288474</ele>
        <time>2022-05-03T11:12:41.613Z</time>
      </trkpt>
      <trkpt lat="41.14268" lon="19.5915">
        <ele>68.195634</ele>
        <time>2022-05-03T11:12:44.636Z</time>
      </trkpt>
      <trkpt lat="41.14278" lon="19.59145">
        <ele>68.102917</ele>
        <time>2022-05-03T11:12:47.629Z</time>
      </trkpt>
      <trkpt lat="41.1429" lon="19.5914">
        <ele>68.00522</ele>
        <time>2022-05-03T11:12:50.640Z</time>
      </trkpt>
      <trkpt lat="41.14301" lon="19.59134">
        <ele>67.905465</ele>
        <time>2022-05-03T11:12:53.644Z</time>
      </trkpt>
      <trkpt lat="41.14313" lon="19.59128">
        <ele>67.799439</ele>
        <time>2022-05-03T11:12:56.635Z</time>
      </trkpt>
      <trkpt lat="41.14324" lon="19.59123">
        <ele>67.705829</ele>
        <time>2022-05-03T11:12:59.639Z</time>
      </trkpt>
      <trkpt lat="41.14334" lon="19.59119">
        <ele>68.05796</ele>
        <time>2022-05-03T11:13:02.664Z</time>
      </trkpt>
      <trkpt lat="41.14345" lon="19.59113">
        <ele>68.501252</ele>
        <time>2022-05-03T11:13:05.638Z</time>
      </trkpt>
      <trkpt lat="41.14356" lon="19.59109">
        <ele>68.949597</ele>
        <time>2022-05-03T11:13:08.612Z</time>
      </trkpt>
      <trkpt lat="41.14367" lon="19.59104">
        <ele>69.391389</ele>
        <time>2022-05-03T11:13:11.622Z</time>
      </trkpt>
      <trkpt lat="41.14377" lon="19.59099">
        <ele>69.822069</ele>
        <time>2022-05-03T11:13:14.612Z</time>
      </trkpt>
      <trkpt lat="41.14387" lon="19.59094">
        <ele>70.220119</ele>
        <time>2022-05-03T11:13:17.624Z</time>
      </trkpt>
      <trkpt lat="41.14397" lon="19.5909">
        <ele>70.64263</ele>
        <time>2022-05-03T11:13:20.626Z</time>
      </trkpt>
      <trkpt lat="41.14407" lon="19.59085">
        <ele>71.070548</ele>
        <time>2022-05-03T11:13:23.631Z</time>
      </trkpt>
      <trkpt lat="41.14417" lon="19.5908">
        <ele>71.471754</ele>
        <time>2022-05-03T11:13:26.649Z</time>
      </trkpt>
      <trkpt lat="41.14427" lon="19.59075">
        <ele>71.898086</ele>
        <time>2022-05-03T11:13:30.622Z</time>
      </trkpt>
      <trkpt lat="41.14437" lon="19.59071">
        <ele>72.31236</ele>
        <time>2022-05-03T11:13:34.629Z</time>
      </trkpt>
      <trkpt lat="41.1445" lon="19.5907">
        <ele>72.792555</ele>
        <time>2022-05-03T11:13:38.615Z</time>
      </trkpt>
      <trkpt lat="41.14459" lon="19.59073">
        <ele>73.161561</ele>
        <time>2022-05-03T11:13:41.619Z</time>
      </trkpt>
      <trkpt lat="41.14466" lon="19.59082">
        <ele>73.556252</ele>
        <time>2022-05-03T11:13:45.625Z</time>
      </trkpt>
      <trkpt lat="41.14477" lon="19.59085">
        <ele>73.988701</ele>
        <time>2022-05-03T11:13:49.601Z</time>
      </trkpt>
      <trkpt lat="41.14487" lon="19.59081">
        <ele>74.418751</ele>
        <time>2022-05-03T11:13:52.607Z</time>
      </trkpt>
      <trkpt lat="41.14496" lon="19.59076">
        <ele>74.657418</ele>
        <time>2022-05-03T11:13:55.630Z</time>
      </trkpt>
      <trkpt lat="41.14506" lon="19.59073">
        <ele>74.517194</ele>
        <time>2022-05-03T11:13:58.612Z</time>
      </trkpt>
      <trkpt lat="41.14515" lon="19.59069">
        <ele>74.36214</ele>
        <time>2022-05-03T11:14:01.630Z</time>
      </trkpt>
      <trkpt lat="41.14526" lon="19.59065">
        <ele>74.205735</ele>
        <time>2022-05-03T11:14:04.643Z</time>
      </trkpt>
      <trkpt lat="41.14537" lon="19.5906">
        <ele>74.021913</ele>
        <time>2022-05-03T11:14:07.635Z</time>
      </trkpt>
      <trkpt lat="41.14549" lon="19.59054">
        <ele>73.828148</ele>
        <time>2022-05-03T11:14:10.631Z</time>
      </trkpt>
      <trkpt lat="41.14556" lon="19.59045">
        <ele>73.689307</ele>
        <time>2022-05-03T11:14:12.634Z</time>
      </trkpt>
      <trkpt lat="41.1456" lon="19.59029">
        <ele>73.496592</ele>
        <time>2022-05-03T11:14:15.624Z</time>
      </trkpt>
      <trkpt lat="41.14565" lon="19.59018">
        <ele>73.353053</ele>
        <time>2022-05-03T11:14:17.649Z</time>
      </trkpt>
      <trkpt lat="41.14574" lon="19.59011">
        <ele>73.193614</ele>
        <time>2022-05-03T11:14:19.609Z</time>
      </trkpt>
      <trkpt lat="41.14585" lon="19.59006">
        <ele>73.016203</ele>
        <time>2022-05-03T11:14:21.618Z</time>
      </trkpt>
      <trkpt lat="41.14596" lon="19.59">
        <ele>72.841083</ele>
        <time>2022-05-03T11:14:23.676Z</time>
      </trkpt>
      <trkpt lat="41.14606" lon="19.58994">
        <ele>72.681467</ele>
        <time>2022-05-03T11:14:25.631Z</time>
      </trkpt>
      <trkpt lat="41.14616" lon="19.58988">
        <ele>72.51291</ele>
        <time>2022-05-03T11:14:27.617Z</time>
      </trkpt>
      <trkpt lat="41.14626" lon="19.58982">
        <ele>72.346567</ele>
        <time>2022-05-03T11:14:29.651Z</time>
      </trkpt>
      <trkpt lat="41.14637" lon="19.58977">
        <ele>72.171614</ele>
        <time>2022-05-03T11:14:31.649Z</time>
      </trkpt>
      <trkpt lat="41.14647" lon="19.58972">
        <ele>72.007496</ele>
        <time>2022-05-03T11:14:33.633Z</time>
      </trkpt>
      <trkpt lat="41.14657" lon="19.58966">
        <ele>71.693736</ele>
        <time>2022-05-03T11:14:35.620Z</time>
      </trkpt>
      <trkpt lat="41.14667" lon="19.58961">
        <ele>71.381275</ele>
        <time>2022-05-03T11:14:37.664Z</time>
      </trkpt>
      <trkpt lat="41.14676" lon="19.58955">
        <ele>71.063372</ele>
        <time>2022-05-03T11:14:39.614Z</time>
      </trkpt>
      <trkpt lat="41.14686" lon="19.58949">
        <ele>70.739754</ele>
        <time>2022-05-03T11:14:41.621Z</time>
      </trkpt>
      <trkpt lat="41.14696" lon="19.58943">
        <ele>70.429108</ele>
        <time>2022-05-03T11:14:43.626Z</time>
      </trkpt>
      <trkpt lat="41.14705" lon="19.58938">
        <ele>70.122844</ele>
        <time>2022-05-03T11:14:45.623Z</time>
      </trkpt>
      <trkpt lat="41.14715" lon="19.58933">
        <ele>69.81314</ele>
        <time>2022-05-03T11:14:47.642Z</time>
      </trkpt>
      <trkpt lat="41.14724" lon="19.58927">
        <ele>69.497977</ele>
        <time>2022-05-03T11:14:49.626Z</time>
      </trkpt>
      <trkpt lat="41.14734" lon="19.58921">
        <ele>69.17642</ele>
        <time>2022-05-03T11:14:51.635Z</time>
      </trkpt>
      <trkpt lat="41.14744" lon="19.58914">
        <ele>68.840733</ele>
        <time>2022-05-03T11:14:53.645Z</time>
      </trkpt>
      <trkpt lat="41.14754" lon="19.58908">
        <ele>68.497202</ele>
        <time>2022-05-03T11:14:55.631Z</time>
      </trkpt>
      <trkpt lat="41.14765" lon="19.58902">
        <ele>68.15446</ele>
        <time>2022-05-03T11:14:57.632Z</time>
      </trkpt>
      <trkpt lat="41.14776" lon="19.58897">
        <ele>67.799752</ele>
        <time>2022-05-03T11:14:59.618Z</time>
      </trkpt>
      <trkpt lat="41.14788" lon="19.58891">
        <ele>67.41362</ele>
        <time>2022-05-03T11:15:01.633Z</time>
      </trkpt>
      <trkpt lat="41.148" lon="19.58885">
        <ele>67.035734</ele>
        <time>2022-05-03T11:15:03.602Z</time>
      </trkpt>
      <trkpt lat="41.14812" lon="19.5888">
        <ele>66.666585</ele>
        <time>2022-05-03T11:15:05.669Z</time>
      </trkpt>
      <trkpt lat="41.14823" lon="19.58874">
        <ele>66.474914</ele>
        <time>2022-05-03T11:15:07.636Z</time>
      </trkpt>
      <trkpt lat="41.14834" lon="19.58868">
        <ele>66.314224</ele>
        <time>2022-05-03T11:15:09.621Z</time>
      </trkpt>
      <trkpt lat="41.14844" lon="19.58863">
        <ele>66.156681</ele>
        <time>2022-05-03T11:15:11.627Z</time>
      </trkpt>
      <trkpt lat="41.14855" lon="19.58857">
        <ele>66.000942</ele>
        <time>2022-05-03T11:15:13.635Z</time>
      </trkpt>
      <trkpt lat="41.14865" lon="19.58851">
        <ele>65.846934</ele>
        <time>2022-05-03T11:15:15.622Z</time>
      </trkpt>
      <trkpt lat="41.14875" lon="19.58843">
        <ele>65.693828</ele>
        <time>2022-05-03T11:15:17.633Z</time>
      </trkpt>
      <trkpt lat="41.14883" lon="19.58834">
        <ele>65.543568</ele>
        <time>2022-05-03T11:15:19.630Z</time>
      </trkpt>
      <trkpt lat="41.14891" lon="19.58823">
        <ele>65.393636</ele>
        <time>2022-05-03T11:15:21.630Z</time>
      </trkpt>
      <trkpt lat="41.14898" lon="19.58812">
        <ele>65.246538</ele>
        <time>2022-05-03T11:15:23.620Z</time>
      </trkpt>
      <trkpt lat="41.14903" lon="19.588">
        <ele>65.102427</ele>
        <time>2022-05-03T11:15:25.619Z</time>
      </trkpt>
      <trkpt lat="41.14908" lon="19.58788">
        <ele>64.958471</ele>
        <time>2022-05-03T11:15:27.643Z</time>
      </trkpt>
      <trkpt lat="41.14912" lon="19.58776">
        <ele>64.820336</ele>
        <time>2022-05-03T11:15:29.638Z</time>
      </trkpt>
      <trkpt lat="41.14918" lon="19.58764">
        <ele>64.682442</ele>
        <time>2022-05-03T11:15:31.644Z</time>
      </trkpt>
      <trkpt lat="41.14923" lon="19.58753">
        <ele>64.552115</ele>
        <time>2022-05-03T11:15:33.661Z</time>
      </trkpt>
      <trkpt lat="41.1493" lon="19.58739">
        <ele>64.373175</ele>
        <time>2022-05-03T11:15:36.646Z</time>
      </trkpt>
      <trkpt lat="41.14937" lon="19.58724">
        <ele>64.195484</ele>
        <time>2022-05-03T11:15:39.623Z</time>
      </trkpt>
      <trkpt lat="41.14944" lon="19.5871">
        <ele>64.391985</ele>
        <time>2022-05-03T11:15:42.626Z</time>
      </trkpt>
      <trkpt lat="41.14949" lon="19.58699">
        <ele>64.613548</ele>
        <time>2022-05-03T11:15:44.668Z</time>
      </trkpt>
      <trkpt lat="41.14955" lon="19.58688">
        <ele>64.846093</ele>
        <time>2022-05-03T11:15:46.617Z</time>
      </trkpt>
      <trkpt lat="41.14961" lon="19.58678">
        <ele>65.088231</ele>
        <time>2022-05-03T11:15:48.628Z</time>
      </trkpt>
      <trkpt lat="41.14968" lon="19.58667">
        <ele>65.331501</ele>
        <time>2022-05-03T11:15:50.613Z</time>
      </trkpt>
      <trkpt lat="41.14976" lon="19.58659">
        <ele>65.560209</ele>
        <time>2022-05-03T11:15:52.635Z</time>
      </trkpt>
      <trkpt lat="41.14986" lon="19.58648">
        <ele>65.865694</ele>
        <time>2022-05-03T11:15:55.651Z</time>
      </trkpt>
      <trkpt lat="41.14994" lon="19.58642">
        <ele>66.086608</ele>
        <time>2022-05-03T11:15:57.621Z</time>
      </trkpt>
      <trkpt lat="41.15002" lon="19.58635">
        <ele>66.306584</ele>
        <time>2022-05-03T11:15:59.627Z</time>
      </trkpt>
      <trkpt lat="41.1501" lon="19.58629">
        <ele>66.5223</ele>
        <time>2022-05-03T11:16:01.634Z</time>
      </trkpt>
      <trkpt lat="41.15022" lon="19.5862">
        <ele>66.833885</ele>
        <time>2022-05-03T11:16:04.625Z</time>
      </trkpt>
      <trkpt lat="41.15033" lon="19.58612">
        <ele>67.129883</ele>
        <time>2022-05-03T11:16:07.638Z</time>
      </trkpt>
      <trkpt lat="41.15043" lon="19.58603">
        <ele>67.413906</ele>
        <time>2022-05-03T11:16:10.628Z</time>
      </trkpt>
      <trkpt lat="41.15054" lon="19.58596">
        <ele>67.689558</ele>
        <time>2022-05-03T11:16:13.621Z</time>
      </trkpt>
      <trkpt lat="41.15062" lon="19.5859">
        <ele>67.903758</ele>
        <time>2022-05-03T11:16:15.624Z</time>
      </trkpt>
      <trkpt lat="41.1507" lon="19.58585">
        <ele>68.113775</ele>
        <time>2022-05-03T11:16:17.620Z</time>
      </trkpt>
      <trkpt lat="41.15078" lon="19.5858">
        <ele>68.323296</ele>
        <time>2022-05-03T11:16:19.618Z</time>
      </trkpt>
      <trkpt lat="41.15087" lon="19.58574">
        <ele>68.101084</ele>
        <time>2022-05-03T11:16:21.628Z</time>
      </trkpt>
      <trkpt lat="41.15096" lon="19.58568">
        <ele>67.845129</ele>
        <time>2022-05-03T11:16:23.639Z</time>
      </trkpt>
      <trkpt lat="41.15104" lon="19.58562">
        <ele>67.596493</ele>
        <time>2022-05-03T11:16:25.651Z</time>
      </trkpt>
      <trkpt lat="41.15113" lon="19.58556">
        <ele>67.345162</ele>
        <time>2022-05-03T11:16:27.633Z</time>
      </trkpt>
      <trkpt lat="41.15122" lon="19.58549">
        <ele>67.070771</ele>
        <time>2022-05-03T11:16:29.643Z</time>
      </trkpt>
      <trkpt lat="41.15131" lon="19.58543">
        <ele>66.793153</ele>
        <time>2022-05-03T11:16:31.610Z</time>
      </trkpt>
      <trkpt lat="41.15141" lon="19.58536">
        <ele>66.524673</ele>
        <time>2022-05-03T11:16:33.632Z</time>
      </trkpt>
      <trkpt lat="41.1515" lon="19.58531">
        <ele>66.261132</ele>
        <time>2022-05-03T11:16:35.645Z</time>
      </trkpt>
      <trkpt lat="41.15158" lon="19.58525">
        <ele>66.003751</ele>
        <time>2022-05-03T11:16:37.629Z</time>
      </trkpt>
      <trkpt lat="41.15167" lon="19.58518">
        <ele>65.736267</ele>
        <time>2022-05-03T11:16:39.633Z</time>
      </trkpt>
      <trkpt lat="41.15176" lon="19.58512">
        <ele>65.476174</ele>
        <time>2022-05-03T11:16:41.623Z</time>
      </trkpt>
      <trkpt lat="41.15185" lon="19.58505">
        <ele>65.205457</ele>
        <time>2022-05-03T11:16:43.645Z</time>
      </trkpt>
      <trkpt lat="41.15194" lon="19.58499">
        <ele>64.947099</ele>
        <time>2022-05-03T11:16:45.644Z</time>
      </trkpt>
      <trkpt lat="41.15206" lon="19.5849">
        <ele>64.590141</ele>
        <time>2022-05-03T11:16:48.640Z</time>
      </trkpt>
      <trkpt lat="41.15214" lon="19.58484">
        <ele>64.338562</ele>
        <time>2022-05-03T11:16:50.630Z</time>
      </trkpt>
      <trkpt lat="41.15223" lon="19.58477">
        <ele>64.075204</ele>
        <time>2022-05-03T11:16:52.629Z</time>
      </trkpt>
      <trkpt lat="41.15232" lon="19.58469">
        <ele>63.806514</ele>
        <time>2022-05-03T11:16:54.652Z</time>
      </trkpt>
      <trkpt lat="41.1524" lon="19.58462">
        <ele>63.611966</ele>
        <time>2022-05-03T11:16:56.620Z</time>
      </trkpt>
      <trkpt lat="41.15249" lon="19.58458">
        <ele>63.526974</ele>
        <time>2022-05-03T11:16:58.613Z</time>
      </trkpt>
      <trkpt lat="41.15258" lon="19.58453">
        <ele>63.444173</ele>
        <time>2022-05-03T11:17:00.615Z</time>
      </trkpt>
      <trkpt lat="41.15267" lon="19.58446">
        <ele>63.362227</ele>
        <time>2022-05-03T11:17:02.625Z</time>
      </trkpt>
      <trkpt lat="41.15276" lon="19.58439">
        <ele>63.272084</ele>
        <time>2022-05-03T11:17:04.625Z</time>
      </trkpt>
      <trkpt lat="41.15285" lon="19.58433">
        <ele>63.185995</ele>
        <time>2022-05-03T11:17:06.602Z</time>
      </trkpt>
      <trkpt lat="41.15294" lon="19.58427">
        <ele>63.100494</ele>
        <time>2022-05-03T11:17:08.627Z</time>
      </trkpt>
      <trkpt lat="41.15302" lon="19.5842">
        <ele>63.018958</ele>
        <time>2022-05-03T11:17:10.607Z</time>
      </trkpt>
      <trkpt lat="41.1531" lon="19.58415">
        <ele>62.941833</ele>
        <time>2022-05-03T11:17:12.659Z</time>
      </trkpt>
      <trkpt lat="41.15319" lon="19.58408">
        <ele>62.860078</ele>
        <time>2022-05-03T11:17:14.638Z</time>
      </trkpt>
      <trkpt lat="41.15328" lon="19.58402">
        <ele>62.774864</ele>
        <time>2022-05-03T11:17:16.633Z</time>
      </trkpt>
      <trkpt lat="41.15337" lon="19.58396">
        <ele>62.689222</ele>
        <time>2022-05-03T11:17:18.666Z</time>
      </trkpt>
      <trkpt lat="41.15346" lon="19.5839">
        <ele>62.601244</ele>
        <time>2022-05-03T11:17:20.618Z</time>
      </trkpt>
      <trkpt lat="41.15356" lon="19.58384">
        <ele>62.507618</ele>
        <time>2022-05-03T11:17:22.625Z</time>
      </trkpt>
      <trkpt lat="41.15366" lon="19.58378">
        <ele>62.416527</ele>
        <time>2022-05-03T11:17:24.625Z</time>
      </trkpt>
      <trkpt lat="41.15375" lon="19.58372">
        <ele>62.329855</ele>
        <time>2022-05-03T11:17:26.645Z</time>
      </trkpt>
      <trkpt lat="41.15385" lon="19.58366">
        <ele>62.237724</ele>
        <time>2022-05-03T11:17:28.638Z</time>
      </trkpt>
      <trkpt lat="41.15394" lon="19.58359">
        <ele>62.148196</ele>
        <time>2022-05-03T11:17:30.619Z</time>
      </trkpt>
      <trkpt lat="41.15403" lon="19.58353">
        <ele>62.218389</ele>
        <time>2022-05-03T11:17:32.651Z</time>
      </trkpt>
      <trkpt lat="41.15412" lon="19.58346">
        <ele>62.353776</ele>
        <time>2022-05-03T11:17:34.632Z</time>
      </trkpt>
      <trkpt lat="41.1542" lon="19.58339">
        <ele>62.488534</ele>
        <time>2022-05-03T11:17:36.630Z</time>
      </trkpt>
      <trkpt lat="41.15431" lon="19.5833">
        <ele>62.66755</ele>
        <time>2022-05-03T11:17:39.612Z</time>
      </trkpt>
      <trkpt lat="41.15439" lon="19.58323">
        <ele>62.79826</ele>
        <time>2022-05-03T11:17:41.619Z</time>
      </trkpt>
      <trkpt lat="41.15447" lon="19.58316">
        <ele>62.927266</ele>
        <time>2022-05-03T11:17:43.649Z</time>
      </trkpt>
      <trkpt lat="41.15455" lon="19.58308">
        <ele>63.061385</ele>
        <time>2022-05-03T11:17:45.648Z</time>
      </trkpt>
      <trkpt lat="41.15464" lon="19.58302">
        <ele>63.196142</ele>
        <time>2022-05-03T11:17:47.622Z</time>
      </trkpt>
      <trkpt lat="41.15472" lon="19.58295">
        <ele>63.327498</ele>
        <time>2022-05-03T11:17:49.635Z</time>
      </trkpt>
      <trkpt lat="41.1548" lon="19.58288">
        <ele>63.458222</ele>
        <time>2022-05-03T11:17:51.644Z</time>
      </trkpt>
      <trkpt lat="41.15488" lon="19.58281">
        <ele>63.594779</ele>
        <time>2022-05-03T11:17:53.675Z</time>
      </trkpt>
      <trkpt lat="41.15497" lon="19.58274">
        <ele>63.734869</ele>
        <time>2022-05-03T11:17:55.635Z</time>
      </trkpt>
      <trkpt lat="41.15506" lon="19.58268">
        <ele>63.871515</ele>
        <time>2022-05-03T11:17:57.624Z</time>
      </trkpt>
      <trkpt lat="41.15515" lon="19.58263">
        <ele>64.003766</ele>
        <time>2022-05-03T11:17:59.617Z</time>
      </trkpt>
      <trkpt lat="41.15524" lon="19.58259">
        <ele>64.135528</ele>
        <time>2022-05-03T11:18:01.721Z</time>
      </trkpt>
      <trkpt lat="41.15534" lon="19.58256">
        <ele>64.269413</ele>
        <time>2022-05-03T11:18:03.624Z</time>
      </trkpt>
      <trkpt lat="41.15543" lon="19.5825">
        <ele>64.40836</ele>
        <time>2022-05-03T11:18:05.591Z</time>
      </trkpt>
      <trkpt lat="41.15552" lon="19.58243">
        <ele>64.549322</ele>
        <time>2022-05-03T11:18:07.602Z</time>
      </trkpt>
      <trkpt lat="41.1556" lon="19.58236">
        <ele>64.755459</ele>
        <time>2022-05-03T11:18:09.626Z</time>
      </trkpt>
      <trkpt lat="41.15569" lon="19.5823">
        <ele>64.977568</ele>
        <time>2022-05-03T11:18:11.656Z</time>
      </trkpt>
      <trkpt lat="41.15577" lon="19.58224">
        <ele>65.186695</ele>
        <time>2022-05-03T11:18:13.686Z</time>
      </trkpt>
      <trkpt lat="41.15586" lon="19.58217">
        <ele>65.401947</ele>
        <time>2022-05-03T11:18:15.631Z</time>
      </trkpt>
      <trkpt lat="41.15594" lon="19.58211">
        <ele>65.618535</ele>
        <time>2022-05-03T11:18:17.631Z</time>
      </trkpt>
      <trkpt lat="41.15603" lon="19.58204">
        <ele>65.839827</ele>
        <time>2022-05-03T11:18:19.617Z</time>
      </trkpt>
      <trkpt lat="41.15612" lon="19.58198">
        <ele>66.067777</ele>
        <time>2022-05-03T11:18:21.629Z</time>
      </trkpt>
      <trkpt lat="41.1562" lon="19.58191">
        <ele>66.284092</ele>
        <time>2022-05-03T11:18:23.632Z</time>
      </trkpt>
      <trkpt lat="41.15628" lon="19.58185">
        <ele>66.499343</ele>
        <time>2022-05-03T11:18:25.630Z</time>
      </trkpt>
      <trkpt lat="41.15637" lon="19.58178">
        <ele>66.716335</ele>
        <time>2022-05-03T11:18:27.624Z</time>
      </trkpt>
      <trkpt lat="41.15646" lon="19.58172">
        <ele>66.940205</ele>
        <time>2022-05-03T11:18:29.628Z</time>
      </trkpt>
      <trkpt lat="41.15656" lon="19.58167">
        <ele>67.176219</ele>
        <time>2022-05-03T11:18:31.630Z</time>
      </trkpt>
      <trkpt lat="41.15665" lon="19.5816">
        <ele>67.419762</ele>
        <time>2022-05-03T11:18:33.634Z</time>
      </trkpt>
      <trkpt lat="41.15675" lon="19.58154">
        <ele>67.666238</ele>
        <time>2022-05-03T11:18:35.625Z</time>
      </trkpt>
      <trkpt lat="41.15685" lon="19.58147">
        <ele>67.918195</ele>
        <time>2022-05-03T11:18:37.616Z</time>
      </trkpt>
      <trkpt lat="41.15695" lon="19.5814">
        <ele>68.165447</ele>
        <time>2022-05-03T11:18:39.620Z</time>
      </trkpt>
      <trkpt lat="41.15705" lon="19.58133">
        <ele>68.407997</ele>
        <time>2022-05-03T11:18:41.612Z</time>
      </trkpt>
      <trkpt lat="41.15714" lon="19.58126">
        <ele>68.565628</ele>
        <time>2022-05-03T11:18:43.627Z</time>
      </trkpt>
      <trkpt lat="41.15723" lon="19.5812">
        <ele>68.527926</ele>
        <time>2022-05-03T11:18:45.621Z</time>
      </trkpt>
      <trkpt lat="41.15734" lon="19.58114">
        <ele>68.483988</ele>
        <time>2022-05-03T11:18:47.616Z</time>
      </trkpt>
      <trkpt lat="41.15744" lon="19.58107">
        <ele>68.440302</ele>
        <time>2022-05-03T11:18:49.640Z</time>
      </trkpt>
      <trkpt lat="41.15754" lon="19.58099">
        <ele>68.398809</ele>
        <time>2022-05-03T11:18:51.637Z</time>
      </trkpt>
      <trkpt lat="41.15763" lon="19.58092">
        <ele>68.356794</ele>
        <time>2022-05-03T11:18:53.635Z</time>
      </trkpt>
      <trkpt lat="41.15773" lon="19.58086">
        <ele>68.315186</ele>
        <time>2022-05-03T11:18:55.628Z</time>
      </trkpt>
      <trkpt lat="41.15782" lon="19.58079">
        <ele>68.275716</ele>
        <time>2022-05-03T11:18:57.612Z</time>
      </trkpt>
      <trkpt lat="41.15791" lon="19.58072">
        <ele>68.236383</ele>
        <time>2022-05-03T11:18:59.621Z</time>
      </trkpt>
      <trkpt lat="41.15801" lon="19.58065">
        <ele>68.19511</ele>
        <time>2022-05-03T11:19:01.624Z</time>
      </trkpt>
      <trkpt lat="41.1581" lon="19.58058">
        <ele>68.153565</ele>
        <time>2022-05-03T11:19:03.658Z</time>
      </trkpt>
      <trkpt lat="41.1582" lon="19.58051">
        <ele>68.111882</ele>
        <time>2022-05-03T11:19:05.635Z</time>
      </trkpt>
      <trkpt lat="41.1583" lon="19.58044">
        <ele>68.070669</ele>
        <time>2022-05-03T11:19:07.623Z</time>
      </trkpt>
      <trkpt lat="41.15839" lon="19.58037">
        <ele>68.029317</ele>
        <time>2022-05-03T11:19:09.634Z</time>
      </trkpt>
      <trkpt lat="41.15848" lon="19.58031">
        <ele>67.989182</ele>
        <time>2022-05-03T11:19:11.650Z</time>
      </trkpt>
      <trkpt lat="41.15858" lon="19.58024">
        <ele>67.947909</ele>
        <time>2022-05-03T11:19:13.622Z</time>
      </trkpt>
      <trkpt lat="41.15868" lon="19.58016">
        <ele>67.905615</ele>
        <time>2022-05-03T11:19:15.617Z</time>
      </trkpt>
      <trkpt lat="41.15878" lon="19.58009">
        <ele>67.798814</ele>
        <time>2022-05-03T11:19:17.625Z</time>
      </trkpt>
      <trkpt lat="41.15888" lon="19.58001">
        <ele>67.676354</ele>
        <time>2022-05-03T11:19:19.617Z</time>
      </trkpt>
      <trkpt lat="41.15898" lon="19.57993">
        <ele>67.557471</ele>
        <time>2022-05-03T11:19:21.700Z</time>
      </trkpt>
      <trkpt lat="41.15909" lon="19.57986">
        <ele>67.437561</ele>
        <time>2022-05-03T11:19:23.632Z</time>
      </trkpt>
      <trkpt lat="41.15919" lon="19.57979">
        <ele>67.319121</ele>
        <time>2022-05-03T11:19:25.653Z</time>
      </trkpt>
      <trkpt lat="41.15929" lon="19.57971">
        <ele>67.20011</ele>
        <time>2022-05-03T11:19:27.645Z</time>
      </trkpt>
      <trkpt lat="41.15939" lon="19.57964">
        <ele>67.080196</ele>
        <time>2022-05-03T11:19:29.627Z</time>
      </trkpt>
      <trkpt lat="41.15948" lon="19.57958">
        <ele>66.976626</ele>
        <time>2022-05-03T11:19:31.652Z</time>
      </trkpt>
      <trkpt lat="41.15957" lon="19.57951">
        <ele>66.870245</ele>
        <time>2022-05-03T11:19:33.621Z</time>
      </trkpt>
      <trkpt lat="41.15967" lon="19.57944">
        <ele>66.755801</ele>
        <time>2022-05-03T11:19:35.601Z</time>
      </trkpt>
      <trkpt lat="41.15977" lon="19.57937">
        <ele>66.642994</ele>
        <time>2022-05-03T11:19:37.642Z</time>
      </trkpt>
      <trkpt lat="41.15987" lon="19.5793">
        <ele>66.525886</ele>
        <time>2022-05-03T11:19:39.623Z</time>
      </trkpt>
      <trkpt lat="41.15997" lon="19.57922">
        <ele>66.406112</ele>
        <time>2022-05-03T11:19:41.626Z</time>
      </trkpt>
      <trkpt lat="41.16007" lon="19.57914">
        <ele>66.283394</ele>
        <time>2022-05-03T11:19:43.632Z</time>
      </trkpt>
      <trkpt lat="41.16017" lon="19.57906">
        <ele>66.164121</ele>
        <time>2022-05-03T11:19:45.628Z</time>
      </trkpt>
      <trkpt lat="41.16027" lon="19.57899">
        <ele>66.046333</ele>
        <time>2022-05-03T11:19:47.659Z</time>
      </trkpt>
      <trkpt lat="41.16037" lon="19.57892">
        <ele>66.041129</ele>
        <time>2022-05-03T11:19:49.627Z</time>
      </trkpt>
      <trkpt lat="41.16046" lon="19.57885">
        <ele>66.036124</ele>
        <time>2022-05-03T11:19:51.626Z</time>
      </trkpt>
      <trkpt lat="41.16055" lon="19.57878">
        <ele>66.031152</ele>
        <time>2022-05-03T11:19:53.624Z</time>
      </trkpt>
      <trkpt lat="41.16065" lon="19.5787">
        <ele>66.025941</ele>
        <time>2022-05-03T11:19:55.631Z</time>
      </trkpt>
      <trkpt lat="41.16074" lon="19.57862">
        <ele>66.02083</ele>
        <time>2022-05-03T11:19:57.627Z</time>
      </trkpt>
      <trkpt lat="41.16083" lon="19.57855">
        <ele>66.015772</ele>
        <time>2022-05-03T11:19:59.619Z</time>
      </trkpt>
      <trkpt lat="41.16092" lon="19.57848">
        <ele>66.01091</ele>
        <time>2022-05-03T11:20:01.627Z</time>
      </trkpt>
      <trkpt lat="41.16102" lon="19.5784">
        <ele>66.005556</ele>
        <time>2022-05-03T11:20:03.627Z</time>
      </trkpt>
      <trkpt lat="41.16112" lon="19.57834">
        <ele>66.00041</ele>
        <time>2022-05-03T11:20:05.628Z</time>
      </trkpt>
      <trkpt lat="41.16122" lon="19.57827">
        <ele>65.995191</ele>
        <time>2022-05-03T11:20:07.639Z</time>
      </trkpt>
      <trkpt lat="41.16133" lon="19.5782">
        <ele>65.989485</ele>
        <time>2022-05-03T11:20:09.614Z</time>
      </trkpt>
      <trkpt lat="41.16144" lon="19.57812">
        <ele>65.983563</ele>
        <time>2022-05-03T11:20:11.642Z</time>
      </trkpt>
      <trkpt lat="41.16155" lon="19.57804">
        <ele>65.977897</ele>
        <time>2022-05-03T11:20:13.625Z</time>
      </trkpt>
      <trkpt lat="41.16165" lon="19.57797">
        <ele>65.972296</ele>
        <time>2022-05-03T11:20:15.664Z</time>
      </trkpt>
      <trkpt lat="41.16176" lon="19.57789">
        <ele>65.966581</ele>
        <time>2022-05-03T11:20:17.630Z</time>
      </trkpt>
      <trkpt lat="41.16186" lon="19.57782">
        <ele>65.939512</ele>
        <time>2022-05-03T11:20:19.613Z</time>
      </trkpt>
      <trkpt lat="41.16194" lon="19.57776">
        <ele>65.790908</ele>
        <time>2022-05-03T11:20:21.661Z</time>
      </trkpt>
      <trkpt lat="41.16203" lon="19.5777">
        <ele>65.64497</ele>
        <time>2022-05-03T11:20:23.646Z</time>
      </trkpt>
      <trkpt lat="41.16212" lon="19.57764">
        <ele>65.494499</ele>
        <time>2022-05-03T11:20:25.641Z</time>
      </trkpt>
      <trkpt lat="41.16221" lon="19.57758">
        <ele>65.334611</ele>
        <time>2022-05-03T11:20:27.666Z</time>
      </trkpt>
      <trkpt lat="41.1623" lon="19.57751">
        <ele>65.187577</ele>
        <time>2022-05-03T11:20:29.613Z</time>
      </trkpt>
      <trkpt lat="41.16239" lon="19.57745">
        <ele>65.031173</ele>
        <time>2022-05-03T11:20:31.626Z</time>
      </trkpt>
      <trkpt lat="41.16248" lon="19.57738">
        <ele>64.867618</ele>
        <time>2022-05-03T11:20:33.629Z</time>
      </trkpt>
      <trkpt lat="41.16258" lon="19.57731">
        <ele>64.706474</ele>
        <time>2022-05-03T11:20:35.640Z</time>
      </trkpt>
      <trkpt lat="41.16267" lon="19.57724">
        <ele>64.544442</ele>
        <time>2022-05-03T11:20:37.625Z</time>
      </trkpt>
      <trkpt lat="41.16276" lon="19.57717">
        <ele>64.385405</ele>
        <time>2022-05-03T11:20:39.627Z</time>
      </trkpt>
      <trkpt lat="41.16286" lon="19.5771">
        <ele>64.218653</ele>
        <time>2022-05-03T11:20:41.622Z</time>
      </trkpt>
      <trkpt lat="41.16295" lon="19.57703">
        <ele>64.050804</ele>
        <time>2022-05-03T11:20:43.643Z</time>
      </trkpt>
      <trkpt lat="41.16305" lon="19.57696">
        <ele>63.87844</ele>
        <time>2022-05-03T11:20:45.650Z</time>
      </trkpt>
      <trkpt lat="41.16315" lon="19.57688">
        <ele>63.70904</ele>
        <time>2022-05-03T11:20:47.615Z</time>
      </trkpt>
      <trkpt lat="41.16324" lon="19.5768">
        <ele>63.541619</ele>
        <time>2022-05-03T11:20:49.624Z</time>
      </trkpt>
      <trkpt lat="41.16334" lon="19.57673">
        <ele>63.383339</ele>
        <time>2022-05-03T11:20:51.618Z</time>
      </trkpt>
      <trkpt lat="41.16344" lon="19.57668">
        <ele>63.238791</ele>
        <time>2022-05-03T11:20:53.626Z</time>
      </trkpt>
      <trkpt lat="41.16354" lon="19.57664">
        <ele>63.194272</ele>
        <time>2022-05-03T11:20:55.639Z</time>
      </trkpt>
      <trkpt lat="41.16364" lon="19.57657">
        <ele>63.147639</ele>
        <time>2022-05-03T11:20:57.624Z</time>
      </trkpt>
      <trkpt lat="41.16375" lon="19.5765">
        <ele>63.10118</ele>
        <time>2022-05-03T11:20:59.624Z</time>
      </trkpt>
      <trkpt lat="41.16385" lon="19.57643">
        <ele>63.052789</ele>
        <time>2022-05-03T11:21:01.640Z</time>
      </trkpt>
      <trkpt lat="41.16397" lon="19.57635">
        <ele>63.002186</ele>
        <time>2022-05-03T11:21:03.642Z</time>
      </trkpt>
      <trkpt lat="41.16407" lon="19.57628">
        <ele>62.953376</ele>
        <time>2022-05-03T11:21:05.637Z</time>
      </trkpt>
      <trkpt lat="41.16418" lon="19.5762">
        <ele>62.905777</ele>
        <time>2022-05-03T11:21:07.626Z</time>
      </trkpt>
      <trkpt lat="41.16429" lon="19.57612">
        <ele>62.85597</ele>
        <time>2022-05-03T11:21:09.636Z</time>
      </trkpt>
      <trkpt lat="41.16439" lon="19.57604">
        <ele>62.805729</ele>
        <time>2022-05-03T11:21:11.627Z</time>
      </trkpt>
      <trkpt lat="41.1645" lon="19.57596">
        <ele>62.75666</ele>
        <time>2022-05-03T11:21:13.667Z</time>
      </trkpt>
      <trkpt lat="41.16459" lon="19.57585">
        <ele>62.707724</ele>
        <time>2022-05-03T11:21:15.626Z</time>
      </trkpt>
      <trkpt lat="41.16468" lon="19.57575">
        <ele>62.659957</ele>
        <time>2022-05-03T11:21:17.625Z</time>
      </trkpt>
      <trkpt lat="41.16478" lon="19.57565">
        <ele>62.610045</ele>
        <time>2022-05-03T11:21:19.632Z</time>
      </trkpt>
      <trkpt lat="41.16488" lon="19.57556">
        <ele>62.560474</ele>
        <time>2022-05-03T11:21:21.660Z</time>
      </trkpt>
      <trkpt lat="41.16498" lon="19.57549">
        <ele>62.494692</ele>
        <time>2022-05-03T11:21:23.655Z</time>
      </trkpt>
      <trkpt lat="41.16509" lon="19.57542">
        <ele>62.271446</ele>
        <time>2022-05-03T11:21:25.615Z</time>
      </trkpt>
      <trkpt lat="41.1652" lon="19.57535">
        <ele>62.040592</ele>
        <time>2022-05-03T11:21:27.624Z</time>
      </trkpt>
      <trkpt lat="41.16531" lon="19.57528">
        <ele>61.815798</ele>
        <time>2022-05-03T11:21:29.628Z</time>
      </trkpt>
      <trkpt lat="41.16541" lon="19.57522">
        <ele>61.59904</ele>
        <time>2022-05-03T11:21:31.632Z</time>
      </trkpt>
      <trkpt lat="41.16551" lon="19.57515">
        <ele>61.386764</ele>
        <time>2022-05-03T11:21:33.636Z</time>
      </trkpt>
      <trkpt lat="41.1656" lon="19.57508">
        <ele>61.187517</ele>
        <time>2022-05-03T11:21:35.679Z</time>
      </trkpt>
      <trkpt lat="41.16569" lon="19.57502">
        <ele>60.995287</ele>
        <time>2022-05-03T11:21:37.627Z</time>
      </trkpt>
      <trkpt lat="41.16579" lon="19.57496">
        <ele>60.803236</ele>
        <time>2022-05-03T11:21:39.635Z</time>
      </trkpt>
      <trkpt lat="41.16589" lon="19.5749">
        <ele>60.592858</ele>
        <time>2022-05-03T11:21:41.633Z</time>
      </trkpt>
      <trkpt lat="41.16598" lon="19.57484">
        <ele>60.398943</ele>
        <time>2022-05-03T11:21:43.641Z</time>
      </trkpt>
      <trkpt lat="41.16608" lon="19.57477">
        <ele>60.187723</ele>
        <time>2022-05-03T11:21:45.652Z</time>
      </trkpt>
      <trkpt lat="41.16617" lon="19.5747">
        <ele>59.986135</ele>
        <time>2022-05-03T11:21:47.632Z</time>
      </trkpt>
      <trkpt lat="41.16626" lon="19.57463">
        <ele>59.789451</ele>
        <time>2022-05-03T11:21:49.649Z</time>
      </trkpt>
      <trkpt lat="41.16636" lon="19.57457">
        <ele>59.589248</ele>
        <time>2022-05-03T11:21:51.623Z</time>
      </trkpt>
      <trkpt lat="41.16644" lon="19.5745">
        <ele>59.399359</ele>
        <time>2022-05-03T11:21:53.647Z</time>
      </trkpt>
      <trkpt lat="41.16653" lon="19.57444">
        <ele>59.211807</ele>
        <time>2022-05-03T11:21:55.638Z</time>
      </trkpt>
      <trkpt lat="41.16662" lon="19.57438">
        <ele>59.164823</ele>
        <time>2022-05-03T11:21:57.677Z</time>
      </trkpt>
      <trkpt lat="41.16671" lon="19.57432">
        <ele>59.234792</ele>
        <time>2022-05-03T11:21:59.643Z</time>
      </trkpt>
      <trkpt lat="41.16679" lon="19.57426">
        <ele>59.302126</ele>
        <time>2022-05-03T11:22:01.653Z</time>
      </trkpt>
      <trkpt lat="41.16688" lon="19.57421">
        <ele>59.371498</ele>
        <time>2022-05-03T11:22:03.623Z</time>
      </trkpt>
      <trkpt lat="41.16696" lon="19.57415">
        <ele>59.440839</ele>
        <time>2022-05-03T11:22:05.629Z</time>
      </trkpt>
      <trkpt lat="41.16705" lon="19.57409">
        <ele>59.509683</ele>
        <time>2022-05-03T11:22:07.657Z</time>
      </trkpt>
      <trkpt lat="41.16714" lon="19.57403">
        <ele>59.580913</ele>
        <time>2022-05-03T11:22:09.622Z</time>
      </trkpt>
      <trkpt lat="41.16723" lon="19.57397">
        <ele>59.651762</ele>
        <time>2022-05-03T11:22:11.637Z</time>
      </trkpt>
      <trkpt lat="41.16731" lon="19.5739">
        <ele>59.722946</ele>
        <time>2022-05-03T11:22:13.636Z</time>
      </trkpt>
      <trkpt lat="41.16741" lon="19.57383">
        <ele>59.797828</ele>
        <time>2022-05-03T11:22:15.632Z</time>
      </trkpt>
      <trkpt lat="41.1675" lon="19.57377">
        <ele>59.870815</ele>
        <time>2022-05-03T11:22:17.632Z</time>
      </trkpt>
      <trkpt lat="41.16759" lon="19.5737">
        <ele>59.949453</ele>
        <time>2022-05-03T11:22:19.667Z</time>
      </trkpt>
      <trkpt lat="41.16769" lon="19.57364">
        <ele>60.028637</ele>
        <time>2022-05-03T11:22:21.706Z</time>
      </trkpt>
      <trkpt lat="41.16779" lon="19.57356">
        <ele>60.10829</ele>
        <time>2022-05-03T11:22:23.648Z</time>
      </trkpt>
      <trkpt lat="41.16789" lon="19.57349">
        <ele>60.188937</ele>
        <time>2022-05-03T11:22:25.631Z</time>
      </trkpt>
      <trkpt lat="41.16799" lon="19.57342">
        <ele>60.270353</ele>
        <time>2022-05-03T11:22:27.629Z</time>
      </trkpt>
      <trkpt lat="41.16809" lon="19.57335">
        <ele>60.347734</ele>
        <time>2022-05-03T11:22:29.645Z</time>
      </trkpt>
      <trkpt lat="41.16819" lon="19.57329">
        <ele>60.41285</ele>
        <time>2022-05-03T11:22:31.623Z</time>
      </trkpt>
      <trkpt lat="41.16828" lon="19.57322">
        <ele>60.435275</ele>
        <time>2022-05-03T11:22:33.640Z</time>
      </trkpt>
      <trkpt lat="41.16838" lon="19.57315">
        <ele>60.457997</ele>
        <time>2022-05-03T11:22:35.642Z</time>
      </trkpt>
      <trkpt lat="41.16848" lon="19.57309">
        <ele>60.480092</ele>
        <time>2022-05-03T11:22:37.646Z</time>
      </trkpt>
      <trkpt lat="41.16857" lon="19.57302">
        <ele>60.502673</ele>
        <time>2022-05-03T11:22:39.650Z</time>
      </trkpt>
      <trkpt lat="41.16867" lon="19.57295">
        <ele>60.525688</ele>
        <time>2022-05-03T11:22:41.639Z</time>
      </trkpt>
      <trkpt lat="41.16877" lon="19.57288">
        <ele>60.549403</ele>
        <time>2022-05-03T11:22:43.628Z</time>
      </trkpt>
      <trkpt lat="41.16887" lon="19.57281">
        <ele>60.573193</ele>
        <time>2022-05-03T11:22:45.633Z</time>
      </trkpt>
      <trkpt lat="41.16897" lon="19.57274">
        <ele>60.596873</ele>
        <time>2022-05-03T11:22:47.631Z</time>
      </trkpt>
      <trkpt lat="41.16907" lon="19.57267">
        <ele>60.620071</ele>
        <time>2022-05-03T11:22:49.624Z</time>
      </trkpt>
      <trkpt lat="41.16916" lon="19.57261">
        <ele>60.642023</ele>
        <time>2022-05-03T11:22:51.631Z</time>
      </trkpt>
      <trkpt lat="41.16926" lon="19.57254">
        <ele>60.665117</ele>
        <time>2022-05-03T11:22:53.643Z</time>
      </trkpt>
      <trkpt lat="41.16936" lon="19.57247">
        <ele>60.688097</ele>
        <time>2022-05-03T11:22:55.657Z</time>
      </trkpt>
      <trkpt lat="41.16945" lon="19.5724">
        <ele>60.7109</ele>
        <time>2022-05-03T11:22:57.640Z</time>
      </trkpt>
      <trkpt lat="41.16955" lon="19.57233">
        <ele>60.734209</ele>
        <time>2022-05-03T11:22:59.667Z</time>
      </trkpt>
      <trkpt lat="41.16965" lon="19.57227">
        <ele>60.756489</ele>
        <time>2022-05-03T11:23:01.633Z</time>
      </trkpt>
      <trkpt lat="41.16975" lon="19.5722">
        <ele>60.780756</ele>
        <time>2022-05-03T11:23:03.628Z</time>
      </trkpt>
      <trkpt lat="41.16985" lon="19.57212">
        <ele>60.651987</ele>
        <time>2022-05-03T11:23:05.629Z</time>
      </trkpt>
      <trkpt lat="41.16994" lon="19.57206">
        <ele>60.523466</ele>
        <time>2022-05-03T11:23:07.641Z</time>
      </trkpt>
      <trkpt lat="41.17004" lon="19.57199">
        <ele>60.391752</ele>
        <time>2022-05-03T11:23:09.691Z</time>
      </trkpt>
      <trkpt lat="41.17013" lon="19.57192">
        <ele>60.260038</ele>
        <time>2022-05-03T11:23:11.632Z</time>
      </trkpt>
      <trkpt lat="41.17024" lon="19.57184">
        <ele>60.114543</ele>
        <time>2022-05-03T11:23:13.637Z</time>
      </trkpt>
      <trkpt lat="41.17035" lon="19.57175">
        <ele>59.960592</ele>
        <time>2022-05-03T11:23:15.678Z</time>
      </trkpt>
      <trkpt lat="41.17046" lon="19.57167">
        <ele>59.811328</ele>
        <time>2022-05-03T11:23:17.663Z</time>
      </trkpt>
      <trkpt lat="41.17056" lon="19.5716">
        <ele>59.662935</ele>
        <time>2022-05-03T11:23:19.639Z</time>
      </trkpt>
      <trkpt lat="41.17067" lon="19.57152">
        <ele>59.51497</ele>
        <time>2022-05-03T11:23:21.624Z</time>
      </trkpt>
      <trkpt lat="41.17078" lon="19.57145">
        <ele>59.367186</ele>
        <time>2022-05-03T11:23:23.630Z</time>
      </trkpt>
      <trkpt lat="41.17089" lon="19.57137">
        <ele>59.217496</ele>
        <time>2022-05-03T11:23:25.648Z</time>
      </trkpt>
      <trkpt lat="41.171" lon="19.5713">
        <ele>59.072097</ele>
        <time>2022-05-03T11:23:27.630Z</time>
      </trkpt>
      <trkpt lat="41.1711" lon="19.57122">
        <ele>58.932893</ele>
        <time>2022-05-03T11:23:29.644Z</time>
      </trkpt>
      <trkpt lat="41.1712" lon="19.57115">
        <ele>58.794975</ele>
        <time>2022-05-03T11:23:31.628Z</time>
      </trkpt>
      <trkpt lat="41.1713" lon="19.57107">
        <ele>58.654686</ele>
        <time>2022-05-03T11:23:33.649Z</time>
      </trkpt>
      <trkpt lat="41.1714" lon="19.571">
        <ele>58.489685</ele>
        <time>2022-05-03T11:23:35.632Z</time>
      </trkpt>
      <trkpt lat="41.1715" lon="19.57092">
        <ele>58.31078</ele>
        <time>2022-05-03T11:23:37.664Z</time>
      </trkpt>
      <trkpt lat="41.1716" lon="19.57085">
        <ele>58.132799</ele>
        <time>2022-05-03T11:23:39.648Z</time>
      </trkpt>
      <trkpt lat="41.17169" lon="19.57077">
        <ele>57.960032</ele>
        <time>2022-05-03T11:23:41.639Z</time>
      </trkpt>
      <trkpt lat="41.17178" lon="19.5707">
        <ele>57.790989</ele>
        <time>2022-05-03T11:23:43.623Z</time>
      </trkpt>
      <trkpt lat="41.17188" lon="19.57063">
        <ele>57.614892</ele>
        <time>2022-05-03T11:23:45.613Z</time>
      </trkpt>
      <trkpt lat="41.17199" lon="19.57055">
        <ele>57.434628</ele>
        <time>2022-05-03T11:23:47.629Z</time>
      </trkpt>
      <trkpt lat="41.17208" lon="19.57047">
        <ele>57.256188</ele>
        <time>2022-05-03T11:23:49.641Z</time>
      </trkpt>
      <trkpt lat="41.17218" lon="19.5704">
        <ele>57.079784</ele>
        <time>2022-05-03T11:23:51.643Z</time>
      </trkpt>
      <trkpt lat="41.17228" lon="19.57034">
        <ele>56.903127</ele>
        <time>2022-05-03T11:23:53.684Z</time>
      </trkpt>
      <trkpt lat="41.17239" lon="19.57026">
        <ele>56.724553</ele>
        <time>2022-05-03T11:23:55.632Z</time>
      </trkpt>
      <trkpt lat="41.17248" lon="19.57019">
        <ele>56.55029</ele>
        <time>2022-05-03T11:23:57.657Z</time>
      </trkpt>
      <trkpt lat="41.17258" lon="19.57011">
        <ele>56.374249</ele>
        <time>2022-05-03T11:23:59.650Z</time>
      </trkpt>
      <trkpt lat="41.17267" lon="19.57004">
        <ele>56.203271</ele>
        <time>2022-05-03T11:24:01.638Z</time>
      </trkpt>
      <trkpt lat="41.17277" lon="19.56997">
        <ele>56.034983</ele>
        <time>2022-05-03T11:24:03.633Z</time>
      </trkpt>
      <trkpt lat="41.17286" lon="19.56989">
        <ele>55.85954</ele>
        <time>2022-05-03T11:24:05.664Z</time>
      </trkpt>
      <trkpt lat="41.17296" lon="19.56982">
        <ele>55.918439</ele>
        <time>2022-05-03T11:24:07.664Z</time>
      </trkpt>
      <trkpt lat="41.17305" lon="19.56975">
        <ele>56.089081</ele>
        <time>2022-05-03T11:24:09.638Z</time>
      </trkpt>
      <trkpt lat="41.17314" lon="19.56968">
        <ele>56.262967</ele>
        <time>2022-05-03T11:24:11.645Z</time>
      </trkpt>
      <trkpt lat="41.17323" lon="19.56961">
        <ele>56.432424</ele>
        <time>2022-05-03T11:24:13.674Z</time>
      </trkpt>
      <trkpt lat="41.17331" lon="19.56955">
        <ele>56.594666</ele>
        <time>2022-05-03T11:24:15.672Z</time>
      </trkpt>
      <trkpt lat="41.17339" lon="19.56949">
        <ele>56.747733</ele>
        <time>2022-05-03T11:24:17.658Z</time>
      </trkpt>
      <trkpt lat="41.17347" lon="19.56943">
        <ele>56.897507</ele>
        <time>2022-05-03T11:24:19.628Z</time>
      </trkpt>
      <trkpt lat="41.17359" lon="19.56934">
        <ele>57.111045</ele>
        <time>2022-05-03T11:24:22.638Z</time>
      </trkpt>
      <trkpt lat="41.17366" lon="19.56927">
        <ele>57.263253</ele>
        <time>2022-05-03T11:24:24.668Z</time>
      </trkpt>
      <trkpt lat="41.17374" lon="19.56919">
        <ele>57.420966</ele>
        <time>2022-05-03T11:24:26.634Z</time>
      </trkpt>
      <trkpt lat="41.17379" lon="19.5691">
        <ele>57.572597</ele>
        <time>2022-05-03T11:24:28.626Z</time>
      </trkpt>
      <trkpt lat="41.17384" lon="19.56899">
        <ele>57.727574</ele>
        <time>2022-05-03T11:24:30.619Z</time>
      </trkpt>
      <trkpt lat="41.17389" lon="19.56888">
        <ele>57.88063</ele>
        <time>2022-05-03T11:24:32.623Z</time>
      </trkpt>
      <trkpt lat="41.17395" lon="19.56879">
        <ele>58.038176</ele>
        <time>2022-05-03T11:24:34.632Z</time>
      </trkpt>
      <trkpt lat="41.17402" lon="19.56868">
        <ele>58.204485</ele>
        <time>2022-05-03T11:24:36.645Z</time>
      </trkpt>
      <trkpt lat="41.17407" lon="19.56856">
        <ele>58.383432</ele>
        <time>2022-05-03T11:24:38.750Z</time>
      </trkpt>
      <trkpt lat="41.17411" lon="19.56843">
        <ele>58.558517</ele>
        <time>2022-05-03T11:24:40.638Z</time>
      </trkpt>
      <trkpt lat="41.17414" lon="19.5683">
        <ele>58.721567</ele>
        <time>2022-05-03T11:24:42.617Z</time>
      </trkpt>
      <trkpt lat="41.17418" lon="19.56817">
        <ele>58.898167</ele>
        <time>2022-05-03T11:24:44.680Z</time>
      </trkpt>
      <trkpt lat="41.17422" lon="19.56803">
        <ele>59.086408</ele>
        <time>2022-05-03T11:24:46.656Z</time>
      </trkpt>
      <trkpt lat="41.17426" lon="19.56789">
        <ele>59.280587</ele>
        <time>2022-05-03T11:24:48.646Z</time>
      </trkpt>
      <trkpt lat="41.1743" lon="19.56775">
        <ele>59.471247</ele>
        <time>2022-05-03T11:24:50.621Z</time>
      </trkpt>
      <trkpt lat="41.17434" lon="19.56761">
        <ele>59.670815</ele>
        <time>2022-05-03T11:24:52.791Z</time>
      </trkpt>
      <trkpt lat="41.17439" lon="19.56747">
        <ele>59.867363</ele>
        <time>2022-05-03T11:24:54.661Z</time>
      </trkpt>
      <trkpt lat="41.17444" lon="19.56733">
        <ele>60.06918</ele>
        <time>2022-05-03T11:24:56.629Z</time>
      </trkpt>
      <trkpt lat="41.17447" lon="19.56719">
        <ele>60.251418</ele>
        <time>2022-05-03T11:24:58.622Z</time>
      </trkpt>
      <trkpt lat="41.1745" lon="19.56707">
        <ele>60.409348</ele>
        <time>2022-05-03T11:25:00.662Z</time>
      </trkpt>
      <trkpt lat="41.17441" lon="19.56707">
        <ele>60.564245</ele>
        <time>2022-05-03T11:25:07.619Z</time>
      </trkpt>
      <trkpt lat="41.17438" lon="19.56722">
        <ele>60.763433</ele>
        <time>2022-05-03T11:25:11.629Z</time>
      </trkpt>
      <trkpt lat="41.17435" lon="19.56733">
        <ele>60.918648</ele>
        <time>2022-05-03T11:25:14.627Z</time>
      </trkpt>
      <trkpt lat="41.17431" lon="19.56746">
        <ele>61.091834</ele>
        <time>2022-05-03T11:25:17.623Z</time>
      </trkpt>
      <trkpt lat="41.17427" lon="19.5676">
        <ele>61.283465</ele>
        <time>2022-05-03T11:25:20.631Z</time>
      </trkpt>
      <trkpt lat="41.17422" lon="19.56773">
        <ele>61.471934</ele>
        <time>2022-05-03T11:25:23.629Z</time>
      </trkpt>
      <trkpt lat="41.17418" lon="19.56785">
        <ele>61.639146</ele>
        <time>2022-05-03T11:25:26.663Z</time>
      </trkpt>
      <trkpt lat="41.17414" lon="19.56797">
        <ele>61.8079</ele>
        <time>2022-05-03T11:25:29.688Z</time>
      </trkpt>
      <trkpt lat="41.1741" lon="19.56811">
        <ele>62.309502</ele>
        <time>2022-05-03T11:25:32.664Z</time>
      </trkpt>
      <trkpt lat="41.17406" lon="19.56826">
        <ele>62.83561</ele>
        <time>2022-05-03T11:25:35.656Z</time>
      </trkpt>
      <trkpt lat="41.17402" lon="19.56841">
        <ele>63.374016</ele>
        <time>2022-05-03T11:25:38.632Z</time>
      </trkpt>
      <trkpt lat="41.17399" lon="19.56856">
        <ele>63.943537</ele>
        <time>2022-05-03T11:25:41.632Z</time>
      </trkpt>
      <trkpt lat="41.17395" lon="19.56872">
        <ele>64.49347</ele>
        <time>2022-05-03T11:25:44.705Z</time>
      </trkpt>
      <trkpt lat="41.17392" lon="19.56887">
        <ele>65.035399</ele>
        <time>2022-05-03T11:25:47.622Z</time>
      </trkpt>
      <trkpt lat="41.1739" lon="19.56902">
        <ele>65.559634</ele>
        <time>2022-05-03T11:25:50.642Z</time>
      </trkpt>
      <trkpt lat="41.17395" lon="19.56912">
        <ele>65.97661</ele>
        <time>2022-05-03T11:25:53.638Z</time>
      </trkpt>
      <trkpt lat="41.17404" lon="19.56909">
        <ele>66.394677</ele>
        <time>2022-05-03T11:25:55.639Z</time>
      </trkpt>
      <trkpt lat="41.17413" lon="19.56903">
        <ele>66.836389</ele>
        <time>2022-05-03T11:25:57.642Z</time>
      </trkpt>
      <trkpt lat="41.17424" lon="19.56893">
        <ele>67.438635</ele>
        <time>2022-05-03T11:26:00.631Z</time>
      </trkpt>
      <trkpt lat="41.17434" lon="19.56884">
        <ele>67.999091</ele>
        <time>2022-05-03T11:26:03.640Z</time>
      </trkpt>
      <trkpt lat="41.17445" lon="19.56876">
        <ele>68.57189</ele>
        <time>2022-05-03T11:26:06.643Z</time>
      </trkpt>
      <trkpt lat="41.17456" lon="19.56868">
        <ele>69.155848</ele>
        <time>2022-05-03T11:26:09.630Z</time>
      </trkpt>
      <trkpt lat="41.17464" lon="19.56861">
        <ele>69.585221</ele>
        <time>2022-05-03T11:26:11.616Z</time>
      </trkpt>
      <trkpt lat="41.17475" lon="19.56852">
        <ele>70.050177</ele>
        <time>2022-05-03T11:26:14.639Z</time>
      </trkpt>
      <trkpt lat="41.17487" lon="19.56844">
        <ele>70.135182</ele>
        <time>2022-05-03T11:26:17.674Z</time>
      </trkpt>
      <trkpt lat="41.17495" lon="19.56838">
        <ele>70.193805</ele>
        <time>2022-05-03T11:26:19.623Z</time>
      </trkpt>
      <trkpt lat="41.17504" lon="19.56833">
        <ele>70.256178</ele>
        <time>2022-05-03T11:26:21.625Z</time>
      </trkpt>
      <trkpt lat="41.17512" lon="19.56827">
        <ele>70.318279</ele>
        <time>2022-05-03T11:26:23.637Z</time>
      </trkpt>
      <trkpt lat="41.1752" lon="19.56821">
        <ele>70.37779</ele>
        <time>2022-05-03T11:26:25.614Z</time>
      </trkpt>
      <trkpt lat="41.17528" lon="19.56814">
        <ele>70.436939</ele>
        <time>2022-05-03T11:26:27.617Z</time>
      </trkpt>
      <trkpt lat="41.17536" lon="19.56808">
        <ele>70.497812</ele>
        <time>2022-05-03T11:26:29.627Z</time>
      </trkpt>
      <trkpt lat="41.17545" lon="19.56802">
        <ele>70.559575</ele>
        <time>2022-05-03T11:26:31.617Z</time>
      </trkpt>
      <trkpt lat="41.17553" lon="19.56796">
        <ele>70.62069</ele>
        <time>2022-05-03T11:26:33.626Z</time>
      </trkpt>
      <trkpt lat="41.17562" lon="19.56789">
        <ele>70.685088</ele>
        <time>2022-05-03T11:26:35.626Z</time>
      </trkpt>
      <trkpt lat="41.1757" lon="19.56783">
        <ele>70.748364</ele>
        <time>2022-05-03T11:26:37.617Z</time>
      </trkpt>
      <trkpt lat="41.17581" lon="19.56775">
        <ele>70.829951</ele>
        <time>2022-05-03T11:26:40.619Z</time>
      </trkpt>
      <trkpt lat="41.17593" lon="19.56767">
        <ele>70.913132</ele>
        <time>2022-05-03T11:26:43.635Z</time>
      </trkpt>
      <trkpt lat="41.17605" lon="19.56758">
        <ele>71.000359</ele>
        <time>2022-05-03T11:26:46.637Z</time>
      </trkpt>
      <trkpt lat="41.17613" lon="19.56752">
        <ele>71.061556</ele>
        <time>2022-05-03T11:26:48.628Z</time>
      </trkpt>
      <trkpt lat="41.17621" lon="19.56745">
        <ele>71.120705</ele>
        <time>2022-05-03T11:26:50.650Z</time>
      </trkpt>
      <trkpt lat="41.17629" lon="19.56738">
        <ele>71.18335</ele>
        <time>2022-05-03T11:26:52.648Z</time>
      </trkpt>
      <trkpt lat="41.17637" lon="19.56731">
        <ele>71.257902</ele>
        <time>2022-05-03T11:26:54.617Z</time>
      </trkpt>
      <trkpt lat="41.17645" lon="19.56725">
        <ele>71.331681</ele>
        <time>2022-05-03T11:26:56.619Z</time>
      </trkpt>
      <trkpt lat="41.17653" lon="19.56719">
        <ele>71.407092</ele>
        <time>2022-05-03T11:26:58.645Z</time>
      </trkpt>
      <trkpt lat="41.17661" lon="19.56713">
        <ele>71.480435</ele>
        <time>2022-05-03T11:27:00.618Z</time>
      </trkpt>
      <trkpt lat="41.17669" lon="19.56707">
        <ele>71.552023</ele>
        <time>2022-05-03T11:27:02.644Z</time>
      </trkpt>
      <trkpt lat="41.17677" lon="19.567">
        <ele>71.624825</ele>
        <time>2022-05-03T11:27:04.623Z</time>
      </trkpt>
      <trkpt lat="41.17685" lon="19.56692">
        <ele>71.69822</ele>
        <time>2022-05-03T11:27:06.631Z</time>
      </trkpt>
      <trkpt lat="41.17696" lon="19.56683">
        <ele>71.801009</ele>
        <time>2022-05-03T11:27:09.627Z</time>
      </trkpt>
      <trkpt lat="41.17707" lon="19.56675">
        <ele>71.9012</ele>
        <time>2022-05-03T11:27:12.617Z</time>
      </trkpt>
      <trkpt lat="41.17718" lon="19.56665">
        <ele>72.008226</ele>
        <time>2022-05-03T11:27:15.637Z</time>
      </trkpt>
      <trkpt lat="41.17728" lon="19.56658">
        <ele>72.09125</ele>
        <time>2022-05-03T11:27:17.634Z</time>
      </trkpt>
      <trkpt lat="41.17736" lon="19.56652">
        <ele>72.169849</ele>
        <time>2022-05-03T11:27:19.606Z</time>
      </trkpt>
      <trkpt lat="41.17746" lon="19.56645">
        <ele>72.252071</ele>
        <time>2022-05-03T11:27:21.643Z</time>
      </trkpt>
      <trkpt lat="41.17756" lon="19.56639">
        <ele>72.339952</ele>
        <time>2022-05-03T11:27:23.615Z</time>
      </trkpt>
      <trkpt lat="41.17766" lon="19.56633">
        <ele>72.425918</ele>
        <time>2022-05-03T11:27:25.611Z</time>
      </trkpt>
      <trkpt lat="41.17776" lon="19.56626">
        <ele>72.515999</ele>
        <time>2022-05-03T11:27:27.625Z</time>
      </trkpt>
      <trkpt lat="41.17786" lon="19.56618">
        <ele>72.563169</ele>
        <time>2022-05-03T11:27:29.620Z</time>
      </trkpt>
      <trkpt lat="41.17795" lon="19.56611">
        <ele>72.122202</ele>
        <time>2022-05-03T11:27:31.663Z</time>
      </trkpt>
      <trkpt lat="41.17805" lon="19.56604">
        <ele>71.709979</ele>
        <time>2022-05-03T11:27:33.640Z</time>
      </trkpt>
      <trkpt lat="41.17814" lon="19.56598">
        <ele>71.301198</ele>
        <time>2022-05-03T11:27:35.628Z</time>
      </trkpt>
      <trkpt lat="41.17823" lon="19.56591">
        <ele>70.892367</ele>
        <time>2022-05-03T11:27:37.664Z</time>
      </trkpt>
      <trkpt lat="41.17831" lon="19.56586">
        <ele>70.51692</ele>
        <time>2022-05-03T11:27:39.630Z</time>
      </trkpt>
      <trkpt lat="41.17843" lon="19.56577">
        <ele>69.979795</ele>
        <time>2022-05-03T11:27:42.622Z</time>
      </trkpt>
      <trkpt lat="41.17852" lon="19.56572">
        <ele>69.616628</ele>
        <time>2022-05-03T11:27:44.631Z</time>
      </trkpt>
      <trkpt lat="41.1786" lon="19.56567">
        <ele>69.257323</ele>
        <time>2022-05-03T11:27:46.648Z</time>
      </trkpt>
      <trkpt lat="41.17868" lon="19.5656">
        <ele>68.880949</ele>
        <time>2022-05-03T11:27:48.623Z</time>
      </trkpt>
      <trkpt lat="41.17877" lon="19.56553">
        <ele>68.491475</ele>
        <time>2022-05-03T11:27:50.641Z</time>
      </trkpt>
      <trkpt lat="41.17886" lon="19.56547">
        <ele>68.085529</ele>
        <time>2022-05-03T11:27:52.608Z</time>
      </trkpt>
      <trkpt lat="41.17895" lon="19.56541">
        <ele>67.688965</ele>
        <time>2022-05-03T11:27:54.667Z</time>
      </trkpt>
      <trkpt lat="41.17905" lon="19.56534">
        <ele>67.257268</ele>
        <time>2022-05-03T11:27:56.623Z</time>
      </trkpt>
      <trkpt lat="41.17914" lon="19.56528">
        <ele>66.844923</ele>
        <time>2022-05-03T11:27:58.636Z</time>
      </trkpt>
      <trkpt lat="41.17923" lon="19.56522">
        <ele>66.440931</ele>
        <time>2022-05-03T11:28:00.637Z</time>
      </trkpt>
      <trkpt lat="41.17935" lon="19.56514">
        <ele>65.916036</ele>
        <time>2022-05-03T11:28:03.623Z</time>
      </trkpt>
      <trkpt lat="41.17943" lon="19.56508">
        <ele>65.547589</ele>
        <time>2022-05-03T11:28:05.664Z</time>
      </trkpt>
      <trkpt lat="41.17951" lon="19.56501">
        <ele>65.893992</ele>
        <time>2022-05-03T11:28:07.613Z</time>
      </trkpt>
      <trkpt lat="41.17959" lon="19.56495">
        <ele>66.275957</ele>
        <time>2022-05-03T11:28:09.637Z</time>
      </trkpt>
      <trkpt lat="41.17971" lon="19.56487">
        <ele>66.829341</ele>
        <time>2022-05-03T11:28:12.612Z</time>
      </trkpt>
      <trkpt lat="41.17983" lon="19.56479">
        <ele>67.365508</ele>
        <time>2022-05-03T11:28:15.629Z</time>
      </trkpt>
      <trkpt lat="41.17995" lon="19.56472">
        <ele>67.911559</ele>
        <time>2022-05-03T11:28:18.624Z</time>
      </trkpt>
      <trkpt lat="41.18004" lon="19.56467">
        <ele>68.316821</ele>
        <time>2022-05-03T11:28:20.627Z</time>
      </trkpt>
      <trkpt lat="41.18015" lon="19.56462">
        <ele>68.805275</ele>
        <time>2022-05-03T11:28:23.616Z</time>
      </trkpt>
      <trkpt lat="41.18024" lon="19.56454">
        <ele>69.247552</ele>
        <time>2022-05-03T11:28:26.649Z</time>
      </trkpt>
      <trkpt lat="41.18036" lon="19.56446">
        <ele>69.789196</ele>
        <time>2022-05-03T11:28:29.627Z</time>
      </trkpt>
      <trkpt lat="41.18044" lon="19.5644">
        <ele>70.179413</ele>
        <time>2022-05-03T11:28:31.631Z</time>
      </trkpt>
      <trkpt lat="41.18053" lon="19.56434">
        <ele>70.578143</ele>
        <time>2022-05-03T11:28:33.623Z</time>
      </trkpt>
      <trkpt lat="41.18061" lon="19.56428">
        <ele>70.963565</ele>
        <time>2022-05-03T11:28:35.626Z</time>
      </trkpt>
      <trkpt lat="41.1807" lon="19.56422">
        <ele>71.373231</ele>
        <time>2022-05-03T11:28:37.636Z</time>
      </trkpt>
      <trkpt lat="41.18078" lon="19.56417">
        <ele>71.749417</ele>
        <time>2022-05-03T11:28:39.616Z</time>
      </trkpt>
      <trkpt lat="41.18087" lon="19.56412">
        <ele>72.145861</ele>
        <time>2022-05-03T11:28:41.616Z</time>
      </trkpt>
      <trkpt lat="41.18096" lon="19.56407">
        <ele>72.558484</ele>
        <time>2022-05-03T11:28:43.614Z</time>
      </trkpt>
      <trkpt lat="41.18105" lon="19.56401">
        <ele>72.985727</ele>
        <time>2022-05-03T11:28:45.607Z</time>
      </trkpt>
      <trkpt lat="41.18114" lon="19.56393">
        <ele>73.467315</ele>
        <time>2022-05-03T11:28:47.633Z</time>
      </trkpt>
      <trkpt lat="41.18122" lon="19.56385">
        <ele>73.949813</ele>
        <time>2022-05-03T11:28:49.623Z</time>
      </trkpt>
      <trkpt lat="41.1813" lon="19.56377">
        <ele>74.415977</ele>
        <time>2022-05-03T11:28:51.630Z</time>
      </trkpt>
      <trkpt lat="41.18138" lon="19.56368">
        <ele>74.895086</ele>
        <time>2022-05-03T11:28:53.627Z</time>
      </trkpt>
      <trkpt lat="41.18147" lon="19.56361">
        <ele>75.383333</ele>
        <time>2022-05-03T11:28:55.632Z</time>
      </trkpt>
      <trkpt lat="41.18157" lon="19.56355">
        <ele>75.884526</ele>
        <time>2022-05-03T11:28:57.648Z</time>
      </trkpt>
      <trkpt lat="41.18166" lon="19.56348">
        <ele>76.381607</ele>
        <time>2022-05-03T11:28:59.648Z</time>
      </trkpt>
      <trkpt lat="41.18175" lon="19.56342">
        <ele>76.850421</ele>
        <time>2022-05-03T11:29:01.669Z</time>
      </trkpt>
      <trkpt lat="41.18185" lon="19.56337">
        <ele>77.356451</ele>
        <time>2022-05-03T11:29:03.627Z</time>
      </trkpt>
      <trkpt lat="41.18194" lon="19.5633">
        <ele>77.854531</ele>
        <time>2022-05-03T11:29:05.617Z</time>
      </trkpt>
      <trkpt lat="41.18203" lon="19.56323">
        <ele>78.320348</ele>
        <time>2022-05-03T11:29:07.661Z</time>
      </trkpt>
      <trkpt lat="41.18211" lon="19.56315">
        <ele>78.768758</ele>
        <time>2022-05-03T11:29:09.630Z</time>
      </trkpt>
      <trkpt lat="41.18218" lon="19.56308">
        <ele>79.211594</ele>
        <time>2022-05-03T11:29:11.614Z</time>
      </trkpt>
      <trkpt lat="41.18227" lon="19.56301">
        <ele>79.671792</ele>
        <time>2022-05-03T11:29:13.661Z</time>
      </trkpt>
      <trkpt lat="41.18235" lon="19.56295">
        <ele>80.12477</ele>
        <time>2022-05-03T11:29:15.632Z</time>
      </trkpt>
      <trkpt lat="41.18243" lon="19.56288">
        <ele>80.580859</ele>
        <time>2022-05-03T11:29:17.612Z</time>
      </trkpt>
      <trkpt lat="41.18251" lon="19.56281">
        <ele>81.013651</ele>
        <time>2022-05-03T11:29:19.645Z</time>
      </trkpt>
      <trkpt lat="41.18259" lon="19.56274">
        <ele>81.226427</ele>
        <time>2022-05-03T11:29:21.640Z</time>
      </trkpt>
      <trkpt lat="41.18267" lon="19.56268">
        <ele>80.851752</ele>
        <time>2022-05-03T11:29:23.642Z</time>
      </trkpt>
      <trkpt lat="41.18279" lon="19.56261">
        <ele>80.333761</ele>
        <time>2022-05-03T11:29:26.697Z</time>
      </trkpt>
      <trkpt lat="41.18291" lon="19.56252">
        <ele>79.785734</ele>
        <time>2022-05-03T11:29:29.656Z</time>
      </trkpt>
      <trkpt lat="41.18302" lon="19.56244">
        <ele>79.255733</ele>
        <time>2022-05-03T11:29:32.619Z</time>
      </trkpt>
      <trkpt lat="41.18312" lon="19.56234">
        <ele>78.751574</ele>
        <time>2022-05-03T11:29:35.636Z</time>
      </trkpt>
      <trkpt lat="41.18322" lon="19.56227">
        <ele>78.300034</ele>
        <time>2022-05-03T11:29:38.626Z</time>
      </trkpt>
      <trkpt lat="41.18331" lon="19.5622">
        <ele>77.863698</ele>
        <time>2022-05-03T11:29:41.623Z</time>
      </trkpt>
      <trkpt lat="41.18341" lon="19.56214">
        <ele>77.427929</ele>
        <time>2022-05-03T11:29:44.635Z</time>
      </trkpt>
      <trkpt lat="41.18349" lon="19.56208">
        <ele>77.04463</ele>
        <time>2022-05-03T11:29:47.635Z</time>
      </trkpt>
      <trkpt lat="41.18357" lon="19.56202">
        <ele>76.662796</ele>
        <time>2022-05-03T11:29:50.707Z</time>
      </trkpt>
      <trkpt lat="41.18366" lon="19.56196">
        <ele>76.262238</ele>
        <time>2022-05-03T11:29:53.625Z</time>
      </trkpt>
      <trkpt lat="41.18374" lon="19.56189">
        <ele>75.866783</ele>
        <time>2022-05-03T11:29:56.634Z</time>
      </trkpt>
      <trkpt lat="41.18384" lon="19.56184">
        <ele>75.438537</ele>
        <time>2022-05-03T11:29:59.626Z</time>
      </trkpt>
      <trkpt lat="41.18393" lon="19.56177">
        <ele>75.00523</ele>
        <time>2022-05-03T11:30:02.657Z</time>
      </trkpt>
      <trkpt lat="41.18403" lon="19.56171">
        <ele>74.567941</ele>
        <time>2022-05-03T11:30:05.626Z</time>
      </trkpt>
      <trkpt lat="41.18412" lon="19.56163">
        <ele>74.107842</ele>
        <time>2022-05-03T11:30:08.700Z</time>
      </trkpt>
      <trkpt lat="41.18423" lon="19.56156">
        <ele>74.105528</ele>
        <time>2022-05-03T11:30:11.642Z</time>
      </trkpt>
      <trkpt lat="41.18432" lon="19.56147">
        <ele>74.222672</ele>
        <time>2022-05-03T11:30:14.617Z</time>
      </trkpt>
      <trkpt lat="41.1844" lon="19.56138">
        <ele>74.339697</ele>
        <time>2022-05-03T11:30:17.617Z</time>
      </trkpt>
      <trkpt lat="41.18451" lon="19.56129">
        <ele>74.469669</ele>
        <time>2022-05-03T11:30:20.628Z</time>
      </trkpt>
      <trkpt lat="41.18461" lon="19.56121">
        <ele>74.593832</ele>
        <time>2022-05-03T11:30:23.632Z</time>
      </trkpt>
      <trkpt lat="41.1847" lon="19.5611">
        <ele>74.726565</ele>
        <time>2022-05-03T11:30:26.628Z</time>
      </trkpt>
      <trkpt lat="41.18479" lon="19.56099">
        <ele>74.850375</ele>
        <time>2022-05-03T11:30:29.624Z</time>
      </trkpt>
      <trkpt lat="41.18488" lon="19.5609">
        <ele>74.967699</ele>
        <time>2022-05-03T11:30:32.620Z</time>
      </trkpt>
      <trkpt lat="41.18497" lon="19.5608">
        <ele>75.091075</ele>
        <time>2022-05-03T11:30:35.616Z</time>
      </trkpt>
      <trkpt lat="41.18506" lon="19.56071">
        <ele>75.208879</ele>
        <time>2022-05-03T11:30:38.628Z</time>
      </trkpt>
      <trkpt lat="41.18516" lon="19.56062">
        <ele>75.331732</ele>
        <time>2022-05-03T11:30:41.620Z</time>
      </trkpt>
      <trkpt lat="41.18525" lon="19.56052">
        <ele>75.45592</ele>
        <time>2022-05-03T11:30:44.626Z</time>
      </trkpt>
      <trkpt lat="41.18533" lon="19.56043">
        <ele>75.571582</ele>
        <time>2022-05-03T11:30:47.634Z</time>
      </trkpt>
      <trkpt lat="41.18542" lon="19.56033">
        <ele>75.694603</ele>
        <time>2022-05-03T11:30:50.638Z</time>
      </trkpt>
      <trkpt lat="41.18553" lon="19.56024">
        <ele>75.829642</ele>
        <time>2022-05-03T11:30:53.611Z</time>
      </trkpt>
      <trkpt lat="41.18563" lon="19.56015">
        <ele>76.10445</ele>
        <time>2022-05-03T11:30:56.637Z</time>
      </trkpt>
      <trkpt lat="41.18572" lon="19.56006">
        <ele>76.507086</ele>
        <time>2022-05-03T11:30:59.634Z</time>
      </trkpt>
      <trkpt lat="41.18582" lon="19.55998">
        <ele>76.951343</ele>
        <time>2022-05-03T11:31:02.629Z</time>
      </trkpt>
      <trkpt lat="41.18591" lon="19.55987">
        <ele>77.403015</ele>
        <time>2022-05-03T11:31:05.639Z</time>
      </trkpt>
      <trkpt lat="41.18599" lon="19.55976">
        <ele>77.838107</ele>
        <time>2022-05-03T11:31:08.640Z</time>
      </trkpt>
      <trkpt lat="41.18608" lon="19.55967">
        <ele>78.256553</ele>
        <time>2022-05-03T11:31:11.641Z</time>
      </trkpt>
      <trkpt lat="41.18617" lon="19.55956">
        <ele>78.715519</ele>
        <time>2022-05-03T11:31:14.647Z</time>
      </trkpt>
      <trkpt lat="41.18626" lon="19.55945">
        <ele>79.172944</ele>
        <time>2022-05-03T11:31:17.659Z</time>
      </trkpt>
      <trkpt lat="41.18636" lon="19.55934">
        <ele>79.645825</ele>
        <time>2022-05-03T11:31:20.649Z</time>
      </trkpt>
      <trkpt lat="41.18646" lon="19.55922">
        <ele>80.128979</ele>
        <time>2022-05-03T11:31:23.619Z</time>
      </trkpt>
      <trkpt lat="41.18656" lon="19.55913">
        <ele>80.602595</ele>
        <time>2022-05-03T11:31:26.634Z</time>
      </trkpt>
      <trkpt lat="41.18667" lon="19.55902">
        <ele>81.093075</ele>
        <time>2022-05-03T11:31:29.644Z</time>
      </trkpt>
      <trkpt lat="41.18677" lon="19.55892">
        <ele>81.576399</ele>
        <time>2022-05-03T11:31:32.627Z</time>
      </trkpt>
      <trkpt lat="41.18688" lon="19.55883">
        <ele>82.051798</ele>
        <time>2022-05-03T11:31:35.619Z</time>
      </trkpt>
      <trkpt lat="41.18698" lon="19.55871">
        <ele>82.537751</ele>
        <time>2022-05-03T11:31:38.625Z</time>
      </trkpt>
      <trkpt lat="41.18709" lon="19.55861">
        <ele>82.145655</ele>
        <time>2022-05-03T11:31:41.651Z</time>
      </trkpt>
      <trkpt lat="41.18716" lon="19.55854">
        <ele>81.817725</ele>
        <time>2022-05-03T11:31:43.623Z</time>
      </trkpt>
      <trkpt lat="41.18724" lon="19.55847">
        <ele>81.473811</ele>
        <time>2022-05-03T11:31:45.680Z</time>
      </trkpt>
      <trkpt lat="41.18733" lon="19.5584">
        <ele>81.116022</ele>
        <time>2022-05-03T11:31:47.636Z</time>
      </trkpt>
      <trkpt lat="41.18741" lon="19.55834">
        <ele>80.774803</ele>
        <time>2022-05-03T11:31:49.632Z</time>
      </trkpt>
      <trkpt lat="41.18749" lon="19.55826">
        <ele>80.433671</ele>
        <time>2022-05-03T11:31:51.611Z</time>
      </trkpt>
      <trkpt lat="41.18756" lon="19.55817">
        <ele>80.063431</ele>
        <time>2022-05-03T11:31:53.643Z</time>
      </trkpt>
      <trkpt lat="41.18764" lon="19.55807">
        <ele>79.679888</ele>
        <time>2022-05-03T11:31:55.628Z</time>
      </trkpt>
      <trkpt lat="41.18773" lon="19.55798">
        <ele>79.3004</ele>
        <time>2022-05-03T11:31:57.671Z</time>
      </trkpt>
      <trkpt lat="41.18781" lon="19.5579">
        <ele>78.944844</ele>
        <time>2022-05-03T11:31:59.621Z</time>
      </trkpt>
      <trkpt lat="41.18788" lon="19.55781">
        <ele>78.589431</ele>
        <time>2022-05-03T11:32:01.637Z</time>
      </trkpt>
      <trkpt lat="41.18795" lon="19.55771">
        <ele>78.228855</ele>
        <time>2022-05-03T11:32:03.647Z</time>
      </trkpt>
      <trkpt lat="41.18802" lon="19.55762">
        <ele>77.869499</ele>
        <time>2022-05-03T11:32:05.629Z</time>
      </trkpt>
      <trkpt lat="41.1881" lon="19.55753">
        <ele>77.496139</ele>
        <time>2022-05-03T11:32:07.642Z</time>
      </trkpt>
      <trkpt lat="41.18818" lon="19.55744">
        <ele>77.131682</ele>
        <time>2022-05-03T11:32:09.632Z</time>
      </trkpt>
      <trkpt lat="41.18826" lon="19.55736">
        <ele>76.785545</ele>
        <time>2022-05-03T11:32:11.615Z</time>
      </trkpt>
      <trkpt lat="41.18834" lon="19.55729">
        <ele>76.439408</ele>
        <time>2022-05-03T11:32:13.615Z</time>
      </trkpt>
      <trkpt lat="41.18842" lon="19.55721">
        <ele>76.189647</ele>
        <time>2022-05-03T11:32:15.629Z</time>
      </trkpt>
      <trkpt lat="41.1885" lon="19.55713">
        <ele>76.219013</ele>
        <time>2022-05-03T11:32:17.628Z</time>
      </trkpt>
      <trkpt lat="41.18859" lon="19.55705">
        <ele>76.248457</ele>
        <time>2022-05-03T11:32:19.653Z</time>
      </trkpt>
      <trkpt lat="41.18866" lon="19.55696">
        <ele>76.277318</ele>
        <time>2022-05-03T11:32:21.639Z</time>
      </trkpt>
      <trkpt lat="41.18874" lon="19.55687">
        <ele>76.305018</ele>
        <time>2022-05-03T11:32:23.631Z</time>
      </trkpt>
      <trkpt lat="41.18882" lon="19.55678">
        <ele>76.334779</ele>
        <time>2022-05-03T11:32:25.632Z</time>
      </trkpt>
      <trkpt lat="41.18889" lon="19.5567">
        <ele>76.361134</ele>
        <time>2022-05-03T11:32:27.627Z</time>
      </trkpt>
      <trkpt lat="41.18896" lon="19.55662">
        <ele>76.387427</ele>
        <time>2022-05-03T11:32:29.627Z</time>
      </trkpt>
      <trkpt lat="41.18903" lon="19.55654">
        <ele>76.415534</ele>
        <time>2022-05-03T11:32:31.629Z</time>
      </trkpt>
      <trkpt lat="41.18912" lon="19.55645">
        <ele>76.445105</ele>
        <time>2022-05-03T11:32:33.626Z</time>
      </trkpt>
      <trkpt lat="41.1892" lon="19.55637">
        <ele>76.474903</ele>
        <time>2022-05-03T11:32:35.623Z</time>
      </trkpt>
      <trkpt lat="41.18928" lon="19.55629">
        <ele>76.503142</ele>
        <time>2022-05-03T11:32:37.614Z</time>
      </trkpt>
      <trkpt lat="41.18936" lon="19.55622">
        <ele>76.530479</ele>
        <time>2022-05-03T11:32:39.638Z</time>
      </trkpt>
      <trkpt lat="41.18944" lon="19.55614">
        <ele>76.55993</ele>
        <time>2022-05-03T11:32:41.671Z</time>
      </trkpt>
      <trkpt lat="41.18953" lon="19.55606">
        <ele>76.589848</ele>
        <time>2022-05-03T11:32:43.626Z</time>
      </trkpt>
      <trkpt lat="41.18962" lon="19.55599">
        <ele>76.619062</ele>
        <time>2022-05-03T11:32:45.666Z</time>
      </trkpt>
      <trkpt lat="41.18969" lon="19.55591">
        <ele>76.646235</ele>
        <time>2022-05-03T11:32:47.661Z</time>
      </trkpt>
      <trkpt lat="41.18976" lon="19.55583">
        <ele>76.672518</ele>
        <time>2022-05-03T11:32:49.623Z</time>
      </trkpt>
      <trkpt lat="41.18986" lon="19.55571">
        <ele>76.803522</ele>
        <time>2022-05-03T11:32:52.645Z</time>
      </trkpt>
      <trkpt lat="41.18993" lon="19.55563">
        <ele>76.964214</ele>
        <time>2022-05-03T11:32:54.621Z</time>
      </trkpt>
      <trkpt lat="41.18999" lon="19.55553">
        <ele>77.12618</ele>
        <time>2022-05-03T11:32:56.626Z</time>
      </trkpt>
      <trkpt lat="41.19006" lon="19.55544">
        <ele>77.303428</ele>
        <time>2022-05-03T11:32:58.628Z</time>
      </trkpt>
      <trkpt lat="41.19014" lon="19.55536">
        <ele>77.482708</ele>
        <time>2022-05-03T11:33:00.617Z</time>
      </trkpt>
      <trkpt lat="41.19022" lon="19.55528">
        <ele>77.652953</ele>
        <time>2022-05-03T11:33:02.634Z</time>
      </trkpt>
      <trkpt lat="41.1903" lon="19.55521">
        <ele>77.81927</ele>
        <time>2022-05-03T11:33:04.694Z</time>
      </trkpt>
      <trkpt lat="41.19037" lon="19.55512">
        <ele>77.990808</ele>
        <time>2022-05-03T11:33:06.611Z</time>
      </trkpt>
      <trkpt lat="41.19045" lon="19.55505">
        <ele>78.16582</ele>
        <time>2022-05-03T11:33:08.594Z</time>
      </trkpt>
      <trkpt lat="41.19053" lon="19.55497">
        <ele>78.341075</ele>
        <time>2022-05-03T11:33:10.645Z</time>
      </trkpt>
      <trkpt lat="41.19061" lon="19.5549">
        <ele>78.51023</ele>
        <time>2022-05-03T11:33:12.636Z</time>
      </trkpt>
      <trkpt lat="41.1907" lon="19.55483">
        <ele>78.695536</ele>
        <time>2022-05-03T11:33:14.617Z</time>
      </trkpt>
      <trkpt lat="41.19078" lon="19.55474">
        <ele>78.867671</ele>
        <time>2022-05-03T11:33:16.636Z</time>
      </trkpt>
      <trkpt lat="41.19085" lon="19.55466">
        <ele>79.039677</ele>
        <time>2022-05-03T11:33:18.618Z</time>
      </trkpt>
      <trkpt lat="41.19093" lon="19.55457">
        <ele>79.221787</ele>
        <time>2022-05-03T11:33:20.618Z</time>
      </trkpt>
      <trkpt lat="41.19102" lon="19.55448">
        <ele>79.416237</ele>
        <time>2022-05-03T11:33:22.660Z</time>
      </trkpt>
      <trkpt lat="41.19111" lon="19.5544">
        <ele>79.60956</ele>
        <time>2022-05-03T11:33:24.630Z</time>
      </trkpt>
      <trkpt lat="41.19119" lon="19.55432">
        <ele>79.791162</ele>
        <time>2022-05-03T11:33:26.623Z</time>
      </trkpt>
      <trkpt lat="41.19128" lon="19.55424">
        <ele>79.550943</ele>
        <time>2022-05-03T11:33:28.627Z</time>
      </trkpt>
      <trkpt lat="41.19138" lon="19.55417">
        <ele>79.079834</ele>
        <time>2022-05-03T11:33:30.617Z</time>
      </trkpt>
      <trkpt lat="41.19147" lon="19.55409">
        <ele>78.623961</ele>
        <time>2022-05-03T11:33:32.628Z</time>
      </trkpt>
      <trkpt lat="41.19155" lon="19.55398">
        <ele>78.144772</ele>
        <time>2022-05-03T11:33:34.633Z</time>
      </trkpt>
      <trkpt lat="41.19164" lon="19.5539">
        <ele>77.672749</ele>
        <time>2022-05-03T11:33:36.635Z</time>
      </trkpt>
      <trkpt lat="41.19174" lon="19.55383">
        <ele>77.197108</ele>
        <time>2022-05-03T11:33:38.655Z</time>
      </trkpt>
      <trkpt lat="41.19183" lon="19.55375">
        <ele>76.729691</ele>
        <time>2022-05-03T11:33:40.622Z</time>
      </trkpt>
      <trkpt lat="41.19192" lon="19.55369">
        <ele>76.29557</ele>
        <time>2022-05-03T11:33:42.657Z</time>
      </trkpt>
      <trkpt lat="41.19201" lon="19.55362">
        <ele>75.83752</ele>
        <time>2022-05-03T11:33:44.649Z</time>
      </trkpt>
      <trkpt lat="41.1921" lon="19.55353">
        <ele>75.369277</ele>
        <time>2022-05-03T11:33:46.644Z</time>
      </trkpt>
      <trkpt lat="41.19219" lon="19.55344">
        <ele>74.91311</ele>
        <time>2022-05-03T11:33:48.674Z</time>
      </trkpt>
      <trkpt lat="41.19227" lon="19.55336">
        <ele>74.470671</ele>
        <time>2022-05-03T11:33:50.630Z</time>
      </trkpt>
      <trkpt lat="41.19235" lon="19.55328">
        <ele>74.019491</ele>
        <time>2022-05-03T11:33:52.636Z</time>
      </trkpt>
      <trkpt lat="41.19244" lon="19.55319">
        <ele>73.564457</ele>
        <time>2022-05-03T11:33:54.652Z</time>
      </trkpt>
      <trkpt lat="41.19253" lon="19.55312">
        <ele>73.124488</ele>
        <time>2022-05-03T11:33:56.644Z</time>
      </trkpt>
      <trkpt lat="41.1926" lon="19.55304">
        <ele>72.717856</ele>
        <time>2022-05-03T11:33:58.628Z</time>
      </trkpt>
      <trkpt lat="41.19268" lon="19.55297">
        <ele>72.309651</ele>
        <time>2022-05-03T11:34:00.621Z</time>
      </trkpt>
      <trkpt lat="41.19276" lon="19.5529">
        <ele>71.765073</ele>
        <time>2022-05-03T11:34:02.619Z</time>
      </trkpt>
      <trkpt lat="41.19284" lon="19.55282">
        <ele>71.175525</ele>
        <time>2022-05-03T11:34:04.633Z</time>
      </trkpt>
      <trkpt lat="41.19292" lon="19.55274">
        <ele>70.601164</ele>
        <time>2022-05-03T11:34:06.628Z</time>
      </trkpt>
      <trkpt lat="41.19299" lon="19.55267">
        <ele>70.050044</ele>
        <time>2022-05-03T11:34:08.623Z</time>
      </trkpt>
      <trkpt lat="41.1931" lon="19.55258">
        <ele>69.246525</ele>
        <time>2022-05-03T11:34:11.636Z</time>
      </trkpt>
      <trkpt lat="41.19317" lon="19.55251">
        <ele>68.698041</ele>
        <time>2022-05-03T11:34:13.614Z</time>
      </trkpt>
      <trkpt lat="41.19325" lon="19.55244">
        <ele>68.11688</ele>
        <time>2022-05-03T11:34:15.621Z</time>
      </trkpt>
      <trkpt lat="41.19333" lon="19.55236">
        <ele>67.517549</ele>
        <time>2022-05-03T11:34:17.636Z</time>
      </trkpt>
      <trkpt lat="41.19342" lon="19.55228">
        <ele>66.903383</ele>
        <time>2022-05-03T11:34:19.631Z</time>
      </trkpt>
      <trkpt lat="41.19349" lon="19.5522">
        <ele>66.320754</ele>
        <time>2022-05-03T11:34:21.650Z</time>
      </trkpt>
      <trkpt lat="41.1936" lon="19.5521">
        <ele>65.504306</ele>
        <time>2022-05-03T11:34:24.642Z</time>
      </trkpt>
      <trkpt lat="41.19368" lon="19.55203">
        <ele>64.920623</ele>
        <time>2022-05-03T11:34:26.645Z</time>
      </trkpt>
      <trkpt lat="41.19376" lon="19.55195">
        <ele>64.323485</ele>
        <time>2022-05-03T11:34:28.619Z</time>
      </trkpt>
      <trkpt lat="41.19384" lon="19.55188">
        <ele>63.716909</ele>
        <time>2022-05-03T11:34:30.619Z</time>
      </trkpt>
      <trkpt lat="41.19392" lon="19.5518">
        <ele>63.126689</ele>
        <time>2022-05-03T11:34:32.645Z</time>
      </trkpt>
      <trkpt lat="41.19401" lon="19.55172">
        <ele>62.497348</ele>
        <time>2022-05-03T11:34:34.619Z</time>
      </trkpt>
      <trkpt lat="41.19409" lon="19.55164">
        <ele>61.863049</ele>
        <time>2022-05-03T11:34:36.622Z</time>
      </trkpt>
      <trkpt lat="41.19418" lon="19.55158">
        <ele>61.284932</ele>
        <time>2022-05-03T11:34:38.619Z</time>
      </trkpt>
      <trkpt lat="41.19429" lon="19.55147">
        <ele>61.445179</ele>
        <time>2022-05-03T11:34:41.622Z</time>
      </trkpt>
      <trkpt lat="41.19436" lon="19.55139">
        <ele>61.559984</ele>
        <time>2022-05-03T11:34:43.632Z</time>
      </trkpt>
      <trkpt lat="41.19447" lon="19.55127">
        <ele>61.722218</ele>
        <time>2022-05-03T11:34:46.660Z</time>
      </trkpt>
      <trkpt lat="41.19455" lon="19.55119">
        <ele>61.839329</ele>
        <time>2022-05-03T11:34:48.620Z</time>
      </trkpt>
      <trkpt lat="41.19462" lon="19.55112">
        <ele>61.949548</ele>
        <time>2022-05-03T11:34:50.635Z</time>
      </trkpt>
      <trkpt lat="41.19473" lon="19.55104">
        <ele>62.097462</ele>
        <time>2022-05-03T11:34:53.635Z</time>
      </trkpt>
      <trkpt lat="41.19481" lon="19.55097">
        <ele>62.205679</ele>
        <time>2022-05-03T11:34:55.624Z</time>
      </trkpt>
      <trkpt lat="41.19489" lon="19.55085">
        <ele>62.353356</ele>
        <time>2022-05-03T11:34:58.653Z</time>
      </trkpt>
      <trkpt lat="41.19495" lon="19.55074">
        <ele>62.475352</ele>
        <time>2022-05-03T11:35:00.629Z</time>
      </trkpt>
      <trkpt lat="41.19501" lon="19.55062">
        <ele>62.601744</ele>
        <time>2022-05-03T11:35:02.628Z</time>
      </trkpt>
      <trkpt lat="41.19507" lon="19.55052">
        <ele>62.718722</ele>
        <time>2022-05-03T11:35:04.630Z</time>
      </trkpt>
      <trkpt lat="41.19513" lon="19.55041">
        <ele>62.840779</ele>
        <time>2022-05-03T11:35:06.635Z</time>
      </trkpt>
      <trkpt lat="41.1952" lon="19.5503">
        <ele>62.968394</ele>
        <time>2022-05-03T11:35:08.637Z</time>
      </trkpt>
      <trkpt lat="41.19527" lon="19.55019">
        <ele>63.092214</ele>
        <time>2022-05-03T11:35:10.626Z</time>
      </trkpt>
      <trkpt lat="41.19534" lon="19.55011">
        <ele>63.201179</ele>
        <time>2022-05-03T11:35:12.631Z</time>
      </trkpt>
      <trkpt lat="41.19539" lon="19.55002">
        <ele>63.308341</ele>
        <time>2022-05-03T11:35:14.619Z</time>
      </trkpt>
      <trkpt lat="41.19545" lon="19.54991">
        <ele>63.417301</ele>
        <time>2022-05-03T11:35:16.625Z</time>
      </trkpt>
      <trkpt lat="41.1955" lon="19.54981">
        <ele>63.495738</ele>
        <time>2022-05-03T11:35:18.631Z</time>
      </trkpt>
      <trkpt lat="41.19556" lon="19.54972">
        <ele>63.573169</ele>
        <time>2022-05-03T11:35:20.616Z</time>
      </trkpt>
      <trkpt lat="41.19563" lon="19.5496">
        <ele>63.670411</ele>
        <time>2022-05-03T11:35:23.678Z</time>
      </trkpt>
      <trkpt lat="41.19572" lon="19.5495">
        <ele>63.763677</ele>
        <time>2022-05-03T11:35:27.632Z</time>
      </trkpt>
      <trkpt lat="41.19564" lon="19.54967">
        <ele>63.887248</ele>
        <time>2022-05-03T12:27:41.660Z</time>
      </trkpt>
      <trkpt lat="41.19571" lon="19.54957">
        <ele>63.976843</ele>
        <time>2022-05-03T12:27:45.652Z</time>
      </trkpt>
      <trkpt lat="41.19578" lon="19.54947">
        <ele>64.057976</ele>
        <time>2022-05-03T12:27:48.627Z</time>
      </trkpt>
      <trkpt lat="41.19585" lon="19.54937">
        <ele>64.144656</ele>
        <time>2022-05-03T12:27:51.646Z</time>
      </trkpt>
      <trkpt lat="41.19593" lon="19.54926">
        <ele>64.239073</ele>
        <time>2022-05-03T12:27:54.652Z</time>
      </trkpt>
      <trkpt lat="41.196" lon="19.54913">
        <ele>64.341138</ele>
        <time>2022-05-03T12:27:57.643Z</time>
      </trkpt>
      <trkpt lat="41.19608" lon="19.549">
        <ele>64.444708</ele>
        <time>2022-05-03T12:28:00.721Z</time>
      </trkpt>
      <trkpt lat="41.19616" lon="19.54887">
        <ele>64.553138</ele>
        <time>2022-05-03T12:28:03.635Z</time>
      </trkpt>
      <trkpt lat="41.19622" lon="19.54878">
        <ele>64.629258</ele>
        <time>2022-05-03T12:28:05.642Z</time>
      </trkpt>
      <trkpt lat="41.19628" lon="19.54868">
        <ele>64.707682</ele>
        <time>2022-05-03T12:28:07.647Z</time>
      </trkpt>
      <trkpt lat="41.19636" lon="19.54854">
        <ele>64.816782</ele>
        <time>2022-05-03T12:28:10.679Z</time>
      </trkpt>
      <trkpt lat="41.19641" lon="19.54844">
        <ele>64.895711</ele>
        <time>2022-05-03T12:28:12.620Z</time>
      </trkpt>
      <trkpt lat="41.1965" lon="19.54832">
        <ele>64.711289</ele>
        <time>2022-05-03T12:28:15.633Z</time>
      </trkpt>
      <trkpt lat="41.19658" lon="19.54819">
        <ele>64.458277</ele>
        <time>2022-05-03T12:28:18.673Z</time>
      </trkpt>
      <trkpt lat="41.19667" lon="19.54805">
        <ele>64.185965</ele>
        <time>2022-05-03T12:28:21.625Z</time>
      </trkpt>
      <trkpt lat="41.19673" lon="19.54794">
        <ele>63.983183</ele>
        <time>2022-05-03T12:28:23.638Z</time>
      </trkpt>
      <trkpt lat="41.1968" lon="19.54783">
        <ele>63.773167</ele>
        <time>2022-05-03T12:28:25.660Z</time>
      </trkpt>
      <trkpt lat="41.19687" lon="19.54772">
        <ele>63.559251</ele>
        <time>2022-05-03T12:28:27.658Z</time>
      </trkpt>
      <trkpt lat="41.19693" lon="19.54761">
        <ele>63.356439</ele>
        <time>2022-05-03T12:28:29.632Z</time>
      </trkpt>
      <trkpt lat="41.197" lon="19.5475">
        <ele>63.146478</ele>
        <time>2022-05-03T12:28:31.633Z</time>
      </trkpt>
      <trkpt lat="41.19706" lon="19.54739">
        <ele>62.936543</ele>
        <time>2022-05-03T12:28:33.619Z</time>
      </trkpt>
      <trkpt lat="41.19713" lon="19.54728">
        <ele>62.731331</ele>
        <time>2022-05-03T12:28:35.668Z</time>
      </trkpt>
      <trkpt lat="41.19719" lon="19.54717">
        <ele>62.52612</ele>
        <time>2022-05-03T12:28:37.627Z</time>
      </trkpt>
      <trkpt lat="41.19725" lon="19.54707">
        <ele>62.320908</ele>
        <time>2022-05-03T12:28:39.652Z</time>
      </trkpt>
      <trkpt lat="41.19732" lon="19.54696">
        <ele>62.119092</ele>
        <time>2022-05-03T12:28:41.631Z</time>
      </trkpt>
      <trkpt lat="41.19738" lon="19.54686">
        <ele>61.927042</ele>
        <time>2022-05-03T12:28:43.642Z</time>
      </trkpt>
      <trkpt lat="41.19743" lon="19.54676">
        <ele>61.734978</ele>
        <time>2022-05-03T12:28:45.638Z</time>
      </trkpt>
      <trkpt lat="41.19749" lon="19.54665">
        <ele>61.541712</ele>
        <time>2022-05-03T12:28:47.636Z</time>
      </trkpt>
      <trkpt lat="41.19756" lon="19.54655">
        <ele>61.34583</ele>
        <time>2022-05-03T12:28:49.628Z</time>
      </trkpt>
      <trkpt lat="41.19762" lon="19.54644">
        <ele>61.298923</ele>
        <time>2022-05-03T12:28:51.631Z</time>
      </trkpt>
      <trkpt lat="41.19768" lon="19.54633">
        <ele>61.252299</ele>
        <time>2022-05-03T12:28:53.636Z</time>
      </trkpt>
      <trkpt lat="41.19774" lon="19.54622">
        <ele>61.2076</ele>
        <time>2022-05-03T12:28:55.638Z</time>
      </trkpt>
      <trkpt lat="41.1978" lon="19.54612">
        <ele>61.162314</ele>
        <time>2022-05-03T12:28:57.609Z</time>
      </trkpt>
      <trkpt lat="41.19786" lon="19.54602">
        <ele>61.117884</ele>
        <time>2022-05-03T12:28:59.633Z</time>
      </trkpt>
      <trkpt lat="41.19792" lon="19.54591">
        <ele>61.071738</ele>
        <time>2022-05-03T12:29:01.635Z</time>
      </trkpt>
      <trkpt lat="41.19798" lon="19.5458">
        <ele>61.023745</ele>
        <time>2022-05-03T12:29:03.621Z</time>
      </trkpt>
      <trkpt lat="41.19804" lon="19.54569">
        <ele>60.978773</ele>
        <time>2022-05-03T12:29:05.651Z</time>
      </trkpt>
      <trkpt lat="41.1981" lon="19.54559">
        <ele>60.934042</ele>
        <time>2022-05-03T12:29:07.659Z</time>
      </trkpt>
      <trkpt lat="41.19816" lon="19.54549">
        <ele>60.889598</ele>
        <time>2022-05-03T12:29:09.622Z</time>
      </trkpt>
      <trkpt lat="41.19822" lon="19.54539">
        <ele>60.845976</ele>
        <time>2022-05-03T12:29:11.645Z</time>
      </trkpt>
      <trkpt lat="41.19828" lon="19.54528">
        <ele>60.801828</ele>
        <time>2022-05-03T12:29:13.678Z</time>
      </trkpt>
      <trkpt lat="41.19834" lon="19.54518">
        <ele>60.758489</ele>
        <time>2022-05-03T12:29:15.612Z</time>
      </trkpt>
      <trkpt lat="41.1984" lon="19.54508">
        <ele>60.71103</ele>
        <time>2022-05-03T12:29:17.629Z</time>
      </trkpt>
      <trkpt lat="41.19846" lon="19.54498">
        <ele>60.668134</ele>
        <time>2022-05-03T12:29:19.687Z</time>
      </trkpt>
      <trkpt lat="41.19853" lon="19.54489">
        <ele>60.624631</ele>
        <time>2022-05-03T12:29:21.612Z</time>
      </trkpt>
      <trkpt lat="41.19859" lon="19.54478">
        <ele>60.577971</ele>
        <time>2022-05-03T12:29:23.630Z</time>
      </trkpt>
      <trkpt lat="41.19866" lon="19.54468">
        <ele>60.530988</ele>
        <time>2022-05-03T12:29:25.650Z</time>
      </trkpt>
      <trkpt lat="41.19873" lon="19.54457">
        <ele>60.320332</ele>
        <time>2022-05-03T12:29:27.622Z</time>
      </trkpt>
      <trkpt lat="41.1988" lon="19.54447">
        <ele>60.112436</ele>
        <time>2022-05-03T12:29:29.624Z</time>
      </trkpt>
      <trkpt lat="41.19886" lon="19.54437">
        <ele>59.907644</ele>
        <time>2022-05-03T12:29:31.632Z</time>
      </trkpt>
      <trkpt lat="41.19892" lon="19.54427">
        <ele>59.703153</ele>
        <time>2022-05-03T12:29:33.615Z</time>
      </trkpt>
      <trkpt lat="41.19899" lon="19.54416">
        <ele>59.487367</ele>
        <time>2022-05-03T12:29:35.634Z</time>
      </trkpt>
      <trkpt lat="41.19905" lon="19.54405">
        <ele>59.273981</ele>
        <time>2022-05-03T12:29:37.642Z</time>
      </trkpt>
      <trkpt lat="41.19912" lon="19.54395">
        <ele>59.065609</ele>
        <time>2022-05-03T12:29:39.618Z</time>
      </trkpt>
      <trkpt lat="41.19918" lon="19.54385">
        <ele>58.862001</ele>
        <time>2022-05-03T12:29:41.636Z</time>
      </trkpt>
      <trkpt lat="41.19924" lon="19.54375">
        <ele>58.660909</ele>
        <time>2022-05-03T12:29:43.633Z</time>
      </trkpt>
      <trkpt lat="41.19931" lon="19.54366">
        <ele>58.467039</ele>
        <time>2022-05-03T12:29:45.616Z</time>
      </trkpt>
      <trkpt lat="41.19937" lon="19.54355">
        <ele>58.261253</ele>
        <time>2022-05-03T12:29:47.659Z</time>
      </trkpt>
      <trkpt lat="41.19943" lon="19.54345">
        <ele>58.04906</ele>
        <time>2022-05-03T12:29:49.656Z</time>
      </trkpt>
      <trkpt lat="41.1995" lon="19.54334">
        <ele>57.83184</ele>
        <time>2022-05-03T12:29:51.619Z</time>
      </trkpt>
      <trkpt lat="41.19957" lon="19.54323">
        <ele>57.616055</ele>
        <time>2022-05-03T12:29:53.630Z</time>
      </trkpt>
      <trkpt lat="41.19963" lon="19.54313">
        <ele>57.410189</ele>
        <time>2022-05-03T12:29:55.674Z</time>
      </trkpt>
      <trkpt lat="41.1997" lon="19.54303">
        <ele>57.205398</ele>
        <time>2022-05-03T12:29:57.617Z</time>
      </trkpt>
      <trkpt lat="41.19976" lon="19.54293">
        <ele>57.003948</ele>
        <time>2022-05-03T12:29:59.640Z</time>
      </trkpt>
      <trkpt lat="41.19982" lon="19.54283">
        <ele>56.800856</ele>
        <time>2022-05-03T12:30:01.636Z</time>
      </trkpt>
      <trkpt lat="41.19988" lon="19.54272">
        <ele>56.59544</ele>
        <time>2022-05-03T12:30:03.628Z</time>
      </trkpt>
      <trkpt lat="41.19994" lon="19.54261">
        <ele>56.386363</ele>
        <time>2022-05-03T12:30:05.641Z</time>
      </trkpt>
      <trkpt lat="41.2" lon="19.5425">
        <ele>56.177165</ele>
        <time>2022-05-03T12:30:07.633Z</time>
      </trkpt>
      <trkpt lat="41.20007" lon="19.54239">
        <ele>55.955826</ele>
        <time>2022-05-03T12:30:09.624Z</time>
      </trkpt>
      <trkpt lat="41.20014" lon="19.54228">
        <ele>55.739173</ele>
        <time>2022-05-03T12:30:11.635Z</time>
      </trkpt>
      <trkpt lat="41.2002" lon="19.54216">
        <ele>55.51293</ele>
        <time>2022-05-03T12:30:13.627Z</time>
      </trkpt>
      <trkpt lat="41.20027" lon="19.54204">
        <ele>55.290384</ele>
        <time>2022-05-03T12:30:15.618Z</time>
      </trkpt>
      <trkpt lat="41.20034" lon="19.54193">
        <ele>55.071367</ele>
        <time>2022-05-03T12:30:17.636Z</time>
      </trkpt>
      <trkpt lat="41.20041" lon="19.54181">
        <ele>54.847609</ele>
        <time>2022-05-03T12:30:19.634Z</time>
      </trkpt>
      <trkpt lat="41.20047" lon="19.54171">
        <ele>54.629653</ele>
        <time>2022-05-03T12:30:21.680Z</time>
      </trkpt>
      <trkpt lat="41.20054" lon="19.5416">
        <ele>54.412701</ele>
        <time>2022-05-03T12:30:23.631Z</time>
      </trkpt>
      <trkpt lat="41.20062" lon="19.5415">
        <ele>54.198091</ele>
        <time>2022-05-03T12:30:25.623Z</time>
      </trkpt>
      <trkpt lat="41.20071" lon="19.54138">
        <ele>53.946396</ele>
        <time>2022-05-03T12:30:28.638Z</time>
      </trkpt>
      <trkpt lat="41.20078" lon="19.54127">
        <ele>53.728105</ele>
        <time>2022-05-03T12:30:32.659Z</time>
      </trkpt>
      <trkpt lat="41.20083" lon="19.54118">
        <ele>53.544696</ele>
        <time>2022-05-03T12:30:35.651Z</time>
      </trkpt>
      <trkpt lat="41.2009" lon="19.54106">
        <ele>53.319694</ele>
        <time>2022-05-03T12:30:38.656Z</time>
      </trkpt>
      <trkpt lat="41.20098" lon="19.54093">
        <ele>53.066328</ele>
        <time>2022-05-03T12:30:41.644Z</time>
      </trkpt>
      <trkpt lat="41.20103" lon="19.54083">
        <ele>52.886547</ele>
        <time>2022-05-03T12:30:43.640Z</time>
      </trkpt>
      <trkpt lat="41.20109" lon="19.54072">
        <ele>52.698847</ele>
        <time>2022-05-03T12:30:45.633Z</time>
      </trkpt>
      <trkpt lat="41.20116" lon="19.54063">
        <ele>52.521541</ele>
        <time>2022-05-03T12:30:47.636Z</time>
      </trkpt>
      <trkpt lat="41.20123" lon="19.54053">
        <ele>52.321856</ele>
        <time>2022-05-03T12:30:49.620Z</time>
      </trkpt>
      <trkpt lat="41.20129" lon="19.54043">
        <ele>52.131261</ele>
        <time>2022-05-03T12:30:51.624Z</time>
      </trkpt>
      <trkpt lat="41.20136" lon="19.54032">
        <ele>51.9396</ele>
        <time>2022-05-03T12:30:53.638Z</time>
      </trkpt>
      <trkpt lat="41.20143" lon="19.54022">
        <ele>51.745034</ele>
        <time>2022-05-03T12:30:55.662Z</time>
      </trkpt>
      <trkpt lat="41.20149" lon="19.54011">
        <ele>51.548092</ele>
        <time>2022-05-03T12:30:57.610Z</time>
      </trkpt>
      <trkpt lat="41.20155" lon="19.54001">
        <ele>51.364749</ele>
        <time>2022-05-03T12:30:59.647Z</time>
      </trkpt>
      <trkpt lat="41.20162" lon="19.53991">
        <ele>51.1791</ele>
        <time>2022-05-03T12:31:01.676Z</time>
      </trkpt>
      <trkpt lat="41.20168" lon="19.53981">
        <ele>50.987859</ele>
        <time>2022-05-03T12:31:03.634Z</time>
      </trkpt>
      <trkpt lat="41.20175" lon="19.5397">
        <ele>50.790494</ele>
        <time>2022-05-03T12:31:05.631Z</time>
      </trkpt>
      <trkpt lat="41.20182" lon="19.5396">
        <ele>50.595746</ele>
        <time>2022-05-03T12:31:07.664Z</time>
      </trkpt>
      <trkpt lat="41.20188" lon="19.53949">
        <ele>50.404505</ele>
        <time>2022-05-03T12:31:09.616Z</time>
      </trkpt>
      <trkpt lat="41.20195" lon="19.53939">
        <ele>50.208663</ele>
        <time>2022-05-03T12:31:11.644Z</time>
      </trkpt>
      <trkpt lat="41.20201" lon="19.53928">
        <ele>50.00602</ele>
        <time>2022-05-03T12:31:13.669Z</time>
      </trkpt>
      <trkpt lat="41.20208" lon="19.53917">
        <ele>49.806967</ele>
        <time>2022-05-03T12:31:15.622Z</time>
      </trkpt>
      <trkpt lat="41.20215" lon="19.53905">
        <ele>49.807878</ele>
        <time>2022-05-03T12:31:17.650Z</time>
      </trkpt>
      <trkpt lat="41.20221" lon="19.53895">
        <ele>49.86456</ele>
        <time>2022-05-03T12:31:19.632Z</time>
      </trkpt>
      <trkpt lat="41.20227" lon="19.53884">
        <ele>49.922283</ele>
        <time>2022-05-03T12:31:21.638Z</time>
      </trkpt>
      <trkpt lat="41.20234" lon="19.53873">
        <ele>49.978625</ele>
        <time>2022-05-03T12:31:23.621Z</time>
      </trkpt>
      <trkpt lat="41.2024" lon="19.53863">
        <ele>50.033631</ele>
        <time>2022-05-03T12:31:25.630Z</time>
      </trkpt>
      <trkpt lat="41.20246" lon="19.53852">
        <ele>50.088661</ele>
        <time>2022-05-03T12:31:27.621Z</time>
      </trkpt>
      <trkpt lat="41.20251" lon="19.53842">
        <ele>50.140332</ele>
        <time>2022-05-03T12:31:29.636Z</time>
      </trkpt>
      <trkpt lat="41.20257" lon="19.53832">
        <ele>50.193009</ele>
        <time>2022-05-03T12:31:31.637Z</time>
      </trkpt>
      <trkpt lat="41.20263" lon="19.53822">
        <ele>50.244685</ele>
        <time>2022-05-03T12:31:33.624Z</time>
      </trkpt>
      <trkpt lat="41.20269" lon="19.53812">
        <ele>50.300027</ele>
        <time>2022-05-03T12:31:35.698Z</time>
      </trkpt>
      <trkpt lat="41.20275" lon="19.538">
        <ele>50.357709</ele>
        <time>2022-05-03T12:31:37.638Z</time>
      </trkpt>
      <trkpt lat="41.20281" lon="19.5379">
        <ele>50.414052</ele>
        <time>2022-05-03T12:31:39.621Z</time>
      </trkpt>
      <trkpt lat="41.20287" lon="19.53779">
        <ele>50.470057</ele>
        <time>2022-05-03T12:31:41.646Z</time>
      </trkpt>
      <trkpt lat="41.20293" lon="19.53768">
        <ele>50.526436</ele>
        <time>2022-05-03T12:31:43.687Z</time>
      </trkpt>
      <trkpt lat="41.20298" lon="19.53757">
        <ele>50.581155</ele>
        <time>2022-05-03T12:31:45.632Z</time>
      </trkpt>
      <trkpt lat="41.20304" lon="19.53747">
        <ele>50.633185</ele>
        <time>2022-05-03T12:31:47.617Z</time>
      </trkpt>
      <trkpt lat="41.20309" lon="19.53736">
        <ele>50.687327</ele>
        <time>2022-05-03T12:31:49.632Z</time>
      </trkpt>
      <trkpt lat="41.20315" lon="19.53724">
        <ele>50.745431</ele>
        <time>2022-05-03T12:31:51.628Z</time>
      </trkpt>
      <trkpt lat="41.2032" lon="19.53712">
        <ele>50.852007</ele>
        <time>2022-05-03T12:31:53.637Z</time>
      </trkpt>
      <trkpt lat="41.20327" lon="19.53701">
        <ele>50.969714</ele>
        <time>2022-05-03T12:31:55.646Z</time>
      </trkpt>
      <trkpt lat="41.20332" lon="19.5369">
        <ele>51.085429</ele>
        <time>2022-05-03T12:31:57.663Z</time>
      </trkpt>
      <trkpt lat="41.20338" lon="19.53678">
        <ele>51.201979</ele>
        <time>2022-05-03T12:31:59.642Z</time>
      </trkpt>
      <trkpt lat="41.20344" lon="19.53667">
        <ele>51.318343</ele>
        <time>2022-05-03T12:32:01.614Z</time>
      </trkpt>
      <trkpt lat="41.2035" lon="19.53655">
        <ele>51.439054</ele>
        <time>2022-05-03T12:32:03.671Z</time>
      </trkpt>
      <trkpt lat="41.20356" lon="19.53644">
        <ele>51.55742</ele>
        <time>2022-05-03T12:32:05.644Z</time>
      </trkpt>
      <trkpt lat="41.20363" lon="19.53635">
        <ele>51.668566</ele>
        <time>2022-05-03T12:32:07.641Z</time>
      </trkpt>
      <trkpt lat="41.2037" lon="19.53625">
        <ele>51.780699</ele>
        <time>2022-05-03T12:32:09.650Z</time>
      </trkpt>
      <trkpt lat="41.20376" lon="19.53616">
        <ele>51.882733</ele>
        <time>2022-05-03T12:32:11.641Z</time>
      </trkpt>
      <trkpt lat="41.20386" lon="19.53608">
        <ele>52.019048</ele>
        <time>2022-05-03T12:32:14.723Z</time>
      </trkpt>
      <trkpt lat="41.20398" lon="19.53601">
        <ele>52.157252</ele>
        <time>2022-05-03T12:32:17.639Z</time>
      </trkpt>
      <trkpt lat="41.20404" lon="19.53592">
        <ele>52.260837</ele>
        <time>2022-05-03T12:32:19.650Z</time>
      </trkpt>
      <trkpt lat="41.2041" lon="19.53582">
        <ele>52.369514</ele>
        <time>2022-05-03T12:32:21.624Z</time>
      </trkpt>
      <trkpt lat="41.20419" lon="19.53574">
        <ele>52.485082</ele>
        <time>2022-05-03T12:32:23.646Z</time>
      </trkpt>
      <trkpt lat="41.20427" lon="19.53566">
        <ele>52.600794</ele>
        <time>2022-05-03T12:32:25.621Z</time>
      </trkpt>
      <trkpt lat="41.20436" lon="19.53559">
        <ele>52.721322</ele>
        <time>2022-05-03T12:32:27.638Z</time>
      </trkpt>
      <trkpt lat="41.20446" lon="19.53553">
        <ele>52.780954</ele>
        <time>2022-05-03T12:32:29.633Z</time>
      </trkpt>
      <trkpt lat="41.20456" lon="19.53547">
        <ele>52.780739</ele>
        <time>2022-05-03T12:32:31.678Z</time>
      </trkpt>
      <trkpt lat="41.20466" lon="19.53542">
        <ele>52.780531</ele>
        <time>2022-05-03T12:32:33.640Z</time>
      </trkpt>
      <trkpt lat="41.20476" lon="19.53536">
        <ele>52.780307</ele>
        <time>2022-05-03T12:32:35.627Z</time>
      </trkpt>
      <trkpt lat="41.20486" lon="19.53531">
        <ele>52.780089</ele>
        <time>2022-05-03T12:32:37.633Z</time>
      </trkpt>
      <trkpt lat="41.20496" lon="19.53526">
        <ele>52.779883</ele>
        <time>2022-05-03T12:32:39.663Z</time>
      </trkpt>
      <trkpt lat="41.20506" lon="19.53522">
        <ele>52.779683</ele>
        <time>2022-05-03T12:32:41.642Z</time>
      </trkpt>
      <trkpt lat="41.20516" lon="19.53517">
        <ele>52.779474</ele>
        <time>2022-05-03T12:32:43.632Z</time>
      </trkpt>
      <trkpt lat="41.20525" lon="19.53512">
        <ele>52.77927</ele>
        <time>2022-05-03T12:32:45.635Z</time>
      </trkpt>
      <trkpt lat="41.20534" lon="19.53508">
        <ele>52.779085</ele>
        <time>2022-05-03T12:32:47.638Z</time>
      </trkpt>
      <trkpt lat="41.20545" lon="19.53505">
        <ele>52.778851</ele>
        <time>2022-05-03T12:32:50.687Z</time>
      </trkpt>
      <trkpt lat="41.20556" lon="19.53505">
        <ele>52.778636</ele>
        <time>2022-05-03T12:32:53.646Z</time>
      </trkpt>
      <trkpt lat="41.20566" lon="19.53509">
        <ele>52.77843</ele>
        <time>2022-05-03T12:32:56.648Z</time>
      </trkpt>
      <trkpt lat="41.20575" lon="19.53512">
        <ele>52.778243</ele>
        <time>2022-05-03T12:32:59.635Z</time>
      </trkpt>
      <trkpt lat="41.20586" lon="19.53515">
        <ele>52.77803</ele>
        <time>2022-05-03T12:33:03.647Z</time>
      </trkpt>
      <trkpt lat="41.20596" lon="19.53513">
        <ele>52.777838</ele>
        <time>2022-05-03T12:33:07.624Z</time>
      </trkpt>
      <trkpt lat="41.20604" lon="19.53507">
        <ele>52.777637</ele>
        <time>2022-05-03T12:33:12.631Z</time>
      </trkpt>
      <trkpt lat="41.20612" lon="19.53496">
        <ele>52.808603</ele>
        <time>2022-05-03T12:33:17.629Z</time>
      </trkpt>
      <trkpt lat="41.20615" lon="19.53483">
        <ele>52.899366</ele>
        <time>2022-05-03T12:33:22.633Z</time>
      </trkpt>
      <trkpt lat="41.20615" lon="19.53471">
        <ele>52.979195</ele>
        <time>2022-05-03T12:33:27.624Z</time>
      </trkpt>
      <trkpt lat="41.20613" lon="19.53458">
        <ele>53.063141</ele>
        <time>2022-05-03T12:33:32.637Z</time>
      </trkpt>
      <trkpt lat="41.2061" lon="19.53444">
        <ele>53.158919</ele>
        <time>2022-05-03T12:33:37.624Z</time>
      </trkpt>
      <trkpt lat="41.20608" lon="19.53432">
        <ele>53.24646</ele>
        <time>2022-05-03T12:33:41.709Z</time>
      </trkpt>
      <trkpt lat="41.20604" lon="19.53416">
        <ele>53.353719</ele>
        <time>2022-05-03T12:33:45.642Z</time>
      </trkpt>
      <trkpt lat="41.20599" lon="19.53402">
        <ele>53.454968</ele>
        <time>2022-05-03T12:33:48.651Z</time>
      </trkpt>
      <trkpt lat="41.20592" lon="19.53387">
        <ele>53.570372</ele>
        <time>2022-05-03T12:33:51.673Z</time>
      </trkpt>
      <trkpt lat="41.20581" lon="19.53377">
        <ele>53.6851</ele>
        <time>2022-05-03T12:33:54.633Z</time>
      </trkpt>
      <trkpt lat="41.20572" lon="19.53373">
        <ele>53.773519</ele>
        <time>2022-05-03T12:33:56.635Z</time>
      </trkpt>
      <trkpt lat="41.20562" lon="19.53369">
        <ele>53.860969</ele>
        <time>2022-05-03T12:33:58.669Z</time>
      </trkpt>
      <trkpt lat="41.20553" lon="19.53363">
        <ele>53.947581</ele>
        <time>2022-05-03T12:34:00.644Z</time>
      </trkpt>
      <trkpt lat="41.20547" lon="19.53354">
        <ele>54.028963</ele>
        <time>2022-05-03T12:34:02.640Z</time>
      </trkpt>
      <trkpt lat="41.20547" lon="19.53342">
        <ele>54.109738</ele>
        <time>2022-05-03T12:34:04.656Z</time>
      </trkpt>
      <trkpt lat="41.20549" lon="19.53329">
        <ele>54.196965</ele>
        <time>2022-05-03T12:34:06.734Z</time>
      </trkpt>
      <trkpt lat="41.20554" lon="19.53319">
        <ele>54.277818</ele>
        <time>2022-05-03T12:34:08.618Z</time>
      </trkpt>
      <trkpt lat="41.20563" lon="19.53314">
        <ele>54.32018</ele>
        <time>2022-05-03T12:34:10.626Z</time>
      </trkpt>
      <trkpt lat="41.20575" lon="19.53312">
        <ele>53.993197</ele>
        <time>2022-05-03T12:34:12.633Z</time>
      </trkpt>
      <trkpt lat="41.20586" lon="19.53318">
        <ele>53.6642</ele>
        <time>2022-05-03T12:34:14.648Z</time>
      </trkpt>
      <trkpt lat="41.20593" lon="19.53327">
        <ele>53.363481</ele>
        <time>2022-05-03T12:34:16.643Z</time>
      </trkpt>
      <trkpt lat="41.20598" lon="19.5334">
        <ele>53.068638</ele>
        <time>2022-05-03T12:34:18.635Z</time>
      </trkpt>
      <trkpt lat="41.206" lon="19.53353">
        <ele>52.773447</ele>
        <time>2022-05-03T12:34:20.630Z</time>
      </trkpt>
      <trkpt lat="41.20602" lon="19.53367">
        <ele>52.483632</ele>
        <time>2022-05-03T12:34:22.631Z</time>
      </trkpt>
      <trkpt lat="41.20606" lon="19.53381">
        <ele>52.163803</ele>
        <time>2022-05-03T12:34:24.630Z</time>
      </trkpt>
      <trkpt lat="41.2061" lon="19.53396">
        <ele>51.826411</ele>
        <time>2022-05-03T12:34:26.672Z</time>
      </trkpt>
      <trkpt lat="41.20617" lon="19.53409">
        <ele>51.49372</ele>
        <time>2022-05-03T12:34:28.633Z</time>
      </trkpt>
      <trkpt lat="41.20625" lon="19.53418">
        <ele>51.186545</ele>
        <time>2022-05-03T12:34:30.635Z</time>
      </trkpt>
      <trkpt lat="41.20637" lon="19.53422">
        <ele>50.837972</ele>
        <time>2022-05-03T12:34:32.673Z</time>
      </trkpt>
      <trkpt lat="41.20648" lon="19.53422">
        <ele>50.514799</ele>
        <time>2022-05-03T12:34:34.627Z</time>
      </trkpt>
      <trkpt lat="41.20659" lon="19.53422">
        <ele>50.216677</ele>
        <time>2022-05-03T12:34:36.640Z</time>
      </trkpt>
      <trkpt lat="41.20669" lon="19.5342">
        <ele>49.928095</ele>
        <time>2022-05-03T12:34:38.675Z</time>
      </trkpt>
      <trkpt lat="41.20679" lon="19.53418">
        <ele>49.651588</ele>
        <time>2022-05-03T12:34:40.649Z</time>
      </trkpt>
      <trkpt lat="41.20688" lon="19.53415">
        <ele>49.37151</ele>
        <time>2022-05-03T12:34:42.637Z</time>
      </trkpt>
      <trkpt lat="41.20698" lon="19.53412">
        <ele>49.189986</ele>
        <time>2022-05-03T12:34:44.628Z</time>
      </trkpt>
      <trkpt lat="41.20709" lon="19.53409">
        <ele>49.076206</ele>
        <time>2022-05-03T12:34:46.628Z</time>
      </trkpt>
      <trkpt lat="41.20719" lon="19.53406">
        <ele>48.962425</ele>
        <time>2022-05-03T12:34:48.636Z</time>
      </trkpt>
      <trkpt lat="41.2073" lon="19.53404">
        <ele>48.84793</ele>
        <time>2022-05-03T12:34:50.637Z</time>
      </trkpt>
      <trkpt lat="41.2074" lon="19.53401">
        <ele>48.734921</ele>
        <time>2022-05-03T12:34:52.651Z</time>
      </trkpt>
      <trkpt lat="41.20751" lon="19.53399">
        <ele>48.626492</ele>
        <time>2022-05-03T12:34:54.636Z</time>
      </trkpt>
      <trkpt lat="41.20761" lon="19.53397">
        <ele>48.514925</ele>
        <time>2022-05-03T12:34:56.636Z</time>
      </trkpt>
      <trkpt lat="41.20771" lon="19.53394">
        <ele>48.40727</ele>
        <time>2022-05-03T12:34:58.651Z</time>
      </trkpt>
      <trkpt lat="41.20781" lon="19.53392">
        <ele>48.300797</ele>
        <time>2022-05-03T12:35:00.646Z</time>
      </trkpt>
      <trkpt lat="41.20791" lon="19.5339">
        <ele>48.190012</ele>
        <time>2022-05-03T12:35:02.628Z</time>
      </trkpt>
      <trkpt lat="41.20801" lon="19.53387">
        <ele>48.084294</ele>
        <time>2022-05-03T12:35:04.637Z</time>
      </trkpt>
      <trkpt lat="41.20811" lon="19.53385">
        <ele>47.977535</ele>
        <time>2022-05-03T12:35:06.700Z</time>
      </trkpt>
      <trkpt lat="41.2082" lon="19.53382">
        <ele>47.87493</ele>
        <time>2022-05-03T12:35:08.646Z</time>
      </trkpt>
      <trkpt lat="41.20829" lon="19.53378">
        <ele>47.775407</ele>
        <time>2022-05-03T12:35:10.627Z</time>
      </trkpt>
      <trkpt lat="41.20839" lon="19.53375">
        <ele>47.666248</ele>
        <time>2022-05-03T12:35:12.632Z</time>
      </trkpt>
      <trkpt lat="41.20849" lon="19.53372">
        <ele>47.559525</ele>
        <time>2022-05-03T12:35:14.639Z</time>
      </trkpt>
      <trkpt lat="41.20859" lon="19.53369">
        <ele>47.453644</ele>
        <time>2022-05-03T12:35:16.638Z</time>
      </trkpt>
      <trkpt lat="41.20869" lon="19.53366">
        <ele>47.350211</ele>
        <time>2022-05-03T12:35:18.625Z</time>
      </trkpt>
      <trkpt lat="41.20879" lon="19.53363">
        <ele>47.345032</ele>
        <time>2022-05-03T12:35:20.655Z</time>
      </trkpt>
      <trkpt lat="41.20888" lon="19.53359">
        <ele>47.33984</ele>
        <time>2022-05-03T12:35:22.633Z</time>
      </trkpt>
      <trkpt lat="41.20898" lon="19.53355">
        <ele>47.334582</ele>
        <time>2022-05-03T12:35:24.646Z</time>
      </trkpt>
      <trkpt lat="41.20908" lon="19.53351">
        <ele>47.32954</ele>
        <time>2022-05-03T12:35:26.634Z</time>
      </trkpt>
      <trkpt lat="41.20918" lon="19.53347">
        <ele>47.324373</ele>
        <time>2022-05-03T12:35:28.626Z</time>
      </trkpt>
      <trkpt lat="41.20927" lon="19.53343">
        <ele>47.31923</ele>
        <time>2022-05-03T12:35:30.634Z</time>
      </trkpt>
      <trkpt lat="41.20937" lon="19.53339">
        <ele>47.314183</ele>
        <time>2022-05-03T12:35:32.632Z</time>
      </trkpt>
      <trkpt lat="41.20947" lon="19.53334">
        <ele>47.308944</ele>
        <time>2022-05-03T12:35:34.639Z</time>
      </trkpt>
      <trkpt lat="41.20956" lon="19.5333">
        <ele>47.303788</ele>
        <time>2022-05-03T12:35:36.638Z</time>
      </trkpt>
      <trkpt lat="41.20966" lon="19.53326">
        <ele>47.298521</ele>
        <time>2022-05-03T12:35:38.623Z</time>
      </trkpt>
      <trkpt lat="41.20977" lon="19.53322">
        <ele>47.293123</ele>
        <time>2022-05-03T12:35:40.653Z</time>
      </trkpt>
      <trkpt lat="41.20987" lon="19.53318">
        <ele>47.287618</ele>
        <time>2022-05-03T12:35:42.655Z</time>
      </trkpt>
      <trkpt lat="41.20997" lon="19.53314">
        <ele>47.282232</ele>
        <time>2022-05-03T12:35:44.626Z</time>
      </trkpt>
      <trkpt lat="41.21007" lon="19.5331">
        <ele>47.276872</ele>
        <time>2022-05-03T12:35:46.620Z</time>
      </trkpt>
      <trkpt lat="41.21018" lon="19.53305">
        <ele>47.271356</ele>
        <time>2022-05-03T12:35:48.636Z</time>
      </trkpt>
      <trkpt lat="41.21028" lon="19.53301">
        <ele>47.265876</ele>
        <time>2022-05-03T12:35:50.632Z</time>
      </trkpt>
      <trkpt lat="41.21038" lon="19.53297">
        <ele>47.260479</ele>
        <time>2022-05-03T12:35:52.646Z</time>
      </trkpt>
      <trkpt lat="41.21049" lon="19.53292">
        <ele>47.206895</ele>
        <time>2022-05-03T12:35:54.636Z</time>
      </trkpt>
      <trkpt lat="41.21059" lon="19.53288">
        <ele>47.14327</ele>
        <time>2022-05-03T12:35:56.648Z</time>
      </trkpt>
      <trkpt lat="41.21069" lon="19.53284">
        <ele>47.079787</ele>
        <time>2022-05-03T12:35:58.648Z</time>
      </trkpt>
      <trkpt lat="41.21079" lon="19.53279">
        <ele>47.014598</ele>
        <time>2022-05-03T12:36:00.636Z</time>
      </trkpt>
      <trkpt lat="41.21089" lon="19.53275">
        <ele>46.950684</ele>
        <time>2022-05-03T12:36:02.635Z</time>
      </trkpt>
      <trkpt lat="41.211" lon="19.53271">
        <ele>46.886141</ele>
        <time>2022-05-03T12:36:04.634Z</time>
      </trkpt>
      <trkpt lat="41.2111" lon="19.53267">
        <ele>46.824776</ele>
        <time>2022-05-03T12:36:06.639Z</time>
      </trkpt>
      <trkpt lat="41.2112" lon="19.53263">
        <ele>46.761567</ele>
        <time>2022-05-03T12:36:08.681Z</time>
      </trkpt>
      <trkpt lat="41.2113" lon="19.53259">
        <ele>46.697346</ele>
        <time>2022-05-03T12:36:10.627Z</time>
      </trkpt>
      <trkpt lat="41.2114" lon="19.53254">
        <ele>46.634137</ele>
        <time>2022-05-03T12:36:12.652Z</time>
      </trkpt>
      <trkpt lat="41.2115" lon="19.5325">
        <ele>46.570357</ele>
        <time>2022-05-03T12:36:14.640Z</time>
      </trkpt>
      <trkpt lat="41.21161" lon="19.53246">
        <ele>46.505738</ele>
        <time>2022-05-03T12:36:16.654Z</time>
      </trkpt>
      <trkpt lat="41.21171" lon="19.53241">
        <ele>46.440549</ele>
        <time>2022-05-03T12:36:18.634Z</time>
      </trkpt>
      <trkpt lat="41.21181" lon="19.53237">
        <ele>46.377204</ele>
        <time>2022-05-03T12:36:20.636Z</time>
      </trkpt>
      <trkpt lat="41.21191" lon="19.53233">
        <ele>46.31272</ele>
        <time>2022-05-03T12:36:22.627Z</time>
      </trkpt>
      <trkpt lat="41.21201" lon="19.53228">
        <ele>46.249662</ele>
        <time>2022-05-03T12:36:24.639Z</time>
      </trkpt>
      <trkpt lat="41.21211" lon="19.53224">
        <ele>46.189863</ele>
        <time>2022-05-03T12:36:26.628Z</time>
      </trkpt>
      <trkpt lat="41.21221" lon="19.5322">
        <ele>46.301727</ele>
        <time>2022-05-03T12:36:28.639Z</time>
      </trkpt>
      <trkpt lat="41.2123" lon="19.53216">
        <ele>46.42543</ele>
        <time>2022-05-03T12:36:30.681Z</time>
      </trkpt>
      <trkpt lat="41.2124" lon="19.53213">
        <ele>46.550598</ele>
        <time>2022-05-03T12:36:32.630Z</time>
      </trkpt>
      <trkpt lat="41.21249" lon="19.53209">
        <ele>46.672583</ele>
        <time>2022-05-03T12:36:34.650Z</time>
      </trkpt>
      <trkpt lat="41.21259" lon="19.53205">
        <ele>46.799775</ele>
        <time>2022-05-03T12:36:36.655Z</time>
      </trkpt>
      <trkpt lat="41.21269" lon="19.53201">
        <ele>46.927255</ele>
        <time>2022-05-03T12:36:38.636Z</time>
      </trkpt>
      <trkpt lat="41.21278" lon="19.53197">
        <ele>47.055924</ele>
        <time>2022-05-03T12:36:40.633Z</time>
      </trkpt>
      <trkpt lat="41.21288" lon="19.53193">
        <ele>47.182835</ele>
        <time>2022-05-03T12:36:42.632Z</time>
      </trkpt>
      <trkpt lat="41.21298" lon="19.53189">
        <ele>47.310667</ele>
        <time>2022-05-03T12:36:44.642Z</time>
      </trkpt>
      <trkpt lat="41.21308" lon="19.53185">
        <ele>47.442094</ele>
        <time>2022-05-03T12:36:46.670Z</time>
      </trkpt>
      <trkpt lat="41.21318" lon="19.53181">
        <ele>47.57259</ele>
        <time>2022-05-03T12:36:48.643Z</time>
      </trkpt>
      <trkpt lat="41.21328" lon="19.53177">
        <ele>47.699501</ele>
        <time>2022-05-03T12:36:50.698Z</time>
      </trkpt>
      <trkpt lat="41.21337" lon="19.53172">
        <ele>47.823725</ele>
        <time>2022-05-03T12:36:52.627Z</time>
      </trkpt>
      <trkpt lat="41.21347" lon="19.53168">
        <ele>47.949727</ele>
        <time>2022-05-03T12:36:54.679Z</time>
      </trkpt>
      <trkpt lat="41.21356" lon="19.53164">
        <ele>48.074833</ele>
        <time>2022-05-03T12:36:56.644Z</time>
      </trkpt>
      <trkpt lat="41.21365" lon="19.5316">
        <ele>48.188819</ele>
        <time>2022-05-03T12:36:58.636Z</time>
      </trkpt>
      <trkpt lat="41.21375" lon="19.53154">
        <ele>48.327177</ele>
        <time>2022-05-03T12:37:01.639Z</time>
      </trkpt>
      <trkpt lat="41.21379" lon="19.53143">
        <ele>48.430817</ele>
        <time>2022-05-03T12:37:04.682Z</time>
      </trkpt>
      <trkpt lat="41.21375" lon="19.53127">
        <ele>48.403562</ele>
        <time>2022-05-03T12:37:07.646Z</time>
      </trkpt>
      <trkpt lat="41.21371" lon="19.53111">
        <ele>48.377675</ele>
        <time>2022-05-03T12:37:10.641Z</time>
      </trkpt>
      <trkpt lat="41.21375" lon="19.53097">
        <ele>48.3549</ele>
        <time>2022-05-03T12:37:13.639Z</time>
      </trkpt>
      <trkpt lat="41.21386" lon="19.53089">
        <ele>48.329816</ele>
        <time>2022-05-03T12:37:16.634Z</time>
      </trkpt>
      <trkpt lat="41.21395" lon="19.5308">
        <ele>48.306559</ele>
        <time>2022-05-03T12:37:20.638Z</time>
      </trkpt>
      <trkpt lat="41.21405" lon="19.53071">
        <ele>48.282189</ele>
        <time>2022-05-03T12:37:24.633Z</time>
      </trkpt>
      <trkpt lat="41.21414" lon="19.53064">
        <ele>48.2607</ele>
        <time>2022-05-03T12:37:27.629Z</time>
      </trkpt>
      <trkpt lat="41.21424" lon="19.53055">
        <ele>48.235818</ele>
        <time>2022-05-03T12:37:30.662Z</time>
      </trkpt>
      <trkpt lat="41.21431" lon="19.53049">
        <ele>48.217093</ele>
        <time>2022-05-03T12:37:32.640Z</time>
      </trkpt>
      <trkpt lat="41.21439" lon="19.53042">
        <ele>48.198276</ele>
        <time>2022-05-03T12:37:34.667Z</time>
      </trkpt>
      <trkpt lat="41.21447" lon="19.53035">
        <ele>48.178867</ele>
        <time>2022-05-03T12:37:36.632Z</time>
      </trkpt>
      <trkpt lat="41.21455" lon="19.53028">
        <ele>48.158576</ele>
        <time>2022-05-03T12:37:38.619Z</time>
      </trkpt>
      <trkpt lat="41.21464" lon="19.53021">
        <ele>48.137904</ele>
        <time>2022-05-03T12:37:40.651Z</time>
      </trkpt>
      <trkpt lat="41.21473" lon="19.53015">
        <ele>48.117454</ele>
        <time>2022-05-03T12:37:42.642Z</time>
      </trkpt>
      <trkpt lat="41.21481" lon="19.53008">
        <ele>48.098458</ele>
        <time>2022-05-03T12:37:44.624Z</time>
      </trkpt>
      <trkpt lat="41.21491" lon="19.53">
        <ele>48.07251</ele>
        <time>2022-05-03T12:37:47.642Z</time>
      </trkpt>
      <trkpt lat="41.21501" lon="19.52991">
        <ele>48.054657</ele>
        <time>2022-05-03T12:37:51.626Z</time>
      </trkpt>
      <trkpt lat="41.2151" lon="19.52983">
        <ele>48.040994</ele>
        <time>2022-05-03T12:37:54.640Z</time>
      </trkpt>
      <trkpt lat="41.21521" lon="19.52975">
        <ele>48.025661</ele>
        <time>2022-05-03T12:37:57.639Z</time>
      </trkpt>
      <trkpt lat="41.21533" lon="19.52965">
        <ele>48.008923</ele>
        <time>2022-05-03T12:38:00.640Z</time>
      </trkpt>
      <trkpt lat="41.2154" lon="19.52959">
        <ele>47.997438</ele>
        <time>2022-05-03T12:38:02.628Z</time>
      </trkpt>
      <trkpt lat="41.21548" lon="19.52952">
        <ele>47.986005</ele>
        <time>2022-05-03T12:38:04.638Z</time>
      </trkpt>
      <trkpt lat="41.21556" lon="19.52945">
        <ele>47.974725</ele>
        <time>2022-05-03T12:38:06.639Z</time>
      </trkpt>
      <trkpt lat="41.21564" lon="19.52938">
        <ele>47.963027</ele>
        <time>2022-05-03T12:38:08.620Z</time>
      </trkpt>
      <trkpt lat="41.21572" lon="19.52931">
        <ele>47.951336</ele>
        <time>2022-05-03T12:38:10.638Z</time>
      </trkpt>
      <trkpt lat="41.2158" lon="19.52925">
        <ele>47.94004</ele>
        <time>2022-05-03T12:38:12.648Z</time>
      </trkpt>
      <trkpt lat="41.21591" lon="19.52916">
        <ele>47.923835</ele>
        <time>2022-05-03T12:38:15.636Z</time>
      </trkpt>
      <trkpt lat="41.21599" lon="19.52909">
        <ele>47.912604</ele>
        <time>2022-05-03T12:38:17.631Z</time>
      </trkpt>
      <trkpt lat="41.21606" lon="19.52903">
        <ele>47.901508</ele>
        <time>2022-05-03T12:38:19.630Z</time>
      </trkpt>
      <trkpt lat="41.21618" lon="19.52894">
        <ele>47.884911</ele>
        <time>2022-05-03T12:38:22.627Z</time>
      </trkpt>
      <trkpt lat="41.21628" lon="19.52887">
        <ele>47.870315</ele>
        <time>2022-05-03T12:38:25.615Z</time>
      </trkpt>
      <trkpt lat="41.21637" lon="19.5288">
        <ele>47.857955</ele>
        <time>2022-05-03T12:38:28.639Z</time>
      </trkpt>
      <trkpt lat="41.21646" lon="19.52873">
        <ele>47.84501</ele>
        <time>2022-05-03T12:38:31.670Z</time>
      </trkpt>
      <trkpt lat="41.21656" lon="19.52864">
        <ele>47.911059</ele>
        <time>2022-05-03T12:38:34.634Z</time>
      </trkpt>
      <trkpt lat="41.21667" lon="19.52855">
        <ele>48.01237</ele>
        <time>2022-05-03T12:38:37.680Z</time>
      </trkpt>
      <trkpt lat="41.21678" lon="19.52845">
        <ele>48.114284</ele>
        <time>2022-05-03T12:38:40.620Z</time>
      </trkpt>
      <trkpt lat="41.21689" lon="19.52835">
        <ele>48.219103</ele>
        <time>2022-05-03T12:38:43.631Z</time>
      </trkpt>
      <trkpt lat="41.21701" lon="19.52827">
        <ele>48.324007</ele>
        <time>2022-05-03T12:38:46.638Z</time>
      </trkpt>
      <trkpt lat="41.21709" lon="19.5282">
        <ele>48.394966</ele>
        <time>2022-05-03T12:38:48.647Z</time>
      </trkpt>
      <trkpt lat="41.21716" lon="19.52814">
        <ele>48.4653</ele>
        <time>2022-05-03T12:38:50.635Z</time>
      </trkpt>
      <trkpt lat="41.21724" lon="19.52807">
        <ele>48.536951</ele>
        <time>2022-05-03T12:38:52.627Z</time>
      </trkpt>
      <trkpt lat="41.21735" lon="19.52798">
        <ele>48.635984</ele>
        <time>2022-05-03T12:38:55.625Z</time>
      </trkpt>
      <trkpt lat="41.21746" lon="19.5279">
        <ele>48.736098</ele>
        <time>2022-05-03T12:38:58.630Z</time>
      </trkpt>
      <trkpt lat="41.21754" lon="19.52783">
        <ele>48.810607</ele>
        <time>2022-05-03T12:39:00.641Z</time>
      </trkpt>
      <trkpt lat="41.21762" lon="19.52777">
        <ele>48.881598</ele>
        <time>2022-05-03T12:39:02.636Z</time>
      </trkpt>
      <trkpt lat="41.2177" lon="19.52771">
        <ele>48.951625</ele>
        <time>2022-05-03T12:39:04.630Z</time>
      </trkpt>
      <trkpt lat="41.21779" lon="19.52763">
        <ele>49.030967</ele>
        <time>2022-05-03T12:39:07.642Z</time>
      </trkpt>
      <trkpt lat="41.21787" lon="19.52756">
        <ele>49.105466</ele>
        <time>2022-05-03T12:39:10.679Z</time>
      </trkpt>
      <trkpt lat="41.21795" lon="19.52748">
        <ele>49.18676</ele>
        <time>2022-05-03T12:39:13.638Z</time>
      </trkpt>
      <trkpt lat="41.21805" lon="19.52739">
        <ele>49.223922</ele>
        <time>2022-05-03T12:39:16.675Z</time>
      </trkpt>
      <trkpt lat="41.21813" lon="19.52733">
        <ele>49.204406</ele>
        <time>2022-05-03T12:39:18.635Z</time>
      </trkpt>
      <trkpt lat="41.21821" lon="19.52726">
        <ele>49.185678</ele>
        <time>2022-05-03T12:39:20.634Z</time>
      </trkpt>
      <trkpt lat="41.21828" lon="19.5272">
        <ele>49.167199</ele>
        <time>2022-05-03T12:39:22.622Z</time>
      </trkpt>
      <trkpt lat="41.21837" lon="19.52714">
        <ele>49.148058</ele>
        <time>2022-05-03T12:39:24.631Z</time>
      </trkpt>
      <trkpt lat="41.21845" lon="19.52707">
        <ele>49.128731</ele>
        <time>2022-05-03T12:39:26.631Z</time>
      </trkpt>
      <trkpt lat="41.21853" lon="19.527">
        <ele>49.109483</ele>
        <time>2022-05-03T12:39:28.647Z</time>
      </trkpt>
      <trkpt lat="41.21861" lon="19.52694">
        <ele>49.090156</ele>
        <time>2022-05-03T12:39:30.632Z</time>
      </trkpt>
      <trkpt lat="41.21869" lon="19.52687">
        <ele>49.071413</ele>
        <time>2022-05-03T12:39:32.608Z</time>
      </trkpt>
      <trkpt lat="41.21877" lon="19.5268">
        <ele>49.052429</ele>
        <time>2022-05-03T12:39:34.633Z</time>
      </trkpt>
      <trkpt lat="41.21884" lon="19.52673">
        <ele>49.03385</ele>
        <time>2022-05-03T12:39:36.635Z</time>
      </trkpt>
      <trkpt lat="41.21896" lon="19.52663">
        <ele>49.006433</ele>
        <time>2022-05-03T12:39:39.672Z</time>
      </trkpt>
      <trkpt lat="41.21904" lon="19.52657">
        <ele>48.986756</ele>
        <time>2022-05-03T12:39:41.638Z</time>
      </trkpt>
      <trkpt lat="41.21915" lon="19.52648">
        <ele>48.960242</ele>
        <time>2022-05-03T12:39:44.627Z</time>
      </trkpt>
      <trkpt lat="41.21925" lon="19.5264">
        <ele>48.936424</ele>
        <time>2022-05-03T12:39:47.637Z</time>
      </trkpt>
      <trkpt lat="41.21936" lon="19.52631">
        <ele>48.909933</ele>
        <time>2022-05-03T12:39:50.621Z</time>
      </trkpt>
      <trkpt lat="41.21947" lon="19.52621">
        <ele>48.883434</ele>
        <time>2022-05-03T12:39:53.628Z</time>
      </trkpt>
      <trkpt lat="41.21955" lon="19.52614">
        <ele>48.840456</ele>
        <time>2022-05-03T12:39:55.630Z</time>
      </trkpt>
      <trkpt lat="41.21963" lon="19.52608">
        <ele>48.743251</ele>
        <time>2022-05-03T12:39:57.670Z</time>
      </trkpt>
      <trkpt lat="41.21971" lon="19.52601">
        <ele>48.643136</ele>
        <time>2022-05-03T12:39:59.652Z</time>
      </trkpt>
      <trkpt lat="41.21979" lon="19.52594">
        <ele>48.539023</ele>
        <time>2022-05-03T12:40:01.630Z</time>
      </trkpt>
      <trkpt lat="41.21987" lon="19.52587">
        <ele>48.432684</ele>
        <time>2022-05-03T12:40:03.623Z</time>
      </trkpt>
      <trkpt lat="41.21995" lon="19.5258">
        <ele>48.333476</ele>
        <time>2022-05-03T12:40:05.630Z</time>
      </trkpt>
      <trkpt lat="41.22002" lon="19.52573">
        <ele>48.234714</ele>
        <time>2022-05-03T12:40:07.623Z</time>
      </trkpt>
      <trkpt lat="41.2201" lon="19.52566">
        <ele>48.132791</ele>
        <time>2022-05-03T12:40:09.635Z</time>
      </trkpt>
      <trkpt lat="41.22018" lon="19.52559">
        <ele>48.029125</ele>
        <time>2022-05-03T12:40:11.628Z</time>
      </trkpt>
      <trkpt lat="41.22027" lon="19.52553">
        <ele>47.927625</ele>
        <time>2022-05-03T12:40:13.637Z</time>
      </trkpt>
      <trkpt lat="41.22035" lon="19.52547">
        <ele>47.821963</ele>
        <time>2022-05-03T12:40:16.635Z</time>
      </trkpt>
      <trkpt lat="41.22043" lon="19.5254">
        <ele>47.720464</ele>
        <time>2022-05-03T12:40:19.632Z</time>
      </trkpt>
      <trkpt lat="41.22052" lon="19.52532">
        <ele>47.602979</ele>
        <time>2022-05-03T12:40:22.636Z</time>
      </trkpt>
      <trkpt lat="41.22063" lon="19.52522">
        <ele>47.466321</ele>
        <time>2022-05-03T12:40:25.687Z</time>
      </trkpt>
      <trkpt lat="41.22074" lon="19.52512">
        <ele>47.324402</ele>
        <time>2022-05-03T12:40:28.658Z</time>
      </trkpt>
      <trkpt lat="41.22082" lon="19.52505">
        <ele>47.224742</ele>
        <time>2022-05-03T12:40:30.633Z</time>
      </trkpt>
      <trkpt lat="41.22089" lon="19.52498">
        <ele>47.12598</ele>
        <time>2022-05-03T12:40:32.622Z</time>
      </trkpt>
      <trkpt lat="41.22097" lon="19.52491">
        <ele>47.027613</ele>
        <time>2022-05-03T12:40:34.650Z</time>
      </trkpt>
      <trkpt lat="41.22104" lon="19.52484">
        <ele>46.955968</ele>
        <time>2022-05-03T12:40:36.635Z</time>
      </trkpt>
      <trkpt lat="41.22115" lon="19.52474">
        <ele>47.008817</ele>
        <time>2022-05-03T12:40:39.626Z</time>
      </trkpt>
      <trkpt lat="41.22123" lon="19.52467">
        <ele>47.044583</ele>
        <time>2022-05-03T12:40:41.621Z</time>
      </trkpt>
      <trkpt lat="41.22131" lon="19.52462">
        <ele>47.08016</ele>
        <time>2022-05-03T12:40:43.627Z</time>
      </trkpt>
      <trkpt lat="41.22144" lon="19.52455">
        <ele>47.131584</ele>
        <time>2022-05-03T12:40:46.645Z</time>
      </trkpt>
      <trkpt lat="41.22156" lon="19.52448">
        <ele>47.183832</ele>
        <time>2022-05-03T12:40:49.634Z</time>
      </trkpt>
      <trkpt lat="41.22168" lon="19.52441">
        <ele>47.235113</ele>
        <time>2022-05-03T12:40:52.634Z</time>
      </trkpt>
      <trkpt lat="41.22179" lon="19.52434">
        <ele>47.282374</ele>
        <time>2022-05-03T12:40:55.627Z</time>
      </trkpt>
      <trkpt lat="41.22188" lon="19.52428">
        <ele>47.322959</ele>
        <time>2022-05-03T12:40:58.627Z</time>
      </trkpt>
      <trkpt lat="41.22199" lon="19.52422">
        <ele>47.370721</ele>
        <time>2022-05-03T12:41:01.625Z</time>
      </trkpt>
      <trkpt lat="41.22211" lon="19.52415">
        <ele>47.421062</ele>
        <time>2022-05-03T12:41:04.636Z</time>
      </trkpt>
      <trkpt lat="41.2222" lon="19.5241">
        <ele>47.457139</ele>
        <time>2022-05-03T12:41:06.627Z</time>
      </trkpt>
      <trkpt lat="41.22228" lon="19.52405">
        <ele>47.493222</ele>
        <time>2022-05-03T12:41:08.642Z</time>
      </trkpt>
      <trkpt lat="41.2224" lon="19.52399">
        <ele>47.544397</ele>
        <time>2022-05-03T12:41:11.633Z</time>
      </trkpt>
      <trkpt lat="41.22252" lon="19.52391">
        <ele>47.596511</ele>
        <time>2022-05-03T12:41:14.628Z</time>
      </trkpt>
      <trkpt lat="41.22265" lon="19.52385">
        <ele>47.648131</ele>
        <time>2022-05-03T12:41:17.625Z</time>
      </trkpt>
      <trkpt lat="41.22273" lon="19.5238">
        <ele>47.557365</ele>
        <time>2022-05-03T12:41:19.634Z</time>
      </trkpt>
      <trkpt lat="41.22281" lon="19.52374">
        <ele>47.45139</ele>
        <time>2022-05-03T12:41:21.635Z</time>
      </trkpt>
      <trkpt lat="41.22293" lon="19.52366">
        <ele>47.301162</ele>
        <time>2022-05-03T12:41:24.644Z</time>
      </trkpt>
      <trkpt lat="41.22302" lon="19.52361">
        <ele>47.196438</ele>
        <time>2022-05-03T12:41:26.635Z</time>
      </trkpt>
      <trkpt lat="41.2231" lon="19.52356">
        <ele>47.094122</ele>
        <time>2022-05-03T12:41:28.616Z</time>
      </trkpt>
      <trkpt lat="41.22318" lon="19.52351">
        <ele>46.991442</ele>
        <time>2022-05-03T12:41:30.637Z</time>
      </trkpt>
      <trkpt lat="41.22327" lon="19.52345">
        <ele>46.878772</ele>
        <time>2022-05-03T12:41:32.646Z</time>
      </trkpt>
      <trkpt lat="41.22336" lon="19.5234">
        <ele>46.770256</ele>
        <time>2022-05-03T12:41:34.632Z</time>
      </trkpt>
      <trkpt lat="41.22345" lon="19.52335">
        <ele>46.659683</ele>
        <time>2022-05-03T12:41:36.626Z</time>
      </trkpt>
      <trkpt lat="41.22354" lon="19.52329">
        <ele>46.548775</ele>
        <time>2022-05-03T12:41:38.686Z</time>
      </trkpt>
      <trkpt lat="41.22362" lon="19.52323">
        <ele>46.438394</ele>
        <time>2022-05-03T12:41:40.638Z</time>
      </trkpt>
      <trkpt lat="41.22371" lon="19.52317">
        <ele>46.328229</ele>
        <time>2022-05-03T12:41:42.652Z</time>
      </trkpt>
      <trkpt lat="41.22379" lon="19.52311">
        <ele>46.221043</ele>
        <time>2022-05-03T12:41:44.640Z</time>
      </trkpt>
      <trkpt lat="41.22387" lon="19.52305">
        <ele>46.115665</ele>
        <time>2022-05-03T12:41:46.636Z</time>
      </trkpt>
      <trkpt lat="41.22398" lon="19.52298">
        <ele>45.98654</ele>
        <time>2022-05-03T12:41:49.638Z</time>
      </trkpt>
      <trkpt lat="41.22408" lon="19.52291">
        <ele>45.853813</ele>
        <time>2022-05-03T12:41:53.650Z</time>
      </trkpt>
      <trkpt lat="41.22417" lon="19.52284">
        <ele>45.733669</ele>
        <time>2022-05-03T12:41:56.639Z</time>
      </trkpt>
      <trkpt lat="41.22428" lon="19.52277">
        <ele>45.6255</ele>
        <time>2022-05-03T12:41:59.634Z</time>
      </trkpt>
      <trkpt lat="41.22439" lon="19.5227">
        <ele>45.66524</ele>
        <time>2022-05-03T12:42:02.657Z</time>
      </trkpt>
      <trkpt lat="41.2245" lon="19.52263">
        <ele>45.706507</ele>
        <time>2022-05-03T12:42:05.632Z</time>
      </trkpt>
      <trkpt lat="41.22457" lon="19.52257">
        <ele>45.737488</ele>
        <time>2022-05-03T12:42:07.640Z</time>
      </trkpt>
      <trkpt lat="41.22465" lon="19.52251">
        <ele>45.768378</ele>
        <time>2022-05-03T12:42:09.638Z</time>
      </trkpt>
      <trkpt lat="41.22477" lon="19.52242">
        <ele>45.813831</ele>
        <time>2022-05-03T12:42:12.646Z</time>
      </trkpt>
      <trkpt lat="41.22485" lon="19.52237">
        <ele>45.844802</ele>
        <time>2022-05-03T12:42:14.617Z</time>
      </trkpt>
      <trkpt lat="41.22494" lon="19.52232">
        <ele>45.876082</ele>
        <time>2022-05-03T12:42:16.639Z</time>
      </trkpt>
      <trkpt lat="41.22502" lon="19.52227">
        <ele>45.908706</ele>
        <time>2022-05-03T12:42:18.620Z</time>
      </trkpt>
      <trkpt lat="41.22511" lon="19.52222">
        <ele>45.940604</ele>
        <time>2022-05-03T12:42:20.635Z</time>
      </trkpt>
      <trkpt lat="41.22522" lon="19.52215">
        <ele>45.983722</ele>
        <time>2022-05-03T12:42:23.636Z</time>
      </trkpt>
      <trkpt lat="41.22528" lon="19.52204">
        <ele>46.01653</ele>
        <time>2022-05-03T12:42:26.625Z</time>
      </trkpt>
      <trkpt lat="41.22526" lon="19.52192">
        <ele>46.049548</ele>
        <time>2022-05-03T12:42:29.644Z</time>
      </trkpt>
      <trkpt lat="41.22522" lon="19.5218">
        <ele>46.081408</ele>
        <time>2022-05-03T12:42:32.617Z</time>
      </trkpt>
      <trkpt lat="41.22516" lon="19.52164">
        <ele>46.127412</ele>
        <time>2022-05-03T12:42:35.667Z</time>
      </trkpt>
      <trkpt lat="41.22513" lon="19.52152">
        <ele>46.160173</ele>
        <time>2022-05-03T12:42:37.693Z</time>
      </trkpt>
      <trkpt lat="41.22511" lon="19.52138">
        <ele>46.196282</ele>
        <time>2022-05-03T12:42:39.633Z</time>
      </trkpt>
      <trkpt lat="41.2251" lon="19.52123">
        <ele>46.228323</ele>
        <time>2022-05-03T12:42:41.636Z</time>
      </trkpt>
      <trkpt lat="41.2251" lon="19.52107">
        <ele>46.198863</ele>
        <time>2022-05-03T12:42:43.634Z</time>
      </trkpt>
      <trkpt lat="41.2251" lon="19.52092">
        <ele>46.170012</ele>
        <time>2022-05-03T12:42:45.619Z</time>
      </trkpt>
      <trkpt lat="41.22509" lon="19.52077">
        <ele>46.142101</ele>
        <time>2022-05-03T12:42:47.630Z</time>
      </trkpt>
      <trkpt lat="41.22509" lon="19.52063">
        <ele>46.115296</ele>
        <time>2022-05-03T12:42:49.642Z</time>
      </trkpt>
      <trkpt lat="41.22509" lon="19.52049">
        <ele>46.089248</ele>
        <time>2022-05-03T12:42:51.635Z</time>
      </trkpt>
      <trkpt lat="41.22509" lon="19.52036">
        <ele>46.06471</ele>
        <time>2022-05-03T12:42:53.631Z</time>
      </trkpt>
      <trkpt lat="41.22508" lon="19.52023">
        <ele>46.040514</ele>
        <time>2022-05-03T12:42:55.612Z</time>
      </trkpt>
      <trkpt lat="41.22507" lon="19.52006">
        <ele>46.008965</ele>
        <time>2022-05-03T12:42:58.644Z</time>
      </trkpt>
      <trkpt lat="41.2251" lon="19.5199">
        <ele>45.978486</ele>
        <time>2022-05-03T12:43:01.626Z</time>
      </trkpt>
      <trkpt lat="41.22516" lon="19.51979">
        <ele>45.952288</ele>
        <time>2022-05-03T12:43:05.643Z</time>
      </trkpt>
      <trkpt lat="41.22526" lon="19.51978">
        <ele>45.927778</ele>
        <time>2022-05-03T12:43:08.652Z</time>
      </trkpt>
      <trkpt lat="41.22534" lon="19.51972">
        <ele>45.905126</ele>
        <time>2022-05-03T12:43:11.630Z</time>
      </trkpt>
      <trkpt lat="41.22542" lon="19.51963">
        <ele>45.877791</ele>
        <time>2022-05-03T12:43:14.648Z</time>
      </trkpt>
      <trkpt lat="41.22549" lon="19.51953">
        <ele>45.853213</ele>
        <time>2022-05-03T12:43:17.637Z</time>
      </trkpt>
      <trkpt lat="41.22557" lon="19.51941">
        <ele>45.823316</ele>
        <time>2022-05-03T12:43:20.654Z</time>
      </trkpt>
      <trkpt lat="41.22563" lon="19.51931">
        <ele>45.800038</ele>
        <time>2022-05-03T12:43:22.628Z</time>
      </trkpt>
      <trkpt lat="41.22569" lon="19.51922">
        <ele>45.726695</ele>
        <time>2022-05-03T12:43:24.667Z</time>
      </trkpt>
      <trkpt lat="41.22578" lon="19.51909">
        <ele>45.417153</ele>
        <time>2022-05-03T12:43:27.641Z</time>
      </trkpt>
      <trkpt lat="41.22586" lon="19.51896">
        <ele>45.112828</ele>
        <time>2022-05-03T12:43:30.668Z</time>
      </trkpt>
      <trkpt lat="41.22596" lon="19.51883">
        <ele>44.803397</ele>
        <time>2022-05-03T12:43:33.647Z</time>
      </trkpt>
      <trkpt lat="41.22604" lon="19.5187">
        <ele>44.494076</ele>
        <time>2022-05-03T12:43:36.664Z</time>
      </trkpt>
      <trkpt lat="41.22613" lon="19.51858">
        <ele>44.194896</ele>
        <time>2022-05-03T12:43:39.638Z</time>
      </trkpt>
      <trkpt lat="41.22621" lon="19.51843">
        <ele>43.886269</ele>
        <time>2022-05-03T12:43:42.654Z</time>
      </trkpt>
      <trkpt lat="41.22629" lon="19.5183">
        <ele>43.58853</ele>
        <time>2022-05-03T12:43:45.636Z</time>
      </trkpt>
      <trkpt lat="41.22637" lon="19.51817">
        <ele>43.291126</ele>
        <time>2022-05-03T12:43:48.649Z</time>
      </trkpt>
      <trkpt lat="41.22644" lon="19.51803">
        <ele>42.990924</ele>
        <time>2022-05-03T12:43:51.625Z</time>
      </trkpt>
      <trkpt lat="41.22654" lon="19.51797">
        <ele>42.736686</ele>
        <time>2022-05-03T12:43:54.636Z</time>
      </trkpt>
      <trkpt lat="41.22666" lon="19.51803">
        <ele>42.434475</ele>
        <time>2022-05-03T12:43:57.634Z</time>
      </trkpt>
      <trkpt lat="41.22677" lon="19.5181">
        <ele>42.150048</ele>
        <time>2022-05-03T12:44:00.638Z</time>
      </trkpt>
      <trkpt lat="41.2269" lon="19.51817">
        <ele>41.836883</ele>
        <time>2022-05-03T12:44:03.643Z</time>
      </trkpt>
      <trkpt lat="41.22701" lon="19.51823">
        <ele>41.688431</ele>
        <time>2022-05-03T12:44:06.679Z</time>
      </trkpt>
      <trkpt lat="41.22713" lon="19.5183">
        <ele>42.271418</ele>
        <time>2022-05-03T12:44:09.645Z</time>
      </trkpt>
      <trkpt lat="41.22723" lon="19.51836">
        <ele>42.786293</ele>
        <time>2022-05-03T12:44:12.637Z</time>
      </trkpt>
      <trkpt lat="41.22733" lon="19.51842">
        <ele>43.31556</ele>
        <time>2022-05-03T12:44:15.637Z</time>
      </trkpt>
      <trkpt lat="41.22744" lon="19.51846">
        <ele>43.870323</ele>
        <time>2022-05-03T12:44:19.645Z</time>
      </trkpt>
      <trkpt lat="41.22755" lon="19.51852">
        <ele>44.439956</ele>
        <time>2022-05-03T12:44:22.628Z</time>
      </trkpt>
      <trkpt lat="41.22767" lon="19.51858">
        <ele>45.042129</ele>
        <time>2022-05-03T12:44:25.637Z</time>
      </trkpt>
      <trkpt lat="41.22776" lon="19.51865">
        <ele>45.517325</ele>
        <time>2022-05-03T12:44:27.636Z</time>
      </trkpt>
      <trkpt lat="41.22785" lon="19.51867">
        <ele>45.978887</ele>
        <time>2022-05-03T12:44:29.624Z</time>
      </trkpt>
      <trkpt lat="41.22796" lon="19.51869">
        <ele>46.489617</ele>
        <time>2022-05-03T12:44:31.636Z</time>
      </trkpt>
      <trkpt lat="41.22808" lon="19.51874">
        <ele>47.112058</ele>
        <time>2022-05-03T12:44:34.623Z</time>
      </trkpt>
      <trkpt lat="41.22818" lon="19.51878">
        <ele>47.585348</ele>
        <time>2022-05-03T12:44:36.644Z</time>
      </trkpt>
      <trkpt lat="41.22828" lon="19.51881">
        <ele>48.05488</ele>
        <time>2022-05-03T12:44:38.633Z</time>
      </trkpt>
      <trkpt lat="41.2284" lon="19.51887">
        <ele>48.671365</ele>
        <time>2022-05-03T12:44:41.651Z</time>
      </trkpt>
      <trkpt lat="41.22852" lon="19.51892">
        <ele>49.270411</ele>
        <time>2022-05-03T12:44:44.621Z</time>
      </trkpt>
      <trkpt lat="41.22861" lon="19.51895">
        <ele>49.698868</ele>
        <time>2022-05-03T12:44:46.632Z</time>
      </trkpt>
      <trkpt lat="41.22872" lon="19.51898">
        <ele>50.129937</ele>
        <time>2022-05-03T12:44:49.626Z</time>
      </trkpt>
      <trkpt lat="41.22881" lon="19.51906">
        <ele>50.166759</ele>
        <time>2022-05-03T12:44:52.664Z</time>
      </trkpt>
      <trkpt lat="41.2289" lon="19.51914">
        <ele>50.206714</ele>
        <time>2022-05-03T12:44:55.625Z</time>
      </trkpt>
      <trkpt lat="41.22904" lon="19.51921">
        <ele>50.257799</ele>
        <time>2022-05-03T12:44:58.631Z</time>
      </trkpt>
      <trkpt lat="41.22915" lon="19.51928">
        <ele>50.303473</ele>
        <time>2022-05-03T12:45:00.652Z</time>
      </trkpt>
      <trkpt lat="41.22925" lon="19.51935">
        <ele>50.342293</ele>
        <time>2022-05-03T12:45:02.623Z</time>
      </trkpt>
      <trkpt lat="41.22936" lon="19.5194">
        <ele>50.385606</ele>
        <time>2022-05-03T12:45:04.636Z</time>
      </trkpt>
      <trkpt lat="41.2295" lon="19.51944">
        <ele>50.434054</ele>
        <time>2022-05-03T12:45:06.660Z</time>
      </trkpt>
      <trkpt lat="41.2296" lon="19.51948">
        <ele>50.472137</ele>
        <time>2022-05-03T12:45:08.633Z</time>
      </trkpt>
      <trkpt lat="41.22972" lon="19.51953">
        <ele>50.516565</ele>
        <time>2022-05-03T12:45:11.633Z</time>
      </trkpt>
      <trkpt lat="41.22981" lon="19.51958">
        <ele>50.552292</ele>
        <time>2022-05-03T12:45:14.651Z</time>
      </trkpt>
      <trkpt lat="41.22991" lon="19.51964">
        <ele>50.589208</ele>
        <time>2022-05-03T12:45:17.646Z</time>
      </trkpt>
      <trkpt lat="41.23001" lon="19.51972">
        <ele>50.632416</ele>
        <time>2022-05-03T12:45:20.624Z</time>
      </trkpt>
      <trkpt lat="41.2301" lon="19.51977">
        <ele>50.66698</ele>
        <time>2022-05-03T12:45:22.643Z</time>
      </trkpt>
      <trkpt lat="41.23021" lon="19.51982">
        <ele>50.706412</ele>
        <time>2022-05-03T12:45:24.633Z</time>
      </trkpt>
      <trkpt lat="41.23033" lon="19.51986">
        <ele>50.750004</ele>
        <time>2022-05-03T12:45:26.625Z</time>
      </trkpt>
      <trkpt lat="41.23045" lon="19.51989">
        <ele>50.354126</ele>
        <time>2022-05-03T12:45:28.627Z</time>
      </trkpt>
      <trkpt lat="41.23056" lon="19.51988">
        <ele>49.892676</ele>
        <time>2022-05-03T12:45:30.653Z</time>
      </trkpt>
      <trkpt lat="41.23066" lon="19.51987">
        <ele>49.469351</ele>
        <time>2022-05-03T12:45:32.619Z</time>
      </trkpt>
      <trkpt lat="41.23076" lon="19.51985">
        <ele>49.061027</ele>
        <time>2022-05-03T12:45:34.637Z</time>
      </trkpt>
      <trkpt lat="41.23086" lon="19.51982">
        <ele>48.661091</ele>
        <time>2022-05-03T12:45:36.634Z</time>
      </trkpt>
      <trkpt lat="41.23095" lon="19.5198">
        <ele>48.277877</ele>
        <time>2022-05-03T12:45:38.640Z</time>
      </trkpt>
      <trkpt lat="41.23108" lon="19.51977">
        <ele>47.74103</ele>
        <time>2022-05-03T12:45:41.656Z</time>
      </trkpt>
      <trkpt lat="41.23121" lon="19.51974">
        <ele>47.220038</ele>
        <time>2022-05-03T12:45:44.640Z</time>
      </trkpt>
      <trkpt lat="41.23134" lon="19.51971">
        <ele>46.678585</ele>
        <time>2022-05-03T12:45:47.632Z</time>
      </trkpt>
      <trkpt lat="41.23146" lon="19.5197">
        <ele>46.1871</ele>
        <time>2022-05-03T12:45:50.625Z</time>
      </trkpt>
      <trkpt lat="41.23158" lon="19.51967">
        <ele>45.672598</ele>
        <time>2022-05-03T12:45:53.629Z</time>
      </trkpt>
      <trkpt lat="41.2317" lon="19.51963">
        <ele>45.181661</ele>
        <time>2022-05-03T12:45:56.634Z</time>
      </trkpt>
      <trkpt lat="41.2318" lon="19.5196">
        <ele>44.746577</ele>
        <time>2022-05-03T12:45:59.632Z</time>
      </trkpt>
      <trkpt lat="41.23189" lon="19.51955">
        <ele>44.347462</ele>
        <time>2022-05-03T12:46:03.646Z</time>
      </trkpt>
      <trkpt lat="41.2319" lon="19.51941">
        <ele>43.891619</ele>
        <time>2022-05-03T12:46:09.630Z</time>
      </trkpt>
      <trkpt lat="41.23187" lon="19.51929">
        <ele>43.519471</ele>
        <time>2022-05-03T12:46:12.650Z</time>
      </trkpt>
      <trkpt lat="41.23183" lon="19.51916">
        <ele>43.410028</ele>
        <time>2022-05-03T12:46:15.679Z</time>
      </trkpt>
      <trkpt lat="41.23179" lon="19.519">
        <ele>43.400929</ele>
        <time>2022-05-03T12:46:18.642Z</time>
      </trkpt>
      <trkpt lat="41.23176" lon="19.51885">
        <ele>43.391931</ele>
        <time>2022-05-03T12:46:21.676Z</time>
      </trkpt>
      <trkpt lat="41.23171" lon="19.51869">
        <ele>43.382497</ele>
        <time>2022-05-03T12:46:24.630Z</time>
      </trkpt>
      <trkpt lat="41.23167" lon="19.51852">
        <ele>43.372598</ele>
        <time>2022-05-03T12:46:27.646Z</time>
      </trkpt>
      <trkpt lat="41.23165" lon="19.51841">
        <ele>43.365906</ele>
        <time>2022-05-03T12:46:29.650Z</time>
      </trkpt>
      <trkpt lat="41.23161" lon="19.51824">
        <ele>43.356229</ele>
        <time>2022-05-03T12:46:32.679Z</time>
      </trkpt>
      <trkpt lat="41.23157" lon="19.51808">
        <ele>43.346555</ele>
        <time>2022-05-03T12:46:35.632Z</time>
      </trkpt>
      <trkpt lat="41.23154" lon="19.51791">
        <ele>43.336842</ele>
        <time>2022-05-03T12:46:38.635Z</time>
      </trkpt>
      <trkpt lat="41.2315" lon="19.51775">
        <ele>43.327454</ele>
        <time>2022-05-03T12:46:41.628Z</time>
      </trkpt>
      <trkpt lat="41.23146" lon="19.51759">
        <ele>43.317859</ele>
        <time>2022-05-03T12:46:44.638Z</time>
      </trkpt>
      <trkpt lat="41.23142" lon="19.51744">
        <ele>43.309159</ele>
        <time>2022-05-03T12:46:47.658Z</time>
      </trkpt>
      <trkpt lat="41.23142" lon="19.51731">
        <ele>43.301488</ele>
        <time>2022-05-03T12:46:50.645Z</time>
      </trkpt>
      <trkpt lat="41.23139" lon="19.51719">
        <ele>43.294619</ele>
        <time>2022-05-03T12:46:53.622Z</time>
      </trkpt>
      <trkpt lat="41.23131" lon="19.51709">
        <ele>43.286619</ele>
        <time>2022-05-03T12:46:57.635Z</time>
      </trkpt>
      <trkpt lat="41.23128" lon="19.51696">
        <ele>43.235871</ele>
        <time>2022-05-03T12:47:00.636Z</time>
      </trkpt>
      <trkpt lat="41.23124" lon="19.51681">
        <ele>43.126482</ele>
        <time>2022-05-03T12:47:03.619Z</time>
      </trkpt>
      <trkpt lat="41.23121" lon="19.51666">
        <ele>43.013915</ele>
        <time>2022-05-03T12:47:06.642Z</time>
      </trkpt>
      <trkpt lat="41.23118" lon="19.51652">
        <ele>42.910694</ele>
        <time>2022-05-03T12:47:09.665Z</time>
      </trkpt>
      <trkpt lat="41.23113" lon="19.51642">
        <ele>42.821084</ele>
        <time>2022-05-03T12:47:13.633Z</time>
      </trkpt>
      <trkpt lat="41.23114" lon="19.51656">
        <ele>42.715257</ele>
        <time>2022-05-03T12:47:19.640Z</time>
      </trkpt>
      <trkpt lat="41.23117" lon="19.51669">
        <ele>42.618201</ele>
        <time>2022-05-03T12:47:22.633Z</time>
      </trkpt>
      <trkpt lat="41.2312" lon="19.51683">
        <ele>42.517025</ele>
        <time>2022-05-03T12:47:25.617Z</time>
      </trkpt>
      <trkpt lat="41.23123" lon="19.51696">
        <ele>42.41437</ele>
        <time>2022-05-03T12:47:28.622Z</time>
      </trkpt>
      <trkpt lat="41.23127" lon="19.51711">
        <ele>42.299523</ele>
        <time>2022-05-03T12:47:31.637Z</time>
      </trkpt>
      <trkpt lat="41.23131" lon="19.51727">
        <ele>42.182618</ele>
        <time>2022-05-03T12:47:34.664Z</time>
      </trkpt>
      <trkpt lat="41.23135" lon="19.51743">
        <ele>42.057699</ele>
        <time>2022-05-03T12:47:37.642Z</time>
      </trkpt>
      <trkpt lat="41.23137" lon="19.51755">
        <ele>41.969074</ele>
        <time>2022-05-03T12:47:39.699Z</time>
      </trkpt>
      <trkpt lat="41.2314" lon="19.51768">
        <ele>41.87755</ele>
        <time>2022-05-03T12:47:41.629Z</time>
      </trkpt>
      <trkpt lat="41.23144" lon="19.51785">
        <ele>41.750134</ele>
        <time>2022-05-03T12:47:44.672Z</time>
      </trkpt>
      <trkpt lat="41.23147" lon="19.51796">
        <ele>41.66217</ele>
        <time>2022-05-03T12:47:46.632Z</time>
      </trkpt>
      <trkpt lat="41.2315" lon="19.51808">
        <ele>41.570137</ele>
        <time>2022-05-03T12:47:48.637Z</time>
      </trkpt>
      <trkpt lat="41.23153" lon="19.5182">
        <ele>41.538639</ele>
        <time>2022-05-03T12:47:50.650Z</time>
      </trkpt>
      <trkpt lat="41.23157" lon="19.51831">
        <ele>41.509665</ele>
        <time>2022-05-03T12:47:52.636Z</time>
      </trkpt>
      <trkpt lat="41.2316" lon="19.51843">
        <ele>41.480489</ele>
        <time>2022-05-03T12:47:54.634Z</time>
      </trkpt>
      <trkpt lat="41.23164" lon="19.51855">
        <ele>41.45186</ele>
        <time>2022-05-03T12:47:56.638Z</time>
      </trkpt>
      <trkpt lat="41.23166" lon="19.51866">
        <ele>41.423868</ele>
        <time>2022-05-03T12:47:58.634Z</time>
      </trkpt>
      <trkpt lat="41.2317" lon="19.51882">
        <ele>41.384664</ele>
        <time>2022-05-03T12:48:01.620Z</time>
      </trkpt>
      <trkpt lat="41.23173" lon="19.51899">
        <ele>41.344954</ele>
        <time>2022-05-03T12:48:04.620Z</time>
      </trkpt>
      <trkpt lat="41.23176" lon="19.51916">
        <ele>41.305017</ele>
        <time>2022-05-03T12:48:07.668Z</time>
      </trkpt>
      <trkpt lat="41.23181" lon="19.51932">
        <ele>41.263433</ele>
        <time>2022-05-03T12:48:10.632Z</time>
      </trkpt>
      <trkpt lat="41.23186" lon="19.51948">
        <ele>41.224788</ele>
        <time>2022-05-03T12:48:13.684Z</time>
      </trkpt>
      <trkpt lat="41.23193" lon="19.51961">
        <ele>41.18723</ele>
        <time>2022-05-03T12:48:16.648Z</time>
      </trkpt>
      <trkpt lat="41.23201" lon="19.51973">
        <ele>41.14996</ele>
        <time>2022-05-03T12:48:19.628Z</time>
      </trkpt>
      <trkpt lat="41.23209" lon="19.51982">
        <ele>41.114662</ele>
        <time>2022-05-03T12:48:22.627Z</time>
      </trkpt>
      <trkpt lat="41.2322" lon="19.51976">
        <ele>41.077903</ele>
        <time>2022-05-03T12:48:25.633Z</time>
      </trkpt>
      <trkpt lat="41.23226" lon="19.51961">
        <ele>41.038851</ele>
        <time>2022-05-03T12:48:28.626Z</time>
      </trkpt>
      <trkpt lat="41.23228" lon="19.51944">
        <ele>41.158454</ele>
        <time>2022-05-03T12:48:31.642Z</time>
      </trkpt>
      <trkpt lat="41.2323" lon="19.51929">
        <ele>41.693468</ele>
        <time>2022-05-03T12:48:34.640Z</time>
      </trkpt>
      <trkpt lat="41.23232" lon="19.51917">
        <ele>42.119323</ele>
        <time>2022-05-03T12:48:36.641Z</time>
      </trkpt>
      <trkpt lat="41.23234" lon="19.519">
        <ele>42.707759</ele>
        <time>2022-05-03T12:48:39.663Z</time>
      </trkpt>
      <trkpt lat="41.23236" lon="19.51884">
        <ele>43.29106</ele>
        <time>2022-05-03T12:48:42.664Z</time>
      </trkpt>
      <trkpt lat="41.23237" lon="19.5187">
        <ele>43.757714</ele>
        <time>2022-05-03T12:48:45.643Z</time>
      </trkpt>
      <trkpt lat="41.23239" lon="19.51854">
        <ele>44.319377</ele>
        <time>2022-05-03T12:48:48.650Z</time>
      </trkpt>
      <trkpt lat="41.23241" lon="19.51838">
        <ele>44.86885</ele>
        <time>2022-05-03T12:48:51.660Z</time>
      </trkpt>
      <trkpt lat="41.23243" lon="19.51823">
        <ele>45.413479</ele>
        <time>2022-05-03T12:48:54.631Z</time>
      </trkpt>
      <trkpt lat="41.23246" lon="19.51809">
        <ele>45.926716</ele>
        <time>2022-05-03T12:48:57.642Z</time>
      </trkpt>
      <trkpt lat="41.23248" lon="19.51797">
        <ele>46.343856</ele>
        <time>2022-05-03T12:48:59.717Z</time>
      </trkpt>
      <trkpt lat="41.2325" lon="19.51784">
        <ele>46.783484</ele>
        <time>2022-05-03T12:49:01.631Z</time>
      </trkpt>
      <trkpt lat="41.23252" lon="19.51768">
        <ele>47.351533</ele>
        <time>2022-05-03T12:49:04.635Z</time>
      </trkpt>
      <trkpt lat="41.23254" lon="19.51753">
        <ele>47.874977</ele>
        <time>2022-05-03T12:49:07.637Z</time>
      </trkpt>
      <trkpt lat="41.23255" lon="19.51738">
        <ele>48.403397</ele>
        <time>2022-05-03T12:49:09.663Z</time>
      </trkpt>
      <trkpt lat="41.23257" lon="19.51726">
        <ele>48.830892</ele>
        <time>2022-05-03T12:49:11.650Z</time>
      </trkpt>
      <trkpt lat="41.23259" lon="19.51712">
        <ele>49.31441</ele>
        <time>2022-05-03T12:49:13.640Z</time>
      </trkpt>
      <trkpt lat="41.23261" lon="19.51699">
        <ele>49.759969</ele>
        <time>2022-05-03T12:49:15.707Z</time>
      </trkpt>
      <trkpt lat="41.23264" lon="19.51686">
        <ele>50.221646</ele>
        <time>2022-05-03T12:49:17.658Z</time>
      </trkpt>
      <trkpt lat="41.23267" lon="19.51674">
        <ele>50.658505</ele>
        <time>2022-05-03T12:49:19.627Z</time>
      </trkpt>
      <trkpt lat="41.23271" lon="19.51661">
        <ele>51.101805</ele>
        <time>2022-05-03T12:49:21.636Z</time>
      </trkpt>
      <trkpt lat="41.23274" lon="19.51646">
        <ele>51.633776</ele>
        <time>2022-05-03T12:49:24.640Z</time>
      </trkpt>
      <trkpt lat="41.23284" lon="19.51646">
        <ele>52.09378</ele>
        <time>2022-05-03T12:49:30.640Z</time>
      </trkpt>
      <trkpt lat="41.23292" lon="19.51652">
        <ele>52.497376</ele>
        <time>2022-05-03T12:49:33.607Z</time>
      </trkpt>
      <trkpt lat="41.233" lon="19.51657">
        <ele>52.90038</ele>
        <time>2022-05-03T12:49:36.644Z</time>
      </trkpt>
      <trkpt lat="41.2331" lon="19.51661">
        <ele>53.342292</ele>
        <time>2022-05-03T12:49:39.629Z</time>
      </trkpt>
      <trkpt lat="41.23318" lon="19.51666">
        <ele>53.75044</ele>
        <time>2022-05-03T12:49:43.687Z</time>
      </trkpt>
      <trkpt lat="41.23328" lon="19.51672">
        <ele>54.239331</ele>
        <time>2022-05-03T12:49:48.633Z</time>
      </trkpt>
      <trkpt lat="41.23338" lon="19.51674">
        <ele>54.683581</ele>
        <time>2022-05-03T12:49:54.668Z</time>
      </trkpt>
      <trkpt lat="41.23348" lon="19.51677">
        <ele>55.172452</ele>
        <time>2022-05-03T12:50:00.659Z</time>
      </trkpt>
      <trkpt lat="41.23358" lon="19.51684">
        <ele>55.667883</ele>
        <time>2022-05-03T12:50:05.643Z</time>
      </trkpt>
      <trkpt lat="41.23367" lon="19.51688">
        <ele>56.099009</ele>
        <time>2022-05-03T12:50:09.699Z</time>
      </trkpt>
      <trkpt lat="41.23378" lon="19.51691">
        <ele>56.579899</ele>
        <time>2022-05-03T12:50:14.643Z</time>
      </trkpt>
      <trkpt lat="41.23386" lon="19.51698">
        <ele>56.997123</ele>
        <time>2022-05-03T12:50:18.636Z</time>
      </trkpt>
      <trkpt lat="41.23396" lon="19.51702">
        <ele>57.410981</ele>
        <time>2022-05-03T12:50:23.629Z</time>
      </trkpt>
      <trkpt lat="41.23405" lon="19.51707">
        <ele>57.681859</ele>
        <time>2022-05-03T12:50:27.633Z</time>
      </trkpt>
      <trkpt lat="41.23415" lon="19.51708">
        <ele>57.959567</ele>
        <time>2022-05-03T12:50:31.641Z</time>
      </trkpt>
      <trkpt lat="41.23425" lon="19.51706">
        <ele>58.255016</ele>
        <time>2022-05-03T12:50:35.624Z</time>
      </trkpt>
      <trkpt lat="41.23434" lon="19.51702">
        <ele>58.513604</ele>
        <time>2022-05-03T12:50:38.630Z</time>
      </trkpt>
      <trkpt lat="41.23444" lon="19.51694">
        <ele>58.85158</ele>
        <time>2022-05-03T12:50:41.632Z</time>
      </trkpt>
      <trkpt lat="41.23449" lon="19.51684">
        <ele>59.109059</ele>
        <time>2022-05-03T12:50:45.632Z</time>
      </trkpt>
      <trkpt lat="41.23453" lon="19.51672">
        <ele>59.379861</ele>
        <time>2022-05-03T12:50:49.659Z</time>
      </trkpt>
      <trkpt lat="41.23461" lon="19.51661">
        <ele>59.709195</ele>
        <time>2022-05-03T12:50:53.634Z</time>
      </trkpt>
      <trkpt lat="41.23468" lon="19.5165">
        <ele>60.020259</ele>
        <time>2022-05-03T12:50:56.633Z</time>
      </trkpt>
      <trkpt lat="41.23474" lon="19.51639">
        <ele>60.309466</ele>
        <time>2022-05-03T12:50:59.636Z</time>
      </trkpt>
      <trkpt lat="41.23479" lon="19.51628">
        <ele>60.581596</ele>
        <time>2022-05-03T12:51:04.623Z</time>
      </trkpt>
      <trkpt lat="41.23489" lon="19.51628">
        <ele>60.869546</ele>
        <time>2022-05-03T12:51:10.642Z</time>
      </trkpt>
      <trkpt lat="41.23499" lon="19.51624">
        <ele>61.159729</ele>
        <time>2022-05-03T12:51:14.667Z</time>
      </trkpt>
      <trkpt lat="41.23511" lon="19.51625">
        <ele>61.484265</ele>
        <time>2022-05-03T12:51:18.642Z</time>
      </trkpt>
      <trkpt lat="41.23521" lon="19.51631">
        <ele>61.795556</ele>
        <time>2022-05-03T12:51:21.634Z</time>
      </trkpt>
      <trkpt lat="41.23534" lon="19.51638">
        <ele>62.196277</ele>
        <time>2022-05-03T12:51:24.627Z</time>
      </trkpt>
      <trkpt lat="41.23543" lon="19.51646">
        <ele>62.32637</ele>
        <time>2022-05-03T12:51:27.635Z</time>
      </trkpt>
      <trkpt lat="41.23552" lon="19.51656">
        <ele>62.237543</ele>
        <time>2022-05-03T12:51:30.627Z</time>
      </trkpt>
      <trkpt lat="41.23561" lon="19.5166">
        <ele>62.167506</ele>
        <time>2022-05-03T12:51:32.626Z</time>
      </trkpt>
      <trkpt lat="41.23571" lon="19.51667">
        <ele>62.081051</ele>
        <time>2022-05-03T12:51:34.636Z</time>
      </trkpt>
      <trkpt lat="41.23582" lon="19.5167">
        <ele>61.996346</ele>
        <time>2022-05-03T12:51:36.639Z</time>
      </trkpt>
      <trkpt lat="41.23592" lon="19.51675">
        <ele>61.91573</ele>
        <time>2022-05-03T12:51:39.627Z</time>
      </trkpt>
      <trkpt lat="41.23602" lon="19.51682">
        <ele>61.828313</ele>
        <time>2022-05-03T12:51:42.662Z</time>
      </trkpt>
      <trkpt lat="41.23613" lon="19.51686">
        <ele>61.739599</ele>
        <time>2022-05-03T12:51:45.632Z</time>
      </trkpt>
      <trkpt lat="41.23625" lon="19.51688">
        <ele>61.6431</ele>
        <time>2022-05-03T12:51:48.673Z</time>
      </trkpt>
      <trkpt lat="41.23638" lon="19.51689">
        <ele>61.544459</ele>
        <time>2022-05-03T12:51:51.631Z</time>
      </trkpt>
      <trkpt lat="41.23649" lon="19.51695">
        <ele>61.452478</ele>
        <time>2022-05-03T12:51:54.671Z</time>
      </trkpt>
      <trkpt lat="41.23659" lon="19.517">
        <ele>61.368503</ele>
        <time>2022-05-03T12:51:57.647Z</time>
      </trkpt>
      <trkpt lat="41.23669" lon="19.51703">
        <ele>61.295402</ele>
        <time>2022-05-03T12:51:59.647Z</time>
      </trkpt>
      <trkpt lat="41.23678" lon="19.51707">
        <ele>61.220995</ele>
        <time>2022-05-03T12:52:01.626Z</time>
      </trkpt>
      <trkpt lat="41.23686" lon="19.51712">
        <ele>61.15023</ele>
        <time>2022-05-03T12:52:03.639Z</time>
      </trkpt>
      <trkpt lat="41.23696" lon="19.51714">
        <ele>61.077305</ele>
        <time>2022-05-03T12:52:05.628Z</time>
      </trkpt>
      <trkpt lat="41.23708" lon="19.51715">
        <ele>60.984525</ele>
        <time>2022-05-03T12:52:08.636Z</time>
      </trkpt>
      <trkpt lat="41.23717" lon="19.51715">
        <ele>60.744887</ele>
        <time>2022-05-03T12:52:11.616Z</time>
      </trkpt>
      <trkpt lat="41.23726" lon="19.51717">
        <ele>60.521509</ele>
        <time>2022-05-03T12:52:13.639Z</time>
      </trkpt>
      <trkpt lat="41.23736" lon="19.51721">
        <ele>60.27677</ele>
        <time>2022-05-03T12:52:15.633Z</time>
      </trkpt>
      <trkpt lat="41.23744" lon="19.51728">
        <ele>60.042221</ele>
        <time>2022-05-03T12:52:17.657Z</time>
      </trkpt>
      <trkpt lat="41.23756" lon="19.51735">
        <ele>59.716666</ele>
        <time>2022-05-03T12:52:20.625Z</time>
      </trkpt>
      <trkpt lat="41.23769" lon="19.51741">
        <ele>59.397641</ele>
        <time>2022-05-03T12:52:23.675Z</time>
      </trkpt>
      <trkpt lat="41.23781" lon="19.51746">
        <ele>59.079635</ele>
        <time>2022-05-03T12:52:26.640Z</time>
      </trkpt>
      <trkpt lat="41.23794" lon="19.51748">
        <ele>58.767637</ele>
        <time>2022-05-03T12:52:29.628Z</time>
      </trkpt>
      <trkpt lat="41.23803" lon="19.51749">
        <ele>58.53528</ele>
        <time>2022-05-03T12:52:31.617Z</time>
      </trkpt>
      <trkpt lat="41.23815" lon="19.51749">
        <ele>58.258736</ele>
        <time>2022-05-03T12:52:33.627Z</time>
      </trkpt>
      <trkpt lat="41.23825" lon="19.51751">
        <ele>57.992415</ele>
        <time>2022-05-03T12:52:35.634Z</time>
      </trkpt>
      <trkpt lat="41.23837" lon="19.51753">
        <ele>57.712703</ele>
        <time>2022-05-03T12:52:37.644Z</time>
      </trkpt>
      <trkpt lat="41.23847" lon="19.51756">
        <ele>57.445749</ele>
        <time>2022-05-03T12:52:39.635Z</time>
      </trkpt>
      <trkpt lat="41.23857" lon="19.51759">
        <ele>57.196684</ele>
        <time>2022-05-03T12:52:41.634Z</time>
      </trkpt>
      <trkpt lat="41.23866" lon="19.5176">
        <ele>56.972037</ele>
        <time>2022-05-03T12:52:43.645Z</time>
      </trkpt>
      <trkpt lat="41.23876" lon="19.51762">
        <ele>56.743019</ele>
        <time>2022-05-03T12:52:45.654Z</time>
      </trkpt>
      <trkpt lat="41.23885" lon="19.51763">
        <ele>56.580013</ele>
        <time>2022-05-03T12:52:47.639Z</time>
      </trkpt>
      <trkpt lat="41.23894" lon="19.51761">
        <ele>56.5543</ele>
        <time>2022-05-03T12:52:49.638Z</time>
      </trkpt>
      <trkpt lat="41.23907" lon="19.51761">
        <ele>56.518072</ele>
        <time>2022-05-03T12:52:52.687Z</time>
      </trkpt>
      <trkpt lat="41.23919" lon="19.51764">
        <ele>56.486089</ele>
        <time>2022-05-03T12:52:55.634Z</time>
      </trkpt>
      <trkpt lat="41.23931" lon="19.51768">
        <ele>56.450994</ele>
        <time>2022-05-03T12:52:58.668Z</time>
      </trkpt>
      <trkpt lat="41.23944" lon="19.51771">
        <ele>56.415908</ele>
        <time>2022-05-03T12:53:01.642Z</time>
      </trkpt>
      <trkpt lat="41.23953" lon="19.51771">
        <ele>56.388483</ele>
        <time>2022-05-03T12:53:03.637Z</time>
      </trkpt>
      <trkpt lat="41.23963" lon="19.51773">
        <ele>56.362671</ele>
        <time>2022-05-03T12:53:05.642Z</time>
      </trkpt>
      <trkpt lat="41.23972" lon="19.51776">
        <ele>56.337019</ele>
        <time>2022-05-03T12:53:07.635Z</time>
      </trkpt>
      <trkpt lat="41.23983" lon="19.51778">
        <ele>56.304491</ele>
        <time>2022-05-03T12:53:10.615Z</time>
      </trkpt>
      <trkpt lat="41.23995" lon="19.51781">
        <ele>56.270494</ele>
        <time>2022-05-03T12:53:13.631Z</time>
      </trkpt>
      <trkpt lat="41.24008" lon="19.51782">
        <ele>56.237012</ele>
        <time>2022-05-03T12:53:16.680Z</time>
      </trkpt>
      <trkpt lat="41.2402" lon="19.51786">
        <ele>56.201332</ele>
        <time>2022-05-03T12:53:19.639Z</time>
      </trkpt>
      <trkpt lat="41.24033" lon="19.5179">
        <ele>56.165679</ele>
        <time>2022-05-03T12:53:22.663Z</time>
      </trkpt>
      <trkpt lat="41.24045" lon="19.51795">
        <ele>56.129586</ele>
        <time>2022-05-03T12:53:25.628Z</time>
      </trkpt>
      <trkpt lat="41.24058" lon="19.518">
        <ele>56.092922</ele>
        <time>2022-05-03T12:53:28.660Z</time>
      </trkpt>
      <trkpt lat="41.24067" lon="19.51803">
        <ele>56.17268</ele>
        <time>2022-05-03T12:53:30.639Z</time>
      </trkpt>
      <trkpt lat="41.24076" lon="19.51806">
        <ele>56.255826</ele>
        <time>2022-05-03T12:53:32.642Z</time>
      </trkpt>
      <trkpt lat="41.24085" lon="19.5181">
        <ele>56.341168</ele>
        <time>2022-05-03T12:53:34.665Z</time>
      </trkpt>
      <trkpt lat="41.24095" lon="19.51812">
        <ele>56.435341</ele>
        <time>2022-05-03T12:53:36.643Z</time>
      </trkpt>
      <trkpt lat="41.24105" lon="19.51814">
        <ele>56.52699</ele>
        <time>2022-05-03T12:53:38.636Z</time>
      </trkpt>
      <trkpt lat="41.24116" lon="19.51816">
        <ele>56.631153</ele>
        <time>2022-05-03T12:53:40.623Z</time>
      </trkpt>
      <trkpt lat="41.24128" lon="19.51816">
        <ele>56.733681</ele>
        <time>2022-05-03T12:53:42.636Z</time>
      </trkpt>
      <trkpt lat="41.2414" lon="19.51819">
        <ele>56.845863</ele>
        <time>2022-05-03T12:53:45.636Z</time>
      </trkpt>
      <trkpt lat="41.24152" lon="19.51824">
        <ele>56.964853</ele>
        <time>2022-05-03T12:53:48.660Z</time>
      </trkpt>
      <trkpt lat="41.24165" lon="19.51829">
        <ele>57.08426</ele>
        <time>2022-05-03T12:53:51.628Z</time>
      </trkpt>
      <trkpt lat="41.24173" lon="19.51831">
        <ele>57.167659</ele>
        <time>2022-05-03T12:53:53.638Z</time>
      </trkpt>
      <trkpt lat="41.24184" lon="19.51833">
        <ele>57.265223</ele>
        <time>2022-05-03T12:53:56.624Z</time>
      </trkpt>
      <trkpt lat="41.24195" lon="19.51836">
        <ele>57.367852</ele>
        <time>2022-05-03T12:53:59.638Z</time>
      </trkpt>
      <trkpt lat="41.24208" lon="19.51841">
        <ele>57.490974</ele>
        <time>2022-05-03T12:54:02.645Z</time>
      </trkpt>
      <trkpt lat="41.24217" lon="19.51845">
        <ele>57.576318</ele>
        <time>2022-05-03T12:54:04.627Z</time>
      </trkpt>
      <trkpt lat="41.24226" lon="19.51848">
        <ele>57.666041</ele>
        <time>2022-05-03T12:54:06.638Z</time>
      </trkpt>
      <trkpt lat="41.24236" lon="19.51851">
        <ele>57.595475</ele>
        <time>2022-05-03T12:54:08.631Z</time>
      </trkpt>
      <trkpt lat="41.2425" lon="19.51857">
        <ele>56.668633</ele>
        <time>2022-05-03T12:54:10.645Z</time>
      </trkpt>
      <trkpt lat="41.24263" lon="19.51863">
        <ele>55.794989</ele>
        <time>2022-05-03T12:54:12.646Z</time>
      </trkpt>
      <trkpt lat="41.24276" lon="19.51868">
        <ele>54.970801</ele>
        <time>2022-05-03T12:54:14.641Z</time>
      </trkpt>
      <trkpt lat="41.24286" lon="19.51873">
        <ele>54.290823</ele>
        <time>2022-05-03T12:54:16.632Z</time>
      </trkpt>
      <trkpt lat="41.24298" lon="19.51876">
        <ele>53.512487</ele>
        <time>2022-05-03T12:54:19.638Z</time>
      </trkpt>
      <trkpt lat="41.2431" lon="19.51878">
        <ele>52.720273</ele>
        <time>2022-05-03T12:54:22.648Z</time>
      </trkpt>
      <trkpt lat="41.24321" lon="19.51882">
        <ele>51.995654</ele>
        <time>2022-05-03T12:54:25.627Z</time>
      </trkpt>
      <trkpt lat="41.24334" lon="19.51887">
        <ele>51.162477</ele>
        <time>2022-05-03T12:54:28.643Z</time>
      </trkpt>
      <trkpt lat="41.24343" lon="19.51891">
        <ele>50.534945</ele>
        <time>2022-05-03T12:54:30.626Z</time>
      </trkpt>
      <trkpt lat="41.24353" lon="19.51892">
        <ele>49.916294</ele>
        <time>2022-05-03T12:54:32.663Z</time>
      </trkpt>
      <trkpt lat="41.24363" lon="19.51893">
        <ele>49.30839</ele>
        <time>2022-05-03T12:54:34.628Z</time>
      </trkpt>
      <trkpt lat="41.24373" lon="19.51895">
        <ele>48.660165</ele>
        <time>2022-05-03T12:54:36.626Z</time>
      </trkpt>
      <trkpt lat="41.24382" lon="19.51897">
        <ele>48.060836</ele>
        <time>2022-05-03T12:54:38.669Z</time>
      </trkpt>
      <trkpt lat="41.24392" lon="19.51899">
        <ele>47.446289</ele>
        <time>2022-05-03T12:54:40.629Z</time>
      </trkpt>
      <trkpt lat="41.24401" lon="19.51902">
        <ele>46.84962</ele>
        <time>2022-05-03T12:54:42.635Z</time>
      </trkpt>
      <trkpt lat="41.24411" lon="19.51903">
        <ele>46.294526</ele>
        <time>2022-05-03T12:54:44.670Z</time>
      </trkpt>
      <trkpt lat="41.2442" lon="19.51905">
        <ele>45.933695</ele>
        <time>2022-05-03T12:54:46.637Z</time>
      </trkpt>
      <trkpt lat="41.2443" lon="19.51906">
        <ele>45.591546</ele>
        <time>2022-05-03T12:54:48.639Z</time>
      </trkpt>
      <trkpt lat="41.24439" lon="19.51907">
        <ele>45.239118</ele>
        <time>2022-05-03T12:54:50.666Z</time>
      </trkpt>
      <trkpt lat="41.24449" lon="19.51908">
        <ele>44.88669</ele>
        <time>2022-05-03T12:54:52.630Z</time>
      </trkpt>
      <trkpt lat="41.24458" lon="19.51909">
        <ele>44.526889</ele>
        <time>2022-05-03T12:54:54.624Z</time>
      </trkpt>
      <trkpt lat="41.24468" lon="19.5191">
        <ele>44.158703</ele>
        <time>2022-05-03T12:54:56.670Z</time>
      </trkpt>
      <trkpt lat="41.24478" lon="19.51912">
        <ele>43.794481</ele>
        <time>2022-05-03T12:54:58.639Z</time>
      </trkpt>
      <trkpt lat="41.24488" lon="19.51912">
        <ele>43.439182</ele>
        <time>2022-05-03T12:55:00.630Z</time>
      </trkpt>
      <trkpt lat="41.24498" lon="19.51914">
        <ele>43.040322</ele>
        <time>2022-05-03T12:55:02.669Z</time>
      </trkpt>
      <trkpt lat="41.24509" lon="19.51916">
        <ele>42.632603</ele>
        <time>2022-05-03T12:55:04.631Z</time>
      </trkpt>
      <trkpt lat="41.2452" lon="19.51918">
        <ele>42.241079</ele>
        <time>2022-05-03T12:55:06.624Z</time>
      </trkpt>
      <trkpt lat="41.2453" lon="19.5192">
        <ele>41.860181</ele>
        <time>2022-05-03T12:55:08.631Z</time>
      </trkpt>
      <trkpt lat="41.2454" lon="19.51923">
        <ele>41.484049</ele>
        <time>2022-05-03T12:55:10.645Z</time>
      </trkpt>
      <trkpt lat="41.2455" lon="19.51926">
        <ele>41.110189</ele>
        <time>2022-05-03T12:55:12.623Z</time>
      </trkpt>
      <trkpt lat="41.2456" lon="19.5193">
        <ele>40.727061</ele>
        <time>2022-05-03T12:55:14.622Z</time>
      </trkpt>
      <trkpt lat="41.24569" lon="19.51933">
        <ele>40.353201</ele>
        <time>2022-05-03T12:55:16.618Z</time>
      </trkpt>
      <trkpt lat="41.24579" lon="19.51937">
        <ele>39.985516</ele>
        <time>2022-05-03T12:55:18.640Z</time>
      </trkpt>
      <trkpt lat="41.24589" lon="19.51942">
        <ele>39.753637</ele>
        <time>2022-05-03T12:55:20.631Z</time>
      </trkpt>
      <trkpt lat="41.24599" lon="19.51948">
        <ele>39.848141</ele>
        <time>2022-05-03T12:55:22.634Z</time>
      </trkpt>
      <trkpt lat="41.24609" lon="19.51952">
        <ele>39.940579</ele>
        <time>2022-05-03T12:55:24.637Z</time>
      </trkpt>
      <trkpt lat="41.24618" lon="19.51955">
        <ele>40.027401</ele>
        <time>2022-05-03T12:55:26.685Z</time>
      </trkpt>
      <trkpt lat="41.24628" lon="19.51958">
        <ele>40.113601</ele>
        <time>2022-05-03T12:55:28.639Z</time>
      </trkpt>
      <trkpt lat="41.24637" lon="19.51962">
        <ele>40.200095</ele>
        <time>2022-05-03T12:55:30.612Z</time>
      </trkpt>
      <trkpt lat="41.24647" lon="19.51966">
        <ele>40.288826</ele>
        <time>2022-05-03T12:55:32.616Z</time>
      </trkpt>
      <trkpt lat="41.24657" lon="19.5197">
        <ele>40.377369</ele>
        <time>2022-05-03T12:55:34.631Z</time>
      </trkpt>
      <trkpt lat="41.24667" lon="19.51973">
        <ele>40.465549</ele>
        <time>2022-05-03T12:55:36.647Z</time>
      </trkpt>
      <trkpt lat="41.24676" lon="19.51977">
        <ele>40.548314</ele>
        <time>2022-05-03T12:55:38.672Z</time>
      </trkpt>
      <trkpt lat="41.24685" lon="19.5198">
        <ele>40.632864</ele>
        <time>2022-05-03T12:55:40.639Z</time>
      </trkpt>
      <trkpt lat="41.24694" lon="19.51985">
        <ele>40.717526</ele>
        <time>2022-05-03T12:55:42.665Z</time>
      </trkpt>
      <trkpt lat="41.24703" lon="19.51989">
        <ele>40.799392</ele>
        <time>2022-05-03T12:55:44.611Z</time>
      </trkpt>
      <trkpt lat="41.24712" lon="19.51993">
        <ele>40.881684</ele>
        <time>2022-05-03T12:55:46.630Z</time>
      </trkpt>
      <trkpt lat="41.24721" lon="19.51997">
        <ele>40.969021</ele>
        <time>2022-05-03T12:55:48.659Z</time>
      </trkpt>
      <trkpt lat="41.2473" lon="19.52001">
        <ele>41.053804</ele>
        <time>2022-05-03T12:55:50.631Z</time>
      </trkpt>
      <trkpt lat="41.24741" lon="19.5201">
        <ele>41.164277</ele>
        <time>2022-05-03T12:55:53.638Z</time>
      </trkpt>
      <trkpt lat="41.24742" lon="19.52028">
        <ele>41.27713</ele>
        <time>2022-05-03T12:55:56.630Z</time>
      </trkpt>
      <trkpt lat="41.24743" lon="19.52041">
        <ele>41.251888</ele>
        <time>2022-05-03T12:55:58.681Z</time>
      </trkpt>
      <trkpt lat="41.24747" lon="19.52053">
        <ele>41.1924</ele>
        <time>2022-05-03T12:56:00.640Z</time>
      </trkpt>
      <trkpt lat="41.24754" lon="19.52062">
        <ele>41.131753</ele>
        <time>2022-05-03T12:56:02.642Z</time>
      </trkpt>
      <trkpt lat="41.24764" lon="19.52069">
        <ele>41.067331</ele>
        <time>2022-05-03T12:56:04.677Z</time>
      </trkpt>
      <trkpt lat="41.24775" lon="19.52073">
        <ele>41.000092</ele>
        <time>2022-05-03T12:56:06.666Z</time>
      </trkpt>
      <trkpt lat="41.24786" lon="19.52072">
        <ele>40.935353</ele>
        <time>2022-05-03T12:56:08.641Z</time>
      </trkpt>
      <trkpt lat="41.24795" lon="19.52067">
        <ele>40.87392</ele>
        <time>2022-05-03T12:56:10.626Z</time>
      </trkpt>
      <trkpt lat="41.24805" lon="19.52063">
        <ele>40.815899</ele>
        <time>2022-05-03T12:56:12.617Z</time>
      </trkpt>
      <trkpt lat="41.24814" lon="19.52061">
        <ele>40.756311</ele>
        <time>2022-05-03T12:56:14.660Z</time>
      </trkpt>
      <trkpt lat="41.24824" lon="19.52062">
        <ele>40.698818</ele>
        <time>2022-05-03T12:56:16.621Z</time>
      </trkpt>
      <trkpt lat="41.24833" lon="19.52063">
        <ele>40.641709</ele>
        <time>2022-05-03T12:56:18.675Z</time>
      </trkpt>
      <trkpt lat="41.24843" lon="19.52064">
        <ele>40.582447</ele>
        <time>2022-05-03T12:56:20.640Z</time>
      </trkpt>
      <trkpt lat="41.24854" lon="19.52065">
        <ele>40.521287</ele>
        <time>2022-05-03T12:56:22.637Z</time>
      </trkpt>
      <trkpt lat="41.24864" lon="19.52065">
        <ele>40.459017</ele>
        <time>2022-05-03T12:56:24.695Z</time>
      </trkpt>
      <trkpt lat="41.24874" lon="19.52066">
        <ele>40.399678</ele>
        <time>2022-05-03T12:56:26.659Z</time>
      </trkpt>
      <trkpt lat="41.24883" lon="19.52067">
        <ele>40.342691</ele>
        <time>2022-05-03T12:56:28.664Z</time>
      </trkpt>
      <trkpt lat="41.24893" lon="19.52068">
        <ele>40.285583</ele>
        <time>2022-05-03T12:56:30.620Z</time>
      </trkpt>
      <trkpt lat="41.24903" lon="19.52069">
        <ele>40.226299</ele>
        <time>2022-05-03T12:56:32.641Z</time>
      </trkpt>
      <trkpt lat="41.24913" lon="19.5207">
        <ele>40.762857</ele>
        <time>2022-05-03T12:56:34.638Z</time>
      </trkpt>
      <trkpt lat="41.24922" lon="19.5207">
        <ele>41.31556</ele>
        <time>2022-05-03T12:56:36.631Z</time>
      </trkpt>
      <trkpt lat="41.24931" lon="19.52071">
        <ele>41.856844</ele>
        <time>2022-05-03T12:56:38.645Z</time>
      </trkpt>
      <trkpt lat="41.2494" lon="19.52071">
        <ele>42.387094</ele>
        <time>2022-05-03T12:56:40.637Z</time>
      </trkpt>
      <trkpt lat="41.2495" lon="19.52071">
        <ele>42.962998</ele>
        <time>2022-05-03T12:56:42.663Z</time>
      </trkpt>
      <trkpt lat="41.2496" lon="19.52073">
        <ele>43.514847</ele>
        <time>2022-05-03T12:56:44.686Z</time>
      </trkpt>
      <trkpt lat="41.24969" lon="19.52074">
        <ele>44.057612</ele>
        <time>2022-05-03T12:56:46.660Z</time>
      </trkpt>
      <trkpt lat="41.24979" lon="19.52076">
        <ele>44.643527</ele>
        <time>2022-05-03T12:56:48.647Z</time>
      </trkpt>
      <trkpt lat="41.24989" lon="19.52076">
        <ele>45.209167</ele>
        <time>2022-05-03T12:56:50.630Z</time>
      </trkpt>
      <trkpt lat="41.25002" lon="19.52078">
        <ele>45.958392</ele>
        <time>2022-05-03T12:56:53.666Z</time>
      </trkpt>
      <trkpt lat="41.25013" lon="19.52081">
        <ele>46.611232</ele>
        <time>2022-05-03T12:56:56.622Z</time>
      </trkpt>
      <trkpt lat="41.25025" lon="19.52082">
        <ele>47.331066</ele>
        <time>2022-05-03T12:56:59.626Z</time>
      </trkpt>
      <trkpt lat="41.25034" lon="19.52082">
        <ele>47.860721</ele>
        <time>2022-05-03T12:57:01.618Z</time>
      </trkpt>
      <trkpt lat="41.25044" lon="19.52083">
        <ele>48.413978</ele>
        <time>2022-05-03T12:57:03.638Z</time>
      </trkpt>
      <trkpt lat="41.25053" lon="19.52086">
        <ele>48.988653</ele>
        <time>2022-05-03T12:57:05.648Z</time>
      </trkpt>
      <trkpt lat="41.25062" lon="19.52088">
        <ele>49.52262</ele>
        <time>2022-05-03T12:57:07.646Z</time>
      </trkpt>
      <trkpt lat="41.25075" lon="19.52089">
        <ele>50.298395</ele>
        <time>2022-05-03T12:57:10.628Z</time>
      </trkpt>
      <trkpt lat="41.25086" lon="19.52095">
        <ele>50.76195</ele>
        <time>2022-05-03T12:57:12.627Z</time>
      </trkpt>
      <trkpt lat="41.25096" lon="19.52096">
        <ele>50.911852</ele>
        <time>2022-05-03T12:57:14.634Z</time>
      </trkpt>
      <trkpt lat="41.25109" lon="19.52097">
        <ele>51.129419</ele>
        <time>2022-05-03T12:57:17.666Z</time>
      </trkpt>
      <trkpt lat="41.25122" lon="19.52096">
        <ele>51.334453</ele>
        <time>2022-05-03T12:57:20.646Z</time>
      </trkpt>
      <trkpt lat="41.25133" lon="19.52092">
        <ele>51.516863</ele>
        <time>2022-05-03T12:57:23.646Z</time>
      </trkpt>
      <trkpt lat="41.25146" lon="19.52092">
        <ele>51.718361</ele>
        <time>2022-05-03T12:57:26.634Z</time>
      </trkpt>
      <trkpt lat="41.25159" lon="19.52094">
        <ele>51.922175</ele>
        <time>2022-05-03T12:57:29.674Z</time>
      </trkpt>
      <trkpt lat="41.25171" lon="19.52094">
        <ele>52.123743</ele>
        <time>2022-05-03T12:57:32.635Z</time>
      </trkpt>
      <trkpt lat="41.25183" lon="19.52096">
        <ele>52.31056</ele>
        <time>2022-05-03T12:57:35.644Z</time>
      </trkpt>
      <trkpt lat="41.25192" lon="19.52097">
        <ele>52.458462</ele>
        <time>2022-05-03T12:57:38.633Z</time>
      </trkpt>
      <trkpt lat="41.25202" lon="19.52096">
        <ele>52.616141</ele>
        <time>2022-05-03T12:57:41.640Z</time>
      </trkpt>
      <trkpt lat="41.25214" lon="19.52096">
        <ele>52.801736</ele>
        <time>2022-05-03T12:57:44.640Z</time>
      </trkpt>
      <trkpt lat="41.25227" lon="19.52098">
        <ele>53.006302</ele>
        <time>2022-05-03T12:57:47.644Z</time>
      </trkpt>
      <trkpt lat="41.25239" lon="19.52096">
        <ele>53.199294</ele>
        <time>2022-05-03T12:57:50.642Z</time>
      </trkpt>
      <trkpt lat="41.25252" lon="19.52096">
        <ele>53.402409</ele>
        <time>2022-05-03T12:57:53.651Z</time>
      </trkpt>
      <trkpt lat="41.25263" lon="19.52093">
        <ele>53.550253</ele>
        <time>2022-05-03T12:57:56.643Z</time>
      </trkpt>
      <trkpt lat="41.25275" lon="19.52091">
        <ele>53.593806</ele>
        <time>2022-05-03T12:57:59.630Z</time>
      </trkpt>
      <trkpt lat="41.25287" lon="19.52089">
        <ele>53.638483</ele>
        <time>2022-05-03T12:58:02.639Z</time>
      </trkpt>
      <trkpt lat="41.253" lon="19.52089">
        <ele>53.684287</ele>
        <time>2022-05-03T12:58:05.651Z</time>
      </trkpt>
      <trkpt lat="41.25312" lon="19.5209">
        <ele>53.729823</ele>
        <time>2022-05-03T12:58:08.627Z</time>
      </trkpt>
      <trkpt lat="41.25324" lon="19.52091">
        <ele>53.774629</ele>
        <time>2022-05-03T12:58:11.644Z</time>
      </trkpt>
      <trkpt lat="41.25335" lon="19.5209">
        <ele>53.816166</ele>
        <time>2022-05-03T12:58:14.619Z</time>
      </trkpt>
      <trkpt lat="41.25347" lon="19.52089">
        <ele>53.856847</ele>
        <time>2022-05-03T12:58:17.665Z</time>
      </trkpt>
      <trkpt lat="41.25356" lon="19.52084">
        <ele>53.894283</ele>
        <time>2022-05-03T12:58:21.643Z</time>
      </trkpt>
      <trkpt lat="41.25367" lon="19.52082">
        <ele>53.936574</ele>
        <time>2022-05-03T12:58:25.634Z</time>
      </trkpt>
      <trkpt lat="41.25378" lon="19.52082">
        <ele>53.975424</ele>
        <time>2022-05-03T12:58:28.654Z</time>
      </trkpt>
      <trkpt lat="41.25389" lon="19.52082">
        <ele>54.017204</ele>
        <time>2022-05-03T12:58:31.638Z</time>
      </trkpt>
      <trkpt lat="41.25401" lon="19.52085">
        <ele>54.059993</ele>
        <time>2022-05-03T12:58:34.656Z</time>
      </trkpt>
      <trkpt lat="41.25414" lon="19.52086">
        <ele>54.107341</ele>
        <time>2022-05-03T12:58:37.624Z</time>
      </trkpt>
      <trkpt lat="41.25425" lon="19.52088">
        <ele>54.147659</ele>
        <time>2022-05-03T12:58:40.628Z</time>
      </trkpt>
      <trkpt lat="41.25436" lon="19.52088">
        <ele>54.188333</ele>
        <time>2022-05-03T12:58:43.622Z</time>
      </trkpt>
      <trkpt lat="41.25446" lon="19.52087">
        <ele>54.093259</ele>
        <time>2022-05-03T12:58:46.628Z</time>
      </trkpt>
      <trkpt lat="41.25455" lon="19.52083">
        <ele>53.957411</ele>
        <time>2022-05-03T12:58:49.656Z</time>
      </trkpt>
      <trkpt lat="41.25466" lon="19.52083">
        <ele>53.79462</ele>
        <time>2022-05-03T12:58:53.643Z</time>
      </trkpt>
      <trkpt lat="41.25476" lon="19.52086">
        <ele>53.649438</ele>
        <time>2022-05-03T12:58:57.642Z</time>
      </trkpt>
      <trkpt lat="41.25487" lon="19.52086">
        <ele>53.488042</ele>
        <time>2022-05-03T12:59:01.634Z</time>
      </trkpt>
      <trkpt lat="41.25499" lon="19.52088">
        <ele>53.32565</ele>
        <time>2022-05-03T12:59:05.637Z</time>
      </trkpt>
      <trkpt lat="41.2551" lon="19.52089">
        <ele>53.167747</ele>
        <time>2022-05-03T12:59:09.668Z</time>
      </trkpt>
      <trkpt lat="41.2552" lon="19.52089">
        <ele>53.02066</ele>
        <time>2022-05-03T12:59:12.681Z</time>
      </trkpt>
      <trkpt lat="41.25532" lon="19.52087">
        <ele>52.842651</ele>
        <time>2022-05-03T12:59:16.639Z</time>
      </trkpt>
      <trkpt lat="41.25546" lon="19.52084">
        <ele>52.640634</ele>
        <time>2022-05-03T12:59:19.641Z</time>
      </trkpt>
      <trkpt lat="41.25556" lon="19.52079">
        <ele>52.496068</ele>
        <time>2022-05-03T12:59:21.632Z</time>
      </trkpt>
      <trkpt lat="41.25565" lon="19.52073">
        <ele>52.349846</ele>
        <time>2022-05-03T12:59:23.682Z</time>
      </trkpt>
      <trkpt lat="41.25575" lon="19.52067">
        <ele>52.195338</ele>
        <time>2022-05-03T12:59:25.647Z</time>
      </trkpt>
      <trkpt lat="41.25584" lon="19.52062">
        <ele>52.05342</ele>
        <time>2022-05-03T12:59:27.639Z</time>
      </trkpt>
      <trkpt lat="41.25596" lon="19.52059">
        <ele>51.882172</ele>
        <time>2022-05-03T12:59:30.628Z</time>
      </trkpt>
      <trkpt lat="41.25606" lon="19.52056">
        <ele>51.733227</ele>
        <time>2022-05-03T12:59:33.620Z</time>
      </trkpt>
      <trkpt lat="41.25616" lon="19.52056">
        <ele>51.514546</ele>
        <time>2022-05-03T12:59:36.645Z</time>
      </trkpt>
      <trkpt lat="41.25627" lon="19.52056">
        <ele>51.127697</ele>
        <time>2022-05-03T12:59:39.631Z</time>
      </trkpt>
      <trkpt lat="41.25637" lon="19.52054">
        <ele>50.751509</ele>
        <time>2022-05-03T12:59:42.616Z</time>
      </trkpt>
      <trkpt lat="41.25647" lon="19.52053">
        <ele>50.388792</ele>
        <time>2022-05-03T12:59:45.639Z</time>
      </trkpt>
      <trkpt lat="41.25659" lon="19.52054">
        <ele>49.950872</ele>
        <time>2022-05-03T12:59:49.634Z</time>
      </trkpt>
      <trkpt lat="41.25668" lon="19.52054">
        <ele>49.625722</ele>
        <time>2022-05-03T12:59:52.643Z</time>
      </trkpt>
      <trkpt lat="41.2568" lon="19.52054">
        <ele>49.195098</ele>
        <time>2022-05-03T12:59:56.656Z</time>
      </trkpt>
      <trkpt lat="41.25691" lon="19.52054">
        <ele>48.768167</ele>
        <time>2022-05-03T13:00:00.621Z</time>
      </trkpt>
      <trkpt lat="41.25702" lon="19.52055">
        <ele>48.391542</ele>
        <time>2022-05-03T13:00:05.624Z</time>
      </trkpt>
      <trkpt lat="41.25711" lon="19.52055">
        <ele>48.033802</ele>
        <time>2022-05-03T13:00:10.639Z</time>
      </trkpt>
      <trkpt lat="41.2572" lon="19.5206">
        <ele>47.701008</ele>
        <time>2022-05-03T13:00:14.681Z</time>
      </trkpt>
      <trkpt lat="41.2573" lon="19.52066">
        <ele>47.295726</ele>
        <time>2022-05-03T13:00:19.640Z</time>
      </trkpt>
      <trkpt lat="41.25739" lon="19.5207">
        <ele>46.952019</ele>
        <time>2022-05-03T13:00:23.636Z</time>
      </trkpt>
      <trkpt lat="41.25751" lon="19.52074">
        <ele>46.499274</ele>
        <time>2022-05-03T13:00:27.656Z</time>
      </trkpt>
      <trkpt lat="41.2576" lon="19.52077">
        <ele>46.158476</ele>
        <time>2022-05-03T13:00:30.637Z</time>
      </trkpt>
      <trkpt lat="41.25769" lon="19.52079">
        <ele>45.822795</ele>
        <time>2022-05-03T13:00:33.638Z</time>
      </trkpt>
      <trkpt lat="41.2578" lon="19.52082">
        <ele>45.418251</ele>
        <time>2022-05-03T13:00:37.637Z</time>
      </trkpt>
      <trkpt lat="41.25789" lon="19.52082">
        <ele>45.071615</ele>
        <time>2022-05-03T13:00:40.634Z</time>
      </trkpt>
      <trkpt lat="41.25799" lon="19.52082">
        <ele>45.403771</ele>
        <time>2022-05-03T13:00:44.636Z</time>
      </trkpt>
      <trkpt lat="41.2581" lon="19.52081">
        <ele>45.759233</ele>
        <time>2022-05-03T13:00:50.658Z</time>
      </trkpt>
      <trkpt lat="41.25819" lon="19.52079">
        <ele>46.084329</ele>
        <time>2022-05-03T13:00:54.648Z</time>
      </trkpt>
      <trkpt lat="41.25829" lon="19.52079">
        <ele>46.408436</ele>
        <time>2022-05-03T13:00:58.624Z</time>
      </trkpt>
      <trkpt lat="41.25838" lon="19.5208">
        <ele>46.724267</ele>
        <time>2022-05-03T13:01:01.635Z</time>
      </trkpt>
      <trkpt lat="41.25847" lon="19.52081">
        <ele>47.0423</ele>
        <time>2022-05-03T13:01:04.649Z</time>
      </trkpt>
      <trkpt lat="41.25857" lon="19.52081">
        <ele>47.376558</ele>
        <time>2022-05-03T13:01:07.640Z</time>
      </trkpt>
      <trkpt lat="41.25868" lon="19.5208">
        <ele>47.760239</ele>
        <time>2022-05-03T13:01:11.646Z</time>
      </trkpt>
      <trkpt lat="41.25877" lon="19.5208">
        <ele>48.067726</ele>
        <time>2022-05-03T13:01:15.644Z</time>
      </trkpt>
      <trkpt lat="41.25888" lon="19.52079">
        <ele>48.450961</ele>
        <time>2022-05-03T13:01:20.644Z</time>
      </trkpt>
      <trkpt lat="41.25899" lon="19.52078">
        <ele>48.817201</ele>
        <time>2022-05-03T13:01:24.636Z</time>
      </trkpt>
      <trkpt lat="41.25908" lon="19.52079">
        <ele>49.134768</ele>
        <time>2022-05-03T13:01:28.652Z</time>
      </trkpt>
      <trkpt lat="41.25919" lon="19.52077">
        <ele>49.487415</ele>
        <time>2022-05-03T13:01:33.634Z</time>
      </trkpt>
      <trkpt lat="41.25928" lon="19.52077">
        <ele>49.797884</ele>
        <time>2022-05-03T13:01:37.638Z</time>
      </trkpt>
      <trkpt lat="41.25938" lon="19.52078">
        <ele>50.136719</ele>
        <time>2022-05-03T13:01:42.645Z</time>
      </trkpt>
      <trkpt lat="41.25947" lon="19.5208">
        <ele>50.445773</ele>
        <time>2022-05-03T13:01:46.637Z</time>
      </trkpt>
      <trkpt lat="41.25957" lon="19.5208">
        <ele>50.810718</ele>
        <time>2022-05-03T13:01:50.648Z</time>
      </trkpt>
      <trkpt lat="41.25968" lon="19.52082">
        <ele>51.159786</ele>
        <time>2022-05-03T13:01:54.646Z</time>
      </trkpt>
      <trkpt lat="41.25979" lon="19.52082">
        <ele>51.190757</ele>
        <time>2022-05-03T13:01:59.624Z</time>
      </trkpt>
      <trkpt lat="41.2599" lon="19.52082">
        <ele>51.178785</ele>
        <time>2022-05-03T13:02:04.640Z</time>
      </trkpt>
      <trkpt lat="41.25997" lon="19.52092">
        <ele>51.167057</ele>
        <time>2022-05-03T13:02:09.666Z</time>
      </trkpt>
      <trkpt lat="41.25996" lon="19.52107">
        <ele>51.154726</ele>
        <time>2022-05-03T13:02:14.620Z</time>
      </trkpt>
      <trkpt lat="41.25996" lon="19.52119">
        <ele>51.144726</ele>
        <time>2022-05-03T13:02:18.617Z</time>
      </trkpt>
      <trkpt lat="41.25998" lon="19.52133">
        <ele>51.132935</ele>
        <time>2022-05-03T13:02:22.634Z</time>
      </trkpt>
      <trkpt lat="41.26" lon="19.52146">
        <ele>51.121691</ele>
        <time>2022-05-03T13:02:25.703Z</time>
      </trkpt>
      <trkpt lat="41.26002" lon="19.52159">
        <ele>51.110735</ele>
        <time>2022-05-03T13:02:28.633Z</time>
      </trkpt>
      <trkpt lat="41.26004" lon="19.52172">
        <ele>51.10035</ele>
        <time>2022-05-03T13:02:31.640Z</time>
      </trkpt>
      <trkpt lat="41.26006" lon="19.52184">
        <ele>51.090339</ele>
        <time>2022-05-03T13:02:34.624Z</time>
      </trkpt>
      <trkpt lat="41.2601" lon="19.52197">
        <ele>51.078741</ele>
        <time>2022-05-03T13:02:38.647Z</time>
      </trkpt>
      <trkpt lat="41.26012" lon="19.52209">
        <ele>51.068141</ele>
        <time>2022-05-03T13:02:41.646Z</time>
      </trkpt>
      <trkpt lat="41.26014" lon="19.52222">
        <ele>51.057266</ele>
        <time>2022-05-03T13:02:44.643Z</time>
      </trkpt>
      <trkpt lat="41.26017" lon="19.52236">
        <ele>51.045599</ele>
        <time>2022-05-03T13:02:47.633Z</time>
      </trkpt>
      <trkpt lat="41.26017" lon="19.52249">
        <ele>51.03501</ele>
        <time>2022-05-03T13:02:50.627Z</time>
      </trkpt>
      <trkpt lat="41.26019" lon="19.52263">
        <ele>51.023252</ele>
        <time>2022-05-03T13:02:53.637Z</time>
      </trkpt>
      <trkpt lat="41.2602" lon="19.52278">
        <ele>51.01014</ele>
        <time>2022-05-03T13:02:56.623Z</time>
      </trkpt>
      <trkpt lat="41.26022" lon="19.52294">
        <ele>50.807418</ele>
        <time>2022-05-03T13:02:59.628Z</time>
      </trkpt>
      <trkpt lat="41.26023" lon="19.5231">
        <ele>50.450227</ele>
        <time>2022-05-03T13:03:02.648Z</time>
      </trkpt>
      <trkpt lat="41.26026" lon="19.52324">
        <ele>50.109911</ele>
        <time>2022-05-03T13:03:05.654Z</time>
      </trkpt>
      <trkpt lat="41.26028" lon="19.52337">
        <ele>49.809147</ele>
        <time>2022-05-03T13:03:08.626Z</time>
      </trkpt>
      <trkpt lat="41.26027" lon="19.52351">
        <ele>49.499892</ele>
        <time>2022-05-03T13:03:11.635Z</time>
      </trkpt>
      <trkpt lat="41.2603" lon="19.52362">
        <ele>49.219216</ele>
        <time>2022-05-03T13:03:14.656Z</time>
      </trkpt>
      <trkpt lat="41.26032" lon="19.52377">
        <ele>48.86578</ele>
        <time>2022-05-03T13:03:18.667Z</time>
      </trkpt>
      <trkpt lat="41.26034" lon="19.52391">
        <ele>48.540997</ele>
        <time>2022-05-03T13:03:21.659Z</time>
      </trkpt>
      <trkpt lat="41.26037" lon="19.52404">
        <ele>48.239838</ele>
        <time>2022-05-03T13:03:24.670Z</time>
      </trkpt>
      <trkpt lat="41.26039" lon="19.52417">
        <ele>47.928894</ele>
        <time>2022-05-03T13:03:27.631Z</time>
      </trkpt>
      <trkpt lat="41.26039" lon="19.52431">
        <ele>47.610731</ele>
        <time>2022-05-03T13:03:30.672Z</time>
      </trkpt>
      <trkpt lat="41.26042" lon="19.52446">
        <ele>47.253737</ele>
        <time>2022-05-03T13:03:33.650Z</time>
      </trkpt>
      <trkpt lat="41.26043" lon="19.52461">
        <ele>46.907955</ele>
        <time>2022-05-03T13:03:36.667Z</time>
      </trkpt>
      <trkpt lat="41.26046" lon="19.52476">
        <ele>46.561653</ele>
        <time>2022-05-03T13:03:40.639Z</time>
      </trkpt>
      <trkpt lat="41.26046" lon="19.52488">
        <ele>46.275394</ele>
        <time>2022-05-03T13:03:44.644Z</time>
      </trkpt>
      <trkpt lat="41.26045" lon="19.525">
        <ele>46.002527</ele>
        <time>2022-05-03T13:03:50.622Z</time>
      </trkpt>
      <trkpt lat="41.26045" lon="19.52515">
        <ele>45.661276</ele>
        <time>2022-05-03T13:04:18.646Z</time>
      </trkpt>
      <trkpt lat="41.26055" lon="19.5252">
        <ele>45.549559</ele>
        <time>2022-05-03T13:04:30.643Z</time>
      </trkpt>
      <trkpt lat="41.26064" lon="19.52517">
        <ele>45.582829</ele>
        <time>2022-05-03T13:04:33.642Z</time>
      </trkpt>
      <trkpt lat="41.26074" lon="19.52515">
        <ele>45.61888</ele>
        <time>2022-05-03T13:04:36.649Z</time>
      </trkpt>
      <trkpt lat="41.26083" lon="19.52513">
        <ele>45.654179</ele>
        <time>2022-05-03T13:04:39.636Z</time>
      </trkpt>
      <trkpt lat="41.26093" lon="19.5251">
        <ele>45.690238</ele>
        <time>2022-05-03T13:04:42.639Z</time>
      </trkpt>
      <trkpt lat="41.26102" lon="19.52508">
        <ele>45.724669</ele>
        <time>2022-05-03T13:04:45.684Z</time>
      </trkpt>
      <trkpt lat="41.26112" lon="19.52505">
        <ele>45.758645</ele>
        <time>2022-05-03T13:04:48.623Z</time>
      </trkpt>
      <trkpt lat="41.26122" lon="19.52503">
        <ele>45.794591</ele>
        <time>2022-05-03T13:04:51.662Z</time>
      </trkpt>
      <trkpt lat="41.26131" lon="19.52499">
        <ele>45.830204</ele>
        <time>2022-05-03T13:04:54.639Z</time>
      </trkpt>
      <trkpt lat="41.2614" lon="19.52496">
        <ele>45.863249</ele>
        <time>2022-05-03T13:04:57.638Z</time>
      </trkpt>
      <trkpt lat="41.2615" lon="19.52493">
        <ele>45.898731</ele>
        <time>2022-05-03T13:05:00.638Z</time>
      </trkpt>
      <trkpt lat="41.2616" lon="19.52491">
        <ele>45.935369</ele>
        <time>2022-05-03T13:05:03.643Z</time>
      </trkpt>
      <trkpt lat="41.26169" lon="19.52488">
        <ele>45.96974</ele>
        <time>2022-05-03T13:05:06.645Z</time>
      </trkpt>
      <trkpt lat="41.26179" lon="19.52485">
        <ele>46.007444</ele>
        <time>2022-05-03T13:05:09.635Z</time>
      </trkpt>
      <trkpt lat="41.26189" lon="19.52482">
        <ele>46.043742</ele>
        <time>2022-05-03T13:05:12.634Z</time>
      </trkpt>
      <trkpt lat="41.26199" lon="19.52479">
        <ele>46.080211</ele>
        <time>2022-05-03T13:05:15.633Z</time>
      </trkpt>
      <trkpt lat="41.26209" lon="19.52476">
        <ele>46.117284</ele>
        <time>2022-05-03T13:05:18.641Z</time>
      </trkpt>
      <trkpt lat="41.26219" lon="19.52472">
        <ele>46.15269</ele>
        <time>2022-05-03T13:05:21.635Z</time>
      </trkpt>
      <trkpt lat="41.26228" lon="19.52469">
        <ele>46.318913</ele>
        <time>2022-05-03T13:05:24.665Z</time>
      </trkpt>
      <trkpt lat="41.26239" lon="19.52466">
        <ele>46.746688</ele>
        <time>2022-05-03T13:05:27.637Z</time>
      </trkpt>
      <trkpt lat="41.26249" lon="19.52463">
        <ele>47.142599</ele>
        <time>2022-05-03T13:05:30.640Z</time>
      </trkpt>
      <trkpt lat="41.2626" lon="19.5246">
        <ele>47.539282</ele>
        <time>2022-05-03T13:05:33.662Z</time>
      </trkpt>
      <trkpt lat="41.2627" lon="19.52457">
        <ele>47.947004</ele>
        <time>2022-05-03T13:05:36.653Z</time>
      </trkpt>
      <trkpt lat="41.2628" lon="19.52454">
        <ele>48.352292</ele>
        <time>2022-05-03T13:05:39.633Z</time>
      </trkpt>
      <trkpt lat="41.26291" lon="19.52451">
        <ele>48.754639</ele>
        <time>2022-05-03T13:05:42.660Z</time>
      </trkpt>
      <trkpt lat="41.26301" lon="19.52448">
        <ele>49.15559</ele>
        <time>2022-05-03T13:05:45.643Z</time>
      </trkpt>
      <trkpt lat="41.26311" lon="19.52444">
        <ele>49.567685</ele>
        <time>2022-05-03T13:05:48.654Z</time>
      </trkpt>
      <trkpt lat="41.26323" lon="19.52441">
        <ele>50.015862</ele>
        <time>2022-05-03T13:05:51.651Z</time>
      </trkpt>
      <trkpt lat="41.26335" lon="19.52436">
        <ele>50.507959</ele>
        <time>2022-05-03T13:05:54.639Z</time>
      </trkpt>
      <trkpt lat="41.26345" lon="19.52431">
        <ele>50.891519</ele>
        <time>2022-05-03T13:05:56.634Z</time>
      </trkpt>
      <trkpt lat="41.26354" lon="19.52429">
        <ele>51.24522</ele>
        <time>2022-05-03T13:05:58.671Z</time>
      </trkpt>
      <trkpt lat="41.26367" lon="19.52425">
        <ele>51.756736</ele>
        <time>2022-05-03T13:06:01.625Z</time>
      </trkpt>
      <trkpt lat="41.26376" lon="19.52422">
        <ele>52.106726</ele>
        <time>2022-05-03T13:06:03.652Z</time>
      </trkpt>
      <trkpt lat="41.26385" lon="19.52419">
        <ele>52.464078</ele>
        <time>2022-05-03T13:06:05.635Z</time>
      </trkpt>
      <trkpt lat="41.26393" lon="19.52414">
        <ele>52.823824</ele>
        <time>2022-05-03T13:06:07.624Z</time>
      </trkpt>
      <trkpt lat="41.26403" lon="19.5241">
        <ele>52.886417</ele>
        <time>2022-05-03T13:06:09.684Z</time>
      </trkpt>
      <trkpt lat="41.26411" lon="19.52405">
        <ele>52.49786</ele>
        <time>2022-05-03T13:06:11.644Z</time>
      </trkpt>
      <trkpt lat="41.2642" lon="19.524">
        <ele>52.10575</ele>
        <time>2022-05-03T13:06:13.622Z</time>
      </trkpt>
      <trkpt lat="41.26428" lon="19.52393">
        <ele>51.715773</ele>
        <time>2022-05-03T13:06:15.641Z</time>
      </trkpt>
      <trkpt lat="41.26439" lon="19.52384">
        <ele>51.180433</ele>
        <time>2022-05-03T13:06:18.666Z</time>
      </trkpt>
      <trkpt lat="41.26447" lon="19.52377">
        <ele>50.804951</ele>
        <time>2022-05-03T13:06:20.671Z</time>
      </trkpt>
      <trkpt lat="41.26455" lon="19.5237">
        <ele>50.419254</ele>
        <time>2022-05-03T13:06:22.637Z</time>
      </trkpt>
      <trkpt lat="41.26465" lon="19.5236">
        <ele>49.903986</ele>
        <time>2022-05-03T13:06:25.623Z</time>
      </trkpt>
      <trkpt lat="41.26476" lon="19.52351">
        <ele>49.377185</ele>
        <time>2022-05-03T13:06:28.635Z</time>
      </trkpt>
      <trkpt lat="41.26487" lon="19.52343">
        <ele>48.856035</ele>
        <time>2022-05-03T13:06:31.668Z</time>
      </trkpt>
      <trkpt lat="41.26495" lon="19.52337">
        <ele>48.487119</ele>
        <time>2022-05-03T13:06:33.656Z</time>
      </trkpt>
      <trkpt lat="41.26505" lon="19.52333">
        <ele>48.076578</ele>
        <time>2022-05-03T13:06:35.647Z</time>
      </trkpt>
      <trkpt lat="41.26516" lon="19.52331">
        <ele>47.613117</ele>
        <time>2022-05-03T13:06:37.623Z</time>
      </trkpt>
      <trkpt lat="41.26527" lon="19.52328">
        <ele>47.170787</ele>
        <time>2022-05-03T13:06:39.638Z</time>
      </trkpt>
      <trkpt lat="41.26536" lon="19.52324">
        <ele>46.783311</ele>
        <time>2022-05-03T13:06:41.645Z</time>
      </trkpt>
      <trkpt lat="41.26547" lon="19.52316">
        <ele>46.237148</ele>
        <time>2022-05-03T13:06:44.638Z</time>
      </trkpt>
      <trkpt lat="41.26558" lon="19.52306">
        <ele>45.717008</ele>
        <time>2022-05-03T13:06:47.644Z</time>
      </trkpt>
      <trkpt lat="41.26569" lon="19.52297">
        <ele>47.538239</ele>
        <time>2022-05-03T13:06:50.641Z</time>
      </trkpt>
      <trkpt lat="41.2658" lon="19.52287">
        <ele>49.37125</ele>
        <time>2022-05-03T13:06:53.642Z</time>
      </trkpt>
      <trkpt lat="41.26591" lon="19.52278">
        <ele>51.151506</ele>
        <time>2022-05-03T13:06:56.640Z</time>
      </trkpt>
      <trkpt lat="41.266" lon="19.52267">
        <ele>52.872167</ele>
        <time>2022-05-03T13:06:59.680Z</time>
      </trkpt>
      <trkpt lat="41.26608" lon="19.52254">
        <ele>54.645734</ele>
        <time>2022-05-03T13:07:02.637Z</time>
      </trkpt>
      <trkpt lat="41.26616" lon="19.5224">
        <ele>56.48225</ele>
        <time>2022-05-03T13:07:05.641Z</time>
      </trkpt>
      <trkpt lat="41.26624" lon="19.52229">
        <ele>58.090094</ele>
        <time>2022-05-03T13:07:08.644Z</time>
      </trkpt>
      <trkpt lat="41.26632" lon="19.52218">
        <ele>59.755135</ele>
        <time>2022-05-03T13:07:11.659Z</time>
      </trkpt>
      <trkpt lat="41.26642" lon="19.52209">
        <ele>61.412837</ele>
        <time>2022-05-03T13:07:14.655Z</time>
      </trkpt>
      <trkpt lat="41.26651" lon="19.522">
        <ele>62.961288</ele>
        <time>2022-05-03T13:07:17.634Z</time>
      </trkpt>
      <trkpt lat="41.2666" lon="19.52194">
        <ele>64.435709</ele>
        <time>2022-05-03T13:07:20.637Z</time>
      </trkpt>
      <trkpt lat="41.26671" lon="19.52193">
        <ele>65.974415</ele>
        <time>2022-05-03T13:07:25.623Z</time>
      </trkpt>
      <trkpt lat="41.2668" lon="19.52187">
        <ele>67.301308</ele>
        <time>2022-05-03T13:07:28.669Z</time>
      </trkpt>
      <trkpt lat="41.2669" lon="19.5218">
        <ele>68.925197</ele>
        <time>2022-05-03T13:07:31.640Z</time>
      </trkpt>
      <trkpt lat="41.267" lon="19.52173">
        <ele>70.542055</ele>
        <time>2022-05-03T13:07:34.626Z</time>
      </trkpt>
      <trkpt lat="41.26712" lon="19.52165">
        <ele>71.633026</ele>
        <time>2022-05-03T13:07:37.626Z</time>
      </trkpt>
      <trkpt lat="41.26723" lon="19.52156">
        <ele>72.51757</ele>
        <time>2022-05-03T13:07:40.635Z</time>
      </trkpt>
      <trkpt lat="41.26731" lon="19.52149">
        <ele>73.144916</ele>
        <time>2022-05-03T13:07:42.634Z</time>
      </trkpt>
      <trkpt lat="41.26741" lon="19.5214">
        <ele>73.989875</ele>
        <time>2022-05-03T13:07:45.731Z</time>
      </trkpt>
      <trkpt lat="41.26751" lon="19.52131">
        <ele>74.778438</ele>
        <time>2022-05-03T13:07:48.655Z</time>
      </trkpt>
      <trkpt lat="41.2676" lon="19.52123">
        <ele>75.549784</ele>
        <time>2022-05-03T13:07:51.622Z</time>
      </trkpt>
      <trkpt lat="41.26771" lon="19.52112">
        <ele>76.483085</ele>
        <time>2022-05-03T13:07:54.644Z</time>
      </trkpt>
      <trkpt lat="41.26777" lon="19.521">
        <ele>77.217865</ele>
        <time>2022-05-03T13:07:56.672Z</time>
      </trkpt>
      <trkpt lat="41.26785" lon="19.52089">
        <ele>77.965154</ele>
        <time>2022-05-03T13:07:58.640Z</time>
      </trkpt>
      <trkpt lat="41.26795" lon="19.52084">
        <ele>78.687021</ele>
        <time>2022-05-03T13:08:00.626Z</time>
      </trkpt>
      <trkpt lat="41.26804" lon="19.52079">
        <ele>79.346731</ele>
        <time>2022-05-03T13:08:02.627Z</time>
      </trkpt>
      <trkpt lat="41.26812" lon="19.52076">
        <ele>79.954218</ele>
        <time>2022-05-03T13:08:04.635Z</time>
      </trkpt>
      <trkpt lat="41.26821" lon="19.52071">
        <ele>80.568547</ele>
        <time>2022-05-03T13:08:06.635Z</time>
      </trkpt>
      <trkpt lat="41.26833" lon="19.52064">
        <ele>81.44597</ele>
        <time>2022-05-03T13:08:09.658Z</time>
      </trkpt>
      <trkpt lat="41.26844" lon="19.52056">
        <ele>82.355502</ele>
        <time>2022-05-03T13:08:12.638Z</time>
      </trkpt>
      <trkpt lat="41.26855" lon="19.52048">
        <ele>83.137133</ele>
        <time>2022-05-03T13:08:15.677Z</time>
      </trkpt>
      <trkpt lat="41.26865" lon="19.52042">
        <ele>83.255832</ele>
        <time>2022-05-03T13:08:18.655Z</time>
      </trkpt>
      <trkpt lat="41.26876" lon="19.52036">
        <ele>83.378739</ele>
        <time>2022-05-03T13:08:21.641Z</time>
      </trkpt>
      <trkpt lat="41.26885" lon="19.52032">
        <ele>83.484592</ele>
        <time>2022-05-03T13:08:24.642Z</time>
      </trkpt>
      <trkpt lat="41.26894" lon="19.52026">
        <ele>83.591212</ele>
        <time>2022-05-03T13:08:27.635Z</time>
      </trkpt>
      <trkpt lat="41.26904" lon="19.5202">
        <ele>83.707901</ele>
        <time>2022-05-03T13:08:30.655Z</time>
      </trkpt>
      <trkpt lat="41.26914" lon="19.52014">
        <ele>83.830134</ele>
        <time>2022-05-03T13:08:33.642Z</time>
      </trkpt>
      <trkpt lat="41.26923" lon="19.52005">
        <ele>83.949353</ele>
        <time>2022-05-03T13:08:36.672Z</time>
      </trkpt>
      <trkpt lat="41.26931" lon="19.51996">
        <ele>84.059702</ele>
        <time>2022-05-03T13:08:39.630Z</time>
      </trkpt>
      <trkpt lat="41.26938" lon="19.51988">
        <ele>84.161081</ele>
        <time>2022-05-03T13:08:41.624Z</time>
      </trkpt>
      <trkpt lat="41.26948" lon="19.51979">
        <ele>84.292517</ele>
        <time>2022-05-03T13:08:44.641Z</time>
      </trkpt>
      <trkpt lat="41.26958" lon="19.5197">
        <ele>84.414976</ele>
        <time>2022-05-03T13:08:47.672Z</time>
      </trkpt>
      <trkpt lat="41.26967" lon="19.5196">
        <ele>84.537532</ele>
        <time>2022-05-03T13:08:50.647Z</time>
      </trkpt>
      <trkpt lat="41.26976" lon="19.5195">
        <ele>84.667187</ele>
        <time>2022-05-03T13:08:53.635Z</time>
      </trkpt>
      <trkpt lat="41.26987" lon="19.5194">
        <ele>84.805233</ele>
        <time>2022-05-03T13:08:56.645Z</time>
      </trkpt>
      <trkpt lat="41.26996" lon="19.51932">
        <ele>84.927692</ele>
        <time>2022-05-03T13:08:59.634Z</time>
      </trkpt>
      <trkpt lat="41.27007" lon="19.51924">
        <ele>85.053676</ele>
        <time>2022-05-03T13:09:02.633Z</time>
      </trkpt>
      <trkpt lat="41.27017" lon="19.51916">
        <ele>84.353871</ele>
        <time>2022-05-03T13:09:05.627Z</time>
      </trkpt>
      <trkpt lat="41.27025" lon="19.51909">
        <ele>83.838398</ele>
        <time>2022-05-03T13:09:07.660Z</time>
      </trkpt>
      <trkpt lat="41.27033" lon="19.51901">
        <ele>83.282602</ele>
        <time>2022-05-03T13:09:09.621Z</time>
      </trkpt>
      <trkpt lat="41.27043" lon="19.5189">
        <ele>82.523597</ele>
        <time>2022-05-03T13:09:12.650Z</time>
      </trkpt>
      <trkpt lat="41.27053" lon="19.51879">
        <ele>81.800865</ele>
        <time>2022-05-03T13:09:15.629Z</time>
      </trkpt>
      <trkpt lat="41.27064" lon="19.5187">
        <ele>81.047183</ele>
        <time>2022-05-03T13:09:18.630Z</time>
      </trkpt>
      <trkpt lat="41.27072" lon="19.51864">
        <ele>80.516821</ele>
        <time>2022-05-03T13:09:20.660Z</time>
      </trkpt>
      <trkpt lat="41.27081" lon="19.51858">
        <ele>79.949678</ele>
        <time>2022-05-03T13:09:22.631Z</time>
      </trkpt>
      <trkpt lat="41.27091" lon="19.51849">
        <ele>79.297764</ele>
        <time>2022-05-03T13:09:24.651Z</time>
      </trkpt>
      <trkpt lat="41.271" lon="19.51842">
        <ele>78.68338</ele>
        <time>2022-05-03T13:09:26.645Z</time>
      </trkpt>
      <trkpt lat="41.2711" lon="19.51834">
        <ele>78.066724</ele>
        <time>2022-05-03T13:09:28.654Z</time>
      </trkpt>
      <trkpt lat="41.27118" lon="19.51826">
        <ele>77.471357</ele>
        <time>2022-05-03T13:09:30.632Z</time>
      </trkpt>
      <trkpt lat="41.27128" lon="19.51819">
        <ele>76.850497</ele>
        <time>2022-05-03T13:09:32.636Z</time>
      </trkpt>
      <trkpt lat="41.27138" lon="19.51813">
        <ele>76.228652</ele>
        <time>2022-05-03T13:09:34.638Z</time>
      </trkpt>
      <trkpt lat="41.27147" lon="19.51806">
        <ele>75.664638</ele>
        <time>2022-05-03T13:09:36.625Z</time>
      </trkpt>
      <trkpt lat="41.27155" lon="19.51801">
        <ele>75.117688</ele>
        <time>2022-05-03T13:09:38.626Z</time>
      </trkpt>
      <trkpt lat="41.27166" lon="19.51792">
        <ele>73.976557</ele>
        <time>2022-05-03T13:09:41.638Z</time>
      </trkpt>
      <trkpt lat="41.27177" lon="19.51781">
        <ele>72.594509</ele>
        <time>2022-05-03T13:09:44.639Z</time>
      </trkpt>
      <trkpt lat="41.27185" lon="19.51775">
        <ele>71.66277</ele>
        <time>2022-05-03T13:09:46.644Z</time>
      </trkpt>
      <trkpt lat="41.27193" lon="19.51769">
        <ele>70.701404</ele>
        <time>2022-05-03T13:09:48.630Z</time>
      </trkpt>
      <trkpt lat="41.27201" lon="19.5176">
        <ele>69.63693</ele>
        <time>2022-05-03T13:09:50.625Z</time>
      </trkpt>
      <trkpt lat="41.27209" lon="19.51754">
        <ele>68.6795</ele>
        <time>2022-05-03T13:09:52.638Z</time>
      </trkpt>
      <trkpt lat="41.27218" lon="19.51749">
        <ele>67.692975</ele>
        <time>2022-05-03T13:09:54.635Z</time>
      </trkpt>
      <trkpt lat="41.27226" lon="19.51745">
        <ele>66.763149</ele>
        <time>2022-05-03T13:09:56.620Z</time>
      </trkpt>
      <trkpt lat="41.27235" lon="19.5174">
        <ele>65.763297</ele>
        <time>2022-05-03T13:09:58.636Z</time>
      </trkpt>
      <trkpt lat="41.27243" lon="19.51736">
        <ele>64.826848</ele>
        <time>2022-05-03T13:10:00.624Z</time>
      </trkpt>
      <trkpt lat="41.27256" lon="19.51729">
        <ele>63.420797</ele>
        <time>2022-05-03T13:10:03.652Z</time>
      </trkpt>
      <trkpt lat="41.27265" lon="19.51726">
        <ele>62.44195</ele>
        <time>2022-05-03T13:10:05.622Z</time>
      </trkpt>
      <trkpt lat="41.27279" lon="19.51721">
        <ele>61.004816</ele>
        <time>2022-05-03T13:10:08.635Z</time>
      </trkpt>
      <trkpt lat="41.27288" lon="19.51718">
        <ele>59.963108</ele>
        <time>2022-05-03T13:10:10.688Z</time>
      </trkpt>
      <trkpt lat="41.27301" lon="19.51714">
        <ele>58.596759</ele>
        <time>2022-05-03T13:10:13.633Z</time>
      </trkpt>
      <trkpt lat="41.2731" lon="19.51712">
        <ele>57.64028</ele>
        <time>2022-05-03T13:10:15.639Z</time>
      </trkpt>
      <trkpt lat="41.2732" lon="19.51709">
        <ele>56.625566</ele>
        <time>2022-05-03T13:10:17.666Z</time>
      </trkpt>
      <trkpt lat="41.27329" lon="19.51705">
        <ele>56.180459</ele>
        <time>2022-05-03T13:10:19.643Z</time>
      </trkpt>
      <trkpt lat="41.27338" lon="19.51701">
        <ele>56.014399</ele>
        <time>2022-05-03T13:10:21.652Z</time>
      </trkpt>
      <trkpt lat="41.2735" lon="19.51694">
        <ele>55.797472</ele>
        <time>2022-05-03T13:10:24.639Z</time>
      </trkpt>
      <trkpt lat="41.27363" lon="19.51689">
        <ele>55.575512</ele>
        <time>2022-05-03T13:10:27.647Z</time>
      </trkpt>
      <trkpt lat="41.27375" lon="19.51685">
        <ele>55.35871</ele>
        <time>2022-05-03T13:10:30.606Z</time>
      </trkpt>
      <trkpt lat="41.27388" lon="19.51682">
        <ele>55.147136</ele>
        <time>2022-05-03T13:10:33.633Z</time>
      </trkpt>
      <trkpt lat="41.27401" lon="19.51674">
        <ele>54.903437</ele>
        <time>2022-05-03T13:10:36.631Z</time>
      </trkpt>
      <trkpt lat="41.27411" lon="19.51667">
        <ele>54.716556</ele>
        <time>2022-05-03T13:10:38.653Z</time>
      </trkpt>
      <trkpt lat="41.27419" lon="19.51662">
        <ele>54.550092</ele>
        <time>2022-05-03T13:10:40.702Z</time>
      </trkpt>
      <trkpt lat="41.27428" lon="19.51657">
        <ele>54.392404</ele>
        <time>2022-05-03T13:10:42.645Z</time>
      </trkpt>
      <trkpt lat="41.27438" lon="19.51654">
        <ele>54.215775</ele>
        <time>2022-05-03T13:10:44.641Z</time>
      </trkpt>
      <trkpt lat="41.27449" lon="19.51652">
        <ele>54.0381</ele>
        <time>2022-05-03T13:10:46.637Z</time>
      </trkpt>
      <trkpt lat="41.27458" lon="19.51649">
        <ele>53.874358</ele>
        <time>2022-05-03T13:10:48.636Z</time>
      </trkpt>
      <trkpt lat="41.27466" lon="19.51643">
        <ele>53.715841</ele>
        <time>2022-05-03T13:10:50.663Z</time>
      </trkpt>
      <trkpt lat="41.27475" lon="19.51638">
        <ele>53.547305</ele>
        <time>2022-05-03T13:10:52.638Z</time>
      </trkpt>
      <trkpt lat="41.27486" lon="19.51634">
        <ele>53.367559</ele>
        <time>2022-05-03T13:10:54.633Z</time>
      </trkpt>
      <trkpt lat="41.27496" lon="19.51632">
        <ele>53.433049</ele>
        <time>2022-05-03T13:10:56.671Z</time>
      </trkpt>
      <trkpt lat="41.27508" lon="19.51628">
        <ele>54.027379</ele>
        <time>2022-05-03T13:10:58.643Z</time>
      </trkpt>
      <trkpt lat="41.27519" lon="19.51625">
        <ele>54.618351</ele>
        <time>2022-05-03T13:11:00.640Z</time>
      </trkpt>
      <trkpt lat="41.27529" lon="19.51623">
        <ele>55.157885</ele>
        <time>2022-05-03T13:11:02.623Z</time>
      </trkpt>
      <trkpt lat="41.2754" lon="19.5162">
        <ele>55.71021</ele>
        <time>2022-05-03T13:11:04.639Z</time>
      </trkpt>
      <trkpt lat="41.2755" lon="19.51615">
        <ele>56.272809</ele>
        <time>2022-05-03T13:11:06.637Z</time>
      </trkpt>
      <trkpt lat="41.2756" lon="19.51611">
        <ele>56.835971</ele>
        <time>2022-05-03T13:11:08.635Z</time>
      </trkpt>
      <trkpt lat="41.2757" lon="19.51607">
        <ele>57.345799</ele>
        <time>2022-05-03T13:11:10.636Z</time>
      </trkpt>
      <trkpt lat="41.27579" lon="19.51604">
        <ele>57.831289</ele>
        <time>2022-05-03T13:11:12.636Z</time>
      </trkpt>
      <trkpt lat="41.27588" lon="19.51599">
        <ele>58.357183</ele>
        <time>2022-05-03T13:11:14.658Z</time>
      </trkpt>
      <trkpt lat="41.27596" lon="19.51593">
        <ele>58.82644</ele>
        <time>2022-05-03T13:11:16.639Z</time>
      </trkpt>
      <trkpt lat="41.27604" lon="19.51587">
        <ele>59.304241</ele>
        <time>2022-05-03T13:11:18.644Z</time>
      </trkpt>
      <trkpt lat="41.27613" lon="19.5158">
        <ele>59.844103</ele>
        <time>2022-05-03T13:11:20.632Z</time>
      </trkpt>
      <trkpt lat="41.27622" lon="19.51575">
        <ele>60.313874</ele>
        <time>2022-05-03T13:11:22.640Z</time>
      </trkpt>
      <trkpt lat="41.27633" lon="19.5157">
        <ele>60.943782</ele>
        <time>2022-05-03T13:11:25.648Z</time>
      </trkpt>
      <trkpt lat="41.27643" lon="19.51568">
        <ele>61.453468</ele>
        <time>2022-05-03T13:11:27.656Z</time>
      </trkpt>
      <trkpt lat="41.27653" lon="19.51566">
        <ele>61.959415</ele>
        <time>2022-05-03T13:11:29.646Z</time>
      </trkpt>
      <trkpt lat="41.27662" lon="19.51564">
        <ele>62.439432</ele>
        <time>2022-05-03T13:11:31.634Z</time>
      </trkpt>
      <trkpt lat="41.27672" lon="19.51561">
        <ele>62.741179</ele>
        <time>2022-05-03T13:11:33.646Z</time>
      </trkpt>
      <trkpt lat="41.27682" lon="19.51558">
        <ele>63.011733</ele>
        <time>2022-05-03T13:11:35.676Z</time>
      </trkpt>
      <trkpt lat="41.27692" lon="19.51553">
        <ele>63.271419</ele>
        <time>2022-05-03T13:11:37.624Z</time>
      </trkpt>
      <trkpt lat="41.277" lon="19.51547">
        <ele>63.496973</ele>
        <time>2022-05-03T13:11:39.652Z</time>
      </trkpt>
      <trkpt lat="41.27713" lon="19.51541">
        <ele>63.819435</ele>
        <time>2022-05-03T13:11:42.629Z</time>
      </trkpt>
      <trkpt lat="41.27724" lon="19.51538">
        <ele>64.106079</ele>
        <time>2022-05-03T13:11:44.634Z</time>
      </trkpt>
      <trkpt lat="41.27736" lon="19.51532">
        <ele>64.422445</ele>
        <time>2022-05-03T13:11:46.677Z</time>
      </trkpt>
      <trkpt lat="41.27746" lon="19.51527">
        <ele>64.700736</ele>
        <time>2022-05-03T13:11:48.651Z</time>
      </trkpt>
      <trkpt lat="41.27756" lon="19.51521">
        <ele>64.969362</ele>
        <time>2022-05-03T13:11:50.638Z</time>
      </trkpt>
      <trkpt lat="41.27766" lon="19.51517">
        <ele>65.207675</ele>
        <time>2022-05-03T13:11:52.620Z</time>
      </trkpt>
      <trkpt lat="41.27777" lon="19.51509">
        <ele>65.53063</ele>
        <time>2022-05-03T13:11:55.640Z</time>
      </trkpt>
      <trkpt lat="41.27789" lon="19.51501">
        <ele>65.860089</ele>
        <time>2022-05-03T13:11:58.680Z</time>
      </trkpt>
      <trkpt lat="41.27799" lon="19.51495">
        <ele>66.127726</ele>
        <time>2022-05-03T13:12:01.648Z</time>
      </trkpt>
      <trkpt lat="41.2781" lon="19.51488">
        <ele>66.433098</ele>
        <time>2022-05-03T13:12:04.641Z</time>
      </trkpt>
      <trkpt lat="41.27821" lon="19.51482">
        <ele>66.723355</ele>
        <time>2022-05-03T13:12:07.639Z</time>
      </trkpt>
      <trkpt lat="41.27832" lon="19.51475">
        <ele>66.976346</ele>
        <time>2022-05-03T13:12:10.640Z</time>
      </trkpt>
      <trkpt lat="41.27843" lon="19.51469">
        <ele>66.890829</ele>
        <time>2022-05-03T13:12:13.636Z</time>
      </trkpt>
      <trkpt lat="41.27855" lon="19.51464">
        <ele>66.80246</ele>
        <time>2022-05-03T13:12:16.644Z</time>
      </trkpt>
      <trkpt lat="41.27864" lon="19.5146">
        <ele>66.731977</ele>
        <time>2022-05-03T13:12:18.637Z</time>
      </trkpt>
      <trkpt lat="41.27875" lon="19.51454">
        <ele>66.650941</ele>
        <time>2022-05-03T13:12:20.634Z</time>
      </trkpt>
      <trkpt lat="41.27886" lon="19.51449">
        <ele>66.565278</ele>
        <time>2022-05-03T13:12:22.635Z</time>
      </trkpt>
      <trkpt lat="41.27898" lon="19.51443">
        <ele>66.477568</ele>
        <time>2022-05-03T13:12:24.644Z</time>
      </trkpt>
      <trkpt lat="41.27909" lon="19.5144">
        <ele>66.39248</ele>
        <time>2022-05-03T13:12:26.664Z</time>
      </trkpt>
      <trkpt lat="41.2792" lon="19.51438">
        <ele>66.315593</ele>
        <time>2022-05-03T13:12:28.645Z</time>
      </trkpt>
      <trkpt lat="41.27931" lon="19.51436">
        <ele>66.239181</ele>
        <time>2022-05-03T13:12:30.627Z</time>
      </trkpt>
      <trkpt lat="41.27941" lon="19.51433">
        <ele>66.164176</ele>
        <time>2022-05-03T13:12:32.666Z</time>
      </trkpt>
      <trkpt lat="41.27951" lon="19.51432">
        <ele>66.095547</ele>
        <time>2022-05-03T13:12:34.635Z</time>
      </trkpt>
      <trkpt lat="41.2796" lon="19.51431">
        <ele>66.026636</ele>
        <time>2022-05-03T13:12:36.662Z</time>
      </trkpt>
      <trkpt lat="41.2797" lon="19.5143">
        <ele>65.958938</ele>
        <time>2022-05-03T13:12:38.671Z</time>
      </trkpt>
      <trkpt lat="41.2798" lon="19.51426">
        <ele>65.880747</ele>
        <time>2022-05-03T13:12:40.652Z</time>
      </trkpt>
      <trkpt lat="41.27991" lon="19.51423">
        <ele>65.800354</ele>
        <time>2022-05-03T13:12:42.626Z</time>
      </trkpt>
      <trkpt lat="41.28002" lon="19.51419">
        <ele>65.723749</ele>
        <time>2022-05-03T13:12:44.657Z</time>
      </trkpt>
      <trkpt lat="41.28012" lon="19.51417">
        <ele>65.283958</ele>
        <time>2022-05-03T13:12:46.654Z</time>
      </trkpt>
      <trkpt lat="41.28022" lon="19.51416">
        <ele>64.75492</ele>
        <time>2022-05-03T13:12:48.641Z</time>
      </trkpt>
      <trkpt lat="41.28032" lon="19.51416">
        <ele>64.238042</ele>
        <time>2022-05-03T13:12:50.620Z</time>
      </trkpt>
      <trkpt lat="41.28041" lon="19.51418">
        <ele>63.749287</ele>
        <time>2022-05-03T13:12:52.638Z</time>
      </trkpt>
      <trkpt lat="41.2805" lon="19.51421">
        <ele>63.258221</ele>
        <time>2022-05-03T13:12:54.632Z</time>
      </trkpt>
      <trkpt lat="41.2806" lon="19.51423">
        <ele>62.772488</ele>
        <time>2022-05-03T13:12:56.628Z</time>
      </trkpt>
      <trkpt lat="41.2807" lon="19.51425">
        <ele>62.246524</ele>
        <time>2022-05-03T13:12:58.630Z</time>
      </trkpt>
      <trkpt lat="41.2808" lon="19.51425">
        <ele>61.713846</ele>
        <time>2022-05-03T13:13:00.650Z</time>
      </trkpt>
      <trkpt lat="41.2809" lon="19.51426">
        <ele>61.171026</ele>
        <time>2022-05-03T13:13:02.626Z</time>
      </trkpt>
      <trkpt lat="41.28101" lon="19.51427">
        <ele>60.610089</ele>
        <time>2022-05-03T13:13:04.661Z</time>
      </trkpt>
      <trkpt lat="41.28113" lon="19.51427">
        <ele>60.004877</ele>
        <time>2022-05-03T13:13:06.638Z</time>
      </trkpt>
      <trkpt lat="41.28126" lon="19.51425">
        <ele>59.318176</ele>
        <time>2022-05-03T13:13:08.633Z</time>
      </trkpt>
      <trkpt lat="41.28138" lon="19.51426">
        <ele>58.691996</ele>
        <time>2022-05-03T13:13:10.628Z</time>
      </trkpt>
      <trkpt lat="41.28149" lon="19.51427">
        <ele>58.110975</ele>
        <time>2022-05-03T13:13:12.634Z</time>
      </trkpt>
      <trkpt lat="41.2816" lon="19.51427">
        <ele>57.510672</ele>
        <time>2022-05-03T13:13:14.639Z</time>
      </trkpt>
      <trkpt lat="41.28171" lon="19.51428">
        <ele>56.941776</ele>
        <time>2022-05-03T13:13:16.633Z</time>
      </trkpt>
      <trkpt lat="41.28182" lon="19.51428">
        <ele>56.367826</ele>
        <time>2022-05-03T13:13:18.645Z</time>
      </trkpt>
      <trkpt lat="41.28193" lon="19.51428">
        <ele>55.923972</ele>
        <time>2022-05-03T13:13:20.639Z</time>
      </trkpt>
      <trkpt lat="41.28204" lon="19.51429">
        <ele>55.49208</ele>
        <time>2022-05-03T13:13:22.632Z</time>
      </trkpt>
      <trkpt lat="41.28215" lon="19.5143">
        <ele>55.082722</ele>
        <time>2022-05-03T13:13:24.681Z</time>
      </trkpt>
      <trkpt lat="41.28225" lon="19.51431">
        <ele>54.677444</ele>
        <time>2022-05-03T13:13:26.629Z</time>
      </trkpt>
      <trkpt lat="41.28236" lon="19.51431">
        <ele>54.265077</ele>
        <time>2022-05-03T13:13:28.627Z</time>
      </trkpt>
      <trkpt lat="41.28247" lon="19.51431">
        <ele>53.829533</ele>
        <time>2022-05-03T13:13:30.660Z</time>
      </trkpt>
      <trkpt lat="41.28258" lon="19.5143">
        <ele>53.397532</ele>
        <time>2022-05-03T13:13:32.642Z</time>
      </trkpt>
      <trkpt lat="41.28269" lon="19.5143">
        <ele>52.985331</ele>
        <time>2022-05-03T13:13:34.645Z</time>
      </trkpt>
      <trkpt lat="41.28279" lon="19.51431">
        <ele>52.576757</ele>
        <time>2022-05-03T13:13:36.635Z</time>
      </trkpt>
      <trkpt lat="41.28289" lon="19.51432">
        <ele>52.17881</ele>
        <time>2022-05-03T13:13:38.638Z</time>
      </trkpt>
      <trkpt lat="41.283" lon="19.51433">
        <ele>51.780863</ele>
        <time>2022-05-03T13:13:40.644Z</time>
      </trkpt>
      <trkpt lat="41.2831" lon="19.51432">
        <ele>51.386791</ele>
        <time>2022-05-03T13:13:42.695Z</time>
      </trkpt>
      <trkpt lat="41.28319" lon="19.5143">
        <ele>51.018276</ele>
        <time>2022-05-03T13:13:44.674Z</time>
      </trkpt>
      <trkpt lat="41.28329" lon="19.5143">
        <ele>50.632586</ele>
        <time>2022-05-03T13:13:46.645Z</time>
      </trkpt>
      <trkpt lat="41.28339" lon="19.51429">
        <ele>50.232008</ele>
        <time>2022-05-03T13:13:48.640Z</time>
      </trkpt>
      <trkpt lat="41.2835" lon="19.5143">
        <ele>49.827067</ele>
        <time>2022-05-03T13:13:50.642Z</time>
      </trkpt>
      <trkpt lat="41.2836" lon="19.51429">
        <ele>49.425669</ele>
        <time>2022-05-03T13:13:52.640Z</time>
      </trkpt>
      <trkpt lat="41.2837" lon="19.51428">
        <ele>49.233535</ele>
        <time>2022-05-03T13:13:54.636Z</time>
      </trkpt>
      <trkpt lat="41.2838" lon="19.51426">
        <ele>49.115648</ele>
        <time>2022-05-03T13:13:56.643Z</time>
      </trkpt>
      <trkpt lat="41.28389" lon="19.51423">
        <ele>48.998712</ele>
        <time>2022-05-03T13:13:58.642Z</time>
      </trkpt>
      <trkpt lat="41.28399" lon="19.5142">
        <ele>48.876433</ele>
        <time>2022-05-03T13:14:00.639Z</time>
      </trkpt>
      <trkpt lat="41.28409" lon="19.51417">
        <ele>48.758309</ele>
        <time>2022-05-03T13:14:02.645Z</time>
      </trkpt>
      <trkpt lat="41.28418" lon="19.51415">
        <ele>48.645321</ele>
        <time>2022-05-03T13:14:04.666Z</time>
      </trkpt>
      <trkpt lat="41.28427" lon="19.51412">
        <ele>48.531747</ele>
        <time>2022-05-03T13:14:06.642Z</time>
      </trkpt>
      <trkpt lat="41.28435" lon="19.51408">
        <ele>48.420403</ele>
        <time>2022-05-03T13:14:08.634Z</time>
      </trkpt>
      <trkpt lat="41.28446" lon="19.51406">
        <ele>48.295135</ele>
        <time>2022-05-03T13:14:10.654Z</time>
      </trkpt>
      <trkpt lat="41.28456" lon="19.51406">
        <ele>48.168669</ele>
        <time>2022-05-03T13:14:12.625Z</time>
      </trkpt>
      <trkpt lat="41.28467" lon="19.51405">
        <ele>48.038546</ele>
        <time>2022-05-03T13:14:14.633Z</time>
      </trkpt>
      <trkpt lat="41.28477" lon="19.51403">
        <ele>47.910769</ele>
        <time>2022-05-03T13:14:16.636Z</time>
      </trkpt>
      <trkpt lat="41.28488" lon="19.514">
        <ele>47.777414</ele>
        <time>2022-05-03T13:14:18.636Z</time>
      </trkpt>
      <trkpt lat="41.28499" lon="19.51397">
        <ele>47.641279</ele>
        <time>2022-05-03T13:14:20.643Z</time>
      </trkpt>
      <trkpt lat="41.2851" lon="19.51393">
        <ele>47.504492</ele>
        <time>2022-05-03T13:14:22.631Z</time>
      </trkpt>
      <trkpt lat="41.2852" lon="19.51391">
        <ele>47.373104</ele>
        <time>2022-05-03T13:14:24.666Z</time>
      </trkpt>
      <trkpt lat="41.28531" lon="19.51389">
        <ele>47.242651</ele>
        <time>2022-05-03T13:14:26.663Z</time>
      </trkpt>
      <trkpt lat="41.28541" lon="19.51386">
        <ele>47.160719</ele>
        <time>2022-05-03T13:14:28.632Z</time>
      </trkpt>
      <trkpt lat="41.28551" lon="19.51383">
        <ele>47.251897</ele>
        <time>2022-05-03T13:14:30.629Z</time>
      </trkpt>
      <trkpt lat="41.28561" lon="19.51379">
        <ele>47.342233</ele>
        <time>2022-05-03T13:14:32.648Z</time>
      </trkpt>
      <trkpt lat="41.28571" lon="19.51375">
        <ele>47.436199</ele>
        <time>2022-05-03T13:14:34.640Z</time>
      </trkpt>
      <trkpt lat="41.2858" lon="19.51371">
        <ele>47.52614</ele>
        <time>2022-05-03T13:14:36.640Z</time>
      </trkpt>
      <trkpt lat="41.28589" lon="19.51369">
        <ele>47.608843</ele>
        <time>2022-05-03T13:14:38.626Z</time>
      </trkpt>
      <trkpt lat="41.28599" lon="19.51367">
        <ele>47.692905</ele>
        <time>2022-05-03T13:14:40.642Z</time>
      </trkpt>
      <trkpt lat="41.28608" lon="19.51363">
        <ele>47.776737</ele>
        <time>2022-05-03T13:14:42.624Z</time>
      </trkpt>
      <trkpt lat="41.28617" lon="19.5136">
        <ele>47.861261</ele>
        <time>2022-05-03T13:14:44.651Z</time>
      </trkpt>
      <trkpt lat="41.28626" lon="19.51357">
        <ele>47.94787</ele>
        <time>2022-05-03T13:14:46.621Z</time>
      </trkpt>
      <trkpt lat="41.28635" lon="19.51353">
        <ele>48.033435</ele>
        <time>2022-05-03T13:14:48.620Z</time>
      </trkpt>
      <trkpt lat="41.28645" lon="19.5135">
        <ele>48.120086</ele>
        <time>2022-05-03T13:14:50.656Z</time>
      </trkpt>
      <trkpt lat="41.28654" lon="19.51349">
        <ele>48.20332</ele>
        <time>2022-05-03T13:14:52.641Z</time>
      </trkpt>
      <trkpt lat="41.28663" lon="19.51346">
        <ele>48.291575</ele>
        <time>2022-05-03T13:14:54.666Z</time>
      </trkpt>
      <trkpt lat="41.28674" lon="19.51341">
        <ele>48.390154</ele>
        <time>2022-05-03T13:14:56.643Z</time>
      </trkpt>
      <trkpt lat="41.28683" lon="19.51337">
        <ele>48.476461</ele>
        <time>2022-05-03T13:14:58.628Z</time>
      </trkpt>
      <trkpt lat="41.28692" lon="19.51335">
        <ele>48.558758</ele>
        <time>2022-05-03T13:15:00.642Z</time>
      </trkpt>
      <trkpt lat="41.28701" lon="19.51334">
        <ele>48.642493</ele>
        <time>2022-05-03T13:15:02.692Z</time>
      </trkpt>
      <trkpt lat="41.28711" lon="19.51334">
        <ele>48.730508</ele>
        <time>2022-05-03T13:15:04.642Z</time>
      </trkpt>
      <trkpt lat="41.2872" lon="19.51333">
        <ele>48.475307</ele>
        <time>2022-05-03T13:15:06.642Z</time>
      </trkpt>
      <trkpt lat="41.2873" lon="19.51332">
        <ele>48.03533</ele>
        <time>2022-05-03T13:15:08.617Z</time>
      </trkpt>
      <trkpt lat="41.28741" lon="19.5133">
        <ele>47.599601</ele>
        <time>2022-05-03T13:15:10.629Z</time>
      </trkpt>
      <trkpt lat="41.2875" lon="19.51329">
        <ele>47.178383</ele>
        <time>2022-05-03T13:15:12.652Z</time>
      </trkpt>
      <trkpt lat="41.28761" lon="19.51328">
        <ele>46.740386</ele>
        <time>2022-05-03T13:15:14.642Z</time>
      </trkpt>
      <trkpt lat="41.28771" lon="19.51325">
        <ele>46.290166</ele>
        <time>2022-05-03T13:15:16.677Z</time>
      </trkpt>
      <trkpt lat="41.28782" lon="19.51323">
        <ele>45.828244</ele>
        <time>2022-05-03T13:15:18.647Z</time>
      </trkpt>
      <trkpt lat="41.28792" lon="19.5132">
        <ele>45.354841</ele>
        <time>2022-05-03T13:15:20.642Z</time>
      </trkpt>
      <trkpt lat="41.28803" lon="19.51318">
        <ele>44.88088</ele>
        <time>2022-05-03T13:15:22.686Z</time>
      </trkpt>
      <trkpt lat="41.28814" lon="19.51315">
        <ele>44.406919</ele>
        <time>2022-05-03T13:15:24.641Z</time>
      </trkpt>
      <trkpt lat="41.28824" lon="19.51312">
        <ele>43.964687</ele>
        <time>2022-05-03T13:15:26.646Z</time>
      </trkpt>
      <trkpt lat="41.28834" lon="19.51309">
        <ele>43.523766</ele>
        <time>2022-05-03T13:15:28.640Z</time>
      </trkpt>
      <trkpt lat="41.28845" lon="19.51307">
        <ele>43.068974</ele>
        <time>2022-05-03T13:15:30.639Z</time>
      </trkpt>
      <trkpt lat="41.28856" lon="19.51303">
        <ele>42.593221</ele>
        <time>2022-05-03T13:15:32.647Z</time>
      </trkpt>
      <trkpt lat="41.28866" lon="19.51299">
        <ele>42.128975</ele>
        <time>2022-05-03T13:15:34.641Z</time>
      </trkpt>
      <trkpt lat="41.28876" lon="19.51294">
        <ele>41.65991</ele>
        <time>2022-05-03T13:15:36.644Z</time>
      </trkpt>
      <trkpt lat="41.28887" lon="19.5129">
        <ele>41.197918</ele>
        <time>2022-05-03T13:15:38.640Z</time>
      </trkpt>
      <trkpt lat="41.28896" lon="19.51284">
        <ele>41.161925</ele>
        <time>2022-05-03T13:15:40.632Z</time>
      </trkpt>
      <trkpt lat="41.28906" lon="19.51278">
        <ele>41.3126</ele>
        <time>2022-05-03T13:15:42.655Z</time>
      </trkpt>
      <trkpt lat="41.28916" lon="19.51271">
        <ele>41.467248</ele>
        <time>2022-05-03T13:15:44.676Z</time>
      </trkpt>
      <trkpt lat="41.28925" lon="19.51264">
        <ele>41.618966</ele>
        <time>2022-05-03T13:15:46.629Z</time>
      </trkpt>
      <trkpt lat="41.28934" lon="19.51257">
        <ele>41.765801</ele>
        <time>2022-05-03T13:15:48.643Z</time>
      </trkpt>
      <trkpt lat="41.28943" lon="19.51248">
        <ele>41.923681</ele>
        <time>2022-05-03T13:15:50.683Z</time>
      </trkpt>
      <trkpt lat="41.28952" lon="19.51239">
        <ele>42.086895</ele>
        <time>2022-05-03T13:15:52.695Z</time>
      </trkpt>
      <trkpt lat="41.28961" lon="19.51229">
        <ele>42.245341</ele>
        <time>2022-05-03T13:15:54.644Z</time>
      </trkpt>
      <trkpt lat="41.28969" lon="19.51219">
        <ele>42.400964</ele>
        <time>2022-05-03T13:15:56.644Z</time>
      </trkpt>
      <trkpt lat="41.28976" lon="19.51209">
        <ele>42.551194</ele>
        <time>2022-05-03T13:15:58.637Z</time>
      </trkpt>
      <trkpt lat="41.28983" lon="19.51199">
        <ele>42.696182</ele>
        <time>2022-05-03T13:16:00.659Z</time>
      </trkpt>
      <trkpt lat="41.2899" lon="19.51189">
        <ele>42.841842</ele>
        <time>2022-05-03T13:16:02.654Z</time>
      </trkpt>
      <trkpt lat="41.28996" lon="19.51179">
        <ele>42.983676</ele>
        <time>2022-05-03T13:16:04.641Z</time>
      </trkpt>
      <trkpt lat="41.29004" lon="19.5117">
        <ele>43.125657</ele>
        <time>2022-05-03T13:16:06.628Z</time>
      </trkpt>
      <trkpt lat="41.29011" lon="19.51161">
        <ele>43.263386</ele>
        <time>2022-05-03T13:16:08.621Z</time>
      </trkpt>
      <trkpt lat="41.29017" lon="19.51152">
        <ele>43.393836</ele>
        <time>2022-05-03T13:16:10.676Z</time>
      </trkpt>
      <trkpt lat="41.29024" lon="19.51143">
        <ele>43.529853</ele>
        <time>2022-05-03T13:16:12.667Z</time>
      </trkpt>
      <trkpt lat="41.2903" lon="19.51133">
        <ele>43.640913</ele>
        <time>2022-05-03T13:16:14.647Z</time>
      </trkpt>
      <trkpt lat="41.29036" lon="19.51124">
        <ele>43.722032</ele>
        <time>2022-05-03T13:16:16.633Z</time>
      </trkpt>
      <trkpt lat="41.29042" lon="19.51113">
        <ele>43.808705</ele>
        <time>2022-05-03T13:16:18.643Z</time>
      </trkpt>
      <trkpt lat="41.29048" lon="19.51101">
        <ele>43.895047</ele>
        <time>2022-05-03T13:16:20.664Z</time>
      </trkpt>
      <trkpt lat="41.29053" lon="19.51089">
        <ele>43.985094</ele>
        <time>2022-05-03T13:16:22.653Z</time>
      </trkpt>
      <trkpt lat="41.29059" lon="19.51078">
        <ele>44.071845</ele>
        <time>2022-05-03T13:16:24.630Z</time>
      </trkpt>
      <trkpt lat="41.29066" lon="19.51068">
        <ele>44.156574</ele>
        <time>2022-05-03T13:16:26.632Z</time>
      </trkpt>
      <trkpt lat="41.29074" lon="19.51058">
        <ele>44.251749</ele>
        <time>2022-05-03T13:16:28.636Z</time>
      </trkpt>
      <trkpt lat="41.29083" lon="19.51049">
        <ele>44.347066</ele>
        <time>2022-05-03T13:16:30.674Z</time>
      </trkpt>
      <trkpt lat="41.29091" lon="19.5104">
        <ele>44.439265</ele>
        <time>2022-05-03T13:16:32.643Z</time>
      </trkpt>
      <trkpt lat="41.291" lon="19.51032">
        <ele>44.528818</ele>
        <time>2022-05-03T13:16:34.626Z</time>
      </trkpt>
      <trkpt lat="41.29108" lon="19.51024">
        <ele>44.614327</ele>
        <time>2022-05-03T13:16:36.678Z</time>
      </trkpt>
      <trkpt lat="41.29116" lon="19.51016">
        <ele>44.700777</ele>
        <time>2022-05-03T13:16:38.647Z</time>
      </trkpt>
      <trkpt lat="41.29123" lon="19.51006">
        <ele>44.787832</ele>
        <time>2022-05-03T13:16:40.640Z</time>
      </trkpt>
      <trkpt lat="41.2913" lon="19.50997">
        <ele>44.871974</ele>
        <time>2022-05-03T13:16:42.636Z</time>
      </trkpt>
      <trkpt lat="41.29137" lon="19.50987">
        <ele>44.956944</ele>
        <time>2022-05-03T13:16:44.635Z</time>
      </trkpt>
      <trkpt lat="41.29143" lon="19.50977">
        <ele>45.04584</ele>
        <time>2022-05-03T13:16:46.633Z</time>
      </trkpt>
      <trkpt lat="41.29149" lon="19.50966">
        <ele>45.130436</ele>
        <time>2022-05-03T13:16:48.636Z</time>
      </trkpt>
      <trkpt lat="41.29155" lon="19.50955">
        <ele>44.940169</ele>
        <time>2022-05-03T13:16:50.650Z</time>
      </trkpt>
      <trkpt lat="41.29158" lon="19.50943">
        <ele>44.726027</ele>
        <time>2022-05-03T13:16:52.650Z</time>
      </trkpt>
      <trkpt lat="41.29161" lon="19.50931">
        <ele>44.500441</ele>
        <time>2022-05-03T13:16:54.644Z</time>
      </trkpt>
      <trkpt lat="41.29165" lon="19.50917">
        <ele>44.260514</ele>
        <time>2022-05-03T13:16:56.659Z</time>
      </trkpt>
      <trkpt lat="41.29168" lon="19.50904">
        <ele>44.0229</ele>
        <time>2022-05-03T13:16:58.741Z</time>
      </trkpt>
      <trkpt lat="41.29171" lon="19.5089">
        <ele>43.787588</ele>
        <time>2022-05-03T13:17:00.651Z</time>
      </trkpt>
      <trkpt lat="41.29176" lon="19.50878">
        <ele>43.558265</ele>
        <time>2022-05-03T13:17:02.626Z</time>
      </trkpt>
      <trkpt lat="41.29182" lon="19.50867">
        <ele>43.333958</ele>
        <time>2022-05-03T13:17:04.649Z</time>
      </trkpt>
      <trkpt lat="41.29189" lon="19.50859">
        <ele>43.131377</ele>
        <time>2022-05-03T13:17:06.649Z</time>
      </trkpt>
      <trkpt lat="41.29198" lon="19.50853">
        <ele>42.888836</ele>
        <time>2022-05-03T13:17:09.679Z</time>
      </trkpt>
      <trkpt lat="41.29211" lon="19.50855">
        <ele>42.596758</ele>
        <time>2022-05-03T13:17:12.657Z</time>
      </trkpt>
      <trkpt lat="41.29221" lon="19.50853">
        <ele>42.374251</ele>
        <time>2022-05-03T13:17:14.636Z</time>
      </trkpt>
      <trkpt lat="41.29229" lon="19.50843">
        <ele>42.141212</ele>
        <time>2022-05-03T13:17:16.640Z</time>
      </trkpt>
      <trkpt lat="41.29232" lon="19.50829">
        <ele>41.89132</ele>
        <time>2022-05-03T13:17:18.646Z</time>
      </trkpt>
      <trkpt lat="41.29235" lon="19.50813">
        <ele>41.617461</ele>
        <time>2022-05-03T13:17:20.639Z</time>
      </trkpt>
      <trkpt lat="41.29238" lon="19.50798">
        <ele>41.353111</ele>
        <time>2022-05-03T13:17:22.640Z</time>
      </trkpt>
      <trkpt lat="41.29242" lon="19.50785">
        <ele>41.117192</ele>
        <time>2022-05-03T13:17:24.640Z</time>
      </trkpt>
      <trkpt lat="41.29248" lon="19.50774">
        <ele>41.359608</ele>
        <time>2022-05-03T13:17:26.665Z</time>
      </trkpt>
      <trkpt lat="41.29256" lon="19.50765">
        <ele>41.609291</ele>
        <time>2022-05-03T13:17:28.631Z</time>
      </trkpt>
      <trkpt lat="41.29265" lon="19.50759">
        <ele>41.847712</ele>
        <time>2022-05-03T13:17:30.644Z</time>
      </trkpt>
      <trkpt lat="41.29275" lon="19.50753">
        <ele>42.108425</ele>
        <time>2022-05-03T13:17:32.643Z</time>
      </trkpt>
      <trkpt lat="41.29285" lon="19.50747">
        <ele>42.382216</ele>
        <time>2022-05-03T13:17:34.644Z</time>
      </trkpt>
      <trkpt lat="41.29295" lon="19.5074">
        <ele>42.640155</ele>
        <time>2022-05-03T13:17:36.651Z</time>
      </trkpt>
      <trkpt lat="41.29304" lon="19.50735">
        <ele>42.887761</ele>
        <time>2022-05-03T13:17:38.651Z</time>
      </trkpt>
      <trkpt lat="41.29313" lon="19.50727">
        <ele>43.132494</ele>
        <time>2022-05-03T13:17:40.632Z</time>
      </trkpt>
      <trkpt lat="41.29323" lon="19.50722">
        <ele>43.387367</ele>
        <time>2022-05-03T13:17:42.666Z</time>
      </trkpt>
      <trkpt lat="41.29332" lon="19.50717">
        <ele>43.627336</ele>
        <time>2022-05-03T13:17:44.636Z</time>
      </trkpt>
      <trkpt lat="41.29341" lon="19.50713">
        <ele>43.863179</ele>
        <time>2022-05-03T13:17:46.641Z</time>
      </trkpt>
      <trkpt lat="41.2935" lon="19.50709">
        <ele>44.08049</ele>
        <time>2022-05-03T13:17:48.642Z</time>
      </trkpt>
      <trkpt lat="41.29358" lon="19.50704">
        <ele>44.299666</ele>
        <time>2022-05-03T13:17:50.621Z</time>
      </trkpt>
      <trkpt lat="41.2937" lon="19.50696">
        <ele>44.611587</ele>
        <time>2022-05-03T13:17:53.674Z</time>
      </trkpt>
      <trkpt lat="41.29379" lon="19.50691">
        <ele>44.832247</ele>
        <time>2022-05-03T13:17:55.646Z</time>
      </trkpt>
      <trkpt lat="41.29391" lon="19.50685">
        <ele>45.138989</ele>
        <time>2022-05-03T13:17:58.641Z</time>
      </trkpt>
      <trkpt lat="41.29399" lon="19.50681">
        <ele>45.36205</ele>
        <time>2022-05-03T13:18:00.626Z</time>
      </trkpt>
      <trkpt lat="41.29409" lon="19.50677">
        <ele>45.634841</ele>
        <time>2022-05-03T13:18:02.647Z</time>
      </trkpt>
      <trkpt lat="41.29418" lon="19.50673">
        <ele>45.936986</ele>
        <time>2022-05-03T13:18:04.665Z</time>
      </trkpt>
      <trkpt lat="41.29428" lon="19.50669">
        <ele>46.222339</ele>
        <time>2022-05-03T13:18:06.641Z</time>
      </trkpt>
      <trkpt lat="41.29437" lon="19.50664">
        <ele>46.516706</ele>
        <time>2022-05-03T13:18:08.641Z</time>
      </trkpt>
      <trkpt lat="41.29447" lon="19.5066">
        <ele>46.818001</ele>
        <time>2022-05-03T13:18:10.637Z</time>
      </trkpt>
      <trkpt lat="41.29457" lon="19.50656">
        <ele>47.132479</ele>
        <time>2022-05-03T13:18:12.639Z</time>
      </trkpt>
      <trkpt lat="41.29468" lon="19.50652">
        <ele>47.457377</ele>
        <time>2022-05-03T13:18:14.659Z</time>
      </trkpt>
      <trkpt lat="41.29478" lon="19.50647">
        <ele>47.761483</ele>
        <time>2022-05-03T13:18:16.647Z</time>
      </trkpt>
      <trkpt lat="41.29487" lon="19.50642">
        <ele>48.06942</ele>
        <time>2022-05-03T13:18:18.636Z</time>
      </trkpt>
      <trkpt lat="41.29497" lon="19.50637">
        <ele>48.362513</ele>
        <time>2022-05-03T13:18:20.645Z</time>
      </trkpt>
      <trkpt lat="41.29506" lon="19.50632">
        <ele>48.64167</ele>
        <time>2022-05-03T13:18:22.640Z</time>
      </trkpt>
      <trkpt lat="41.29515" lon="19.50627">
        <ele>48.926115</ele>
        <time>2022-05-03T13:18:24.647Z</time>
      </trkpt>
      <trkpt lat="41.29523" lon="19.50622">
        <ele>49.204318</ele>
        <time>2022-05-03T13:18:26.672Z</time>
      </trkpt>
      <trkpt lat="41.29532" lon="19.50617">
        <ele>49.472844</ele>
        <time>2022-05-03T13:18:28.647Z</time>
      </trkpt>
      <trkpt lat="41.2954" lon="19.50612">
        <ele>49.753025</ele>
        <time>2022-05-03T13:18:30.644Z</time>
      </trkpt>
      <trkpt lat="41.29549" lon="19.50606">
        <ele>50.044409</ele>
        <time>2022-05-03T13:18:32.683Z</time>
      </trkpt>
      <trkpt lat="41.29559" lon="19.50601">
        <ele>50.342569</ele>
        <time>2022-05-03T13:18:34.639Z</time>
      </trkpt>
      <trkpt lat="41.29568" lon="19.50596">
        <ele>50.629696</ele>
        <time>2022-05-03T13:18:36.658Z</time>
      </trkpt>
      <trkpt lat="41.29577" lon="19.5059">
        <ele>50.231256</ele>
        <time>2022-05-03T13:18:38.632Z</time>
      </trkpt>
      <trkpt lat="41.29587" lon="19.50585">
        <ele>49.664372</ele>
        <time>2022-05-03T13:18:40.645Z</time>
      </trkpt>
      <trkpt lat="41.29598" lon="19.50579">
        <ele>49.091271</ele>
        <time>2022-05-03T13:18:42.638Z</time>
      </trkpt>
      <trkpt lat="41.29608" lon="19.50573">
        <ele>48.525867</ele>
        <time>2022-05-03T13:18:44.640Z</time>
      </trkpt>
      <trkpt lat="41.29618" lon="19.50568">
        <ele>47.966154</ele>
        <time>2022-05-03T13:18:46.651Z</time>
      </trkpt>
      <trkpt lat="41.29628" lon="19.50563">
        <ele>47.424902</ele>
        <time>2022-05-03T13:18:48.666Z</time>
      </trkpt>
      <trkpt lat="41.29638" lon="19.50558">
        <ele>46.887588</ele>
        <time>2022-05-03T13:18:50.643Z</time>
      </trkpt>
      <trkpt lat="41.29647" lon="19.50552">
        <ele>46.353598</ele>
        <time>2022-05-03T13:18:52.653Z</time>
      </trkpt>
      <trkpt lat="41.29657" lon="19.50545">
        <ele>45.802668</ele>
        <time>2022-05-03T13:18:54.665Z</time>
      </trkpt>
      <trkpt lat="41.29666" lon="19.50538">
        <ele>45.236662</ele>
        <time>2022-05-03T13:18:56.655Z</time>
      </trkpt>
      <trkpt lat="41.29675" lon="19.50531">
        <ele>44.696136</ele>
        <time>2022-05-03T13:18:58.653Z</time>
      </trkpt>
      <trkpt lat="41.29684" lon="19.50524">
        <ele>44.155609</ele>
        <time>2022-05-03T13:19:00.626Z</time>
      </trkpt>
      <trkpt lat="41.29693" lon="19.50516">
        <ele>43.628598</ele>
        <time>2022-05-03T13:19:02.651Z</time>
      </trkpt>
      <trkpt lat="41.29701" lon="19.50509">
        <ele>43.120922</ele>
        <time>2022-05-03T13:19:04.653Z</time>
      </trkpt>
      <trkpt lat="41.29709" lon="19.50502">
        <ele>42.6217</ele>
        <time>2022-05-03T13:19:06.640Z</time>
      </trkpt>
      <trkpt lat="41.29718" lon="19.50494">
        <ele>42.071375</ele>
        <time>2022-05-03T13:19:08.647Z</time>
      </trkpt>
      <trkpt lat="41.29728" lon="19.50485">
        <ele>41.495443</ele>
        <time>2022-05-03T13:19:10.652Z</time>
      </trkpt>
      <trkpt lat="41.29736" lon="19.50477">
        <ele>41.345376</ele>
        <time>2022-05-03T13:19:12.636Z</time>
      </trkpt>
      <trkpt lat="41.29745" lon="19.50469">
        <ele>41.225411</ele>
        <time>2022-05-03T13:19:14.655Z</time>
      </trkpt>
      <trkpt lat="41.29753" lon="19.50461">
        <ele>41.102801</ele>
        <time>2022-05-03T13:19:16.636Z</time>
      </trkpt>
      <trkpt lat="41.29762" lon="19.50453">
        <ele>40.980306</ele>
        <time>2022-05-03T13:19:18.626Z</time>
      </trkpt>
      <trkpt lat="41.2977" lon="19.50443">
        <ele>40.855357</ele>
        <time>2022-05-03T13:19:20.648Z</time>
      </trkpt>
      <trkpt lat="41.29778" lon="19.50435">
        <ele>40.733509</ele>
        <time>2022-05-03T13:19:22.687Z</time>
      </trkpt>
      <trkpt lat="41.29787" lon="19.50426">
        <ele>40.608755</ele>
        <time>2022-05-03T13:19:24.635Z</time>
      </trkpt>
      <trkpt lat="41.29795" lon="19.50417">
        <ele>40.482175</ele>
        <time>2022-05-03T13:19:26.652Z</time>
      </trkpt>
      <trkpt lat="41.29804" lon="19.50408">
        <ele>40.358329</ele>
        <time>2022-05-03T13:19:28.677Z</time>
      </trkpt>
      <trkpt lat="41.29812" lon="19.50398">
        <ele>40.230561</ele>
        <time>2022-05-03T13:19:30.638Z</time>
      </trkpt>
      <trkpt lat="41.2982" lon="19.50389">
        <ele>40.103667</ele>
        <time>2022-05-03T13:19:32.640Z</time>
      </trkpt>
      <trkpt lat="41.29828" lon="19.50379">
        <ele>39.977348</ele>
        <time>2022-05-03T13:19:34.640Z</time>
      </trkpt>
      <trkpt lat="41.29836" lon="19.5037">
        <ele>39.851867</ele>
        <time>2022-05-03T13:19:36.657Z</time>
      </trkpt>
      <trkpt lat="41.29844" lon="19.50359">
        <ele>39.720904</ele>
        <time>2022-05-03T13:19:38.653Z</time>
      </trkpt>
      <trkpt lat="41.29852" lon="19.50349">
        <ele>39.5995</ele>
        <time>2022-05-03T13:19:40.653Z</time>
      </trkpt>
      <trkpt lat="41.29859" lon="19.5034">
        <ele>39.475104</ele>
        <time>2022-05-03T13:19:42.643Z</time>
      </trkpt>
      <trkpt lat="41.29867" lon="19.50329">
        <ele>39.434257</ele>
        <time>2022-05-03T13:19:44.649Z</time>
      </trkpt>
      <trkpt lat="41.29874" lon="19.50319">
        <ele>39.761736</ele>
        <time>2022-05-03T13:19:46.647Z</time>
      </trkpt>
      <trkpt lat="41.29881" lon="19.50309">
        <ele>40.088767</ele>
        <time>2022-05-03T13:19:48.645Z</time>
      </trkpt>
      <trkpt lat="41.29889" lon="19.50299">
        <ele>40.421838</ele>
        <time>2022-05-03T13:19:50.663Z</time>
      </trkpt>
      <trkpt lat="41.29895" lon="19.50289">
        <ele>40.742492</ele>
        <time>2022-05-03T13:19:52.672Z</time>
      </trkpt>
      <trkpt lat="41.29902" lon="19.50279">
        <ele>41.050159</ele>
        <time>2022-05-03T13:19:54.628Z</time>
      </trkpt>
      <trkpt lat="41.29908" lon="19.5027">
        <ele>41.349755</ele>
        <time>2022-05-03T13:19:56.662Z</time>
      </trkpt>
      <trkpt lat="41.29917" lon="19.50257">
        <ele>41.765982</ele>
        <time>2022-05-03T13:19:59.651Z</time>
      </trkpt>
      <trkpt lat="41.29924" lon="19.50248">
        <ele>42.061147</ele>
        <time>2022-05-03T13:20:01.645Z</time>
      </trkpt>
      <trkpt lat="41.2993" lon="19.50238">
        <ele>42.364945</ele>
        <time>2022-05-03T13:20:03.642Z</time>
      </trkpt>
      <trkpt lat="41.29936" lon="19.50229">
        <ele>42.654775</ele>
        <time>2022-05-03T13:20:05.629Z</time>
      </trkpt>
      <trkpt lat="41.29944" lon="19.50216">
        <ele>43.046119</ele>
        <time>2022-05-03T13:20:08.692Z</time>
      </trkpt>
      <trkpt lat="41.29951" lon="19.50204">
        <ele>43.402321</ele>
        <time>2022-05-03T13:20:11.645Z</time>
      </trkpt>
      <trkpt lat="41.29959" lon="19.50191">
        <ele>43.803454</ele>
        <time>2022-05-03T13:20:14.680Z</time>
      </trkpt>
      <trkpt lat="41.29965" lon="19.50182">
        <ele>44.094292</ele>
        <time>2022-05-03T13:20:16.644Z</time>
      </trkpt>
      <trkpt lat="41.29973" lon="19.50174">
        <ele>44.390934</ele>
        <time>2022-05-03T13:20:18.664Z</time>
      </trkpt>
      <trkpt lat="41.29978" lon="19.50164">
        <ele>44.67831</ele>
        <time>2022-05-03T13:20:20.639Z</time>
      </trkpt>
      <trkpt lat="41.29984" lon="19.50155">
        <ele>44.97453</ele>
        <time>2022-05-03T13:20:22.654Z</time>
      </trkpt>
      <trkpt lat="41.29991" lon="19.50145">
        <ele>45.788135</ele>
        <time>2022-05-03T13:20:24.642Z</time>
      </trkpt>
      <trkpt lat="41.29997" lon="19.50135">
        <ele>46.69217</ele>
        <time>2022-05-03T13:20:26.645Z</time>
      </trkpt>
      <trkpt lat="41.30002" lon="19.50124">
        <ele>47.651513</ele>
        <time>2022-05-03T13:20:28.711Z</time>
      </trkpt>
      <trkpt lat="41.30009" lon="19.50114">
        <ele>48.61141</ele>
        <time>2022-05-03T13:20:30.638Z</time>
      </trkpt>
      <trkpt lat="41.30015" lon="19.50106">
        <ele>49.491147</ele>
        <time>2022-05-03T13:20:32.645Z</time>
      </trkpt>
      <trkpt lat="41.30021" lon="19.50096">
        <ele>50.379268</ele>
        <time>2022-05-03T13:20:34.648Z</time>
      </trkpt>
      <trkpt lat="41.30029" lon="19.50086">
        <ele>51.361761</ele>
        <time>2022-05-03T13:20:36.648Z</time>
      </trkpt>
      <trkpt lat="41.30037" lon="19.50078">
        <ele>52.357656</ele>
        <time>2022-05-03T13:20:38.660Z</time>
      </trkpt>
      <trkpt lat="41.30043" lon="19.50067">
        <ele>53.338866</ele>
        <time>2022-05-03T13:20:40.631Z</time>
      </trkpt>
      <trkpt lat="41.30049" lon="19.50056">
        <ele>54.306399</ele>
        <time>2022-05-03T13:20:42.670Z</time>
      </trkpt>
      <trkpt lat="41.3006" lon="19.50044">
        <ele>55.639107</ele>
        <time>2022-05-03T13:20:45.718Z</time>
      </trkpt>
      <trkpt lat="41.30066" lon="19.50034">
        <ele>56.58892</ele>
        <time>2022-05-03T13:20:47.644Z</time>
      </trkpt>
      <trkpt lat="41.30071" lon="19.50022">
        <ele>57.586432</ele>
        <time>2022-05-03T13:20:49.641Z</time>
      </trkpt>
      <trkpt lat="41.30078" lon="19.50012">
        <ele>58.572435</ele>
        <time>2022-05-03T13:20:51.647Z</time>
      </trkpt>
      <trkpt lat="41.30086" lon="19.50004">
        <ele>59.500873</ele>
        <time>2022-05-03T13:20:53.649Z</time>
      </trkpt>
      <trkpt lat="41.30093" lon="19.49994">
        <ele>60.423165</ele>
        <time>2022-05-03T13:20:55.705Z</time>
      </trkpt>
      <trkpt lat="41.301" lon="19.49981">
        <ele>61.590296</ele>
        <time>2022-05-03T13:20:58.644Z</time>
      </trkpt>
      <trkpt lat="41.30103" lon="19.4997">
        <ele>62.610428</ele>
        <time>2022-05-03T13:21:01.639Z</time>
      </trkpt>
      <trkpt lat="41.30109" lon="19.4996">
        <ele>63.993</ele>
        <time>2022-05-03T13:21:05.642Z</time>
      </trkpt>
      <trkpt lat="41.30119" lon="19.4995">
        <ele>65.762368</ele>
        <time>2022-05-03T13:21:09.668Z</time>
      </trkpt>
      <trkpt lat="41.30128" lon="19.49944">
        <ele>67.249776</ele>
        <time>2022-05-03T13:21:12.643Z</time>
      </trkpt>
      <trkpt lat="41.30135" lon="19.49934">
        <ele>68.768279</ele>
        <time>2022-05-03T13:21:15.631Z</time>
      </trkpt>
      <trkpt lat="41.30138" lon="19.49922">
        <ele>70.196857</ele>
        <time>2022-05-03T13:21:18.657Z</time>
      </trkpt>
      <trkpt lat="41.30144" lon="19.49912">
        <ele>71.570947</ele>
        <time>2022-05-03T13:21:21.637Z</time>
      </trkpt>
      <trkpt lat="41.30152" lon="19.499">
        <ele>73.385245</ele>
        <time>2022-05-03T13:21:25.633Z</time>
      </trkpt>
      <trkpt lat="41.30159" lon="19.4989">
        <ele>74.85316</ele>
        <time>2022-05-03T13:21:28.668Z</time>
      </trkpt>
      <trkpt lat="41.30171" lon="19.49879">
        <ele>76.980854</ele>
        <time>2022-05-03T13:21:31.639Z</time>
      </trkpt>
      <trkpt lat="41.30181" lon="19.49872">
        <ele>78.547832</ele>
        <time>2022-05-03T13:21:33.643Z</time>
      </trkpt>
      <trkpt lat="41.30188" lon="19.49865">
        <ele>79.926085</ele>
        <time>2022-05-03T13:21:35.646Z</time>
      </trkpt>
      <trkpt lat="41.30198" lon="19.49855">
        <ele>81.738987</ele>
        <time>2022-05-03T13:21:38.641Z</time>
      </trkpt>
      <trkpt lat="41.30207" lon="19.49845">
        <ele>83.380194</ele>
        <time>2022-05-03T13:21:41.625Z</time>
      </trkpt>
      <trkpt lat="41.30214" lon="19.49837">
        <ele>84.760583</ele>
        <time>2022-05-03T13:21:43.629Z</time>
      </trkpt>
      <trkpt lat="41.30222" lon="19.49825">
        <ele>86.589628</ele>
        <time>2022-05-03T13:21:46.657Z</time>
      </trkpt>
      <trkpt lat="41.30228" lon="19.49815">
        <ele>87.969286</ele>
        <time>2022-05-03T13:21:48.684Z</time>
      </trkpt>
      <trkpt lat="41.30235" lon="19.49805">
        <ele>88.152999</ele>
        <time>2022-05-03T13:21:50.646Z</time>
      </trkpt>
      <trkpt lat="41.30242" lon="19.49794">
        <ele>87.52814</ele>
        <time>2022-05-03T13:21:53.648Z</time>
      </trkpt>
      <trkpt lat="41.30248" lon="19.49784">
        <ele>86.968448</ele>
        <time>2022-05-03T13:21:56.648Z</time>
      </trkpt>
      <trkpt lat="41.30256" lon="19.49773">
        <ele>86.340167</ele>
        <time>2022-05-03T13:21:59.668Z</time>
      </trkpt>
      <trkpt lat="41.30262" lon="19.49764">
        <ele>85.795522</ele>
        <time>2022-05-03T13:22:02.652Z</time>
      </trkpt>
      <trkpt lat="41.3027" lon="19.49754">
        <ele>85.210244</ele>
        <time>2022-05-03T13:22:05.682Z</time>
      </trkpt>
      <trkpt lat="41.30278" lon="19.49743">
        <ele>84.532613</ele>
        <time>2022-05-03T13:22:08.642Z</time>
      </trkpt>
      <trkpt lat="41.30285" lon="19.4973">
        <ele>83.833779</ele>
        <time>2022-05-03T13:22:11.641Z</time>
      </trkpt>
      <trkpt lat="41.30293" lon="19.4972">
        <ele>83.213023</ele>
        <time>2022-05-03T13:22:13.653Z</time>
      </trkpt>
      <trkpt lat="41.30301" lon="19.4971">
        <ele>82.597702</ele>
        <time>2022-05-03T13:22:15.654Z</time>
      </trkpt>
      <trkpt lat="41.30306" lon="19.49698">
        <ele>82.013206</ele>
        <time>2022-05-03T13:22:17.638Z</time>
      </trkpt>
      <trkpt lat="41.30312" lon="19.49688">
        <ele>81.450032</ele>
        <time>2022-05-03T13:22:19.630Z</time>
      </trkpt>
      <trkpt lat="41.30322" lon="19.49676">
        <ele>80.696413</ele>
        <time>2022-05-03T13:22:22.676Z</time>
      </trkpt>
      <trkpt lat="41.30331" lon="19.49662">
        <ele>79.927825</ele>
        <time>2022-05-03T13:22:25.640Z</time>
      </trkpt>
      <trkpt lat="41.30337" lon="19.49653">
        <ele>79.409764</ele>
        <time>2022-05-03T13:22:27.636Z</time>
      </trkpt>
      <trkpt lat="41.30344" lon="19.49639">
        <ele>78.671828</ele>
        <time>2022-05-03T13:22:30.625Z</time>
      </trkpt>
      <trkpt lat="41.3035" lon="19.49627">
        <ele>78.149741</ele>
        <time>2022-05-03T13:22:33.671Z</time>
      </trkpt>
      <trkpt lat="41.30355" lon="19.49615">
        <ele>77.762418</ele>
        <time>2022-05-03T13:22:36.644Z</time>
      </trkpt>
      <trkpt lat="41.30361" lon="19.49606">
        <ele>77.435614</ele>
        <time>2022-05-03T13:22:39.671Z</time>
      </trkpt>
      <trkpt lat="41.3037" lon="19.49601">
        <ele>77.097266</ele>
        <time>2022-05-03T13:22:41.643Z</time>
      </trkpt>
      <trkpt lat="41.30378" lon="19.49589">
        <ele>76.673617</ele>
        <time>2022-05-03T13:22:44.647Z</time>
      </trkpt>
      <trkpt lat="41.30386" lon="19.49578">
        <ele>76.239013</ele>
        <time>2022-05-03T13:22:47.645Z</time>
      </trkpt>
      <trkpt lat="41.30393" lon="19.49566">
        <ele>75.820636</ele>
        <time>2022-05-03T13:22:50.640Z</time>
      </trkpt>
      <trkpt lat="41.30401" lon="19.49554">
        <ele>75.388038</ele>
        <time>2022-05-03T13:22:53.640Z</time>
      </trkpt>
      <trkpt lat="41.30408" lon="19.49541">
        <ele>74.951018</ele>
        <time>2022-05-03T13:22:56.654Z</time>
      </trkpt>
      <trkpt lat="41.30418" lon="19.49528">
        <ele>74.444686</ele>
        <time>2022-05-03T13:22:59.637Z</time>
      </trkpt>
      <trkpt lat="41.30429" lon="19.49522">
        <ele>74.004846</ele>
        <time>2022-05-03T13:23:02.657Z</time>
      </trkpt>
      <trkpt lat="41.30438" lon="19.49513">
        <ele>73.598497</ele>
        <time>2022-05-03T13:23:05.656Z</time>
      </trkpt>
      <trkpt lat="41.30445" lon="19.49499">
        <ele>73.150592</ele>
        <time>2022-05-03T13:23:08.680Z</time>
      </trkpt>
      <trkpt lat="41.30451" lon="19.49489">
        <ele>72.803346</ele>
        <time>2022-05-03T13:23:10.643Z</time>
      </trkpt>
      <trkpt lat="41.30459" lon="19.49476">
        <ele>72.33795</ele>
        <time>2022-05-03T13:23:13.649Z</time>
      </trkpt>
      <trkpt lat="41.30465" lon="19.49464">
        <ele>71.936062</ele>
        <time>2022-05-03T13:23:16.638Z</time>
      </trkpt>
      <trkpt lat="41.30474" lon="19.49454">
        <ele>71.68522</ele>
        <time>2022-05-03T13:23:20.644Z</time>
      </trkpt>
      <trkpt lat="41.30483" lon="19.49445">
        <ele>71.557995</ele>
        <time>2022-05-03T13:23:24.637Z</time>
      </trkpt>
      <trkpt lat="41.3049" lon="19.49436">
        <ele>71.453458</ele>
        <time>2022-05-03T13:23:29.651Z</time>
      </trkpt>
      <trkpt lat="41.30496" lon="19.49425">
        <ele>71.342918</ele>
        <time>2022-05-03T13:23:33.650Z</time>
      </trkpt>
      <trkpt lat="41.30501" lon="19.49413">
        <ele>71.222438</ele>
        <time>2022-05-03T13:23:37.643Z</time>
      </trkpt>
      <trkpt lat="41.30507" lon="19.49401">
        <ele>71.110941</ele>
        <time>2022-05-03T13:23:41.642Z</time>
      </trkpt>
      <trkpt lat="41.30517" lon="19.49396">
        <ele>70.993114</ele>
        <time>2022-05-03T13:23:44.651Z</time>
      </trkpt>
      <trkpt lat="41.30526" lon="19.49386">
        <ele>70.867059</ele>
        <time>2022-05-03T13:23:47.643Z</time>
      </trkpt>
      <trkpt lat="41.30535" lon="19.49376">
        <ele>70.739159</ele>
        <time>2022-05-03T13:23:50.645Z</time>
      </trkpt>
      <trkpt lat="41.30545" lon="19.49372">
        <ele>70.622671</ele>
        <time>2022-05-03T13:23:52.678Z</time>
      </trkpt>
      <trkpt lat="41.30557" lon="19.49362">
        <ele>70.469919</ele>
        <time>2022-05-03T13:23:55.634Z</time>
      </trkpt>
      <trkpt lat="41.30567" lon="19.49352">
        <ele>70.324295</ele>
        <time>2022-05-03T13:23:58.642Z</time>
      </trkpt>
      <trkpt lat="41.30578" lon="19.49342">
        <ele>70.182915</ele>
        <time>2022-05-03T13:24:01.640Z</time>
      </trkpt>
      <trkpt lat="41.30585" lon="19.49334">
        <ele>70.082761</ele>
        <time>2022-05-03T13:24:03.675Z</time>
      </trkpt>
      <trkpt lat="41.30596" lon="19.49327">
        <ele>69.950669</ele>
        <time>2022-05-03T13:24:06.638Z</time>
      </trkpt>
      <trkpt lat="41.30606" lon="19.49316">
        <ele>69.811609</ele>
        <time>2022-05-03T13:24:09.646Z</time>
      </trkpt>
      <trkpt lat="41.30612" lon="19.49307">
        <ele>69.656468</ele>
        <time>2022-05-03T13:24:11.654Z</time>
      </trkpt>
      <trkpt lat="41.3062" lon="19.49295">
        <ele>69.418886</ele>
        <time>2022-05-03T13:24:14.685Z</time>
      </trkpt>
      <trkpt lat="41.30629" lon="19.49284">
        <ele>69.18815</ele>
        <time>2022-05-03T13:24:17.643Z</time>
      </trkpt>
      <trkpt lat="41.30636" lon="19.49271">
        <ele>68.957203</ele>
        <time>2022-05-03T13:24:20.654Z</time>
      </trkpt>
      <trkpt lat="41.30641" lon="19.49259">
        <ele>68.758079</ele>
        <time>2022-05-03T13:24:23.652Z</time>
      </trkpt>
      <trkpt lat="41.30646" lon="19.49245">
        <ele>68.528483</ele>
        <time>2022-05-03T13:24:27.642Z</time>
      </trkpt>
      <trkpt lat="41.30652" lon="19.49232">
        <ele>68.304585</ele>
        <time>2022-05-03T13:24:31.652Z</time>
      </trkpt>
      <trkpt lat="41.30657" lon="19.49219">
        <ele>68.093652</ele>
        <time>2022-05-03T13:24:35.641Z</time>
      </trkpt>
      <trkpt lat="41.30663" lon="19.49208">
        <ele>67.889599</ele>
        <time>2022-05-03T13:24:39.633Z</time>
      </trkpt>
      <trkpt lat="41.3067" lon="19.49196">
        <ele>67.67266</ele>
        <time>2022-05-03T13:24:43.651Z</time>
      </trkpt>
      <trkpt lat="41.30675" lon="19.49186">
        <ele>67.489611</ele>
        <time>2022-05-03T13:24:46.642Z</time>
      </trkpt>
      <trkpt lat="41.3068" lon="19.49174">
        <ele>67.305723</ele>
        <time>2022-05-03T13:24:50.621Z</time>
      </trkpt>
      <trkpt lat="41.30677" lon="19.49161">
        <ele>67.105221</ele>
        <time>2022-05-03T13:24:53.626Z</time>
      </trkpt>
      <trkpt lat="41.30667" lon="19.49169">
        <ele>66.886946</ele>
        <time>2022-05-03T13:24:57.663Z</time>
      </trkpt>
      <trkpt lat="41.30662" lon="19.49182">
        <ele>66.669673</ele>
        <time>2022-05-03T13:25:01.639Z</time>
      </trkpt>
      <trkpt lat="41.30659" lon="19.49194">
        <ele>66.489437</ele>
        <time>2022-05-03T13:25:05.635Z</time>
      </trkpt>
      <trkpt lat="41.30651" lon="19.492">
        <ele>66.305374</ele>
        <time>2022-05-03T13:25:10.644Z</time>
      </trkpt>
      <trkpt lat="41.30642" lon="19.49194">
        <ele>65.600193</ele>
        <time>2022-05-03T13:25:14.664Z</time>
      </trkpt>
      <trkpt lat="41.30632" lon="19.49187">
        <ele>64.757006</ele>
        <time>2022-05-03T13:25:17.623Z</time>
      </trkpt>
      <trkpt lat="41.30623" lon="19.4918">
        <ele>63.95092</ele>
        <time>2022-05-03T13:25:20.677Z</time>
      </trkpt>
      <trkpt lat="41.30615" lon="19.49169">
        <ele>63.09672</ele>
        <time>2022-05-03T13:25:23.625Z</time>
      </trkpt>
      <trkpt lat="41.30607" lon="19.49158">
        <ele>62.269061</ele>
        <time>2022-05-03T13:25:26.634Z</time>
      </trkpt>
      <trkpt lat="41.306" lon="19.49146">
        <ele>61.429828</ele>
        <time>2022-05-03T13:25:30.625Z</time>
      </trkpt>
      <trkpt lat="41.30595" lon="19.49132">
        <ele>60.549443</ele>
        <time>2022-05-03T13:25:34.647Z</time>
      </trkpt>
      <trkpt lat="41.30589" lon="19.49121">
        <ele>59.781257</ele>
        <time>2022-05-03T13:25:37.628Z</time>
      </trkpt>
      <trkpt lat="41.3058" lon="19.49111">
        <ele>58.908891</ele>
        <time>2022-05-03T13:25:40.625Z</time>
      </trkpt>
      <trkpt lat="41.30575" lon="19.491">
        <ele>58.202239</ele>
        <time>2022-05-03T13:25:42.631Z</time>
      </trkpt>
      <trkpt lat="41.30575" lon="19.49088">
        <ele>57.500575</ele>
        <time>2022-05-03T13:25:47.636Z</time>
      </trkpt>
      <trkpt lat="41.30583" lon="19.49077">
        <ele>56.661128</ele>
        <time>2022-05-03T13:25:51.632Z</time>
      </trkpt>
      <trkpt lat="41.30591" lon="19.49067">
        <ele>55.835679</ele>
        <time>2022-05-03T13:25:55.631Z</time>
      </trkpt>
      <trkpt lat="41.30599" lon="19.49059">
        <ele>55.100748</ele>
        <time>2022-05-03T13:25:58.642Z</time>
      </trkpt>
      <trkpt lat="41.30606" lon="19.49048">
        <ele>54.278161</ele>
        <time>2022-05-03T13:26:01.644Z</time>
      </trkpt>
      <trkpt lat="41.30613" lon="19.49039">
        <ele>53.524628</ele>
        <time>2022-05-03T13:26:04.634Z</time>
      </trkpt>
      <trkpt lat="41.30621" lon="19.49026">
        <ele>53.00936</ele>
        <time>2022-05-03T13:26:07.649Z</time>
      </trkpt>
      <trkpt lat="41.3063" lon="19.49016">
        <ele>53.579997</ele>
        <time>2022-05-03T13:26:10.638Z</time>
      </trkpt>
      <trkpt lat="41.30639" lon="19.49006">
        <ele>54.130491</ele>
        <time>2022-05-03T13:26:13.637Z</time>
      </trkpt>
      <trkpt lat="41.30646" lon="19.48995">
        <ele>54.650139</ele>
        <time>2022-05-03T13:26:16.620Z</time>
      </trkpt>
      <trkpt lat="41.30655" lon="19.48983">
        <ele>55.259107</ele>
        <time>2022-05-03T13:26:19.637Z</time>
      </trkpt>
      <trkpt lat="41.30663" lon="19.48972">
        <ele>55.808402</ele>
        <time>2022-05-03T13:26:22.631Z</time>
      </trkpt>
      <trkpt lat="41.30671" lon="19.48962">
        <ele>56.337324</ele>
        <time>2022-05-03T13:26:25.633Z</time>
      </trkpt>
      <trkpt lat="41.30677" lon="19.48953">
        <ele>56.780482</ele>
        <time>2022-05-03T13:26:28.635Z</time>
      </trkpt>
      <trkpt lat="41.30683" lon="19.48939">
        <ele>57.345576</ele>
        <time>2022-05-03T13:26:31.623Z</time>
      </trkpt>
      <trkpt lat="41.30682" lon="19.48927">
        <ele>57.778224</ele>
        <time>2022-05-03T13:26:34.631Z</time>
      </trkpt>
      <trkpt lat="41.30682" lon="19.48915">
        <ele>58.220091</ele>
        <time>2022-05-03T13:26:38.622Z</time>
      </trkpt>
      <trkpt lat="41.30685" lon="19.48903">
        <ele>58.685851</ele>
        <time>2022-05-03T13:26:44.653Z</time>
      </trkpt>
      <trkpt lat="41.30691" lon="19.48893">
        <ele>59.130156</ele>
        <time>2022-05-03T13:26:48.635Z</time>
      </trkpt>
      <trkpt lat="41.30696" lon="19.48883">
        <ele>59.577203</ele>
        <time>2022-05-03T13:26:51.632Z</time>
      </trkpt>
      <trkpt lat="41.30701" lon="19.4887">
        <ele>60.096103</ele>
        <time>2022-05-03T13:26:54.614Z</time>
      </trkpt>
      <trkpt lat="41.30706" lon="19.4886">
        <ele>60.550885</ele>
        <time>2022-05-03T13:26:57.636Z</time>
      </trkpt>
      <trkpt lat="41.30708" lon="19.48846">
        <ele>61.061323</ele>
        <time>2022-05-03T13:27:00.636Z</time>
      </trkpt>
      <trkpt lat="41.30714" lon="19.48834">
        <ele>61.545118</ele>
        <time>2022-05-03T13:27:03.654Z</time>
      </trkpt>
      <trkpt lat="41.30722" lon="19.48821">
        <ele>61.902009</ele>
        <time>2022-05-03T13:27:06.622Z</time>
      </trkpt>
      <trkpt lat="41.30729" lon="19.48807">
        <ele>62.262398</ele>
        <time>2022-05-03T13:27:09.633Z</time>
      </trkpt>
      <trkpt lat="41.30739" lon="19.488">
        <ele>62.584242</ele>
        <time>2022-05-03T13:27:12.635Z</time>
      </trkpt>
      <trkpt lat="41.30747" lon="19.48791">
        <ele>62.878041</ele>
        <time>2022-05-03T13:27:15.627Z</time>
      </trkpt>
      <trkpt lat="41.30758" lon="19.48782">
        <ele>63.256632</ele>
        <time>2022-05-03T13:27:18.641Z</time>
      </trkpt>
      <trkpt lat="41.30766" lon="19.48775">
        <ele>63.530472</ele>
        <time>2022-05-03T13:27:20.619Z</time>
      </trkpt>
      <trkpt lat="41.30774" lon="19.48763">
        <ele>63.875908</ele>
        <time>2022-05-03T13:27:23.629Z</time>
      </trkpt>
      <trkpt lat="41.3078" lon="19.48754">
        <ele>64.140414</ele>
        <time>2022-05-03T13:27:25.628Z</time>
      </trkpt>
      <trkpt lat="41.30788" lon="19.48743">
        <ele>64.475175</ele>
        <time>2022-05-03T13:27:28.628Z</time>
      </trkpt>
      <trkpt lat="41.30794" lon="19.48733">
        <ele>64.759272</ele>
        <time>2022-05-03T13:27:32.636Z</time>
      </trkpt>
      <trkpt lat="41.30802" lon="19.48725">
        <ele>65.035983</ele>
        <time>2022-05-03T13:27:35.624Z</time>
      </trkpt>
      <trkpt lat="41.30812" lon="19.48716">
        <ele>65.392469</ele>
        <time>2022-05-03T13:27:39.644Z</time>
      </trkpt>
      <trkpt lat="41.30821" lon="19.48708">
        <ele>65.714119</ele>
        <time>2022-05-03T13:27:42.631Z</time>
      </trkpt>
      <trkpt lat="41.30829" lon="19.48695">
        <ele>66.062221</ele>
        <time>2022-05-03T13:27:45.621Z</time>
      </trkpt>
      <trkpt lat="41.30836" lon="19.48684">
        <ele>66.374491</ele>
        <time>2022-05-03T13:27:48.626Z</time>
      </trkpt>
      <trkpt lat="41.30843" lon="19.48671">
        <ele>66.616836</ele>
        <time>2022-05-03T13:27:52.639Z</time>
      </trkpt>
      <trkpt lat="41.30849" lon="19.48661">
        <ele>66.377084</ele>
        <time>2022-05-03T13:27:55.615Z</time>
      </trkpt>
      <trkpt lat="41.30855" lon="19.48651">
        <ele>66.153567</ele>
        <time>2022-05-03T13:27:58.623Z</time>
      </trkpt>
      <trkpt lat="41.3086" lon="19.48641">
        <ele>65.920145</ele>
        <time>2022-05-03T13:28:01.622Z</time>
      </trkpt>
      <trkpt lat="41.30868" lon="19.48631">
        <ele>65.657357</ele>
        <time>2022-05-03T13:28:04.626Z</time>
      </trkpt>
      <trkpt lat="41.30876" lon="19.4862">
        <ele>65.385261</ele>
        <time>2022-05-03T13:28:07.645Z</time>
      </trkpt>
      <trkpt lat="41.30882" lon="19.4861">
        <ele>65.144563</ele>
        <time>2022-05-03T13:28:11.632Z</time>
      </trkpt>
      <trkpt lat="41.30889" lon="19.48602">
        <ele>64.91152</ele>
        <time>2022-05-03T13:28:14.616Z</time>
      </trkpt>
      <trkpt lat="41.30899" lon="19.48593">
        <ele>64.622397</ele>
        <time>2022-05-03T13:28:17.627Z</time>
      </trkpt>
      <trkpt lat="41.30905" lon="19.4858">
        <ele>64.344334</ele>
        <time>2022-05-03T13:28:20.640Z</time>
      </trkpt>
      <trkpt lat="41.30915" lon="19.48568">
        <ele>64.023289</ele>
        <time>2022-05-03T13:28:23.634Z</time>
      </trkpt>
      <trkpt lat="41.30922" lon="19.48556">
        <ele>63.737244</ele>
        <time>2022-05-03T13:28:26.634Z</time>
      </trkpt>
      <trkpt lat="41.30932" lon="19.48544">
        <ele>63.427257</ele>
        <time>2022-05-03T13:28:29.630Z</time>
      </trkpt>
      <trkpt lat="41.3094" lon="19.48532">
        <ele>63.127696</ele>
        <time>2022-05-03T13:28:32.667Z</time>
      </trkpt>
      <trkpt lat="41.30947" lon="19.48521">
        <ele>62.860513</ele>
        <time>2022-05-03T13:28:35.632Z</time>
      </trkpt>
      <trkpt lat="41.30953" lon="19.4851">
        <ele>62.622681</ele>
        <time>2022-05-03T13:28:38.638Z</time>
      </trkpt>
      <trkpt lat="41.30959" lon="19.48501">
        <ele>62.398271</ele>
        <time>2022-05-03T13:28:43.622Z</time>
      </trkpt>
      <trkpt lat="41.30968" lon="19.48496">
        <ele>62.111191</ele>
        <time>2022-05-03T13:28:47.632Z</time>
      </trkpt>
      <trkpt lat="41.30972" lon="19.48485">
        <ele>61.764577</ele>
        <time>2022-05-03T13:28:52.648Z</time>
      </trkpt>
      <trkpt lat="41.3098" lon="19.48478">
        <ele>61.407312</ele>
        <time>2022-05-03T13:28:57.617Z</time>
      </trkpt>
      <trkpt lat="41.30991" lon="19.48475">
        <ele>60.974807</ele>
        <time>2022-05-03T13:29:01.653Z</time>
      </trkpt>
      <trkpt lat="41.31001" lon="19.48468">
        <ele>60.559301</ele>
        <time>2022-05-03T13:29:04.628Z</time>
      </trkpt>
      <trkpt lat="41.31009" lon="19.48462">
        <ele>60.198711</ele>
        <time>2022-05-03T13:29:10.621Z</time>
      </trkpt>
      <trkpt lat="41.3102" lon="19.48462">
        <ele>59.786193</ele>
        <time>2022-05-03T13:29:15.635Z</time>
      </trkpt>
      <trkpt lat="41.31031" lon="19.48458">
        <ele>59.354054</ele>
        <time>2022-05-03T13:29:18.658Z</time>
      </trkpt>
      <trkpt lat="41.31037" lon="19.48444">
        <ele>58.921688</ele>
        <time>2022-05-03T13:29:21.624Z</time>
      </trkpt>
      <trkpt lat="41.31043" lon="19.48431">
        <ele>58.48815</ele>
        <time>2022-05-03T13:29:24.619Z</time>
      </trkpt>
      <trkpt lat="41.31045" lon="19.48415">
        <ele>58.028385</ele>
        <time>2022-05-03T13:29:27.634Z</time>
      </trkpt>
      <trkpt lat="41.3105" lon="19.484">
        <ele>57.57253</ele>
        <time>2022-05-03T13:29:30.636Z</time>
      </trkpt>
      <trkpt lat="41.31057" lon="19.48387">
        <ele>57.127481</ele>
        <time>2022-05-03T13:29:33.635Z</time>
      </trkpt>
      <trkpt lat="41.31062" lon="19.48372">
        <ele>56.680204</ele>
        <time>2022-05-03T13:29:36.635Z</time>
      </trkpt>
      <trkpt lat="41.31066" lon="19.4836">
        <ele>56.287426</ele>
        <time>2022-05-03T13:29:39.629Z</time>
      </trkpt>
      <trkpt lat="41.31073" lon="19.4835">
        <ele>55.912663</ele>
        <time>2022-05-03T13:29:42.647Z</time>
      </trkpt>
      <trkpt lat="41.31081" lon="19.48339">
        <ele>55.67557</ele>
        <time>2022-05-03T13:29:45.624Z</time>
      </trkpt>
      <trkpt lat="41.31088" lon="19.48324">
        <ele>56.387529</ele>
        <time>2022-05-03T13:29:48.631Z</time>
      </trkpt>
      <trkpt lat="41.31093" lon="19.48312">
        <ele>56.946904</ele>
        <time>2022-05-03T13:29:50.633Z</time>
      </trkpt>
      <trkpt lat="41.31098" lon="19.48303">
        <ele>57.445871</ele>
        <time>2022-05-03T13:29:52.631Z</time>
      </trkpt>
      <trkpt lat="41.31105" lon="19.48288">
        <ele>58.16273</ele>
        <time>2022-05-03T13:29:55.632Z</time>
      </trkpt>
      <trkpt lat="41.31111" lon="19.48274">
        <ele>58.827908</ele>
        <time>2022-05-03T13:29:58.620Z</time>
      </trkpt>
      <trkpt lat="41.31118" lon="19.48261">
        <ele>59.475459</ele>
        <time>2022-05-03T13:30:01.639Z</time>
      </trkpt>
      <trkpt lat="41.31125" lon="19.48248">
        <ele>60.153268</ele>
        <time>2022-05-03T13:30:04.623Z</time>
      </trkpt>
      <trkpt lat="41.31132" lon="19.48235">
        <ele>60.794337</ele>
        <time>2022-05-03T13:30:07.626Z</time>
      </trkpt>
      <trkpt lat="41.31139" lon="19.48223">
        <ele>61.441931</ele>
        <time>2022-05-03T13:30:10.647Z</time>
      </trkpt>
      <trkpt lat="41.31147" lon="19.48209">
        <ele>62.136193</ele>
        <time>2022-05-03T13:30:13.636Z</time>
      </trkpt>
      <trkpt lat="41.31153" lon="19.48196">
        <ele>62.774981</ele>
        <time>2022-05-03T13:30:16.632Z</time>
      </trkpt>
      <trkpt lat="41.3116" lon="19.48183">
        <ele>63.455608</ele>
        <time>2022-05-03T13:30:19.646Z</time>
      </trkpt>
      <trkpt lat="41.31167" lon="19.48171">
        <ele>64.073485</ele>
        <time>2022-05-03T13:30:22.636Z</time>
      </trkpt>
      <trkpt lat="41.31172" lon="19.48158">
        <ele>64.67328</ele>
        <time>2022-05-03T13:30:25.629Z</time>
      </trkpt>
      <trkpt lat="41.31176" lon="19.48146">
        <ele>65.205357</ele>
        <time>2022-05-03T13:30:28.629Z</time>
      </trkpt>
      <trkpt lat="41.31181" lon="19.48133">
        <ele>65.595544</ele>
        <time>2022-05-03T13:30:31.627Z</time>
      </trkpt>
      <trkpt lat="41.31186" lon="19.48121">
        <ele>65.841101</ele>
        <time>2022-05-03T13:30:34.633Z</time>
      </trkpt>
      <trkpt lat="41.31191" lon="19.48107">
        <ele>66.114434</ele>
        <time>2022-05-03T13:30:37.627Z</time>
      </trkpt>
      <trkpt lat="41.31196" lon="19.48092">
        <ele>66.413704</ele>
        <time>2022-05-03T13:30:40.622Z</time>
      </trkpt>
      <trkpt lat="41.31203" lon="19.48077">
        <ele>66.711759</ele>
        <time>2022-05-03T13:30:43.633Z</time>
      </trkpt>
      <trkpt lat="41.3121" lon="19.48064">
        <ele>66.994489</ele>
        <time>2022-05-03T13:30:46.668Z</time>
      </trkpt>
      <trkpt lat="41.31216" lon="19.4805">
        <ele>67.268842</ele>
        <time>2022-05-03T13:30:49.632Z</time>
      </trkpt>
      <trkpt lat="41.3122" lon="19.48037">
        <ele>67.519081</ele>
        <time>2022-05-03T13:30:52.635Z</time>
      </trkpt>
      <trkpt lat="41.31226" lon="19.48026">
        <ele>67.747189</ele>
        <time>2022-05-03T13:30:55.622Z</time>
      </trkpt>
      <trkpt lat="41.31232" lon="19.48014">
        <ele>68.003934</ele>
        <time>2022-05-03T13:30:59.632Z</time>
      </trkpt>
      <trkpt lat="41.31237" lon="19.48001">
        <ele>68.257371</ele>
        <time>2022-05-03T13:31:02.635Z</time>
      </trkpt>
      <trkpt lat="41.31242" lon="19.47989">
        <ele>68.506918</ele>
        <time>2022-05-03T13:31:05.634Z</time>
      </trkpt>
      <trkpt lat="41.31249" lon="19.47975">
        <ele>68.792411</ele>
        <time>2022-05-03T13:31:08.636Z</time>
      </trkpt>
      <trkpt lat="41.31256" lon="19.47963">
        <ele>69.065154</ele>
        <time>2022-05-03T13:31:11.631Z</time>
      </trkpt>
      <trkpt lat="41.31264" lon="19.47951">
        <ele>69.348911</ele>
        <time>2022-05-03T13:31:14.631Z</time>
      </trkpt>
      <trkpt lat="41.3127" lon="19.47942">
        <ele>69.558088</ele>
        <time>2022-05-03T13:31:16.654Z</time>
      </trkpt>
      <trkpt lat="41.31276" lon="19.47931">
        <ele>69.653594</ele>
        <time>2022-05-03T13:31:18.622Z</time>
      </trkpt>
      <trkpt lat="41.31282" lon="19.4792">
        <ele>69.677138</ele>
        <time>2022-05-03T13:31:20.656Z</time>
      </trkpt>
      <trkpt lat="41.31288" lon="19.4791">
        <ele>69.700541</ele>
        <time>2022-05-03T13:31:22.638Z</time>
      </trkpt>
      <trkpt lat="41.31295" lon="19.47897">
        <ele>69.72986</ele>
        <time>2022-05-03T13:31:25.651Z</time>
      </trkpt>
      <trkpt lat="41.31301" lon="19.47883">
        <ele>69.757119</ele>
        <time>2022-05-03T13:31:28.627Z</time>
      </trkpt>
      <trkpt lat="41.31306" lon="19.47869">
        <ele>69.785016</ele>
        <time>2022-05-03T13:31:31.633Z</time>
      </trkpt>
      <trkpt lat="41.31311" lon="19.47855">
        <ele>69.811501</ele>
        <time>2022-05-03T13:31:34.644Z</time>
      </trkpt>
      <trkpt lat="41.31317" lon="19.47843">
        <ele>69.837003</ele>
        <time>2022-05-03T13:31:37.640Z</time>
      </trkpt>
      <trkpt lat="41.31323" lon="19.4783">
        <ele>69.86442</ele>
        <time>2022-05-03T13:31:40.651Z</time>
      </trkpt>
      <trkpt lat="41.31328" lon="19.47819">
        <ele>69.887384</ele>
        <time>2022-05-03T13:31:43.630Z</time>
      </trkpt>
      <trkpt lat="41.31335" lon="19.47805">
        <ele>69.915627</ele>
        <time>2022-05-03T13:31:46.640Z</time>
      </trkpt>
      <trkpt lat="41.31342" lon="19.47792">
        <ele>69.945377</ele>
        <time>2022-05-03T13:31:49.629Z</time>
      </trkpt>
      <trkpt lat="41.31349" lon="19.47778">
        <ele>69.974468</ele>
        <time>2022-05-03T13:31:52.666Z</time>
      </trkpt>
      <trkpt lat="41.31356" lon="19.47764">
        <ele>70.003981</ele>
        <time>2022-05-03T13:31:55.629Z</time>
      </trkpt>
      <trkpt lat="41.31362" lon="19.47751">
        <ele>70.030602</ele>
        <time>2022-05-03T13:31:58.668Z</time>
      </trkpt>
      <trkpt lat="41.31368" lon="19.47739">
        <ele>70.056407</ele>
        <time>2022-05-03T13:32:01.639Z</time>
      </trkpt>
      <trkpt lat="41.31373" lon="19.47722">
        <ele>70.198866</ele>
        <time>2022-05-03T13:32:04.642Z</time>
      </trkpt>
      <trkpt lat="41.31377" lon="19.47711">
        <ele>70.30467</ele>
        <time>2022-05-03T13:32:06.667Z</time>
      </trkpt>
      <trkpt lat="41.31383" lon="19.47697">
        <ele>70.442753</ele>
        <time>2022-05-03T13:32:09.648Z</time>
      </trkpt>
      <trkpt lat="41.31388" lon="19.47683">
        <ele>70.570787</ele>
        <time>2022-05-03T13:32:12.650Z</time>
      </trkpt>
      <trkpt lat="41.31393" lon="19.4767">
        <ele>70.70128</ele>
        <time>2022-05-03T13:32:15.649Z</time>
      </trkpt>
      <trkpt lat="41.31399" lon="19.47658">
        <ele>70.823293</ele>
        <time>2022-05-03T13:32:18.629Z</time>
      </trkpt>
      <trkpt lat="41.31402" lon="19.47641">
        <ele>70.973627</ele>
        <time>2022-05-03T13:32:21.647Z</time>
      </trkpt>
      <trkpt lat="41.31407" lon="19.47631">
        <ele>71.077472</ele>
        <time>2022-05-03T13:32:23.647Z</time>
      </trkpt>
      <trkpt lat="41.31416" lon="19.47619">
        <ele>71.226797</ele>
        <time>2022-05-03T13:32:26.643Z</time>
      </trkpt>
      <trkpt lat="41.31421" lon="19.47608">
        <ele>71.339045</ele>
        <time>2022-05-03T13:32:28.634Z</time>
      </trkpt>
      <trkpt lat="41.31429" lon="19.47595">
        <ele>71.479001</ele>
        <time>2022-05-03T13:32:31.646Z</time>
      </trkpt>
      <trkpt lat="41.31435" lon="19.47582">
        <ele>71.61794</ele>
        <time>2022-05-03T13:32:34.635Z</time>
      </trkpt>
      <trkpt lat="41.3144" lon="19.47571">
        <ele>71.728658</ele>
        <time>2022-05-03T13:32:37.625Z</time>
      </trkpt>
      <trkpt lat="41.31444" lon="19.47557">
        <ele>71.857927</ele>
        <time>2022-05-03T13:32:41.645Z</time>
      </trkpt>
      <trkpt lat="41.31448" lon="19.47546">
        <ele>71.965014</ele>
        <time>2022-05-03T13:32:44.640Z</time>
      </trkpt>
      <trkpt lat="41.31453" lon="19.47532">
        <ele>72.09037</ele>
        <time>2022-05-03T13:32:47.630Z</time>
      </trkpt>
      <trkpt lat="41.31457" lon="19.4752">
        <ele>71.969946</ele>
        <time>2022-05-03T13:32:50.619Z</time>
      </trkpt>
      <trkpt lat="41.31463" lon="19.47509">
        <ele>71.723452</ele>
        <time>2022-05-03T13:32:53.638Z</time>
      </trkpt>
      <trkpt lat="41.31469" lon="19.47495">
        <ele>71.412141</ele>
        <time>2022-05-03T13:32:56.634Z</time>
      </trkpt>
      <trkpt lat="41.31475" lon="19.4748">
        <ele>71.096279</ele>
        <time>2022-05-03T13:32:59.642Z</time>
      </trkpt>
      <trkpt lat="41.31482" lon="19.47464">
        <ele>70.753338</ele>
        <time>2022-05-03T13:33:02.637Z</time>
      </trkpt>
      <trkpt lat="41.31486" lon="19.47452">
        <ele>70.491031</ele>
        <time>2022-05-03T13:33:04.647Z</time>
      </trkpt>
      <trkpt lat="41.31491" lon="19.47436">
        <ele>70.177045</ele>
        <time>2022-05-03T13:33:07.624Z</time>
      </trkpt>
      <trkpt lat="41.31495" lon="19.47423">
        <ele>69.903998</ele>
        <time>2022-05-03T13:33:10.631Z</time>
      </trkpt>
      <trkpt lat="41.31499" lon="19.47408">
        <ele>69.591139</ele>
        <time>2022-05-03T13:33:13.638Z</time>
      </trkpt>
      <trkpt lat="41.31504" lon="19.47393">
        <ele>69.294747</ele>
        <time>2022-05-03T13:33:16.649Z</time>
      </trkpt>
      <trkpt lat="41.3151" lon="19.47379">
        <ele>68.998165</ele>
        <time>2022-05-03T13:33:19.630Z</time>
      </trkpt>
      <trkpt lat="41.31515" lon="19.47367">
        <ele>68.725549</ele>
        <time>2022-05-03T13:33:22.652Z</time>
      </trkpt>
      <trkpt lat="41.3152" lon="19.47353">
        <ele>68.427297</ele>
        <time>2022-05-03T13:33:25.643Z</time>
      </trkpt>
      <trkpt lat="41.31524" lon="19.47339">
        <ele>68.150304</ele>
        <time>2022-05-03T13:33:28.646Z</time>
      </trkpt>
      <trkpt lat="41.31529" lon="19.47323">
        <ele>67.833955</ele>
        <time>2022-05-03T13:33:31.664Z</time>
      </trkpt>
      <trkpt lat="41.31532" lon="19.47312">
        <ele>67.613816</ele>
        <time>2022-05-03T13:33:33.620Z</time>
      </trkpt>
      <trkpt lat="41.31538" lon="19.473">
        <ele>67.613816</ele>
        <time>2022-05-03T13:33:36.631Z</time>
      </trkpt>
      <trkpt lat="41.31544" lon="19.47288">
        <ele>67.613816</ele>
        <time>2022-05-03T13:33:41.644Z</time>
      </trkpt>
      <trkpt lat="41.31536" lon="19.47279">
        <ele>67.613816</ele>
        <time>2022-05-03T13:34:11.652Z</time>
      </trkpt>
      <trkpt lat="41.31529" lon="19.47288">
        <ele>67.613816</ele>
        <time>2022-05-03T13:34:15.645Z</time>
      </trkpt>
      <trkpt lat="41.31519" lon="19.47289">
        <ele>67.613816</ele>
        <time>2022-05-03T13:34:21.667Z</time>
      </trkpt>
      <trkpt lat="41.31509" lon="19.47281">
        <ele>67.613816</ele>
        <time>2022-05-03T13:34:25.640Z</time>
      </trkpt>
      <trkpt lat="41.315" lon="19.47275">
        <ele>67.613816</ele>
        <time>2022-05-03T13:34:28.645Z</time>
      </trkpt>
      <trkpt lat="41.31492" lon="19.47267">
        <ele>67.613816</ele>
        <time>2022-05-03T13:34:32.639Z</time>
      </trkpt>
      <trkpt lat="41.31486" lon="19.47258">
        <ele>67.613816</ele>
        <time>2022-05-03T13:34:38.619Z</time>
      </trkpt>
      <trkpt lat="41.31485" lon="19.47246">
        <ele>67.613816</ele>
        <time>2022-05-03T13:34:49.732Z</time>
      </trkpt>
      <trkpt lat="41.31486" lon="19.47232">
        <ele>67.613816</ele>
        <time>2022-05-03T13:34:52.632Z</time>
      </trkpt>
      <trkpt lat="41.31491" lon="19.47217">
        <ele>67.613816</ele>
        <time>2022-05-03T13:34:56.641Z</time>
      </trkpt>
      <trkpt lat="41.31491" lon="19.47205">
        <ele>67.613816</ele>
        <time>2022-05-03T13:35:00.634Z</time>
      </trkpt>
      <trkpt lat="41.31484" lon="19.47168">
        <ele>67.613816</ele>
        <time>2022-05-03T13:35:55.670Z</time>
      </trkpt>
      <trkpt lat="41.31475" lon="19.47166">
        <ele>67.613816</ele>
        <time>2022-05-03T13:36:04.647Z</time>
      </trkpt>
      <trkpt lat="41.31466" lon="19.47166">
        <ele>67.613816</ele>
        <time>2022-05-03T13:36:13.639Z</time>
      </trkpt>
      <trkpt lat="41.31456" lon="19.47177">
        <ele>67.613816</ele>
        <time>2022-05-03T13:43:33.675Z</time>
      </trkpt>
      <trkpt lat="41.31465" lon="19.47181">
        <ele>67.613816</ele>
        <time>2022-05-03T13:43:50.632Z</time>
      </trkpt>
      <trkpt lat="41.31468" lon="19.47191">
        <ele>67.613816</ele>
        <time>2022-05-03T13:49:59.616Z</time>
      </trkpt>
    </trkseg>
  </trk>
</gpx>